<?xml version='1.0' encoding='UTF-8'?><gpx version="1.1" creator="JPX - https://github.com/jenetics/jpx" xmlns="http://www.topografix.com/GPX/1/1"><trk><trkseg><trkpt lat="43.3206767" lon="13.4269917"><ele>95.0</ele><time>2026-04-26T08:07:53.527Z</time></trkpt><trkpt lat="43.3206067" lon="13.427025"><ele>95.0</ele><time>2026-04-26T08:07:54.527Z</time></trkpt><trkpt lat="43.3205217" lon="13.427065"><ele>95.0</ele><time>2026-04-26T08:07:55.527Z</time></trkpt><trkpt lat="43.320425" lon="13.427135"><ele>95.0</ele><time>2026-04-26T08:07:56.527Z</time></trkpt><trkpt lat="43.320325" lon="13.4271967"><ele>95.0</ele><time>2026-04-26T08:07:57.528Z</time></trkpt><trkpt lat="43.32021" lon="13.427245"><ele>96.25</ele><time>2026-04-26T08:07:58.527Z</time></trkpt><trkpt lat="43.3200817" lon="13.42728"><ele>97.5</ele><time>2026-04-26T08:07:59.527Z</time></trkpt><trkpt lat="43.319955" lon="13.4272917"><ele>98.75</ele><time>2026-04-26T08:08:00.528Z</time></trkpt><trkpt lat="43.319835" lon="13.4272833"><ele>100.0</ele><time>2026-04-26T08:08:01.528Z</time></trkpt><trkpt lat="43.3197317" lon="13.4272383"><ele>100.25</ele><time>2026-04-26T08:08:02.527Z</time></trkpt><trkpt lat="43.3196083" lon="13.4271767"><ele>100.5</ele><time>2026-04-26T08:08:03.527Z</time></trkpt><trkpt lat="43.3194933" lon="13.42707"><ele>100.75</ele><time>2026-04-26T08:08:04.527Z</time></trkpt><trkpt lat="43.31938" lon="13.4269283"><ele>101.0</ele><time>2026-04-26T08:08:05.527Z</time></trkpt><trkpt lat="43.3192617" lon="13.4267833"><ele>101.0</ele><time>2026-04-26T08:08:06.527Z</time></trkpt><trkpt lat="43.31913" lon="13.4266217"><ele>101.0</ele><time>2026-04-26T08:08:07.527Z</time></trkpt><trkpt lat="43.3189983" lon="13.4264583"><ele>101.0</ele><time>2026-04-26T08:08:08.528Z</time></trkpt><trkpt lat="43.31887" lon="13.4263"><ele>101.5</ele><time>2026-04-26T08:08:09.527Z</time></trkpt><trkpt lat="43.3187533" lon="13.426175"><ele>102.0</ele><time>2026-04-26T08:08:10.527Z</time></trkpt><trkpt lat="43.3186583" lon="13.4260717"><ele>102.5</ele><time>2026-04-26T08:08:11.527Z</time></trkpt><trkpt lat="43.3185533" lon="13.4260183"><ele>103.0</ele><time>2026-04-26T08:08:12.527Z</time></trkpt><trkpt lat="43.3184183" lon="13.4260083"><ele>103.0</ele><time>2026-04-26T08:08:13.527Z</time></trkpt><trkpt lat="43.3182467" lon="13.4260433"><ele>103.0</ele><time>2026-04-26T08:08:14.527Z</time></trkpt><trkpt lat="43.3180567" lon="13.4261133"><ele>103.0</ele><time>2026-04-26T08:08:15.528Z</time></trkpt><trkpt lat="43.3178267" lon="13.4262033"><ele>105.5</ele><time>2026-04-26T08:08:16.527Z</time></trkpt><trkpt lat="43.3175767" lon="13.4262933"><ele>108.0</ele><time>2026-04-26T08:08:17.527Z</time></trkpt><trkpt lat="43.317325" lon="13.426375"><ele>110.0</ele><time>2026-04-26T08:08:18.527Z</time></trkpt><trkpt lat="43.3170933" lon="13.426455"><ele>112.0</ele><time>2026-04-26T08:08:19.528Z</time></trkpt><trkpt lat="43.3168767" lon="13.4265217"><ele>112.0</ele><time>2026-04-26T08:08:20.527Z</time></trkpt><trkpt lat="43.3166633" lon="13.4266"><ele>112.0</ele><time>2026-04-26T08:08:21.527Z</time></trkpt><trkpt lat="43.3164683" lon="13.4266867"><ele>112.0</ele><time>2026-04-26T08:08:22.528Z</time></trkpt><trkpt lat="43.3162933" lon="13.4267883"><ele>114.0</ele><time>2026-04-26T08:08:23.527Z</time></trkpt><trkpt lat="43.3161333" lon="13.4269317"><ele>116.0</ele><time>2026-04-26T08:08:24.527Z</time></trkpt><trkpt lat="43.315995" lon="13.4271133"><ele>118.0</ele><time>2026-04-26T08:08:25.527Z</time></trkpt><trkpt lat="43.3158567" lon="13.4273067"><ele>118.0</ele><time>2026-04-26T08:08:26.527Z</time></trkpt><trkpt lat="43.3157367" lon="13.4274783"><ele>118.0</ele><time>2026-04-26T08:08:27.527Z</time></trkpt><trkpt lat="43.3156367" lon="13.4276367"><ele>118.0</ele><time>2026-04-26T08:08:28.528Z</time></trkpt><trkpt lat="43.3155483" lon="13.4277583"><ele>119.66666666666667</ele><time>2026-04-26T08:08:29.527Z</time></trkpt><trkpt lat="43.3154767" lon="13.4278417"><ele>121.33333333333334</ele><time>2026-04-26T08:08:30.527Z</time></trkpt><trkpt lat="43.3154067" lon="13.427895"><ele>123.0</ele><time>2026-04-26T08:08:31.527Z</time></trkpt><trkpt lat="43.315325" lon="13.4279017"><ele>124.66666666666666</ele><time>2026-04-26T08:08:32.527Z</time></trkpt><trkpt lat="43.3152517" lon="13.4278583"><ele>126.33333333333333</ele><time>2026-04-26T08:08:33.527Z</time></trkpt><trkpt lat="43.315195" lon="13.4277783"><ele>128.0</ele><time>2026-04-26T08:08:34.528Z</time></trkpt><trkpt lat="43.3151733" lon="13.4276683"><ele>128.0</ele><time>2026-04-26T08:08:35.527Z</time></trkpt><trkpt lat="43.31519" lon="13.4275233"><ele>128.0</ele><time>2026-04-26T08:08:36.527Z</time></trkpt><trkpt lat="43.3152483" lon="13.4273417"><ele>128.0</ele><time>2026-04-26T08:08:37.527Z</time></trkpt><trkpt lat="43.31535" lon="13.4271117"><ele>128.0</ele><time>2026-04-26T08:08:38.527Z</time></trkpt><trkpt lat="43.31543" lon="13.4268767"><ele>129.33333333333331</ele><time>2026-04-26T08:08:39.527Z</time></trkpt><trkpt lat="43.3154717" lon="13.42665"><ele>130.66666666666666</ele><time>2026-04-26T08:08:40.527Z</time></trkpt><trkpt lat="43.3154867" lon="13.42641"><ele>132.0</ele><time>2026-04-26T08:08:41.527Z</time></trkpt><trkpt lat="43.3154617" lon="13.426185"><ele>132.0</ele><time>2026-04-26T08:08:42.528Z</time></trkpt><trkpt lat="43.315395" lon="13.42598"><ele>132.0</ele><time>2026-04-26T08:08:43.527Z</time></trkpt><trkpt lat="43.3152983" lon="13.4257917"><ele>132.0</ele><time>2026-04-26T08:08:44.527Z</time></trkpt><trkpt lat="43.3151767" lon="13.4256267"><ele>132.66666666666666</ele><time>2026-04-26T08:08:45.528Z</time></trkpt><trkpt lat="43.315025" lon="13.4254767"><ele>133.33333333333331</ele><time>2026-04-26T08:08:46.527Z</time></trkpt><trkpt lat="43.314855" lon="13.4253383"><ele>134.0</ele><time>2026-04-26T08:08:47.527Z</time></trkpt><trkpt lat="43.31467" lon="13.42521"><ele>134.0</ele><time>2026-04-26T08:08:48.527Z</time></trkpt><trkpt lat="43.3144767" lon="13.4250783"><ele>134.0</ele><time>2026-04-26T08:08:49.527Z</time></trkpt><trkpt lat="43.314285" lon="13.4249433"><ele>134.0</ele><time>2026-04-26T08:08:50.527Z</time></trkpt><trkpt lat="43.3140833" lon="13.4248067"><ele>135.5</ele><time>2026-04-26T08:08:51.527Z</time></trkpt><trkpt lat="43.3138767" lon="13.42466"><ele>137.0</ele><time>2026-04-26T08:08:52.527Z</time></trkpt><trkpt lat="43.3136717" lon="13.4245183"><ele>137.0</ele><time>2026-04-26T08:08:53.527Z</time></trkpt><trkpt lat="43.31348" lon="13.4243833"><ele>137.0</ele><time>2026-04-26T08:08:54.528Z</time></trkpt><trkpt lat="43.3132917" lon="13.424255"><ele>137.0</ele><time>2026-04-26T08:08:55.527Z</time></trkpt><trkpt lat="43.3131067" lon="13.4241267"><ele>137.33333333333331</ele><time>2026-04-26T08:08:56.527Z</time></trkpt><trkpt lat="43.312915" lon="13.4239967"><ele>137.66666666666666</ele><time>2026-04-26T08:08:57.527Z</time></trkpt><trkpt lat="43.3127233" lon="13.423865"><ele>138.0</ele><time>2026-04-26T08:08:58.527Z</time></trkpt><trkpt lat="43.312535" lon="13.423725"><ele>138.0</ele><time>2026-04-26T08:08:59.528Z</time></trkpt><trkpt lat="43.312335" lon="13.4235833"><ele>138.0</ele><time>2026-04-26T08:09:00.527Z</time></trkpt><trkpt lat="43.3121317" lon="13.4234667"><ele>138.0</ele><time>2026-04-26T08:09:01.527Z</time></trkpt><trkpt lat="43.31192" lon="13.42336"><ele>141.33333333333334</ele><time>2026-04-26T08:09:02.527Z</time></trkpt><trkpt lat="43.31171" lon="13.423265"><ele>144.66666666666669</ele><time>2026-04-26T08:09:03.528Z</time></trkpt><trkpt lat="43.3114933" lon="13.4231733"><ele>148.0</ele><time>2026-04-26T08:09:04.527Z</time></trkpt><trkpt lat="43.311275" lon="13.4230783"><ele>147.5</ele><time>2026-04-26T08:09:05.527Z</time></trkpt><trkpt lat="43.3110567" lon="13.4229783"><ele>147.0</ele><time>2026-04-26T08:09:06.527Z</time></trkpt><trkpt lat="43.3108467" lon="13.4228783"><ele>147.0</ele><time>2026-04-26T08:09:07.527Z</time></trkpt><trkpt lat="43.31064" lon="13.422775"><ele>147.0</ele><time>2026-04-26T08:09:08.527Z</time></trkpt><trkpt lat="43.31044" lon="13.4226633"><ele>147.0</ele><time>2026-04-26T08:09:09.527Z</time></trkpt><trkpt lat="43.3102517" lon="13.42252"><ele>147.66666666666666</ele><time>2026-04-26T08:09:10.527Z</time></trkpt><trkpt lat="43.3100733" lon="13.4223633"><ele>148.33333333333331</ele><time>2026-04-26T08:09:11.527Z</time></trkpt><trkpt lat="43.3099083" lon="13.4221867"><ele>149.0</ele><time>2026-04-26T08:09:12.527Z</time></trkpt><trkpt lat="43.3097433" lon="13.4220117"><ele>152.66666666666666</ele><time>2026-04-26T08:09:13.528Z</time></trkpt><trkpt lat="43.309585" lon="13.421835"><ele>156.33333333333334</ele><time>2026-04-26T08:09:14.527Z</time></trkpt><trkpt lat="43.3094217" lon="13.42167"><ele>160.0</ele><time>2026-04-26T08:09:15.528Z</time></trkpt><trkpt lat="43.30927" lon="13.4214967"><ele>160.0</ele><time>2026-04-26T08:09:16.528Z</time></trkpt><trkpt lat="43.3091183" lon="13.42132"><ele>160.0</ele><time>2026-04-26T08:09:17.528Z</time></trkpt><trkpt lat="43.3089633" lon="13.4211467"><ele>160.0</ele><time>2026-04-26T08:09:18.527Z</time></trkpt><trkpt lat="43.3088333" lon="13.42099"><ele>161.0</ele><time>2026-04-26T08:09:19.527Z</time></trkpt><trkpt lat="43.3087283" lon="13.4208233"><ele>162.0</ele><time>2026-04-26T08:09:20.527Z</time></trkpt><trkpt lat="43.3086333" lon="13.420655"><ele>163.0</ele><time>2026-04-26T08:09:21.527Z</time></trkpt><trkpt lat="43.3085567" lon="13.4204633"><ele>163.0</ele><time>2026-04-26T08:09:22.527Z</time></trkpt><trkpt lat="43.3084867" lon="13.4202617"><ele>163.0</ele><time>2026-04-26T08:09:23.526Z</time></trkpt><trkpt lat="43.3083867" lon="13.4200583"><ele>163.0</ele><time>2026-04-26T08:09:24.527Z</time></trkpt><trkpt lat="43.3082733" lon="13.4198717"><ele>163.0</ele><time>2026-04-26T08:09:25.526Z</time></trkpt><trkpt lat="43.3081383" lon="13.4196983"><ele>163.0</ele><time>2026-04-26T08:09:26.526Z</time></trkpt><trkpt lat="43.3079883" lon="13.4195233"><ele>163.0</ele><time>2026-04-26T08:09:27.526Z</time></trkpt><trkpt lat="43.3078333" lon="13.419365"><ele>164.66666666666669</ele><time>2026-04-26T08:09:28.526Z</time></trkpt><trkpt lat="43.307665" lon="13.4192067"><ele>166.33333333333334</ele><time>2026-04-26T08:09:29.526Z</time></trkpt><trkpt lat="43.3074817" lon="13.4190683"><ele>168.0</ele><time>2026-04-26T08:09:30.527Z</time></trkpt><trkpt lat="43.30729" lon="13.41896"><ele>168.33333333333334</ele><time>2026-04-26T08:09:31.527Z</time></trkpt><trkpt lat="43.3070867" lon="13.4188583"><ele>168.66666666666669</ele><time>2026-04-26T08:09:32.526Z</time></trkpt><trkpt lat="43.3068833" lon="13.4187517"><ele>169.0</ele><time>2026-04-26T08:09:33.527Z</time></trkpt><trkpt lat="43.3066767" lon="13.4186583"><ele>169.0</ele><time>2026-04-26T08:09:34.527Z</time></trkpt><trkpt lat="43.30648" lon="13.4185617"><ele>169.0</ele><time>2026-04-26T08:09:35.526Z</time></trkpt><trkpt lat="43.30631" lon="13.418465"><ele>169.0</ele><time>2026-04-26T08:09:36.526Z</time></trkpt><trkpt lat="43.306155" lon="13.418345"><ele>171.33333333333334</ele><time>2026-04-26T08:09:37.526Z</time></trkpt><trkpt lat="43.3060217" lon="13.418205"><ele>173.66666666666666</ele><time>2026-04-26T08:09:38.526Z</time></trkpt><trkpt lat="43.3059033" lon="13.418045"><ele>176.0</ele><time>2026-04-26T08:09:39.526Z</time></trkpt><trkpt lat="43.3058033" lon="13.4178483"><ele>176.0</ele><time>2026-04-26T08:09:40.526Z</time></trkpt><trkpt lat="43.305695" lon="13.4176483"><ele>176.0</ele><time>2026-04-26T08:09:41.527Z</time></trkpt><trkpt lat="43.3055817" lon="13.4174433"><ele>176.0</ele><time>2026-04-26T08:09:42.526Z</time></trkpt><trkpt lat="43.3054733" lon="13.41723"><ele>178.66666666666666</ele><time>2026-04-26T08:09:43.526Z</time></trkpt><trkpt lat="43.3053717" lon="13.4170183"><ele>181.33333333333334</ele><time>2026-04-26T08:09:44.526Z</time></trkpt><trkpt lat="43.305275" lon="13.4168267"><ele>184.0</ele><time>2026-04-26T08:09:45.526Z</time></trkpt><trkpt lat="43.305185" lon="13.41667"><ele>184.0</ele><time>2026-04-26T08:09:46.526Z</time></trkpt><trkpt lat="43.3050967" lon="13.41655"><ele>184.0</ele><time>2026-04-26T08:09:47.527Z</time></trkpt><trkpt lat="43.305" lon="13.4164733"><ele>184.0</ele><time>2026-04-26T08:09:48.526Z</time></trkpt><trkpt lat="43.3049" lon="13.4164383"><ele>184.0</ele><time>2026-04-26T08:09:49.526Z</time></trkpt><trkpt lat="43.3047867" lon="13.4164517"><ele>185.75</ele><time>2026-04-26T08:09:50.526Z</time></trkpt><trkpt lat="43.30467" lon="13.4165183"><ele>187.5</ele><time>2026-04-26T08:09:51.526Z</time></trkpt><trkpt lat="43.3045433" lon="13.4166283"><ele>189.25</ele><time>2026-04-26T08:09:52.526Z</time></trkpt><trkpt lat="43.3044183" lon="13.4167817"><ele>191.0</ele><time>2026-04-26T08:09:53.527Z</time></trkpt><trkpt lat="43.3042883" lon="13.4169483"><ele>191.0</ele><time>2026-04-26T08:09:54.526Z</time></trkpt><trkpt lat="43.304155" lon="13.4171"><ele>191.0</ele><time>2026-04-26T08:09:55.526Z</time></trkpt><trkpt lat="43.30403" lon="13.4172267"><ele>191.0</ele><time>2026-04-26T08:09:56.526Z</time></trkpt><trkpt lat="43.3039217" lon="13.4173283"><ele>193.60000000000002</ele><time>2026-04-26T08:09:57.527Z</time></trkpt><trkpt lat="43.3038317" lon="13.41742"><ele>196.2</ele><time>2026-04-26T08:09:58.527Z</time></trkpt><trkpt lat="43.30376" lon="13.417475"><ele>198.8</ele><time>2026-04-26T08:09:59.526Z</time></trkpt><trkpt lat="43.303655" lon="13.4174933"><ele>201.39999999999998</ele><time>2026-04-26T08:10:01.526Z</time></trkpt><trkpt lat="43.3035733" lon="13.41735"><ele>204.0</ele><time>2026-04-26T08:10:03.526Z</time></trkpt><trkpt lat="43.3035267" lon="13.4172167"><ele>202.66666666666669</ele><time>2026-04-26T08:10:04.526Z</time></trkpt><trkpt lat="43.303475" lon="13.4170467"><ele>201.33333333333334</ele><time>2026-04-26T08:10:05.526Z</time></trkpt><trkpt lat="43.303425" lon="13.416815"><ele>200.0</ele><time>2026-04-26T08:10:06.527Z</time></trkpt><trkpt lat="43.3033767" lon="13.41658"><ele>200.0</ele><time>2026-04-26T08:10:07.527Z</time></trkpt><trkpt lat="43.303335" lon="13.4163633"><ele>200.0</ele><time>2026-04-26T08:10:08.527Z</time></trkpt><trkpt lat="43.3032717" lon="13.4161567"><ele>200.0</ele><time>2026-04-26T08:10:09.526Z</time></trkpt><trkpt lat="43.3031933" lon="13.4159583"><ele>197.0</ele><time>2026-04-26T08:10:10.526Z</time></trkpt><trkpt lat="43.3031067" lon="13.4157533"><ele>194.0</ele><time>2026-04-26T08:10:11.526Z</time></trkpt><trkpt lat="43.3030183" lon="13.41556"><ele>191.0</ele><time>2026-04-26T08:10:12.527Z</time></trkpt><trkpt lat="43.3029433" lon="13.4153517"><ele>187.33333333333331</ele><time>2026-04-26T08:10:13.526Z</time></trkpt><trkpt lat="43.30287" lon="13.4151283"><ele>183.66666666666666</ele><time>2026-04-26T08:10:14.526Z</time></trkpt><trkpt lat="43.30279" lon="13.4149067"><ele>180.0</ele><time>2026-04-26T08:10:15.526Z</time></trkpt><trkpt lat="43.302715" lon="13.4146783"><ele>178.33333333333334</ele><time>2026-04-26T08:10:16.526Z</time></trkpt><trkpt lat="43.3026333" lon="13.4144467"><ele>176.66666666666669</ele><time>2026-04-26T08:10:17.526Z</time></trkpt><trkpt lat="43.3025533" lon="13.41419"><ele>175.0</ele><time>2026-04-26T08:10:18.527Z</time></trkpt><trkpt lat="43.3024683" lon="13.4139317"><ele>173.66666666666669</ele><time>2026-04-26T08:10:19.526Z</time></trkpt><trkpt lat="43.3023967" lon="13.413675"><ele>172.33333333333334</ele><time>2026-04-26T08:10:20.526Z</time></trkpt><trkpt lat="43.3023333" lon="13.4134317"><ele>171.0</ele><time>2026-04-26T08:10:21.526Z</time></trkpt><trkpt lat="43.302265" lon="13.4131933"><ele>168.0</ele><time>2026-04-26T08:10:22.526Z</time></trkpt><trkpt lat="43.30221" lon="13.4129633"><ele>165.0</ele><time>2026-04-26T08:10:23.526Z</time></trkpt><trkpt lat="43.3021683" lon="13.41276"><ele>162.0</ele><time>2026-04-26T08:10:24.526Z</time></trkpt><trkpt lat="43.3021233" lon="13.4125783"><ele>162.0</ele><time>2026-04-26T08:10:25.527Z</time></trkpt><trkpt lat="43.30209" lon="13.4124283"><ele>162.0</ele><time>2026-04-26T08:10:26.527Z</time></trkpt><trkpt lat="43.3020717" lon="13.4123"><ele>162.0</ele><time>2026-04-26T08:10:27.526Z</time></trkpt><trkpt lat="43.30207" lon="13.4121833"><ele>162.0</ele><time>2026-04-26T08:10:28.526Z</time></trkpt><trkpt lat="43.30207" lon="13.4120733"><ele>162.0</ele><time>2026-04-26T08:10:29.527Z</time></trkpt><trkpt lat="43.30206" lon="13.4119667"><ele>162.0</ele><time>2026-04-26T08:10:30.527Z</time></trkpt><trkpt lat="43.3020217" lon="13.4118817"><ele>162.0</ele><time>2026-04-26T08:10:31.526Z</time></trkpt><trkpt lat="43.3019567" lon="13.411825"><ele>162.0</ele><time>2026-04-26T08:10:32.526Z</time></trkpt><trkpt lat="43.3018617" lon="13.4117817"><ele>162.0</ele><time>2026-04-26T08:10:33.527Z</time></trkpt><trkpt lat="43.30174" lon="13.4117483"><ele>162.0</ele><time>2026-04-26T08:10:34.526Z</time></trkpt><trkpt lat="43.3016" lon="13.4117267"><ele>162.0</ele><time>2026-04-26T08:10:35.526Z</time></trkpt><trkpt lat="43.3014483" lon="13.4116867"><ele>162.0</ele><time>2026-04-26T08:10:36.526Z</time></trkpt><trkpt lat="43.3012767" lon="13.4116433"><ele>162.0</ele><time>2026-04-26T08:10:37.526Z</time></trkpt><trkpt lat="43.301105" lon="13.4116033"><ele>158.33333333333334</ele><time>2026-04-26T08:10:38.526Z</time></trkpt><trkpt lat="43.3009233" lon="13.4115667"><ele>154.66666666666669</ele><time>2026-04-26T08:10:39.527Z</time></trkpt><trkpt lat="43.30074" lon="13.411525"><ele>151.0</ele><time>2026-04-26T08:10:40.526Z</time></trkpt><trkpt lat="43.3005533" lon="13.4114767"><ele>151.0</ele><time>2026-04-26T08:10:41.526Z</time></trkpt><trkpt lat="43.300375" lon="13.4114333"><ele>151.0</ele><time>2026-04-26T08:10:42.526Z</time></trkpt><trkpt lat="43.300195" lon="13.4113883"><ele>151.0</ele><time>2026-04-26T08:10:43.526Z</time></trkpt><trkpt lat="43.30002" lon="13.4113383"><ele>150.25</ele><time>2026-04-26T08:10:44.526Z</time></trkpt><trkpt lat="43.2998633" lon="13.411285"><ele>149.5</ele><time>2026-04-26T08:10:45.526Z</time></trkpt><trkpt lat="43.2997217" lon="13.41124"><ele>148.75</ele><time>2026-04-26T08:10:46.526Z</time></trkpt><trkpt lat="43.2995917" lon="13.4112033"><ele>148.0</ele><time>2026-04-26T08:10:47.526Z</time></trkpt><trkpt lat="43.2994767" lon="13.41119"><ele>149.66666666666669</ele><time>2026-04-26T08:10:48.526Z</time></trkpt><trkpt lat="43.2993833" lon="13.4111933"><ele>151.33333333333334</ele><time>2026-04-26T08:10:49.526Z</time></trkpt><trkpt lat="43.299295" lon="13.411205"><ele>153.0</ele><time>2026-04-26T08:10:50.527Z</time></trkpt><trkpt lat="43.29922" lon="13.411215"><ele>154.66666666666666</ele><time>2026-04-26T08:10:51.526Z</time></trkpt><trkpt lat="43.2991367" lon="13.4112283"><ele>156.33333333333331</ele><time>2026-04-26T08:10:53.527Z</time></trkpt><trkpt lat="43.2990883" lon="13.4111583"><ele>158.0</ele><time>2026-04-26T08:10:55.526Z</time></trkpt><trkpt lat="43.2990817" lon="13.41098"><ele>158.0</ele><time>2026-04-26T08:10:57.526Z</time></trkpt><trkpt lat="43.2990833" lon="13.410845"><ele>158.0</ele><time>2026-04-26T08:10:58.526Z</time></trkpt><trkpt lat="43.2990783" lon="13.4106717"><ele>158.0</ele><time>2026-04-26T08:10:59.526Z</time></trkpt><trkpt lat="43.2990733" lon="13.4104733"><ele>158.0</ele><time>2026-04-26T08:11:00.526Z</time></trkpt><trkpt lat="43.2990583" lon="13.4102717"><ele>158.0</ele><time>2026-04-26T08:11:01.527Z</time></trkpt><trkpt lat="43.2990467" lon="13.4100867"><ele>158.0</ele><time>2026-04-26T08:11:02.526Z</time></trkpt><trkpt lat="43.29904" lon="13.4099017"><ele>158.0</ele><time>2026-04-26T08:11:03.526Z</time></trkpt><trkpt lat="43.2990417" lon="13.4097067"><ele>158.0</ele><time>2026-04-26T08:11:04.526Z</time></trkpt><trkpt lat="43.2990483" lon="13.4095017"><ele>158.33333333333331</ele><time>2026-04-26T08:11:05.527Z</time></trkpt><trkpt lat="43.2990583" lon="13.4092867"><ele>158.66666666666666</ele><time>2026-04-26T08:11:06.526Z</time></trkpt><trkpt lat="43.2990683" lon="13.409045"><ele>159.0</ele><time>2026-04-26T08:11:07.526Z</time></trkpt><trkpt lat="43.2990733" lon="13.4088083"><ele>159.0</ele><time>2026-04-26T08:11:08.526Z</time></trkpt><trkpt lat="43.2990717" lon="13.40858"><ele>159.0</ele><time>2026-04-26T08:11:09.526Z</time></trkpt><trkpt lat="43.299065" lon="13.4083667"><ele>159.0</ele><time>2026-04-26T08:11:10.527Z</time></trkpt><trkpt lat="43.2990433" lon="13.40819"><ele>159.0</ele><time>2026-04-26T08:11:11.527Z</time></trkpt><trkpt lat="43.299015" lon="13.40802"><ele>159.0</ele><time>2026-04-26T08:11:12.526Z</time></trkpt><trkpt lat="43.2989533" lon="13.4078683"><ele>159.0</ele><time>2026-04-26T08:11:13.526Z</time></trkpt><trkpt lat="43.2988817" lon="13.407705"><ele>159.0</ele><time>2026-04-26T08:11:14.526Z</time></trkpt><trkpt lat="43.2987983" lon="13.4075467"><ele>158.66666666666666</ele><time>2026-04-26T08:11:15.526Z</time></trkpt><trkpt lat="43.2986983" lon="13.4073717"><ele>158.33333333333331</ele><time>2026-04-26T08:11:16.526Z</time></trkpt><trkpt lat="43.2986117" lon="13.40719"><ele>158.0</ele><time>2026-04-26T08:11:17.526Z</time></trkpt><trkpt lat="43.2985417" lon="13.4070117"><ele>155.33333333333331</ele><time>2026-04-26T08:11:18.526Z</time></trkpt><trkpt lat="43.298475" lon="13.4068133"><ele>152.66666666666666</ele><time>2026-04-26T08:11:19.526Z</time></trkpt><trkpt lat="43.29842" lon="13.4065867"><ele>150.0</ele><time>2026-04-26T08:11:20.526Z</time></trkpt><trkpt lat="43.2983617" lon="13.4063433"><ele>147.66666666666666</ele><time>2026-04-26T08:11:21.526Z</time></trkpt><trkpt lat="43.298305" lon="13.4060917"><ele>145.33333333333331</ele><time>2026-04-26T08:11:22.526Z</time></trkpt><trkpt lat="43.29825" lon="13.40585"><ele>143.0</ele><time>2026-04-26T08:11:23.526Z</time></trkpt><trkpt lat="43.2982017" lon="13.405615"><ele>141.33333333333331</ele><time>2026-04-26T08:11:24.526Z</time></trkpt><trkpt lat="43.29817" lon="13.405385"><ele>139.66666666666666</ele><time>2026-04-26T08:11:25.526Z</time></trkpt><trkpt lat="43.2981483" lon="13.40514"><ele>138.0</ele><time>2026-04-26T08:11:26.526Z</time></trkpt><trkpt lat="43.2981367" lon="13.40489"><ele>137.0</ele><time>2026-04-26T08:11:27.526Z</time></trkpt><trkpt lat="43.2981317" lon="13.4046283"><ele>136.0</ele><time>2026-04-26T08:11:28.526Z</time></trkpt><trkpt lat="43.2981233" lon="13.4043633"><ele>135.0</ele><time>2026-04-26T08:11:29.526Z</time></trkpt><trkpt lat="43.298105" lon="13.4040867"><ele>134.0</ele><time>2026-04-26T08:11:30.526Z</time></trkpt><trkpt lat="43.298075" lon="13.4038133"><ele>133.0</ele><time>2026-04-26T08:11:31.526Z</time></trkpt><trkpt lat="43.2980567" lon="13.40355"><ele>132.0</ele><time>2026-04-26T08:11:32.527Z</time></trkpt><trkpt lat="43.298035" lon="13.4033067"><ele>132.0</ele><time>2026-04-26T08:11:33.526Z</time></trkpt><trkpt lat="43.2980183" lon="13.4030783"><ele>132.0</ele><time>2026-04-26T08:11:34.527Z</time></trkpt><trkpt lat="43.2980033" lon="13.4028667"><ele>132.0</ele><time>2026-04-26T08:11:35.526Z</time></trkpt><trkpt lat="43.2979983" lon="13.4026833"><ele>132.0</ele><time>2026-04-26T08:11:36.526Z</time></trkpt><trkpt lat="43.2980267" lon="13.4025033"><ele>132.0</ele><time>2026-04-26T08:11:37.526Z</time></trkpt><trkpt lat="43.29809" lon="13.4023217"><ele>132.0</ele><time>2026-04-26T08:11:38.526Z</time></trkpt><trkpt lat="43.2981667" lon="13.4021417"><ele>132.0</ele><time>2026-04-26T08:11:39.527Z</time></trkpt><trkpt lat="43.29827" lon="13.4019567"><ele>131.0</ele><time>2026-04-26T08:11:40.527Z</time></trkpt><trkpt lat="43.2983717" lon="13.4017583"><ele>130.0</ele><time>2026-04-26T08:11:41.526Z</time></trkpt><trkpt lat="43.2984683" lon="13.401545"><ele>129.0</ele><time>2026-04-26T08:11:42.526Z</time></trkpt><trkpt lat="43.298555" lon="13.4013283"><ele>128.0</ele><time>2026-04-26T08:11:43.526Z</time></trkpt><trkpt lat="43.2986333" lon="13.4011"><ele>127.0</ele><time>2026-04-26T08:11:44.526Z</time></trkpt><trkpt lat="43.2987133" lon="13.4008633"><ele>126.0</ele><time>2026-04-26T08:11:45.526Z</time></trkpt><trkpt lat="43.29878" lon="13.400635"><ele>126.66666666666666</ele><time>2026-04-26T08:11:46.527Z</time></trkpt><trkpt lat="43.2988367" lon="13.4004117"><ele>127.33333333333333</ele><time>2026-04-26T08:11:47.526Z</time></trkpt><trkpt lat="43.2988683" lon="13.4001967"><ele>128.0</ele><time>2026-04-26T08:11:48.526Z</time></trkpt><trkpt lat="43.29887" lon="13.3999967"><ele>128.0</ele><time>2026-04-26T08:11:49.526Z</time></trkpt><trkpt lat="43.298855" lon="13.3998067"><ele>128.0</ele><time>2026-04-26T08:11:50.526Z</time></trkpt><trkpt lat="43.2988367" lon="13.39963"><ele>128.0</ele><time>2026-04-26T08:11:51.526Z</time></trkpt><trkpt lat="43.298825" lon="13.39946"><ele>128.0</ele><time>2026-04-26T08:11:52.526Z</time></trkpt><trkpt lat="43.2988133" lon="13.399325"><ele>129.4</ele><time>2026-04-26T08:11:53.526Z</time></trkpt><trkpt lat="43.2988033" lon="13.39921"><ele>130.8</ele><time>2026-04-26T08:11:54.526Z</time></trkpt><trkpt lat="43.2988017" lon="13.3991133"><ele>132.2</ele><time>2026-04-26T08:11:55.526Z</time></trkpt><trkpt lat="43.298805" lon="13.3989733"><ele>133.6</ele><time>2026-04-26T08:11:57.526Z</time></trkpt><trkpt lat="43.29876" lon="13.398885"><ele>135.0</ele><time>2026-04-26T08:11:59.526Z</time></trkpt><trkpt lat="43.29863" lon="13.3988717"><ele>135.0</ele><time>2026-04-26T08:12:01.527Z</time></trkpt><trkpt lat="43.2985367" lon="13.3988867"><ele>135.0</ele><time>2026-04-26T08:12:02.526Z</time></trkpt><trkpt lat="43.2984167" lon="13.398915"><ele>135.0</ele><time>2026-04-26T08:12:03.526Z</time></trkpt><trkpt lat="43.2982767" lon="13.3989533"><ele>135.0</ele><time>2026-04-26T08:12:04.526Z</time></trkpt><trkpt lat="43.2981233" lon="13.39899"><ele>134.66666666666666</ele><time>2026-04-26T08:12:05.526Z</time></trkpt><trkpt lat="43.2979583" lon="13.39902"><ele>134.33333333333331</ele><time>2026-04-26T08:12:06.526Z</time></trkpt><trkpt lat="43.2977817" lon="13.3990583"><ele>134.0</ele><time>2026-04-26T08:12:07.526Z</time></trkpt><trkpt lat="43.2976083" lon="13.399095"><ele>134.0</ele><time>2026-04-26T08:12:08.526Z</time></trkpt><trkpt lat="43.2974267" lon="13.3991283"><ele>134.0</ele><time>2026-04-26T08:12:09.527Z</time></trkpt><trkpt lat="43.2972517" lon="13.3991617"><ele>134.0</ele><time>2026-04-26T08:12:10.526Z</time></trkpt><trkpt lat="43.297075" lon="13.3991867"><ele>135.0</ele><time>2026-04-26T08:12:11.526Z</time></trkpt><trkpt lat="43.2969067" lon="13.3992133"><ele>136.0</ele><time>2026-04-26T08:12:12.526Z</time></trkpt><trkpt lat="43.2967383" lon="13.3992433"><ele>137.0</ele><time>2026-04-26T08:12:13.526Z</time></trkpt><trkpt lat="43.296585" lon="13.3992667"><ele>137.0</ele><time>2026-04-26T08:12:14.526Z</time></trkpt><trkpt lat="43.296425" lon="13.39929"><ele>137.0</ele><time>2026-04-26T08:12:15.527Z</time></trkpt><trkpt lat="43.2962467" lon="13.3993183"><ele>137.0</ele><time>2026-04-26T08:12:16.527Z</time></trkpt><trkpt lat="43.29607" lon="13.39935"><ele>137.33333333333331</ele><time>2026-04-26T08:12:17.526Z</time></trkpt><trkpt lat="43.2958983" lon="13.399375"><ele>137.66666666666666</ele><time>2026-04-26T08:12:18.527Z</time></trkpt><trkpt lat="43.2957267" lon="13.3994067"><ele>138.0</ele><time>2026-04-26T08:12:19.526Z</time></trkpt><trkpt lat="43.2955533" lon="13.3994333"><ele>138.66666666666666</ele><time>2026-04-26T08:12:20.526Z</time></trkpt><trkpt lat="43.29538" lon="13.3994583"><ele>139.33333333333331</ele><time>2026-04-26T08:12:21.526Z</time></trkpt><trkpt lat="43.29521" lon="13.3994867"><ele>140.0</ele><time>2026-04-26T08:12:22.526Z</time></trkpt><trkpt lat="43.29505" lon="13.3995083"><ele>140.0</ele><time>2026-04-26T08:12:23.526Z</time></trkpt><trkpt lat="43.2949017" lon="13.3995267"><ele>140.0</ele><time>2026-04-26T08:12:24.526Z</time></trkpt><trkpt lat="43.2947767" lon="13.3995467"><ele>140.0</ele><time>2026-04-26T08:12:25.526Z</time></trkpt><trkpt lat="43.29467" lon="13.399565"><ele>140.0</ele><time>2026-04-26T08:12:26.526Z</time></trkpt><trkpt lat="43.2945783" lon="13.3995683"><ele>140.8</ele><time>2026-04-26T08:12:27.526Z</time></trkpt><trkpt lat="43.2944933" lon="13.3995417"><ele>141.6</ele><time>2026-04-26T08:12:28.526Z</time></trkpt><trkpt lat="43.2944083" lon="13.3994817"><ele>142.4</ele><time>2026-04-26T08:12:29.526Z</time></trkpt><trkpt lat="43.2943367" lon="13.3994017"><ele>143.2</ele><time>2026-04-26T08:12:30.526Z</time></trkpt><trkpt lat="43.29428" lon="13.3992817"><ele>144.0</ele><time>2026-04-26T08:12:31.526Z</time></trkpt><trkpt lat="43.2942283" lon="13.3991483"><ele>144.0</ele><time>2026-04-26T08:12:32.527Z</time></trkpt><trkpt lat="43.2941767" lon="13.3990267"><ele>144.0</ele><time>2026-04-26T08:12:33.526Z</time></trkpt><trkpt lat="43.2941183" lon="13.3989367"><ele>144.0</ele><time>2026-04-26T08:12:34.526Z</time></trkpt><trkpt lat="43.2940367" lon="13.3988667"><ele>144.0</ele><time>2026-04-26T08:12:35.526Z</time></trkpt><trkpt lat="43.293935" lon="13.3988083"><ele>144.0</ele><time>2026-04-26T08:12:36.527Z</time></trkpt><trkpt lat="43.2938083" lon="13.3987533"><ele>145.25</ele><time>2026-04-26T08:12:37.526Z</time></trkpt><trkpt lat="43.2936733" lon="13.3986933"><ele>146.5</ele><time>2026-04-26T08:12:38.526Z</time></trkpt><trkpt lat="43.2935467" lon="13.39863"><ele>147.75</ele><time>2026-04-26T08:12:39.526Z</time></trkpt><trkpt lat="43.29344" lon="13.3985533"><ele>149.0</ele><time>2026-04-26T08:12:40.527Z</time></trkpt><trkpt lat="43.29334" lon="13.3984717"><ele>149.0</ele><time>2026-04-26T08:12:41.527Z</time></trkpt><trkpt lat="43.293245" lon="13.3983933"><ele>149.0</ele><time>2026-04-26T08:12:42.527Z</time></trkpt><trkpt lat="43.29315" lon="13.3983333"><ele>149.0</ele><time>2026-04-26T08:12:43.527Z</time></trkpt><trkpt lat="43.2930433" lon="13.3983083"><ele>149.0</ele><time>2026-04-26T08:12:44.526Z</time></trkpt><trkpt lat="43.2929233" lon="13.398305"><ele>149.0</ele><time>2026-04-26T08:12:45.526Z</time></trkpt><trkpt lat="43.292795" lon="13.3983267"><ele>149.0</ele><time>2026-04-26T08:12:46.526Z</time></trkpt><trkpt lat="43.2926533" lon="13.3983483"><ele>149.0</ele><time>2026-04-26T08:12:47.526Z</time></trkpt><trkpt lat="43.2924983" lon="13.3983683"><ele>149.0</ele><time>2026-04-26T08:12:48.526Z</time></trkpt><trkpt lat="43.2923417" lon="13.3984"><ele>148.2</ele><time>2026-04-26T08:12:49.526Z</time></trkpt><trkpt lat="43.2922067" lon="13.3984233"><ele>147.4</ele><time>2026-04-26T08:12:50.526Z</time></trkpt><trkpt lat="43.2920933" lon="13.398445"><ele>146.6</ele><time>2026-04-26T08:12:51.527Z</time></trkpt><trkpt lat="43.292" lon="13.3984617"><ele>145.8</ele><time>2026-04-26T08:12:52.527Z</time></trkpt><trkpt lat="43.291925" lon="13.3984617"><ele>145.0</ele><time>2026-04-26T08:12:53.526Z</time></trkpt><trkpt lat="43.2918283" lon="13.3983983"><ele>145.0</ele><time>2026-04-26T08:12:55.527Z</time></trkpt><trkpt lat="43.2918017" lon="13.3983183"><ele>145.0</ele><time>2026-04-26T08:12:56.527Z</time></trkpt><trkpt lat="43.2917883" lon="13.3982"><ele>145.0</ele><time>2026-04-26T08:12:57.526Z</time></trkpt><trkpt lat="43.29181" lon="13.398025"><ele>145.0</ele><time>2026-04-26T08:12:58.526Z</time></trkpt><trkpt lat="43.2918383" lon="13.39784"><ele>145.0</ele><time>2026-04-26T08:12:59.527Z</time></trkpt><trkpt lat="43.2918683" lon="13.397635"><ele>144.0</ele><time>2026-04-26T08:13:00.526Z</time></trkpt><trkpt lat="43.2918967" lon="13.3974233"><ele>143.0</ele><time>2026-04-26T08:13:01.526Z</time></trkpt><trkpt lat="43.2919233" lon="13.3972"><ele>142.0</ele><time>2026-04-26T08:13:02.526Z</time></trkpt><trkpt lat="43.2919433" lon="13.3969817"><ele>141.0</ele><time>2026-04-26T08:13:03.526Z</time></trkpt><trkpt lat="43.2919633" lon="13.3967633"><ele>140.0</ele><time>2026-04-26T08:13:04.526Z</time></trkpt><trkpt lat="43.2919867" lon="13.3965417"><ele>139.0</ele><time>2026-04-26T08:13:05.526Z</time></trkpt><trkpt lat="43.2920083" lon="13.39632"><ele>138.66666666666669</ele><time>2026-04-26T08:13:06.527Z</time></trkpt><trkpt lat="43.2920267" lon="13.396105"><ele>138.33333333333334</ele><time>2026-04-26T08:13:07.526Z</time></trkpt><trkpt lat="43.2920483" lon="13.3959033"><ele>138.0</ele><time>2026-04-26T08:13:08.526Z</time></trkpt><trkpt lat="43.2920683" lon="13.395705"><ele>138.0</ele><time>2026-04-26T08:13:09.527Z</time></trkpt><trkpt lat="43.2920833" lon="13.39552"><ele>138.0</ele><time>2026-04-26T08:13:10.526Z</time></trkpt><trkpt lat="43.2920983" lon="13.3953433"><ele>138.0</ele><time>2026-04-26T08:13:11.526Z</time></trkpt><trkpt lat="43.2921183" lon="13.39517"><ele>138.0</ele><time>2026-04-26T08:13:12.526Z</time></trkpt><trkpt lat="43.2921333" lon="13.3949833"><ele>137.75</ele><time>2026-04-26T08:13:13.527Z</time></trkpt><trkpt lat="43.2921467" lon="13.3947933"><ele>137.5</ele><time>2026-04-26T08:13:14.526Z</time></trkpt><trkpt lat="43.2921633" lon="13.394595"><ele>137.25</ele><time>2026-04-26T08:13:15.526Z</time></trkpt><trkpt lat="43.2921767" lon="13.39438"><ele>137.0</ele><time>2026-04-26T08:13:16.527Z</time></trkpt><trkpt lat="43.2921967" lon="13.3941683"><ele>136.33333333333331</ele><time>2026-04-26T08:13:17.526Z</time></trkpt><trkpt lat="43.292225" lon="13.3939433"><ele>135.66666666666666</ele><time>2026-04-26T08:13:18.526Z</time></trkpt><trkpt lat="43.2922483" lon="13.3937183"><ele>135.0</ele><time>2026-04-26T08:13:19.526Z</time></trkpt><trkpt lat="43.2922733" lon="13.3934817"><ele>133.66666666666666</ele><time>2026-04-26T08:13:20.527Z</time></trkpt><trkpt lat="43.2923033" lon="13.39325"><ele>132.33333333333331</ele><time>2026-04-26T08:13:21.527Z</time></trkpt><trkpt lat="43.2923267" lon="13.393005"><ele>131.0</ele><time>2026-04-26T08:13:22.526Z</time></trkpt><trkpt lat="43.2923533" lon="13.392755"><ele>131.0</ele><time>2026-04-26T08:13:23.527Z</time></trkpt><trkpt lat="43.2923733" lon="13.3925067"><ele>131.0</ele><time>2026-04-26T08:13:24.526Z</time></trkpt><trkpt lat="43.2923933" lon="13.3922633"><ele>131.0</ele><time>2026-04-26T08:13:25.527Z</time></trkpt><trkpt lat="43.2924183" lon="13.3920167"><ele>130.33333333333331</ele><time>2026-04-26T08:13:26.526Z</time></trkpt><trkpt lat="43.2924417" lon="13.39177"><ele>129.66666666666666</ele><time>2026-04-26T08:13:27.526Z</time></trkpt><trkpt lat="43.2924617" lon="13.39152"><ele>129.0</ele><time>2026-04-26T08:13:28.526Z</time></trkpt><trkpt lat="43.2924817" lon="13.391275"><ele>129.0</ele><time>2026-04-26T08:13:29.526Z</time></trkpt><trkpt lat="43.2925083" lon="13.391025"><ele>129.0</ele><time>2026-04-26T08:13:30.526Z</time></trkpt><trkpt lat="43.2925333" lon="13.3907783"><ele>129.0</ele><time>2026-04-26T08:13:31.527Z</time></trkpt><trkpt lat="43.2925567" lon="13.390535"><ele>129.0</ele><time>2026-04-26T08:13:32.527Z</time></trkpt><trkpt lat="43.2925783" lon="13.3903017"><ele>129.0</ele><time>2026-04-26T08:13:33.526Z</time></trkpt><trkpt lat="43.2926017" lon="13.3900617"><ele>129.0</ele><time>2026-04-26T08:13:34.526Z</time></trkpt><trkpt lat="43.2926167" lon="13.3898233"><ele>128.66666666666666</ele><time>2026-04-26T08:13:35.527Z</time></trkpt><trkpt lat="43.29264" lon="13.3895917"><ele>128.33333333333331</ele><time>2026-04-26T08:13:36.527Z</time></trkpt><trkpt lat="43.2926633" lon="13.3893733"><ele>128.0</ele><time>2026-04-26T08:13:37.526Z</time></trkpt><trkpt lat="43.2926783" lon="13.3891883"><ele>128.0</ele><time>2026-04-26T08:13:38.526Z</time></trkpt><trkpt lat="43.292695" lon="13.38902"><ele>128.0</ele><time>2026-04-26T08:13:39.526Z</time></trkpt><trkpt lat="43.29271" lon="13.3888567"><ele>128.0</ele><time>2026-04-26T08:13:40.526Z</time></trkpt><trkpt lat="43.2927233" lon="13.3887117"><ele>128.0</ele><time>2026-04-26T08:13:41.527Z</time></trkpt><trkpt lat="43.2927417" lon="13.38858"><ele>128.0</ele><time>2026-04-26T08:13:42.526Z</time></trkpt><trkpt lat="43.2927683" lon="13.38846"><ele>127.75</ele><time>2026-04-26T08:13:43.526Z</time></trkpt><trkpt lat="43.2927817" lon="13.38833"><ele>127.5</ele><time>2026-04-26T08:13:44.526Z</time></trkpt><trkpt lat="43.2928" lon="13.3881767"><ele>127.25</ele><time>2026-04-26T08:13:45.526Z</time></trkpt><trkpt lat="43.292805" lon="13.3880067"><ele>127.0</ele><time>2026-04-26T08:13:46.526Z</time></trkpt><trkpt lat="43.29282" lon="13.3878167"><ele>127.0</ele><time>2026-04-26T08:13:47.526Z</time></trkpt><trkpt lat="43.2928367" lon="13.38761"><ele>127.0</ele><time>2026-04-26T08:13:48.526Z</time></trkpt><trkpt lat="43.29286" lon="13.38738"><ele>127.0</ele><time>2026-04-26T08:13:49.526Z</time></trkpt><trkpt lat="43.2928867" lon="13.387145"><ele>126.66666666666667</ele><time>2026-04-26T08:13:50.526Z</time></trkpt><trkpt lat="43.2929167" lon="13.3868933"><ele>126.33333333333334</ele><time>2026-04-26T08:13:51.526Z</time></trkpt><trkpt lat="43.2929383" lon="13.3866417"><ele>126.0</ele><time>2026-04-26T08:13:52.527Z</time></trkpt><trkpt lat="43.29296" lon="13.3863817"><ele>125.66666666666666</ele><time>2026-04-26T08:13:53.526Z</time></trkpt><trkpt lat="43.2929883" lon="13.38612"><ele>125.33333333333333</ele><time>2026-04-26T08:13:54.526Z</time></trkpt><trkpt lat="43.2930083" lon="13.3858617"><ele>125.0</ele><time>2026-04-26T08:13:55.526Z</time></trkpt><trkpt lat="43.2930367" lon="13.3855983"><ele>125.0</ele><time>2026-04-26T08:13:56.526Z</time></trkpt><trkpt lat="43.2930617" lon="13.3853383"><ele>125.0</ele><time>2026-04-26T08:13:57.526Z</time></trkpt><trkpt lat="43.2930917" lon="13.3850817"><ele>125.0</ele><time>2026-04-26T08:13:58.527Z</time></trkpt><trkpt lat="43.293115" lon="13.3848167"><ele>123.0</ele><time>2026-04-26T08:13:59.526Z</time></trkpt><trkpt lat="43.29313" lon="13.3845517"><ele>121.0</ele><time>2026-04-26T08:14:00.526Z</time></trkpt><trkpt lat="43.2931367" lon="13.3842933"><ele>119.0</ele><time>2026-04-26T08:14:01.526Z</time></trkpt><trkpt lat="43.2931517" lon="13.3840367"><ele>119.33333333333333</ele><time>2026-04-26T08:14:02.526Z</time></trkpt><trkpt lat="43.2931683" lon="13.38379"><ele>119.66666666666666</ele><time>2026-04-26T08:14:03.526Z</time></trkpt><trkpt lat="43.2931933" lon="13.3835367"><ele>120.0</ele><time>2026-04-26T08:14:04.527Z</time></trkpt><trkpt lat="43.2932183" lon="13.3832817"><ele>120.0</ele><time>2026-04-26T08:14:05.527Z</time></trkpt><trkpt lat="43.2932467" lon="13.3830217"><ele>120.0</ele><time>2026-04-26T08:14:06.526Z</time></trkpt><trkpt lat="43.29327" lon="13.382765"><ele>120.0</ele><time>2026-04-26T08:14:07.526Z</time></trkpt><trkpt lat="43.2933" lon="13.382505"><ele>119.66666666666666</ele><time>2026-04-26T08:14:08.526Z</time></trkpt><trkpt lat="43.2933217" lon="13.3822467"><ele>119.33333333333333</ele><time>2026-04-26T08:14:09.526Z</time></trkpt><trkpt lat="43.2933517" lon="13.381985"><ele>119.0</ele><time>2026-04-26T08:14:10.526Z</time></trkpt><trkpt lat="43.2933833" lon="13.381725"><ele>118.66666666666666</ele><time>2026-04-26T08:14:11.526Z</time></trkpt><trkpt lat="43.2934183" lon="13.3814633"><ele>118.33333333333334</ele><time>2026-04-26T08:14:12.526Z</time></trkpt><trkpt lat="43.2934433" lon="13.3812167"><ele>118.0</ele><time>2026-04-26T08:14:13.526Z</time></trkpt><trkpt lat="43.2934683" lon="13.3809683"><ele>118.0</ele><time>2026-04-26T08:14:14.526Z</time></trkpt><trkpt lat="43.2934917" lon="13.3807183"><ele>118.0</ele><time>2026-04-26T08:14:15.527Z</time></trkpt><trkpt lat="43.29352" lon="13.3804617"><ele>118.0</ele><time>2026-04-26T08:14:16.526Z</time></trkpt><trkpt lat="43.293545" lon="13.380205"><ele>118.33333333333334</ele><time>2026-04-26T08:14:17.527Z</time></trkpt><trkpt lat="43.2935733" lon="13.3799517"><ele>118.66666666666666</ele><time>2026-04-26T08:14:18.526Z</time></trkpt><trkpt lat="43.293595" lon="13.3797133"><ele>119.0</ele><time>2026-04-26T08:14:19.526Z</time></trkpt><trkpt lat="43.29362" lon="13.3795"><ele>119.0</ele><time>2026-04-26T08:14:20.526Z</time></trkpt><trkpt lat="43.2936533" lon="13.3792967"><ele>119.0</ele><time>2026-04-26T08:14:21.526Z</time></trkpt><trkpt lat="43.2936767" lon="13.3791067"><ele>119.0</ele><time>2026-04-26T08:14:22.526Z</time></trkpt><trkpt lat="43.29371" lon="13.3789217"><ele>119.0</ele><time>2026-04-26T08:14:23.526Z</time></trkpt><trkpt lat="43.2937383" lon="13.378745"><ele>118.75</ele><time>2026-04-26T08:14:24.526Z</time></trkpt><trkpt lat="43.29377" lon="13.3785567"><ele>118.5</ele><time>2026-04-26T08:14:25.526Z</time></trkpt><trkpt lat="43.2938017" lon="13.3783617"><ele>118.25</ele><time>2026-04-26T08:14:26.526Z</time></trkpt><trkpt lat="43.2938333" lon="13.3781583"><ele>118.0</ele><time>2026-04-26T08:14:27.526Z</time></trkpt><trkpt lat="43.2938733" lon="13.3779417"><ele>118.0</ele><time>2026-04-26T08:14:28.526Z</time></trkpt><trkpt lat="43.2939083" lon="13.3777217"><ele>118.0</ele><time>2026-04-26T08:14:29.526Z</time></trkpt><trkpt lat="43.29394" lon="13.3774867"><ele>118.0</ele><time>2026-04-26T08:14:30.526Z</time></trkpt><trkpt lat="43.29398" lon="13.37723"><ele>118.33333333333334</ele><time>2026-04-26T08:14:31.527Z</time></trkpt><trkpt lat="43.29402" lon="13.3769567"><ele>118.66666666666666</ele><time>2026-04-26T08:14:32.526Z</time></trkpt><trkpt lat="43.2940683" lon="13.3766767"><ele>119.0</ele><time>2026-04-26T08:14:33.526Z</time></trkpt><trkpt lat="43.294115" lon="13.3763867"><ele>119.0</ele><time>2026-04-26T08:14:34.526Z</time></trkpt><trkpt lat="43.294155" lon="13.3761033"><ele>119.0</ele><time>2026-04-26T08:14:35.526Z</time></trkpt><trkpt lat="43.2941983" lon="13.3758167"><ele>119.0</ele><time>2026-04-26T08:14:36.526Z</time></trkpt><trkpt lat="43.2942367" lon="13.37553"><ele>119.33333333333333</ele><time>2026-04-26T08:14:37.526Z</time></trkpt><trkpt lat="43.294275" lon="13.3752517"><ele>119.66666666666666</ele><time>2026-04-26T08:14:38.526Z</time></trkpt><trkpt lat="43.2943017" lon="13.374985"><ele>120.0</ele><time>2026-04-26T08:14:39.526Z</time></trkpt><trkpt lat="43.2943167" lon="13.3747167"><ele>120.0</ele><time>2026-04-26T08:14:40.526Z</time></trkpt><trkpt lat="43.294315" lon="13.3744433"><ele>120.0</ele><time>2026-04-26T08:14:41.526Z</time></trkpt><trkpt lat="43.2943033" lon="13.3741567"><ele>120.0</ele><time>2026-04-26T08:14:42.526Z</time></trkpt><trkpt lat="43.294285" lon="13.3738767"><ele>119.66666666666666</ele><time>2026-04-26T08:14:43.526Z</time></trkpt><trkpt lat="43.2942633" lon="13.3735917"><ele>119.33333333333333</ele><time>2026-04-26T08:14:44.526Z</time></trkpt><trkpt lat="43.2942467" lon="13.3733083"><ele>119.0</ele><time>2026-04-26T08:14:45.526Z</time></trkpt><trkpt lat="43.29423" lon="13.3730217"><ele>119.0</ele><time>2026-04-26T08:14:46.526Z</time></trkpt><trkpt lat="43.2941917" lon="13.3727333"><ele>119.0</ele><time>2026-04-26T08:14:47.526Z</time></trkpt><trkpt lat="43.2941383" lon="13.3724467"><ele>119.0</ele><time>2026-04-26T08:14:48.526Z</time></trkpt><trkpt lat="43.29407" lon="13.3721767"><ele>119.0</ele><time>2026-04-26T08:14:49.526Z</time></trkpt><trkpt lat="43.294005" lon="13.3718983"><ele>119.0</ele><time>2026-04-26T08:14:50.526Z</time></trkpt><trkpt lat="43.293945" lon="13.371615"><ele>119.0</ele><time>2026-04-26T08:14:51.526Z</time></trkpt><trkpt lat="43.2938833" lon="13.3713433"><ele>119.0</ele><time>2026-04-26T08:14:52.526Z</time></trkpt><trkpt lat="43.2938183" lon="13.3710683"><ele>119.0</ele><time>2026-04-26T08:14:53.527Z</time></trkpt><trkpt lat="43.2937467" lon="13.370815"><ele>119.0</ele><time>2026-04-26T08:14:54.526Z</time></trkpt><trkpt lat="43.293685" lon="13.3705633"><ele>119.33333333333333</ele><time>2026-04-26T08:14:55.526Z</time></trkpt><trkpt lat="43.293605" lon="13.3703367"><ele>119.66666666666666</ele><time>2026-04-26T08:14:56.526Z</time></trkpt><trkpt lat="43.2935067" lon="13.370115"><ele>120.0</ele><time>2026-04-26T08:14:57.526Z</time></trkpt><trkpt lat="43.293395" lon="13.3699"><ele>120.33333333333334</ele><time>2026-04-26T08:14:58.526Z</time></trkpt><trkpt lat="43.2932617" lon="13.3696883"><ele>120.66666666666667</ele><time>2026-04-26T08:14:59.527Z</time></trkpt><trkpt lat="43.2931217" lon="13.369475"><ele>121.0</ele><time>2026-04-26T08:15:00.526Z</time></trkpt><trkpt lat="43.2929883" lon="13.3692583"><ele>121.0</ele><time>2026-04-26T08:15:01.527Z</time></trkpt><trkpt lat="43.2928633" lon="13.3690333"><ele>121.0</ele><time>2026-04-26T08:15:02.526Z</time></trkpt><trkpt lat="43.29273" lon="13.3688217"><ele>121.0</ele><time>2026-04-26T08:15:03.526Z</time></trkpt><trkpt lat="43.292605" lon="13.3686067"><ele>121.0</ele><time>2026-04-26T08:15:04.527Z</time></trkpt><trkpt lat="43.292505" lon="13.3683817"><ele>121.0</ele><time>2026-04-26T08:15:05.527Z</time></trkpt><trkpt lat="43.29242" lon="13.3681383"><ele>121.0</ele><time>2026-04-26T08:15:06.526Z</time></trkpt><trkpt lat="43.29235" lon="13.367885"><ele>121.0</ele><time>2026-04-26T08:15:07.526Z</time></trkpt><trkpt lat="43.2922967" lon="13.3676167"><ele>121.0</ele><time>2026-04-26T08:15:08.526Z</time></trkpt><trkpt lat="43.2922583" lon="13.3673517"><ele>121.0</ele><time>2026-04-26T08:15:09.526Z</time></trkpt><trkpt lat="43.2922133" lon="13.36708"><ele>121.33333333333334</ele><time>2026-04-26T08:15:10.526Z</time></trkpt><trkpt lat="43.2921817" lon="13.366805"><ele>121.66666666666666</ele><time>2026-04-26T08:15:11.526Z</time></trkpt><trkpt lat="43.29215" lon="13.366525"><ele>122.0</ele><time>2026-04-26T08:15:12.526Z</time></trkpt><trkpt lat="43.2921267" lon="13.3662467"><ele>122.33333333333333</ele><time>2026-04-26T08:15:13.526Z</time></trkpt><trkpt lat="43.2921" lon="13.3659583"><ele>122.66666666666666</ele><time>2026-04-26T08:15:14.526Z</time></trkpt><trkpt lat="43.292075" lon="13.36567"><ele>123.0</ele><time>2026-04-26T08:15:15.526Z</time></trkpt><trkpt lat="43.29205" lon="13.3653817"><ele>123.0</ele><time>2026-04-26T08:15:16.526Z</time></trkpt><trkpt lat="43.2920267" lon="13.3650917"><ele>123.0</ele><time>2026-04-26T08:15:17.527Z</time></trkpt><trkpt lat="43.2920033" lon="13.364815"><ele>123.0</ele><time>2026-04-26T08:15:18.526Z</time></trkpt><trkpt lat="43.2919817" lon="13.3645517"><ele>123.0</ele><time>2026-04-26T08:15:19.526Z</time></trkpt><trkpt lat="43.2919483" lon="13.3643017"><ele>123.0</ele><time>2026-04-26T08:15:20.526Z</time></trkpt><trkpt lat="43.2918967" lon="13.3640733"><ele>123.0</ele><time>2026-04-26T08:15:21.526Z</time></trkpt><trkpt lat="43.291825" lon="13.3638567"><ele>123.0</ele><time>2026-04-26T08:15:22.527Z</time></trkpt><trkpt lat="43.29173" lon="13.363645"><ele>123.0</ele><time>2026-04-26T08:15:23.526Z</time></trkpt><trkpt lat="43.29162" lon="13.3634417"><ele>123.0</ele><time>2026-04-26T08:15:24.526Z</time></trkpt><trkpt lat="43.2915033" lon="13.3632433"><ele>123.66666666666666</ele><time>2026-04-26T08:15:25.526Z</time></trkpt><trkpt lat="43.291385" lon="13.36304"><ele>124.33333333333333</ele><time>2026-04-26T08:15:26.526Z</time></trkpt><trkpt lat="43.2912733" lon="13.362825"><ele>125.0</ele><time>2026-04-26T08:15:27.526Z</time></trkpt><trkpt lat="43.2911567" lon="13.3626083"><ele>125.0</ele><time>2026-04-26T08:15:28.526Z</time></trkpt><trkpt lat="43.29104" lon="13.36239"><ele>125.0</ele><time>2026-04-26T08:15:29.526Z</time></trkpt><trkpt lat="43.2909183" lon="13.3621767"><ele>125.0</ele><time>2026-04-26T08:15:30.526Z</time></trkpt><trkpt lat="43.2907967" lon="13.3619517"><ele>125.0</ele><time>2026-04-26T08:15:31.527Z</time></trkpt><trkpt lat="43.2906817" lon="13.361725"><ele>125.0</ele><time>2026-04-26T08:15:32.526Z</time></trkpt><trkpt lat="43.29056" lon="13.361495"><ele>125.0</ele><time>2026-04-26T08:15:33.526Z</time></trkpt><trkpt lat="43.29044" lon="13.3612683"><ele>125.0</ele><time>2026-04-26T08:15:34.526Z</time></trkpt><trkpt lat="43.29032" lon="13.3610383"><ele>125.0</ele><time>2026-04-26T08:15:35.526Z</time></trkpt><trkpt lat="43.2901983" lon="13.3608083"><ele>125.0</ele><time>2026-04-26T08:15:36.526Z</time></trkpt><trkpt lat="43.29007" lon="13.36058"><ele>125.33333333333333</ele><time>2026-04-26T08:15:37.526Z</time></trkpt><trkpt lat="43.2899483" lon="13.36035"><ele>125.66666666666666</ele><time>2026-04-26T08:15:38.527Z</time></trkpt><trkpt lat="43.2898317" lon="13.3601183"><ele>126.0</ele><time>2026-04-26T08:15:39.526Z</time></trkpt><trkpt lat="43.289715" lon="13.3598983"><ele>126.33333333333334</ele><time>2026-04-26T08:15:40.526Z</time></trkpt><trkpt lat="43.2896017" lon="13.35967"><ele>126.66666666666667</ele><time>2026-04-26T08:15:41.526Z</time></trkpt><trkpt lat="43.2894817" lon="13.3594467"><ele>127.0</ele><time>2026-04-26T08:15:42.526Z</time></trkpt><trkpt lat="43.289365" lon="13.3592233"><ele>127.0</ele><time>2026-04-26T08:15:43.526Z</time></trkpt><trkpt lat="43.289245" lon="13.35901"><ele>127.0</ele><time>2026-04-26T08:15:44.526Z</time></trkpt><trkpt lat="43.2891383" lon="13.3587933"><ele>127.0</ele><time>2026-04-26T08:15:45.526Z</time></trkpt><trkpt lat="43.2890367" lon="13.3585783"><ele>126.66666666666667</ele><time>2026-04-26T08:15:46.526Z</time></trkpt><trkpt lat="43.2889333" lon="13.3583867"><ele>126.33333333333334</ele><time>2026-04-26T08:15:47.526Z</time></trkpt><trkpt lat="43.28884" lon="13.3582083"><ele>126.0</ele><time>2026-04-26T08:15:48.526Z</time></trkpt><trkpt lat="43.28875" lon="13.3580483"><ele>126.5</ele><time>2026-04-26T08:15:49.526Z</time></trkpt><trkpt lat="43.2886583" lon="13.3578967"><ele>127.0</ele><time>2026-04-26T08:15:50.526Z</time></trkpt><trkpt lat="43.2885783" lon="13.35775"><ele>127.5</ele><time>2026-04-26T08:15:51.526Z</time></trkpt><trkpt lat="43.2884933" lon="13.35761"><ele>128.0</ele><time>2026-04-26T08:15:52.527Z</time></trkpt><trkpt lat="43.2884067" lon="13.35747"><ele>128.0</ele><time>2026-04-26T08:15:53.526Z</time></trkpt><trkpt lat="43.2883267" lon="13.357325"><ele>128.0</ele><time>2026-04-26T08:15:54.526Z</time></trkpt><trkpt lat="43.2882367" lon="13.357185"><ele>128.0</ele><time>2026-04-26T08:15:55.526Z</time></trkpt><trkpt lat="43.288145" lon="13.3570417"><ele>128.0</ele><time>2026-04-26T08:15:56.526Z</time></trkpt><trkpt lat="43.288055" lon="13.3568933"><ele>128.0</ele><time>2026-04-26T08:15:57.526Z</time></trkpt><trkpt lat="43.2879567" lon="13.35675"><ele>128.0</ele><time>2026-04-26T08:15:58.526Z</time></trkpt><trkpt lat="43.2878567" lon="13.3566"><ele>128.0</ele><time>2026-04-26T08:15:59.526Z</time></trkpt><trkpt lat="43.2877533" lon="13.3564367"><ele>128.0</ele><time>2026-04-26T08:16:00.526Z</time></trkpt><trkpt lat="43.2876433" lon="13.35628"><ele>128.0</ele><time>2026-04-26T08:16:01.527Z</time></trkpt><trkpt lat="43.2875317" lon="13.3561117"><ele>128.0</ele><time>2026-04-26T08:16:02.526Z</time></trkpt><trkpt lat="43.2874217" lon="13.3559433"><ele>128.0</ele><time>2026-04-26T08:16:03.527Z</time></trkpt><trkpt lat="43.2873117" lon="13.3557667"><ele>128.33333333333331</ele><time>2026-04-26T08:16:04.526Z</time></trkpt><trkpt lat="43.287195" lon="13.3555867"><ele>128.66666666666666</ele><time>2026-04-26T08:16:05.526Z</time></trkpt><trkpt lat="43.2870867" lon="13.3554133"><ele>129.0</ele><time>2026-04-26T08:16:06.526Z</time></trkpt><trkpt lat="43.2869983" lon="13.355235"><ele>129.0</ele><time>2026-04-26T08:16:07.526Z</time></trkpt><trkpt lat="43.2869317" lon="13.3550567"><ele>129.0</ele><time>2026-04-26T08:16:08.527Z</time></trkpt><trkpt lat="43.2868667" lon="13.3548517"><ele>129.0</ele><time>2026-04-26T08:16:09.526Z</time></trkpt><trkpt lat="43.2868067" lon="13.3546483"><ele>128.66666666666666</ele><time>2026-04-26T08:16:10.526Z</time></trkpt><trkpt lat="43.2867433" lon="13.354435"><ele>128.33333333333331</ele><time>2026-04-26T08:16:11.526Z</time></trkpt><trkpt lat="43.2866767" lon="13.3542117"><ele>128.0</ele><time>2026-04-26T08:16:12.527Z</time></trkpt><trkpt lat="43.2866067" lon="13.35398"><ele>128.33333333333331</ele><time>2026-04-26T08:16:13.526Z</time></trkpt><trkpt lat="43.286535" lon="13.353745"><ele>128.66666666666666</ele><time>2026-04-26T08:16:14.527Z</time></trkpt><trkpt lat="43.2864667" lon="13.3535033"><ele>129.0</ele><time>2026-04-26T08:16:15.525Z</time></trkpt><trkpt lat="43.2863867" lon="13.3532617"><ele>130.33333333333334</ele><time>2026-04-26T08:16:16.525Z</time></trkpt><trkpt lat="43.2863067" lon="13.353005"><ele>131.66666666666669</ele><time>2026-04-26T08:16:17.525Z</time></trkpt><trkpt lat="43.2862367" lon="13.35275"><ele>133.0</ele><time>2026-04-26T08:16:18.526Z</time></trkpt><trkpt lat="43.28616" lon="13.352515"><ele>133.0</ele><time>2026-04-26T08:16:19.525Z</time></trkpt><trkpt lat="43.2861033" lon="13.352285"><ele>133.0</ele><time>2026-04-26T08:16:20.526Z</time></trkpt><trkpt lat="43.286035" lon="13.3520783"><ele>133.0</ele><time>2026-04-26T08:16:21.526Z</time></trkpt><trkpt lat="43.28597" lon="13.3518683"><ele>133.0</ele><time>2026-04-26T08:16:22.525Z</time></trkpt><trkpt lat="43.2859083" lon="13.3516633"><ele>133.0</ele><time>2026-04-26T08:16:23.525Z</time></trkpt><trkpt lat="43.2858433" lon="13.351455"><ele>133.0</ele><time>2026-04-26T08:16:24.525Z</time></trkpt><trkpt lat="43.2857867" lon="13.3512383"><ele>133.0</ele><time>2026-04-26T08:16:25.525Z</time></trkpt><trkpt lat="43.2857333" lon="13.351015"><ele>133.0</ele><time>2026-04-26T08:16:26.525Z</time></trkpt><trkpt lat="43.285675" lon="13.35079"><ele>133.0</ele><time>2026-04-26T08:16:27.525Z</time></trkpt><trkpt lat="43.28562" lon="13.3505583"><ele>133.33333333333334</ele><time>2026-04-26T08:16:28.526Z</time></trkpt><trkpt lat="43.28558" lon="13.3503467"><ele>133.66666666666666</ele><time>2026-04-26T08:16:29.526Z</time></trkpt><trkpt lat="43.285535" lon="13.3501433"><ele>134.0</ele><time>2026-04-26T08:16:30.525Z</time></trkpt><trkpt lat="43.2855" lon="13.3499383"><ele>134.0</ele><time>2026-04-26T08:16:31.525Z</time></trkpt><trkpt lat="43.285455" lon="13.3497217"><ele>134.0</ele><time>2026-04-26T08:16:32.525Z</time></trkpt><trkpt lat="43.2854117" lon="13.349495"><ele>134.0</ele><time>2026-04-26T08:16:33.525Z</time></trkpt><trkpt lat="43.285365" lon="13.3492767"><ele>134.66666666666666</ele><time>2026-04-26T08:16:34.525Z</time></trkpt><trkpt lat="43.28532" lon="13.3490517"><ele>135.33333333333334</ele><time>2026-04-26T08:16:35.526Z</time></trkpt><trkpt lat="43.28528" lon="13.3488317"><ele>136.0</ele><time>2026-04-26T08:16:36.526Z</time></trkpt><trkpt lat="43.2852367" lon="13.3486117"><ele>136.0</ele><time>2026-04-26T08:16:37.526Z</time></trkpt><trkpt lat="43.285195" lon="13.3484"><ele>136.0</ele><time>2026-04-26T08:16:38.525Z</time></trkpt><trkpt lat="43.2851583" lon="13.3481933"><ele>136.0</ele><time>2026-04-26T08:16:39.526Z</time></trkpt><trkpt lat="43.285115" lon="13.3480033"><ele>136.25</ele><time>2026-04-26T08:16:40.525Z</time></trkpt><trkpt lat="43.2850733" lon="13.3478233"><ele>136.5</ele><time>2026-04-26T08:16:41.526Z</time></trkpt><trkpt lat="43.2850383" lon="13.34765"><ele>136.75</ele><time>2026-04-26T08:16:42.525Z</time></trkpt><trkpt lat="43.2850033" lon="13.3474917"><ele>137.0</ele><time>2026-04-26T08:16:43.525Z</time></trkpt><trkpt lat="43.2849733" lon="13.3473367"><ele>137.2</ele><time>2026-04-26T08:16:44.525Z</time></trkpt><trkpt lat="43.284945" lon="13.3471983"><ele>137.39999999999998</ele><time>2026-04-26T08:16:45.525Z</time></trkpt><trkpt lat="43.284915" lon="13.347075"><ele>137.60000000000002</ele><time>2026-04-26T08:16:46.525Z</time></trkpt><trkpt lat="43.2848917" lon="13.3469383"><ele>137.8</ele><time>2026-04-26T08:16:47.525Z</time></trkpt><trkpt lat="43.2848683" lon="13.3468033"><ele>138.0</ele><time>2026-04-26T08:16:48.525Z</time></trkpt><trkpt lat="43.28485" lon="13.3466733"><ele>138.0</ele><time>2026-04-26T08:16:49.525Z</time></trkpt><trkpt lat="43.2848283" lon="13.3465567"><ele>138.0</ele><time>2026-04-26T08:16:50.525Z</time></trkpt><trkpt lat="43.2848017" lon="13.3464433"><ele>138.0</ele><time>2026-04-26T08:16:51.525Z</time></trkpt><trkpt lat="43.2847817" lon="13.3463433"><ele>138.0</ele><time>2026-04-26T08:16:52.525Z</time></trkpt><trkpt lat="43.28476" lon="13.34624"><ele>138.0</ele><time>2026-04-26T08:16:53.525Z</time></trkpt><trkpt lat="43.2847383" lon="13.3461317"><ele>138.0</ele><time>2026-04-26T08:16:54.525Z</time></trkpt><trkpt lat="43.2847117" lon="13.3460117"><ele>138.0</ele><time>2026-04-26T08:16:55.526Z</time></trkpt><trkpt lat="43.2846833" lon="13.3458783"><ele>138.0</ele><time>2026-04-26T08:16:56.525Z</time></trkpt><trkpt lat="43.2846533" lon="13.3457433"><ele>138.0</ele><time>2026-04-26T08:16:57.525Z</time></trkpt><trkpt lat="43.2846267" lon="13.3455933"><ele>138.0</ele><time>2026-04-26T08:16:58.526Z</time></trkpt><trkpt lat="43.2845917" lon="13.34544"><ele>138.0</ele><time>2026-04-26T08:16:59.525Z</time></trkpt><trkpt lat="43.2845517" lon="13.3452717"><ele>138.0</ele><time>2026-04-26T08:17:00.525Z</time></trkpt><trkpt lat="43.2845117" lon="13.3450883"><ele>138.0</ele><time>2026-04-26T08:17:01.525Z</time></trkpt><trkpt lat="43.284465" lon="13.344885"><ele>138.0</ele><time>2026-04-26T08:17:02.525Z</time></trkpt><trkpt lat="43.284415" lon="13.3446567"><ele>136.5</ele><time>2026-04-26T08:17:03.525Z</time></trkpt><trkpt lat="43.28435" lon="13.34438"><ele>135.0</ele><time>2026-04-26T08:17:04.525Z</time></trkpt><trkpt lat="43.28429" lon="13.34406"><ele>135.0</ele><time>2026-04-26T08:17:05.526Z</time></trkpt><trkpt lat="43.2842283" lon="13.343705"><ele>135.0</ele><time>2026-04-26T08:17:06.525Z</time></trkpt><trkpt lat="43.2841633" lon="13.3433333"><ele>134.5</ele><time>2026-04-26T08:17:07.525Z</time></trkpt><trkpt lat="43.2841" lon="13.3429683"><ele>134.0</ele><time>2026-04-26T08:17:08.526Z</time></trkpt><trkpt lat="43.2840333" lon="13.3426233"><ele>134.0</ele><time>2026-04-26T08:17:09.526Z</time></trkpt><trkpt lat="43.2839517" lon="13.3422617"><ele>134.0</ele><time>2026-04-26T08:17:10.525Z</time></trkpt><trkpt lat="43.2838867" lon="13.3419017"><ele>136.5</ele><time>2026-04-26T08:17:11.525Z</time></trkpt><trkpt lat="43.2838283" lon="13.34154"><ele>139.0</ele><time>2026-04-26T08:17:12.525Z</time></trkpt><trkpt lat="43.2837617" lon="13.34119"><ele>140.0</ele><time>2026-04-26T08:17:13.525Z</time></trkpt><trkpt lat="43.2837017" lon="13.340845"><ele>141.0</ele><time>2026-04-26T08:17:14.525Z</time></trkpt><trkpt lat="43.2836367" lon="13.340515"><ele>141.0</ele><time>2026-04-26T08:17:15.526Z</time></trkpt><trkpt lat="43.2835733" lon="13.3401967"><ele>141.0</ele><time>2026-04-26T08:17:16.525Z</time></trkpt><trkpt lat="43.2835117" lon="13.339875"><ele>141.0</ele><time>2026-04-26T08:17:17.525Z</time></trkpt><trkpt lat="43.283445" lon="13.33955"><ele>141.0</ele><time>2026-04-26T08:17:18.525Z</time></trkpt><trkpt lat="43.28338" lon="13.3392233"><ele>141.0</ele><time>2026-04-26T08:17:19.525Z</time></trkpt><trkpt lat="43.2833167" lon="13.3388983"><ele>141.0</ele><time>2026-04-26T08:17:20.525Z</time></trkpt><trkpt lat="43.2832533" lon="13.338585"><ele>140.5</ele><time>2026-04-26T08:17:21.525Z</time></trkpt><trkpt lat="43.2831883" lon="13.338255"><ele>140.0</ele><time>2026-04-26T08:17:22.525Z</time></trkpt><trkpt lat="43.2831283" lon="13.3379233"><ele>147.5</ele><time>2026-04-26T08:17:23.525Z</time></trkpt><trkpt lat="43.2830683" lon="13.3376083"><ele>155.0</ele><time>2026-04-26T08:17:24.525Z</time></trkpt><trkpt lat="43.2830117" lon="13.3373067"><ele>156.66666666666666</ele><time>2026-04-26T08:17:25.525Z</time></trkpt><trkpt lat="43.2829633" lon="13.33702"><ele>158.33333333333334</ele><time>2026-04-26T08:17:26.526Z</time></trkpt><trkpt lat="43.2829217" lon="13.33676"><ele>160.0</ele><time>2026-04-26T08:17:27.525Z</time></trkpt><trkpt lat="43.2828783" lon="13.336505"><ele>159.66666666666669</ele><time>2026-04-26T08:17:28.525Z</time></trkpt><trkpt lat="43.2828333" lon="13.3362617"><ele>159.33333333333334</ele><time>2026-04-26T08:17:29.526Z</time></trkpt><trkpt lat="43.282795" lon="13.33604"><ele>159.0</ele><time>2026-04-26T08:17:30.525Z</time></trkpt><trkpt lat="43.2827517" lon="13.3358317"><ele>159.0</ele><time>2026-04-26T08:17:31.525Z</time></trkpt><trkpt lat="43.28271" lon="13.3356317"><ele>159.0</ele><time>2026-04-26T08:17:32.525Z</time></trkpt><trkpt lat="43.28266" lon="13.3354367"><ele>159.0</ele><time>2026-04-26T08:17:33.525Z</time></trkpt><trkpt lat="43.2826033" lon="13.335245"><ele>156.75</ele><time>2026-04-26T08:17:34.525Z</time></trkpt><trkpt lat="43.28254" lon="13.3350667"><ele>154.5</ele><time>2026-04-26T08:17:35.525Z</time></trkpt><trkpt lat="43.2824917" lon="13.3349"><ele>152.25</ele><time>2026-04-26T08:17:36.525Z</time></trkpt><trkpt lat="43.2824567" lon="13.3347567"><ele>150.0</ele><time>2026-04-26T08:17:37.526Z</time></trkpt><trkpt lat="43.2824433" lon="13.3346283"><ele>149.83333333333334</ele><time>2026-04-26T08:17:38.526Z</time></trkpt><trkpt lat="43.2824417" lon="13.3345133"><ele>149.66666666666666</ele><time>2026-04-26T08:17:39.525Z</time></trkpt><trkpt lat="43.282455" lon="13.33436"><ele>149.5</ele><time>2026-04-26T08:17:41.525Z</time></trkpt><trkpt lat="43.2824383" lon="13.3342667"><ele>149.33333333333331</ele><time>2026-04-26T08:17:43.525Z</time></trkpt><trkpt lat="43.2823483" lon="13.334225"><ele>149.16666666666666</ele><time>2026-04-26T08:17:45.525Z</time></trkpt><trkpt lat="43.28228" lon="13.33424"><ele>149.0</ele><time>2026-04-26T08:17:46.525Z</time></trkpt><trkpt lat="43.2821883" lon="13.334255"><ele>149.0</ele><time>2026-04-26T08:17:47.526Z</time></trkpt><trkpt lat="43.2820683" lon="13.3342567"><ele>149.0</ele><time>2026-04-26T08:17:48.525Z</time></trkpt><trkpt lat="43.281915" lon="13.334225"><ele>149.0</ele><time>2026-04-26T08:17:49.525Z</time></trkpt><trkpt lat="43.2817483" lon="13.3341767"><ele>149.0</ele><time>2026-04-26T08:17:50.525Z</time></trkpt><trkpt lat="43.2815617" lon="13.3341183"><ele>150.66666666666666</ele><time>2026-04-26T08:17:51.525Z</time></trkpt><trkpt lat="43.2813817" lon="13.33405"><ele>152.33333333333334</ele><time>2026-04-26T08:17:52.526Z</time></trkpt><trkpt lat="43.2812133" lon="13.3339883"><ele>154.0</ele><time>2026-04-26T08:17:53.525Z</time></trkpt><trkpt lat="43.28105" lon="13.3339183"><ele>150.0</ele><time>2026-04-26T08:17:54.525Z</time></trkpt><trkpt lat="43.2808933" lon="13.3338283"><ele>146.0</ele><time>2026-04-26T08:17:55.525Z</time></trkpt><trkpt lat="43.2807433" lon="13.3337267"><ele>142.0</ele><time>2026-04-26T08:17:56.525Z</time></trkpt><trkpt lat="43.2806033" lon="13.3336133"><ele>143.66666666666669</ele><time>2026-04-26T08:17:57.525Z</time></trkpt><trkpt lat="43.28045" lon="13.3335133"><ele>145.33333333333334</ele><time>2026-04-26T08:17:58.525Z</time></trkpt><trkpt lat="43.2802967" lon="13.3334183"><ele>147.0</ele><time>2026-04-26T08:17:59.525Z</time></trkpt><trkpt lat="43.2801383" lon="13.3333367"><ele>147.0</ele><time>2026-04-26T08:18:00.525Z</time></trkpt><trkpt lat="43.2799717" lon="13.333295"><ele>147.0</ele><time>2026-04-26T08:18:01.525Z</time></trkpt><trkpt lat="43.2798183" lon="13.3332317"><ele>147.0</ele><time>2026-04-26T08:18:02.525Z</time></trkpt><trkpt lat="43.279685" lon="13.3331183"><ele>146.66666666666666</ele><time>2026-04-26T08:18:03.525Z</time></trkpt><trkpt lat="43.2795533" lon="13.3329817"><ele>146.33333333333331</ele><time>2026-04-26T08:18:04.526Z</time></trkpt><trkpt lat="43.2794183" lon="13.3328217"><ele>146.0</ele><time>2026-04-26T08:18:05.525Z</time></trkpt><trkpt lat="43.2792717" lon="13.3326467"><ele>146.0</ele><time>2026-04-26T08:18:06.525Z</time></trkpt><trkpt lat="43.2791183" lon="13.3324633"><ele>146.0</ele><time>2026-04-26T08:18:07.525Z</time></trkpt><trkpt lat="43.2789633" lon="13.332295"><ele>146.0</ele><time>2026-04-26T08:18:08.525Z</time></trkpt><trkpt lat="43.278825" lon="13.332145"><ele>145.66666666666666</ele><time>2026-04-26T08:18:09.526Z</time></trkpt><trkpt lat="43.2786917" lon="13.3320217"><ele>145.33333333333334</ele><time>2026-04-26T08:18:10.526Z</time></trkpt><trkpt lat="43.2785583" lon="13.3319333"><ele>145.0</ele><time>2026-04-26T08:18:11.525Z</time></trkpt><trkpt lat="43.2783883" lon="13.33189"><ele>145.0</ele><time>2026-04-26T08:18:12.525Z</time></trkpt><trkpt lat="43.2782167" lon="13.3318767"><ele>145.0</ele><time>2026-04-26T08:18:13.525Z</time></trkpt><trkpt lat="43.27804" lon="13.331905"><ele>145.0</ele><time>2026-04-26T08:18:14.525Z</time></trkpt><trkpt lat="43.277845" lon="13.3319317"><ele>146.0</ele><time>2026-04-26T08:18:15.525Z</time></trkpt><trkpt lat="43.2776333" lon="13.3319483"><ele>147.0</ele><time>2026-04-26T08:18:16.525Z</time></trkpt><trkpt lat="43.2774233" lon="13.3319583"><ele>148.0</ele><time>2026-04-26T08:18:17.525Z</time></trkpt><trkpt lat="43.2772367" lon="13.331955"><ele>148.0</ele><time>2026-04-26T08:18:18.525Z</time></trkpt><trkpt lat="43.2770617" lon="13.3319167"><ele>148.0</ele><time>2026-04-26T08:18:19.525Z</time></trkpt><trkpt lat="43.2768883" lon="13.3318633"><ele>148.0</ele><time>2026-04-26T08:18:20.526Z</time></trkpt><trkpt lat="43.2767133" lon="13.3317867"><ele>148.0</ele><time>2026-04-26T08:18:21.526Z</time></trkpt><trkpt lat="43.2765433" lon="13.3317033"><ele>148.0</ele><time>2026-04-26T08:18:22.526Z</time></trkpt><trkpt lat="43.27637" lon="13.3316333"><ele>148.0</ele><time>2026-04-26T08:18:23.525Z</time></trkpt><trkpt lat="43.276195" lon="13.33155"><ele>148.66666666666669</ele><time>2026-04-26T08:18:24.525Z</time></trkpt><trkpt lat="43.27603" lon="13.331465"><ele>149.33333333333334</ele><time>2026-04-26T08:18:25.525Z</time></trkpt><trkpt lat="43.2758583" lon="13.3313933"><ele>150.0</ele><time>2026-04-26T08:18:26.525Z</time></trkpt><trkpt lat="43.2756917" lon="13.33132"><ele>150.66666666666666</ele><time>2026-04-26T08:18:27.525Z</time></trkpt><trkpt lat="43.27553" lon="13.3312417"><ele>151.33333333333331</ele><time>2026-04-26T08:18:28.525Z</time></trkpt><trkpt lat="43.2753617" lon="13.3311633"><ele>152.0</ele><time>2026-04-26T08:18:29.525Z</time></trkpt><trkpt lat="43.27521" lon="13.33109"><ele>152.0</ele><time>2026-04-26T08:18:30.525Z</time></trkpt><trkpt lat="43.2750783" lon="13.3310017"><ele>152.0</ele><time>2026-04-26T08:18:31.526Z</time></trkpt><trkpt lat="43.2749583" lon="13.3309"><ele>152.0</ele><time>2026-04-26T08:18:32.525Z</time></trkpt><trkpt lat="43.2748583" lon="13.3307683"><ele>152.0</ele><time>2026-04-26T08:18:33.525Z</time></trkpt><trkpt lat="43.2747817" lon="13.330615"><ele>153.5</ele><time>2026-04-26T08:18:34.525Z</time></trkpt><trkpt lat="43.2747117" lon="13.3304383"><ele>155.0</ele><time>2026-04-26T08:18:35.525Z</time></trkpt><trkpt lat="43.274645" lon="13.3302567"><ele>156.5</ele><time>2026-04-26T08:18:36.525Z</time></trkpt><trkpt lat="43.27458" lon="13.3300667"><ele>158.0</ele><time>2026-04-26T08:18:37.525Z</time></trkpt><trkpt lat="43.2745083" lon="13.3298633"><ele>157.33333333333331</ele><time>2026-04-26T08:18:38.525Z</time></trkpt><trkpt lat="43.274435" lon="13.32966"><ele>156.66666666666666</ele><time>2026-04-26T08:18:39.525Z</time></trkpt><trkpt lat="43.2743533" lon="13.3294667"><ele>156.0</ele><time>2026-04-26T08:18:40.525Z</time></trkpt><trkpt lat="43.2742883" lon="13.329255"><ele>156.0</ele><time>2026-04-26T08:18:41.525Z</time></trkpt><trkpt lat="43.2742233" lon="13.3290433"><ele>156.0</ele><time>2026-04-26T08:18:42.525Z</time></trkpt><trkpt lat="43.27415" lon="13.32883"><ele>156.0</ele><time>2026-04-26T08:18:43.525Z</time></trkpt><trkpt lat="43.2740917" lon="13.32862"><ele>155.0</ele><time>2026-04-26T08:18:44.526Z</time></trkpt><trkpt lat="43.27404" lon="13.3284217"><ele>154.0</ele><time>2026-04-26T08:18:45.525Z</time></trkpt><trkpt lat="43.2739883" lon="13.3282183"><ele>153.0</ele><time>2026-04-26T08:18:46.525Z</time></trkpt><trkpt lat="43.2739467" lon="13.3280017"><ele>155.0</ele><time>2026-04-26T08:18:47.525Z</time></trkpt><trkpt lat="43.2738967" lon="13.3277933"><ele>157.0</ele><time>2026-04-26T08:18:48.525Z</time></trkpt><trkpt lat="43.2738467" lon="13.327595"><ele>159.0</ele><time>2026-04-26T08:18:49.525Z</time></trkpt><trkpt lat="43.2737833" lon="13.3274167"><ele>159.0</ele><time>2026-04-26T08:18:50.525Z</time></trkpt><trkpt lat="43.273705" lon="13.32723"><ele>159.0</ele><time>2026-04-26T08:18:51.525Z</time></trkpt><trkpt lat="43.2736133" lon="13.3270533"><ele>159.0</ele><time>2026-04-26T08:18:52.525Z</time></trkpt><trkpt lat="43.2735033" lon="13.32689"><ele>157.0</ele><time>2026-04-26T08:18:53.525Z</time></trkpt><trkpt lat="43.2733833" lon="13.326735"><ele>155.0</ele><time>2026-04-26T08:18:54.525Z</time></trkpt><trkpt lat="43.27326" lon="13.3265967"><ele>153.0</ele><time>2026-04-26T08:18:55.525Z</time></trkpt><trkpt lat="43.2731267" lon="13.3264583"><ele>154.33333333333334</ele><time>2026-04-26T08:18:56.525Z</time></trkpt><trkpt lat="43.2729867" lon="13.3263083"><ele>155.66666666666669</ele><time>2026-04-26T08:18:57.526Z</time></trkpt><trkpt lat="43.27284" lon="13.3261617"><ele>157.0</ele><time>2026-04-26T08:18:58.526Z</time></trkpt><trkpt lat="43.2727083" lon="13.3260217"><ele>157.0</ele><time>2026-04-26T08:18:59.525Z</time></trkpt><trkpt lat="43.2725867" lon="13.325895"><ele>157.0</ele><time>2026-04-26T08:19:00.525Z</time></trkpt><trkpt lat="43.2724633" lon="13.3257667"><ele>157.0</ele><time>2026-04-26T08:19:01.525Z</time></trkpt><trkpt lat="43.272335" lon="13.3256383"><ele>157.66666666666669</ele><time>2026-04-26T08:19:02.525Z</time></trkpt><trkpt lat="43.2722033" lon="13.3255083"><ele>158.33333333333334</ele><time>2026-04-26T08:19:03.525Z</time></trkpt><trkpt lat="43.2720683" lon="13.32537"><ele>159.0</ele><time>2026-04-26T08:19:04.525Z</time></trkpt><trkpt lat="43.27193" lon="13.3252283"><ele>159.0</ele><time>2026-04-26T08:19:05.526Z</time></trkpt><trkpt lat="43.271795" lon="13.3250733"><ele>159.0</ele><time>2026-04-26T08:19:06.525Z</time></trkpt><trkpt lat="43.2716567" lon="13.3249167"><ele>159.0</ele><time>2026-04-26T08:19:07.525Z</time></trkpt><trkpt lat="43.2715183" lon="13.32475"><ele>159.0</ele><time>2026-04-26T08:19:08.526Z</time></trkpt><trkpt lat="43.27138" lon="13.3245817"><ele>159.0</ele><time>2026-04-26T08:19:09.526Z</time></trkpt><trkpt lat="43.2712317" lon="13.3244033"><ele>159.0</ele><time>2026-04-26T08:19:10.525Z</time></trkpt><trkpt lat="43.2710833" lon="13.3242233"><ele>159.0</ele><time>2026-04-26T08:19:11.525Z</time></trkpt><trkpt lat="43.2709483" lon="13.3240583"><ele>159.0</ele><time>2026-04-26T08:19:12.525Z</time></trkpt><trkpt lat="43.270815" lon="13.3239083"><ele>159.0</ele><time>2026-04-26T08:19:13.525Z</time></trkpt><trkpt lat="43.27069" lon="13.3237567"><ele>161.33333333333334</ele><time>2026-04-26T08:19:14.525Z</time></trkpt><trkpt lat="43.2705683" lon="13.3236033"><ele>163.66666666666669</ele><time>2026-04-26T08:19:15.525Z</time></trkpt><trkpt lat="43.270445" lon="13.32347"><ele>166.0</ele><time>2026-04-26T08:19:16.526Z</time></trkpt><trkpt lat="43.2703217" lon="13.3233483"><ele>166.0</ele><time>2026-04-26T08:19:17.525Z</time></trkpt><trkpt lat="43.27019" lon="13.3232433"><ele>166.0</ele><time>2026-04-26T08:19:18.525Z</time></trkpt><trkpt lat="43.2700483" lon="13.3231783"><ele>166.0</ele><time>2026-04-26T08:19:19.526Z</time></trkpt><trkpt lat="43.269905" lon="13.3231333"><ele>166.0</ele><time>2026-04-26T08:19:20.526Z</time></trkpt><trkpt lat="43.26976" lon="13.3231217"><ele>166.66666666666669</ele><time>2026-04-26T08:19:21.525Z</time></trkpt><trkpt lat="43.2696133" lon="13.3230933"><ele>167.33333333333334</ele><time>2026-04-26T08:19:22.526Z</time></trkpt><trkpt lat="43.2694533" lon="13.3230717"><ele>168.0</ele><time>2026-04-26T08:19:23.525Z</time></trkpt><trkpt lat="43.2692967" lon="13.3230283"><ele>168.0</ele><time>2026-04-26T08:19:24.526Z</time></trkpt><trkpt lat="43.269155" lon="13.3229517"><ele>168.0</ele><time>2026-04-26T08:19:25.526Z</time></trkpt><trkpt lat="43.26902" lon="13.3228433"><ele>168.0</ele><time>2026-04-26T08:19:26.525Z</time></trkpt><trkpt lat="43.26889" lon="13.3227117"><ele>170.66666666666666</ele><time>2026-04-26T08:19:27.525Z</time></trkpt><trkpt lat="43.26876" lon="13.3225817"><ele>173.33333333333331</ele><time>2026-04-26T08:19:28.525Z</time></trkpt><trkpt lat="43.2686233" lon="13.322445"><ele>176.0</ele><time>2026-04-26T08:19:29.525Z</time></trkpt><trkpt lat="43.26848" lon="13.3223067"><ele>175.33333333333331</ele><time>2026-04-26T08:19:30.525Z</time></trkpt><trkpt lat="43.268325" lon="13.3221667"><ele>174.66666666666666</ele><time>2026-04-26T08:19:31.525Z</time></trkpt><trkpt lat="43.2681733" lon="13.3220167"><ele>174.0</ele><time>2026-04-26T08:19:32.525Z</time></trkpt><trkpt lat="43.2680233" lon="13.3218833"><ele>174.0</ele><time>2026-04-26T08:19:33.525Z</time></trkpt><trkpt lat="43.267875" lon="13.32174"><ele>174.0</ele><time>2026-04-26T08:19:34.525Z</time></trkpt><trkpt lat="43.2677317" lon="13.3215967"><ele>174.0</ele><time>2026-04-26T08:19:35.525Z</time></trkpt><trkpt lat="43.2675817" lon="13.3214517"><ele>173.33333333333334</ele><time>2026-04-26T08:19:36.525Z</time></trkpt><trkpt lat="43.26743" lon="13.3213083"><ele>172.66666666666669</ele><time>2026-04-26T08:19:37.525Z</time></trkpt><trkpt lat="43.2672717" lon="13.3211717"><ele>172.0</ele><time>2026-04-26T08:19:38.525Z</time></trkpt><trkpt lat="43.267115" lon="13.3210267"><ele>171.33333333333334</ele><time>2026-04-26T08:19:39.525Z</time></trkpt><trkpt lat="43.266945" lon="13.3208817"><ele>170.66666666666666</ele><time>2026-04-26T08:19:40.526Z</time></trkpt><trkpt lat="43.2667733" lon="13.3207233"><ele>170.0</ele><time>2026-04-26T08:19:41.525Z</time></trkpt><trkpt lat="43.2665917" lon="13.3205583"><ele>171.33333333333331</ele><time>2026-04-26T08:19:42.525Z</time></trkpt><trkpt lat="43.2664117" lon="13.3203833"><ele>172.66666666666666</ele><time>2026-04-26T08:19:43.525Z</time></trkpt><trkpt lat="43.2662333" lon="13.3202083"><ele>174.0</ele><time>2026-04-26T08:19:44.525Z</time></trkpt><trkpt lat="43.26606" lon="13.320025"><ele>174.0</ele><time>2026-04-26T08:19:45.525Z</time></trkpt><trkpt lat="43.2658817" lon="13.3198467"><ele>174.0</ele><time>2026-04-26T08:19:46.525Z</time></trkpt><trkpt lat="43.2657083" lon="13.3196683"><ele>174.0</ele><time>2026-04-26T08:19:47.525Z</time></trkpt><trkpt lat="43.26554" lon="13.3195067"><ele>174.33333333333334</ele><time>2026-04-26T08:19:48.525Z</time></trkpt><trkpt lat="43.2653633" lon="13.319355"><ele>174.66666666666669</ele><time>2026-04-26T08:19:49.525Z</time></trkpt><trkpt lat="43.2651867" lon="13.3192067"><ele>175.0</ele><time>2026-04-26T08:19:50.525Z</time></trkpt><trkpt lat="43.2650117" lon="13.31906"><ele>175.0</ele><time>2026-04-26T08:19:51.525Z</time></trkpt><trkpt lat="43.2648433" lon="13.3189117"><ele>175.0</ele><time>2026-04-26T08:19:52.526Z</time></trkpt><trkpt lat="43.2646767" lon="13.3187583"><ele>175.0</ele><time>2026-04-26T08:19:53.525Z</time></trkpt><trkpt lat="43.2645083" lon="13.3186067"><ele>174.66666666666669</ele><time>2026-04-26T08:19:54.525Z</time></trkpt><trkpt lat="43.2643467" lon="13.318435"><ele>174.33333333333334</ele><time>2026-04-26T08:19:55.526Z</time></trkpt><trkpt lat="43.2641867" lon="13.3182683"><ele>174.0</ele><time>2026-04-26T08:19:56.525Z</time></trkpt><trkpt lat="43.2640267" lon="13.3180817"><ele>172.33333333333334</ele><time>2026-04-26T08:19:57.525Z</time></trkpt><trkpt lat="43.2638567" lon="13.3179017"><ele>170.66666666666669</ele><time>2026-04-26T08:19:58.525Z</time></trkpt><trkpt lat="43.2636883" lon="13.3177067"><ele>169.0</ele><time>2026-04-26T08:19:59.525Z</time></trkpt><trkpt lat="43.2635117" lon="13.3175167"><ele>169.0</ele><time>2026-04-26T08:20:00.525Z</time></trkpt><trkpt lat="43.2633317" lon="13.3173233"><ele>169.0</ele><time>2026-04-26T08:20:01.525Z</time></trkpt><trkpt lat="43.2631533" lon="13.3171333"><ele>169.5</ele><time>2026-04-26T08:20:02.525Z</time></trkpt><trkpt lat="43.262975" lon="13.3169367"><ele>170.0</ele><time>2026-04-26T08:20:03.525Z</time></trkpt><trkpt lat="43.2627917" lon="13.3167317"><ele>170.0</ele><time>2026-04-26T08:20:04.525Z</time></trkpt><trkpt lat="43.2626067" lon="13.3165317"><ele>170.0</ele><time>2026-04-26T08:20:05.526Z</time></trkpt><trkpt lat="43.2624217" lon="13.3163267"><ele>171.5</ele><time>2026-04-26T08:20:06.525Z</time></trkpt><trkpt lat="43.26224" lon="13.3161217"><ele>173.0</ele><time>2026-04-26T08:20:07.525Z</time></trkpt><trkpt lat="43.26206" lon="13.3159283"><ele>173.0</ele><time>2026-04-26T08:20:08.525Z</time></trkpt><trkpt lat="43.2618983" lon="13.3157483"><ele>173.0</ele><time>2026-04-26T08:20:09.525Z</time></trkpt><trkpt lat="43.2617483" lon="13.3155733"><ele>173.0</ele><time>2026-04-26T08:20:10.525Z</time></trkpt><trkpt lat="43.261605" lon="13.315415"><ele>173.0</ele><time>2026-04-26T08:20:11.525Z</time></trkpt><trkpt lat="43.2614617" lon="13.3152733"><ele>173.0</ele><time>2026-04-26T08:20:12.525Z</time></trkpt><trkpt lat="43.2612983" lon="13.315175"><ele>173.0</ele><time>2026-04-26T08:20:13.525Z</time></trkpt><trkpt lat="43.26111" lon="13.3151067"><ele>172.66666666666666</ele><time>2026-04-26T08:20:14.525Z</time></trkpt><trkpt lat="43.2609" lon="13.31507"><ele>172.33333333333334</ele><time>2026-04-26T08:20:15.525Z</time></trkpt><trkpt lat="43.2606817" lon="13.3150383"><ele>172.0</ele><time>2026-04-26T08:20:16.525Z</time></trkpt><trkpt lat="43.2604617" lon="13.315"><ele>173.66666666666669</ele><time>2026-04-26T08:20:17.525Z</time></trkpt><trkpt lat="43.2602517" lon="13.3149583"><ele>175.33333333333334</ele><time>2026-04-26T08:20:18.525Z</time></trkpt><trkpt lat="43.260055" lon="13.31492"><ele>177.0</ele><time>2026-04-26T08:20:19.525Z</time></trkpt><trkpt lat="43.2598783" lon="13.31488"><ele>176.5</ele><time>2026-04-26T08:20:20.525Z</time></trkpt><trkpt lat="43.2597183" lon="13.31485"><ele>176.0</ele><time>2026-04-26T08:20:21.526Z</time></trkpt><trkpt lat="43.2595783" lon="13.3148583"><ele>175.5</ele><time>2026-04-26T08:20:22.525Z</time></trkpt><trkpt lat="43.2594483" lon="13.3149067"><ele>175.0</ele><time>2026-04-26T08:20:23.525Z</time></trkpt><trkpt lat="43.2593333" lon="13.3149883"><ele>175.0</ele><time>2026-04-26T08:20:24.525Z</time></trkpt><trkpt lat="43.2592383" lon="13.315115"><ele>175.0</ele><time>2026-04-26T08:20:25.525Z</time></trkpt><trkpt lat="43.2591683" lon="13.315285"><ele>175.0</ele><time>2026-04-26T08:20:26.525Z</time></trkpt><trkpt lat="43.259115" lon="13.3154883"><ele>175.0</ele><time>2026-04-26T08:20:27.525Z</time></trkpt><trkpt lat="43.2590833" lon="13.3157183"><ele>176.66666666666669</ele><time>2026-04-26T08:20:28.525Z</time></trkpt><trkpt lat="43.2590517" lon="13.3159583"><ele>178.33333333333334</ele><time>2026-04-26T08:20:29.525Z</time></trkpt><trkpt lat="43.259" lon="13.3162033"><ele>180.0</ele><time>2026-04-26T08:20:30.526Z</time></trkpt><trkpt lat="43.25893" lon="13.3164483"><ele>180.0</ele><time>2026-04-26T08:20:31.526Z</time></trkpt><trkpt lat="43.25885" lon="13.3166817"><ele>180.0</ele><time>2026-04-26T08:20:32.525Z</time></trkpt><trkpt lat="43.258745" lon="13.3168983"><ele>180.0</ele><time>2026-04-26T08:20:33.525Z</time></trkpt><trkpt lat="43.2586183" lon="13.3170933"><ele>181.66666666666666</ele><time>2026-04-26T08:20:34.526Z</time></trkpt><trkpt lat="43.258465" lon="13.3172717"><ele>183.33333333333331</ele><time>2026-04-26T08:20:35.525Z</time></trkpt><trkpt lat="43.2582883" lon="13.317435"><ele>185.0</ele><time>2026-04-26T08:20:36.525Z</time></trkpt><trkpt lat="43.2581067" lon="13.317585"><ele>185.0</ele><time>2026-04-26T08:20:37.526Z</time></trkpt><trkpt lat="43.2579033" lon="13.3177367"><ele>185.0</ele><time>2026-04-26T08:20:38.525Z</time></trkpt><trkpt lat="43.2577083" lon="13.3178883"><ele>185.0</ele><time>2026-04-26T08:20:39.525Z</time></trkpt><trkpt lat="43.2575117" lon="13.3180483"><ele>185.0</ele><time>2026-04-26T08:20:40.525Z</time></trkpt><trkpt lat="43.257315" lon="13.3182067"><ele>186.33333333333331</ele><time>2026-04-26T08:20:41.526Z</time></trkpt><trkpt lat="43.257125" lon="13.31836"><ele>187.66666666666666</ele><time>2026-04-26T08:20:42.525Z</time></trkpt><trkpt lat="43.2569383" lon="13.318495"><ele>189.0</ele><time>2026-04-26T08:20:43.525Z</time></trkpt><trkpt lat="43.2567733" lon="13.3186217"><ele>189.0</ele><time>2026-04-26T08:20:44.525Z</time></trkpt><trkpt lat="43.25662" lon="13.3187417"><ele>189.0</ele><time>2026-04-26T08:20:45.525Z</time></trkpt><trkpt lat="43.2564667" lon="13.3188167"><ele>189.0</ele><time>2026-04-26T08:20:46.526Z</time></trkpt><trkpt lat="43.2563" lon="13.318865"><ele>189.33333333333334</ele><time>2026-04-26T08:20:47.525Z</time></trkpt><trkpt lat="43.2561167" lon="13.3188817"><ele>189.66666666666669</ele><time>2026-04-26T08:20:48.525Z</time></trkpt><trkpt lat="43.2559367" lon="13.3188933"><ele>190.0</ele><time>2026-04-26T08:20:49.525Z</time></trkpt><trkpt lat="43.255755" lon="13.3188883"><ele>193.0</ele><time>2026-04-26T08:20:50.525Z</time></trkpt><trkpt lat="43.25557" lon="13.3189117"><ele>196.0</ele><time>2026-04-26T08:20:51.525Z</time></trkpt><trkpt lat="43.2553917" lon="13.31897"><ele>199.0</ele><time>2026-04-26T08:20:52.525Z</time></trkpt><trkpt lat="43.255215" lon="13.3190617"><ele>199.0</ele><time>2026-04-26T08:20:53.525Z</time></trkpt><trkpt lat="43.2550383" lon="13.3191767"><ele>199.0</ele><time>2026-04-26T08:20:54.525Z</time></trkpt><trkpt lat="43.254855" lon="13.319295"><ele>199.0</ele><time>2026-04-26T08:20:55.525Z</time></trkpt><trkpt lat="43.2546867" lon="13.3193817"><ele>199.33333333333331</ele><time>2026-04-26T08:20:56.526Z</time></trkpt><trkpt lat="43.2545183" lon="13.3194267"><ele>199.66666666666669</ele><time>2026-04-26T08:20:57.525Z</time></trkpt><trkpt lat="43.25435" lon="13.3194183"><ele>200.0</ele><time>2026-04-26T08:20:58.525Z</time></trkpt><trkpt lat="43.2541783" lon="13.3193483"><ele>200.0</ele><time>2026-04-26T08:20:59.525Z</time></trkpt><trkpt lat="43.25401" lon="13.3192467"><ele>200.0</ele><time>2026-04-26T08:21:00.525Z</time></trkpt><trkpt lat="43.2538533" lon="13.3191317"><ele>200.0</ele><time>2026-04-26T08:21:01.525Z</time></trkpt><trkpt lat="43.2537117" lon="13.3190167"><ele>201.25</ele><time>2026-04-26T08:21:02.525Z</time></trkpt><trkpt lat="43.2535967" lon="13.3188883"><ele>202.5</ele><time>2026-04-26T08:21:03.525Z</time></trkpt><trkpt lat="43.2535283" lon="13.3187467"><ele>203.75</ele><time>2026-04-26T08:21:04.525Z</time></trkpt><trkpt lat="43.2534767" lon="13.3185833"><ele>205.0</ele><time>2026-04-26T08:21:05.526Z</time></trkpt><trkpt lat="43.2534367" lon="13.31841"><ele>205.0</ele><time>2026-04-26T08:21:06.525Z</time></trkpt><trkpt lat="43.2534017" lon="13.3182233"><ele>205.0</ele><time>2026-04-26T08:21:07.526Z</time></trkpt><trkpt lat="43.2533533" lon="13.318045"><ele>205.0</ele><time>2026-04-26T08:21:08.526Z</time></trkpt><trkpt lat="43.2532867" lon="13.317885"><ele>205.0</ele><time>2026-04-26T08:21:09.525Z</time></trkpt><trkpt lat="43.253205" lon="13.3177617"><ele>205.0</ele><time>2026-04-26T08:21:10.525Z</time></trkpt><trkpt lat="43.25311" lon="13.3176783"><ele>205.0</ele><time>2026-04-26T08:21:11.525Z</time></trkpt><trkpt lat="43.2530117" lon="13.3176317"><ele>205.0</ele><time>2026-04-26T08:21:12.525Z</time></trkpt><trkpt lat="43.2529083" lon="13.317635"><ele>205.0</ele><time>2026-04-26T08:21:13.526Z</time></trkpt><trkpt lat="43.252805" lon="13.3176883"><ele>205.0</ele><time>2026-04-26T08:21:14.525Z</time></trkpt><trkpt lat="43.25271" lon="13.3177867"><ele>205.0</ele><time>2026-04-26T08:21:15.525Z</time></trkpt><trkpt lat="43.2526117" lon="13.3179217"><ele>205.0</ele><time>2026-04-26T08:21:16.526Z</time></trkpt><trkpt lat="43.252505" lon="13.3180833"><ele>205.0</ele><time>2026-04-26T08:21:17.525Z</time></trkpt><trkpt lat="43.2523883" lon="13.3182633"><ele>206.0</ele><time>2026-04-26T08:21:18.525Z</time></trkpt><trkpt lat="43.25227" lon="13.3184417"><ele>207.0</ele><time>2026-04-26T08:21:19.526Z</time></trkpt><trkpt lat="43.2521483" lon="13.3186317"><ele>208.0</ele><time>2026-04-26T08:21:20.525Z</time></trkpt><trkpt lat="43.2520317" lon="13.3188283"><ele>210.0</ele><time>2026-04-26T08:21:21.525Z</time></trkpt><trkpt lat="43.2519233" lon="13.3190267"><ele>212.0</ele><time>2026-04-26T08:21:22.525Z</time></trkpt><trkpt lat="43.2518383" lon="13.3192217"><ele>214.0</ele><time>2026-04-26T08:21:23.525Z</time></trkpt><trkpt lat="43.251765" lon="13.319405"><ele>214.0</ele><time>2026-04-26T08:21:24.525Z</time></trkpt><trkpt lat="43.251695" lon="13.319555"><ele>213.99999999999997</ele><time>2026-04-26T08:21:25.525Z</time></trkpt><trkpt lat="43.2516133" lon="13.31966"><ele>213.99999999999997</ele><time>2026-04-26T08:21:26.526Z</time></trkpt><trkpt lat="43.2515367" lon="13.31972"><ele>214.0</ele><time>2026-04-26T08:21:27.525Z</time></trkpt><trkpt lat="43.2514517" lon="13.3197267"><ele>214.0</ele><time>2026-04-26T08:21:28.525Z</time></trkpt><trkpt lat="43.251365" lon="13.319665"><ele>216.0</ele><time>2026-04-26T08:21:29.525Z</time></trkpt><trkpt lat="43.251275" lon="13.319565"><ele>218.0</ele><time>2026-04-26T08:21:30.525Z</time></trkpt><trkpt lat="43.2511817" lon="13.319425"><ele>220.0</ele><time>2026-04-26T08:21:31.526Z</time></trkpt><trkpt lat="43.2510867" lon="13.31927"><ele>222.0</ele><time>2026-04-26T08:21:32.526Z</time></trkpt><trkpt lat="43.25099" lon="13.3191"><ele>222.0</ele><time>2026-04-26T08:21:33.525Z</time></trkpt><trkpt lat="43.2508883" lon="13.3189367"><ele>222.0</ele><time>2026-04-26T08:21:34.526Z</time></trkpt><trkpt lat="43.2507917" lon="13.31879"><ele>222.0</ele><time>2026-04-26T08:21:35.525Z</time></trkpt><trkpt lat="43.2507017" lon="13.3186767"><ele>222.0</ele><time>2026-04-26T08:21:36.525Z</time></trkpt><trkpt lat="43.2506117" lon="13.31859"><ele>221.25</ele><time>2026-04-26T08:21:37.525Z</time></trkpt><trkpt lat="43.250495" lon="13.318555"><ele>220.5</ele><time>2026-04-26T08:21:38.525Z</time></trkpt><trkpt lat="43.2503717" lon="13.3185667"><ele>219.75</ele><time>2026-04-26T08:21:39.525Z</time></trkpt><trkpt lat="43.250235" lon="13.3186233"><ele>219.0</ele><time>2026-04-26T08:21:40.525Z</time></trkpt><trkpt lat="43.2500967" lon="13.31871"><ele>219.0</ele><time>2026-04-26T08:21:41.525Z</time></trkpt><trkpt lat="43.249955" lon="13.3187983"><ele>219.0</ele><time>2026-04-26T08:21:42.525Z</time></trkpt><trkpt lat="43.249815" lon="13.3188783"><ele>219.0</ele><time>2026-04-26T08:21:43.525Z</time></trkpt><trkpt lat="43.2496717" lon="13.318925"><ele>220.0</ele><time>2026-04-26T08:21:44.525Z</time></trkpt><trkpt lat="43.2495283" lon="13.3189033"><ele>221.0</ele><time>2026-04-26T08:21:45.525Z</time></trkpt><trkpt lat="43.24938" lon="13.3188383"><ele>222.0</ele><time>2026-04-26T08:21:46.526Z</time></trkpt><trkpt lat="43.249245" lon="13.3187383"><ele>222.0</ele><time>2026-04-26T08:21:47.525Z</time></trkpt><trkpt lat="43.2491117" lon="13.3186117"><ele>222.0</ele><time>2026-04-26T08:21:48.525Z</time></trkpt><trkpt lat="43.2489617" lon="13.3184833"><ele>222.0</ele><time>2026-04-26T08:21:49.525Z</time></trkpt><trkpt lat="43.2488" lon="13.3183633"><ele>225.0</ele><time>2026-04-26T08:21:50.525Z</time></trkpt><trkpt lat="43.248625" lon="13.31826"><ele>228.0</ele><time>2026-04-26T08:21:51.525Z</time></trkpt><trkpt lat="43.24845" lon="13.31817"><ele>231.0</ele><time>2026-04-26T08:21:52.526Z</time></trkpt><trkpt lat="43.24828" lon="13.3181"><ele>231.25</ele><time>2026-04-26T08:21:53.525Z</time></trkpt><trkpt lat="43.2481283" lon="13.3180433"><ele>231.5</ele><time>2026-04-26T08:21:54.525Z</time></trkpt><trkpt lat="43.247985" lon="13.3179883"><ele>231.75</ele><time>2026-04-26T08:21:55.526Z</time></trkpt><trkpt lat="43.24786" lon="13.317945"><ele>232.0</ele><time>2026-04-26T08:21:56.525Z</time></trkpt><trkpt lat="43.2477383" lon="13.3179"><ele>232.0</ele><time>2026-04-26T08:21:57.525Z</time></trkpt><trkpt lat="43.2476267" lon="13.317835"><ele>232.0</ele><time>2026-04-26T08:21:58.526Z</time></trkpt><trkpt lat="43.2475217" lon="13.3177233"><ele>232.0</ele><time>2026-04-26T08:21:59.525Z</time></trkpt><trkpt lat="43.24741" lon="13.317615"><ele>232.0</ele><time>2026-04-26T08:22:00.526Z</time></trkpt><trkpt lat="43.24729" lon="13.3174967"><ele>232.0</ele><time>2026-04-26T08:22:01.525Z</time></trkpt><trkpt lat="43.2471483" lon="13.31737"><ele>232.0</ele><time>2026-04-26T08:22:02.525Z</time></trkpt><trkpt lat="43.2470017" lon="13.31724"><ele>232.0</ele><time>2026-04-26T08:22:03.525Z</time></trkpt><trkpt lat="43.2468433" lon="13.3171083"><ele>233.0</ele><time>2026-04-26T08:22:04.526Z</time></trkpt><trkpt lat="43.24668" lon="13.31697"><ele>234.0</ele><time>2026-04-26T08:22:05.525Z</time></trkpt><trkpt lat="43.246515" lon="13.3168233"><ele>235.0</ele><time>2026-04-26T08:22:06.525Z</time></trkpt><trkpt lat="43.24634" lon="13.3166617"><ele>235.0</ele><time>2026-04-26T08:22:07.525Z</time></trkpt><trkpt lat="43.246165" lon="13.3165033"><ele>235.0</ele><time>2026-04-26T08:22:08.526Z</time></trkpt><trkpt lat="43.2459917" lon="13.3163433"><ele>235.0</ele><time>2026-04-26T08:22:09.526Z</time></trkpt><trkpt lat="43.2458283" lon="13.31619"><ele>236.0</ele><time>2026-04-26T08:22:10.525Z</time></trkpt><trkpt lat="43.245685" lon="13.3160467"><ele>237.0</ele><time>2026-04-26T08:22:11.525Z</time></trkpt><trkpt lat="43.2455483" lon="13.3158867"><ele>238.0</ele><time>2026-04-26T08:22:12.525Z</time></trkpt><trkpt lat="43.2454217" lon="13.3157133"><ele>241.0</ele><time>2026-04-26T08:22:13.525Z</time></trkpt><trkpt lat="43.2453083" lon="13.315535"><ele>244.0</ele><time>2026-04-26T08:22:14.525Z</time></trkpt><trkpt lat="43.2452183" lon="13.3153483"><ele>247.0</ele><time>2026-04-26T08:22:15.525Z</time></trkpt><trkpt lat="43.2451367" lon="13.3151517"><ele>247.0</ele><time>2026-04-26T08:22:16.526Z</time></trkpt><trkpt lat="43.2450717" lon="13.3149367"><ele>247.0</ele><time>2026-04-26T08:22:17.526Z</time></trkpt><trkpt lat="43.24502" lon="13.3147283"><ele>247.0</ele><time>2026-04-26T08:22:18.525Z</time></trkpt><trkpt lat="43.2449783" lon="13.3145267"><ele>248.0</ele><time>2026-04-26T08:22:19.525Z</time></trkpt><trkpt lat="43.2449317" lon="13.314335"><ele>249.0</ele><time>2026-04-26T08:22:20.526Z</time></trkpt><trkpt lat="43.2448833" lon="13.3141617"><ele>250.0</ele><time>2026-04-26T08:22:21.526Z</time></trkpt><trkpt lat="43.2448417" lon="13.31401"><ele>251.0</ele><time>2026-04-26T08:22:22.525Z</time></trkpt><trkpt lat="43.24479" lon="13.3138817"><ele>254.0</ele><time>2026-04-26T08:22:23.526Z</time></trkpt><trkpt lat="43.2447183" lon="13.3137633"><ele>257.0</ele><time>2026-04-26T08:22:24.526Z</time></trkpt><trkpt lat="43.2446233" lon="13.3136633"><ele>260.0</ele><time>2026-04-26T08:22:25.525Z</time></trkpt><trkpt lat="43.2445017" lon="13.3135717"><ele>263.0</ele><time>2026-04-26T08:22:26.525Z</time></trkpt><trkpt lat="43.2443633" lon="13.31348"><ele>263.0</ele><time>2026-04-26T08:22:27.526Z</time></trkpt><trkpt lat="43.2442183" lon="13.3134017"><ele>263.0</ele><time>2026-04-26T08:22:28.526Z</time></trkpt><trkpt lat="43.2440617" lon="13.3133117"><ele>263.0</ele><time>2026-04-26T08:22:29.525Z</time></trkpt><trkpt lat="43.2438967" lon="13.3132183"><ele>263.6666666666667</ele><time>2026-04-26T08:22:30.525Z</time></trkpt><trkpt lat="43.24372" lon="13.3131183"><ele>264.3333333333333</ele><time>2026-04-26T08:22:31.525Z</time></trkpt><trkpt lat="43.243535" lon="13.31302"><ele>265.0</ele><time>2026-04-26T08:22:32.525Z</time></trkpt><trkpt lat="43.2433533" lon="13.31292"><ele>265.0</ele><time>2026-04-26T08:22:33.525Z</time></trkpt><trkpt lat="43.243175" lon="13.31282"><ele>265.0</ele><time>2026-04-26T08:22:34.526Z</time></trkpt><trkpt lat="43.24299" lon="13.31272"><ele>265.0</ele><time>2026-04-26T08:22:35.526Z</time></trkpt><trkpt lat="43.24281" lon="13.31263"><ele>268.0</ele><time>2026-04-26T08:22:36.525Z</time></trkpt><trkpt lat="43.24264" lon="13.312545"><ele>271.0</ele><time>2026-04-26T08:22:37.525Z</time></trkpt><trkpt lat="43.2424867" lon="13.3124633"><ele>274.0</ele><time>2026-04-26T08:22:38.526Z</time></trkpt><trkpt lat="43.2423467" lon="13.3123817"><ele>273.75</ele><time>2026-04-26T08:22:39.525Z</time></trkpt><trkpt lat="43.2422133" lon="13.3123083"><ele>273.5</ele><time>2026-04-26T08:22:40.525Z</time></trkpt><trkpt lat="43.242085" lon="13.312245"><ele>273.25</ele><time>2026-04-26T08:22:41.526Z</time></trkpt><trkpt lat="43.2419583" lon="13.3121717"><ele>273.0</ele><time>2026-04-26T08:22:42.526Z</time></trkpt><trkpt lat="43.241825" lon="13.3121017"><ele>273.0</ele><time>2026-04-26T08:22:43.525Z</time></trkpt><trkpt lat="43.241695" lon="13.312025"><ele>273.0</ele><time>2026-04-26T08:22:44.526Z</time></trkpt><trkpt lat="43.2415733" lon="13.3119467"><ele>273.0</ele><time>2026-04-26T08:22:45.525Z</time></trkpt><trkpt lat="43.241465" lon="13.3118467"><ele>273.0</ele><time>2026-04-26T08:22:46.526Z</time></trkpt><trkpt lat="43.2413683" lon="13.3117183"><ele>273.0</ele><time>2026-04-26T08:22:47.526Z</time></trkpt><trkpt lat="43.2412833" lon="13.311555"><ele>273.0</ele><time>2026-04-26T08:22:48.525Z</time></trkpt><trkpt lat="43.2411917" lon="13.3113667"><ele>273.0</ele><time>2026-04-26T08:22:49.525Z</time></trkpt><trkpt lat="43.24109" lon="13.3111683"><ele>272.3333333333333</ele><time>2026-04-26T08:22:50.525Z</time></trkpt><trkpt lat="43.2409717" lon="13.3109617"><ele>271.66666666666663</ele><time>2026-04-26T08:22:51.525Z</time></trkpt><trkpt lat="43.2408583" lon="13.310745"><ele>271.0</ele><time>2026-04-26T08:22:52.526Z</time></trkpt><trkpt lat="43.240745" lon="13.3105267"><ele>270.0</ele><time>2026-04-26T08:22:53.525Z</time></trkpt><trkpt lat="43.2406233" lon="13.3102933"><ele>269.0</ele><time>2026-04-26T08:22:54.525Z</time></trkpt><trkpt lat="43.2405017" lon="13.3100483"><ele>268.0</ele><time>2026-04-26T08:22:55.525Z</time></trkpt><trkpt lat="43.2403683" lon="13.3098033"><ele>267.3333333333333</ele><time>2026-04-26T08:22:56.525Z</time></trkpt><trkpt lat="43.240235" lon="13.30956"><ele>266.6666666666667</ele><time>2026-04-26T08:22:57.525Z</time></trkpt><trkpt lat="43.2401067" lon="13.3093233"><ele>266.0</ele><time>2026-04-26T08:22:58.525Z</time></trkpt><trkpt lat="43.2399933" lon="13.3091"><ele>265.6666666666667</ele><time>2026-04-26T08:22:59.525Z</time></trkpt><trkpt lat="43.2398833" lon="13.3088867"><ele>265.3333333333333</ele><time>2026-04-26T08:23:00.525Z</time></trkpt><trkpt lat="43.239775" lon="13.3086733"><ele>265.0</ele><time>2026-04-26T08:23:01.525Z</time></trkpt><trkpt lat="43.239655" lon="13.3084483"><ele>265.0</ele><time>2026-04-26T08:23:02.525Z</time></trkpt><trkpt lat="43.2395483" lon="13.3082033"><ele>265.0</ele><time>2026-04-26T08:23:03.525Z</time></trkpt><trkpt lat="43.2394383" lon="13.3079467"><ele>265.0</ele><time>2026-04-26T08:23:04.524Z</time></trkpt><trkpt lat="43.2393383" lon="13.3076983"><ele>265.0</ele><time>2026-04-26T08:23:05.524Z</time></trkpt><trkpt lat="43.23924" lon="13.3074483"><ele>265.0</ele><time>2026-04-26T08:23:06.524Z</time></trkpt><trkpt lat="43.2391483" lon="13.3071933"><ele>265.0</ele><time>2026-04-26T08:23:07.524Z</time></trkpt><trkpt lat="43.23905" lon="13.30694"><ele>264.66666666666663</ele><time>2026-04-26T08:23:08.524Z</time></trkpt><trkpt lat="43.23896" lon="13.306695"><ele>264.3333333333333</ele><time>2026-04-26T08:23:09.524Z</time></trkpt><trkpt lat="43.238875" lon="13.3064683"><ele>264.0</ele><time>2026-04-26T08:23:10.524Z</time></trkpt><trkpt lat="43.238805" lon="13.3062617"><ele>266.0</ele><time>2026-04-26T08:23:11.524Z</time></trkpt><trkpt lat="43.238745" lon="13.30606"><ele>268.0</ele><time>2026-04-26T08:23:12.524Z</time></trkpt><trkpt lat="43.2387" lon="13.305845"><ele>270.0</ele><time>2026-04-26T08:23:13.524Z</time></trkpt><trkpt lat="43.2386783" lon="13.30563"><ele>272.3333333333333</ele><time>2026-04-26T08:23:14.524Z</time></trkpt><trkpt lat="43.2386717" lon="13.3053983"><ele>274.66666666666663</ele><time>2026-04-26T08:23:15.524Z</time></trkpt><trkpt lat="43.238675" lon="13.30515"><ele>277.0</ele><time>2026-04-26T08:23:16.525Z</time></trkpt><trkpt lat="43.2386833" lon="13.3049"><ele>278.0</ele><time>2026-04-26T08:23:17.524Z</time></trkpt><trkpt lat="43.2386867" lon="13.3046533"><ele>279.0</ele><time>2026-04-26T08:23:18.524Z</time></trkpt><trkpt lat="43.238685" lon="13.30442"><ele>280.0</ele><time>2026-04-26T08:23:19.524Z</time></trkpt><trkpt lat="43.2386767" lon="13.304175"><ele>280.0</ele><time>2026-04-26T08:23:20.524Z</time></trkpt><trkpt lat="43.238665" lon="13.3039433"><ele>280.0</ele><time>2026-04-26T08:23:21.524Z</time></trkpt><trkpt lat="43.2386367" lon="13.3037217"><ele>280.0</ele><time>2026-04-26T08:23:22.524Z</time></trkpt><trkpt lat="43.238595" lon="13.3035133"><ele>280.0</ele><time>2026-04-26T08:23:23.524Z</time></trkpt><trkpt lat="43.2385483" lon="13.303325"><ele>280.0</ele><time>2026-04-26T08:23:24.524Z</time></trkpt><trkpt lat="43.2385117" lon="13.303155"><ele>280.0</ele><time>2026-04-26T08:23:25.524Z</time></trkpt><trkpt lat="43.2384833" lon="13.3030067"><ele>280.0</ele><time>2026-04-26T08:23:26.525Z</time></trkpt><trkpt lat="43.238485" lon="13.302855"><ele>279.25</ele><time>2026-04-26T08:23:27.524Z</time></trkpt><trkpt lat="43.2385133" lon="13.3026817"><ele>278.5</ele><time>2026-04-26T08:23:28.524Z</time></trkpt><trkpt lat="43.238555" lon="13.302495"><ele>277.75</ele><time>2026-04-26T08:23:29.524Z</time></trkpt><trkpt lat="43.2386167" lon="13.3022817"><ele>277.0</ele><time>2026-04-26T08:23:30.524Z</time></trkpt><trkpt lat="43.23868" lon="13.3020517"><ele>276.0</ele><time>2026-04-26T08:23:31.524Z</time></trkpt><trkpt lat="43.23875" lon="13.3018017"><ele>275.0</ele><time>2026-04-26T08:23:32.524Z</time></trkpt><trkpt lat="43.2388183" lon="13.3015433"><ele>274.0</ele><time>2026-04-26T08:23:33.525Z</time></trkpt><trkpt lat="43.2388833" lon="13.3012783"><ele>273.66666666666663</ele><time>2026-04-26T08:23:34.524Z</time></trkpt><trkpt lat="43.2389483" lon="13.3010083"><ele>273.3333333333333</ele><time>2026-04-26T08:23:35.524Z</time></trkpt><trkpt lat="43.2390217" lon="13.3007433"><ele>273.0</ele><time>2026-04-26T08:23:36.524Z</time></trkpt><trkpt lat="43.2391017" lon="13.3004817"><ele>275.3333333333333</ele><time>2026-04-26T08:23:37.524Z</time></trkpt><trkpt lat="43.2391783" lon="13.3002267"><ele>277.66666666666663</ele><time>2026-04-26T08:23:38.524Z</time></trkpt><trkpt lat="43.2392483" lon="13.2999783"><ele>280.0</ele><time>2026-04-26T08:23:39.524Z</time></trkpt><trkpt lat="43.2393183" lon="13.29976"><ele>282.0</ele><time>2026-04-26T08:23:40.525Z</time></trkpt><trkpt lat="43.2393817" lon="13.2995617"><ele>284.0</ele><time>2026-04-26T08:23:41.524Z</time></trkpt><trkpt lat="43.2394583" lon="13.299365"><ele>286.0</ele><time>2026-04-26T08:23:42.524Z</time></trkpt><trkpt lat="43.239545" lon="13.2991667"><ele>286.0</ele><time>2026-04-26T08:23:43.525Z</time></trkpt><trkpt lat="43.2396467" lon="13.2989683"><ele>286.0</ele><time>2026-04-26T08:23:44.524Z</time></trkpt><trkpt lat="43.239745" lon="13.2987667"><ele>286.0</ele><time>2026-04-26T08:23:45.524Z</time></trkpt><trkpt lat="43.239835" lon="13.29857"><ele>286.3333333333333</ele><time>2026-04-26T08:23:46.524Z</time></trkpt><trkpt lat="43.2399283" lon="13.2983767"><ele>286.6666666666667</ele><time>2026-04-26T08:23:47.525Z</time></trkpt><trkpt lat="43.2400133" lon="13.2981867"><ele>287.0</ele><time>2026-04-26T08:23:48.525Z</time></trkpt><trkpt lat="43.2401017" lon="13.2980033"><ele>288.6666666666667</ele><time>2026-04-26T08:23:49.525Z</time></trkpt><trkpt lat="43.2401933" lon="13.2978067"><ele>290.3333333333333</ele><time>2026-04-26T08:23:50.525Z</time></trkpt><trkpt lat="43.2402933" lon="13.2976217"><ele>292.0</ele><time>2026-04-26T08:23:51.524Z</time></trkpt><trkpt lat="43.2404033" lon="13.2974283"><ele>291.3333333333333</ele><time>2026-04-26T08:23:52.524Z</time></trkpt><trkpt lat="43.2405117" lon="13.29725"><ele>290.6666666666667</ele><time>2026-04-26T08:23:53.524Z</time></trkpt><trkpt lat="43.24062" lon="13.2970833"><ele>290.0</ele><time>2026-04-26T08:23:54.525Z</time></trkpt><trkpt lat="43.240735" lon="13.2969483"><ele>290.0</ele><time>2026-04-26T08:23:55.524Z</time></trkpt><trkpt lat="43.2408617" lon="13.2968517"><ele>290.0</ele><time>2026-04-26T08:23:56.524Z</time></trkpt><trkpt lat="43.2410117" lon="13.29679"><ele>290.0</ele><time>2026-04-26T08:23:57.525Z</time></trkpt><trkpt lat="43.24117" lon="13.2967617"><ele>290.0</ele><time>2026-04-26T08:23:58.524Z</time></trkpt><trkpt lat="43.2413183" lon="13.296735"><ele>290.0</ele><time>2026-04-26T08:23:59.524Z</time></trkpt><trkpt lat="43.2414483" lon="13.2966967"><ele>290.0</ele><time>2026-04-26T08:24:00.524Z</time></trkpt><trkpt lat="43.2415783" lon="13.2966383"><ele>290.0</ele><time>2026-04-26T08:24:01.524Z</time></trkpt><trkpt lat="43.2416933" lon="13.296555"><ele>291.25</ele><time>2026-04-26T08:24:02.524Z</time></trkpt><trkpt lat="43.2418033" lon="13.2964533"><ele>292.5</ele><time>2026-04-26T08:24:03.524Z</time></trkpt><trkpt lat="43.2419117" lon="13.2963567"><ele>293.75</ele><time>2026-04-26T08:24:04.524Z</time></trkpt><trkpt lat="43.2420167" lon="13.2962683"><ele>295.0</ele><time>2026-04-26T08:24:05.525Z</time></trkpt><trkpt lat="43.242125" lon="13.2961917"><ele>295.5</ele><time>2026-04-26T08:24:06.524Z</time></trkpt><trkpt lat="43.2422183" lon="13.2961317"><ele>296.0</ele><time>2026-04-26T08:24:07.524Z</time></trkpt><trkpt lat="43.2422867" lon="13.2960767"><ele>296.5</ele><time>2026-04-26T08:24:08.524Z</time></trkpt><trkpt lat="43.2423333" lon="13.29601"><ele>297.0</ele><time>2026-04-26T08:24:09.524Z</time></trkpt><trkpt lat="43.2423567" lon="13.29592"><ele>297.5</ele><time>2026-04-26T08:24:10.524Z</time></trkpt><trkpt lat="43.2423683" lon="13.2958267"><ele>298.0</ele><time>2026-04-26T08:24:11.524Z</time></trkpt><trkpt lat="43.2423517" lon="13.29572"><ele>298.0</ele><time>2026-04-26T08:24:12.525Z</time></trkpt><trkpt lat="43.2423" lon="13.2955933"><ele>298.0</ele><time>2026-04-26T08:24:13.524Z</time></trkpt><trkpt lat="43.2422367" lon="13.2954467"><ele>298.0</ele><time>2026-04-26T08:24:14.524Z</time></trkpt><trkpt lat="43.2421567" lon="13.2952867"><ele>298.0</ele><time>2026-04-26T08:24:15.525Z</time></trkpt><trkpt lat="43.242075" lon="13.2950933"><ele>297.66666666666663</ele><time>2026-04-26T08:24:16.524Z</time></trkpt><trkpt lat="43.2419967" lon="13.2948767"><ele>297.3333333333333</ele><time>2026-04-26T08:24:17.524Z</time></trkpt><trkpt lat="43.2419217" lon="13.2946533"><ele>297.0</ele><time>2026-04-26T08:24:18.525Z</time></trkpt><trkpt lat="43.2418533" lon="13.2944367"><ele>297.0</ele><time>2026-04-26T08:24:19.524Z</time></trkpt><trkpt lat="43.2417917" lon="13.29421"><ele>297.0</ele><time>2026-04-26T08:24:20.524Z</time></trkpt><trkpt lat="43.2417317" lon="13.2939717"><ele>297.0</ele><time>2026-04-26T08:24:21.524Z</time></trkpt><trkpt lat="43.241675" lon="13.293725"><ele>296.3333333333333</ele><time>2026-04-26T08:24:22.524Z</time></trkpt><trkpt lat="43.2416217" lon="13.2934683"><ele>295.66666666666663</ele><time>2026-04-26T08:24:23.524Z</time></trkpt><trkpt lat="43.2415583" lon="13.2932083"><ele>295.0</ele><time>2026-04-26T08:24:24.524Z</time></trkpt><trkpt lat="43.2415017" lon="13.29294"><ele>293.66666666666663</ele><time>2026-04-26T08:24:25.525Z</time></trkpt><trkpt lat="43.2414567" lon="13.292665"><ele>292.3333333333333</ele><time>2026-04-26T08:24:26.524Z</time></trkpt><trkpt lat="43.2414183" lon="13.2923917"><ele>291.0</ele><time>2026-04-26T08:24:27.524Z</time></trkpt><trkpt lat="43.2413867" lon="13.292115"><ele>291.0</ele><time>2026-04-26T08:24:28.524Z</time></trkpt><trkpt lat="43.24136" lon="13.29185"><ele>291.0</ele><time>2026-04-26T08:24:29.524Z</time></trkpt><trkpt lat="43.241325" lon="13.2916"><ele>291.0</ele><time>2026-04-26T08:24:30.524Z</time></trkpt><trkpt lat="43.2412867" lon="13.2913333"><ele>291.0</ele><time>2026-04-26T08:24:31.524Z</time></trkpt><trkpt lat="43.24126" lon="13.2910567"><ele>291.0</ele><time>2026-04-26T08:24:32.525Z</time></trkpt><trkpt lat="43.2412317" lon="13.2907733"><ele>291.0</ele><time>2026-04-26T08:24:33.524Z</time></trkpt><trkpt lat="43.2411983" lon="13.290485"><ele>291.0</ele><time>2026-04-26T08:24:34.525Z</time></trkpt><trkpt lat="43.2411617" lon="13.2902"><ele>291.0</ele><time>2026-04-26T08:24:35.524Z</time></trkpt><trkpt lat="43.2411283" lon="13.2899033"><ele>291.0</ele><time>2026-04-26T08:24:36.524Z</time></trkpt><trkpt lat="43.2410933" lon="13.28962"><ele>291.3333333333333</ele><time>2026-04-26T08:24:37.525Z</time></trkpt><trkpt lat="43.2410583" lon="13.2893317"><ele>291.66666666666663</ele><time>2026-04-26T08:24:38.524Z</time></trkpt><trkpt lat="43.2410383" lon="13.28905"><ele>292.0</ele><time>2026-04-26T08:24:39.525Z</time></trkpt><trkpt lat="43.24101" lon="13.288765"><ele>292.0</ele><time>2026-04-26T08:24:40.524Z</time></trkpt><trkpt lat="43.2409783" lon="13.288485"><ele>292.0</ele><time>2026-04-26T08:24:41.524Z</time></trkpt><trkpt lat="43.2409483" lon="13.2882033"><ele>292.0</ele><time>2026-04-26T08:24:42.524Z</time></trkpt><trkpt lat="43.240915" lon="13.2879133"><ele>292.3333333333333</ele><time>2026-04-26T08:24:43.524Z</time></trkpt><trkpt lat="43.2408817" lon="13.287625"><ele>292.6666666666667</ele><time>2026-04-26T08:24:44.524Z</time></trkpt><trkpt lat="43.24085" lon="13.2873417"><ele>293.0</ele><time>2026-04-26T08:24:45.525Z</time></trkpt><trkpt lat="43.2408067" lon="13.287065"><ele>294.33333333333337</ele><time>2026-04-26T08:24:46.524Z</time></trkpt><trkpt lat="43.2407733" lon="13.2867883"><ele>295.6666666666667</ele><time>2026-04-26T08:24:47.524Z</time></trkpt><trkpt lat="43.24074" lon="13.2864967"><ele>297.0</ele><time>2026-04-26T08:24:48.524Z</time></trkpt><trkpt lat="43.240715" lon="13.286205"><ele>298.3333333333333</ele><time>2026-04-26T08:24:49.524Z</time></trkpt><trkpt lat="43.2406817" lon="13.28593"><ele>299.66666666666663</ele><time>2026-04-26T08:24:50.524Z</time></trkpt><trkpt lat="43.2406583" lon="13.2856583"><ele>301.0</ele><time>2026-04-26T08:24:51.524Z</time></trkpt><trkpt lat="43.240625" lon="13.28539"><ele>302.66666666666663</ele><time>2026-04-26T08:24:52.525Z</time></trkpt><trkpt lat="43.2405933" lon="13.28512"><ele>304.3333333333333</ele><time>2026-04-26T08:24:53.524Z</time></trkpt><trkpt lat="43.2405733" lon="13.284865"><ele>306.0</ele><time>2026-04-26T08:24:54.524Z</time></trkpt><trkpt lat="43.2405533" lon="13.2846217"><ele>308.3333333333333</ele><time>2026-04-26T08:24:55.524Z</time></trkpt><trkpt lat="43.2405317" lon="13.2843933"><ele>310.66666666666663</ele><time>2026-04-26T08:24:56.524Z</time></trkpt><trkpt lat="43.2405067" lon="13.2841783"><ele>313.0</ele><time>2026-04-26T08:24:57.524Z</time></trkpt><trkpt lat="43.2404917" lon="13.2839717"><ele>315.25</ele><time>2026-04-26T08:24:58.524Z</time></trkpt><trkpt lat="43.240465" lon="13.283765"><ele>317.5</ele><time>2026-04-26T08:24:59.524Z</time></trkpt><trkpt lat="43.2404433" lon="13.2835633"><ele>319.75</ele><time>2026-04-26T08:25:00.524Z</time></trkpt><trkpt lat="43.24041" lon="13.2833667"><ele>322.0</ele><time>2026-04-26T08:25:01.524Z</time></trkpt><trkpt lat="43.2403583" lon="13.283175"><ele>324.0</ele><time>2026-04-26T08:25:02.525Z</time></trkpt><trkpt lat="43.2402883" lon="13.2829817"><ele>326.0</ele><time>2026-04-26T08:25:03.524Z</time></trkpt><trkpt lat="43.2402167" lon="13.28278"><ele>328.0</ele><time>2026-04-26T08:25:04.524Z</time></trkpt><trkpt lat="43.240145" lon="13.28258"><ele>328.0</ele><time>2026-04-26T08:25:05.524Z</time></trkpt><trkpt lat="43.240065" lon="13.282365"><ele>328.0</ele><time>2026-04-26T08:25:06.524Z</time></trkpt><trkpt lat="43.23998" lon="13.2821517"><ele>328.0</ele><time>2026-04-26T08:25:07.525Z</time></trkpt><trkpt lat="43.2399017" lon="13.2819217"><ele>327.3333333333333</ele><time>2026-04-26T08:25:08.524Z</time></trkpt><trkpt lat="43.239825" lon="13.2817033"><ele>326.6666666666667</ele><time>2026-04-26T08:25:09.524Z</time></trkpt><trkpt lat="43.239745" lon="13.2814967"><ele>326.0</ele><time>2026-04-26T08:25:10.524Z</time></trkpt><trkpt lat="43.2396567" lon="13.2813133"><ele>328.6666666666667</ele><time>2026-04-26T08:25:11.525Z</time></trkpt><trkpt lat="43.239545" lon="13.2811417"><ele>331.3333333333333</ele><time>2026-04-26T08:25:12.524Z</time></trkpt><trkpt lat="43.2394333" lon="13.280965"><ele>334.0</ele><time>2026-04-26T08:25:13.524Z</time></trkpt><trkpt lat="43.2393233" lon="13.2808"><ele>334.0</ele><time>2026-04-26T08:25:14.524Z</time></trkpt><trkpt lat="43.23921" lon="13.2806283"><ele>334.0</ele><time>2026-04-26T08:25:15.524Z</time></trkpt><trkpt lat="43.23911" lon="13.2804683"><ele>334.0</ele><time>2026-04-26T08:25:16.524Z</time></trkpt><trkpt lat="43.2390133" lon="13.2803167"><ele>334.0</ele><time>2026-04-26T08:25:17.525Z</time></trkpt><trkpt lat="43.2389183" lon="13.2801733"><ele>334.0</ele><time>2026-04-26T08:25:18.524Z</time></trkpt><trkpt lat="43.238825" lon="13.2800217"><ele>334.0</ele><time>2026-04-26T08:25:19.524Z</time></trkpt><trkpt lat="43.23873" lon="13.2798667"><ele>334.0</ele><time>2026-04-26T08:25:20.524Z</time></trkpt><trkpt lat="43.2386167" lon="13.27971"><ele>334.0</ele><time>2026-04-26T08:25:21.524Z</time></trkpt><trkpt lat="43.2384917" lon="13.2795483"><ele>334.0</ele><time>2026-04-26T08:25:22.524Z</time></trkpt><trkpt lat="43.23836" lon="13.2793783"><ele>334.0</ele><time>2026-04-26T08:25:23.525Z</time></trkpt><trkpt lat="43.2382183" lon="13.279205"><ele>335.0</ele><time>2026-04-26T08:25:24.524Z</time></trkpt><trkpt lat="43.2380733" lon="13.2790267"><ele>336.0</ele><time>2026-04-26T08:25:25.524Z</time></trkpt><trkpt lat="43.2379383" lon="13.2788417"><ele>337.0</ele><time>2026-04-26T08:25:26.524Z</time></trkpt><trkpt lat="43.2378033" lon="13.278655"><ele>337.0</ele><time>2026-04-26T08:25:27.524Z</time></trkpt><trkpt lat="43.2376717" lon="13.2784567"><ele>337.0</ele><time>2026-04-26T08:25:28.525Z</time></trkpt><trkpt lat="43.23755" lon="13.27825"><ele>337.0</ele><time>2026-04-26T08:25:29.524Z</time></trkpt><trkpt lat="43.2374267" lon="13.2780483"><ele>337.66666666666663</ele><time>2026-04-26T08:25:30.524Z</time></trkpt><trkpt lat="43.2373083" lon="13.277845"><ele>338.3333333333333</ele><time>2026-04-26T08:25:31.524Z</time></trkpt><trkpt lat="43.2371883" lon="13.2776633"><ele>339.0</ele><time>2026-04-26T08:25:32.525Z</time></trkpt><trkpt lat="43.2370783" lon="13.2775017"><ele>339.6666666666667</ele><time>2026-04-26T08:25:33.525Z</time></trkpt><trkpt lat="43.2369733" lon="13.2773533"><ele>340.33333333333337</ele><time>2026-04-26T08:25:34.524Z</time></trkpt><trkpt lat="43.23686" lon="13.27723"><ele>341.0</ele><time>2026-04-26T08:25:35.524Z</time></trkpt><trkpt lat="43.2367233" lon="13.2771267"><ele>341.6666666666667</ele><time>2026-04-26T08:25:36.525Z</time></trkpt><trkpt lat="43.2365783" lon="13.2770383"><ele>342.3333333333333</ele><time>2026-04-26T08:25:37.524Z</time></trkpt><trkpt lat="43.236425" lon="13.2769633"><ele>343.0</ele><time>2026-04-26T08:25:38.524Z</time></trkpt><trkpt lat="43.2362633" lon="13.27689"><ele>344.66666666666663</ele><time>2026-04-26T08:25:39.524Z</time></trkpt><trkpt lat="43.2361017" lon="13.276825"><ele>346.3333333333333</ele><time>2026-04-26T08:25:40.525Z</time></trkpt><trkpt lat="43.23596" lon="13.2767567"><ele>348.0</ele><time>2026-04-26T08:25:41.524Z</time></trkpt><trkpt lat="43.2358267" lon="13.276695"><ele>348.0</ele><time>2026-04-26T08:25:42.524Z</time></trkpt><trkpt lat="43.2357" lon="13.2766433"><ele>348.0</ele><time>2026-04-26T08:25:43.524Z</time></trkpt><trkpt lat="43.2355683" lon="13.2766033"><ele>348.0</ele><time>2026-04-26T08:25:44.524Z</time></trkpt><trkpt lat="43.2354333" lon="13.2765883"><ele>348.0</ele><time>2026-04-26T08:25:45.524Z</time></trkpt><trkpt lat="43.2352967" lon="13.2766033"><ele>348.0</ele><time>2026-04-26T08:25:46.524Z</time></trkpt><trkpt lat="43.2351667" lon="13.27659"><ele>348.0</ele><time>2026-04-26T08:25:47.525Z</time></trkpt><trkpt lat="43.2350467" lon="13.276545"><ele>348.0</ele><time>2026-04-26T08:25:48.524Z</time></trkpt><trkpt lat="43.2349233" lon="13.276485"><ele>348.0</ele><time>2026-04-26T08:25:49.525Z</time></trkpt><trkpt lat="43.2347983" lon="13.2764367"><ele>351.75</ele><time>2026-04-26T08:25:50.525Z</time></trkpt><trkpt lat="43.234665" lon="13.2764133"><ele>355.5</ele><time>2026-04-26T08:25:51.524Z</time></trkpt><trkpt lat="43.234535" lon="13.2764017"><ele>359.25</ele><time>2026-04-26T08:25:52.525Z</time></trkpt><trkpt lat="43.2344033" lon="13.2763883"><ele>363.0</ele><time>2026-04-26T08:25:53.524Z</time></trkpt><trkpt lat="43.2342867" lon="13.2763817"><ele>363.0</ele><time>2026-04-26T08:25:54.524Z</time></trkpt><trkpt lat="43.2341867" lon="13.27637"><ele>363.0</ele><time>2026-04-26T08:25:55.524Z</time></trkpt><trkpt lat="43.2341033" lon="13.2763583"><ele>363.0</ele><time>2026-04-26T08:25:56.525Z</time></trkpt><trkpt lat="43.2340267" lon="13.2763483"><ele>363.0</ele><time>2026-04-26T08:25:57.524Z</time></trkpt><trkpt lat="43.233915" lon="13.27638"><ele>363.0</ele><time>2026-04-26T08:25:59.524Z</time></trkpt><trkpt lat="43.233795" lon="13.2764633"><ele>363.0</ele><time>2026-04-26T08:26:01.524Z</time></trkpt><trkpt lat="43.2337233" lon="13.2764883"><ele>363.0</ele><time>2026-04-26T08:26:02.524Z</time></trkpt><trkpt lat="43.233645" lon="13.2764933"><ele>363.0</ele><time>2026-04-26T08:26:03.524Z</time></trkpt><trkpt lat="43.233565" lon="13.2764717"><ele>363.0</ele><time>2026-04-26T08:26:04.524Z</time></trkpt><trkpt lat="43.2334767" lon="13.2764233"><ele>363.0</ele><time>2026-04-26T08:26:05.524Z</time></trkpt><trkpt lat="43.2333733" lon="13.2763533"><ele>363.0</ele><time>2026-04-26T08:26:06.524Z</time></trkpt><trkpt lat="43.23327" lon="13.27626"><ele>363.0</ele><time>2026-04-26T08:26:07.524Z</time></trkpt><trkpt lat="43.2331583" lon="13.27617"><ele>363.0</ele><time>2026-04-26T08:26:08.524Z</time></trkpt><trkpt lat="43.2330417" lon="13.2760767"><ele>363.0</ele><time>2026-04-26T08:26:09.525Z</time></trkpt><trkpt lat="43.2329383" lon="13.275995"><ele>363.0</ele><time>2026-04-26T08:26:10.524Z</time></trkpt><trkpt lat="43.2328417" lon="13.2759183"><ele>362.79999999999995</ele><time>2026-04-26T08:26:11.524Z</time></trkpt><trkpt lat="43.232755" lon="13.2758533"><ele>362.6</ele><time>2026-04-26T08:26:12.524Z</time></trkpt><trkpt lat="43.2326783" lon="13.2757967"><ele>362.4</ele><time>2026-04-26T08:26:13.524Z</time></trkpt><trkpt lat="43.2326067" lon="13.2757233"><ele>362.20000000000005</ele><time>2026-04-26T08:26:14.524Z</time></trkpt><trkpt lat="43.23254" lon="13.2756333"><ele>362.0</ele><time>2026-04-26T08:26:15.524Z</time></trkpt><trkpt lat="43.232485" lon="13.2755283"><ele>362.0</ele><time>2026-04-26T08:26:16.524Z</time></trkpt><trkpt lat="43.2324467" lon="13.27542"><ele>362.0</ele><time>2026-04-26T08:26:17.524Z</time></trkpt><trkpt lat="43.2323933" lon="13.2753167"><ele>362.0</ele><time>2026-04-26T08:26:18.524Z</time></trkpt><trkpt lat="43.2323283" lon="13.2752317"><ele>362.0</ele><time>2026-04-26T08:26:19.524Z</time></trkpt><trkpt lat="43.2322383" lon="13.275155"><ele>362.0</ele><time>2026-04-26T08:26:20.525Z</time></trkpt><trkpt lat="43.232135" lon="13.2750717"><ele>362.40000000000003</ele><time>2026-04-26T08:26:21.524Z</time></trkpt><trkpt lat="43.2320183" lon="13.2750033"><ele>362.8</ele><time>2026-04-26T08:26:22.524Z</time></trkpt><trkpt lat="43.2319183" lon="13.2749467"><ele>363.2</ele><time>2026-04-26T08:26:23.524Z</time></trkpt><trkpt lat="43.2318233" lon="13.274885"><ele>363.6</ele><time>2026-04-26T08:26:24.524Z</time></trkpt><trkpt lat="43.2317617" lon="13.274795"><ele>364.0</ele><time>2026-04-26T08:26:25.524Z</time></trkpt><trkpt lat="43.2317183" lon="13.274695"><ele>364.0</ele><time>2026-04-26T08:26:26.525Z</time></trkpt><trkpt lat="43.23167" lon="13.2746"><ele>364.0</ele><time>2026-04-26T08:26:27.524Z</time></trkpt><trkpt lat="43.23161" lon="13.27452"><ele>364.0</ele><time>2026-04-26T08:26:28.524Z</time></trkpt><trkpt lat="43.2315333" lon="13.274455"><ele>364.0</ele><time>2026-04-26T08:26:29.525Z</time></trkpt><trkpt lat="43.2314467" lon="13.274425"><ele>364.0</ele><time>2026-04-26T08:26:30.525Z</time></trkpt><trkpt lat="43.2313417" lon="13.274405"><ele>362.79999999999995</ele><time>2026-04-26T08:26:31.524Z</time></trkpt><trkpt lat="43.2312383" lon="13.27439"><ele>361.59999999999997</ele><time>2026-04-26T08:26:32.524Z</time></trkpt><trkpt lat="43.2311433" lon="13.2743833"><ele>360.4</ele><time>2026-04-26T08:26:33.525Z</time></trkpt><trkpt lat="43.2310333" lon="13.2743817"><ele>359.2</ele><time>2026-04-26T08:26:34.524Z</time></trkpt><trkpt lat="43.2309233" lon="13.2743717"><ele>358.0</ele><time>2026-04-26T08:26:35.524Z</time></trkpt><trkpt lat="43.23081" lon="13.2743817"><ele>358.0</ele><time>2026-04-26T08:26:36.524Z</time></trkpt><trkpt lat="43.23069" lon="13.2744033"><ele>358.0</ele><time>2026-04-26T08:26:37.524Z</time></trkpt><trkpt lat="43.2305733" lon="13.2744417"><ele>358.0</ele><time>2026-04-26T08:26:38.524Z</time></trkpt><trkpt lat="43.23046" lon="13.2745"><ele>358.0</ele><time>2026-04-26T08:26:39.524Z</time></trkpt><trkpt lat="43.23035" lon="13.2745833"><ele>355.5</ele><time>2026-04-26T08:26:40.524Z</time></trkpt><trkpt lat="43.2302417" lon="13.274705"><ele>353.0</ele><time>2026-04-26T08:26:41.524Z</time></trkpt><trkpt lat="43.230135" lon="13.2748383"><ele>350.5</ele><time>2026-04-26T08:26:42.524Z</time></trkpt><trkpt lat="43.2300283" lon="13.27499"><ele>348.0</ele><time>2026-04-26T08:26:43.524Z</time></trkpt><trkpt lat="43.2299117" lon="13.2751483"><ele>346.3333333333333</ele><time>2026-04-26T08:26:44.524Z</time></trkpt><trkpt lat="43.2297967" lon="13.2753017"><ele>344.66666666666663</ele><time>2026-04-26T08:26:45.524Z</time></trkpt><trkpt lat="43.2296717" lon="13.275455"><ele>343.0</ele><time>2026-04-26T08:26:46.524Z</time></trkpt><trkpt lat="43.2295383" lon="13.2755983"><ele>344.0</ele><time>2026-04-26T08:26:47.524Z</time></trkpt><trkpt lat="43.229395" lon="13.2757233"><ele>345.0</ele><time>2026-04-26T08:26:48.524Z</time></trkpt><trkpt lat="43.2292467" lon="13.2758483"><ele>346.0</ele><time>2026-04-26T08:26:49.524Z</time></trkpt><trkpt lat="43.2290967" lon="13.27597"><ele>346.66666666666663</ele><time>2026-04-26T08:26:50.524Z</time></trkpt><trkpt lat="43.228945" lon="13.276095"><ele>347.3333333333333</ele><time>2026-04-26T08:26:51.524Z</time></trkpt><trkpt lat="43.2287983" lon="13.2762217"><ele>348.0</ele><time>2026-04-26T08:26:52.524Z</time></trkpt><trkpt lat="43.2286517" lon="13.27635"><ele>349.0</ele><time>2026-04-26T08:26:53.524Z</time></trkpt><trkpt lat="43.2285117" lon="13.2764733"><ele>350.0</ele><time>2026-04-26T08:26:54.524Z</time></trkpt><trkpt lat="43.2283867" lon="13.2765883"><ele>351.0</ele><time>2026-04-26T08:26:55.525Z</time></trkpt><trkpt lat="43.2282733" lon="13.2766817"><ele>352.0</ele><time>2026-04-26T08:26:56.525Z</time></trkpt><trkpt lat="43.228165" lon="13.27674"><ele>351.8333333333333</ele><time>2026-04-26T08:26:57.524Z</time></trkpt><trkpt lat="43.2280683" lon="13.2767617"><ele>351.66666666666663</ele><time>2026-04-26T08:26:58.524Z</time></trkpt><trkpt lat="43.22798" lon="13.276745"><ele>351.5</ele><time>2026-04-26T08:26:59.524Z</time></trkpt><trkpt lat="43.2279083" lon="13.2766933"><ele>351.3333333333333</ele><time>2026-04-26T08:27:00.524Z</time></trkpt><trkpt lat="43.2278433" lon="13.2766233"><ele>351.1666666666667</ele><time>2026-04-26T08:27:01.524Z</time></trkpt><trkpt lat="43.2277883" lon="13.2765267"><ele>351.0</ele><time>2026-04-26T08:27:02.524Z</time></trkpt><trkpt lat="43.22773" lon="13.2764217"><ele>350.25</ele><time>2026-04-26T08:27:03.524Z</time></trkpt><trkpt lat="43.22767" lon="13.2762917"><ele>349.5</ele><time>2026-04-26T08:27:04.525Z</time></trkpt><trkpt lat="43.227605" lon="13.2761533"><ele>348.75</ele><time>2026-04-26T08:27:05.525Z</time></trkpt><trkpt lat="43.227535" lon="13.27601"><ele>348.0</ele><time>2026-04-26T08:27:06.524Z</time></trkpt><trkpt lat="43.227455" lon="13.2758583"><ele>348.0</ele><time>2026-04-26T08:27:07.524Z</time></trkpt><trkpt lat="43.2273767" lon="13.2757067"><ele>348.0</ele><time>2026-04-26T08:27:08.525Z</time></trkpt><trkpt lat="43.22729" lon="13.27556"><ele>348.0</ele><time>2026-04-26T08:27:09.525Z</time></trkpt><trkpt lat="43.22721" lon="13.2754167"><ele>348.0</ele><time>2026-04-26T08:27:10.524Z</time></trkpt><trkpt lat="43.2271283" lon="13.2752867"><ele>346.0</ele><time>2026-04-26T08:27:11.525Z</time></trkpt><trkpt lat="43.22704" lon="13.27516"><ele>344.0</ele><time>2026-04-26T08:27:12.525Z</time></trkpt><trkpt lat="43.2269383" lon="13.2750483"><ele>342.0</ele><time>2026-04-26T08:27:13.524Z</time></trkpt><trkpt lat="43.2268167" lon="13.274945"><ele>340.0</ele><time>2026-04-26T08:27:14.524Z</time></trkpt><trkpt lat="43.2267" lon="13.2748483"><ele>339.75</ele><time>2026-04-26T08:27:15.524Z</time></trkpt><trkpt lat="43.2265783" lon="13.2747633"><ele>339.5</ele><time>2026-04-26T08:27:16.525Z</time></trkpt><trkpt lat="43.2264567" lon="13.2746933"><ele>339.25</ele><time>2026-04-26T08:27:17.524Z</time></trkpt><trkpt lat="43.2263367" lon="13.274635"><ele>339.0</ele><time>2026-04-26T08:27:18.524Z</time></trkpt><trkpt lat="43.2262" lon="13.2745933"><ele>338.6666666666667</ele><time>2026-04-26T08:27:19.524Z</time></trkpt><trkpt lat="43.2260467" lon="13.274575"><ele>338.33333333333337</ele><time>2026-04-26T08:27:20.524Z</time></trkpt><trkpt lat="43.2258983" lon="13.274565"><ele>338.0</ele><time>2026-04-26T08:27:21.524Z</time></trkpt><trkpt lat="43.22575" lon="13.2745433"><ele>335.5</ele><time>2026-04-26T08:27:22.524Z</time></trkpt><trkpt lat="43.2256083" lon="13.2744983"><ele>333.0</ele><time>2026-04-26T08:27:23.524Z</time></trkpt><trkpt lat="43.2254833" lon="13.27445"><ele>330.5</ele><time>2026-04-26T08:27:24.524Z</time></trkpt><trkpt lat="43.2253517" lon="13.2744"><ele>328.0</ele><time>2026-04-26T08:27:25.524Z</time></trkpt><trkpt lat="43.2252233" lon="13.27435"><ele>328.0</ele><time>2026-04-26T08:27:26.524Z</time></trkpt><trkpt lat="43.2251" lon="13.2743117"><ele>328.0</ele><time>2026-04-26T08:27:27.524Z</time></trkpt><trkpt lat="43.2249683" lon="13.2743"><ele>328.0</ele><time>2026-04-26T08:27:28.524Z</time></trkpt><trkpt lat="43.22484" lon="13.27431"><ele>328.0</ele><time>2026-04-26T08:27:29.525Z</time></trkpt><trkpt lat="43.2247083" lon="13.2743383"><ele>327.25</ele><time>2026-04-26T08:27:30.525Z</time></trkpt><trkpt lat="43.2245717" lon="13.2743917"><ele>326.5</ele><time>2026-04-26T08:27:31.524Z</time></trkpt><trkpt lat="43.2244383" lon="13.2744617"><ele>325.75</ele><time>2026-04-26T08:27:32.524Z</time></trkpt><trkpt lat="43.224315" lon="13.2745433"><ele>325.0</ele><time>2026-04-26T08:27:33.525Z</time></trkpt><trkpt lat="43.2242017" lon="13.2746267"><ele>325.0</ele><time>2026-04-26T08:27:34.524Z</time></trkpt><trkpt lat="43.224095" lon="13.2746983"><ele>325.0</ele><time>2026-04-26T08:27:35.524Z</time></trkpt><trkpt lat="43.22399" lon="13.2747517"><ele>325.0</ele><time>2026-04-26T08:27:36.524Z</time></trkpt><trkpt lat="43.223875" lon="13.274785"><ele>325.0</ele><time>2026-04-26T08:27:37.524Z</time></trkpt><trkpt lat="43.2237617" lon="13.2747967"><ele>324.0</ele><time>2026-04-26T08:27:38.524Z</time></trkpt><trkpt lat="43.22364" lon="13.2747833"><ele>323.0</ele><time>2026-04-26T08:27:39.524Z</time></trkpt><trkpt lat="43.2235067" lon="13.2747633"><ele>322.0</ele><time>2026-04-26T08:27:40.524Z</time></trkpt><trkpt lat="43.2233683" lon="13.27473"><ele>321.0</ele><time>2026-04-26T08:27:41.524Z</time></trkpt><trkpt lat="43.223235" lon="13.2746967"><ele>317.25</ele><time>2026-04-26T08:27:42.524Z</time></trkpt><trkpt lat="43.2231017" lon="13.2746767"><ele>313.5</ele><time>2026-04-26T08:27:43.524Z</time></trkpt><trkpt lat="43.2229583" lon="13.274665"><ele>309.75</ele><time>2026-04-26T08:27:44.524Z</time></trkpt><trkpt lat="43.2228033" lon="13.2746583"><ele>306.0</ele><time>2026-04-26T08:27:45.524Z</time></trkpt><trkpt lat="43.2226483" lon="13.2746467"><ele>306.0</ele><time>2026-04-26T08:27:46.524Z</time></trkpt><trkpt lat="43.222495" lon="13.2746233"><ele>306.0</ele><time>2026-04-26T08:27:47.524Z</time></trkpt><trkpt lat="43.2223467" lon="13.274595"><ele>306.0</ele><time>2026-04-26T08:27:48.524Z</time></trkpt><trkpt lat="43.2221983" lon="13.2745583"><ele>303.25</ele><time>2026-04-26T08:27:49.524Z</time></trkpt><trkpt lat="43.2220567" lon="13.2745317"><ele>300.5</ele><time>2026-04-26T08:27:50.524Z</time></trkpt><trkpt lat="43.2219233" lon="13.2745183"><ele>297.75</ele><time>2026-04-26T08:27:51.524Z</time></trkpt><trkpt lat="43.2217867" lon="13.2745317"><ele>295.0</ele><time>2026-04-26T08:27:52.524Z</time></trkpt><trkpt lat="43.2216533" lon="13.27458"><ele>295.0</ele><time>2026-04-26T08:27:53.524Z</time></trkpt><trkpt lat="43.2215167" lon="13.2746383"><ele>295.0</ele><time>2026-04-26T08:27:54.524Z</time></trkpt><trkpt lat="43.2213817" lon="13.2747083"><ele>295.0</ele><time>2026-04-26T08:27:55.525Z</time></trkpt><trkpt lat="43.2212617" lon="13.2747983"><ele>295.0</ele><time>2026-04-26T08:27:56.524Z</time></trkpt><trkpt lat="43.2211533" lon="13.274885"><ele>294.0</ele><time>2026-04-26T08:27:57.524Z</time></trkpt><trkpt lat="43.2210533" lon="13.2749733"><ele>293.0</ele><time>2026-04-26T08:27:58.524Z</time></trkpt><trkpt lat="43.2209767" lon="13.27505"><ele>292.0</ele><time>2026-04-26T08:27:59.524Z</time></trkpt><trkpt lat="43.220925" lon="13.2751483"><ele>291.0</ele><time>2026-04-26T08:28:00.524Z</time></trkpt><trkpt lat="43.2208967" lon="13.2752633"><ele>290.0</ele><time>2026-04-26T08:28:01.524Z</time></trkpt><trkpt lat="43.2208967" lon="13.2753867"><ele>290.0</ele><time>2026-04-26T08:28:02.524Z</time></trkpt><trkpt lat="43.2209283" lon="13.275505"><ele>290.0</ele><time>2026-04-26T08:28:03.524Z</time></trkpt><trkpt lat="43.22099" lon="13.27562"><ele>290.0</ele><time>2026-04-26T08:28:04.524Z</time></trkpt><trkpt lat="43.2210817" lon="13.27572"><ele>290.0</ele><time>2026-04-26T08:28:05.524Z</time></trkpt><trkpt lat="43.2211867" lon="13.2758267"><ele>290.0</ele><time>2026-04-26T08:28:06.524Z</time></trkpt><trkpt lat="43.221295" lon="13.27593"><ele>289.8</ele><time>2026-04-26T08:28:07.524Z</time></trkpt><trkpt lat="43.2213917" lon="13.2760333"><ele>289.6</ele><time>2026-04-26T08:28:08.524Z</time></trkpt><trkpt lat="43.2214633" lon="13.2761283"><ele>289.4</ele><time>2026-04-26T08:28:09.524Z</time></trkpt><trkpt lat="43.22151" lon="13.27623"><ele>289.2</ele><time>2026-04-26T08:28:10.524Z</time></trkpt><trkpt lat="43.221525" lon="13.2763367"><ele>289.0</ele><time>2026-04-26T08:28:11.524Z</time></trkpt><trkpt lat="43.2215133" lon="13.2764433"><ele>286.2</ele><time>2026-04-26T08:28:12.524Z</time></trkpt><trkpt lat="43.22147" lon="13.2765467"><ele>283.4</ele><time>2026-04-26T08:28:13.524Z</time></trkpt><trkpt lat="43.2213933" lon="13.276635"><ele>280.6</ele><time>2026-04-26T08:28:14.524Z</time></trkpt><trkpt lat="43.2212867" lon="13.2766917"><ele>277.8</ele><time>2026-04-26T08:28:15.524Z</time></trkpt><trkpt lat="43.22116" lon="13.276705"><ele>275.0</ele><time>2026-04-26T08:28:16.524Z</time></trkpt><trkpt lat="43.2210233" lon="13.276725"><ele>275.0</ele><time>2026-04-26T08:28:17.525Z</time></trkpt><trkpt lat="43.22088" lon="13.276755"><ele>275.0</ele><time>2026-04-26T08:28:18.524Z</time></trkpt><trkpt lat="43.2207283" lon="13.2767917"><ele>275.0</ele><time>2026-04-26T08:28:19.524Z</time></trkpt><trkpt lat="43.22057" lon="13.2768333"><ele>272.6666666666667</ele><time>2026-04-26T08:28:20.525Z</time></trkpt><trkpt lat="43.2204083" lon="13.27687"><ele>270.3333333333333</ele><time>2026-04-26T08:28:21.524Z</time></trkpt><trkpt lat="43.2202483" lon="13.276895"><ele>268.0</ele><time>2026-04-26T08:28:22.525Z</time></trkpt><trkpt lat="43.2200983" lon="13.27691"><ele>268.0</ele><time>2026-04-26T08:28:23.524Z</time></trkpt><trkpt lat="43.21994" lon="13.2769017"><ele>268.0</ele><time>2026-04-26T08:28:24.524Z</time></trkpt><trkpt lat="43.2197767" lon="13.2768817"><ele>268.0</ele><time>2026-04-26T08:28:25.524Z</time></trkpt><trkpt lat="43.2195983" lon="13.2768567"><ele>265.66666666666663</ele><time>2026-04-26T08:28:26.525Z</time></trkpt><trkpt lat="43.2194217" lon="13.27683"><ele>263.3333333333333</ele><time>2026-04-26T08:28:27.524Z</time></trkpt><trkpt lat="43.2192417" lon="13.2768067"><ele>261.0</ele><time>2026-04-26T08:28:28.524Z</time></trkpt><trkpt lat="43.2190733" lon="13.276785"><ele>259.3333333333333</ele><time>2026-04-26T08:28:29.524Z</time></trkpt><trkpt lat="43.218915" lon="13.2767717"><ele>257.66666666666663</ele><time>2026-04-26T08:28:30.524Z</time></trkpt><trkpt lat="43.2187533" lon="13.276755"><ele>256.0</ele><time>2026-04-26T08:28:31.524Z</time></trkpt><trkpt lat="43.2185983" lon="13.2767383"><ele>256.0</ele><time>2026-04-26T08:28:32.524Z</time></trkpt><trkpt lat="43.2184417" lon="13.2767267"><ele>256.0</ele><time>2026-04-26T08:28:33.525Z</time></trkpt><trkpt lat="43.2182783" lon="13.2767167"><ele>256.0</ele><time>2026-04-26T08:28:34.524Z</time></trkpt><trkpt lat="43.218115" lon="13.27672"><ele>253.66666666666666</ele><time>2026-04-26T08:28:35.524Z</time></trkpt><trkpt lat="43.2179383" lon="13.276745"><ele>251.33333333333331</ele><time>2026-04-26T08:28:36.524Z</time></trkpt><trkpt lat="43.2177667" lon="13.2767783"><ele>249.0</ele><time>2026-04-26T08:28:37.524Z</time></trkpt><trkpt lat="43.2176033" lon="13.2768067"><ele>249.0</ele><time>2026-04-26T08:28:38.524Z</time></trkpt><trkpt lat="43.2174483" lon="13.276855"><ele>249.0</ele><time>2026-04-26T08:28:39.524Z</time></trkpt><trkpt lat="43.2173033" lon="13.2769017"><ele>249.0</ele><time>2026-04-26T08:28:40.524Z</time></trkpt><trkpt lat="43.2171683" lon="13.27696"><ele>249.0</ele><time>2026-04-26T08:28:41.525Z</time></trkpt><trkpt lat="43.2170483" lon="13.277035"><ele>248.5</ele><time>2026-04-26T08:28:42.524Z</time></trkpt><trkpt lat="43.2169333" lon="13.27712"><ele>248.0</ele><time>2026-04-26T08:28:43.524Z</time></trkpt><trkpt lat="43.216815" lon="13.2771967"><ele>247.5</ele><time>2026-04-26T08:28:44.524Z</time></trkpt><trkpt lat="43.2166967" lon="13.27728"><ele>247.0</ele><time>2026-04-26T08:28:45.524Z</time></trkpt><trkpt lat="43.2165783" lon="13.2773567"><ele>246.0</ele><time>2026-04-26T08:28:46.524Z</time></trkpt><trkpt lat="43.2164633" lon="13.2774317"><ele>245.0</ele><time>2026-04-26T08:28:47.524Z</time></trkpt><trkpt lat="43.2163583" lon="13.2774983"><ele>244.0</ele><time>2026-04-26T08:28:48.525Z</time></trkpt><trkpt lat="43.21627" lon="13.27756"><ele>243.0</ele><time>2026-04-26T08:28:49.525Z</time></trkpt><trkpt lat="43.2161817" lon="13.27764"><ele>242.0</ele><time>2026-04-26T08:28:50.524Z</time></trkpt><trkpt lat="43.2160967" lon="13.2776983"><ele>242.00000000000003</ele><time>2026-04-26T08:28:51.524Z</time></trkpt><trkpt lat="43.2160133" lon="13.2777483"><ele>242.0</ele><time>2026-04-26T08:28:52.524Z</time></trkpt><trkpt lat="43.2159317" lon="13.2777933"><ele>242.0</ele><time>2026-04-26T08:28:53.524Z</time></trkpt><trkpt lat="43.21586" lon="13.2778217"><ele>242.0</ele><time>2026-04-26T08:28:54.525Z</time></trkpt><trkpt lat="43.2157383" lon="13.277815"><ele>242.00000000000003</ele><time>2026-04-26T08:28:56.524Z</time></trkpt><trkpt lat="43.2156733" lon="13.2777733"><ele>242.0</ele><time>2026-04-26T08:28:57.524Z</time></trkpt><trkpt lat="43.215605" lon="13.2777333"><ele>241.14285714285714</ele><time>2026-04-26T08:28:58.525Z</time></trkpt><trkpt lat="43.2155383" lon="13.2776917"><ele>240.28571428571428</ele><time>2026-04-26T08:28:59.525Z</time></trkpt><trkpt lat="43.215475" lon="13.2776717"><ele>239.42857142857142</ele><time>2026-04-26T08:29:00.524Z</time></trkpt><trkpt lat="43.2154067" lon="13.2776817"><ele>238.57142857142856</ele><time>2026-04-26T08:29:01.524Z</time></trkpt><trkpt lat="43.2153417" lon="13.27772"><ele>237.71428571428572</ele><time>2026-04-26T08:29:02.524Z</time></trkpt><trkpt lat="43.2152783" lon="13.2777817"><ele>236.85714285714283</ele><time>2026-04-26T08:29:03.524Z</time></trkpt><trkpt lat="43.215215" lon="13.2778483"><ele>236.0</ele><time>2026-04-26T08:29:04.525Z</time></trkpt><trkpt lat="43.2151517" lon="13.277915"><ele>236.0</ele><time>2026-04-26T08:29:05.525Z</time></trkpt><trkpt lat="43.2150883" lon="13.2779767"><ele>236.0</ele><time>2026-04-26T08:29:06.525Z</time></trkpt><trkpt lat="43.2150283" lon="13.2780283"><ele>236.0</ele><time>2026-04-26T08:29:07.524Z</time></trkpt><trkpt lat="43.21497" lon="13.2780783"><ele>236.0</ele><time>2026-04-26T08:29:08.525Z</time></trkpt><trkpt lat="43.2149117" lon="13.278125"><ele>236.0</ele><time>2026-04-26T08:29:09.524Z</time></trkpt><trkpt lat="43.2148533" lon="13.27817"><ele>236.0</ele><time>2026-04-26T08:29:10.524Z</time></trkpt><trkpt lat="43.2147967" lon="13.2782167"><ele>236.0</ele><time>2026-04-26T08:29:11.524Z</time></trkpt><trkpt lat="43.21474" lon="13.278255"><ele>234.0</ele><time>2026-04-26T08:29:12.524Z</time></trkpt><trkpt lat="43.2146317" lon="13.2783133"><ele>232.0</ele><time>2026-04-26T08:29:14.524Z</time></trkpt><trkpt lat="43.2145283" lon="13.27838"><ele>230.0</ele><time>2026-04-26T08:29:16.524Z</time></trkpt><trkpt lat="43.2144117" lon="13.2784167"><ele>228.0</ele><time>2026-04-26T08:29:18.524Z</time></trkpt><trkpt lat="43.2143" lon="13.2784383"><ele>228.0</ele><time>2026-04-26T08:29:20.524Z</time></trkpt><trkpt lat="43.214205" lon="13.2785167"><ele>228.0</ele><time>2026-04-26T08:29:22.524Z</time></trkpt><trkpt lat="43.2141517" lon="13.278575"><ele>228.0</ele><time>2026-04-26T08:29:23.524Z</time></trkpt><trkpt lat="43.214095" lon="13.2786383"><ele>228.0</ele><time>2026-04-26T08:29:24.524Z</time></trkpt><trkpt lat="43.2140283" lon="13.2787"><ele>228.0</ele><time>2026-04-26T08:29:25.524Z</time></trkpt><trkpt lat="43.2139667" lon="13.2787467"><ele>228.0</ele><time>2026-04-26T08:29:26.525Z</time></trkpt><trkpt lat="43.2139" lon="13.278785"><ele>227.66666666666666</ele><time>2026-04-26T08:29:27.525Z</time></trkpt><trkpt lat="43.2138233" lon="13.2788267"><ele>227.33333333333331</ele><time>2026-04-26T08:29:28.524Z</time></trkpt><trkpt lat="43.2137417" lon="13.278865"><ele>227.0</ele><time>2026-04-26T08:29:29.525Z</time></trkpt><trkpt lat="43.2136583" lon="13.2788933"><ele>226.66666666666666</ele><time>2026-04-26T08:29:30.524Z</time></trkpt><trkpt lat="43.2135867" lon="13.2789317"><ele>226.33333333333331</ele><time>2026-04-26T08:29:31.525Z</time></trkpt><trkpt lat="43.2135183" lon="13.2789667"><ele>226.0</ele><time>2026-04-26T08:29:32.524Z</time></trkpt><trkpt lat="43.2134467" lon="13.2790083"><ele>225.99999999999997</ele><time>2026-04-26T08:29:33.524Z</time></trkpt><trkpt lat="43.2133767" lon="13.279045"><ele>226.0</ele><time>2026-04-26T08:29:34.524Z</time></trkpt><trkpt lat="43.2133083" lon="13.2790817"><ele>226.0</ele><time>2026-04-26T08:29:35.524Z</time></trkpt><trkpt lat="43.2132433" lon="13.2791183"><ele>226.0</ele><time>2026-04-26T08:29:36.524Z</time></trkpt><trkpt lat="43.2131833" lon="13.279145"><ele>225.99999999999997</ele><time>2026-04-26T08:29:37.524Z</time></trkpt><trkpt lat="43.213065" lon="13.2791983"><ele>226.0</ele><time>2026-04-26T08:29:39.525Z</time></trkpt><trkpt lat="43.2129983" lon="13.279235"><ele>225.49999999999997</ele><time>2026-04-26T08:29:40.524Z</time></trkpt><trkpt lat="43.2129283" lon="13.2792667"><ele>225.0</ele><time>2026-04-26T08:29:41.524Z</time></trkpt><trkpt lat="43.2128383" lon="13.2793"><ele>224.5</ele><time>2026-04-26T08:29:42.524Z</time></trkpt><trkpt lat="43.212755" lon="13.2793383"><ele>224.0</ele><time>2026-04-26T08:29:43.524Z</time></trkpt><trkpt lat="43.2126733" lon="13.2793717"><ele>223.49999999999997</ele><time>2026-04-26T08:29:44.524Z</time></trkpt><trkpt lat="43.2125933" lon="13.2794017"><ele>223.0</ele><time>2026-04-26T08:29:45.525Z</time></trkpt><trkpt lat="43.212505" lon="13.2794267"><ele>222.99999999999997</ele><time>2026-04-26T08:29:46.524Z</time></trkpt><trkpt lat="43.2124267" lon="13.2794583"><ele>223.0</ele><time>2026-04-26T08:29:47.524Z</time></trkpt><trkpt lat="43.21235" lon="13.2794933"><ele>223.0</ele><time>2026-04-26T08:29:48.524Z</time></trkpt><trkpt lat="43.2122683" lon="13.2795383"><ele>223.0</ele><time>2026-04-26T08:29:49.524Z</time></trkpt><trkpt lat="43.21219" lon="13.2795867"><ele>222.99999999999997</ele><time>2026-04-26T08:29:50.524Z</time></trkpt><trkpt lat="43.212105" lon="13.2796283"><ele>223.0</ele><time>2026-04-26T08:29:51.524Z</time></trkpt><trkpt lat="43.2120233" lon="13.2796667"><ele>221.8</ele><time>2026-04-26T08:29:52.524Z</time></trkpt><trkpt lat="43.21194" lon="13.2797"><ele>220.60000000000002</ele><time>2026-04-26T08:29:53.525Z</time></trkpt><trkpt lat="43.2118517" lon="13.2797333"><ele>219.39999999999998</ele><time>2026-04-26T08:29:54.524Z</time></trkpt><trkpt lat="43.2117617" lon="13.27977"><ele>218.2</ele><time>2026-04-26T08:29:55.524Z</time></trkpt><trkpt lat="43.21167" lon="13.2797933"><ele>217.0</ele><time>2026-04-26T08:29:56.524Z</time></trkpt><trkpt lat="43.2115717" lon="13.2798167"><ele>218.5</ele><time>2026-04-26T08:29:57.524Z</time></trkpt><trkpt lat="43.2114717" lon="13.27984"><ele>220.0</ele><time>2026-04-26T08:29:58.524Z</time></trkpt><trkpt lat="43.21136" lon="13.2798733"><ele>221.5</ele><time>2026-04-26T08:29:59.524Z</time></trkpt><trkpt lat="43.21125" lon="13.2799133"><ele>223.0</ele><time>2026-04-26T08:30:00.524Z</time></trkpt><trkpt lat="43.2111317" lon="13.27995"><ele>223.0</ele><time>2026-04-26T08:30:01.524Z</time></trkpt><trkpt lat="43.2110167" lon="13.2799967"><ele>223.0</ele><time>2026-04-26T08:30:02.524Z</time></trkpt><trkpt lat="43.2109017" lon="13.28004"><ele>223.0</ele><time>2026-04-26T08:30:03.524Z</time></trkpt><trkpt lat="43.2107917" lon="13.28008"><ele>223.0</ele><time>2026-04-26T08:30:04.524Z</time></trkpt><trkpt lat="43.2106883" lon="13.2801133"><ele>222.60000000000002</ele><time>2026-04-26T08:30:05.524Z</time></trkpt><trkpt lat="43.2105817" lon="13.2801283"><ele>222.20000000000002</ele><time>2026-04-26T08:30:06.524Z</time></trkpt><trkpt lat="43.2104867" lon="13.2801283"><ele>221.8</ele><time>2026-04-26T08:30:07.525Z</time></trkpt><trkpt lat="43.2103967" lon="13.2801367"><ele>221.4</ele><time>2026-04-26T08:30:08.524Z</time></trkpt><trkpt lat="43.210315" lon="13.2801483"><ele>221.0</ele><time>2026-04-26T08:30:09.524Z</time></trkpt><trkpt lat="43.2102317" lon="13.2801617"><ele>221.0</ele><time>2026-04-26T08:30:10.524Z</time></trkpt><trkpt lat="43.2101433" lon="13.28018"><ele>221.00000000000003</ele><time>2026-04-26T08:30:11.523Z</time></trkpt><trkpt lat="43.210055" lon="13.2802117"><ele>221.00000000000003</ele><time>2026-04-26T08:30:12.524Z</time></trkpt><trkpt lat="43.209975" lon="13.2802633"><ele>221.0</ele><time>2026-04-26T08:30:13.523Z</time></trkpt><trkpt lat="43.2098917" lon="13.2803183"><ele>221.0</ele><time>2026-04-26T08:30:14.523Z</time></trkpt><trkpt lat="43.209815" lon="13.28039"><ele>220.50000000000003</ele><time>2026-04-26T08:30:15.523Z</time></trkpt><trkpt lat="43.2097467" lon="13.280475"><ele>220.0</ele><time>2026-04-26T08:30:16.524Z</time></trkpt><trkpt lat="43.2096883" lon="13.2805783"><ele>219.5</ele><time>2026-04-26T08:30:17.523Z</time></trkpt><trkpt lat="43.209635" lon="13.2806767"><ele>219.0</ele><time>2026-04-26T08:30:18.523Z</time></trkpt><trkpt lat="43.2095817" lon="13.280735"><ele>218.50000000000003</ele><time>2026-04-26T08:30:19.523Z</time></trkpt><trkpt lat="43.209535" lon="13.280795"><ele>218.0</ele><time>2026-04-26T08:30:20.523Z</time></trkpt><trkpt lat="43.209465" lon="13.280875"><ele>218.0</ele><time>2026-04-26T08:30:22.523Z</time></trkpt><trkpt lat="43.2093917" lon="13.280765"><ele>218.0</ele><time>2026-04-26T08:30:25.524Z</time></trkpt><trkpt lat="43.2093767" lon="13.2806683"><ele>218.0</ele><time>2026-04-26T08:30:26.523Z</time></trkpt><trkpt lat="43.209365" lon="13.2805533"><ele>218.0</ele><time>2026-04-26T08:30:27.523Z</time></trkpt><trkpt lat="43.2093617" lon="13.280425"><ele>218.0</ele><time>2026-04-26T08:30:28.523Z</time></trkpt><trkpt lat="43.2093517" lon="13.2803"><ele>218.00000000000003</ele><time>2026-04-26T08:30:29.523Z</time></trkpt><trkpt lat="43.2093433" lon="13.280185"><ele>218.0</ele><time>2026-04-26T08:30:30.523Z</time></trkpt><trkpt lat="43.2093317" lon="13.2800817"><ele>218.0</ele><time>2026-04-26T08:30:31.523Z</time></trkpt><trkpt lat="43.209325" lon="13.2799917"><ele>218.0</ele><time>2026-04-26T08:30:32.523Z</time></trkpt><trkpt lat="43.2093267" lon="13.2798567"><ele>218.00000000000003</ele><time>2026-04-26T08:30:34.524Z</time></trkpt><trkpt lat="43.2093217" lon="13.27974"><ele>218.0</ele><time>2026-04-26T08:30:36.523Z</time></trkpt><trkpt lat="43.2092817" lon="13.279605"><ele>217.8</ele><time>2026-04-26T08:30:38.524Z</time></trkpt><trkpt lat="43.2092467" lon="13.2795117"><ele>217.60000000000002</ele><time>2026-04-26T08:30:39.523Z</time></trkpt><trkpt lat="43.2091967" lon="13.2794"><ele>217.39999999999998</ele><time>2026-04-26T08:30:40.523Z</time></trkpt><trkpt lat="43.2091283" lon="13.279275"><ele>217.2</ele><time>2026-04-26T08:30:41.524Z</time></trkpt><trkpt lat="43.2090517" lon="13.2791417"><ele>217.0</ele><time>2026-04-26T08:30:42.523Z</time></trkpt><trkpt lat="43.2089583" lon="13.2790167"><ele>217.5</ele><time>2026-04-26T08:30:43.524Z</time></trkpt><trkpt lat="43.2088517" lon="13.2789217"><ele>218.0</ele><time>2026-04-26T08:30:44.523Z</time></trkpt><trkpt lat="43.2087533" lon="13.2788367"><ele>218.5</ele><time>2026-04-26T08:30:45.523Z</time></trkpt><trkpt lat="43.2086417" lon="13.2787583"><ele>219.0</ele><time>2026-04-26T08:30:46.523Z</time></trkpt><trkpt lat="43.2085333" lon="13.2786667"><ele>219.0</ele><time>2026-04-26T08:30:47.523Z</time></trkpt><trkpt lat="43.2084167" lon="13.2785833"><ele>219.0</ele><time>2026-04-26T08:30:48.523Z</time></trkpt><trkpt lat="43.2083033" lon="13.2785017"><ele>219.0</ele><time>2026-04-26T08:30:49.523Z</time></trkpt><trkpt lat="43.2082" lon="13.2783933"><ele>219.0</ele><time>2026-04-26T08:30:50.523Z</time></trkpt><trkpt lat="43.2080833" lon="13.278305"><ele>218.5</ele><time>2026-04-26T08:30:51.524Z</time></trkpt><trkpt lat="43.2079733" lon="13.27822"><ele>218.0</ele><time>2026-04-26T08:30:52.523Z</time></trkpt><trkpt lat="43.2078633" lon="13.278145"><ele>217.5</ele><time>2026-04-26T08:30:53.523Z</time></trkpt><trkpt lat="43.2077633" lon="13.278065"><ele>217.0</ele><time>2026-04-26T08:30:54.523Z</time></trkpt><trkpt lat="43.207665" lon="13.2779883"><ele>217.0</ele><time>2026-04-26T08:30:55.523Z</time></trkpt><trkpt lat="43.2075683" lon="13.2779067"><ele>217.0</ele><time>2026-04-26T08:30:56.523Z</time></trkpt><trkpt lat="43.2074683" lon="13.27781"><ele>217.0</ele><time>2026-04-26T08:30:57.523Z</time></trkpt><trkpt lat="43.2073633" lon="13.2777367"><ele>217.0</ele><time>2026-04-26T08:30:58.523Z</time></trkpt><trkpt lat="43.207255" lon="13.2776583"><ele>215.75</ele><time>2026-04-26T08:30:59.523Z</time></trkpt><trkpt lat="43.207145" lon="13.2775633"><ele>214.5</ele><time>2026-04-26T08:31:00.524Z</time></trkpt><trkpt lat="43.2070183" lon="13.2774767"><ele>213.25</ele><time>2026-04-26T08:31:01.523Z</time></trkpt><trkpt lat="43.206895" lon="13.277375"><ele>212.0</ele><time>2026-04-26T08:31:02.523Z</time></trkpt><trkpt lat="43.206765" lon="13.2772933"><ele>212.0</ele><time>2026-04-26T08:31:03.523Z</time></trkpt><trkpt lat="43.2066467" lon="13.2771833"><ele>212.0</ele><time>2026-04-26T08:31:04.523Z</time></trkpt><trkpt lat="43.206525" lon="13.2770717"><ele>212.0</ele><time>2026-04-26T08:31:05.523Z</time></trkpt><trkpt lat="43.2063967" lon="13.276965"><ele>212.0</ele><time>2026-04-26T08:31:06.524Z</time></trkpt><trkpt lat="43.2062617" lon="13.2768517"><ele>212.0</ele><time>2026-04-26T08:31:07.523Z</time></trkpt><trkpt lat="43.2061317" lon="13.2767367"><ele>212.0</ele><time>2026-04-26T08:31:08.523Z</time></trkpt><trkpt lat="43.2060217" lon="13.276625"><ele>212.0</ele><time>2026-04-26T08:31:09.523Z</time></trkpt><trkpt lat="43.205925" lon="13.27652"><ele>212.0</ele><time>2026-04-26T08:31:10.523Z</time></trkpt><trkpt lat="43.2058233" lon="13.2764283"><ele>211.5</ele><time>2026-04-26T08:31:11.523Z</time></trkpt><trkpt lat="43.2057267" lon="13.276335"><ele>211.0</ele><time>2026-04-26T08:31:12.524Z</time></trkpt><trkpt lat="43.2056267" lon="13.27624"><ele>210.5</ele><time>2026-04-26T08:31:13.523Z</time></trkpt><trkpt lat="43.2055217" lon="13.2761467"><ele>210.0</ele><time>2026-04-26T08:31:14.523Z</time></trkpt><trkpt lat="43.2054183" lon="13.2760533"><ele>210.0</ele><time>2026-04-26T08:31:15.523Z</time></trkpt><trkpt lat="43.205325" lon="13.275965"><ele>210.0</ele><time>2026-04-26T08:31:16.523Z</time></trkpt><trkpt lat="43.2052383" lon="13.27588"><ele>210.0</ele><time>2026-04-26T08:31:17.523Z</time></trkpt><trkpt lat="43.20516" lon="13.2758017"><ele>210.0</ele><time>2026-04-26T08:31:18.523Z</time></trkpt><trkpt lat="43.2050883" lon="13.275725"><ele>210.0</ele><time>2026-04-26T08:31:19.523Z</time></trkpt><trkpt lat="43.2050183" lon="13.275645"><ele>209.66666666666666</ele><time>2026-04-26T08:31:20.523Z</time></trkpt><trkpt lat="43.2049533" lon="13.275565"><ele>209.33333333333331</ele><time>2026-04-26T08:31:21.524Z</time></trkpt><trkpt lat="43.2048967" lon="13.27549"><ele>209.0</ele><time>2026-04-26T08:31:22.523Z</time></trkpt><trkpt lat="43.2048367" lon="13.2754167"><ele>208.66666666666666</ele><time>2026-04-26T08:31:23.523Z</time></trkpt><trkpt lat="43.2047717" lon="13.2753383"><ele>208.33333333333331</ele><time>2026-04-26T08:31:24.523Z</time></trkpt><trkpt lat="43.2046967" lon="13.275245"><ele>208.0</ele><time>2026-04-26T08:31:25.523Z</time></trkpt><trkpt lat="43.2046117" lon="13.2751417"><ele>208.0</ele><time>2026-04-26T08:31:26.523Z</time></trkpt><trkpt lat="43.2045117" lon="13.2750267"><ele>208.0</ele><time>2026-04-26T08:31:27.523Z</time></trkpt><trkpt lat="43.2043983" lon="13.2749"><ele>208.0</ele><time>2026-04-26T08:31:28.523Z</time></trkpt><trkpt lat="43.2042767" lon="13.2747567"><ele>208.0</ele><time>2026-04-26T08:31:29.523Z</time></trkpt><trkpt lat="43.204155" lon="13.2745933"><ele>208.33333333333331</ele><time>2026-04-26T08:31:30.523Z</time></trkpt><trkpt lat="43.204035" lon="13.27442"><ele>208.66666666666669</ele><time>2026-04-26T08:31:31.523Z</time></trkpt><trkpt lat="43.2039067" lon="13.27426"><ele>209.0</ele><time>2026-04-26T08:31:32.524Z</time></trkpt><trkpt lat="43.2037733" lon="13.274085"><ele>210.33333333333334</ele><time>2026-04-26T08:31:33.524Z</time></trkpt><trkpt lat="43.2036283" lon="13.2739133"><ele>211.66666666666669</ele><time>2026-04-26T08:31:34.523Z</time></trkpt><trkpt lat="43.2034967" lon="13.2737467"><ele>213.0</ele><time>2026-04-26T08:31:35.523Z</time></trkpt><trkpt lat="43.2033717" lon="13.273585"><ele>213.0</ele><time>2026-04-26T08:31:36.524Z</time></trkpt><trkpt lat="43.2032517" lon="13.2734367"><ele>213.0</ele><time>2026-04-26T08:31:37.523Z</time></trkpt><trkpt lat="43.2031333" lon="13.2732783"><ele>213.0</ele><time>2026-04-26T08:31:38.524Z</time></trkpt><trkpt lat="43.2030333" lon="13.27312"><ele>212.0</ele><time>2026-04-26T08:31:39.523Z</time></trkpt><trkpt lat="43.2029417" lon="13.2729467"><ele>211.0</ele><time>2026-04-26T08:31:40.524Z</time></trkpt><trkpt lat="43.202855" lon="13.2727617"><ele>210.0</ele><time>2026-04-26T08:31:41.524Z</time></trkpt><trkpt lat="43.2027717" lon="13.2725733"><ele>210.0</ele><time>2026-04-26T08:31:42.523Z</time></trkpt><trkpt lat="43.20267" lon="13.2723867"><ele>210.0</ele><time>2026-04-26T08:31:43.523Z</time></trkpt><trkpt lat="43.2025633" lon="13.2722017"><ele>210.0</ele><time>2026-04-26T08:31:44.524Z</time></trkpt><trkpt lat="43.20244" lon="13.27202"><ele>209.66666666666669</ele><time>2026-04-26T08:31:45.523Z</time></trkpt><trkpt lat="43.2023083" lon="13.2718467"><ele>209.33333333333334</ele><time>2026-04-26T08:31:46.523Z</time></trkpt><trkpt lat="43.20218" lon="13.27169"><ele>209.0</ele><time>2026-04-26T08:31:47.524Z</time></trkpt><trkpt lat="43.2020417" lon="13.2715533"><ele>214.66666666666669</ele><time>2026-04-26T08:31:48.523Z</time></trkpt><trkpt lat="43.2019033" lon="13.2714283"><ele>220.33333333333331</ele><time>2026-04-26T08:31:49.523Z</time></trkpt><trkpt lat="43.2017483" lon="13.2712967"><ele>226.0</ele><time>2026-04-26T08:31:50.523Z</time></trkpt><trkpt lat="43.2015917" lon="13.2711717"><ele>221.66666666666666</ele><time>2026-04-26T08:31:51.523Z</time></trkpt><trkpt lat="43.2014267" lon="13.2710433"><ele>217.33333333333331</ele><time>2026-04-26T08:31:52.524Z</time></trkpt><trkpt lat="43.201245" lon="13.270935"><ele>213.0</ele><time>2026-04-26T08:31:53.523Z</time></trkpt><trkpt lat="43.2010667" lon="13.2708333"><ele>213.0</ele><time>2026-04-26T08:31:54.523Z</time></trkpt><trkpt lat="43.2009017" lon="13.2707317"><ele>213.0</ele><time>2026-04-26T08:31:55.524Z</time></trkpt><trkpt lat="43.2007583" lon="13.2706217"><ele>213.0</ele><time>2026-04-26T08:31:56.523Z</time></trkpt><trkpt lat="43.2006267" lon="13.2705133"><ele>212.66666666666669</ele><time>2026-04-26T08:31:57.523Z</time></trkpt><trkpt lat="43.2005017" lon="13.2703883"><ele>212.33333333333334</ele><time>2026-04-26T08:31:58.523Z</time></trkpt><trkpt lat="43.2003917" lon="13.270235"><ele>212.0</ele><time>2026-04-26T08:31:59.523Z</time></trkpt><trkpt lat="43.2002833" lon="13.2700833"><ele>212.0</ele><time>2026-04-26T08:32:00.523Z</time></trkpt><trkpt lat="43.20017" lon="13.2699467"><ele>212.0</ele><time>2026-04-26T08:32:01.523Z</time></trkpt><trkpt lat="43.2000517" lon="13.2698283"><ele>212.0</ele><time>2026-04-26T08:32:02.523Z</time></trkpt><trkpt lat="43.1999317" lon="13.2697167"><ele>212.0</ele><time>2026-04-26T08:32:03.523Z</time></trkpt><trkpt lat="43.1998033" lon="13.2696267"><ele>213.66666666666669</ele><time>2026-04-26T08:32:04.523Z</time></trkpt><trkpt lat="43.1996617" lon="13.26958"><ele>215.33333333333331</ele><time>2026-04-26T08:32:05.523Z</time></trkpt><trkpt lat="43.1995117" lon="13.269535"><ele>217.0</ele><time>2026-04-26T08:32:06.523Z</time></trkpt><trkpt lat="43.19935" lon="13.2694967"><ele>217.0</ele><time>2026-04-26T08:32:07.524Z</time></trkpt><trkpt lat="43.199185" lon="13.269465"><ele>217.0</ele><time>2026-04-26T08:32:08.523Z</time></trkpt><trkpt lat="43.1990183" lon="13.2694383"><ele>217.0</ele><time>2026-04-26T08:32:09.523Z</time></trkpt><trkpt lat="43.1988517" lon="13.2694217"><ele>214.33333333333331</ele><time>2026-04-26T08:32:10.523Z</time></trkpt><trkpt lat="43.198695" lon="13.269395"><ele>211.66666666666669</ele><time>2026-04-26T08:32:11.523Z</time></trkpt><trkpt lat="43.1985383" lon="13.26936"><ele>209.0</ele><time>2026-04-26T08:32:12.523Z</time></trkpt><trkpt lat="43.1983817" lon="13.2693283"><ele>209.0</ele><time>2026-04-26T08:32:13.523Z</time></trkpt><trkpt lat="43.198225" lon="13.2692917"><ele>209.0</ele><time>2026-04-26T08:32:14.523Z</time></trkpt><trkpt lat="43.19806" lon="13.269265"><ele>209.0</ele><time>2026-04-26T08:32:15.523Z</time></trkpt><trkpt lat="43.1978983" lon="13.2692317"><ele>209.33333333333334</ele><time>2026-04-26T08:32:16.524Z</time></trkpt><trkpt lat="43.1977233" lon="13.2692133"><ele>209.66666666666669</ele><time>2026-04-26T08:32:17.523Z</time></trkpt><trkpt lat="43.1975533" lon="13.2691883"><ele>210.0</ele><time>2026-04-26T08:32:18.523Z</time></trkpt><trkpt lat="43.1973783" lon="13.2691567"><ele>209.66666666666669</ele><time>2026-04-26T08:32:19.523Z</time></trkpt><trkpt lat="43.1972067" lon="13.269125"><ele>209.33333333333334</ele><time>2026-04-26T08:32:20.524Z</time></trkpt><trkpt lat="43.1970367" lon="13.2691283"><ele>209.0</ele><time>2026-04-26T08:32:21.524Z</time></trkpt><trkpt lat="43.1968983" lon="13.26911"><ele>209.0</ele><time>2026-04-26T08:32:22.523Z</time></trkpt><trkpt lat="43.1967483" lon="13.2690967"><ele>209.0</ele><time>2026-04-26T08:32:23.523Z</time></trkpt><trkpt lat="43.1965967" lon="13.26908"><ele>209.0</ele><time>2026-04-26T08:32:24.524Z</time></trkpt><trkpt lat="43.1964417" lon="13.2690717"><ele>209.66666666666669</ele><time>2026-04-26T08:32:25.524Z</time></trkpt><trkpt lat="43.1962867" lon="13.2690583"><ele>210.33333333333331</ele><time>2026-04-26T08:32:26.523Z</time></trkpt><trkpt lat="43.1961267" lon="13.2690417"><ele>211.0</ele><time>2026-04-26T08:32:27.523Z</time></trkpt><trkpt lat="43.1959667" lon="13.26902"><ele>211.0</ele><time>2026-04-26T08:32:28.523Z</time></trkpt><trkpt lat="43.1958183" lon="13.2690017"><ele>211.0</ele><time>2026-04-26T08:32:29.523Z</time></trkpt><trkpt lat="43.1956867" lon="13.2689533"><ele>211.0</ele><time>2026-04-26T08:32:30.524Z</time></trkpt><trkpt lat="43.195555" lon="13.268885"><ele>211.0</ele><time>2026-04-26T08:32:31.523Z</time></trkpt><trkpt lat="43.1954317" lon="13.268785"><ele>211.5</ele><time>2026-04-26T08:32:32.523Z</time></trkpt><trkpt lat="43.1953183" lon="13.2686583"><ele>212.0</ele><time>2026-04-26T08:32:33.523Z</time></trkpt><trkpt lat="43.195205" lon="13.2685217"><ele>212.5</ele><time>2026-04-26T08:32:34.523Z</time></trkpt><trkpt lat="43.1951017" lon="13.2683683"><ele>213.0</ele><time>2026-04-26T08:32:35.523Z</time></trkpt><trkpt lat="43.1950133" lon="13.2682083"><ele>213.0</ele><time>2026-04-26T08:32:36.523Z</time></trkpt><trkpt lat="43.19494" lon="13.2680417"><ele>213.0</ele><time>2026-04-26T08:32:37.523Z</time></trkpt><trkpt lat="43.1948783" lon="13.2678733"><ele>213.0</ele><time>2026-04-26T08:32:38.523Z</time></trkpt><trkpt lat="43.1948233" lon="13.2677133"><ele>213.0</ele><time>2026-04-26T08:32:39.523Z</time></trkpt><trkpt lat="43.1947683" lon="13.2675617"><ele>213.0</ele><time>2026-04-26T08:32:40.523Z</time></trkpt><trkpt lat="43.1947" lon="13.267405"><ele>213.0</ele><time>2026-04-26T08:32:41.523Z</time></trkpt><trkpt lat="43.1946183" lon="13.267275"><ele>213.0</ele><time>2026-04-26T08:32:42.523Z</time></trkpt><trkpt lat="43.1945217" lon="13.2671667"><ele>213.0</ele><time>2026-04-26T08:32:43.523Z</time></trkpt><trkpt lat="43.1944067" lon="13.2670683"><ele>213.5</ele><time>2026-04-26T08:32:44.523Z</time></trkpt><trkpt lat="43.1942783" lon="13.2670033"><ele>214.0</ele><time>2026-04-26T08:32:45.524Z</time></trkpt><trkpt lat="43.1941517" lon="13.26694"><ele>214.5</ele><time>2026-04-26T08:32:46.524Z</time></trkpt><trkpt lat="43.194035" lon="13.2668933"><ele>215.0</ele><time>2026-04-26T08:32:47.523Z</time></trkpt><trkpt lat="43.19392" lon="13.2668567"><ele>215.0</ele><time>2026-04-26T08:32:48.523Z</time></trkpt><trkpt lat="43.1938017" lon="13.2668283"><ele>215.0</ele><time>2026-04-26T08:32:49.523Z</time></trkpt><trkpt lat="43.1936733" lon="13.266815"><ele>215.0</ele><time>2026-04-26T08:32:50.523Z</time></trkpt><trkpt lat="43.19355" lon="13.2668183"><ele>215.0</ele><time>2026-04-26T08:32:51.523Z</time></trkpt><trkpt lat="43.193435" lon="13.2668417"><ele>215.0</ele><time>2026-04-26T08:32:52.523Z</time></trkpt><trkpt lat="43.19333" lon="13.2668783"><ele>215.0</ele><time>2026-04-26T08:32:53.524Z</time></trkpt><trkpt lat="43.1932467" lon="13.266925"><ele>215.0</ele><time>2026-04-26T08:32:54.523Z</time></trkpt><trkpt lat="43.1931667" lon="13.26699"><ele>215.0</ele><time>2026-04-26T08:32:55.523Z</time></trkpt><trkpt lat="43.1930767" lon="13.2670783"><ele>215.0</ele><time>2026-04-26T08:32:56.523Z</time></trkpt><trkpt lat="43.192985" lon="13.267155"><ele>215.0</ele><time>2026-04-26T08:32:57.523Z</time></trkpt><trkpt lat="43.1929017" lon="13.2672317"><ele>215.0</ele><time>2026-04-26T08:32:58.523Z</time></trkpt><trkpt lat="43.1928167" lon="13.2673067"><ele>215.0</ele><time>2026-04-26T08:32:59.523Z</time></trkpt><trkpt lat="43.1927117" lon="13.2673767"><ele>215.0</ele><time>2026-04-26T08:33:00.523Z</time></trkpt><trkpt lat="43.1926" lon="13.2674317"><ele>215.0</ele><time>2026-04-26T08:33:01.523Z</time></trkpt><trkpt lat="43.1924883" lon="13.2674517"><ele>215.0</ele><time>2026-04-26T08:33:02.523Z</time></trkpt><trkpt lat="43.1923817" lon="13.2674483"><ele>215.0</ele><time>2026-04-26T08:33:03.523Z</time></trkpt><trkpt lat="43.19228" lon="13.2674333"><ele>215.0</ele><time>2026-04-26T08:33:04.523Z</time></trkpt><trkpt lat="43.19218" lon="13.2674083"><ele>215.0</ele><time>2026-04-26T08:33:05.523Z</time></trkpt><trkpt lat="43.1920717" lon="13.2673883"><ele>215.0</ele><time>2026-04-26T08:33:06.523Z</time></trkpt><trkpt lat="43.1919567" lon="13.2673767"><ele>215.0</ele><time>2026-04-26T08:33:07.523Z</time></trkpt><trkpt lat="43.1918383" lon="13.2673633"><ele>215.0</ele><time>2026-04-26T08:33:08.523Z</time></trkpt><trkpt lat="43.1917117" lon="13.2673467"><ele>215.0</ele><time>2026-04-26T08:33:09.523Z</time></trkpt><trkpt lat="43.1915817" lon="13.26733"><ele>215.0</ele><time>2026-04-26T08:33:10.523Z</time></trkpt><trkpt lat="43.191445" lon="13.26731"><ele>215.5</ele><time>2026-04-26T08:33:11.523Z</time></trkpt><trkpt lat="43.191305" lon="13.2672917"><ele>216.0</ele><time>2026-04-26T08:33:12.523Z</time></trkpt><trkpt lat="43.1911633" lon="13.26727"><ele>216.5</ele><time>2026-04-26T08:33:13.523Z</time></trkpt><trkpt lat="43.191035" lon="13.2672467"><ele>217.0</ele><time>2026-04-26T08:33:14.523Z</time></trkpt><trkpt lat="43.1909117" lon="13.267215"><ele>217.5</ele><time>2026-04-26T08:33:15.524Z</time></trkpt><trkpt lat="43.1907883" lon="13.2671817"><ele>218.0</ele><time>2026-04-26T08:33:16.523Z</time></trkpt><trkpt lat="43.1906683" lon="13.2671333"><ele>218.5</ele><time>2026-04-26T08:33:17.523Z</time></trkpt><trkpt lat="43.190545" lon="13.2670767"><ele>219.0</ele><time>2026-04-26T08:33:18.523Z</time></trkpt><trkpt lat="43.1904267" lon="13.2670017"><ele>219.75</ele><time>2026-04-26T08:33:19.523Z</time></trkpt><trkpt lat="43.1903117" lon="13.266925"><ele>220.5</ele><time>2026-04-26T08:33:20.523Z</time></trkpt><trkpt lat="43.1902" lon="13.2668517"><ele>221.25</ele><time>2026-04-26T08:33:21.523Z</time></trkpt><trkpt lat="43.1900967" lon="13.26679"><ele>222.0</ele><time>2026-04-26T08:33:22.523Z</time></trkpt><trkpt lat="43.19001" lon="13.2667133"><ele>222.0</ele><time>2026-04-26T08:33:23.524Z</time></trkpt><trkpt lat="43.1899167" lon="13.2666383"><ele>222.0</ele><time>2026-04-26T08:33:24.523Z</time></trkpt><trkpt lat="43.189815" lon="13.266555"><ele>222.0</ele><time>2026-04-26T08:33:25.523Z</time></trkpt><trkpt lat="43.1897067" lon="13.2664717"><ele>222.0</ele><time>2026-04-26T08:33:26.523Z</time></trkpt><trkpt lat="43.1896" lon="13.26639"><ele>223.25</ele><time>2026-04-26T08:33:27.523Z</time></trkpt><trkpt lat="43.189485" lon="13.2663033"><ele>224.5</ele><time>2026-04-26T08:33:28.523Z</time></trkpt><trkpt lat="43.189365" lon="13.2662117"><ele>225.75</ele><time>2026-04-26T08:33:29.523Z</time></trkpt><trkpt lat="43.1892367" lon="13.266135"><ele>227.0</ele><time>2026-04-26T08:33:30.523Z</time></trkpt><trkpt lat="43.1891067" lon="13.2660533"><ele>227.0</ele><time>2026-04-26T08:33:31.523Z</time></trkpt><trkpt lat="43.1889767" lon="13.26596"><ele>227.0</ele><time>2026-04-26T08:33:32.523Z</time></trkpt><trkpt lat="43.1888433" lon="13.26588"><ele>227.0</ele><time>2026-04-26T08:33:33.523Z</time></trkpt><trkpt lat="43.18872" lon="13.2657983"><ele>227.0</ele><time>2026-04-26T08:33:34.523Z</time></trkpt><trkpt lat="43.1885983" lon="13.2657217"><ele>227.0</ele><time>2026-04-26T08:33:35.523Z</time></trkpt><trkpt lat="43.1884783" lon="13.2656383"><ele>227.0</ele><time>2026-04-26T08:33:36.524Z</time></trkpt><trkpt lat="43.1883683" lon="13.2655483"><ele>227.0</ele><time>2026-04-26T08:33:37.523Z</time></trkpt><trkpt lat="43.1882533" lon="13.265475"><ele>227.0</ele><time>2026-04-26T08:33:38.523Z</time></trkpt><trkpt lat="43.1881367" lon="13.2654083"><ele>228.5</ele><time>2026-04-26T08:33:39.523Z</time></trkpt><trkpt lat="43.1880317" lon="13.2653383"><ele>230.0</ele><time>2026-04-26T08:33:40.523Z</time></trkpt><trkpt lat="43.187915" lon="13.2652717"><ele>231.5</ele><time>2026-04-26T08:33:41.524Z</time></trkpt><trkpt lat="43.1878" lon="13.2651983"><ele>233.0</ele><time>2026-04-26T08:33:42.523Z</time></trkpt><trkpt lat="43.187685" lon="13.265125"><ele>233.0</ele><time>2026-04-26T08:33:43.523Z</time></trkpt><trkpt lat="43.1875767" lon="13.265055"><ele>233.0</ele><time>2026-04-26T08:33:44.523Z</time></trkpt><trkpt lat="43.187465" lon="13.2649983"><ele>233.0</ele><time>2026-04-26T08:33:45.523Z</time></trkpt><trkpt lat="43.1873683" lon="13.26493"><ele>233.0</ele><time>2026-04-26T08:33:46.523Z</time></trkpt><trkpt lat="43.1872917" lon="13.2648233"><ele>232.0</ele><time>2026-04-26T08:33:47.523Z</time></trkpt><trkpt lat="43.1872317" lon="13.2646867"><ele>231.0</ele><time>2026-04-26T08:33:48.523Z</time></trkpt><trkpt lat="43.1871867" lon="13.264535"><ele>230.0</ele><time>2026-04-26T08:33:49.523Z</time></trkpt><trkpt lat="43.1871533" lon="13.2643717"><ele>229.0</ele><time>2026-04-26T08:33:50.523Z</time></trkpt><trkpt lat="43.18713" lon="13.2642117"><ele>229.0</ele><time>2026-04-26T08:33:51.523Z</time></trkpt><trkpt lat="43.1871017" lon="13.26404"><ele>229.0</ele><time>2026-04-26T08:33:52.524Z</time></trkpt><trkpt lat="43.1870633" lon="13.263865"><ele>229.0</ele><time>2026-04-26T08:33:53.523Z</time></trkpt><trkpt lat="43.1870133" lon="13.26369"><ele>229.0</ele><time>2026-04-26T08:33:54.523Z</time></trkpt><trkpt lat="43.1869433" lon="13.2635183"><ele>231.33333333333331</ele><time>2026-04-26T08:33:55.524Z</time></trkpt><trkpt lat="43.1868583" lon="13.26335"><ele>233.66666666666669</ele><time>2026-04-26T08:33:56.523Z</time></trkpt><trkpt lat="43.1867667" lon="13.2631867"><ele>236.0</ele><time>2026-04-26T08:33:57.523Z</time></trkpt><trkpt lat="43.1866767" lon="13.26302"><ele>236.5</ele><time>2026-04-26T08:33:58.523Z</time></trkpt><trkpt lat="43.1865967" lon="13.2628583"><ele>237.0</ele><time>2026-04-26T08:33:59.523Z</time></trkpt><trkpt lat="43.1865183" lon="13.2627"><ele>237.5</ele><time>2026-04-26T08:34:00.523Z</time></trkpt><trkpt lat="43.1864283" lon="13.262565"><ele>238.0</ele><time>2026-04-26T08:34:01.523Z</time></trkpt><trkpt lat="43.1863417" lon="13.2624317"><ele>238.0</ele><time>2026-04-26T08:34:02.523Z</time></trkpt><trkpt lat="43.1862633" lon="13.2622967"><ele>238.0</ele><time>2026-04-26T08:34:03.523Z</time></trkpt><trkpt lat="43.18618" lon="13.26218"><ele>238.0</ele><time>2026-04-26T08:34:04.523Z</time></trkpt><trkpt lat="43.1861" lon="13.2620667"><ele>238.0</ele><time>2026-04-26T08:34:05.523Z</time></trkpt><trkpt lat="43.1860233" lon="13.2619583"><ele>238.5</ele><time>2026-04-26T08:34:06.523Z</time></trkpt><trkpt lat="43.1859467" lon="13.2618417"><ele>239.0</ele><time>2026-04-26T08:34:07.523Z</time></trkpt><trkpt lat="43.1858567" lon="13.2617233"><ele>239.5</ele><time>2026-04-26T08:34:08.524Z</time></trkpt><trkpt lat="43.185775" lon="13.2615917"><ele>240.0</ele><time>2026-04-26T08:34:09.523Z</time></trkpt><trkpt lat="43.185685" lon="13.26146"><ele>239.25</ele><time>2026-04-26T08:34:10.523Z</time></trkpt><trkpt lat="43.185595" lon="13.2613217"><ele>238.5</ele><time>2026-04-26T08:34:11.524Z</time></trkpt><trkpt lat="43.1855017" lon="13.2611917"><ele>237.75</ele><time>2026-04-26T08:34:12.524Z</time></trkpt><trkpt lat="43.18542" lon="13.2610667"><ele>237.0</ele><time>2026-04-26T08:34:13.523Z</time></trkpt><trkpt lat="43.1853383" lon="13.2609333"><ele>237.0</ele><time>2026-04-26T08:34:14.523Z</time></trkpt><trkpt lat="43.1852633" lon="13.2608233"><ele>237.0</ele><time>2026-04-26T08:34:15.523Z</time></trkpt><trkpt lat="43.1851817" lon="13.260715"><ele>237.0</ele><time>2026-04-26T08:34:16.523Z</time></trkpt><trkpt lat="43.1850983" lon="13.2606033"><ele>237.0</ele><time>2026-04-26T08:34:17.523Z</time></trkpt><trkpt lat="43.18502" lon="13.2604817"><ele>236.8</ele><time>2026-04-26T08:34:18.523Z</time></trkpt><trkpt lat="43.1849383" lon="13.26036"><ele>236.6</ele><time>2026-04-26T08:34:19.523Z</time></trkpt><trkpt lat="43.1848633" lon="13.2602483"><ele>236.40000000000003</ele><time>2026-04-26T08:34:20.523Z</time></trkpt><trkpt lat="43.1847883" lon="13.2601383"><ele>236.20000000000002</ele><time>2026-04-26T08:34:21.523Z</time></trkpt><trkpt lat="43.184715" lon="13.2600367"><ele>236.0</ele><time>2026-04-26T08:34:22.523Z</time></trkpt><trkpt lat="43.18464" lon="13.25993"><ele>235.5</ele><time>2026-04-26T08:34:23.523Z</time></trkpt><trkpt lat="43.1845617" lon="13.2598183"><ele>235.0</ele><time>2026-04-26T08:34:24.524Z</time></trkpt><trkpt lat="43.1844833" lon="13.2597083"><ele>234.5</ele><time>2026-04-26T08:34:25.523Z</time></trkpt><trkpt lat="43.1844067" lon="13.2595867"><ele>234.0</ele><time>2026-04-26T08:34:26.523Z</time></trkpt><trkpt lat="43.1843333" lon="13.2594617"><ele>234.0</ele><time>2026-04-26T08:34:27.523Z</time></trkpt><trkpt lat="43.184275" lon="13.2593383"><ele>233.99999999999997</ele><time>2026-04-26T08:34:28.523Z</time></trkpt><trkpt lat="43.1842283" lon="13.259205"><ele>233.99999999999997</ele><time>2026-04-26T08:34:29.523Z</time></trkpt><trkpt lat="43.1841883" lon="13.2590617"><ele>234.0</ele><time>2026-04-26T08:34:30.523Z</time></trkpt><trkpt lat="43.1841517" lon="13.2589117"><ele>234.0</ele><time>2026-04-26T08:34:31.523Z</time></trkpt><trkpt lat="43.1841233" lon="13.2587417"><ele>234.25</ele><time>2026-04-26T08:34:32.523Z</time></trkpt><trkpt lat="43.1841117" lon="13.2585717"><ele>234.5</ele><time>2026-04-26T08:34:33.524Z</time></trkpt><trkpt lat="43.1840967" lon="13.2584"><ele>234.75</ele><time>2026-04-26T08:34:34.523Z</time></trkpt><trkpt lat="43.18408" lon="13.2582383"><ele>235.0</ele><time>2026-04-26T08:34:35.524Z</time></trkpt><trkpt lat="43.184065" lon="13.258085"><ele>235.25</ele><time>2026-04-26T08:34:36.523Z</time></trkpt><trkpt lat="43.18405" lon="13.257925"><ele>235.5</ele><time>2026-04-26T08:34:37.523Z</time></trkpt><trkpt lat="43.1840283" lon="13.2577683"><ele>235.75</ele><time>2026-04-26T08:34:38.523Z</time></trkpt><trkpt lat="43.1840083" lon="13.25762"><ele>236.0</ele><time>2026-04-26T08:34:39.523Z</time></trkpt><trkpt lat="43.1839767" lon="13.2574817"><ele>234.60000000000002</ele><time>2026-04-26T08:34:40.523Z</time></trkpt><trkpt lat="43.1839533" lon="13.25735"><ele>233.20000000000002</ele><time>2026-04-26T08:34:41.523Z</time></trkpt><trkpt lat="43.18393" lon="13.25723"><ele>231.79999999999998</ele><time>2026-04-26T08:34:42.523Z</time></trkpt><trkpt lat="43.18391" lon="13.2571183"><ele>230.39999999999998</ele><time>2026-04-26T08:34:43.523Z</time></trkpt><trkpt lat="43.1838883" lon="13.257"><ele>229.0</ele><time>2026-04-26T08:34:44.523Z</time></trkpt><trkpt lat="43.18386" lon="13.2568767"><ele>229.0</ele><time>2026-04-26T08:34:45.523Z</time></trkpt><trkpt lat="43.1838317" lon="13.2567517"><ele>228.99999999999997</ele><time>2026-04-26T08:34:46.523Z</time></trkpt><trkpt lat="43.1838017" lon="13.2566183"><ele>228.99999999999997</ele><time>2026-04-26T08:34:47.523Z</time></trkpt><trkpt lat="43.1837683" lon="13.2564783"><ele>229.0</ele><time>2026-04-26T08:34:48.524Z</time></trkpt><trkpt lat="43.183725" lon="13.2563317"><ele>229.0</ele><time>2026-04-26T08:34:49.523Z</time></trkpt><trkpt lat="43.1836883" lon="13.2561767"><ele>229.2</ele><time>2026-04-26T08:34:50.523Z</time></trkpt><trkpt lat="43.183645" lon="13.2560417"><ele>229.39999999999998</ele><time>2026-04-26T08:34:51.523Z</time></trkpt><trkpt lat="43.183605" lon="13.2559033"><ele>229.6</ele><time>2026-04-26T08:34:52.523Z</time></trkpt><trkpt lat="43.18357" lon="13.2557717"><ele>229.8</ele><time>2026-04-26T08:34:53.523Z</time></trkpt><trkpt lat="43.1835417" lon="13.2556517"><ele>230.0</ele><time>2026-04-26T08:34:54.523Z</time></trkpt><trkpt lat="43.1835117" lon="13.2555467"><ele>229.99999999999997</ele><time>2026-04-26T08:34:55.523Z</time></trkpt><trkpt lat="43.1834833" lon="13.2554433"><ele>230.0</ele><time>2026-04-26T08:34:56.523Z</time></trkpt><trkpt lat="43.1834533" lon="13.255345"><ele>229.99999999999997</ele><time>2026-04-26T08:34:57.523Z</time></trkpt><trkpt lat="43.1834233" lon="13.2552483"><ele>229.99999999999997</ele><time>2026-04-26T08:34:58.523Z</time></trkpt><trkpt lat="43.1834217" lon="13.2551533"><ele>230.0</ele><time>2026-04-26T08:34:59.523Z</time></trkpt><trkpt lat="43.1834267" lon="13.2550583"><ele>229.99999999999997</ele><time>2026-04-26T08:35:00.524Z</time></trkpt><trkpt lat="43.1834333" lon="13.25496"><ele>229.99999999999997</ele><time>2026-04-26T08:35:01.524Z</time></trkpt><trkpt lat="43.183445" lon="13.2548717"><ele>230.6</ele><time>2026-04-26T08:35:02.523Z</time></trkpt><trkpt lat="43.1833917" lon="13.2547167"><ele>231.2</ele><time>2026-04-26T08:35:04.523Z</time></trkpt><trkpt lat="43.1833417" lon="13.2546567"><ele>231.8</ele><time>2026-04-26T08:35:05.52Z</time></trkpt><trkpt lat="43.1832717" lon="13.25461"><ele>232.4</ele><time>2026-04-26T08:35:06.523Z</time></trkpt><trkpt lat="43.1831933" lon="13.2545617"><ele>233.0</ele><time>2026-04-26T08:35:07.523Z</time></trkpt><trkpt lat="43.1830983" lon="13.2545"><ele>233.0</ele><time>2026-04-26T08:35:08.523Z</time></trkpt><trkpt lat="43.183" lon="13.25442"><ele>233.0</ele><time>2026-04-26T08:35:09.523Z</time></trkpt><trkpt lat="43.1828967" lon="13.254335"><ele>233.0</ele><time>2026-04-26T08:35:10.523Z</time></trkpt><trkpt lat="43.1827917" lon="13.2542467"><ele>233.0</ele><time>2026-04-26T08:35:11.523Z</time></trkpt><trkpt lat="43.1826717" lon="13.2541683"><ele>233.0</ele><time>2026-04-26T08:35:12.524Z</time></trkpt><trkpt lat="43.1825583" lon="13.2540933"><ele>233.0</ele><time>2026-04-26T08:35:13.524Z</time></trkpt><trkpt lat="43.1824267" lon="13.25402"><ele>233.0</ele><time>2026-04-26T08:35:14.524Z</time></trkpt><trkpt lat="43.182305" lon="13.2539483"><ele>233.0</ele><time>2026-04-26T08:35:15.523Z</time></trkpt><trkpt lat="43.18219" lon="13.25388"><ele>233.75</ele><time>2026-04-26T08:35:16.523Z</time></trkpt><trkpt lat="43.1820767" lon="13.2538117"><ele>234.5</ele><time>2026-04-26T08:35:17.523Z</time></trkpt><trkpt lat="43.181965" lon="13.2537417"><ele>235.25</ele><time>2026-04-26T08:35:18.523Z</time></trkpt><trkpt lat="43.18185" lon="13.2536667"><ele>236.0</ele><time>2026-04-26T08:35:19.523Z</time></trkpt><trkpt lat="43.1817333" lon="13.2535967"><ele>236.0</ele><time>2026-04-26T08:35:20.523Z</time></trkpt><trkpt lat="43.1816233" lon="13.253525"><ele>236.0</ele><time>2026-04-26T08:35:21.523Z</time></trkpt><trkpt lat="43.1815017" lon="13.253455"><ele>236.0</ele><time>2026-04-26T08:35:22.523Z</time></trkpt><trkpt lat="43.1813733" lon="13.2533983"><ele>236.0</ele><time>2026-04-26T08:35:23.523Z</time></trkpt><trkpt lat="43.1812383" lon="13.253345"><ele>237.5</ele><time>2026-04-26T08:35:24.523Z</time></trkpt><trkpt lat="43.181115" lon="13.2533"><ele>239.0</ele><time>2026-04-26T08:35:25.523Z</time></trkpt><trkpt lat="43.1809933" lon="13.2532567"><ele>240.5</ele><time>2026-04-26T08:35:26.524Z</time></trkpt><trkpt lat="43.1808683" lon="13.2532083"><ele>242.0</ele><time>2026-04-26T08:35:27.523Z</time></trkpt><trkpt lat="43.1807483" lon="13.2531567"><ele>242.75</ele><time>2026-04-26T08:35:28.523Z</time></trkpt><trkpt lat="43.1806233" lon="13.253105"><ele>243.5</ele><time>2026-04-26T08:35:29.523Z</time></trkpt><trkpt lat="43.180495" lon="13.2530567"><ele>244.25</ele><time>2026-04-26T08:35:30.523Z</time></trkpt><trkpt lat="43.1803617" lon="13.252995"><ele>245.0</ele><time>2026-04-26T08:35:31.523Z</time></trkpt><trkpt lat="43.180235" lon="13.2529433"><ele>245.0</ele><time>2026-04-26T08:35:32.523Z</time></trkpt><trkpt lat="43.1800967" lon="13.252895"><ele>245.0</ele><time>2026-04-26T08:35:33.523Z</time></trkpt><trkpt lat="43.1799617" lon="13.25285"><ele>245.0</ele><time>2026-04-26T08:35:34.523Z</time></trkpt><trkpt lat="43.1798317" lon="13.2528083"><ele>245.0</ele><time>2026-04-26T08:35:35.524Z</time></trkpt><trkpt lat="43.1797083" lon="13.25278"><ele>246.0</ele><time>2026-04-26T08:35:36.524Z</time></trkpt><trkpt lat="43.1795767" lon="13.2527717"><ele>247.0</ele><time>2026-04-26T08:35:37.523Z</time></trkpt><trkpt lat="43.1794383" lon="13.2527667"><ele>248.0</ele><time>2026-04-26T08:35:38.523Z</time></trkpt><trkpt lat="43.1793033" lon="13.2527733"><ele>249.0</ele><time>2026-04-26T08:35:39.523Z</time></trkpt><trkpt lat="43.1791633" lon="13.2527883"><ele>249.0</ele><time>2026-04-26T08:35:40.523Z</time></trkpt><trkpt lat="43.17903" lon="13.252805"><ele>249.0</ele><time>2026-04-26T08:35:41.523Z</time></trkpt><trkpt lat="43.17891" lon="13.2528217"><ele>249.0</ele><time>2026-04-26T08:35:42.523Z</time></trkpt><trkpt lat="43.178795" lon="13.2528233"><ele>249.0</ele><time>2026-04-26T08:35:43.524Z</time></trkpt><trkpt lat="43.1786817" lon="13.252805"><ele>249.0</ele><time>2026-04-26T08:35:44.523Z</time></trkpt><trkpt lat="43.178565" lon="13.2527617"><ele>249.0</ele><time>2026-04-26T08:35:45.523Z</time></trkpt><trkpt lat="43.1784533" lon="13.252705"><ele>249.0</ele><time>2026-04-26T08:35:46.523Z</time></trkpt><trkpt lat="43.1783467" lon="13.2526267"><ele>249.0</ele><time>2026-04-26T08:35:47.523Z</time></trkpt><trkpt lat="43.178245" lon="13.252535"><ele>250.0</ele><time>2026-04-26T08:35:48.524Z</time></trkpt><trkpt lat="43.17814" lon="13.2524417"><ele>251.0</ele><time>2026-04-26T08:35:49.523Z</time></trkpt><trkpt lat="43.1780367" lon="13.2523467"><ele>252.0</ele><time>2026-04-26T08:35:50.523Z</time></trkpt><trkpt lat="43.17793" lon="13.2522683"><ele>253.0</ele><time>2026-04-26T08:35:51.523Z</time></trkpt><trkpt lat="43.1778283" lon="13.2522083"><ele>253.0</ele><time>2026-04-26T08:35:52.523Z</time></trkpt><trkpt lat="43.1777317" lon="13.2521617"><ele>253.0</ele><time>2026-04-26T08:35:53.523Z</time></trkpt><trkpt lat="43.17763" lon="13.2521233"><ele>253.0</ele><time>2026-04-26T08:35:54.523Z</time></trkpt><trkpt lat="43.17752" lon="13.2520917"><ele>253.0</ele><time>2026-04-26T08:35:55.523Z</time></trkpt><trkpt lat="43.1773967" lon="13.25206"><ele>253.0</ele><time>2026-04-26T08:35:56.523Z</time></trkpt><trkpt lat="43.1772783" lon="13.2520267"><ele>252.25</ele><time>2026-04-26T08:35:57.523Z</time></trkpt><trkpt lat="43.1771617" lon="13.2519833"><ele>251.5</ele><time>2026-04-26T08:35:58.523Z</time></trkpt><trkpt lat="43.1770533" lon="13.2519383"><ele>250.75</ele><time>2026-04-26T08:35:59.524Z</time></trkpt><trkpt lat="43.1769517" lon="13.2518933"><ele>250.0</ele><time>2026-04-26T08:36:00.523Z</time></trkpt><trkpt lat="43.1768483" lon="13.251845"><ele>250.0</ele><time>2026-04-26T08:36:01.523Z</time></trkpt><trkpt lat="43.1767367" lon="13.2518"><ele>250.0</ele><time>2026-04-26T08:36:02.523Z</time></trkpt><trkpt lat="43.1766183" lon="13.25175"><ele>250.0</ele><time>2026-04-26T08:36:03.523Z</time></trkpt><trkpt lat="43.1765033" lon="13.2517117"><ele>250.0</ele><time>2026-04-26T08:36:04.523Z</time></trkpt><trkpt lat="43.1763783" lon="13.2516933"><ele>249.0</ele><time>2026-04-26T08:36:05.524Z</time></trkpt><trkpt lat="43.1762567" lon="13.2516883"><ele>248.0</ele><time>2026-04-26T08:36:06.523Z</time></trkpt><trkpt lat="43.1761383" lon="13.2517033"><ele>247.0</ele><time>2026-04-26T08:36:07.523Z</time></trkpt><trkpt lat="43.17602" lon="13.25173"><ele>246.0</ele><time>2026-04-26T08:36:08.523Z</time></trkpt><trkpt lat="43.1759083" lon="13.2517433"><ele>246.0</ele><time>2026-04-26T08:36:09.523Z</time></trkpt><trkpt lat="43.1758067" lon="13.2517717"><ele>246.00000000000003</ele><time>2026-04-26T08:36:10.523Z</time></trkpt><trkpt lat="43.1756983" lon="13.251785"><ele>246.00000000000003</ele><time>2026-04-26T08:36:11.524Z</time></trkpt><trkpt lat="43.17559" lon="13.2518017"><ele>246.0</ele><time>2026-04-26T08:36:12.523Z</time></trkpt><trkpt lat="43.175485" lon="13.25179"><ele>246.0</ele><time>2026-04-26T08:36:13.523Z</time></trkpt><trkpt lat="43.17538" lon="13.251765"><ele>245.0</ele><time>2026-04-26T08:36:14.523Z</time></trkpt><trkpt lat="43.1752867" lon="13.2517117"><ele>244.0</ele><time>2026-04-26T08:36:15.524Z</time></trkpt><trkpt lat="43.1751717" lon="13.251665"><ele>243.0</ele><time>2026-04-26T08:36:16.523Z</time></trkpt><trkpt lat="43.17506" lon="13.2515933"><ele>242.0</ele><time>2026-04-26T08:36:17.523Z</time></trkpt><trkpt lat="43.174945" lon="13.251515"><ele>243.0</ele><time>2026-04-26T08:36:18.523Z</time></trkpt><trkpt lat="43.174835" lon="13.2514333"><ele>244.0</ele><time>2026-04-26T08:36:19.523Z</time></trkpt><trkpt lat="43.17472" lon="13.2513533"><ele>245.0</ele><time>2026-04-26T08:36:20.523Z</time></trkpt><trkpt lat="43.1746067" lon="13.2512717"><ele>246.0</ele><time>2026-04-26T08:36:21.523Z</time></trkpt><trkpt lat="43.1744917" lon="13.251195"><ele>246.0</ele><time>2026-04-26T08:36:22.523Z</time></trkpt><trkpt lat="43.1743717" lon="13.2511233"><ele>246.0</ele><time>2026-04-26T08:36:23.523Z</time></trkpt><trkpt lat="43.1742517" lon="13.2510517"><ele>246.0</ele><time>2026-04-26T08:36:24.523Z</time></trkpt><trkpt lat="43.174145" lon="13.250975"><ele>246.0</ele><time>2026-04-26T08:36:25.523Z</time></trkpt><trkpt lat="43.17403" lon="13.250915"><ele>245.5</ele><time>2026-04-26T08:36:26.523Z</time></trkpt><trkpt lat="43.1739017" lon="13.25087"><ele>245.0</ele><time>2026-04-26T08:36:27.524Z</time></trkpt><trkpt lat="43.173785" lon="13.250815"><ele>244.5</ele><time>2026-04-26T08:36:28.523Z</time></trkpt><trkpt lat="43.17367" lon="13.2507783"><ele>244.0</ele><time>2026-04-26T08:36:29.523Z</time></trkpt><trkpt lat="43.173555" lon="13.2507317"><ele>244.0</ele><time>2026-04-26T08:36:30.523Z</time></trkpt><trkpt lat="43.173435" lon="13.2506983"><ele>244.0</ele><time>2026-04-26T08:36:31.523Z</time></trkpt><trkpt lat="43.1733167" lon="13.2506583"><ele>244.0</ele><time>2026-04-26T08:36:32.523Z</time></trkpt><trkpt lat="43.1731983" lon="13.25062"><ele>244.0</ele><time>2026-04-26T08:36:33.523Z</time></trkpt><trkpt lat="43.1730783" lon="13.2505783"><ele>244.0</ele><time>2026-04-26T08:36:34.523Z</time></trkpt><trkpt lat="43.1729567" lon="13.250535"><ele>244.0</ele><time>2026-04-26T08:36:35.523Z</time></trkpt><trkpt lat="43.1728417" lon="13.2504883"><ele>244.0</ele><time>2026-04-26T08:36:36.523Z</time></trkpt><trkpt lat="43.1727283" lon="13.2504333"><ele>244.0</ele><time>2026-04-26T08:36:37.523Z</time></trkpt><trkpt lat="43.1726117" lon="13.2503817"><ele>244.0</ele><time>2026-04-26T08:36:38.523Z</time></trkpt><trkpt lat="43.1724983" lon="13.2503233"><ele>244.0</ele><time>2026-04-26T08:36:39.524Z</time></trkpt><trkpt lat="43.1723833" lon="13.2502617"><ele>244.0</ele><time>2026-04-26T08:36:40.524Z</time></trkpt><trkpt lat="43.1722683" lon="13.25019"><ele>244.0</ele><time>2026-04-26T08:36:41.523Z</time></trkpt><trkpt lat="43.17216" lon="13.2501167"><ele>244.0</ele><time>2026-04-26T08:36:42.523Z</time></trkpt><trkpt lat="43.1720483" lon="13.2500383"><ele>244.0</ele><time>2026-04-26T08:36:43.524Z</time></trkpt><trkpt lat="43.1719533" lon="13.2499233"><ele>244.0</ele><time>2026-04-26T08:36:44.524Z</time></trkpt><trkpt lat="43.17188" lon="13.2498017"><ele>244.0</ele><time>2026-04-26T08:36:45.523Z</time></trkpt><trkpt lat="43.1718117" lon="13.2496533"><ele>244.0</ele><time>2026-04-26T08:36:46.524Z</time></trkpt><trkpt lat="43.1717417" lon="13.2494967"><ele>244.0</ele><time>2026-04-26T08:36:47.524Z</time></trkpt><trkpt lat="43.1716717" lon="13.2493333"><ele>244.0</ele><time>2026-04-26T08:36:48.524Z</time></trkpt><trkpt lat="43.1716117" lon="13.24917"><ele>244.0</ele><time>2026-04-26T08:36:49.524Z</time></trkpt><trkpt lat="43.17153" lon="13.2490333"><ele>244.75</ele><time>2026-04-26T08:36:50.523Z</time></trkpt><trkpt lat="43.1714417" lon="13.24891"><ele>245.5</ele><time>2026-04-26T08:36:51.523Z</time></trkpt><trkpt lat="43.1713533" lon="13.2487933"><ele>246.25</ele><time>2026-04-26T08:36:52.523Z</time></trkpt><trkpt lat="43.17126" lon="13.2487033"><ele>247.0</ele><time>2026-04-26T08:36:53.523Z</time></trkpt><trkpt lat="43.1711683" lon="13.2486167"><ele>247.0</ele><time>2026-04-26T08:36:54.524Z</time></trkpt><trkpt lat="43.1710733" lon="13.2485467"><ele>247.0</ele><time>2026-04-26T08:36:55.524Z</time></trkpt><trkpt lat="43.1709717" lon="13.2484883"><ele>247.0</ele><time>2026-04-26T08:36:56.522Z</time></trkpt><trkpt lat="43.17087" lon="13.248435"><ele>247.0</ele><time>2026-04-26T08:36:57.522Z</time></trkpt><trkpt lat="43.17075" lon="13.2483933"><ele>246.0</ele><time>2026-04-26T08:36:58.522Z</time></trkpt><trkpt lat="43.17062" lon="13.2483517"><ele>245.0</ele><time>2026-04-26T08:36:59.523Z</time></trkpt><trkpt lat="43.1705017" lon="13.2483"><ele>244.0</ele><time>2026-04-26T08:37:00.522Z</time></trkpt><trkpt lat="43.170395" lon="13.2482283"><ele>243.0</ele><time>2026-04-26T08:37:01.522Z</time></trkpt><trkpt lat="43.17029" lon="13.24814"><ele>244.75</ele><time>2026-04-26T08:37:02.523Z</time></trkpt><trkpt lat="43.1701983" lon="13.2480433"><ele>246.5</ele><time>2026-04-26T08:37:03.522Z</time></trkpt><trkpt lat="43.1701233" lon="13.2479267"><ele>248.25</ele><time>2026-04-26T08:37:04.522Z</time></trkpt><trkpt lat="43.1700533" lon="13.2478033"><ele>250.0</ele><time>2026-04-26T08:37:05.522Z</time></trkpt><trkpt lat="43.1699917" lon="13.2476683"><ele>250.0</ele><time>2026-04-26T08:37:06.522Z</time></trkpt><trkpt lat="43.1699333" lon="13.24752"><ele>250.0</ele><time>2026-04-26T08:37:07.522Z</time></trkpt><trkpt lat="43.1698783" lon="13.24737"><ele>250.0</ele><time>2026-04-26T08:37:08.522Z</time></trkpt><trkpt lat="43.1698367" lon="13.247195"><ele>250.0</ele><time>2026-04-26T08:37:09.522Z</time></trkpt><trkpt lat="43.16976" lon="13.2470583"><ele>249.25</ele><time>2026-04-26T08:37:10.522Z</time></trkpt><trkpt lat="43.1697117" lon="13.246905"><ele>248.5</ele><time>2026-04-26T08:37:11.523Z</time></trkpt><trkpt lat="43.1696567" lon="13.2467533"><ele>247.75</ele><time>2026-04-26T08:37:12.523Z</time></trkpt><trkpt lat="43.1695967" lon="13.2466117"><ele>247.0</ele><time>2026-04-26T08:37:13.522Z</time></trkpt><trkpt lat="43.1695333" lon="13.24647"><ele>247.5</ele><time>2026-04-26T08:37:14.523Z</time></trkpt><trkpt lat="43.1694717" lon="13.2463283"><ele>248.0</ele><time>2026-04-26T08:37:15.523Z</time></trkpt><trkpt lat="43.1694067" lon="13.2461983"><ele>248.5</ele><time>2026-04-26T08:37:16.522Z</time></trkpt><trkpt lat="43.1693433" lon="13.2460667"><ele>249.0</ele><time>2026-04-26T08:37:17.522Z</time></trkpt><trkpt lat="43.16928" lon="13.2459383"><ele>249.0</ele><time>2026-04-26T08:37:18.522Z</time></trkpt><trkpt lat="43.16921" lon="13.24582"><ele>249.0</ele><time>2026-04-26T08:37:19.522Z</time></trkpt><trkpt lat="43.1691317" lon="13.2457083"><ele>249.0</ele><time>2026-04-26T08:37:20.522Z</time></trkpt><trkpt lat="43.1690433" lon="13.2456083"><ele>249.0</ele><time>2026-04-26T08:37:21.522Z</time></trkpt><trkpt lat="43.1689517" lon="13.2455167"><ele>249.5</ele><time>2026-04-26T08:37:22.522Z</time></trkpt><trkpt lat="43.1688483" lon="13.2454367"><ele>250.0</ele><time>2026-04-26T08:37:23.523Z</time></trkpt><trkpt lat="43.168735" lon="13.2453717"><ele>250.5</ele><time>2026-04-26T08:37:24.522Z</time></trkpt><trkpt lat="43.16862" lon="13.2453133"><ele>251.0</ele><time>2026-04-26T08:37:25.522Z</time></trkpt><trkpt lat="43.1685033" lon="13.24526"><ele>251.0</ele><time>2026-04-26T08:37:26.522Z</time></trkpt><trkpt lat="43.1684017" lon="13.2452183"><ele>251.00000000000003</ele><time>2026-04-26T08:37:27.522Z</time></trkpt><trkpt lat="43.1683" lon="13.2451733"><ele>251.00000000000003</ele><time>2026-04-26T08:37:28.522Z</time></trkpt><trkpt lat="43.168205" lon="13.2451367"><ele>251.0</ele><time>2026-04-26T08:37:29.523Z</time></trkpt><trkpt lat="43.168105" lon="13.2450833"><ele>251.0</ele><time>2026-04-26T08:37:30.522Z</time></trkpt><trkpt lat="43.1679967" lon="13.245035"><ele>251.25</ele><time>2026-04-26T08:37:31.522Z</time></trkpt><trkpt lat="43.1678967" lon="13.2449633"><ele>251.5</ele><time>2026-04-26T08:37:32.523Z</time></trkpt><trkpt lat="43.1677967" lon="13.2448767"><ele>251.75</ele><time>2026-04-26T08:37:33.522Z</time></trkpt><trkpt lat="43.1676967" lon="13.2447767"><ele>252.0</ele><time>2026-04-26T08:37:34.522Z</time></trkpt><trkpt lat="43.1676183" lon="13.24466"><ele>251.5</ele><time>2026-04-26T08:37:35.522Z</time></trkpt><trkpt lat="43.167545" lon="13.2445317"><ele>251.0</ele><time>2026-04-26T08:37:36.522Z</time></trkpt><trkpt lat="43.167475" lon="13.2443883"><ele>250.5</ele><time>2026-04-26T08:37:37.522Z</time></trkpt><trkpt lat="43.1674033" lon="13.244245"><ele>250.0</ele><time>2026-04-26T08:37:38.523Z</time></trkpt><trkpt lat="43.16733" lon="13.244105"><ele>250.0</ele><time>2026-04-26T08:37:39.522Z</time></trkpt><trkpt lat="43.1672567" lon="13.24397"><ele>250.0</ele><time>2026-04-26T08:37:40.523Z</time></trkpt><trkpt lat="43.1671767" lon="13.2438417"><ele>250.0</ele><time>2026-04-26T08:37:41.522Z</time></trkpt><trkpt lat="43.1670933" lon="13.243715"><ele>250.0</ele><time>2026-04-26T08:37:42.522Z</time></trkpt><trkpt lat="43.1670083" lon="13.2436017"><ele>250.8</ele><time>2026-04-26T08:37:43.522Z</time></trkpt><trkpt lat="43.1669267" lon="13.2434983"><ele>251.6</ele><time>2026-04-26T08:37:44.522Z</time></trkpt><trkpt lat="43.16685" lon="13.24341"><ele>252.39999999999998</ele><time>2026-04-26T08:37:45.522Z</time></trkpt><trkpt lat="43.1667767" lon="13.24333"><ele>253.2</ele><time>2026-04-26T08:37:46.523Z</time></trkpt><trkpt lat="43.166715" lon="13.24325"><ele>254.0</ele><time>2026-04-26T08:37:47.522Z</time></trkpt><trkpt lat="43.16666" lon="13.243175"><ele>254.83333333333334</ele><time>2026-04-26T08:37:48.522Z</time></trkpt><trkpt lat="43.1666183" lon="13.2430967"><ele>255.66666666666669</ele><time>2026-04-26T08:37:49.522Z</time></trkpt><trkpt lat="43.1665667" lon="13.242975"><ele>256.5</ele><time>2026-04-26T08:37:51.522Z</time></trkpt><trkpt lat="43.166495" lon="13.2429267"><ele>257.3333333333333</ele><time>2026-04-26T08:40:26.522Z</time></trkpt><trkpt lat="43.16639" lon="13.2428633"><ele>258.16666666666663</ele><time>2026-04-26T08:40:28.523Z</time></trkpt><trkpt lat="43.1663267" lon="13.2428233"><ele>259.0</ele><time>2026-04-26T08:40:29.522Z</time></trkpt><trkpt lat="43.166235" lon="13.2427683"><ele>259.0</ele><time>2026-04-26T08:40:30.523Z</time></trkpt><trkpt lat="43.166135" lon="13.24271"><ele>259.0</ele><time>2026-04-26T08:40:31.522Z</time></trkpt><trkpt lat="43.1660183" lon="13.2426583"><ele>259.0</ele><time>2026-04-26T08:40:32.522Z</time></trkpt><trkpt lat="43.1659" lon="13.242595"><ele>259.0</ele><time>2026-04-26T08:40:33.522Z</time></trkpt><trkpt lat="43.1657767" lon="13.24253"><ele>257.75</ele><time>2026-04-26T08:40:34.522Z</time></trkpt><trkpt lat="43.165635" lon="13.24247"><ele>256.5</ele><time>2026-04-26T08:40:35.522Z</time></trkpt><trkpt lat="43.1655" lon="13.2424083"><ele>255.25</ele><time>2026-04-26T08:40:36.522Z</time></trkpt><trkpt lat="43.165365" lon="13.2423733"><ele>254.0</ele><time>2026-04-26T08:40:37.522Z</time></trkpt><trkpt lat="43.1652433" lon="13.2423333"><ele>254.0</ele><time>2026-04-26T08:40:38.523Z</time></trkpt><trkpt lat="43.1651017" lon="13.2423"><ele>254.0</ele><time>2026-04-26T08:40:39.523Z</time></trkpt><trkpt lat="43.1649667" lon="13.2422717"><ele>254.0</ele><time>2026-04-26T08:40:40.523Z</time></trkpt><trkpt lat="43.1648267" lon="13.24225"><ele>254.0</ele><time>2026-04-26T08:40:41.522Z</time></trkpt><trkpt lat="43.1647" lon="13.24222"><ele>253.75</ele><time>2026-04-26T08:40:42.523Z</time></trkpt><trkpt lat="43.1645767" lon="13.2421867"><ele>253.5</ele><time>2026-04-26T08:40:43.522Z</time></trkpt><trkpt lat="43.164465" lon="13.24215"><ele>253.25</ele><time>2026-04-26T08:40:44.522Z</time></trkpt><trkpt lat="43.1643517" lon="13.2421233"><ele>253.0</ele><time>2026-04-26T08:40:45.522Z</time></trkpt><trkpt lat="43.1642583" lon="13.2420917"><ele>253.0</ele><time>2026-04-26T08:40:46.522Z</time></trkpt><trkpt lat="43.1641683" lon="13.2420633"><ele>253.0</ele><time>2026-04-26T08:40:47.523Z</time></trkpt><trkpt lat="43.1640617" lon="13.2420417"><ele>253.0</ele><time>2026-04-26T08:40:48.522Z</time></trkpt><trkpt lat="43.16395" lon="13.24204"><ele>253.0</ele><time>2026-04-26T08:40:49.522Z</time></trkpt><trkpt lat="43.1638183" lon="13.2420533"><ele>253.0</ele><time>2026-04-26T08:40:50.522Z</time></trkpt><trkpt lat="43.16368" lon="13.24208"><ele>253.0</ele><time>2026-04-26T08:40:51.522Z</time></trkpt><trkpt lat="43.1635417" lon="13.2420967"><ele>253.0</ele><time>2026-04-26T08:40:52.522Z</time></trkpt><trkpt lat="43.163415" lon="13.2421017"><ele>253.0</ele><time>2026-04-26T08:40:53.522Z</time></trkpt><trkpt lat="43.1633017" lon="13.24208"><ele>253.0</ele><time>2026-04-26T08:40:54.523Z</time></trkpt><trkpt lat="43.163205" lon="13.2420283"><ele>251.25</ele><time>2026-04-26T08:40:55.522Z</time></trkpt><trkpt lat="43.1631233" lon="13.24194"><ele>249.5</ele><time>2026-04-26T08:40:56.522Z</time></trkpt><trkpt lat="43.1630483" lon="13.2418133"><ele>247.75</ele><time>2026-04-26T08:40:57.522Z</time></trkpt><trkpt lat="43.1629767" lon="13.2416817"><ele>246.0</ele><time>2026-04-26T08:40:58.522Z</time></trkpt><trkpt lat="43.1628983" lon="13.2415333"><ele>248.75</ele><time>2026-04-26T08:40:59.522Z</time></trkpt><trkpt lat="43.16282" lon="13.2413717"><ele>251.5</ele><time>2026-04-26T08:41:00.522Z</time></trkpt><trkpt lat="43.1627383" lon="13.2412083"><ele>254.25</ele><time>2026-04-26T08:41:01.522Z</time></trkpt><trkpt lat="43.1626583" lon="13.2410533"><ele>257.0</ele><time>2026-04-26T08:41:02.522Z</time></trkpt><trkpt lat="43.1625767" lon="13.2409067"><ele>257.0</ele><time>2026-04-26T08:41:03.522Z</time></trkpt><trkpt lat="43.1624883" lon="13.2407683"><ele>257.0</ele><time>2026-04-26T08:41:04.522Z</time></trkpt><trkpt lat="43.16239" lon="13.2406483"><ele>257.0</ele><time>2026-04-26T08:41:05.522Z</time></trkpt><trkpt lat="43.1622717" lon="13.24054"><ele>257.0</ele><time>2026-04-26T08:41:06.522Z</time></trkpt><trkpt lat="43.1621517" lon="13.2404417"><ele>257.6666666666667</ele><time>2026-04-26T08:41:07.523Z</time></trkpt><trkpt lat="43.1620183" lon="13.2403517"><ele>258.3333333333333</ele><time>2026-04-26T08:41:08.522Z</time></trkpt><trkpt lat="43.1618683" lon="13.2402667"><ele>259.0</ele><time>2026-04-26T08:41:09.522Z</time></trkpt><trkpt lat="43.1617117" lon="13.2401767"><ele>259.0</ele><time>2026-04-26T08:41:10.522Z</time></trkpt><trkpt lat="43.1615467" lon="13.2400867"><ele>259.0</ele><time>2026-04-26T08:41:11.522Z</time></trkpt><trkpt lat="43.1613767" lon="13.2399883"><ele>259.0</ele><time>2026-04-26T08:41:12.522Z</time></trkpt><trkpt lat="43.16121" lon="13.2398983"><ele>259.66666666666663</ele><time>2026-04-26T08:41:13.522Z</time></trkpt><trkpt lat="43.1610533" lon="13.2398133"><ele>260.3333333333333</ele><time>2026-04-26T08:41:14.522Z</time></trkpt><trkpt lat="43.16091" lon="13.2397233"><ele>261.0</ele><time>2026-04-26T08:41:15.522Z</time></trkpt><trkpt lat="43.16078" lon="13.2396367"><ele>258.75</ele><time>2026-04-26T08:41:16.523Z</time></trkpt><trkpt lat="43.16065" lon="13.2395533"><ele>256.5</ele><time>2026-04-26T08:41:17.522Z</time></trkpt><trkpt lat="43.1605317" lon="13.239455"><ele>254.25</ele><time>2026-04-26T08:41:18.522Z</time></trkpt><trkpt lat="43.160435" lon="13.2393433"><ele>252.0</ele><time>2026-04-26T08:41:19.522Z</time></trkpt><trkpt lat="43.1603483" lon="13.2392033"><ele>252.0</ele><time>2026-04-26T08:41:20.522Z</time></trkpt><trkpt lat="43.160275" lon="13.2390467"><ele>252.0</ele><time>2026-04-26T08:41:21.523Z</time></trkpt><trkpt lat="43.1602183" lon="13.2388817"><ele>252.0</ele><time>2026-04-26T08:41:22.522Z</time></trkpt><trkpt lat="43.1601767" lon="13.2387017"><ele>252.0</ele><time>2026-04-26T08:41:23.523Z</time></trkpt><trkpt lat="43.1601367" lon="13.2385133"><ele>253.0</ele><time>2026-04-26T08:41:24.523Z</time></trkpt><trkpt lat="43.1601" lon="13.23831"><ele>254.0</ele><time>2026-04-26T08:41:25.522Z</time></trkpt><trkpt lat="43.1600633" lon="13.238095"><ele>255.0</ele><time>2026-04-26T08:41:26.522Z</time></trkpt><trkpt lat="43.1600283" lon="13.2378683"><ele>255.0</ele><time>2026-04-26T08:41:27.522Z</time></trkpt><trkpt lat="43.1600017" lon="13.2376317"><ele>255.0</ele><time>2026-04-26T08:41:28.523Z</time></trkpt><trkpt lat="43.1599733" lon="13.2374033"><ele>255.0</ele><time>2026-04-26T08:41:29.522Z</time></trkpt><trkpt lat="43.1599383" lon="13.2371633"><ele>254.33333333333331</ele><time>2026-04-26T08:41:30.523Z</time></trkpt><trkpt lat="43.1598967" lon="13.236925"><ele>253.66666666666666</ele><time>2026-04-26T08:41:31.522Z</time></trkpt><trkpt lat="43.1598583" lon="13.2366767"><ele>253.0</ele><time>2026-04-26T08:41:32.522Z</time></trkpt><trkpt lat="43.1598217" lon="13.2364333"><ele>253.0</ele><time>2026-04-26T08:41:33.522Z</time></trkpt><trkpt lat="43.1597817" lon="13.2361933"><ele>253.0</ele><time>2026-04-26T08:41:34.522Z</time></trkpt><trkpt lat="43.1597333" lon="13.2359733"><ele>253.0</ele><time>2026-04-26T08:41:35.522Z</time></trkpt><trkpt lat="43.1596817" lon="13.2357567"><ele>256.0</ele><time>2026-04-26T08:41:36.523Z</time></trkpt><trkpt lat="43.1596133" lon="13.2355383"><ele>259.0</ele><time>2026-04-26T08:41:37.523Z</time></trkpt><trkpt lat="43.1595283" lon="13.2353217"><ele>262.0</ele><time>2026-04-26T08:41:38.523Z</time></trkpt><trkpt lat="43.159435" lon="13.2351117"><ele>262.0</ele><time>2026-04-26T08:41:39.522Z</time></trkpt><trkpt lat="43.1593367" lon="13.23491"><ele>262.0</ele><time>2026-04-26T08:41:40.522Z</time></trkpt><trkpt lat="43.1592517" lon="13.2347033"><ele>262.0</ele><time>2026-04-26T08:41:41.523Z</time></trkpt><trkpt lat="43.1591617" lon="13.2345183"><ele>262.3333333333333</ele><time>2026-04-26T08:41:42.522Z</time></trkpt><trkpt lat="43.15908" lon="13.2343383"><ele>262.6666666666667</ele><time>2026-04-26T08:41:43.522Z</time></trkpt><trkpt lat="43.158995" lon="13.2341367"><ele>263.0</ele><time>2026-04-26T08:41:44.522Z</time></trkpt><trkpt lat="43.1588883" lon="13.2339517"><ele>263.0</ele><time>2026-04-26T08:41:45.522Z</time></trkpt><trkpt lat="43.1587883" lon="13.2337433"><ele>263.0</ele><time>2026-04-26T08:41:46.522Z</time></trkpt><trkpt lat="43.1586817" lon="13.2335367"><ele>263.0</ele><time>2026-04-26T08:41:47.522Z</time></trkpt><trkpt lat="43.1585817" lon="13.233315"><ele>264.6666666666667</ele><time>2026-04-26T08:41:48.523Z</time></trkpt><trkpt lat="43.15848" lon="13.2330917"><ele>266.3333333333333</ele><time>2026-04-26T08:41:49.522Z</time></trkpt><trkpt lat="43.1583767" lon="13.23287"><ele>268.0</ele><time>2026-04-26T08:41:50.523Z</time></trkpt><trkpt lat="43.1582717" lon="13.2326567"><ele>268.66666666666663</ele><time>2026-04-26T08:41:51.522Z</time></trkpt><trkpt lat="43.15815" lon="13.2324583"><ele>269.3333333333333</ele><time>2026-04-26T08:41:52.522Z</time></trkpt><trkpt lat="43.1580283" lon="13.23226"><ele>270.0</ele><time>2026-04-26T08:41:53.522Z</time></trkpt><trkpt lat="43.1579017" lon="13.2320867"><ele>270.0</ele><time>2026-04-26T08:41:54.522Z</time></trkpt><trkpt lat="43.1578" lon="13.23192"><ele>270.0</ele><time>2026-04-26T08:41:55.522Z</time></trkpt><trkpt lat="43.1577" lon="13.2317567"><ele>270.0</ele><time>2026-04-26T08:41:56.523Z</time></trkpt><trkpt lat="43.1576133" lon="13.2316083"><ele>270.75</ele><time>2026-04-26T08:41:57.522Z</time></trkpt><trkpt lat="43.1575433" lon="13.2314633"><ele>271.5</ele><time>2026-04-26T08:41:58.522Z</time></trkpt><trkpt lat="43.1574833" lon="13.2313267"><ele>272.25</ele><time>2026-04-26T08:41:59.522Z</time></trkpt><trkpt lat="43.1574183" lon="13.2311967"><ele>273.0</ele><time>2026-04-26T08:42:00.522Z</time></trkpt><trkpt lat="43.1573617" lon="13.2310483"><ele>269.5</ele><time>2026-04-26T08:42:01.522Z</time></trkpt><trkpt lat="43.157315" lon="13.2308817"><ele>266.0</ele><time>2026-04-26T08:42:02.522Z</time></trkpt><trkpt lat="43.157285" lon="13.230685"><ele>262.5</ele><time>2026-04-26T08:42:03.522Z</time></trkpt><trkpt lat="43.1572533" lon="13.2304567"><ele>259.0</ele><time>2026-04-26T08:42:04.522Z</time></trkpt><trkpt lat="43.1572133" lon="13.230215"><ele>259.0</ele><time>2026-04-26T08:42:05.522Z</time></trkpt><trkpt lat="43.1571533" lon="13.2299883"><ele>259.0</ele><time>2026-04-26T08:42:06.523Z</time></trkpt><trkpt lat="43.1570733" lon="13.22976"><ele>259.0</ele><time>2026-04-26T08:42:07.523Z</time></trkpt><trkpt lat="43.1569933" lon="13.22952"><ele>261.66666666666663</ele><time>2026-04-26T08:42:08.522Z</time></trkpt><trkpt lat="43.1568983" lon="13.22928"><ele>264.3333333333333</ele><time>2026-04-26T08:42:09.522Z</time></trkpt><trkpt lat="43.1567867" lon="13.2290467"><ele>267.0</ele><time>2026-04-26T08:42:10.523Z</time></trkpt><trkpt lat="43.1566733" lon="13.2288217"><ele>267.3333333333333</ele><time>2026-04-26T08:42:11.522Z</time></trkpt><trkpt lat="43.1565667" lon="13.2285883"><ele>267.66666666666663</ele><time>2026-04-26T08:42:12.522Z</time></trkpt><trkpt lat="43.1564817" lon="13.22835"><ele>268.0</ele><time>2026-04-26T08:42:13.523Z</time></trkpt><trkpt lat="43.1564" lon="13.2281033"><ele>268.0</ele><time>2026-04-26T08:42:14.522Z</time></trkpt><trkpt lat="43.1563183" lon="13.227865"><ele>268.0</ele><time>2026-04-26T08:42:15.522Z</time></trkpt><trkpt lat="43.15624" lon="13.227655"><ele>268.0</ele><time>2026-04-26T08:42:16.522Z</time></trkpt><trkpt lat="43.1561433" lon="13.2274467"><ele>269.66666666666663</ele><time>2026-04-26T08:42:17.522Z</time></trkpt><trkpt lat="43.1560317" lon="13.2272467"><ele>271.3333333333333</ele><time>2026-04-26T08:42:18.522Z</time></trkpt><trkpt lat="43.1559167" lon="13.2270533"><ele>273.0</ele><time>2026-04-26T08:42:19.522Z</time></trkpt><trkpt lat="43.155785" lon="13.2268617"><ele>271.3333333333333</ele><time>2026-04-26T08:42:20.522Z</time></trkpt><trkpt lat="43.1556533" lon="13.2266667"><ele>269.66666666666663</ele><time>2026-04-26T08:42:21.522Z</time></trkpt><trkpt lat="43.15552" lon="13.2264733"><ele>268.0</ele><time>2026-04-26T08:42:22.523Z</time></trkpt><trkpt lat="43.15539" lon="13.2262867"><ele>268.0</ele><time>2026-04-26T08:42:23.522Z</time></trkpt><trkpt lat="43.1552583" lon="13.2260883"><ele>268.0</ele><time>2026-04-26T08:42:24.522Z</time></trkpt><trkpt lat="43.1551283" lon="13.2258867"><ele>268.0</ele><time>2026-04-26T08:42:25.522Z</time></trkpt><trkpt lat="43.1549967" lon="13.2256817"><ele>268.66666666666663</ele><time>2026-04-26T08:42:26.522Z</time></trkpt><trkpt lat="43.154875" lon="13.225495"><ele>269.3333333333333</ele><time>2026-04-26T08:42:27.522Z</time></trkpt><trkpt lat="43.15477" lon="13.2253083"><ele>270.0</ele><time>2026-04-26T08:42:28.522Z</time></trkpt><trkpt lat="43.1546783" lon="13.2251233"><ele>268.0</ele><time>2026-04-26T08:42:29.522Z</time></trkpt><trkpt lat="43.1546117" lon="13.224925"><ele>266.0</ele><time>2026-04-26T08:42:30.523Z</time></trkpt><trkpt lat="43.1545517" lon="13.2247217"><ele>264.0</ele><time>2026-04-26T08:42:31.522Z</time></trkpt><trkpt lat="43.1545133" lon="13.2245233"><ele>264.0</ele><time>2026-04-26T08:42:32.523Z</time></trkpt><trkpt lat="43.1545" lon="13.2243183"><ele>264.0</ele><time>2026-04-26T08:42:33.522Z</time></trkpt><trkpt lat="43.1545033" lon="13.2241017"><ele>264.0</ele><time>2026-04-26T08:42:34.522Z</time></trkpt><trkpt lat="43.1545217" lon="13.2238683"><ele>263.6666666666667</ele><time>2026-04-26T08:42:35.522Z</time></trkpt><trkpt lat="43.1545333" lon="13.2236383"><ele>263.33333333333337</ele><time>2026-04-26T08:42:36.522Z</time></trkpt><trkpt lat="43.1545417" lon="13.22342"><ele>263.0</ele><time>2026-04-26T08:42:37.522Z</time></trkpt><trkpt lat="43.1545367" lon="13.2232083"><ele>264.0</ele><time>2026-04-26T08:42:38.522Z</time></trkpt><trkpt lat="43.1545217" lon="13.223"><ele>265.0</ele><time>2026-04-26T08:42:39.523Z</time></trkpt><trkpt lat="43.1544933" lon="13.2227983"><ele>266.0</ele><time>2026-04-26T08:42:40.522Z</time></trkpt><trkpt lat="43.154445" lon="13.2226133"><ele>267.0</ele><time>2026-04-26T08:42:41.522Z</time></trkpt><trkpt lat="43.1543867" lon="13.2224467"><ele>268.25</ele><time>2026-04-26T08:42:42.523Z</time></trkpt><trkpt lat="43.1543183" lon="13.2222917"><ele>269.5</ele><time>2026-04-26T08:42:43.522Z</time></trkpt><trkpt lat="43.1542483" lon="13.22215"><ele>270.75</ele><time>2026-04-26T08:42:44.522Z</time></trkpt><trkpt lat="43.154165" lon="13.2220217"><ele>272.0</ele><time>2026-04-26T08:42:45.523Z</time></trkpt><trkpt lat="43.1540783" lon="13.2218833"><ele>272.25</ele><time>2026-04-26T08:42:46.522Z</time></trkpt><trkpt lat="43.1539783" lon="13.2217583"><ele>272.5</ele><time>2026-04-26T08:42:47.522Z</time></trkpt><trkpt lat="43.1538733" lon="13.2216367"><ele>272.75</ele><time>2026-04-26T08:42:48.522Z</time></trkpt><trkpt lat="43.1537783" lon="13.2215233"><ele>273.0</ele><time>2026-04-26T08:42:49.522Z</time></trkpt><trkpt lat="43.1536783" lon="13.2214083"><ele>273.0</ele><time>2026-04-26T08:42:50.522Z</time></trkpt><trkpt lat="43.1535767" lon="13.2212817"><ele>273.0</ele><time>2026-04-26T08:42:51.522Z</time></trkpt><trkpt lat="43.153475" lon="13.2211633"><ele>273.0</ele><time>2026-04-26T08:42:52.523Z</time></trkpt><trkpt lat="43.1533733" lon="13.2210417"><ele>273.0</ele><time>2026-04-26T08:42:53.522Z</time></trkpt><trkpt lat="43.1532733" lon="13.22091"><ele>273.5</ele><time>2026-04-26T08:42:54.522Z</time></trkpt><trkpt lat="43.1531783" lon="13.2207917"><ele>274.0</ele><time>2026-04-26T08:42:55.522Z</time></trkpt><trkpt lat="43.1530733" lon="13.2206833"><ele>274.5</ele><time>2026-04-26T08:42:56.523Z</time></trkpt><trkpt lat="43.152975" lon="13.2205633"><ele>275.0</ele><time>2026-04-26T08:42:57.522Z</time></trkpt><trkpt lat="43.1528783" lon="13.2204333"><ele>275.0</ele><time>2026-04-26T08:42:58.522Z</time></trkpt><trkpt lat="43.1527767" lon="13.2203133"><ele>275.0</ele><time>2026-04-26T08:42:59.523Z</time></trkpt><trkpt lat="43.1526867" lon="13.2202067"><ele>275.0</ele><time>2026-04-26T08:43:00.522Z</time></trkpt><trkpt lat="43.1525967" lon="13.2201217"><ele>275.0</ele><time>2026-04-26T08:43:01.523Z</time></trkpt><trkpt lat="43.152495" lon="13.22004"><ele>275.0</ele><time>2026-04-26T08:43:02.522Z</time></trkpt><trkpt lat="43.1523783" lon="13.2199833"><ele>275.0</ele><time>2026-04-26T08:43:03.522Z</time></trkpt><trkpt lat="43.1522483" lon="13.21994"><ele>275.0</ele><time>2026-04-26T08:43:04.522Z</time></trkpt><trkpt lat="43.1521133" lon="13.2199"><ele>275.0</ele><time>2026-04-26T08:43:05.523Z</time></trkpt><trkpt lat="43.1519783" lon="13.2198567"><ele>275.5</ele><time>2026-04-26T08:43:06.522Z</time></trkpt><trkpt lat="43.1518417" lon="13.2198067"><ele>276.0</ele><time>2026-04-26T08:43:07.522Z</time></trkpt><trkpt lat="43.1517033" lon="13.219745"><ele>276.5</ele><time>2026-04-26T08:43:08.522Z</time></trkpt><trkpt lat="43.1515683" lon="13.2196883"><ele>277.0</ele><time>2026-04-26T08:43:09.523Z</time></trkpt><trkpt lat="43.1514383" lon="13.2196217"><ele>276.0</ele><time>2026-04-26T08:43:10.522Z</time></trkpt><trkpt lat="43.1513033" lon="13.2195567"><ele>275.0</ele><time>2026-04-26T08:43:11.522Z</time></trkpt><trkpt lat="43.1511767" lon="13.219485"><ele>274.0</ele><time>2026-04-26T08:43:12.522Z</time></trkpt><trkpt lat="43.1510583" lon="13.2193917"><ele>273.0</ele><time>2026-04-26T08:43:13.522Z</time></trkpt><trkpt lat="43.15094" lon="13.2192883"><ele>273.0</ele><time>2026-04-26T08:43:14.522Z</time></trkpt><trkpt lat="43.1508283" lon="13.2191783"><ele>273.0</ele><time>2026-04-26T08:43:15.523Z</time></trkpt><trkpt lat="43.1507417" lon="13.21906"><ele>273.0</ele><time>2026-04-26T08:43:16.522Z</time></trkpt><trkpt lat="43.150655" lon="13.2189317"><ele>273.0</ele><time>2026-04-26T08:43:17.523Z</time></trkpt><trkpt lat="43.15058" lon="13.2187867"><ele>271.75</ele><time>2026-04-26T08:43:18.522Z</time></trkpt><trkpt lat="43.1505083" lon="13.2186233"><ele>270.5</ele><time>2026-04-26T08:43:19.522Z</time></trkpt><trkpt lat="43.150455" lon="13.21844"><ele>269.25</ele><time>2026-04-26T08:43:20.522Z</time></trkpt><trkpt lat="43.15042" lon="13.2182583"><ele>268.0</ele><time>2026-04-26T08:43:21.522Z</time></trkpt><trkpt lat="43.1503967" lon="13.2180783"><ele>268.0</ele><time>2026-04-26T08:43:22.523Z</time></trkpt><trkpt lat="43.1503717" lon="13.2178917"><ele>268.0</ele><time>2026-04-26T08:43:23.522Z</time></trkpt><trkpt lat="43.1503467" lon="13.2177017"><ele>268.0</ele><time>2026-04-26T08:43:24.522Z</time></trkpt><trkpt lat="43.1503083" lon="13.2175067"><ele>268.0</ele><time>2026-04-26T08:43:25.522Z</time></trkpt><trkpt lat="43.1502717" lon="13.2173117"><ele>269.75</ele><time>2026-04-26T08:43:26.522Z</time></trkpt><trkpt lat="43.1502367" lon="13.2171167"><ele>271.5</ele><time>2026-04-26T08:43:27.522Z</time></trkpt><trkpt lat="43.1502" lon="13.2169267"><ele>273.25</ele><time>2026-04-26T08:43:28.522Z</time></trkpt><trkpt lat="43.150165" lon="13.2167317"><ele>275.0</ele><time>2026-04-26T08:43:29.522Z</time></trkpt><trkpt lat="43.15013" lon="13.2165367"><ele>275.0</ele><time>2026-04-26T08:43:30.522Z</time></trkpt><trkpt lat="43.1500967" lon="13.2163317"><ele>275.0</ele><time>2026-04-26T08:43:31.522Z</time></trkpt><trkpt lat="43.150065" lon="13.21612"><ele>275.0</ele><time>2026-04-26T08:43:32.521Z</time></trkpt><trkpt lat="43.150025" lon="13.2159117"><ele>275.0</ele><time>2026-04-26T08:43:33.521Z</time></trkpt><trkpt lat="43.1499817" lon="13.215705"><ele>275.0</ele><time>2026-04-26T08:43:34.522Z</time></trkpt><trkpt lat="43.149945" lon="13.215495"><ele>275.0</ele><time>2026-04-26T08:43:35.521Z</time></trkpt><trkpt lat="43.1499017" lon="13.2152917"><ele>275.0</ele><time>2026-04-26T08:43:36.521Z</time></trkpt><trkpt lat="43.1498633" lon="13.2150817"><ele>275.0</ele><time>2026-04-26T08:43:37.521Z</time></trkpt><trkpt lat="43.149825" lon="13.2148683"><ele>275.0</ele><time>2026-04-26T08:43:38.521Z</time></trkpt><trkpt lat="43.1497867" lon="13.21465"><ele>275.5</ele><time>2026-04-26T08:43:39.521Z</time></trkpt><trkpt lat="43.1497467" lon="13.214445"><ele>276.0</ele><time>2026-04-26T08:43:40.521Z</time></trkpt><trkpt lat="43.1497133" lon="13.2142533"><ele>276.5</ele><time>2026-04-26T08:43:41.521Z</time></trkpt><trkpt lat="43.14969" lon="13.214075"><ele>277.0</ele><time>2026-04-26T08:43:42.522Z</time></trkpt><trkpt lat="43.1496583" lon="13.2139017"><ele>277.25</ele><time>2026-04-26T08:43:43.522Z</time></trkpt><trkpt lat="43.1496217" lon="13.21373"><ele>277.5</ele><time>2026-04-26T08:43:44.521Z</time></trkpt><trkpt lat="43.1495783" lon="13.2135767"><ele>277.75</ele><time>2026-04-26T08:43:45.521Z</time></trkpt><trkpt lat="43.1495433" lon="13.2134217"><ele>278.0</ele><time>2026-04-26T08:43:46.521Z</time></trkpt><trkpt lat="43.1494983" lon="13.2132867"><ele>278.0</ele><time>2026-04-26T08:43:47.521Z</time></trkpt><trkpt lat="43.1494483" lon="13.213175"><ele>278.0</ele><time>2026-04-26T08:43:48.521Z</time></trkpt><trkpt lat="43.1494033" lon="13.2130683"><ele>278.0</ele><time>2026-04-26T08:43:49.521Z</time></trkpt><trkpt lat="43.1493683" lon="13.2129617"><ele>278.0</ele><time>2026-04-26T08:43:50.521Z</time></trkpt><trkpt lat="43.14935" lon="13.2128683"><ele>278.0</ele><time>2026-04-26T08:43:51.522Z</time></trkpt><trkpt lat="43.149355" lon="13.2127683"><ele>278.0</ele><time>2026-04-26T08:43:52.522Z</time></trkpt><trkpt lat="43.1493667" lon="13.2126517"><ele>279.0</ele><time>2026-04-26T08:43:53.521Z</time></trkpt><trkpt lat="43.14936" lon="13.212525"><ele>280.0</ele><time>2026-04-26T08:43:54.522Z</time></trkpt><trkpt lat="43.1493333" lon="13.2123783"><ele>281.0</ele><time>2026-04-26T08:43:55.521Z</time></trkpt><trkpt lat="43.1492883" lon="13.2122267"><ele>282.0</ele><time>2026-04-26T08:43:56.521Z</time></trkpt><trkpt lat="43.1492317" lon="13.2120583"><ele>281.6666666666667</ele><time>2026-04-26T08:43:57.521Z</time></trkpt><trkpt lat="43.1491517" lon="13.2118883"><ele>281.33333333333337</ele><time>2026-04-26T08:43:58.522Z</time></trkpt><trkpt lat="43.149045" lon="13.21171"><ele>281.0</ele><time>2026-04-26T08:43:59.521Z</time></trkpt><trkpt lat="43.1489333" lon="13.21154"><ele>283.6666666666667</ele><time>2026-04-26T08:44:00.521Z</time></trkpt><trkpt lat="43.148815" lon="13.2113833"><ele>286.3333333333333</ele><time>2026-04-26T08:44:01.521Z</time></trkpt><trkpt lat="43.1487033" lon="13.2112167"><ele>289.0</ele><time>2026-04-26T08:44:02.521Z</time></trkpt><trkpt lat="43.1485983" lon="13.2110467"><ele>289.0</ele><time>2026-04-26T08:44:03.521Z</time></trkpt><trkpt lat="43.148505" lon="13.2108817"><ele>289.0</ele><time>2026-04-26T08:44:04.521Z</time></trkpt><trkpt lat="43.1484233" lon="13.210725"><ele>289.0</ele><time>2026-04-26T08:44:05.521Z</time></trkpt><trkpt lat="43.1483567" lon="13.2105567"><ele>289.0</ele><time>2026-04-26T08:44:06.522Z</time></trkpt><trkpt lat="43.1483133" lon="13.210375"><ele>289.3333333333333</ele><time>2026-04-26T08:44:07.522Z</time></trkpt><trkpt lat="43.148265" lon="13.210185"><ele>289.6666666666667</ele><time>2026-04-26T08:44:08.521Z</time></trkpt><trkpt lat="43.1482217" lon="13.2099833"><ele>290.0</ele><time>2026-04-26T08:44:09.521Z</time></trkpt><trkpt lat="43.148185" lon="13.2097717"><ele>290.0</ele><time>2026-04-26T08:44:10.521Z</time></trkpt><trkpt lat="43.1481433" lon="13.2095483"><ele>290.0</ele><time>2026-04-26T08:44:11.521Z</time></trkpt><trkpt lat="43.1481" lon="13.209315"><ele>290.0</ele><time>2026-04-26T08:44:12.521Z</time></trkpt><trkpt lat="43.1480383" lon="13.2090833"><ele>292.6666666666667</ele><time>2026-04-26T08:44:13.521Z</time></trkpt><trkpt lat="43.14798" lon="13.20884"><ele>295.3333333333333</ele><time>2026-04-26T08:44:14.522Z</time></trkpt><trkpt lat="43.1479283" lon="13.2085917"><ele>298.0</ele><time>2026-04-26T08:44:15.521Z</time></trkpt><trkpt lat="43.147875" lon="13.20835"><ele>301.0</ele><time>2026-04-26T08:44:16.521Z</time></trkpt><trkpt lat="43.14782" lon="13.20813"><ele>304.0</ele><time>2026-04-26T08:44:17.521Z</time></trkpt><trkpt lat="43.14776" lon="13.2079183"><ele>307.0</ele><time>2026-04-26T08:44:18.521Z</time></trkpt><trkpt lat="43.14768" lon="13.20772"><ele>307.0</ele><time>2026-04-26T08:44:19.522Z</time></trkpt><trkpt lat="43.147595" lon="13.2075217"><ele>307.0</ele><time>2026-04-26T08:44:20.521Z</time></trkpt><trkpt lat="43.14749" lon="13.2073483"><ele>307.0</ele><time>2026-04-26T08:44:21.522Z</time></trkpt><trkpt lat="43.14737" lon="13.2071933"><ele>306.0</ele><time>2026-04-26T08:44:22.521Z</time></trkpt><trkpt lat="43.1472383" lon="13.2070483"><ele>305.0</ele><time>2026-04-26T08:44:23.521Z</time></trkpt><trkpt lat="43.14711" lon="13.20691"><ele>304.0</ele><time>2026-04-26T08:44:24.522Z</time></trkpt><trkpt lat="43.1469983" lon="13.20678"><ele>304.0</ele><time>2026-04-26T08:44:25.522Z</time></trkpt><trkpt lat="43.1469083" lon="13.2066617"><ele>304.0</ele><time>2026-04-26T08:44:26.522Z</time></trkpt><trkpt lat="43.1468317" lon="13.2065667"><ele>304.0</ele><time>2026-04-26T08:44:27.521Z</time></trkpt><trkpt lat="43.1467867" lon="13.2064567"><ele>304.0</ele><time>2026-04-26T08:44:28.521Z</time></trkpt><trkpt lat="43.1467667" lon="13.206355"><ele>304.0</ele><time>2026-04-26T08:44:29.521Z</time></trkpt><trkpt lat="43.1467683" lon="13.2062467"><ele>303.8</ele><time>2026-04-26T08:44:30.521Z</time></trkpt><trkpt lat="43.1467917" lon="13.2061317"><ele>303.59999999999997</ele><time>2026-04-26T08:44:31.522Z</time></trkpt><trkpt lat="43.1468383" lon="13.2060233"><ele>303.4</ele><time>2026-04-26T08:44:32.521Z</time></trkpt><trkpt lat="43.1469233" lon="13.2059083"><ele>303.2</ele><time>2026-04-26T08:44:33.521Z</time></trkpt><trkpt lat="43.14704" lon="13.2057867"><ele>303.0</ele><time>2026-04-26T08:44:34.522Z</time></trkpt><trkpt lat="43.1471567" lon="13.20567"><ele>301.5</ele><time>2026-04-26T08:44:35.522Z</time></trkpt><trkpt lat="43.147265" lon="13.2055783"><ele>300.0</ele><time>2026-04-26T08:44:36.521Z</time></trkpt><trkpt lat="43.1473617" lon="13.2054817"><ele>298.5</ele><time>2026-04-26T08:44:37.521Z</time></trkpt><trkpt lat="43.1474583" lon="13.2053433"><ele>297.0</ele><time>2026-04-26T08:44:38.521Z</time></trkpt><trkpt lat="43.1475367" lon="13.205165"><ele>305.0</ele><time>2026-04-26T08:44:39.521Z</time></trkpt><trkpt lat="43.1476067" lon="13.20496"><ele>313.0</ele><time>2026-04-26T08:44:40.521Z</time></trkpt><trkpt lat="43.1476667" lon="13.204765"><ele>321.0</ele><time>2026-04-26T08:44:41.522Z</time></trkpt><trkpt lat="43.1477267" lon="13.2045817"><ele>321.0</ele><time>2026-04-26T08:44:42.521Z</time></trkpt><trkpt lat="43.14777" lon="13.2044267"><ele>321.0</ele><time>2026-04-26T08:44:43.521Z</time></trkpt><trkpt lat="43.1477867" lon="13.204295"><ele>321.0</ele><time>2026-04-26T08:44:44.521Z</time></trkpt><trkpt lat="43.14779" lon="13.2041883"><ele>321.0</ele><time>2026-04-26T08:44:45.521Z</time></trkpt><trkpt lat="43.1477967" lon="13.2040967"><ele>321.0</ele><time>2026-04-26T08:44:46.522Z</time></trkpt><trkpt lat="43.14782" lon="13.2040117"><ele>321.0</ele><time>2026-04-26T08:44:47.521Z</time></trkpt><trkpt lat="43.1478583" lon="13.2039317"><ele>321.0</ele><time>2026-04-26T08:44:48.522Z</time></trkpt><trkpt lat="43.1479033" lon="13.2038467"><ele>321.0</ele><time>2026-04-26T08:44:49.521Z</time></trkpt><trkpt lat="43.1479567" lon="13.2037517"><ele>321.0</ele><time>2026-04-26T08:44:50.521Z</time></trkpt><trkpt lat="43.148025" lon="13.2036533"><ele>321.0</ele><time>2026-04-26T08:44:51.521Z</time></trkpt><trkpt lat="43.1480967" lon="13.2035567"><ele>321.0</ele><time>2026-04-26T08:44:52.522Z</time></trkpt><trkpt lat="43.1481633" lon="13.2034533"><ele>323.0</ele><time>2026-04-26T08:44:53.521Z</time></trkpt><trkpt lat="43.148235" lon="13.2033567"><ele>325.0</ele><time>2026-04-26T08:44:54.521Z</time></trkpt><trkpt lat="43.1482983" lon="13.2032833"><ele>327.0</ele><time>2026-04-26T08:44:55.521Z</time></trkpt><trkpt lat="43.1483667" lon="13.203225"><ele>329.0</ele><time>2026-04-26T08:44:56.521Z</time></trkpt><trkpt lat="43.1484333" lon="13.203175"><ele>331.0</ele><time>2026-04-26T08:44:57.522Z</time></trkpt><trkpt lat="43.14851" lon="13.203135"><ele>333.0</ele><time>2026-04-26T08:44:58.521Z</time></trkpt><trkpt lat="43.1485867" lon="13.2030967"><ele>333.0</ele><time>2026-04-26T08:44:59.521Z</time></trkpt><trkpt lat="43.1486633" lon="13.203065"><ele>333.0</ele><time>2026-04-26T08:45:00.521Z</time></trkpt><trkpt lat="43.148745" lon="13.2030283"><ele>333.0</ele><time>2026-04-26T08:45:01.521Z</time></trkpt><trkpt lat="43.1488217" lon="13.2029917"><ele>333.0</ele><time>2026-04-26T08:45:02.521Z</time></trkpt><trkpt lat="43.1489033" lon="13.2029467"><ele>333.0</ele><time>2026-04-26T08:45:03.521Z</time></trkpt><trkpt lat="43.1489933" lon="13.2028833"><ele>333.0</ele><time>2026-04-26T08:45:04.522Z</time></trkpt><trkpt lat="43.1490817" lon="13.2028117"><ele>336.79999999999995</ele><time>2026-04-26T08:45:05.521Z</time></trkpt><trkpt lat="43.1491683" lon="13.202735"><ele>340.6</ele><time>2026-04-26T08:45:06.521Z</time></trkpt><trkpt lat="43.1492583" lon="13.2026467"><ele>344.4</ele><time>2026-04-26T08:45:07.522Z</time></trkpt><trkpt lat="43.1493433" lon="13.2025683"><ele>348.20000000000005</ele><time>2026-04-26T08:45:08.521Z</time></trkpt><trkpt lat="43.1494217" lon="13.202495"><ele>352.0</ele><time>2026-04-26T08:45:09.521Z</time></trkpt><trkpt lat="43.1494933" lon="13.2024283"><ele>352.0</ele><time>2026-04-26T08:45:10.521Z</time></trkpt><trkpt lat="43.149555" lon="13.2023733"><ele>352.0</ele><time>2026-04-26T08:45:11.522Z</time></trkpt><trkpt lat="43.1496367" lon="13.2023417"><ele>352.0</ele><time>2026-04-26T08:45:13.521Z</time></trkpt><trkpt lat="43.1496883" lon="13.202415"><ele>352.0</ele><time>2026-04-26T08:45:27.521Z</time></trkpt><trkpt lat="43.1496983" lon="13.2025667"><ele>352.0</ele><time>2026-04-26T08:45:29.522Z</time></trkpt><trkpt lat="43.1497" lon="13.20267"><ele>352.0</ele><time>2026-04-26T08:45:30.521Z</time></trkpt><trkpt lat="43.1497167" lon="13.2027933"><ele>352.0</ele><time>2026-04-26T08:45:31.521Z</time></trkpt><trkpt lat="43.149735" lon="13.2029283"><ele>352.0</ele><time>2026-04-26T08:45:32.521Z</time></trkpt><trkpt lat="43.1497633" lon="13.2030383"><ele>352.0</ele><time>2026-04-26T08:45:33.521Z</time></trkpt><trkpt lat="43.1497967" lon="13.2031133"><ele>352.0</ele><time>2026-04-26T08:45:34.521Z</time></trkpt><trkpt lat="43.1499167" lon="13.203145"><ele>352.0</ele><time>2026-04-26T08:45:36.522Z</time></trkpt><trkpt lat="43.149975" lon="13.2031067"><ele>352.0</ele><time>2026-04-26T08:45:37.521Z</time></trkpt><trkpt lat="43.15002" lon="13.2030417"><ele>354.3333333333333</ele><time>2026-04-26T08:45:38.521Z</time></trkpt><trkpt lat="43.1500367" lon="13.2029433"><ele>356.66666666666663</ele><time>2026-04-26T08:45:39.521Z</time></trkpt><trkpt lat="43.1500317" lon="13.202825"><ele>359.0</ele><time>2026-04-26T08:45:40.521Z</time></trkpt><trkpt lat="43.15001" lon="13.20268"><ele>361.3333333333333</ele><time>2026-04-26T08:45:41.521Z</time></trkpt><trkpt lat="43.1499867" lon="13.2025467"><ele>363.6666666666667</ele><time>2026-04-26T08:45:42.521Z</time></trkpt><trkpt lat="43.1499867" lon="13.2024417"><ele>366.0</ele><time>2026-04-26T08:45:43.521Z</time></trkpt><trkpt lat="43.1500233" lon="13.202295"><ele>366.0</ele><time>2026-04-26T08:45:45.522Z</time></trkpt><trkpt lat="43.1500967" lon="13.2021483"><ele>366.0</ele><time>2026-04-26T08:45:47.521Z</time></trkpt><trkpt lat="43.1501467" lon="13.2020533"><ele>366.0</ele><time>2026-04-26T08:45:48.521Z</time></trkpt><trkpt lat="43.150205" lon="13.2019467"><ele>366.0</ele><time>2026-04-26T08:45:49.521Z</time></trkpt><trkpt lat="43.1502833" lon="13.20182"><ele>366.0</ele><time>2026-04-26T08:45:50.521Z</time></trkpt><trkpt lat="43.1503567" lon="13.2016917"><ele>366.0</ele><time>2026-04-26T08:45:51.521Z</time></trkpt><trkpt lat="43.1504083" lon="13.2015733"><ele>366.0</ele><time>2026-04-26T08:45:52.521Z</time></trkpt><trkpt lat="43.15045" lon="13.2014533"><ele>366.0</ele><time>2026-04-26T08:45:53.521Z</time></trkpt><trkpt lat="43.1504783" lon="13.2013333"><ele>366.0</ele><time>2026-04-26T08:45:54.522Z</time></trkpt><trkpt lat="43.1504967" lon="13.201235"><ele>366.0</ele><time>2026-04-26T08:45:55.522Z</time></trkpt><trkpt lat="43.150515" lon="13.2011517"><ele>366.0</ele><time>2026-04-26T08:45:56.521Z</time></trkpt><trkpt lat="43.15056" lon="13.2010467"><ele>364.5</ele><time>2026-04-26T08:45:58.521Z</time></trkpt><trkpt lat="43.1506267" lon="13.2009567"><ele>363.0</ele><time>2026-04-26T08:46:18.521Z</time></trkpt><trkpt lat="43.15072" lon="13.200835"><ele>361.5</ele><time>2026-04-26T08:46:20.521Z</time></trkpt><trkpt lat="43.1507783" lon="13.2007917"><ele>360.0</ele><time>2026-04-26T08:46:21.521Z</time></trkpt><trkpt lat="43.15085" lon="13.2007733"><ele>358.5</ele><time>2026-04-26T08:46:22.521Z</time></trkpt><trkpt lat="43.1509317" lon="13.2007817"><ele>357.0</ele><time>2026-04-26T08:46:23.522Z</time></trkpt><trkpt lat="43.1510167" lon="13.2008183"><ele>364.25</ele><time>2026-04-26T08:46:24.522Z</time></trkpt><trkpt lat="43.1510933" lon="13.2009017"><ele>371.5</ele><time>2026-04-26T08:46:25.521Z</time></trkpt><trkpt lat="43.151185" lon="13.201"><ele>378.75</ele><time>2026-04-26T08:46:26.521Z</time></trkpt><trkpt lat="43.1512717" lon="13.201135"><ele>386.0</ele><time>2026-04-26T08:46:27.521Z</time></trkpt><trkpt lat="43.1513517" lon="13.2012767"><ele>386.0</ele><time>2026-04-26T08:46:28.522Z</time></trkpt><trkpt lat="43.151425" lon="13.20142"><ele>386.0</ele><time>2026-04-26T08:46:29.521Z</time></trkpt><trkpt lat="43.1515017" lon="13.2015617"><ele>386.0</ele><time>2026-04-26T08:46:30.521Z</time></trkpt><trkpt lat="43.1515617" lon="13.201695"><ele>386.0</ele><time>2026-04-26T08:46:31.521Z</time></trkpt><trkpt lat="43.1516067" lon="13.2018017"><ele>389.16666666666663</ele><time>2026-04-26T08:46:32.521Z</time></trkpt><trkpt lat="43.1516417" lon="13.20189"><ele>392.3333333333333</ele><time>2026-04-26T08:46:33.522Z</time></trkpt><trkpt lat="43.1517" lon="13.2020033"><ele>395.5</ele><time>2026-04-26T08:46:35.521Z</time></trkpt><trkpt lat="43.1517733" lon="13.2019517"><ele>398.66666666666663</ele><time>2026-04-26T08:46:53.521Z</time></trkpt><trkpt lat="43.1518517" lon="13.20185"><ele>401.8333333333333</ele><time>2026-04-26T08:46:55.522Z</time></trkpt><trkpt lat="43.15192" lon="13.2017833"><ele>405.0</ele><time>2026-04-26T08:46:56.521Z</time></trkpt><trkpt lat="43.1519967" lon="13.2017083"><ele>405.0</ele><time>2026-04-26T08:46:57.521Z</time></trkpt><trkpt lat="43.15207" lon="13.2016333"><ele>405.0</ele><time>2026-04-26T08:46:58.521Z</time></trkpt><trkpt lat="43.1521267" lon="13.2015767"><ele>405.0</ele><time>2026-04-26T08:46:59.521Z</time></trkpt><trkpt lat="43.1522317" lon="13.201485"><ele>405.0</ele><time>2026-04-26T08:47:01.521Z</time></trkpt><trkpt lat="43.152295" lon="13.2014483"><ele>405.0</ele><time>2026-04-26T08:47:02.521Z</time></trkpt><trkpt lat="43.152365" lon="13.2014333"><ele>405.0</ele><time>2026-04-26T08:47:03.521Z</time></trkpt><trkpt lat="43.1524383" lon="13.2014267"><ele>408.6666666666667</ele><time>2026-04-26T08:47:04.521Z</time></trkpt><trkpt lat="43.152515" lon="13.20142"><ele>412.33333333333337</ele><time>2026-04-26T08:47:05.521Z</time></trkpt><trkpt lat="43.1526167" lon="13.2013367"><ele>416.0</ele><time>2026-04-26T08:47:07.521Z</time></trkpt><trkpt lat="43.15265" lon="13.2012617"><ele>419.6666666666667</ele><time>2026-04-26T08:47:08.522Z</time></trkpt><trkpt lat="43.1526667" lon="13.2011517"><ele>423.33333333333337</ele><time>2026-04-26T08:47:09.521Z</time></trkpt><trkpt lat="43.15267" lon="13.2010433"><ele>427.0</ele><time>2026-04-26T08:47:10.521Z</time></trkpt><trkpt lat="43.1526633" lon="13.200935"><ele>427.0</ele><time>2026-04-26T08:47:11.521Z</time></trkpt><trkpt lat="43.1526533" lon="13.2008367"><ele>427.00000000000006</ele><time>2026-04-26T08:47:12.521Z</time></trkpt><trkpt lat="43.15261" lon="13.20071"><ele>427.00000000000006</ele><time>2026-04-26T08:47:14.521Z</time></trkpt><trkpt lat="43.1525467" lon="13.200605"><ele>427.0</ele><time>2026-04-26T08:47:31.521Z</time></trkpt><trkpt lat="43.1524967" lon="13.2004733"><ele>427.0</ele><time>2026-04-26T08:47:33.522Z</time></trkpt><trkpt lat="43.152455" lon="13.20037"><ele>428.6666666666667</ele><time>2026-04-26T08:47:34.522Z</time></trkpt><trkpt lat="43.1524267" lon="13.200245"><ele>430.33333333333337</ele><time>2026-04-26T08:47:35.521Z</time></trkpt><trkpt lat="43.15239" lon="13.2001183"><ele>432.0</ele><time>2026-04-26T08:47:36.521Z</time></trkpt><trkpt lat="43.15237" lon="13.2000133"><ele>433.66666666666663</ele><time>2026-04-26T08:47:37.521Z</time></trkpt><trkpt lat="43.15236" lon="13.1999117"><ele>435.3333333333333</ele><time>2026-04-26T08:47:38.521Z</time></trkpt><trkpt lat="43.15233" lon="13.199825"><ele>437.0</ele><time>2026-04-26T08:47:39.521Z</time></trkpt><trkpt lat="43.1522917" lon="13.1997483"><ele>431.8</ele><time>2026-04-26T08:47:40.521Z</time></trkpt><trkpt lat="43.1522417" lon="13.19962"><ele>426.6</ele><time>2026-04-26T08:47:42.521Z</time></trkpt><trkpt lat="43.1522183" lon="13.1994967"><ele>421.40000000000003</ele><time>2026-04-26T08:47:44.521Z</time></trkpt><trkpt lat="43.15226" lon="13.199305"><ele>416.20000000000005</ele><time>2026-04-26T08:47:46.522Z</time></trkpt><trkpt lat="43.1522933" lon="13.1991767"><ele>411.0</ele><time>2026-04-26T08:47:47.521Z</time></trkpt><trkpt lat="43.152325" lon="13.199055"><ele>412.3333333333333</ele><time>2026-04-26T08:47:48.522Z</time></trkpt><trkpt lat="43.15236" lon="13.19894"><ele>413.66666666666663</ele><time>2026-04-26T08:47:49.521Z</time></trkpt><trkpt lat="43.152395" lon="13.1988383"><ele>415.0</ele><time>2026-04-26T08:47:50.521Z</time></trkpt><trkpt lat="43.152435" lon="13.1987533"><ele>416.3333333333333</ele><time>2026-04-26T08:47:51.521Z</time></trkpt><trkpt lat="43.152475" lon="13.19866"><ele>417.66666666666663</ele><time>2026-04-26T08:47:52.521Z</time></trkpt><trkpt lat="43.1525067" lon="13.1985767"><ele>419.0</ele><time>2026-04-26T08:47:53.521Z</time></trkpt><trkpt lat="43.1525333" lon="13.1984467"><ele>418.99999999999994</ele><time>2026-04-26T08:47:55.521Z</time></trkpt><trkpt lat="43.1524883" lon="13.1983367"><ele>419.0</ele><time>2026-04-26T08:47:57.521Z</time></trkpt><trkpt lat="43.1524333" lon="13.198285"><ele>419.0</ele><time>2026-04-26T08:47:58.521Z</time></trkpt><trkpt lat="43.15237" lon="13.1982333"><ele>419.0</ele><time>2026-04-26T08:47:59.522Z</time></trkpt><trkpt lat="43.1523" lon="13.1981733"><ele>418.99999999999994</ele><time>2026-04-26T08:48:00.521Z</time></trkpt><trkpt lat="43.1522417" lon="13.1981083"><ele>419.0</ele><time>2026-04-26T08:48:01.522Z</time></trkpt><trkpt lat="43.1521817" lon="13.1980317"><ele>421.16666666666663</ele><time>2026-04-26T08:48:02.521Z</time></trkpt><trkpt lat="43.1521167" lon="13.1979567"><ele>423.3333333333333</ele><time>2026-04-26T08:48:03.521Z</time></trkpt><trkpt lat="43.1520767" lon="13.19789"><ele>425.5</ele><time>2026-04-26T08:48:04.522Z</time></trkpt><trkpt lat="43.1520433" lon="13.1977683"><ele>427.66666666666663</ele><time>2026-04-26T08:48:06.521Z</time></trkpt><trkpt lat="43.152045" lon="13.197675"><ele>429.8333333333333</ele><time>2026-04-26T08:48:08.521Z</time></trkpt><trkpt lat="43.152115" lon="13.1976367"><ele>432.0</ele><time>2026-04-26T08:48:26.522Z</time></trkpt><trkpt lat="43.1522283" lon="13.1976783"><ele>432.0</ele><time>2026-04-26T08:48:28.521Z</time></trkpt><trkpt lat="43.152315" lon="13.1977167"><ele>432.00000000000006</ele><time>2026-04-26T08:48:29.521Z</time></trkpt><trkpt lat="43.1524233" lon="13.1977617"><ele>432.00000000000006</ele><time>2026-04-26T08:48:30.522Z</time></trkpt><trkpt lat="43.1525367" lon="13.1978133"><ele>432.0</ele><time>2026-04-26T08:48:31.522Z</time></trkpt><trkpt lat="43.1526417" lon="13.1978717"><ele>432.0</ele><time>2026-04-26T08:48:32.521Z</time></trkpt><trkpt lat="43.1527417" lon="13.1979467"><ele>431.25</ele><time>2026-04-26T08:48:33.521Z</time></trkpt><trkpt lat="43.1528383" lon="13.19804"><ele>430.5</ele><time>2026-04-26T08:48:34.522Z</time></trkpt><trkpt lat="43.1529183" lon="13.198145"><ele>429.75</ele><time>2026-04-26T08:48:35.521Z</time></trkpt><trkpt lat="43.1530083" lon="13.1982717"><ele>429.0</ele><time>2026-04-26T08:48:36.521Z</time></trkpt><trkpt lat="43.1530683" lon="13.198405"><ele>429.0</ele><time>2026-04-26T08:48:37.521Z</time></trkpt><trkpt lat="43.1531167" lon="13.1985133"><ele>429.0</ele><time>2026-04-26T08:48:38.522Z</time></trkpt><trkpt lat="43.1531417" lon="13.198625"><ele>429.0</ele><time>2026-04-26T08:48:39.521Z</time></trkpt><trkpt lat="43.1531467" lon="13.1987317"><ele>429.0</ele><time>2026-04-26T08:48:40.521Z</time></trkpt><trkpt lat="43.15313" lon="13.198835"><ele>429.0</ele><time>2026-04-26T08:48:41.522Z</time></trkpt><trkpt lat="43.1530817" lon="13.1989517"><ele>429.0</ele><time>2026-04-26T08:48:42.522Z</time></trkpt><trkpt lat="43.1530067" lon="13.1990767"><ele>429.2</ele><time>2026-04-26T08:48:43.521Z</time></trkpt><trkpt lat="43.1529333" lon="13.1991817"><ele>429.4</ele><time>2026-04-26T08:48:44.521Z</time></trkpt><trkpt lat="43.1528767" lon="13.1992583"><ele>429.6</ele><time>2026-04-26T08:48:45.521Z</time></trkpt><trkpt lat="43.1528133" lon="13.1993517"><ele>429.8</ele><time>2026-04-26T08:48:47.521Z</time></trkpt><trkpt lat="43.1527383" lon="13.19947"><ele>430.0</ele><time>2026-04-26T08:49:16.521Z</time></trkpt><trkpt lat="43.1527067" lon="13.1995467"><ele>430.00000000000006</ele><time>2026-04-26T08:49:17.521Z</time></trkpt><trkpt lat="43.152685" lon="13.1996483"><ele>430.0</ele><time>2026-04-26T08:49:18.522Z</time></trkpt><trkpt lat="43.1526867" lon="13.1997617"><ele>430.0</ele><time>2026-04-26T08:49:19.522Z</time></trkpt><trkpt lat="43.1527117" lon="13.199875"><ele>430.0</ele><time>2026-04-26T08:49:20.521Z</time></trkpt><trkpt lat="43.15275" lon="13.1999867"><ele>430.00000000000006</ele><time>2026-04-26T08:49:21.521Z</time></trkpt><trkpt lat="43.1527967" lon="13.2000933"><ele>430.0</ele><time>2026-04-26T08:49:22.522Z</time></trkpt><trkpt lat="43.15285" lon="13.2002083"><ele>429.4</ele><time>2026-04-26T08:49:23.521Z</time></trkpt><trkpt lat="43.15291" lon="13.2003167"><ele>428.8</ele><time>2026-04-26T08:49:24.521Z</time></trkpt><trkpt lat="43.152975" lon="13.2004267"><ele>428.20000000000005</ele><time>2026-04-26T08:49:25.521Z</time></trkpt><trkpt lat="43.1530367" lon="13.2005333"><ele>427.6</ele><time>2026-04-26T08:49:26.521Z</time></trkpt><trkpt lat="43.1530933" lon="13.20063"><ele>427.0</ele><time>2026-04-26T08:49:27.521Z</time></trkpt><trkpt lat="43.1531417" lon="13.20072"><ele>427.0</ele><time>2026-04-26T08:49:28.522Z</time></trkpt><trkpt lat="43.1531883" lon="13.2008"><ele>427.00000000000006</ele><time>2026-04-26T08:49:29.522Z</time></trkpt><trkpt lat="43.1532783" lon="13.2008967"><ele>427.00000000000006</ele><time>2026-04-26T08:49:31.521Z</time></trkpt><trkpt lat="43.153355" lon="13.2008583"><ele>427.0</ele><time>2026-04-26T08:49:33.521Z</time></trkpt><trkpt lat="43.153385" lon="13.20072"><ele>427.0</ele><time>2026-04-26T08:49:35.521Z</time></trkpt><trkpt lat="43.1533567" lon="13.2006267"><ele>429.0</ele><time>2026-04-26T08:49:36.521Z</time></trkpt><trkpt lat="43.1533083" lon="13.200525"><ele>431.00000000000006</ele><time>2026-04-26T08:49:37.522Z</time></trkpt><trkpt lat="43.1532583" lon="13.20042"><ele>433.00000000000006</ele><time>2026-04-26T08:49:38.521Z</time></trkpt><trkpt lat="43.1532033" lon="13.2003133"><ele>435.0</ele><time>2026-04-26T08:49:39.521Z</time></trkpt><trkpt lat="43.1531633" lon="13.2002"><ele>437.0</ele><time>2026-04-26T08:49:40.521Z</time></trkpt><trkpt lat="43.1531467" lon="13.2000783"><ele>436.99999999999994</ele><time>2026-04-26T08:49:41.521Z</time></trkpt><trkpt lat="43.1531517" lon="13.1999617"><ele>437.0</ele><time>2026-04-26T08:49:42.521Z</time></trkpt><trkpt lat="43.153185" lon="13.19985"><ele>437.0</ele><time>2026-04-26T08:49:43.522Z</time></trkpt><trkpt lat="43.1532333" lon="13.1997583"><ele>437.0</ele><time>2026-04-26T08:49:44.521Z</time></trkpt><trkpt lat="43.1533" lon="13.199685"><ele>436.99999999999994</ele><time>2026-04-26T08:49:45.522Z</time></trkpt><trkpt lat="43.1533783" lon="13.199625"><ele>437.0</ele><time>2026-04-26T08:49:46.521Z</time></trkpt><trkpt lat="43.153465" lon="13.19957"><ele>439.25</ele><time>2026-04-26T08:49:47.521Z</time></trkpt><trkpt lat="43.153575" lon="13.1995067"><ele>441.5</ele><time>2026-04-26T08:49:48.521Z</time></trkpt><trkpt lat="43.1536933" lon="13.19946"><ele>443.75</ele><time>2026-04-26T08:49:49.521Z</time></trkpt><trkpt lat="43.1538133" lon="13.1994183"><ele>446.0</ele><time>2026-04-26T08:49:50.521Z</time></trkpt><trkpt lat="43.1539483" lon="13.199395"><ele>448.20000000000005</ele><time>2026-04-26T08:49:51.521Z</time></trkpt><trkpt lat="43.1540767" lon="13.19937"><ele>450.40000000000003</ele><time>2026-04-26T08:49:52.521Z</time></trkpt><trkpt lat="43.1541933" lon="13.1993517"><ele>452.6</ele><time>2026-04-26T08:49:53.521Z</time></trkpt><trkpt lat="43.1542917" lon="13.1993367"><ele>454.8</ele><time>2026-04-26T08:49:54.521Z</time></trkpt><trkpt lat="43.154375" lon="13.19932"><ele>457.0</ele><time>2026-04-26T08:49:55.521Z</time></trkpt><trkpt lat="43.1544467" lon="13.1992833"><ele>457.0</ele><time>2026-04-26T08:49:56.521Z</time></trkpt><trkpt lat="43.1545067" lon="13.1992217"><ele>457.00000000000006</ele><time>2026-04-26T08:49:57.522Z</time></trkpt><trkpt lat="43.1545517" lon="13.1991167"><ele>457.00000000000006</ele><time>2026-04-26T08:49:58.521Z</time></trkpt><trkpt lat="43.1545817" lon="13.198995"><ele>457.0</ele><time>2026-04-26T08:49:59.522Z</time></trkpt><trkpt lat="43.1546" lon="13.1988333"><ele>457.0</ele><time>2026-04-26T08:50:00.521Z</time></trkpt><trkpt lat="43.154625" lon="13.1986633"><ele>457.25</ele><time>2026-04-26T08:50:01.521Z</time></trkpt><trkpt lat="43.1546433" lon="13.1984867"><ele>457.5</ele><time>2026-04-26T08:50:02.521Z</time></trkpt><trkpt lat="43.154675" lon="13.19829"><ele>457.75</ele><time>2026-04-26T08:50:03.521Z</time></trkpt><trkpt lat="43.1547033" lon="13.1981067"><ele>458.0</ele><time>2026-04-26T08:50:04.521Z</time></trkpt><trkpt lat="43.1547283" lon="13.1979367"><ele>459.4</ele><time>2026-04-26T08:50:05.521Z</time></trkpt><trkpt lat="43.154755" lon="13.1977983"><ele>460.79999999999995</ele><time>2026-04-26T08:50:06.521Z</time></trkpt><trkpt lat="43.15477" lon="13.1976683"><ele>462.2</ele><time>2026-04-26T08:50:07.521Z</time></trkpt><trkpt lat="43.1547783" lon="13.1975367"><ele>463.6</ele><time>2026-04-26T08:50:08.521Z</time></trkpt><trkpt lat="43.1547783" lon="13.1974033"><ele>465.0</ele><time>2026-04-26T08:50:09.521Z</time></trkpt><trkpt lat="43.1547733" lon="13.1972583"><ele>467.4</ele><time>2026-04-26T08:50:10.521Z</time></trkpt><trkpt lat="43.1547633" lon="13.197115"><ele>469.8</ele><time>2026-04-26T08:50:11.521Z</time></trkpt><trkpt lat="43.1547767" lon="13.1969967"><ele>472.20000000000005</ele><time>2026-04-26T08:50:12.52Z</time></trkpt><trkpt lat="43.154815" lon="13.1968917"><ele>474.6</ele><time>2026-04-26T08:50:13.52Z</time></trkpt><trkpt lat="43.1548817" lon="13.1968017"><ele>477.0</ele><time>2026-04-26T08:50:14.521Z</time></trkpt><trkpt lat="43.1549667" lon="13.1967417"><ele>478.0</ele><time>2026-04-26T08:50:15.52Z</time></trkpt><trkpt lat="43.1550733" lon="13.1967083"><ele>479.0</ele><time>2026-04-26T08:50:16.52Z</time></trkpt><trkpt lat="43.1552" lon="13.1967017"><ele>480.0</ele><time>2026-04-26T08:50:17.52Z</time></trkpt><trkpt lat="43.15532" lon="13.19671"><ele>481.0</ele><time>2026-04-26T08:50:18.52Z</time></trkpt><trkpt lat="43.15542" lon="13.1967283"><ele>481.00000000000006</ele><time>2026-04-26T08:50:19.52Z</time></trkpt><trkpt lat="43.1555083" lon="13.1967383"><ele>481.0</ele><time>2026-04-26T08:50:20.52Z</time></trkpt><trkpt lat="43.15559" lon="13.1967583"><ele>481.0</ele><time>2026-04-26T08:50:21.52Z</time></trkpt><trkpt lat="43.155685" lon="13.1967233"><ele>481.0</ele><time>2026-04-26T08:50:23.52Z</time></trkpt><trkpt lat="43.1557" lon="13.196595"><ele>481.00000000000006</ele><time>2026-04-26T08:50:25.521Z</time></trkpt><trkpt lat="43.1556817" lon="13.1965033"><ele>481.0</ele><time>2026-04-26T08:50:26.52Z</time></trkpt><trkpt lat="43.1556283" lon="13.1963767"><ele>483.5</ele><time>2026-04-26T08:50:28.52Z</time></trkpt><trkpt lat="43.1555633" lon="13.1963083"><ele>486.0</ele><time>2026-04-26T08:50:29.521Z</time></trkpt><trkpt lat="43.1554617" lon="13.1962283"><ele>488.5</ele><time>2026-04-26T08:50:30.52Z</time></trkpt><trkpt lat="43.155325" lon="13.19614"><ele>491.0</ele><time>2026-04-26T08:50:31.52Z</time></trkpt><trkpt lat="43.1551367" lon="13.1960483"><ele>491.0</ele><time>2026-04-26T08:50:32.52Z</time></trkpt><trkpt lat="43.154925" lon="13.195965"><ele>491.0</ele><time>2026-04-26T08:50:33.521Z</time></trkpt><trkpt lat="43.154745" lon="13.195895"><ele>491.0</ele><time>2026-04-26T08:50:34.52Z</time></trkpt><trkpt lat="43.1546017" lon="13.1958067"><ele>490.3333333333333</ele><time>2026-04-26T08:50:35.521Z</time></trkpt><trkpt lat="43.1544717" lon="13.1956983"><ele>489.66666666666663</ele><time>2026-04-26T08:50:36.52Z</time></trkpt><trkpt lat="43.154355" lon="13.195555"><ele>489.0</ele><time>2026-04-26T08:50:37.52Z</time></trkpt><trkpt lat="43.15424" lon="13.1953783"><ele>492.0</ele><time>2026-04-26T08:50:38.521Z</time></trkpt><trkpt lat="43.154115" lon="13.1951867"><ele>495.0</ele><time>2026-04-26T08:50:39.52Z</time></trkpt><trkpt lat="43.15398" lon="13.194995"><ele>498.0</ele><time>2026-04-26T08:50:40.52Z</time></trkpt><trkpt lat="43.1538583" lon="13.1948217"><ele>504.75</ele><time>2026-04-26T08:50:41.52Z</time></trkpt><trkpt lat="43.1537483" lon="13.19469"><ele>511.5</ele><time>2026-04-26T08:50:42.521Z</time></trkpt><trkpt lat="43.1536433" lon="13.1945833"><ele>518.25</ele><time>2026-04-26T08:50:43.52Z</time></trkpt><trkpt lat="43.1535133" lon="13.1945033"><ele>525.0</ele><time>2026-04-26T08:50:44.521Z</time></trkpt><trkpt lat="43.1533617" lon="13.1944417"><ele>524.0</ele><time>2026-04-26T08:50:45.52Z</time></trkpt><trkpt lat="43.1531917" lon="13.1943933"><ele>523.0</ele><time>2026-04-26T08:50:46.52Z</time></trkpt><trkpt lat="43.1530233" lon="13.19434"><ele>522.0</ele><time>2026-04-26T08:50:47.52Z</time></trkpt><trkpt lat="43.152865" lon="13.1942933"><ele>522.0</ele><time>2026-04-26T08:50:48.52Z</time></trkpt><trkpt lat="43.1527267" lon="13.1942183"><ele>522.0</ele><time>2026-04-26T08:50:49.52Z</time></trkpt><trkpt lat="43.1525917" lon="13.1941283"><ele>522.0</ele><time>2026-04-26T08:50:50.52Z</time></trkpt><trkpt lat="43.15245" lon="13.1940217"><ele>526.6666666666666</ele><time>2026-04-26T08:50:51.52Z</time></trkpt><trkpt lat="43.1523133" lon="13.193885"><ele>531.3333333333333</ele><time>2026-04-26T08:50:52.52Z</time></trkpt><trkpt lat="43.1521617" lon="13.19374"><ele>536.0</ele><time>2026-04-26T08:50:53.52Z</time></trkpt><trkpt lat="43.15201" lon="13.1936033"><ele>536.0</ele><time>2026-04-26T08:50:54.52Z</time></trkpt><trkpt lat="43.1518783" lon="13.193485"><ele>536.0</ele><time>2026-04-26T08:50:55.521Z</time></trkpt><trkpt lat="43.1517733" lon="13.19338"><ele>536.0</ele><time>2026-04-26T08:50:56.52Z</time></trkpt><trkpt lat="43.15169" lon="13.1932983"><ele>536.0</ele><time>2026-04-26T08:50:57.52Z</time></trkpt><trkpt lat="43.1516317" lon="13.1932267"><ele>538.4</ele><time>2026-04-26T08:50:58.521Z</time></trkpt><trkpt lat="43.1515917" lon="13.1930933"><ele>540.8</ele><time>2026-04-26T08:51:00.521Z</time></trkpt><trkpt lat="43.1516567" lon="13.1930033"><ele>543.1999999999999</ele><time>2026-04-26T08:51:02.52Z</time></trkpt><trkpt lat="43.1517267" lon="13.19301"><ele>545.6</ele><time>2026-04-26T08:51:03.521Z</time></trkpt><trkpt lat="43.15182" lon="13.19305"><ele>548.0</ele><time>2026-04-26T08:51:04.52Z</time></trkpt><trkpt lat="43.1519417" lon="13.1931183"><ele>548.0</ele><time>2026-04-26T08:51:05.521Z</time></trkpt><trkpt lat="43.1520917" lon="13.193205"><ele>548.0</ele><time>2026-04-26T08:51:06.52Z</time></trkpt><trkpt lat="43.152235" lon="13.1932833"><ele>548.0</ele><time>2026-04-26T08:51:07.52Z</time></trkpt><trkpt lat="43.1523567" lon="13.1933433"><ele>548.0</ele><time>2026-04-26T08:51:08.52Z</time></trkpt><trkpt lat="43.152455" lon="13.19339"><ele>548.0</ele><time>2026-04-26T08:51:09.521Z</time></trkpt><trkpt lat="43.15253" lon="13.1934217"><ele>548.0</ele><time>2026-04-26T08:51:10.521Z</time></trkpt><trkpt lat="43.1526517" lon="13.1933833"><ele>548.0</ele><time>2026-04-26T08:51:12.521Z</time></trkpt><trkpt lat="43.1526917" lon="13.193315"><ele>548.0</ele><time>2026-04-26T08:51:13.52Z</time></trkpt><trkpt lat="43.152695" lon="13.19314"><ele>548.0</ele><time>2026-04-26T08:51:15.52Z</time></trkpt><trkpt lat="43.15264" lon="13.1930433"><ele>548.0</ele><time>2026-04-26T08:51:16.52Z</time></trkpt><trkpt lat="43.15255" lon="13.192925"><ele>548.0</ele><time>2026-04-26T08:51:17.52Z</time></trkpt><trkpt lat="43.1524167" lon="13.192795"><ele>548.0</ele><time>2026-04-26T08:51:18.52Z</time></trkpt><trkpt lat="43.1522717" lon="13.1926483"><ele>548.0</ele><time>2026-04-26T08:51:19.52Z</time></trkpt><trkpt lat="43.1521417" lon="13.192495"><ele>548.0</ele><time>2026-04-26T08:51:20.52Z</time></trkpt><trkpt lat="43.152045" lon="13.19235"><ele>548.0</ele><time>2026-04-26T08:51:21.52Z</time></trkpt><trkpt lat="43.1519783" lon="13.1922217"><ele>548.0</ele><time>2026-04-26T08:51:22.52Z</time></trkpt><trkpt lat="43.1519283" lon="13.192105"><ele>549.5</ele><time>2026-04-26T08:51:23.52Z</time></trkpt><trkpt lat="43.151895" lon="13.1919933"><ele>551.0</ele><time>2026-04-26T08:51:24.52Z</time></trkpt><trkpt lat="43.1518667" lon="13.1918717"><ele>552.5</ele><time>2026-04-26T08:51:25.52Z</time></trkpt><trkpt lat="43.151855" lon="13.1917467"><ele>554.0</ele><time>2026-04-26T08:51:26.52Z</time></trkpt><trkpt lat="43.1518617" lon="13.1916333"><ele>555.5</ele><time>2026-04-26T08:51:27.52Z</time></trkpt><trkpt lat="43.1518833" lon="13.1915267"><ele>557.0</ele><time>2026-04-26T08:51:28.52Z</time></trkpt><trkpt lat="43.1519217" lon="13.1914117"><ele>560.6</ele><time>2026-04-26T08:51:29.52Z</time></trkpt><trkpt lat="43.1519567" lon="13.1913067"><ele>564.2</ele><time>2026-04-26T08:51:30.52Z</time></trkpt><trkpt lat="43.15198" lon="13.1912083"><ele>567.8</ele><time>2026-04-26T08:51:31.52Z</time></trkpt><trkpt lat="43.15198" lon="13.1911217"><ele>571.4</ele><time>2026-04-26T08:51:32.521Z</time></trkpt><trkpt lat="43.1519067" lon="13.1909917"><ele>575.0</ele><time>2026-04-26T08:51:34.52Z</time></trkpt><trkpt lat="43.1517767" lon="13.1909583"><ele>575.0</ele><time>2026-04-26T08:51:36.521Z</time></trkpt><trkpt lat="43.15168" lon="13.1909917"><ele>575.0</ele><time>2026-04-26T08:51:37.521Z</time></trkpt><trkpt lat="43.151575" lon="13.191035"><ele>575.0</ele><time>2026-04-26T08:51:38.52Z</time></trkpt><trkpt lat="43.1514767" lon="13.1910583"><ele>575.0</ele><time>2026-04-26T08:51:39.52Z</time></trkpt><trkpt lat="43.1514017" lon="13.1910367"><ele>575.0</ele><time>2026-04-26T08:51:40.52Z</time></trkpt><trkpt lat="43.1513367" lon="13.19099"><ele>576.4</ele><time>2026-04-26T08:51:41.52Z</time></trkpt><trkpt lat="43.1512717" lon="13.1909317"><ele>577.8</ele><time>2026-04-26T08:51:42.52Z</time></trkpt><trkpt lat="43.1512067" lon="13.1908467"><ele>579.2</ele><time>2026-04-26T08:51:43.52Z</time></trkpt><trkpt lat="43.1511333" lon="13.1907483"><ele>580.6</ele><time>2026-04-26T08:51:44.52Z</time></trkpt><trkpt lat="43.1510533" lon="13.19065"><ele>582.0</ele><time>2026-04-26T08:51:45.521Z</time></trkpt><trkpt lat="43.1509667" lon="13.190575"><ele>582.0</ele><time>2026-04-26T08:51:46.52Z</time></trkpt><trkpt lat="43.150885" lon="13.190505"><ele>582.0</ele><time>2026-04-26T08:51:47.52Z</time></trkpt><trkpt lat="43.150815" lon="13.1904333"><ele>582.0</ele><time>2026-04-26T08:51:48.52Z</time></trkpt><trkpt lat="43.15076" lon="13.1903517"><ele>582.0</ele><time>2026-04-26T08:51:49.52Z</time></trkpt><trkpt lat="43.1507083" lon="13.1902533"><ele>582.0</ele><time>2026-04-26T08:51:50.521Z</time></trkpt><trkpt lat="43.1506733" lon="13.19012"><ele>583.2</ele><time>2026-04-26T08:51:51.52Z</time></trkpt><trkpt lat="43.15063" lon="13.1900033"><ele>584.4000000000001</ele><time>2026-04-26T08:51:52.52Z</time></trkpt><trkpt lat="43.1505783" lon="13.1898917"><ele>585.5999999999999</ele><time>2026-04-26T08:51:53.52Z</time></trkpt><trkpt lat="43.1504983" lon="13.1897867"><ele>586.8</ele><time>2026-04-26T08:51:54.521Z</time></trkpt><trkpt lat="43.1503967" lon="13.1897017"><ele>588.0</ele><time>2026-04-26T08:51:55.52Z</time></trkpt><trkpt lat="43.150275" lon="13.1896317"><ele>588.0</ele><time>2026-04-26T08:51:56.521Z</time></trkpt><trkpt lat="43.15018" lon="13.189545"><ele>588.0</ele><time>2026-04-26T08:51:57.52Z</time></trkpt><trkpt lat="43.1500933" lon="13.1894433"><ele>588.0</ele><time>2026-04-26T08:51:58.52Z</time></trkpt><trkpt lat="43.15" lon="13.189325"><ele>588.0</ele><time>2026-04-26T08:51:59.521Z</time></trkpt><trkpt lat="43.1499333" lon="13.1892083"><ele>587.1999999999999</ele><time>2026-04-26T08:52:00.52Z</time></trkpt><trkpt lat="43.1498667" lon="13.1891233"><ele>586.4</ele><time>2026-04-26T08:52:01.52Z</time></trkpt><trkpt lat="43.1497883" lon="13.189055"><ele>585.5999999999999</ele><time>2026-04-26T08:52:02.52Z</time></trkpt><trkpt lat="43.14969" lon="13.1889983"><ele>584.8</ele><time>2026-04-26T08:52:03.52Z</time></trkpt><trkpt lat="43.1495533" lon="13.188965"><ele>584.0</ele><time>2026-04-26T08:52:04.521Z</time></trkpt><trkpt lat="43.14939" lon="13.1889383"><ele>589.6666666666666</ele><time>2026-04-26T08:52:05.52Z</time></trkpt><trkpt lat="43.14922" lon="13.1888983"><ele>595.3333333333334</ele><time>2026-04-26T08:52:06.521Z</time></trkpt><trkpt lat="43.1490533" lon="13.18885"><ele>601.0</ele><time>2026-04-26T08:52:07.52Z</time></trkpt><trkpt lat="43.1489033" lon="13.1888133"><ele>601.0</ele><time>2026-04-26T08:52:08.52Z</time></trkpt><trkpt lat="43.14877" lon="13.1887683"><ele>601.0</ele><time>2026-04-26T08:52:09.52Z</time></trkpt><trkpt lat="43.148635" lon="13.1886983"><ele>601.0</ele><time>2026-04-26T08:52:10.521Z</time></trkpt><trkpt lat="43.1485033" lon="13.188615"><ele>601.0</ele><time>2026-04-26T08:52:11.521Z</time></trkpt><trkpt lat="43.1483783" lon="13.1885283"><ele>601.0</ele><time>2026-04-26T08:52:12.52Z</time></trkpt><trkpt lat="43.1482667" lon="13.1884433"><ele>601.0</ele><time>2026-04-26T08:52:13.52Z</time></trkpt><trkpt lat="43.1481683" lon="13.1883383"><ele>601.0</ele><time>2026-04-26T08:52:14.52Z</time></trkpt><trkpt lat="43.14808" lon="13.1882267"><ele>601.0</ele><time>2026-04-26T08:52:15.52Z</time></trkpt><trkpt lat="43.147995" lon="13.1881067"><ele>599.8</ele><time>2026-04-26T08:52:16.52Z</time></trkpt><trkpt lat="43.1479117" lon="13.187985"><ele>598.6</ele><time>2026-04-26T08:52:17.52Z</time></trkpt><trkpt lat="43.1478383" lon="13.187865"><ele>597.4</ele><time>2026-04-26T08:52:18.52Z</time></trkpt><trkpt lat="43.147785" lon="13.18775"><ele>596.2</ele><time>2026-04-26T08:52:19.52Z</time></trkpt><trkpt lat="43.1477383" lon="13.187645"><ele>595.0</ele><time>2026-04-26T08:52:20.52Z</time></trkpt><trkpt lat="43.1477033" lon="13.1875467"><ele>595.0</ele><time>2026-04-26T08:52:21.521Z</time></trkpt><trkpt lat="43.1476867" lon="13.1874567"><ele>595.0</ele><time>2026-04-26T08:52:22.521Z</time></trkpt><trkpt lat="43.147645" lon="13.18732"><ele>595.0</ele><time>2026-04-26T08:52:24.52Z</time></trkpt><trkpt lat="43.1475933" lon="13.18723"><ele>595.0</ele><time>2026-04-26T08:52:26.52Z</time></trkpt><trkpt lat="43.1475733" lon="13.1871467"><ele>595.0</ele><time>2026-04-26T08:52:28.521Z</time></trkpt><trkpt lat="43.14754" lon="13.1870683"><ele>595.0</ele><time>2026-04-26T08:52:31.52Z</time></trkpt><trkpt lat="43.1475433" lon="13.1869383"><ele>598.75</ele><time>2026-04-26T08:59:12.52Z</time></trkpt><trkpt lat="43.1474833" lon="13.1867517"><ele>602.5</ele><time>2026-04-26T08:59:14.52Z</time></trkpt><trkpt lat="43.147465" lon="13.18659"><ele>606.25</ele><time>2026-04-26T08:59:15.52Z</time></trkpt><trkpt lat="43.1474383" lon="13.186405"><ele>610.0</ele><time>2026-04-26T08:59:16.52Z</time></trkpt><trkpt lat="43.1474183" lon="13.1862217"><ele>612.25</ele><time>2026-04-26T08:59:17.52Z</time></trkpt><trkpt lat="43.14739" lon="13.1860283"><ele>614.5</ele><time>2026-04-26T08:59:18.52Z</time></trkpt><trkpt lat="43.147365" lon="13.1858317"><ele>616.75</ele><time>2026-04-26T08:59:19.52Z</time></trkpt><trkpt lat="43.1473333" lon="13.1856433"><ele>619.0</ele><time>2026-04-26T08:59:20.52Z</time></trkpt><trkpt lat="43.1473117" lon="13.1854633"><ele>610.0</ele><time>2026-04-26T08:59:21.521Z</time></trkpt><trkpt lat="43.1472867" lon="13.185295"><ele>601.0</ele><time>2026-04-26T08:59:22.52Z</time></trkpt><trkpt lat="43.1472683" lon="13.1851183"><ele>592.0</ele><time>2026-04-26T08:59:23.52Z</time></trkpt><trkpt lat="43.14725" lon="13.1849333"><ele>583.0</ele><time>2026-04-26T08:59:24.52Z</time></trkpt><trkpt lat="43.1472383" lon="13.184735"><ele>583.0</ele><time>2026-04-26T08:59:25.52Z</time></trkpt><trkpt lat="43.14722" lon="13.184525"><ele>583.0</ele><time>2026-04-26T08:59:26.52Z</time></trkpt><trkpt lat="43.1472" lon="13.184315"><ele>583.0</ele><time>2026-04-26T08:59:27.52Z</time></trkpt><trkpt lat="43.1471883" lon="13.1841"><ele>582.75</ele><time>2026-04-26T08:59:28.52Z</time></trkpt><trkpt lat="43.14717" lon="13.183895"><ele>582.5</ele><time>2026-04-26T08:59:29.52Z</time></trkpt><trkpt lat="43.1471617" lon="13.1836983"><ele>582.25</ele><time>2026-04-26T08:59:30.52Z</time></trkpt><trkpt lat="43.1471617" lon="13.183495"><ele>582.0</ele><time>2026-04-26T08:59:31.52Z</time></trkpt><trkpt lat="43.1471633" lon="13.18329"><ele>582.0</ele><time>2026-04-26T08:59:32.52Z</time></trkpt><trkpt lat="43.1471633" lon="13.1830867"><ele>582.0</ele><time>2026-04-26T08:59:33.52Z</time></trkpt><trkpt lat="43.1471667" lon="13.1828833"><ele>582.0</ele><time>2026-04-26T08:59:34.521Z</time></trkpt><trkpt lat="43.14717" lon="13.182685"><ele>582.0</ele><time>2026-04-26T08:59:35.52Z</time></trkpt><trkpt lat="43.1471767" lon="13.182485"><ele>581.3333333333334</ele><time>2026-04-26T08:59:36.521Z</time></trkpt><trkpt lat="43.1471833" lon="13.1822817"><ele>580.6666666666667</ele><time>2026-04-26T08:59:37.521Z</time></trkpt><trkpt lat="43.147195" lon="13.1820733"><ele>580.0</ele><time>2026-04-26T08:59:38.521Z</time></trkpt><trkpt lat="43.1472083" lon="13.1818667"><ele>580.0</ele><time>2026-04-26T08:59:39.52Z</time></trkpt><trkpt lat="43.1472217" lon="13.1816733"><ele>580.0</ele><time>2026-04-26T08:59:40.52Z</time></trkpt><trkpt lat="43.1472283" lon="13.18149"><ele>580.0</ele><time>2026-04-26T08:59:41.52Z</time></trkpt><trkpt lat="43.1472417" lon="13.1813017"><ele>580.0</ele><time>2026-04-26T08:59:42.52Z</time></trkpt><trkpt lat="43.1472583" lon="13.1811067"><ele>577.5</ele><time>2026-04-26T08:59:43.52Z</time></trkpt><trkpt lat="43.147285" lon="13.180915"><ele>575.0</ele><time>2026-04-26T08:59:44.52Z</time></trkpt><trkpt lat="43.14731" lon="13.18073"><ele>572.5</ele><time>2026-04-26T08:59:45.52Z</time></trkpt><trkpt lat="43.1473467" lon="13.1805433"><ele>570.0</ele><time>2026-04-26T08:59:46.52Z</time></trkpt><trkpt lat="43.147385" lon="13.1803517"><ele>574.25</ele><time>2026-04-26T08:59:47.52Z</time></trkpt><trkpt lat="43.147435" lon="13.1801633"><ele>578.5</ele><time>2026-04-26T08:59:48.519Z</time></trkpt><trkpt lat="43.1474883" lon="13.1799767"><ele>582.75</ele><time>2026-04-26T08:59:49.519Z</time></trkpt><trkpt lat="43.1475483" lon="13.1797917"><ele>587.0</ele><time>2026-04-26T08:59:50.519Z</time></trkpt><trkpt lat="43.1476083" lon="13.1796"><ele>587.0</ele><time>2026-04-26T08:59:51.52Z</time></trkpt><trkpt lat="43.1476733" lon="13.179405"><ele>587.0</ele><time>2026-04-26T08:59:52.519Z</time></trkpt><trkpt lat="43.147735" lon="13.1792033"><ele>587.0</ele><time>2026-04-26T08:59:53.519Z</time></trkpt><trkpt lat="43.1478" lon="13.179005"><ele>581.3333333333333</ele><time>2026-04-26T08:59:54.519Z</time></trkpt><trkpt lat="43.1478633" lon="13.1788167"><ele>575.6666666666666</ele><time>2026-04-26T08:59:55.52Z</time></trkpt><trkpt lat="43.1479233" lon="13.1786183"><ele>570.0</ele><time>2026-04-26T08:59:56.519Z</time></trkpt><trkpt lat="43.1479833" lon="13.1784283"><ele>570.0</ele><time>2026-04-26T08:59:57.519Z</time></trkpt><trkpt lat="43.148035" lon="13.178255"><ele>570.0</ele><time>2026-04-26T08:59:58.519Z</time></trkpt><trkpt lat="43.14809" lon="13.1780817"><ele>570.0</ele><time>2026-04-26T08:59:59.519Z</time></trkpt><trkpt lat="43.148145" lon="13.1778967"><ele>570.0</ele><time>2026-04-26T09:00:00.52Z</time></trkpt><trkpt lat="43.1482" lon="13.1777"><ele>575.3333333333334</ele><time>2026-04-26T09:00:01.519Z</time></trkpt><trkpt lat="43.14826" lon="13.177505"><ele>580.6666666666667</ele><time>2026-04-26T09:00:02.519Z</time></trkpt><trkpt lat="43.14832" lon="13.1773083"><ele>586.0</ele><time>2026-04-26T09:00:03.519Z</time></trkpt><trkpt lat="43.1483717" lon="13.1770917"><ele>586.0</ele><time>2026-04-26T09:00:04.519Z</time></trkpt><trkpt lat="43.1484283" lon="13.1768817"><ele>586.0</ele><time>2026-04-26T09:00:05.519Z</time></trkpt><trkpt lat="43.1484817" lon="13.1766783"><ele>586.0</ele><time>2026-04-26T09:00:06.519Z</time></trkpt><trkpt lat="43.14853" lon="13.1764783"><ele>583.5</ele><time>2026-04-26T09:00:07.519Z</time></trkpt><trkpt lat="43.14858" lon="13.1762983"><ele>581.0</ele><time>2026-04-26T09:00:08.519Z</time></trkpt><trkpt lat="43.14863" lon="13.1761217"><ele>578.5</ele><time>2026-04-26T09:00:09.519Z</time></trkpt><trkpt lat="43.1486717" lon="13.1759517"><ele>576.0</ele><time>2026-04-26T09:00:10.519Z</time></trkpt><trkpt lat="43.1487117" lon="13.1757767"><ele>573.75</ele><time>2026-04-26T09:00:11.519Z</time></trkpt><trkpt lat="43.1487483" lon="13.1756167"><ele>571.5</ele><time>2026-04-26T09:00:12.519Z</time></trkpt><trkpt lat="43.1487867" lon="13.1754617"><ele>569.25</ele><time>2026-04-26T09:00:13.519Z</time></trkpt><trkpt lat="43.1488167" lon="13.17531"><ele>567.0</ele><time>2026-04-26T09:00:14.519Z</time></trkpt><trkpt lat="43.1488433" lon="13.1751517"><ele>567.0</ele><time>2026-04-26T09:00:15.519Z</time></trkpt><trkpt lat="43.14886" lon="13.1749783"><ele>567.0</ele><time>2026-04-26T09:00:16.519Z</time></trkpt><trkpt lat="43.148865" lon="13.1748033"><ele>567.0</ele><time>2026-04-26T09:00:17.519Z</time></trkpt><trkpt lat="43.1488567" lon="13.1746333"><ele>567.0</ele><time>2026-04-26T09:00:18.519Z</time></trkpt><trkpt lat="43.148845" lon="13.17448"><ele>567.5</ele><time>2026-04-26T09:00:19.519Z</time></trkpt><trkpt lat="43.1488267" lon="13.17433"><ele>568.0</ele><time>2026-04-26T09:00:20.519Z</time></trkpt><trkpt lat="43.1488233" lon="13.1741767"><ele>568.5</ele><time>2026-04-26T09:00:21.52Z</time></trkpt><trkpt lat="43.14883" lon="13.1740183"><ele>569.0</ele><time>2026-04-26T09:00:22.519Z</time></trkpt><trkpt lat="43.1488467" lon="13.1738583"><ele>569.0</ele><time>2026-04-26T09:00:23.519Z</time></trkpt><trkpt lat="43.1488667" lon="13.173705"><ele>569.0</ele><time>2026-04-26T09:00:24.519Z</time></trkpt><trkpt lat="43.1488933" lon="13.173545"><ele>569.0</ele><time>2026-04-26T09:00:25.519Z</time></trkpt><trkpt lat="43.1489383" lon="13.173385"><ele>569.0</ele><time>2026-04-26T09:00:26.519Z</time></trkpt><trkpt lat="43.148975" lon="13.1732367"><ele>574.8</ele><time>2026-04-26T09:00:27.519Z</time></trkpt><trkpt lat="43.1490167" lon="13.1731033"><ele>580.5999999999999</ele><time>2026-04-26T09:00:28.52Z</time></trkpt><trkpt lat="43.1490517" lon="13.1729967"><ele>586.4</ele><time>2026-04-26T09:00:29.519Z</time></trkpt><trkpt lat="43.14909" lon="13.1729083"><ele>592.1999999999999</ele><time>2026-04-26T09:00:30.52Z</time></trkpt><trkpt lat="43.1491233" lon="13.1727633"><ele>598.0</ele><time>2026-04-26T09:00:32.519Z</time></trkpt><trkpt lat="43.1490867" lon="13.1726183"><ele>598.1999999999999</ele><time>2026-04-26T09:00:34.519Z</time></trkpt><trkpt lat="43.1490383" lon="13.17256"><ele>598.4</ele><time>2026-04-26T09:00:35.519Z</time></trkpt><trkpt lat="43.1489683" lon="13.1725117"><ele>598.5999999999999</ele><time>2026-04-26T09:00:36.519Z</time></trkpt><trkpt lat="43.1488617" lon="13.172495"><ele>598.8</ele><time>2026-04-26T09:00:37.519Z</time></trkpt><trkpt lat="43.1487217" lon="13.1725017"><ele>599.0</ele><time>2026-04-26T09:00:38.519Z</time></trkpt><trkpt lat="43.1485383" lon="13.1725317"><ele>599.0</ele><time>2026-04-26T09:00:39.519Z</time></trkpt><trkpt lat="43.1483267" lon="13.1725817"><ele>599.0</ele><time>2026-04-26T09:00:40.519Z</time></trkpt><trkpt lat="43.1481217" lon="13.1726467"><ele>599.0</ele><time>2026-04-26T09:00:41.519Z</time></trkpt><trkpt lat="43.1479283" lon="13.172735"><ele>607.6666666666666</ele><time>2026-04-26T09:00:42.519Z</time></trkpt><trkpt lat="43.1477617" lon="13.1728217"><ele>616.3333333333334</ele><time>2026-04-26T09:00:43.519Z</time></trkpt><trkpt lat="43.1476067" lon="13.1729267"><ele>625.0</ele><time>2026-04-26T09:00:44.52Z</time></trkpt><trkpt lat="43.1474467" lon="13.17301"><ele>629.5</ele><time>2026-04-26T09:00:45.519Z</time></trkpt><trkpt lat="43.1473017" lon="13.173085"><ele>634.0</ele><time>2026-04-26T09:00:46.519Z</time></trkpt><trkpt lat="43.1471617" lon="13.1731433"><ele>638.5</ele><time>2026-04-26T09:00:47.519Z</time></trkpt><trkpt lat="43.1470317" lon="13.173185"><ele>643.0</ele><time>2026-04-26T09:00:48.519Z</time></trkpt><trkpt lat="43.146895" lon="13.1732167"><ele>632.0</ele><time>2026-04-26T09:00:49.519Z</time></trkpt><trkpt lat="43.146745" lon="13.1732533"><ele>621.0</ele><time>2026-04-26T09:00:50.52Z</time></trkpt><trkpt lat="43.1465917" lon="13.1732817"><ele>610.0</ele><time>2026-04-26T09:00:51.519Z</time></trkpt><trkpt lat="43.1464367" lon="13.1732983"><ele>610.0</ele><time>2026-04-26T09:00:52.519Z</time></trkpt><trkpt lat="43.14629" lon="13.1733033"><ele>610.0</ele><time>2026-04-26T09:00:53.52Z</time></trkpt><trkpt lat="43.14614" lon="13.173335"><ele>610.0</ele><time>2026-04-26T09:00:54.52Z</time></trkpt><trkpt lat="43.1460033" lon="13.17338"><ele>610.0</ele><time>2026-04-26T09:00:55.519Z</time></trkpt><trkpt lat="43.1458733" lon="13.1734317"><ele>610.0</ele><time>2026-04-26T09:00:56.52Z</time></trkpt><trkpt lat="43.1457733" lon="13.1734433"><ele>610.0</ele><time>2026-04-26T09:00:57.519Z</time></trkpt><trkpt lat="43.1456833" lon="13.1734683"><ele>610.0</ele><time>2026-04-26T09:00:58.519Z</time></trkpt><trkpt lat="43.1456067" lon="13.1734617"><ele>610.0</ele><time>2026-04-26T09:00:59.519Z</time></trkpt><trkpt lat="43.1455383" lon="13.173435"><ele>610.0</ele><time>2026-04-26T09:01:00.52Z</time></trkpt><trkpt lat="43.145465" lon="13.1733683"><ele>610.0</ele><time>2026-04-26T09:01:01.519Z</time></trkpt><trkpt lat="43.145395" lon="13.1732817"><ele>610.25</ele><time>2026-04-26T09:01:02.519Z</time></trkpt><trkpt lat="43.1453267" lon="13.1731917"><ele>610.5</ele><time>2026-04-26T09:01:03.519Z</time></trkpt><trkpt lat="43.1452667" lon="13.1730683"><ele>610.75</ele><time>2026-04-26T09:01:04.519Z</time></trkpt><trkpt lat="43.1452117" lon="13.1729083"><ele>611.0</ele><time>2026-04-26T09:01:05.519Z</time></trkpt><trkpt lat="43.145155" lon="13.1727333"><ele>611.0</ele><time>2026-04-26T09:01:06.519Z</time></trkpt><trkpt lat="43.1451" lon="13.1725433"><ele>611.0</ele><time>2026-04-26T09:01:07.519Z</time></trkpt><trkpt lat="43.1450417" lon="13.1723417"><ele>611.0</ele><time>2026-04-26T09:01:08.519Z</time></trkpt><trkpt lat="43.1449767" lon="13.1721317"><ele>614.3333333333333</ele><time>2026-04-26T09:01:09.519Z</time></trkpt><trkpt lat="43.1449233" lon="13.171925"><ele>617.6666666666666</ele><time>2026-04-26T09:01:10.519Z</time></trkpt><trkpt lat="43.1448817" lon="13.1717183"><ele>621.0</ele><time>2026-04-26T09:01:11.519Z</time></trkpt><trkpt lat="43.144825" lon="13.17151"><ele>610.3333333333334</ele><time>2026-04-26T09:01:12.519Z</time></trkpt><trkpt lat="43.144785" lon="13.171295"><ele>599.6666666666667</ele><time>2026-04-26T09:01:13.519Z</time></trkpt><trkpt lat="43.1447617" lon="13.171075"><ele>589.0</ele><time>2026-04-26T09:01:14.519Z</time></trkpt><trkpt lat="43.1447333" lon="13.170885"><ele>589.0</ele><time>2026-04-26T09:01:15.519Z</time></trkpt><trkpt lat="43.144695" lon="13.1707167"><ele>589.0</ele><time>2026-04-26T09:01:16.519Z</time></trkpt><trkpt lat="43.144665" lon="13.170525"><ele>589.0</ele><time>2026-04-26T09:01:17.52Z</time></trkpt><trkpt lat="43.1446467" lon="13.170315"><ele>589.0</ele><time>2026-04-26T09:01:18.519Z</time></trkpt><trkpt lat="43.1446367" lon="13.1701117"><ele>590.0</ele><time>2026-04-26T09:01:19.519Z</time></trkpt><trkpt lat="43.144625" lon="13.16991"><ele>591.0</ele><time>2026-04-26T09:01:20.519Z</time></trkpt><trkpt lat="43.144615" lon="13.1697133"><ele>592.0</ele><time>2026-04-26T09:01:21.519Z</time></trkpt><trkpt lat="43.1446133" lon="13.1695183"><ele>593.0</ele><time>2026-04-26T09:01:22.519Z</time></trkpt><trkpt lat="43.1446067" lon="13.1693017"><ele>593.3333333333333</ele><time>2026-04-26T09:01:23.519Z</time></trkpt><trkpt lat="43.1446017" lon="13.1690883"><ele>593.6666666666666</ele><time>2026-04-26T09:01:24.52Z</time></trkpt><trkpt lat="43.1445933" lon="13.1688817"><ele>594.0</ele><time>2026-04-26T09:01:25.519Z</time></trkpt><trkpt lat="43.144595" lon="13.1686633"><ele>594.0</ele><time>2026-04-26T09:01:26.52Z</time></trkpt><trkpt lat="43.1445917" lon="13.1684433"><ele>594.0</ele><time>2026-04-26T09:01:27.519Z</time></trkpt><trkpt lat="43.1445967" lon="13.168225"><ele>594.0</ele><time>2026-04-26T09:01:28.52Z</time></trkpt><trkpt lat="43.1446083" lon="13.1680167"><ele>593.6666666666666</ele><time>2026-04-26T09:01:29.519Z</time></trkpt><trkpt lat="43.14462" lon="13.1678067"><ele>593.3333333333333</ele><time>2026-04-26T09:01:30.519Z</time></trkpt><trkpt lat="43.1446317" lon="13.1675983"><ele>593.0</ele><time>2026-04-26T09:01:31.519Z</time></trkpt><trkpt lat="43.1446483" lon="13.1673817"><ele>592.0</ele><time>2026-04-26T09:01:32.519Z</time></trkpt><trkpt lat="43.144655" lon="13.1671667"><ele>591.0</ele><time>2026-04-26T09:01:33.519Z</time></trkpt><trkpt lat="43.14466" lon="13.1669567"><ele>590.0</ele><time>2026-04-26T09:01:34.519Z</time></trkpt><trkpt lat="43.144665" lon="13.1667667"><ele>589.0</ele><time>2026-04-26T09:01:35.519Z</time></trkpt><trkpt lat="43.144675" lon="13.166605"><ele>587.25</ele><time>2026-04-26T09:01:36.52Z</time></trkpt><trkpt lat="43.1446917" lon="13.1664483"><ele>585.5</ele><time>2026-04-26T09:01:37.519Z</time></trkpt><trkpt lat="43.1447183" lon="13.1662867"><ele>583.75</ele><time>2026-04-26T09:01:38.519Z</time></trkpt><trkpt lat="43.14475" lon="13.166125"><ele>582.0</ele><time>2026-04-26T09:01:39.519Z</time></trkpt><trkpt lat="43.1447883" lon="13.165955"><ele>582.0</ele><time>2026-04-26T09:01:40.52Z</time></trkpt><trkpt lat="43.1448317" lon="13.1657767"><ele>582.0</ele><time>2026-04-26T09:01:41.519Z</time></trkpt><trkpt lat="43.1448767" lon="13.1655917"><ele>582.0</ele><time>2026-04-26T09:01:42.519Z</time></trkpt><trkpt lat="43.1449233" lon="13.1654033"><ele>582.0</ele><time>2026-04-26T09:01:43.519Z</time></trkpt><trkpt lat="43.144975" lon="13.1652067"><ele>588.6666666666666</ele><time>2026-04-26T09:01:44.519Z</time></trkpt><trkpt lat="43.14503" lon="13.1650067"><ele>595.3333333333333</ele><time>2026-04-26T09:01:45.519Z</time></trkpt><trkpt lat="43.14509" lon="13.164805"><ele>602.0</ele><time>2026-04-26T09:01:46.52Z</time></trkpt><trkpt lat="43.145145" lon="13.1646133"><ele>602.0</ele><time>2026-04-26T09:01:47.52Z</time></trkpt><trkpt lat="43.1451983" lon="13.1644283"><ele>602.0</ele><time>2026-04-26T09:01:48.52Z</time></trkpt><trkpt lat="43.1452433" lon="13.1642467"><ele>602.0</ele><time>2026-04-26T09:01:49.519Z</time></trkpt><trkpt lat="43.1452883" lon="13.164065"><ele>602.0</ele><time>2026-04-26T09:01:50.519Z</time></trkpt><trkpt lat="43.1453317" lon="13.1638733"><ele>599.0</ele><time>2026-04-26T09:01:51.519Z</time></trkpt><trkpt lat="43.145365" lon="13.1636867"><ele>596.0</ele><time>2026-04-26T09:01:52.52Z</time></trkpt><trkpt lat="43.1453917" lon="13.1634983"><ele>593.0</ele><time>2026-04-26T09:01:53.519Z</time></trkpt><trkpt lat="43.1454167" lon="13.1632983"><ele>590.0</ele><time>2026-04-26T09:01:54.52Z</time></trkpt><trkpt lat="43.1454467" lon="13.1631067"><ele>587.5</ele><time>2026-04-26T09:01:55.519Z</time></trkpt><trkpt lat="43.1454733" lon="13.16291"><ele>585.0</ele><time>2026-04-26T09:01:56.519Z</time></trkpt><trkpt lat="43.1455033" lon="13.1627183"><ele>582.5</ele><time>2026-04-26T09:01:57.52Z</time></trkpt><trkpt lat="43.1455333" lon="13.16253"><ele>580.0</ele><time>2026-04-26T09:01:58.519Z</time></trkpt><trkpt lat="43.1455633" lon="13.1623433"><ele>579.5</ele><time>2026-04-26T09:01:59.519Z</time></trkpt><trkpt lat="43.1455867" lon="13.1621583"><ele>579.0</ele><time>2026-04-26T09:02:00.519Z</time></trkpt><trkpt lat="43.145605" lon="13.1619683"><ele>578.5</ele><time>2026-04-26T09:02:01.519Z</time></trkpt><trkpt lat="43.1456283" lon="13.1617933"><ele>578.0</ele><time>2026-04-26T09:02:02.519Z</time></trkpt><trkpt lat="43.1456467" lon="13.1616167"><ele>578.5</ele><time>2026-04-26T09:02:03.52Z</time></trkpt><trkpt lat="43.14566" lon="13.1614283"><ele>579.0</ele><time>2026-04-26T09:02:04.519Z</time></trkpt><trkpt lat="43.145665" lon="13.1612367"><ele>579.5</ele><time>2026-04-26T09:02:05.519Z</time></trkpt><trkpt lat="43.1456667" lon="13.1610417"><ele>580.0</ele><time>2026-04-26T09:02:06.52Z</time></trkpt><trkpt lat="43.14567" lon="13.1608433"><ele>582.0</ele><time>2026-04-26T09:02:07.519Z</time></trkpt><trkpt lat="43.1456717" lon="13.1606467"><ele>584.0</ele><time>2026-04-26T09:02:08.519Z</time></trkpt><trkpt lat="43.1456667" lon="13.16045"><ele>586.0</ele><time>2026-04-26T09:02:09.519Z</time></trkpt><trkpt lat="43.145665" lon="13.160255"><ele>588.0</ele><time>2026-04-26T09:02:10.52Z</time></trkpt><trkpt lat="43.1456433" lon="13.1600633"><ele>588.0</ele><time>2026-04-26T09:02:11.519Z</time></trkpt><trkpt lat="43.1456333" lon="13.15987"><ele>588.0</ele><time>2026-04-26T09:02:12.519Z</time></trkpt><trkpt lat="43.14562" lon="13.15968"><ele>588.0</ele><time>2026-04-26T09:02:13.52Z</time></trkpt><trkpt lat="43.1456117" lon="13.1594917"><ele>588.0</ele><time>2026-04-26T09:02:14.519Z</time></trkpt><trkpt lat="43.1456067" lon="13.1592983"><ele>590.75</ele><time>2026-04-26T09:02:15.52Z</time></trkpt><trkpt lat="43.1455867" lon="13.1591317"><ele>593.5</ele><time>2026-04-26T09:02:16.519Z</time></trkpt><trkpt lat="43.1455683" lon="13.15897"><ele>596.25</ele><time>2026-04-26T09:02:17.519Z</time></trkpt><trkpt lat="43.1455517" lon="13.1588117"><ele>599.0</ele><time>2026-04-26T09:02:18.519Z</time></trkpt><trkpt lat="43.1455383" lon="13.1586517"><ele>601.5</ele><time>2026-04-26T09:02:19.52Z</time></trkpt><trkpt lat="43.1455417" lon="13.1584967"><ele>604.0</ele><time>2026-04-26T09:02:20.519Z</time></trkpt><trkpt lat="43.14555" lon="13.158335"><ele>606.5</ele><time>2026-04-26T09:02:21.519Z</time></trkpt><trkpt lat="43.14556" lon="13.158185"><ele>609.0</ele><time>2026-04-26T09:02:22.519Z</time></trkpt><trkpt lat="43.14558" lon="13.158035"><ele>611.2</ele><time>2026-04-26T09:02:23.519Z</time></trkpt><trkpt lat="43.14558" lon="13.1578867"><ele>613.4</ele><time>2026-04-26T09:02:24.519Z</time></trkpt><trkpt lat="43.14559" lon="13.1577417"><ele>615.6</ele><time>2026-04-26T09:02:25.519Z</time></trkpt><trkpt lat="43.1455967" lon="13.157595"><ele>617.8</ele><time>2026-04-26T09:02:26.519Z</time></trkpt><trkpt lat="43.1456" lon="13.1574417"><ele>620.0</ele><time>2026-04-26T09:02:27.519Z</time></trkpt><trkpt lat="43.14561" lon="13.1573067"><ele>621.3333333333333</ele><time>2026-04-26T09:02:28.519Z</time></trkpt><trkpt lat="43.14562" lon="13.1571833"><ele>622.6666666666666</ele><time>2026-04-26T09:02:29.519Z</time></trkpt><trkpt lat="43.1456383" lon="13.15706"><ele>624.0</ele><time>2026-04-26T09:02:30.519Z</time></trkpt><trkpt lat="43.14566" lon="13.1569483"><ele>625.3333333333334</ele><time>2026-04-26T09:02:31.52Z</time></trkpt><trkpt lat="43.14568" lon="13.15685"><ele>626.6666666666667</ele><time>2026-04-26T09:02:32.519Z</time></trkpt><trkpt lat="43.1457" lon="13.156765"><ele>628.0</ele><time>2026-04-26T09:02:33.519Z</time></trkpt><trkpt lat="43.1457533" lon="13.1566267"><ele>625.5</ele><time>2026-04-26T09:02:35.519Z</time></trkpt><trkpt lat="43.145805" lon="13.1565317"><ele>623.0</ele><time>2026-04-26T09:02:37.52Z</time></trkpt><trkpt lat="43.1458317" lon="13.1564483"><ele>620.5</ele><time>2026-04-26T09:02:40.519Z</time></trkpt><trkpt lat="43.1458917" lon="13.1563617"><ele>618.0</ele><time>2026-04-26T09:02:44.519Z</time></trkpt><trkpt lat="43.1459483" lon="13.1563017"><ele>615.5</ele><time>2026-04-26T09:02:46.519Z</time></trkpt><trkpt lat="43.1458983" lon="13.1562083"><ele>613.0</ele><time>2026-04-26T09:02:50.519Z</time></trkpt><trkpt lat="43.1457783" lon="13.1562267"><ele>613.0</ele><time>2026-04-26T09:02:52.519Z</time></trkpt><trkpt lat="43.145715" lon="13.1562417"><ele>613.0</ele><time>2026-04-26T09:02:53.519Z</time></trkpt><trkpt lat="43.145595" lon="13.1562517"><ele>613.0</ele><time>2026-04-26T09:02:55.52Z</time></trkpt><trkpt lat="43.1455133" lon="13.1562533"><ele>613.0</ele><time>2026-04-26T09:02:57.52Z</time></trkpt><trkpt lat="43.1454233" lon="13.15623"><ele>613.0</ele><time>2026-04-26T09:02:59.519Z</time></trkpt><trkpt lat="43.145315" lon="13.1561933"><ele>615.1666666666667</ele><time>2026-04-26T09:03:01.519Z</time></trkpt><trkpt lat="43.14523" lon="13.1561567"><ele>617.3333333333334</ele><time>2026-04-26T09:03:03.519Z</time></trkpt><trkpt lat="43.1451633" lon="13.1561267"><ele>619.5</ele><time>2026-04-26T09:03:05.519Z</time></trkpt><trkpt lat="43.145095" lon="13.1561017"><ele>621.6666666666666</ele><time>2026-04-26T09:03:07.519Z</time></trkpt><trkpt lat="43.1450117" lon="13.1560533"><ele>623.8333333333333</ele><time>2026-04-26T09:03:10.519Z</time></trkpt><trkpt lat="43.1449467" lon="13.1560033"><ele>626.0</ele><time>2026-04-26T09:03:12.519Z</time></trkpt><trkpt lat="43.1448817" lon="13.1559617"><ele>626.8571428571429</ele><time>2026-04-26T09:03:14.519Z</time></trkpt><trkpt lat="43.1447983" lon="13.1559533"><ele>627.7142857142858</ele><time>2026-04-26T09:03:17.519Z</time></trkpt><trkpt lat="43.1447367" lon="13.155975"><ele>628.5714285714287</ele><time>2026-04-26T09:03:19.519Z</time></trkpt><trkpt lat="43.1446583" lon="13.1559967"><ele>629.4285714285714</ele><time>2026-04-26T09:03:21.519Z</time></trkpt><trkpt lat="43.1445933" lon="13.1560233"><ele>630.2857142857143</ele><time>2026-04-26T09:03:23.519Z</time></trkpt><trkpt lat="43.144535" lon="13.15609"><ele>631.1428571428572</ele><time>2026-04-26T09:03:25.519Z</time></trkpt><trkpt lat="43.1444783" lon="13.1561383"><ele>632.0</ele><time>2026-04-26T09:03:27.519Z</time></trkpt><trkpt lat="43.1444117" lon="13.1561617"><ele>632.0</ele><time>2026-04-26T09:03:29.519Z</time></trkpt><trkpt lat="43.1443233" lon="13.1561817"><ele>632.0</ele><time>2026-04-26T09:03:31.519Z</time></trkpt><trkpt lat="43.1442367" lon="13.1562333"><ele>632.0</ele><time>2026-04-26T09:03:33.519Z</time></trkpt><trkpt lat="43.1441567" lon="13.1562533"><ele>632.0</ele><time>2026-04-26T09:03:35.52Z</time></trkpt><trkpt lat="43.144065" lon="13.1562633"><ele>632.0</ele><time>2026-04-26T09:03:37.519Z</time></trkpt><trkpt lat="43.1439883" lon="13.156235"><ele>632.0</ele><time>2026-04-26T09:03:39.52Z</time></trkpt><trkpt lat="43.143905" lon="13.1561983"><ele>632.1666666666666</ele><time>2026-04-26T09:03:41.519Z</time></trkpt><trkpt lat="43.143825" lon="13.1561467"><ele>632.3333333333333</ele><time>2026-04-26T09:03:43.519Z</time></trkpt><trkpt lat="43.1437583" lon="13.1560967"><ele>632.5</ele><time>2026-04-26T09:03:45.52Z</time></trkpt><trkpt lat="43.143725" lon="13.1560133"><ele>632.6666666666666</ele><time>2026-04-26T09:03:51.519Z</time></trkpt><trkpt lat="43.1437283" lon="13.1559033"><ele>632.8333333333334</ele><time>2026-04-26T09:03:53.519Z</time></trkpt><trkpt lat="43.1437" lon="13.1557933"><ele>633.0</ele><time>2026-04-26T09:03:55.519Z</time></trkpt><trkpt lat="43.1436567" lon="13.1557167"><ele>631.3333333333334</ele><time>2026-04-26T09:03:57.519Z</time></trkpt><trkpt lat="43.143595" lon="13.1556417"><ele>629.6666666666666</ele><time>2026-04-26T09:04:00.519Z</time></trkpt><trkpt lat="43.1435483" lon="13.1555533"><ele>628.0</ele><time>2026-04-26T09:04:03.52Z</time></trkpt><trkpt lat="43.143525" lon="13.15546"><ele>626.3333333333333</ele><time>2026-04-26T09:04:07.52Z</time></trkpt><trkpt lat="43.1435867" lon="13.1553967"><ele>624.6666666666666</ele><time>2026-04-26T09:04:12.519Z</time></trkpt><trkpt lat="43.14365" lon="13.15544"><ele>623.0</ele><time>2026-04-26T09:04:15.519Z</time></trkpt><trkpt lat="43.1437256" lon="13.1554634"><ele>623.0</ele><time>2026-04-26T09:04:18.519Z</time></trkpt><trkpt lat="43.1437984" lon="13.1555047"><ele>623.0</ele><time>2026-04-26T09:04:22.519Z</time></trkpt><trkpt lat="43.1438833" lon="13.1555783"><ele>623.0</ele><time>2026-04-26T09:12:57.518Z</time></trkpt><trkpt lat="43.1439467" lon="13.1556333"><ele>623.0</ele><time>2026-04-26T09:12:59.517Z</time></trkpt><trkpt lat="43.14402" lon="13.1556767"><ele>623.0</ele><time>2026-04-26T09:13:02.518Z</time></trkpt><trkpt lat="43.1440817" lon="13.155695"><ele>623.0</ele><time>2026-04-26T09:13:04.518Z</time></trkpt><trkpt lat="43.1441433" lon="13.155715"><ele>624.5</ele><time>2026-04-26T09:13:06.517Z</time></trkpt><trkpt lat="43.144215" lon="13.1557"><ele>626.0</ele><time>2026-04-26T09:13:08.518Z</time></trkpt><trkpt lat="43.144285" lon="13.15569"><ele>627.5</ele><time>2026-04-26T09:13:10.517Z</time></trkpt><trkpt lat="43.1443567" lon="13.1557267"><ele>629.0</ele><time>2026-04-26T09:13:12.517Z</time></trkpt><trkpt lat="43.1444333" lon="13.1557783"><ele>630.5</ele><time>2026-04-26T09:13:14.517Z</time></trkpt><trkpt lat="43.1444983" lon="13.1558267"><ele>632.0</ele><time>2026-04-26T09:13:16.518Z</time></trkpt><trkpt lat="43.14456" lon="13.155925"><ele>632.0</ele><time>2026-04-26T09:13:18.517Z</time></trkpt><trkpt lat="43.144625" lon="13.1559933"><ele>632.0</ele><time>2026-04-26T09:13:20.517Z</time></trkpt><trkpt lat="43.1447083" lon="13.15599"><ele>632.0</ele><time>2026-04-26T09:13:22.517Z</time></trkpt><trkpt lat="43.1448117" lon="13.1559733"><ele>632.0</ele><time>2026-04-26T09:13:24.517Z</time></trkpt><trkpt lat="43.1448867" lon="13.1559683"><ele>632.0</ele><time>2026-04-26T09:13:26.517Z</time></trkpt><trkpt lat="43.1449617" lon="13.156005"><ele>632.0</ele><time>2026-04-26T09:13:29.517Z</time></trkpt><trkpt lat="43.145025" lon="13.15605"><ele>631.0</ele><time>2026-04-26T09:13:31.517Z</time></trkpt><trkpt lat="43.14511" lon="13.15609"><ele>630.0</ele><time>2026-04-26T09:13:34.518Z</time></trkpt><trkpt lat="43.1451683" lon="13.1561233"><ele>629.0</ele><time>2026-04-26T09:13:36.517Z</time></trkpt><trkpt lat="43.145255" lon="13.156165"><ele>628.0</ele><time>2026-04-26T09:13:38.517Z</time></trkpt><trkpt lat="43.14537" lon="13.1562067"><ele>627.0</ele><time>2026-04-26T09:13:40.517Z</time></trkpt><trkpt lat="43.1454417" lon="13.156235"><ele>626.0</ele><time>2026-04-26T09:13:41.518Z</time></trkpt><trkpt lat="43.1455117" lon="13.1562617"><ele>626.0</ele><time>2026-04-26T09:13:42.517Z</time></trkpt><trkpt lat="43.1455767" lon="13.1562767"><ele>626.0</ele><time>2026-04-26T09:13:43.517Z</time></trkpt><trkpt lat="43.1456883" lon="13.1562733"><ele>626.0</ele><time>2026-04-26T09:13:45.518Z</time></trkpt><trkpt lat="43.1457517" lon="13.15627"><ele>626.0</ele><time>2026-04-26T09:13:46.517Z</time></trkpt><trkpt lat="43.1458733" lon="13.1562567"><ele>626.0</ele><time>2026-04-26T09:13:48.517Z</time></trkpt><trkpt lat="43.1459833" lon="13.1562633"><ele>624.1428571428571</ele><time>2026-04-26T09:13:50.517Z</time></trkpt><trkpt lat="43.1460517" lon="13.156255"><ele>622.2857142857143</ele><time>2026-04-26T09:13:51.517Z</time></trkpt><trkpt lat="43.1461233" lon="13.156235"><ele>620.4285714285714</ele><time>2026-04-26T09:13:52.517Z</time></trkpt><trkpt lat="43.1461933" lon="13.1562117"><ele>618.5714285714286</ele><time>2026-04-26T09:13:53.517Z</time></trkpt><trkpt lat="43.1462633" lon="13.1561933"><ele>616.7142857142857</ele><time>2026-04-26T09:13:54.517Z</time></trkpt><trkpt lat="43.1463367" lon="13.1561833"><ele>614.8571428571429</ele><time>2026-04-26T09:13:55.517Z</time></trkpt><trkpt lat="43.146415" lon="13.1561917"><ele>613.0</ele><time>2026-04-26T09:13:56.517Z</time></trkpt><trkpt lat="43.1464867" lon="13.1562033"><ele>612.4</ele><time>2026-04-26T09:13:57.517Z</time></trkpt><trkpt lat="43.146565" lon="13.1562067"><ele>611.8</ele><time>2026-04-26T09:13:58.517Z</time></trkpt><trkpt lat="43.1466567" lon="13.156215"><ele>611.2</ele><time>2026-04-26T09:13:59.517Z</time></trkpt><trkpt lat="43.146755" lon="13.1562317"><ele>610.6</ele><time>2026-04-26T09:14:00.518Z</time></trkpt><trkpt lat="43.1468517" lon="13.1562467"><ele>610.0</ele><time>2026-04-26T09:14:01.517Z</time></trkpt><trkpt lat="43.1469417" lon="13.15627"><ele>610.0</ele><time>2026-04-26T09:14:02.517Z</time></trkpt><trkpt lat="43.1470333" lon="13.1563"><ele>610.0</ele><time>2026-04-26T09:14:03.517Z</time></trkpt><trkpt lat="43.1471267" lon="13.15633"><ele>610.0</ele><time>2026-04-26T09:14:04.517Z</time></trkpt><trkpt lat="43.147225" lon="13.156365"><ele>610.0</ele><time>2026-04-26T09:14:05.517Z</time></trkpt><trkpt lat="43.147325" lon="13.1563983"><ele>610.0</ele><time>2026-04-26T09:14:06.517Z</time></trkpt><trkpt lat="43.1474417" lon="13.1564283"><ele>606.75</ele><time>2026-04-26T09:14:07.517Z</time></trkpt><trkpt lat="43.1475583" lon="13.1564667"><ele>603.5</ele><time>2026-04-26T09:14:08.517Z</time></trkpt><trkpt lat="43.1476767" lon="13.1564983"><ele>600.25</ele><time>2026-04-26T09:14:09.517Z</time></trkpt><trkpt lat="43.1477883" lon="13.15653"><ele>597.0</ele><time>2026-04-26T09:14:10.517Z</time></trkpt><trkpt lat="43.1479" lon="13.1565517"><ele>601.0</ele><time>2026-04-26T09:14:11.517Z</time></trkpt><trkpt lat="43.1480133" lon="13.1565683"><ele>605.0</ele><time>2026-04-26T09:14:12.517Z</time></trkpt><trkpt lat="43.1481183" lon="13.156585"><ele>609.0</ele><time>2026-04-26T09:14:13.517Z</time></trkpt><trkpt lat="43.1482333" lon="13.1566"><ele>613.0</ele><time>2026-04-26T09:14:14.517Z</time></trkpt><trkpt lat="43.148345" lon="13.1566217"><ele>617.0</ele><time>2026-04-26T09:14:15.517Z</time></trkpt><trkpt lat="43.1484683" lon="13.156645"><ele>617.0</ele><time>2026-04-26T09:14:16.517Z</time></trkpt><trkpt lat="43.1485917" lon="13.1566733"><ele>617.0</ele><time>2026-04-26T09:14:17.517Z</time></trkpt><trkpt lat="43.1487083" lon="13.1567133"><ele>617.0</ele><time>2026-04-26T09:14:18.517Z</time></trkpt><trkpt lat="43.1488233" lon="13.1567433"><ele>617.0</ele><time>2026-04-26T09:14:19.517Z</time></trkpt><trkpt lat="43.1489467" lon="13.1567833"><ele>613.25</ele><time>2026-04-26T09:14:20.517Z</time></trkpt><trkpt lat="43.1490683" lon="13.156835"><ele>609.5</ele><time>2026-04-26T09:14:21.518Z</time></trkpt><trkpt lat="43.1492033" lon="13.1568817"><ele>605.75</ele><time>2026-04-26T09:14:22.517Z</time></trkpt><trkpt lat="43.149345" lon="13.1569267"><ele>602.0</ele><time>2026-04-26T09:14:23.517Z</time></trkpt><trkpt lat="43.1494883" lon="13.1569717"><ele>602.0</ele><time>2026-04-26T09:14:24.517Z</time></trkpt><trkpt lat="43.1496367" lon="13.1570217"><ele>602.0</ele><time>2026-04-26T09:14:25.518Z</time></trkpt><trkpt lat="43.14977" lon="13.1570717"><ele>602.0</ele><time>2026-04-26T09:14:26.518Z</time></trkpt><trkpt lat="43.149885" lon="13.157125"><ele>602.0</ele><time>2026-04-26T09:14:27.517Z</time></trkpt><trkpt lat="43.15001" lon="13.1571717"><ele>600.5</ele><time>2026-04-26T09:14:28.517Z</time></trkpt><trkpt lat="43.1501383" lon="13.157215"><ele>599.0</ele><time>2026-04-26T09:14:29.517Z</time></trkpt><trkpt lat="43.1502667" lon="13.15725"><ele>597.5</ele><time>2026-04-26T09:14:30.517Z</time></trkpt><trkpt lat="43.1503833" lon="13.1572883"><ele>596.0</ele><time>2026-04-26T09:14:31.518Z</time></trkpt><trkpt lat="43.1504917" lon="13.15731"><ele>596.0</ele><time>2026-04-26T09:14:32.517Z</time></trkpt><trkpt lat="43.1505883" lon="13.1573333"><ele>596.0</ele><time>2026-04-26T09:14:33.517Z</time></trkpt><trkpt lat="43.150665" lon="13.1573533"><ele>596.0</ele><time>2026-04-26T09:14:34.517Z</time></trkpt><trkpt lat="43.1507283" lon="13.15736"><ele>596.0</ele><time>2026-04-26T09:14:35.517Z</time></trkpt><trkpt lat="43.1508217" lon="13.1573133"><ele>596.0</ele><time>2026-04-26T09:14:37.517Z</time></trkpt><trkpt lat="43.150845" lon="13.1571367"><ele>596.75</ele><time>2026-04-26T09:14:39.517Z</time></trkpt><trkpt lat="43.1508317" lon="13.157005"><ele>597.5</ele><time>2026-04-26T09:14:40.517Z</time></trkpt><trkpt lat="43.15079" lon="13.1568633"><ele>598.25</ele><time>2026-04-26T09:14:41.517Z</time></trkpt><trkpt lat="43.150715" lon="13.1566867"><ele>599.0</ele><time>2026-04-26T09:14:42.517Z</time></trkpt><trkpt lat="43.150625" lon="13.1564533"><ele>599.0</ele><time>2026-04-26T09:14:43.517Z</time></trkpt><trkpt lat="43.1505283" lon="13.1561867"><ele>599.0</ele><time>2026-04-26T09:14:44.517Z</time></trkpt><trkpt lat="43.150445" lon="13.1559467"><ele>599.0</ele><time>2026-04-26T09:14:45.517Z</time></trkpt><trkpt lat="43.1503683" lon="13.1557333"><ele>604.6666666666666</ele><time>2026-04-26T09:14:46.517Z</time></trkpt><trkpt lat="43.1502717" lon="13.15554"><ele>610.3333333333334</ele><time>2026-04-26T09:14:47.517Z</time></trkpt><trkpt lat="43.150165" lon="13.1553633"><ele>616.0</ele><time>2026-04-26T09:14:48.517Z</time></trkpt><trkpt lat="43.1500533" lon="13.1551917"><ele>616.0</ele><time>2026-04-26T09:14:49.518Z</time></trkpt><trkpt lat="43.1499533" lon="13.155025"><ele>616.0</ele><time>2026-04-26T09:14:50.517Z</time></trkpt><trkpt lat="43.1498583" lon="13.15485"><ele>616.0</ele><time>2026-04-26T09:14:51.517Z</time></trkpt><trkpt lat="43.1497783" lon="13.1546683"><ele>608.0</ele><time>2026-04-26T09:14:52.517Z</time></trkpt><trkpt lat="43.1497" lon="13.1544817"><ele>600.0</ele><time>2026-04-26T09:14:53.518Z</time></trkpt><trkpt lat="43.1496267" lon="13.1542983"><ele>592.0</ele><time>2026-04-26T09:14:54.517Z</time></trkpt><trkpt lat="43.149555" lon="13.154115"><ele>595.5</ele><time>2026-04-26T09:14:55.517Z</time></trkpt><trkpt lat="43.149485" lon="13.1539367"><ele>599.0</ele><time>2026-04-26T09:14:56.518Z</time></trkpt><trkpt lat="43.14942" lon="13.1537567"><ele>602.5</ele><time>2026-04-26T09:14:57.517Z</time></trkpt><trkpt lat="43.1493317" lon="13.15359"><ele>606.0</ele><time>2026-04-26T09:14:58.517Z</time></trkpt><trkpt lat="43.1492367" lon="13.1534283"><ele>606.0</ele><time>2026-04-26T09:14:59.518Z</time></trkpt><trkpt lat="43.14914" lon="13.1532583"><ele>606.0</ele><time>2026-04-26T09:15:00.517Z</time></trkpt><trkpt lat="43.1490417" lon="13.153075"><ele>606.0</ele><time>2026-04-26T09:15:01.517Z</time></trkpt><trkpt lat="43.1489467" lon="13.15289"><ele>608.0</ele><time>2026-04-26T09:15:02.517Z</time></trkpt><trkpt lat="43.1488367" lon="13.1527183"><ele>610.0</ele><time>2026-04-26T09:15:03.518Z</time></trkpt><trkpt lat="43.1487317" lon="13.1525367"><ele>612.0</ele><time>2026-04-26T09:15:04.517Z</time></trkpt><trkpt lat="43.14861" lon="13.1523583"><ele>612.0</ele><time>2026-04-26T09:15:05.518Z</time></trkpt><trkpt lat="43.1484917" lon="13.1521817"><ele>612.0</ele><time>2026-04-26T09:15:06.517Z</time></trkpt><trkpt lat="43.14838" lon="13.1520067"><ele>612.0</ele><time>2026-04-26T09:15:07.518Z</time></trkpt><trkpt lat="43.1482783" lon="13.15183"><ele>609.3333333333334</ele><time>2026-04-26T09:15:08.517Z</time></trkpt><trkpt lat="43.1481633" lon="13.15166"><ele>606.6666666666667</ele><time>2026-04-26T09:15:09.517Z</time></trkpt><trkpt lat="43.148055" lon="13.15149"><ele>604.0</ele><time>2026-04-26T09:15:10.517Z</time></trkpt><trkpt lat="43.147945" lon="13.1513267"><ele>604.0</ele><time>2026-04-26T09:15:11.518Z</time></trkpt><trkpt lat="43.14783" lon="13.151175"><ele>604.0</ele><time>2026-04-26T09:15:12.517Z</time></trkpt><trkpt lat="43.147725" lon="13.1510267"><ele>604.0</ele><time>2026-04-26T09:15:13.517Z</time></trkpt><trkpt lat="43.1476133" lon="13.15088"><ele>604.0</ele><time>2026-04-26T09:15:14.517Z</time></trkpt><trkpt lat="43.1475033" lon="13.15074"><ele>604.0</ele><time>2026-04-26T09:15:15.517Z</time></trkpt><trkpt lat="43.1474017" lon="13.1505933"><ele>604.0</ele><time>2026-04-26T09:15:16.517Z</time></trkpt><trkpt lat="43.14729" lon="13.1504467"><ele>603.0</ele><time>2026-04-26T09:15:17.517Z</time></trkpt><trkpt lat="43.1471833" lon="13.15031"><ele>602.0</ele><time>2026-04-26T09:15:18.517Z</time></trkpt><trkpt lat="43.1470983" lon="13.1501767"><ele>601.0</ele><time>2026-04-26T09:15:19.518Z</time></trkpt><trkpt lat="43.147025" lon="13.1500467"><ele>600.0</ele><time>2026-04-26T09:15:20.517Z</time></trkpt><trkpt lat="43.146965" lon="13.1499267"><ele>601.1666666666666</ele><time>2026-04-26T09:15:21.517Z</time></trkpt><trkpt lat="43.1469067" lon="13.149815"><ele>602.3333333333334</ele><time>2026-04-26T09:15:22.517Z</time></trkpt><trkpt lat="43.14685" lon="13.14972"><ele>603.5</ele><time>2026-04-26T09:15:23.518Z</time></trkpt><trkpt lat="43.1468067" lon="13.14963"><ele>604.6666666666667</ele><time>2026-04-26T09:15:24.517Z</time></trkpt><trkpt lat="43.14678" lon="13.1495367"><ele>605.8333333333334</ele><time>2026-04-26T09:15:25.517Z</time></trkpt><trkpt lat="43.146755" lon="13.1494433"><ele>607.0</ele><time>2026-04-26T09:15:26.517Z</time></trkpt><trkpt lat="43.1467067" lon="13.1493"><ele>607.0</ele><time>2026-04-26T09:15:28.518Z</time></trkpt><trkpt lat="43.1466183" lon="13.1492083"><ele>607.0</ele><time>2026-04-26T09:15:30.517Z</time></trkpt><trkpt lat="43.146515" lon="13.1491583"><ele>607.0</ele><time>2026-04-26T09:15:32.517Z</time></trkpt><trkpt lat="43.1464517" lon="13.149075"><ele>607.0</ele><time>2026-04-26T09:15:34.517Z</time></trkpt><trkpt lat="43.1464517" lon="13.1489283"><ele>607.0</ele><time>2026-04-26T09:15:36.517Z</time></trkpt><trkpt lat="43.1464667" lon="13.1488183"><ele>606.0</ele><time>2026-04-26T09:15:37.517Z</time></trkpt><trkpt lat="43.1464883" lon="13.148705"><ele>605.0</ele><time>2026-04-26T09:15:38.517Z</time></trkpt><trkpt lat="43.1465217" lon="13.1485683"><ele>604.0</ele><time>2026-04-26T09:15:39.517Z</time></trkpt><trkpt lat="43.1465533" lon="13.14842"><ele>603.0</ele><time>2026-04-26T09:15:40.518Z</time></trkpt><trkpt lat="43.146595" lon="13.14828"><ele>602.0</ele><time>2026-04-26T09:15:41.517Z</time></trkpt><trkpt lat="43.1466417" lon="13.1481567"><ele>599.8000000000001</ele><time>2026-04-26T09:15:42.517Z</time></trkpt><trkpt lat="43.1466917" lon="13.14803"><ele>597.6</ele><time>2026-04-26T09:15:43.517Z</time></trkpt><trkpt lat="43.1467283" lon="13.1478983"><ele>595.4000000000001</ele><time>2026-04-26T09:15:44.517Z</time></trkpt><trkpt lat="43.1467517" lon="13.147765"><ele>593.2</ele><time>2026-04-26T09:15:45.517Z</time></trkpt><trkpt lat="43.1467767" lon="13.1476367"><ele>591.0</ele><time>2026-04-26T09:15:46.517Z</time></trkpt><trkpt lat="43.1468067" lon="13.147525"><ele>591.0</ele><time>2026-04-26T09:15:47.518Z</time></trkpt><trkpt lat="43.1468517" lon="13.1474183"><ele>591.0</ele><time>2026-04-26T09:15:48.517Z</time></trkpt><trkpt lat="43.1469067" lon="13.1473183"><ele>591.0</ele><time>2026-04-26T09:15:49.517Z</time></trkpt><trkpt lat="43.146965" lon="13.1472117"><ele>591.0</ele><time>2026-04-26T09:15:50.517Z</time></trkpt><trkpt lat="43.1470283" lon="13.147095"><ele>591.0</ele><time>2026-04-26T09:15:51.517Z</time></trkpt><trkpt lat="43.147085" lon="13.146965"><ele>589.0</ele><time>2026-04-26T09:15:52.517Z</time></trkpt><trkpt lat="43.1471183" lon="13.1468383"><ele>587.0</ele><time>2026-04-26T09:15:53.517Z</time></trkpt><trkpt lat="43.1471267" lon="13.1467133"><ele>585.0</ele><time>2026-04-26T09:15:54.517Z</time></trkpt><trkpt lat="43.14711" lon="13.1465833"><ele>583.0</ele><time>2026-04-26T09:15:55.517Z</time></trkpt><trkpt lat="43.14708" lon="13.1464383"><ele>581.0</ele><time>2026-04-26T09:15:56.517Z</time></trkpt><trkpt lat="43.1470533" lon="13.14631"><ele>579.4</ele><time>2026-04-26T09:15:57.517Z</time></trkpt><trkpt lat="43.147035" lon="13.14619"><ele>577.8</ele><time>2026-04-26T09:15:58.517Z</time></trkpt><trkpt lat="43.1470367" lon="13.14607"><ele>576.1999999999999</ele><time>2026-04-26T09:15:59.517Z</time></trkpt><trkpt lat="43.1470467" lon="13.1459367"><ele>574.6</ele><time>2026-04-26T09:16:00.518Z</time></trkpt><trkpt lat="43.1470667" lon="13.1457917"><ele>573.0</ele><time>2026-04-26T09:16:01.518Z</time></trkpt><trkpt lat="43.14709" lon="13.1456267"><ele>570.5</ele><time>2026-04-26T09:16:02.517Z</time></trkpt><trkpt lat="43.14712" lon="13.14545"><ele>568.0</ele><time>2026-04-26T09:16:03.517Z</time></trkpt><trkpt lat="43.1471567" lon="13.1452667"><ele>565.5</ele><time>2026-04-26T09:16:04.517Z</time></trkpt><trkpt lat="43.147195" lon="13.1450783"><ele>563.0</ele><time>2026-04-26T09:16:05.518Z</time></trkpt><trkpt lat="43.147235" lon="13.14489"><ele>561.5</ele><time>2026-04-26T09:16:06.517Z</time></trkpt><trkpt lat="43.1472833" lon="13.1447067"><ele>560.0</ele><time>2026-04-26T09:16:07.517Z</time></trkpt><trkpt lat="43.147335" lon="13.1445317"><ele>558.5</ele><time>2026-04-26T09:16:08.517Z</time></trkpt><trkpt lat="43.147385" lon="13.1443583"><ele>557.0</ele><time>2026-04-26T09:16:09.517Z</time></trkpt><trkpt lat="43.147435" lon="13.14419"><ele>563.25</ele><time>2026-04-26T09:16:10.517Z</time></trkpt><trkpt lat="43.147475" lon="13.14401"><ele>569.5</ele><time>2026-04-26T09:16:11.518Z</time></trkpt><trkpt lat="43.1475133" lon="13.1438167"><ele>575.75</ele><time>2026-04-26T09:16:12.517Z</time></trkpt><trkpt lat="43.1475467" lon="13.14361"><ele>582.0</ele><time>2026-04-26T09:16:13.517Z</time></trkpt><trkpt lat="43.1475733" lon="13.1434117"><ele>582.0</ele><time>2026-04-26T09:16:14.517Z</time></trkpt><trkpt lat="43.1476017" lon="13.1432183"><ele>582.0</ele><time>2026-04-26T09:16:15.518Z</time></trkpt><trkpt lat="43.1476333" lon="13.14304"><ele>582.0</ele><time>2026-04-26T09:16:16.518Z</time></trkpt><trkpt lat="43.147665" lon="13.142875"><ele>582.0</ele><time>2026-04-26T09:16:17.517Z</time></trkpt><trkpt lat="43.1477017" lon="13.1427217"><ele>580.4</ele><time>2026-04-26T09:16:18.517Z</time></trkpt><trkpt lat="43.1477383" lon="13.142575"><ele>578.8000000000001</ele><time>2026-04-26T09:16:19.518Z</time></trkpt><trkpt lat="43.1477617" lon="13.1424417"><ele>577.2</ele><time>2026-04-26T09:16:20.517Z</time></trkpt><trkpt lat="43.1477717" lon="13.1423033"><ele>575.6</ele><time>2026-04-26T09:16:21.517Z</time></trkpt><trkpt lat="43.1477733" lon="13.1421683"><ele>574.0</ele><time>2026-04-26T09:16:22.517Z</time></trkpt><trkpt lat="43.14777" lon="13.14205"><ele>572.8571428571429</ele><time>2026-04-26T09:16:23.517Z</time></trkpt><trkpt lat="43.1477733" lon="13.1419533"><ele>571.7142857142858</ele><time>2026-04-26T09:16:24.517Z</time></trkpt><trkpt lat="43.1477767" lon="13.141865"><ele>570.5714285714286</ele><time>2026-04-26T09:16:25.517Z</time></trkpt><trkpt lat="43.1477667" lon="13.1417617"><ele>569.4285714285714</ele><time>2026-04-26T09:16:27.518Z</time></trkpt><trkpt lat="43.1476933" lon="13.1417817"><ele>568.2857142857143</ele><time>2026-04-26T09:16:32.517Z</time></trkpt><trkpt lat="43.1476683" lon="13.1418867"><ele>567.1428571428571</ele><time>2026-04-26T09:16:34.517Z</time></trkpt><trkpt lat="43.14766" lon="13.1419733"><ele>566.0</ele><time>2026-04-26T09:16:35.517Z</time></trkpt><trkpt lat="43.1476467" lon="13.1420883"><ele>566.0</ele><time>2026-04-26T09:16:36.517Z</time></trkpt><trkpt lat="43.1476383" lon="13.14221"><ele>566.0</ele><time>2026-04-26T09:16:37.518Z</time></trkpt><trkpt lat="43.1476217" lon="13.1423467"><ele>566.0</ele><time>2026-04-26T09:16:38.517Z</time></trkpt><trkpt lat="43.1475933" lon="13.1424967"><ele>566.0</ele><time>2026-04-26T09:16:39.517Z</time></trkpt><trkpt lat="43.1475483" lon="13.1426383"><ele>566.0</ele><time>2026-04-26T09:16:40.517Z</time></trkpt><trkpt lat="43.1474967" lon="13.14277"><ele>568.0</ele><time>2026-04-26T09:16:41.517Z</time></trkpt><trkpt lat="43.1474317" lon="13.1429017"><ele>570.0</ele><time>2026-04-26T09:16:42.517Z</time></trkpt><trkpt lat="43.147355" lon="13.1430333"><ele>572.0</ele><time>2026-04-26T09:16:43.517Z</time></trkpt><trkpt lat="43.14727" lon="13.143165"><ele>574.0</ele><time>2026-04-26T09:16:44.517Z</time></trkpt><trkpt lat="43.1471833" lon="13.1432917"><ele>569.2</ele><time>2026-04-26T09:16:45.517Z</time></trkpt><trkpt lat="43.1471017" lon="13.143415"><ele>564.4</ele><time>2026-04-26T09:16:46.517Z</time></trkpt><trkpt lat="43.1470283" lon="13.1435267"><ele>559.6</ele><time>2026-04-26T09:16:47.517Z</time></trkpt><trkpt lat="43.1469533" lon="13.1436383"><ele>554.8</ele><time>2026-04-26T09:16:48.517Z</time></trkpt><trkpt lat="43.1468967" lon="13.1437433"><ele>550.0</ele><time>2026-04-26T09:16:49.518Z</time></trkpt><trkpt lat="43.146845" lon="13.143845"><ele>550.0</ele><time>2026-04-26T09:16:50.517Z</time></trkpt><trkpt lat="43.14681" lon="13.1439367"><ele>550.0</ele><time>2026-04-26T09:16:51.517Z</time></trkpt><trkpt lat="43.1467867" lon="13.1440233"><ele>550.0</ele><time>2026-04-26T09:16:52.517Z</time></trkpt><trkpt lat="43.146735" lon="13.1441633"><ele>550.0</ele><time>2026-04-26T09:16:54.517Z</time></trkpt><trkpt lat="43.14666" lon="13.1442167"><ele>550.0</ele><time>2026-04-26T09:16:56.518Z</time></trkpt><trkpt lat="43.14661" lon="13.14416"><ele>550.0</ele><time>2026-04-26T09:16:58.517Z</time></trkpt><trkpt lat="43.1466217" lon="13.1440233"><ele>550.0</ele><time>2026-04-26T09:17:00.518Z</time></trkpt><trkpt lat="43.1466383" lon="13.1439283"><ele>550.0</ele><time>2026-04-26T09:17:01.517Z</time></trkpt><trkpt lat="43.1466517" lon="13.1438167"><ele>550.0</ele><time>2026-04-26T09:17:02.517Z</time></trkpt><trkpt lat="43.1466667" lon="13.14369"><ele>550.0</ele><time>2026-04-26T09:17:03.517Z</time></trkpt><trkpt lat="43.1466833" lon="13.14354"><ele>550.0</ele><time>2026-04-26T09:17:04.517Z</time></trkpt><trkpt lat="43.1466967" lon="13.14337"><ele>547.75</ele><time>2026-04-26T09:17:05.517Z</time></trkpt><trkpt lat="43.146715" lon="13.1431983"><ele>545.5</ele><time>2026-04-26T09:17:06.517Z</time></trkpt><trkpt lat="43.1467333" lon="13.1430117"><ele>543.25</ele><time>2026-04-26T09:17:07.517Z</time></trkpt><trkpt lat="43.1467533" lon="13.1428417"><ele>541.0</ele><time>2026-04-26T09:17:08.517Z</time></trkpt><trkpt lat="43.1467767" lon="13.1426767"><ele>541.0</ele><time>2026-04-26T09:17:09.518Z</time></trkpt><trkpt lat="43.146795" lon="13.1425133"><ele>541.0</ele><time>2026-04-26T09:17:10.517Z</time></trkpt><trkpt lat="43.1468133" lon="13.14235"><ele>541.0</ele><time>2026-04-26T09:17:11.517Z</time></trkpt><trkpt lat="43.1468267" lon="13.1421883"><ele>541.0</ele><time>2026-04-26T09:17:12.517Z</time></trkpt><trkpt lat="43.1468417" lon="13.14202"><ele>539.25</ele><time>2026-04-26T09:17:13.517Z</time></trkpt><trkpt lat="43.146845" lon="13.1418583"><ele>537.5</ele><time>2026-04-26T09:17:14.517Z</time></trkpt><trkpt lat="43.14684" lon="13.1416933"><ele>535.75</ele><time>2026-04-26T09:17:15.517Z</time></trkpt><trkpt lat="43.1468383" lon="13.1415383"><ele>534.0</ele><time>2026-04-26T09:17:16.517Z</time></trkpt><trkpt lat="43.1468367" lon="13.1413783"><ele>532.8</ele><time>2026-04-26T09:17:17.517Z</time></trkpt><trkpt lat="43.1468267" lon="13.141235"><ele>531.5999999999999</ele><time>2026-04-26T09:17:18.517Z</time></trkpt><trkpt lat="43.1468233" lon="13.141105"><ele>530.4</ele><time>2026-04-26T09:17:19.517Z</time></trkpt><trkpt lat="43.1468267" lon="13.1409833"><ele>529.1999999999999</ele><time>2026-04-26T09:17:20.517Z</time></trkpt><trkpt lat="43.1468433" lon="13.1408683"><ele>528.0</ele><time>2026-04-26T09:17:21.517Z</time></trkpt><trkpt lat="43.1468733" lon="13.1407433"><ele>525.0</ele><time>2026-04-26T09:17:22.518Z</time></trkpt><trkpt lat="43.1469233" lon="13.1406183"><ele>522.0</ele><time>2026-04-26T09:17:23.517Z</time></trkpt><trkpt lat="43.146985" lon="13.1405017"><ele>519.0</ele><time>2026-04-26T09:17:24.518Z</time></trkpt><trkpt lat="43.1470617" lon="13.1403817"><ele>516.0</ele><time>2026-04-26T09:17:25.517Z</time></trkpt><trkpt lat="43.1471383" lon="13.14026"><ele>513.0</ele><time>2026-04-26T09:17:26.518Z</time></trkpt><trkpt lat="43.1472117" lon="13.1401417"><ele>513.0</ele><time>2026-04-26T09:17:27.518Z</time></trkpt><trkpt lat="43.1472783" lon="13.1400367"><ele>513.0</ele><time>2026-04-26T09:17:28.518Z</time></trkpt><trkpt lat="43.1473367" lon="13.1399283"><ele>513.0</ele><time>2026-04-26T09:17:29.518Z</time></trkpt><trkpt lat="43.1473833" lon="13.139815"><ele>513.0</ele><time>2026-04-26T09:17:30.518Z</time></trkpt><trkpt lat="43.147425" lon="13.1396967"><ele>513.0</ele><time>2026-04-26T09:17:31.517Z</time></trkpt><trkpt lat="43.1474617" lon="13.1395583"><ele>514.0</ele><time>2026-04-26T09:17:32.517Z</time></trkpt><trkpt lat="43.14749" lon="13.1394067"><ele>515.0</ele><time>2026-04-26T09:17:33.517Z</time></trkpt><trkpt lat="43.1475183" lon="13.13924"><ele>516.0</ele><time>2026-04-26T09:17:34.517Z</time></trkpt><trkpt lat="43.14755" lon="13.1390717"><ele>517.0</ele><time>2026-04-26T09:17:35.518Z</time></trkpt><trkpt lat="43.1475717" lon="13.1388933"><ele>517.0</ele><time>2026-04-26T09:17:36.518Z</time></trkpt><trkpt lat="43.14759" lon="13.138735"><ele>517.0</ele><time>2026-04-26T09:17:37.517Z</time></trkpt><trkpt lat="43.1476117" lon="13.138575"><ele>517.0</ele><time>2026-04-26T09:17:38.517Z</time></trkpt><trkpt lat="43.1476233" lon="13.1384133"><ele>517.0</ele><time>2026-04-26T09:17:39.517Z</time></trkpt><trkpt lat="43.1476367" lon="13.1382467"><ele>514.0</ele><time>2026-04-26T09:17:40.517Z</time></trkpt><trkpt lat="43.1476433" lon="13.13807"><ele>511.0</ele><time>2026-04-26T09:17:41.518Z</time></trkpt><trkpt lat="43.1476467" lon="13.1378917"><ele>508.0</ele><time>2026-04-26T09:17:42.517Z</time></trkpt><trkpt lat="43.14765" lon="13.13769"><ele>505.0</ele><time>2026-04-26T09:17:43.517Z</time></trkpt><trkpt lat="43.1476533" lon="13.1374833"><ele>503.0</ele><time>2026-04-26T09:17:44.517Z</time></trkpt><trkpt lat="43.1476683" lon="13.1372867"><ele>501.0</ele><time>2026-04-26T09:17:45.517Z</time></trkpt><trkpt lat="43.1476833" lon="13.1371083"><ele>499.0</ele><time>2026-04-26T09:17:46.518Z</time></trkpt><trkpt lat="43.1476933" lon="13.136935"><ele>497.0</ele><time>2026-04-26T09:17:47.518Z</time></trkpt><trkpt lat="43.1477017" lon="13.1367733"><ele>497.0</ele><time>2026-04-26T09:17:48.517Z</time></trkpt><trkpt lat="43.14771" lon="13.136615"><ele>497.0</ele><time>2026-04-26T09:17:49.517Z</time></trkpt><trkpt lat="43.1477183" lon="13.1364483"><ele>497.0</ele><time>2026-04-26T09:17:50.517Z</time></trkpt><trkpt lat="43.1477283" lon="13.13628"><ele>497.0</ele><time>2026-04-26T09:17:51.517Z</time></trkpt><trkpt lat="43.1477433" lon="13.1361167"><ele>495.0</ele><time>2026-04-26T09:17:52.517Z</time></trkpt><trkpt lat="43.1477633" lon="13.1359533"><ele>493.0</ele><time>2026-04-26T09:17:53.518Z</time></trkpt><trkpt lat="43.1477767" lon="13.1357967"><ele>491.0</ele><time>2026-04-26T09:17:54.518Z</time></trkpt><trkpt lat="43.1477967" lon="13.1356333"><ele>489.0</ele><time>2026-04-26T09:17:55.517Z</time></trkpt><trkpt lat="43.1478133" lon="13.1354767"><ele>488.1666666666667</ele><time>2026-04-26T09:17:56.517Z</time></trkpt><trkpt lat="43.147825" lon="13.1353383"><ele>487.33333333333337</ele><time>2026-04-26T09:17:57.517Z</time></trkpt><trkpt lat="43.14783" lon="13.13522"><ele>486.5</ele><time>2026-04-26T09:17:58.517Z</time></trkpt><trkpt lat="43.1478417" lon="13.135115"><ele>485.6666666666667</ele><time>2026-04-26T09:17:59.518Z</time></trkpt><trkpt lat="43.1478567" lon="13.1349983"><ele>484.83333333333337</ele><time>2026-04-26T09:18:00.517Z</time></trkpt><trkpt lat="43.1478733" lon="13.13487"><ele>484.0</ele><time>2026-04-26T09:18:01.517Z</time></trkpt><trkpt lat="43.1478933" lon="13.13473"><ele>483.0</ele><time>2026-04-26T09:18:02.518Z</time></trkpt><trkpt lat="43.14791" lon="13.134585"><ele>482.0</ele><time>2026-04-26T09:18:03.517Z</time></trkpt><trkpt lat="43.1479233" lon="13.1344417"><ele>481.0</ele><time>2026-04-26T09:18:04.517Z</time></trkpt><trkpt lat="43.1479383" lon="13.1343067"><ele>480.0</ele><time>2026-04-26T09:18:05.518Z</time></trkpt><trkpt lat="43.1479567" lon="13.1341867"><ele>479.0</ele><time>2026-04-26T09:18:06.518Z</time></trkpt><trkpt lat="43.1479767" lon="13.13408"><ele>477.16666666666663</ele><time>2026-04-26T09:18:07.517Z</time></trkpt><trkpt lat="43.147995" lon="13.1339583"><ele>475.3333333333333</ele><time>2026-04-26T09:18:08.517Z</time></trkpt><trkpt lat="43.1480083" lon="13.1338467"><ele>473.5</ele><time>2026-04-26T09:18:09.517Z</time></trkpt><trkpt lat="43.1480183" lon="13.1337317"><ele>471.66666666666663</ele><time>2026-04-26T09:18:10.518Z</time></trkpt><trkpt lat="43.1480283" lon="13.1336083"><ele>469.8333333333333</ele><time>2026-04-26T09:18:11.517Z</time></trkpt><trkpt lat="43.14804" lon="13.1334833"><ele>468.0</ele><time>2026-04-26T09:18:12.517Z</time></trkpt><trkpt lat="43.1480533" lon="13.1333567"><ele>471.2</ele><time>2026-04-26T09:18:13.517Z</time></trkpt><trkpt lat="43.14808" lon="13.13322"><ele>474.4</ele><time>2026-04-26T09:18:14.517Z</time></trkpt><trkpt lat="43.1481133" lon="13.1330883"><ele>477.59999999999997</ele><time>2026-04-26T09:18:15.518Z</time></trkpt><trkpt lat="43.1481633" lon="13.1329533"><ele>480.79999999999995</ele><time>2026-04-26T09:18:16.518Z</time></trkpt><trkpt lat="43.14821" lon="13.13282"><ele>484.0</ele><time>2026-04-26T09:18:17.517Z</time></trkpt><trkpt lat="43.148255" lon="13.1326817"><ele>484.0</ele><time>2026-04-26T09:18:18.517Z</time></trkpt><trkpt lat="43.14831" lon="13.1325467"><ele>484.0</ele><time>2026-04-26T09:18:19.517Z</time></trkpt><trkpt lat="43.1483733" lon="13.1323983"><ele>484.0</ele><time>2026-04-26T09:18:20.518Z</time></trkpt><trkpt lat="43.148435" lon="13.132255"><ele>484.0</ele><time>2026-04-26T09:18:21.517Z</time></trkpt><trkpt lat="43.1485" lon="13.1321017"><ele>478.25</ele><time>2026-04-26T09:18:22.517Z</time></trkpt><trkpt lat="43.1485583" lon="13.1319483"><ele>472.5</ele><time>2026-04-26T09:18:23.517Z</time></trkpt><trkpt lat="43.1486117" lon="13.1318017"><ele>466.75</ele><time>2026-04-26T09:18:24.517Z</time></trkpt><trkpt lat="43.1486667" lon="13.1316567"><ele>461.0</ele><time>2026-04-26T09:18:25.518Z</time></trkpt><trkpt lat="43.1487217" lon="13.13151"><ele>455.25</ele><time>2026-04-26T09:18:26.517Z</time></trkpt><trkpt lat="43.1487783" lon="13.1313617"><ele>449.5</ele><time>2026-04-26T09:18:27.517Z</time></trkpt><trkpt lat="43.148845" lon="13.1312167"><ele>443.75</ele><time>2026-04-26T09:18:28.517Z</time></trkpt><trkpt lat="43.1489167" lon="13.13107"><ele>438.0</ele><time>2026-04-26T09:18:29.517Z</time></trkpt><trkpt lat="43.14898" lon="13.1309217"><ele>441.0</ele><time>2026-04-26T09:18:30.518Z</time></trkpt><trkpt lat="43.149045" lon="13.1307767"><ele>444.0</ele><time>2026-04-26T09:18:31.517Z</time></trkpt><trkpt lat="43.14911" lon="13.1306333"><ele>447.0</ele><time>2026-04-26T09:18:32.518Z</time></trkpt><trkpt lat="43.1491717" lon="13.1304917"><ele>450.0</ele><time>2026-04-26T09:18:33.517Z</time></trkpt><trkpt lat="43.1492367" lon="13.1303467"><ele>450.0</ele><time>2026-04-26T09:18:34.518Z</time></trkpt><trkpt lat="43.1493033" lon="13.1302133"><ele>450.0</ele><time>2026-04-26T09:18:35.517Z</time></trkpt><trkpt lat="43.14937" lon="13.1300833"><ele>450.0</ele><time>2026-04-26T09:18:36.517Z</time></trkpt><trkpt lat="43.1494333" lon="13.1299567"><ele>450.0</ele><time>2026-04-26T09:18:37.517Z</time></trkpt><trkpt lat="43.1494983" lon="13.1298333"><ele>450.6</ele><time>2026-04-26T09:18:38.517Z</time></trkpt><trkpt lat="43.1495667" lon="13.1297267"><ele>451.2</ele><time>2026-04-26T09:18:39.517Z</time></trkpt><trkpt lat="43.1496367" lon="13.129615"><ele>451.79999999999995</ele><time>2026-04-26T09:18:40.517Z</time></trkpt><trkpt lat="43.1497117" lon="13.129515"><ele>452.4</ele><time>2026-04-26T09:18:41.517Z</time></trkpt><trkpt lat="43.1497983" lon="13.1294083"><ele>453.0</ele><time>2026-04-26T09:18:42.518Z</time></trkpt><trkpt lat="43.1498933" lon="13.1293033"><ele>453.0</ele><time>2026-04-26T09:18:43.517Z</time></trkpt><trkpt lat="43.14999" lon="13.1292"><ele>453.0</ele><time>2026-04-26T09:18:44.518Z</time></trkpt><trkpt lat="43.1500917" lon="13.1291"><ele>453.0</ele><time>2026-04-26T09:18:45.517Z</time></trkpt><trkpt lat="43.150195" lon="13.129"><ele>453.0</ele><time>2026-04-26T09:18:46.517Z</time></trkpt><trkpt lat="43.150295" lon="13.128905"><ele>445.25</ele><time>2026-04-26T09:18:47.517Z</time></trkpt><trkpt lat="43.150395" lon="13.1288117"><ele>437.5</ele><time>2026-04-26T09:18:48.517Z</time></trkpt><trkpt lat="43.1504967" lon="13.1287183"><ele>429.75</ele><time>2026-04-26T09:18:49.517Z</time></trkpt><trkpt lat="43.1506017" lon="13.12864"><ele>422.0</ele><time>2026-04-26T09:18:50.518Z</time></trkpt><trkpt lat="43.1506983" lon="13.12855"><ele>425.75</ele><time>2026-04-26T09:18:51.517Z</time></trkpt><trkpt lat="43.1508167" lon="13.128485"><ele>429.5</ele><time>2026-04-26T09:18:52.517Z</time></trkpt><trkpt lat="43.150935" lon="13.1284367"><ele>433.25</ele><time>2026-04-26T09:18:53.518Z</time></trkpt><trkpt lat="43.1510417" lon="13.128385"><ele>437.0</ele><time>2026-04-26T09:18:54.518Z</time></trkpt><trkpt lat="43.1511533" lon="13.1283383"><ele>437.0</ele><time>2026-04-26T09:18:55.518Z</time></trkpt><trkpt lat="43.1512683" lon="13.1282867"><ele>437.0</ele><time>2026-04-26T09:18:56.518Z</time></trkpt><trkpt lat="43.151375" lon="13.1282217"><ele>437.0</ele><time>2026-04-26T09:18:57.518Z</time></trkpt><trkpt lat="43.151475" lon="13.12815"><ele>437.0</ele><time>2026-04-26T09:18:58.518Z</time></trkpt><trkpt lat="43.1515617" lon="13.12807"><ele>435.25</ele><time>2026-04-26T09:18:59.518Z</time></trkpt><trkpt lat="43.1516433" lon="13.12796"><ele>433.5</ele><time>2026-04-26T09:19:00.517Z</time></trkpt><trkpt lat="43.1517167" lon="13.1278283"><ele>431.75</ele><time>2026-04-26T09:19:01.517Z</time></trkpt><trkpt lat="43.1517867" lon="13.1276917"><ele>430.0</ele><time>2026-04-26T09:19:02.518Z</time></trkpt><trkpt lat="43.1518517" lon="13.1275617"><ele>430.0</ele><time>2026-04-26T09:19:03.517Z</time></trkpt><trkpt lat="43.1519133" lon="13.1274267"><ele>430.0</ele><time>2026-04-26T09:19:04.518Z</time></trkpt><trkpt lat="43.1519767" lon="13.1272933"><ele>430.0</ele><time>2026-04-26T09:19:05.517Z</time></trkpt><trkpt lat="43.1520467" lon="13.1271667"><ele>430.0</ele><time>2026-04-26T09:19:06.518Z</time></trkpt><trkpt lat="43.1521117" lon="13.12704"><ele>430.4</ele><time>2026-04-26T09:19:07.517Z</time></trkpt><trkpt lat="43.15218" lon="13.1269267"><ele>430.8</ele><time>2026-04-26T09:19:08.517Z</time></trkpt><trkpt lat="43.1522533" lon="13.12682"><ele>431.20000000000005</ele><time>2026-04-26T09:19:09.517Z</time></trkpt><trkpt lat="43.15234" lon="13.1267217"><ele>431.6</ele><time>2026-04-26T09:19:10.517Z</time></trkpt><trkpt lat="43.1524367" lon="13.126625"><ele>432.0</ele><time>2026-04-26T09:19:11.518Z</time></trkpt><trkpt lat="43.1525333" lon="13.1265333"><ele>431.0</ele><time>2026-04-26T09:19:12.517Z</time></trkpt><trkpt lat="43.15263" lon="13.12645"><ele>430.0</ele><time>2026-04-26T09:19:13.517Z</time></trkpt><trkpt lat="43.152725" lon="13.126365"><ele>429.0</ele><time>2026-04-26T09:19:14.517Z</time></trkpt><trkpt lat="43.1528067" lon="13.1262683"><ele>428.0</ele><time>2026-04-26T09:19:15.517Z</time></trkpt><trkpt lat="43.1528817" lon="13.1261417"><ele>428.0</ele><time>2026-04-26T09:19:16.517Z</time></trkpt><trkpt lat="43.1529433" lon="13.126"><ele>427.99999999999994</ele><time>2026-04-26T09:19:17.517Z</time></trkpt><trkpt lat="43.1530017" lon="13.1258583"><ele>427.99999999999994</ele><time>2026-04-26T09:19:18.517Z</time></trkpt><trkpt lat="43.1530533" lon="13.1257267"><ele>428.0</ele><time>2026-04-26T09:19:19.517Z</time></trkpt><trkpt lat="43.153095" lon="13.1256083"><ele>428.0</ele><time>2026-04-26T09:19:20.517Z</time></trkpt><trkpt lat="43.1531233" lon="13.1255083"><ele>431.59999999999997</ele><time>2026-04-26T09:19:21.517Z</time></trkpt><trkpt lat="43.1531467" lon="13.125425"><ele>435.19999999999993</ele><time>2026-04-26T09:19:22.517Z</time></trkpt><trkpt lat="43.1531283" lon="13.125275"><ele>438.8</ele><time>2026-04-26T09:19:24.516Z</time></trkpt><trkpt lat="43.1530367" lon="13.125155"><ele>442.4</ele><time>2026-04-26T09:19:26.516Z</time></trkpt><trkpt lat="43.15296" lon="13.1251233"><ele>446.0</ele><time>2026-04-26T09:19:27.516Z</time></trkpt><trkpt lat="43.1528833" lon="13.1251017"><ele>445.99999999999994</ele><time>2026-04-26T09:19:28.517Z</time></trkpt><trkpt lat="43.152815" lon="13.1251183"><ele>446.0</ele><time>2026-04-26T09:19:29.516Z</time></trkpt><trkpt lat="43.1527583" lon="13.125175"><ele>446.0</ele><time>2026-04-26T09:19:30.516Z</time></trkpt><trkpt lat="43.1527017" lon="13.1252567"><ele>446.0</ele><time>2026-04-26T09:19:31.516Z</time></trkpt><trkpt lat="43.1526383" lon="13.1253517"><ele>445.99999999999994</ele><time>2026-04-26T09:19:32.516Z</time></trkpt><trkpt lat="43.1525633" lon="13.1254567"><ele>446.0</ele><time>2026-04-26T09:19:33.516Z</time></trkpt><trkpt lat="43.1524733" lon="13.1255583"><ele>446.0</ele><time>2026-04-26T09:19:34.516Z</time></trkpt><trkpt lat="43.1523817" lon="13.1256633"><ele>446.0</ele><time>2026-04-26T09:19:35.517Z</time></trkpt><trkpt lat="43.1522883" lon="13.125765"><ele>446.0</ele><time>2026-04-26T09:19:36.516Z</time></trkpt><trkpt lat="43.1522033" lon="13.1258683"><ele>446.0</ele><time>2026-04-26T09:19:37.517Z</time></trkpt><trkpt lat="43.1521167" lon="13.12597"><ele>445.8</ele><time>2026-04-26T09:19:38.516Z</time></trkpt><trkpt lat="43.1520267" lon="13.12607"><ele>445.6</ele><time>2026-04-26T09:19:39.517Z</time></trkpt><trkpt lat="43.151935" lon="13.1261633"><ele>445.4</ele><time>2026-04-26T09:19:40.516Z</time></trkpt><trkpt lat="43.1518533" lon="13.12624"><ele>445.2</ele><time>2026-04-26T09:19:41.516Z</time></trkpt><trkpt lat="43.15177" lon="13.1263067"><ele>445.0</ele><time>2026-04-26T09:19:42.516Z</time></trkpt><trkpt lat="43.151665" lon="13.12635"><ele>445.0</ele><time>2026-04-26T09:19:43.517Z</time></trkpt><trkpt lat="43.15156" lon="13.126385"><ele>445.0</ele><time>2026-04-26T09:19:44.516Z</time></trkpt><trkpt lat="43.1514433" lon="13.126415"><ele>445.0</ele><time>2026-04-26T09:19:45.516Z</time></trkpt><trkpt lat="43.1513233" lon="13.1264433"><ele>445.0</ele><time>2026-04-26T09:19:46.517Z</time></trkpt><trkpt lat="43.15121" lon="13.126465"><ele>449.25</ele><time>2026-04-26T09:19:47.517Z</time></trkpt><trkpt lat="43.1510917" lon="13.126505"><ele>453.5</ele><time>2026-04-26T09:19:48.516Z</time></trkpt><trkpt lat="43.1509717" lon="13.1265667"><ele>457.75</ele><time>2026-04-26T09:19:49.516Z</time></trkpt><trkpt lat="43.1508667" lon="13.1266483"><ele>462.0</ele><time>2026-04-26T09:19:50.516Z</time></trkpt><trkpt lat="43.1507733" lon="13.1267233"><ele>458.0</ele><time>2026-04-26T09:19:51.516Z</time></trkpt><trkpt lat="43.1506933" lon="13.1268"><ele>454.00000000000006</ele><time>2026-04-26T09:19:52.516Z</time></trkpt><trkpt lat="43.15061" lon="13.1268617"><ele>450.00000000000006</ele><time>2026-04-26T09:19:53.517Z</time></trkpt><trkpt lat="43.1505217" lon="13.1269083"><ele>446.0</ele><time>2026-04-26T09:19:54.516Z</time></trkpt><trkpt lat="43.1504183" lon="13.126945"><ele>442.0</ele><time>2026-04-26T09:19:55.516Z</time></trkpt><trkpt lat="43.1503117" lon="13.12698"><ele>442.00000000000006</ele><time>2026-04-26T09:19:56.516Z</time></trkpt><trkpt lat="43.15021" lon="13.1269983"><ele>442.0</ele><time>2026-04-26T09:19:57.516Z</time></trkpt><trkpt lat="43.1501267" lon="13.1270083"><ele>442.0</ele><time>2026-04-26T09:19:58.516Z</time></trkpt><trkpt lat="43.1500533" lon="13.1270017"><ele>442.0</ele><time>2026-04-26T09:19:59.516Z</time></trkpt><trkpt lat="43.1499717" lon="13.12699"><ele>442.00000000000006</ele><time>2026-04-26T09:20:01.516Z</time></trkpt><trkpt lat="43.1499" lon="13.1269883"><ele>442.0</ele><time>2026-04-26T09:20:04.516Z</time></trkpt><trkpt lat="43.1498117" lon="13.1270033"><ele>439.1666666666667</ele><time>2026-04-26T09:20:06.516Z</time></trkpt><trkpt lat="43.1497467" lon="13.12707"><ele>436.33333333333337</ele><time>2026-04-26T09:20:08.516Z</time></trkpt><trkpt lat="43.1497033" lon="13.1271617"><ele>433.5</ele><time>2026-04-26T09:20:10.517Z</time></trkpt><trkpt lat="43.1496483" lon="13.12723"><ele>430.66666666666663</ele><time>2026-04-26T09:20:15.516Z</time></trkpt><trkpt lat="43.14959" lon="13.12732"><ele>427.8333333333333</ele><time>2026-04-26T09:20:17.517Z</time></trkpt><trkpt lat="43.14953" lon="13.127395"><ele>425.0</ele><time>2026-04-26T09:20:18.516Z</time></trkpt><trkpt lat="43.1494533" lon="13.1274683"><ele>425.0</ele><time>2026-04-26T09:20:19.517Z</time></trkpt><trkpt lat="43.1493833" lon="13.1275333"><ele>425.0</ele><time>2026-04-26T09:20:20.516Z</time></trkpt><trkpt lat="43.1493" lon="13.1275883"><ele>425.0</ele><time>2026-04-26T09:20:21.516Z</time></trkpt><trkpt lat="43.1492033" lon="13.1276433"><ele>425.0</ele><time>2026-04-26T09:20:22.516Z</time></trkpt><trkpt lat="43.1491033" lon="13.1277067"><ele>425.0</ele><time>2026-04-26T09:20:23.516Z</time></trkpt><trkpt lat="43.1490017" lon="13.1277783"><ele>431.75</ele><time>2026-04-26T09:20:24.516Z</time></trkpt><trkpt lat="43.1488933" lon="13.12784"><ele>438.5</ele><time>2026-04-26T09:20:25.516Z</time></trkpt><trkpt lat="43.1487783" lon="13.1278983"><ele>445.25</ele><time>2026-04-26T09:20:26.516Z</time></trkpt><trkpt lat="43.1486533" lon="13.12797"><ele>452.0</ele><time>2026-04-26T09:20:27.516Z</time></trkpt><trkpt lat="43.14853" lon="13.1280517"><ele>452.0</ele><time>2026-04-26T09:20:28.516Z</time></trkpt><trkpt lat="43.14841" lon="13.1281433"><ele>452.0</ele><time>2026-04-26T09:20:29.516Z</time></trkpt><trkpt lat="43.148295" lon="13.128255"><ele>452.0</ele><time>2026-04-26T09:20:30.517Z</time></trkpt><trkpt lat="43.1481933" lon="13.1283767"><ele>452.0</ele><time>2026-04-26T09:20:31.516Z</time></trkpt><trkpt lat="43.148095" lon="13.1284933"><ele>449.75</ele><time>2026-04-26T09:20:32.516Z</time></trkpt><trkpt lat="43.1479933" lon="13.1286083"><ele>447.5</ele><time>2026-04-26T09:20:33.516Z</time></trkpt><trkpt lat="43.14789" lon="13.1287317"><ele>445.25</ele><time>2026-04-26T09:20:34.516Z</time></trkpt><trkpt lat="43.1478" lon="13.1288417"><ele>443.0</ele><time>2026-04-26T09:20:35.516Z</time></trkpt><trkpt lat="43.147715" lon="13.1289467"><ele>443.0</ele><time>2026-04-26T09:20:36.516Z</time></trkpt><trkpt lat="43.1476383" lon="13.1290433"><ele>442.99999999999994</ele><time>2026-04-26T09:20:37.516Z</time></trkpt><trkpt lat="43.1475617" lon="13.129135"><ele>442.99999999999994</ele><time>2026-04-26T09:20:38.516Z</time></trkpt><trkpt lat="43.1475" lon="13.1292317"><ele>443.0</ele><time>2026-04-26T09:20:39.516Z</time></trkpt><trkpt lat="43.14744" lon="13.129305"><ele>443.0</ele><time>2026-04-26T09:20:40.517Z</time></trkpt><trkpt lat="43.1473933" lon="13.129385"><ele>441.66666666666663</ele><time>2026-04-26T09:20:41.516Z</time></trkpt><trkpt lat="43.1473433" lon="13.12946"><ele>440.3333333333333</ele><time>2026-04-26T09:20:42.516Z</time></trkpt><trkpt lat="43.1472983" lon="13.1295267"><ele>439.0</ele><time>2026-04-26T09:20:43.516Z</time></trkpt><trkpt lat="43.1472467" lon="13.1295767"><ele>437.66666666666663</ele><time>2026-04-26T09:20:44.516Z</time></trkpt><trkpt lat="43.1471933" lon="13.129625"><ele>436.3333333333333</ele><time>2026-04-26T09:20:45.516Z</time></trkpt><trkpt lat="43.1471" lon="13.129705"><ele>435.0</ele><time>2026-04-26T09:20:47.516Z</time></trkpt><trkpt lat="43.1470267" lon="13.1297533"><ele>435.0</ele><time>2026-04-26T09:20:49.516Z</time></trkpt><trkpt lat="43.1469667" lon="13.1297933"><ele>435.0</ele><time>2026-04-26T09:20:51.516Z</time></trkpt><trkpt lat="43.1469" lon="13.1298517"><ele>435.0</ele><time>2026-04-26T09:20:54.516Z</time></trkpt><trkpt lat="43.146835" lon="13.1299133"><ele>435.0</ele><time>2026-04-26T09:20:57.516Z</time></trkpt><trkpt lat="43.1468183" lon="13.130005"><ele>435.0</ele><time>2026-04-26T09:20:59.516Z</time></trkpt><trkpt lat="43.1468017" lon="13.130095"><ele>435.0</ele><time>2026-04-26T09:21:01.517Z</time></trkpt><trkpt lat="43.1467683" lon="13.1302067"><ele>432.5</ele><time>2026-04-26T09:21:03.517Z</time></trkpt><trkpt lat="43.14672" lon="13.130305"><ele>430.0</ele><time>2026-04-26T09:21:05.517Z</time></trkpt><trkpt lat="43.14668" lon="13.1303883"><ele>427.5</ele><time>2026-04-26T09:21:07.516Z</time></trkpt><trkpt lat="43.1466117" lon="13.13048"><ele>425.0</ele><time>2026-04-26T09:21:10.516Z</time></trkpt><trkpt lat="43.1465417" lon="13.1305333"><ele>422.5</ele><time>2026-04-26T09:21:13.516Z</time></trkpt><trkpt lat="43.1464733" lon="13.1305817"><ele>420.0</ele><time>2026-04-26T09:21:15.517Z</time></trkpt><trkpt lat="43.1464067" lon="13.130715"><ele>425.8</ele><time>2026-04-26T09:21:17.516Z</time></trkpt><trkpt lat="43.14637" lon="13.130815"><ele>431.6</ele><time>2026-04-26T09:21:18.516Z</time></trkpt><trkpt lat="43.1463367" lon="13.1309417"><ele>437.4</ele><time>2026-04-26T09:21:19.517Z</time></trkpt><trkpt lat="43.1462967" lon="13.1310517"><ele>443.2</ele><time>2026-04-26T09:21:20.516Z</time></trkpt><trkpt lat="43.1462583" lon="13.1311717"><ele>449.0</ele><time>2026-04-26T09:21:21.517Z</time></trkpt><trkpt lat="43.1462267" lon="13.13129"><ele>449.0</ele><time>2026-04-26T09:21:22.516Z</time></trkpt><trkpt lat="43.1461917" lon="13.1314033"><ele>449.0</ele><time>2026-04-26T09:21:23.516Z</time></trkpt><trkpt lat="43.1461483" lon="13.1315217"><ele>449.0</ele><time>2026-04-26T09:21:24.517Z</time></trkpt><trkpt lat="43.14611" lon="13.1316383"><ele>449.0</ele><time>2026-04-26T09:21:25.516Z</time></trkpt><trkpt lat="43.146075" lon="13.1317517"><ele>449.0</ele><time>2026-04-26T09:21:26.516Z</time></trkpt><trkpt lat="43.14604" lon="13.13187"><ele>443.79999999999995</ele><time>2026-04-26T09:21:27.516Z</time></trkpt><trkpt lat="43.146005" lon="13.1319883"><ele>438.59999999999997</ele><time>2026-04-26T09:21:28.516Z</time></trkpt><trkpt lat="43.1459683" lon="13.1321017"><ele>433.4</ele><time>2026-04-26T09:21:29.516Z</time></trkpt><trkpt lat="43.1459317" lon="13.132225"><ele>428.2</ele><time>2026-04-26T09:21:30.517Z</time></trkpt><trkpt lat="43.1458983" lon="13.1323433"><ele>423.0</ele><time>2026-04-26T09:21:31.516Z</time></trkpt><trkpt lat="43.145875" lon="13.1324533"><ele>420.0</ele><time>2026-04-26T09:21:32.516Z</time></trkpt><trkpt lat="43.1458633" lon="13.1325667"><ele>417.0</ele><time>2026-04-26T09:21:33.516Z</time></trkpt><trkpt lat="43.1458567" lon="13.1326767"><ele>414.0</ele><time>2026-04-26T09:21:34.516Z</time></trkpt><trkpt lat="43.14586" lon="13.1327767"><ele>411.0</ele><time>2026-04-26T09:21:35.516Z</time></trkpt><trkpt lat="43.145865" lon="13.1328667"><ele>408.0</ele><time>2026-04-26T09:21:36.516Z</time></trkpt><trkpt lat="43.1458617" lon="13.132955"><ele>405.0</ele><time>2026-04-26T09:21:37.516Z</time></trkpt><trkpt lat="43.1458383" lon="13.1330367"><ele>402.0</ele><time>2026-04-26T09:21:38.516Z</time></trkpt><trkpt lat="43.1458033" lon="13.133115"><ele>402.0</ele><time>2026-04-26T09:21:39.516Z</time></trkpt><trkpt lat="43.145755" lon="13.13318"><ele>402.0</ele><time>2026-04-26T09:21:40.516Z</time></trkpt><trkpt lat="43.145685" lon="13.1332217"><ele>402.0</ele><time>2026-04-26T09:21:41.516Z</time></trkpt><trkpt lat="43.1455967" lon="13.1332617"><ele>402.0</ele><time>2026-04-26T09:21:42.516Z</time></trkpt><trkpt lat="43.1454967" lon="13.1333017"><ele>402.0</ele><time>2026-04-26T09:21:43.516Z</time></trkpt><trkpt lat="43.1453983" lon="13.1333617"><ele>402.0</ele><time>2026-04-26T09:21:44.516Z</time></trkpt><trkpt lat="43.145315" lon="13.1334467"><ele>402.6</ele><time>2026-04-26T09:21:45.516Z</time></trkpt><trkpt lat="43.145235" lon="13.1335433"><ele>403.20000000000005</ele><time>2026-04-26T09:21:46.516Z</time></trkpt><trkpt lat="43.14517" lon="13.1336517"><ele>403.8</ele><time>2026-04-26T09:21:47.516Z</time></trkpt><trkpt lat="43.1451083" lon="13.1337633"><ele>404.4</ele><time>2026-04-26T09:21:48.516Z</time></trkpt><trkpt lat="43.1450633" lon="13.1338817"><ele>405.0</ele><time>2026-04-26T09:21:49.516Z</time></trkpt><trkpt lat="43.1450283" lon="13.134015"><ele>402.25</ele><time>2026-04-26T09:21:50.516Z</time></trkpt><trkpt lat="43.145005" lon="13.1341633"><ele>399.5</ele><time>2026-04-26T09:21:51.516Z</time></trkpt><trkpt lat="43.1449833" lon="13.1343183"><ele>396.75</ele><time>2026-04-26T09:21:52.516Z</time></trkpt><trkpt lat="43.144955" lon="13.1344767"><ele>394.0</ele><time>2026-04-26T09:21:53.516Z</time></trkpt><trkpt lat="43.1449167" lon="13.1346283"><ele>397.0</ele><time>2026-04-26T09:21:54.516Z</time></trkpt><trkpt lat="43.144865" lon="13.13477"><ele>400.0</ele><time>2026-04-26T09:21:55.516Z</time></trkpt><trkpt lat="43.144805" lon="13.1349017"><ele>403.0</ele><time>2026-04-26T09:21:56.516Z</time></trkpt><trkpt lat="43.1447467" lon="13.1350283"><ele>406.0</ele><time>2026-04-26T09:21:57.517Z</time></trkpt><trkpt lat="43.1447017" lon="13.1351517"><ele>409.0</ele><time>2026-04-26T09:21:58.516Z</time></trkpt><trkpt lat="43.1446683" lon="13.13527"><ele>409.0</ele><time>2026-04-26T09:21:59.516Z</time></trkpt><trkpt lat="43.1446467" lon="13.1353983"><ele>409.0</ele><time>2026-04-26T09:22:00.516Z</time></trkpt><trkpt lat="43.1446467" lon="13.1355417"><ele>409.0</ele><time>2026-04-26T09:22:01.516Z</time></trkpt><trkpt lat="43.1446567" lon="13.1356933"><ele>409.0</ele><time>2026-04-26T09:22:02.516Z</time></trkpt><trkpt lat="43.144675" lon="13.1358617"><ele>409.0</ele><time>2026-04-26T09:22:03.516Z</time></trkpt><trkpt lat="43.1446917" lon="13.1360467"><ele>407.25</ele><time>2026-04-26T09:22:04.516Z</time></trkpt><trkpt lat="43.1447033" lon="13.1362433"><ele>405.5</ele><time>2026-04-26T09:22:05.516Z</time></trkpt><trkpt lat="43.1447067" lon="13.1364417"><ele>403.75</ele><time>2026-04-26T09:22:06.516Z</time></trkpt><trkpt lat="43.1447083" lon="13.136635"><ele>402.0</ele><time>2026-04-26T09:22:07.516Z</time></trkpt><trkpt lat="43.1446983" lon="13.1368233"><ele>400.0</ele><time>2026-04-26T09:22:08.516Z</time></trkpt><trkpt lat="43.144675" lon="13.13701"><ele>398.0</ele><time>2026-04-26T09:22:09.517Z</time></trkpt><trkpt lat="43.1446417" lon="13.13719"><ele>396.0</ele><time>2026-04-26T09:22:10.516Z</time></trkpt><trkpt lat="43.1446033" lon="13.1373917"><ele>394.0</ele><time>2026-04-26T09:22:11.516Z</time></trkpt><trkpt lat="43.1445683" lon="13.1375883"><ele>393.0</ele><time>2026-04-26T09:22:12.516Z</time></trkpt><trkpt lat="43.1445333" lon="13.1377867"><ele>392.0</ele><time>2026-04-26T09:22:13.516Z</time></trkpt><trkpt lat="43.144515" lon="13.1379783"><ele>391.0</ele><time>2026-04-26T09:22:14.516Z</time></trkpt><trkpt lat="43.1444867" lon="13.1381617"><ele>390.0</ele><time>2026-04-26T09:22:15.516Z</time></trkpt><trkpt lat="43.1444517" lon="13.1383383"><ele>388.5</ele><time>2026-04-26T09:22:16.517Z</time></trkpt><trkpt lat="43.1444167" lon="13.1385267"><ele>387.0</ele><time>2026-04-26T09:22:17.516Z</time></trkpt><trkpt lat="43.1443817" lon="13.1387183"><ele>385.5</ele><time>2026-04-26T09:22:18.517Z</time></trkpt><trkpt lat="43.1443283" lon="13.1388983"><ele>384.0</ele><time>2026-04-26T09:22:19.516Z</time></trkpt><trkpt lat="43.144275" lon="13.1390683"><ele>383.5</ele><time>2026-04-26T09:22:20.516Z</time></trkpt><trkpt lat="43.1442167" lon="13.1392283"><ele>383.0</ele><time>2026-04-26T09:22:21.516Z</time></trkpt><trkpt lat="43.1441467" lon="13.1393817"><ele>382.5</ele><time>2026-04-26T09:22:22.517Z</time></trkpt><trkpt lat="43.1440833" lon="13.1395217"><ele>382.0</ele><time>2026-04-26T09:22:23.516Z</time></trkpt><trkpt lat="43.1440133" lon="13.1396417"><ele>381.6</ele><time>2026-04-26T09:22:24.516Z</time></trkpt><trkpt lat="43.1439433" lon="13.1397483"><ele>381.20000000000005</ele><time>2026-04-26T09:22:25.516Z</time></trkpt><trkpt lat="43.1438817" lon="13.1398633"><ele>380.8</ele><time>2026-04-26T09:22:26.516Z</time></trkpt><trkpt lat="43.1438367" lon="13.1399917"><ele>380.4</ele><time>2026-04-26T09:22:27.516Z</time></trkpt><trkpt lat="43.1438033" lon="13.140125"><ele>380.0</ele><time>2026-04-26T09:22:28.516Z</time></trkpt><trkpt lat="43.1437767" lon="13.1402733"><ele>380.0</ele><time>2026-04-26T09:22:29.517Z</time></trkpt><trkpt lat="43.143755" lon="13.1404367"><ele>380.0</ele><time>2026-04-26T09:22:30.516Z</time></trkpt><trkpt lat="43.14373" lon="13.1406083"><ele>380.0</ele><time>2026-04-26T09:22:31.516Z</time></trkpt><trkpt lat="43.1437017" lon="13.1407933"><ele>380.0</ele><time>2026-04-26T09:22:32.516Z</time></trkpt><trkpt lat="43.143665" lon="13.1409883"><ele>377.75</ele><time>2026-04-26T09:22:33.517Z</time></trkpt><trkpt lat="43.1436283" lon="13.1411717"><ele>375.5</ele><time>2026-04-26T09:22:34.517Z</time></trkpt><trkpt lat="43.1435933" lon="13.14135"><ele>373.25</ele><time>2026-04-26T09:22:35.516Z</time></trkpt><trkpt lat="43.1435617" lon="13.1415317"><ele>371.0</ele><time>2026-04-26T09:22:36.516Z</time></trkpt><trkpt lat="43.1435267" lon="13.141705"><ele>370.75</ele><time>2026-04-26T09:22:37.516Z</time></trkpt><trkpt lat="43.143495" lon="13.1418683"><ele>370.5</ele><time>2026-04-26T09:22:38.517Z</time></trkpt><trkpt lat="43.14345" lon="13.1420167"><ele>370.25</ele><time>2026-04-26T09:22:39.516Z</time></trkpt><trkpt lat="43.1434033" lon="13.142165"><ele>370.0</ele><time>2026-04-26T09:22:40.516Z</time></trkpt><trkpt lat="43.1433567" lon="13.1423117"><ele>369.5</ele><time>2026-04-26T09:22:41.516Z</time></trkpt><trkpt lat="43.143305" lon="13.1424717"><ele>369.0</ele><time>2026-04-26T09:22:42.516Z</time></trkpt><trkpt lat="43.14325" lon="13.1426367"><ele>368.5</ele><time>2026-04-26T09:22:43.517Z</time></trkpt><trkpt lat="43.1431967" lon="13.1427967"><ele>368.0</ele><time>2026-04-26T09:22:44.516Z</time></trkpt><trkpt lat="43.143135" lon="13.1429433"><ele>367.25</ele><time>2026-04-26T09:22:45.516Z</time></trkpt><trkpt lat="43.1430583" lon="13.1430767"><ele>366.5</ele><time>2026-04-26T09:22:46.516Z</time></trkpt><trkpt lat="43.1429717" lon="13.1432067"><ele>365.75</ele><time>2026-04-26T09:22:47.516Z</time></trkpt><trkpt lat="43.1428767" lon="13.14334"><ele>365.0</ele><time>2026-04-26T09:22:48.516Z</time></trkpt><trkpt lat="43.142785" lon="13.1434883"><ele>365.0</ele><time>2026-04-26T09:22:49.516Z</time></trkpt><trkpt lat="43.142695" lon="13.14365"><ele>365.0</ele><time>2026-04-26T09:22:50.516Z</time></trkpt><trkpt lat="43.142615" lon="13.1438233"><ele>365.0</ele><time>2026-04-26T09:22:51.516Z</time></trkpt><trkpt lat="43.1425333" lon="13.1439933"><ele>365.0</ele><time>2026-04-26T09:22:52.516Z</time></trkpt><trkpt lat="43.1424583" lon="13.14417"><ele>364.0</ele><time>2026-04-26T09:22:53.517Z</time></trkpt><trkpt lat="43.1423983" lon="13.1443467"><ele>363.0</ele><time>2026-04-26T09:22:54.517Z</time></trkpt><trkpt lat="43.1423517" lon="13.1445033"><ele>362.0</ele><time>2026-04-26T09:22:55.516Z</time></trkpt><trkpt lat="43.142305" lon="13.1446433"><ele>361.0</ele><time>2026-04-26T09:22:56.517Z</time></trkpt><trkpt lat="43.1422567" lon="13.1447783"><ele>359.4</ele><time>2026-04-26T09:22:57.517Z</time></trkpt><trkpt lat="43.142205" lon="13.144895"><ele>357.8</ele><time>2026-04-26T09:22:58.516Z</time></trkpt><trkpt lat="43.14214" lon="13.1449967"><ele>356.2</ele><time>2026-04-26T09:22:59.516Z</time></trkpt><trkpt lat="43.14206" lon="13.14509"><ele>354.59999999999997</ele><time>2026-04-26T09:23:00.516Z</time></trkpt><trkpt lat="43.1419683" lon="13.1451883"><ele>353.0</ele><time>2026-04-26T09:23:01.516Z</time></trkpt><trkpt lat="43.14188" lon="13.145285"><ele>353.0</ele><time>2026-04-26T09:23:02.516Z</time></trkpt><trkpt lat="43.141785" lon="13.14537"><ele>353.0</ele><time>2026-04-26T09:23:03.516Z</time></trkpt><trkpt lat="43.1416767" lon="13.1454483"><ele>353.0</ele><time>2026-04-26T09:23:04.516Z</time></trkpt><trkpt lat="43.1415617" lon="13.1455233"><ele>353.0</ele><time>2026-04-26T09:23:05.517Z</time></trkpt><trkpt lat="43.14144" lon="13.1455817"><ele>354.2</ele><time>2026-04-26T09:23:06.516Z</time></trkpt><trkpt lat="43.1413333" lon="13.1456283"><ele>355.4</ele><time>2026-04-26T09:23:07.517Z</time></trkpt><trkpt lat="43.141245" lon="13.145675"><ele>356.59999999999997</ele><time>2026-04-26T09:23:08.516Z</time></trkpt><trkpt lat="43.1411717" lon="13.1457267"><ele>357.79999999999995</ele><time>2026-04-26T09:23:09.516Z</time></trkpt><trkpt lat="43.1411" lon="13.1457883"><ele>359.0</ele><time>2026-04-26T09:23:10.516Z</time></trkpt><trkpt lat="43.1410417" lon="13.1458683"><ele>356.5</ele><time>2026-04-26T09:23:11.516Z</time></trkpt><trkpt lat="43.141005" lon="13.14597"><ele>354.0</ele><time>2026-04-26T09:23:12.516Z</time></trkpt><trkpt lat="43.14099" lon="13.1460817"><ele>351.5</ele><time>2026-04-26T09:23:13.516Z</time></trkpt><trkpt lat="43.14097" lon="13.1461867"><ele>349.0</ele><time>2026-04-26T09:23:14.516Z</time></trkpt><trkpt lat="43.140935" lon="13.1462683"><ele>346.5</ele><time>2026-04-26T09:23:15.516Z</time></trkpt><trkpt lat="43.1408817" lon="13.1463367"><ele>344.0</ele><time>2026-04-26T09:23:16.516Z</time></trkpt><trkpt lat="43.1408117" lon="13.14639"><ele>344.0</ele><time>2026-04-26T09:23:17.517Z</time></trkpt><trkpt lat="43.140735" lon="13.146435"><ele>344.0</ele><time>2026-04-26T09:23:18.516Z</time></trkpt><trkpt lat="43.1406367" lon="13.1464717"><ele>344.0</ele><time>2026-04-26T09:23:19.516Z</time></trkpt><trkpt lat="43.14053" lon="13.1465233"><ele>344.0</ele><time>2026-04-26T09:23:20.516Z</time></trkpt><trkpt lat="43.1404233" lon="13.1465833"><ele>344.0</ele><time>2026-04-26T09:23:21.516Z</time></trkpt><trkpt lat="43.1403233" lon="13.146655"><ele>343.79999999999995</ele><time>2026-04-26T09:23:22.517Z</time></trkpt><trkpt lat="43.1402317" lon="13.1467317"><ele>343.59999999999997</ele><time>2026-04-26T09:23:23.516Z</time></trkpt><trkpt lat="43.14014" lon="13.14681"><ele>343.4</ele><time>2026-04-26T09:23:24.516Z</time></trkpt><trkpt lat="43.1400617" lon="13.1469217"><ele>343.2</ele><time>2026-04-26T09:23:25.516Z</time></trkpt><trkpt lat="43.1399817" lon="13.14704"><ele>343.0</ele><time>2026-04-26T09:23:26.516Z</time></trkpt><trkpt lat="43.1399133" lon="13.147175"><ele>344.5</ele><time>2026-04-26T09:23:27.516Z</time></trkpt><trkpt lat="43.1398617" lon="13.14733"><ele>346.0</ele><time>2026-04-26T09:23:28.516Z</time></trkpt><trkpt lat="43.1398183" lon="13.1475"><ele>347.5</ele><time>2026-04-26T09:23:29.516Z</time></trkpt><trkpt lat="43.1397717" lon="13.14769"><ele>349.0</ele><time>2026-04-26T09:23:30.516Z</time></trkpt><trkpt lat="43.1397167" lon="13.1478933"><ele>349.0</ele><time>2026-04-26T09:23:31.516Z</time></trkpt><trkpt lat="43.1396583" lon="13.1480983"><ele>349.0</ele><time>2026-04-26T09:23:32.516Z</time></trkpt><trkpt lat="43.1396017" lon="13.1482967"><ele>349.0</ele><time>2026-04-26T09:23:33.516Z</time></trkpt><trkpt lat="43.1395667" lon="13.1484867"><ele>348.25</ele><time>2026-04-26T09:23:34.516Z</time></trkpt><trkpt lat="43.13954" lon="13.148675"><ele>347.5</ele><time>2026-04-26T09:23:35.517Z</time></trkpt><trkpt lat="43.1395217" lon="13.1488617"><ele>346.75</ele><time>2026-04-26T09:23:36.517Z</time></trkpt><trkpt lat="43.1395117" lon="13.1490567"><ele>346.0</ele><time>2026-04-26T09:23:37.517Z</time></trkpt><trkpt lat="43.1394917" lon="13.1492567"><ele>344.0</ele><time>2026-04-26T09:23:38.516Z</time></trkpt><trkpt lat="43.1394633" lon="13.149455"><ele>342.0</ele><time>2026-04-26T09:23:39.516Z</time></trkpt><trkpt lat="43.1394267" lon="13.1496583"><ele>340.0</ele><time>2026-04-26T09:23:40.516Z</time></trkpt><trkpt lat="43.139385" lon="13.1498633"><ele>339.66666666666663</ele><time>2026-04-26T09:23:41.516Z</time></trkpt><trkpt lat="43.1393467" lon="13.1500683"><ele>339.3333333333333</ele><time>2026-04-26T09:23:42.516Z</time></trkpt><trkpt lat="43.1393033" lon="13.1502783"><ele>339.0</ele><time>2026-04-26T09:23:43.516Z</time></trkpt><trkpt lat="43.1392667" lon="13.1504917"><ele>339.0</ele><time>2026-04-26T09:23:44.516Z</time></trkpt><trkpt lat="43.1392283" lon="13.150695"><ele>339.0</ele><time>2026-04-26T09:23:45.516Z</time></trkpt><trkpt lat="43.13919" lon="13.1508767"><ele>339.0</ele><time>2026-04-26T09:23:46.516Z</time></trkpt><trkpt lat="43.1391483" lon="13.1510433"><ele>339.0</ele><time>2026-04-26T09:23:47.516Z</time></trkpt><trkpt lat="43.139105" lon="13.1511967"><ele>338.6</ele><time>2026-04-26T09:23:48.516Z</time></trkpt><trkpt lat="43.1390483" lon="13.1513233"><ele>338.2</ele><time>2026-04-26T09:23:49.516Z</time></trkpt><trkpt lat="43.138985" lon="13.15143"><ele>337.8</ele><time>2026-04-26T09:23:50.516Z</time></trkpt><trkpt lat="43.1389317" lon="13.1515233"><ele>337.40000000000003</ele><time>2026-04-26T09:23:51.516Z</time></trkpt><trkpt lat="43.1389033" lon="13.151625"><ele>337.0</ele><time>2026-04-26T09:23:52.516Z</time></trkpt><trkpt lat="43.1389083" lon="13.1517583"><ele>335.0</ele><time>2026-04-26T09:23:53.517Z</time></trkpt><trkpt lat="43.1389267" lon="13.15191"><ele>333.0</ele><time>2026-04-26T09:23:54.517Z</time></trkpt><trkpt lat="43.138935" lon="13.15206"><ele>331.0</ele><time>2026-04-26T09:23:55.516Z</time></trkpt><trkpt lat="43.1389183" lon="13.15221"><ele>329.0</ele><time>2026-04-26T09:23:56.516Z</time></trkpt><trkpt lat="43.138885" lon="13.1523517"><ele>327.0</ele><time>2026-04-26T09:23:57.516Z</time></trkpt><trkpt lat="43.138845" lon="13.1524767"><ele>327.0</ele><time>2026-04-26T09:23:58.517Z</time></trkpt><trkpt lat="43.1387917" lon="13.1525983"><ele>327.0</ele><time>2026-04-26T09:23:59.517Z</time></trkpt><trkpt lat="43.13873" lon="13.15271"><ele>327.0</ele><time>2026-04-26T09:24:00.516Z</time></trkpt><trkpt lat="43.1386517" lon="13.1527883"><ele>327.0</ele><time>2026-04-26T09:24:01.516Z</time></trkpt><trkpt lat="43.13856" lon="13.1528417"><ele>327.0</ele><time>2026-04-26T09:24:02.516Z</time></trkpt><trkpt lat="43.138485" lon="13.1528817"><ele>327.0</ele><time>2026-04-26T09:24:03.516Z</time></trkpt><trkpt lat="43.1384317" lon="13.1529333"><ele>327.0</ele><time>2026-04-26T09:24:04.516Z</time></trkpt><trkpt lat="43.1383867" lon="13.15301"><ele>327.0</ele><time>2026-04-26T09:24:05.516Z</time></trkpt><trkpt lat="43.13837" lon="13.153105"><ele>327.0</ele><time>2026-04-26T09:24:06.516Z</time></trkpt><trkpt lat="43.138385" lon="13.15322"><ele>327.0</ele><time>2026-04-26T09:24:07.517Z</time></trkpt><trkpt lat="43.1384167" lon="13.1533583"><ele>327.0</ele><time>2026-04-26T09:24:08.516Z</time></trkpt><trkpt lat="43.1384483" lon="13.1534967"><ele>326.3333333333333</ele><time>2026-04-26T09:24:09.517Z</time></trkpt><trkpt lat="43.1384583" lon="13.1536133"><ele>325.6666666666667</ele><time>2026-04-26T09:24:10.516Z</time></trkpt><trkpt lat="43.13844" lon="13.1537233"><ele>325.0</ele><time>2026-04-26T09:24:11.516Z</time></trkpt><trkpt lat="43.1383933" lon="13.1538283"><ele>324.33333333333337</ele><time>2026-04-26T09:24:12.517Z</time></trkpt><trkpt lat="43.138335" lon="13.1539267"><ele>323.6666666666667</ele><time>2026-04-26T09:24:13.516Z</time></trkpt><trkpt lat="43.1382667" lon="13.154"><ele>323.0</ele><time>2026-04-26T09:24:14.516Z</time></trkpt><trkpt lat="43.1381933" lon="13.1540483"><ele>323.0</ele><time>2026-04-26T09:24:15.516Z</time></trkpt><trkpt lat="43.1381217" lon="13.154105"><ele>323.0</ele><time>2026-04-26T09:24:16.516Z</time></trkpt><trkpt lat="43.1380583" lon="13.1541833"><ele>323.0</ele><time>2026-04-26T09:24:17.516Z</time></trkpt><trkpt lat="43.138005" lon="13.15427"><ele>323.0</ele><time>2026-04-26T09:24:18.516Z</time></trkpt><trkpt lat="43.1379667" lon="13.1543933"><ele>323.0</ele><time>2026-04-26T09:24:19.516Z</time></trkpt><trkpt lat="43.1379367" lon="13.15453"><ele>323.0</ele><time>2026-04-26T09:24:20.516Z</time></trkpt><trkpt lat="43.1378967" lon="13.1546617"><ele>323.0</ele><time>2026-04-26T09:24:21.517Z</time></trkpt><trkpt lat="43.13783" lon="13.1547833"><ele>323.0</ele><time>2026-04-26T09:24:22.517Z</time></trkpt><trkpt lat="43.1377517" lon="13.1548983"><ele>323.0</ele><time>2026-04-26T09:24:23.516Z</time></trkpt><trkpt lat="43.13768" lon="13.155005"><ele>323.0</ele><time>2026-04-26T09:24:24.516Z</time></trkpt><trkpt lat="43.1376233" lon="13.1551033"><ele>323.5</ele><time>2026-04-26T09:24:25.516Z</time></trkpt><trkpt lat="43.1375867" lon="13.1552183"><ele>324.0</ele><time>2026-04-26T09:24:26.516Z</time></trkpt><trkpt lat="43.13757" lon="13.15536"><ele>324.5</ele><time>2026-04-26T09:24:27.516Z</time></trkpt><trkpt lat="43.137575" lon="13.155525"><ele>325.0</ele><time>2026-04-26T09:24:28.516Z</time></trkpt><trkpt lat="43.1375733" lon="13.1557117"><ele>325.75</ele><time>2026-04-26T09:24:29.516Z</time></trkpt><trkpt lat="43.1375767" lon="13.1559067"><ele>326.5</ele><time>2026-04-26T09:24:30.516Z</time></trkpt><trkpt lat="43.137575" lon="13.1560983"><ele>327.25</ele><time>2026-04-26T09:24:31.516Z</time></trkpt><trkpt lat="43.1375833" lon="13.15628"><ele>328.0</ele><time>2026-04-26T09:24:32.516Z</time></trkpt><trkpt lat="43.1375883" lon="13.15646"><ele>326.5</ele><time>2026-04-26T09:24:33.516Z</time></trkpt><trkpt lat="43.13761" lon="13.1566317"><ele>325.0</ele><time>2026-04-26T09:24:34.516Z</time></trkpt><trkpt lat="43.1376483" lon="13.1567867"><ele>323.5</ele><time>2026-04-26T09:24:35.516Z</time></trkpt><trkpt lat="43.137685" lon="13.1569383"><ele>322.0</ele><time>2026-04-26T09:24:36.516Z</time></trkpt><trkpt lat="43.1377233" lon="13.1570733"><ele>322.0</ele><time>2026-04-26T09:24:37.516Z</time></trkpt><trkpt lat="43.13777" lon="13.1571967"><ele>322.0</ele><time>2026-04-26T09:24:38.516Z</time></trkpt><trkpt lat="43.137845" lon="13.1573117"><ele>322.0</ele><time>2026-04-26T09:24:39.516Z</time></trkpt><trkpt lat="43.13794" lon="13.1574183"><ele>322.0</ele><time>2026-04-26T09:24:40.516Z</time></trkpt><trkpt lat="43.13805" lon="13.1575233"><ele>320.25</ele><time>2026-04-26T09:24:41.516Z</time></trkpt><trkpt lat="43.1381583" lon="13.157625"><ele>318.5</ele><time>2026-04-26T09:24:42.516Z</time></trkpt><trkpt lat="43.1382667" lon="13.1577267"><ele>316.75</ele><time>2026-04-26T09:24:43.516Z</time></trkpt><trkpt lat="43.13835" lon="13.1578267"><ele>315.0</ele><time>2026-04-26T09:24:44.517Z</time></trkpt><trkpt lat="43.13842" lon="13.1579017"><ele>319.2</ele><time>2026-04-26T09:24:45.516Z</time></trkpt><trkpt lat="43.13848" lon="13.1579667"><ele>323.4</ele><time>2026-04-26T09:24:46.516Z</time></trkpt><trkpt lat="43.1385633" lon="13.1580633"><ele>327.6</ele><time>2026-04-26T09:24:48.516Z</time></trkpt><trkpt lat="43.1385333" lon="13.1581483"><ele>331.8</ele><time>2026-04-26T09:24:51.516Z</time></trkpt><trkpt lat="43.1384667" lon="13.1581133"><ele>336.0</ele><time>2026-04-26T09:24:53.516Z</time></trkpt><trkpt lat="43.138355" lon="13.1579933"><ele>336.0</ele><time>2026-04-26T09:24:55.516Z</time></trkpt><trkpt lat="43.1382767" lon="13.1579083"><ele>336.0</ele><time>2026-04-26T09:24:56.516Z</time></trkpt><trkpt lat="43.1381833" lon="13.1578033"><ele>336.0</ele><time>2026-04-26T09:24:57.516Z</time></trkpt><trkpt lat="43.1380583" lon="13.1576767"><ele>336.0</ele><time>2026-04-26T09:24:58.516Z</time></trkpt><trkpt lat="43.1379233" lon="13.157565"><ele>332.5</ele><time>2026-04-26T09:24:59.516Z</time></trkpt><trkpt lat="43.1378067" lon="13.1574633"><ele>329.0</ele><time>2026-04-26T09:25:00.516Z</time></trkpt><trkpt lat="43.1377133" lon="13.1573633"><ele>325.5</ele><time>2026-04-26T09:25:01.516Z</time></trkpt><trkpt lat="43.1376417" lon="13.1572433"><ele>322.0</ele><time>2026-04-26T09:25:02.516Z</time></trkpt><trkpt lat="43.13759" lon="13.1571017"><ele>322.0</ele><time>2026-04-26T09:25:03.516Z</time></trkpt><trkpt lat="43.1375533" lon="13.156935"><ele>322.0</ele><time>2026-04-26T09:25:04.516Z</time></trkpt><trkpt lat="43.1375233" lon="13.1567583"><ele>322.0</ele><time>2026-04-26T09:25:05.517Z</time></trkpt><trkpt lat="43.1374983" lon="13.1565633"><ele>322.0</ele><time>2026-04-26T09:25:06.516Z</time></trkpt><trkpt lat="43.1374783" lon="13.15636"><ele>323.0</ele><time>2026-04-26T09:25:07.516Z</time></trkpt><trkpt lat="43.1374617" lon="13.1561417"><ele>324.0</ele><time>2026-04-26T09:25:08.516Z</time></trkpt><trkpt lat="43.1374383" lon="13.15591"><ele>325.0</ele><time>2026-04-26T09:25:09.516Z</time></trkpt><trkpt lat="43.137415" lon="13.1556817"><ele>325.0</ele><time>2026-04-26T09:25:10.516Z</time></trkpt><trkpt lat="43.1373883" lon="13.155485"><ele>325.0</ele><time>2026-04-26T09:25:11.517Z</time></trkpt><trkpt lat="43.1373717" lon="13.1553"><ele>325.0</ele><time>2026-04-26T09:25:12.516Z</time></trkpt><trkpt lat="43.137345" lon="13.1551467"><ele>325.0</ele><time>2026-04-26T09:25:13.516Z</time></trkpt><trkpt lat="43.13731" lon="13.155025"><ele>323.0</ele><time>2026-04-26T09:25:14.516Z</time></trkpt><trkpt lat="43.1372517" lon="13.154935"><ele>321.0</ele><time>2026-04-26T09:25:15.517Z</time></trkpt><trkpt lat="43.1371717" lon="13.1548483"><ele>319.0</ele><time>2026-04-26T09:25:16.516Z</time></trkpt><trkpt lat="43.13708" lon="13.1547767"><ele>317.0</ele><time>2026-04-26T09:25:17.516Z</time></trkpt><trkpt lat="43.136995" lon="13.1547183"><ele>315.0</ele><time>2026-04-26T09:25:18.517Z</time></trkpt><trkpt lat="43.136925" lon="13.15468"><ele>318.4</ele><time>2026-04-26T09:25:19.517Z</time></trkpt><trkpt lat="43.1368167" lon="13.15467"><ele>321.8</ele><time>2026-04-26T09:25:21.517Z</time></trkpt><trkpt lat="43.1367133" lon="13.15473"><ele>325.20000000000005</ele><time>2026-04-26T09:25:23.516Z</time></trkpt><trkpt lat="43.1366233" lon="13.15476"><ele>328.6</ele><time>2026-04-26T09:25:25.517Z</time></trkpt><trkpt lat="43.1365167" lon="13.154775"><ele>332.0</ele><time>2026-04-26T09:25:27.516Z</time></trkpt><trkpt lat="43.1364" lon="13.1548033"><ele>332.0</ele><time>2026-04-26T09:25:29.516Z</time></trkpt><trkpt lat="43.1363367" lon="13.1548217"><ele>332.0</ele><time>2026-04-26T09:25:30.516Z</time></trkpt><trkpt lat="43.13627" lon="13.1548433"><ele>332.0</ele><time>2026-04-26T09:25:31.516Z</time></trkpt><trkpt lat="43.1362017" lon="13.1548717"><ele>332.0</ele><time>2026-04-26T09:25:32.516Z</time></trkpt><trkpt lat="43.1361433" lon="13.154915"><ele>332.0</ele><time>2026-04-26T09:25:33.516Z</time></trkpt><trkpt lat="43.1360583" lon="13.1549983"><ele>332.0</ele><time>2026-04-26T09:25:35.516Z</time></trkpt><trkpt lat="43.136" lon="13.1551"><ele>328.40000000000003</ele><time>2026-04-26T09:25:37.516Z</time></trkpt><trkpt lat="43.1360183" lon="13.15523"><ele>324.8</ele><time>2026-04-26T09:26:53.515Z</time></trkpt><trkpt lat="43.136085" lon="13.1552867"><ele>321.2</ele><time>2026-04-26T09:26:56.515Z</time></trkpt><trkpt lat="43.136015" lon="13.1553883"><ele>317.6</ele><time>2026-04-26T09:27:07.516Z</time></trkpt><trkpt lat="43.13593" lon="13.1554367"><ele>314.0</ele><time>2026-04-26T09:27:09.515Z</time></trkpt><trkpt lat="43.1358267" lon="13.15551"><ele>314.0</ele><time>2026-04-26T09:27:11.515Z</time></trkpt><trkpt lat="43.13576" lon="13.1555717"><ele>314.0</ele><time>2026-04-26T09:27:12.515Z</time></trkpt><trkpt lat="43.13569" lon="13.1556367"><ele>314.0</ele><time>2026-04-26T09:27:13.515Z</time></trkpt><trkpt lat="43.1356283" lon="13.1556883"><ele>314.0</ele><time>2026-04-26T09:27:14.516Z</time></trkpt><trkpt lat="43.1355667" lon="13.1557367"><ele>314.0</ele><time>2026-04-26T09:27:15.516Z</time></trkpt><trkpt lat="43.1354567" lon="13.1558283"><ele>314.0</ele><time>2026-04-26T09:27:17.515Z</time></trkpt><trkpt lat="43.1353467" lon="13.155905"><ele>314.1666666666667</ele><time>2026-04-26T09:27:19.515Z</time></trkpt><trkpt lat="43.135245" lon="13.1559283"><ele>314.33333333333337</ele><time>2026-04-26T09:27:21.515Z</time></trkpt><trkpt lat="43.13517" lon="13.15596"><ele>314.5</ele><time>2026-04-26T09:27:23.515Z</time></trkpt><trkpt lat="43.13507" lon="13.1559833"><ele>314.6666666666667</ele><time>2026-04-26T09:27:44.515Z</time></trkpt><trkpt lat="43.135" lon="13.15601"><ele>314.8333333333333</ele><time>2026-04-26T09:27:46.515Z</time></trkpt><trkpt lat="43.1349367" lon="13.1560233"><ele>315.0</ele><time>2026-04-26T09:27:49.515Z</time></trkpt><trkpt lat="43.1348717" lon="13.1560333"><ele>315.0</ele><time>2026-04-26T09:27:51.515Z</time></trkpt><trkpt lat="43.1347967" lon="13.1560483"><ele>315.0</ele><time>2026-04-26T09:27:53.516Z</time></trkpt><trkpt lat="43.1347083" lon="13.1560367"><ele>315.0</ele><time>2026-04-26T09:27:55.516Z</time></trkpt><trkpt lat="43.13463" lon="13.1559817"><ele>315.0</ele><time>2026-04-26T09:27:57.515Z</time></trkpt><trkpt lat="43.1346233" lon="13.1558733"><ele>315.0</ele><time>2026-04-26T09:27:59.515Z</time></trkpt><trkpt lat="43.1346567" lon="13.15572"><ele>315.0</ele><time>2026-04-26T09:28:01.516Z</time></trkpt><trkpt lat="43.1346833" lon="13.1556267"><ele>315.3333333333333</ele><time>2026-04-26T09:28:02.515Z</time></trkpt><trkpt lat="43.1347183" lon="13.1555283"><ele>315.6666666666667</ele><time>2026-04-26T09:28:03.515Z</time></trkpt><trkpt lat="43.1347533" lon="13.15543"><ele>316.0</ele><time>2026-04-26T09:28:04.515Z</time></trkpt><trkpt lat="43.1347933" lon="13.1553317"><ele>316.33333333333337</ele><time>2026-04-26T09:28:05.515Z</time></trkpt><trkpt lat="43.13482" lon="13.1552317"><ele>316.6666666666667</ele><time>2026-04-26T09:28:06.515Z</time></trkpt><trkpt lat="43.13484" lon="13.1551367"><ele>317.0</ele><time>2026-04-26T09:28:07.515Z</time></trkpt><trkpt lat="43.134845" lon="13.1550467"><ele>317.0</ele><time>2026-04-26T09:28:08.515Z</time></trkpt><trkpt lat="43.1348367" lon="13.15495"><ele>317.0</ele><time>2026-04-26T09:28:09.515Z</time></trkpt><trkpt lat="43.1348233" lon="13.1548517"><ele>317.0</ele><time>2026-04-26T09:28:10.515Z</time></trkpt><trkpt lat="43.1348133" lon="13.1547533"><ele>317.0</ele><time>2026-04-26T09:28:11.515Z</time></trkpt><trkpt lat="43.1348133" lon="13.1546617"><ele>317.0</ele><time>2026-04-26T09:28:12.515Z</time></trkpt><trkpt lat="43.1348133" lon="13.1545733"><ele>317.0</ele><time>2026-04-26T09:28:13.515Z</time></trkpt><trkpt lat="43.1348283" lon="13.1544767"><ele>317.0</ele><time>2026-04-26T09:28:14.516Z</time></trkpt><trkpt lat="43.1348417" lon="13.1543783"><ele>318.6666666666667</ele><time>2026-04-26T09:28:15.515Z</time></trkpt><trkpt lat="43.1348533" lon="13.1542717"><ele>320.33333333333337</ele><time>2026-04-26T09:28:16.515Z</time></trkpt><trkpt lat="43.1348533" lon="13.1541633"><ele>322.0</ele><time>2026-04-26T09:28:17.515Z</time></trkpt><trkpt lat="43.1348433" lon="13.1540567"><ele>323.6666666666667</ele><time>2026-04-26T09:28:18.515Z</time></trkpt><trkpt lat="43.1348233" lon="13.1539583"><ele>325.3333333333333</ele><time>2026-04-26T09:28:19.515Z</time></trkpt><trkpt lat="43.1347983" lon="13.15387"><ele>327.0</ele><time>2026-04-26T09:28:20.516Z</time></trkpt><trkpt lat="43.134775" lon="13.1537767"><ele>327.6666666666667</ele><time>2026-04-26T09:28:21.515Z</time></trkpt><trkpt lat="43.1347533" lon="13.1536767"><ele>328.3333333333333</ele><time>2026-04-26T09:28:22.515Z</time></trkpt><trkpt lat="43.1347317" lon="13.1535683"><ele>329.0</ele><time>2026-04-26T09:28:23.516Z</time></trkpt><trkpt lat="43.1347233" lon="13.1534767"><ele>329.66666666666663</ele><time>2026-04-26T09:28:24.515Z</time></trkpt><trkpt lat="43.1346983" lon="13.1533267"><ele>330.3333333333333</ele><time>2026-04-26T09:28:26.515Z</time></trkpt><trkpt lat="43.1347" lon="13.1531917"><ele>331.0</ele><time>2026-04-26T09:28:28.515Z</time></trkpt><trkpt lat="43.1346767" lon="13.1530433"><ele>329.0</ele><time>2026-04-26T09:28:30.515Z</time></trkpt><trkpt lat="43.1346567" lon="13.1528917"><ele>327.0</ele><time>2026-04-26T09:28:32.515Z</time></trkpt><trkpt lat="43.1346383" lon="13.15278"><ele>325.0</ele><time>2026-04-26T09:28:34.516Z</time></trkpt><trkpt lat="43.134635" lon="13.1526633"><ele>323.0</ele><time>2026-04-26T09:28:37.515Z</time></trkpt><trkpt lat="43.13465" lon="13.1525233"><ele>321.0</ele><time>2026-04-26T09:28:47.515Z</time></trkpt><trkpt lat="43.1346167" lon="13.15245"><ele>319.0</ele><time>2026-04-26T09:28:50.515Z</time></trkpt><trkpt lat="43.1345817" lon="13.152375"><ele>319.0</ele><time>2026-04-26T09:29:19.515Z</time></trkpt><trkpt lat="43.1346233" lon="13.152485"><ele>319.0</ele><time>2026-04-26T09:29:51.515Z</time></trkpt><trkpt lat="43.1346317" lon="13.15259"><ele>319.0</ele><time>2026-04-26T09:29:54.515Z</time></trkpt><trkpt lat="43.1346117" lon="13.152715"><ele>319.0</ele><time>2026-04-26T09:29:56.515Z</time></trkpt><trkpt lat="43.1346217" lon="13.15289"><ele>319.0</ele><time>2026-04-26T09:29:58.516Z</time></trkpt><trkpt lat="43.1346417" lon="13.15298"><ele>319.0</ele><time>2026-04-26T09:29:59.516Z</time></trkpt><trkpt lat="43.1346733" lon="13.1531283"><ele>319.0</ele><time>2026-04-26T09:30:01.515Z</time></trkpt><trkpt lat="43.1346983" lon="13.1532683"><ele>319.0</ele><time>2026-04-26T09:30:03.515Z</time></trkpt><trkpt lat="43.1346967" lon="13.1534167"><ele>319.0</ele><time>2026-04-26T09:30:05.516Z</time></trkpt><trkpt lat="43.134715" lon="13.153505"><ele>319.0</ele><time>2026-04-26T09:30:06.515Z</time></trkpt><trkpt lat="43.1347417" lon="13.1536067"><ele>320.3333333333333</ele><time>2026-04-26T09:30:07.516Z</time></trkpt><trkpt lat="43.1347667" lon="13.1537267"><ele>321.66666666666663</ele><time>2026-04-26T09:30:08.515Z</time></trkpt><trkpt lat="43.1347933" lon="13.15384"><ele>323.0</ele><time>2026-04-26T09:30:09.515Z</time></trkpt><trkpt lat="43.1348183" lon="13.1539383"><ele>324.3333333333333</ele><time>2026-04-26T09:30:10.516Z</time></trkpt><trkpt lat="43.134835" lon="13.1540383"><ele>325.6666666666667</ele><time>2026-04-26T09:30:11.515Z</time></trkpt><trkpt lat="43.1348467" lon="13.154135"><ele>327.0</ele><time>2026-04-26T09:30:12.515Z</time></trkpt><trkpt lat="43.1348517" lon="13.1542283"><ele>327.0</ele><time>2026-04-26T09:30:13.515Z</time></trkpt><trkpt lat="43.13485" lon="13.1543267"><ele>327.0</ele><time>2026-04-26T09:30:14.516Z</time></trkpt><trkpt lat="43.13484" lon="13.1544317"><ele>327.0</ele><time>2026-04-26T09:30:15.515Z</time></trkpt><trkpt lat="43.1348233" lon="13.154545"><ele>327.0</ele><time>2026-04-26T09:30:16.515Z</time></trkpt><trkpt lat="43.1348017" lon="13.154655"><ele>327.0</ele><time>2026-04-26T09:30:17.515Z</time></trkpt><trkpt lat="43.13479" lon="13.1547667"><ele>327.0</ele><time>2026-04-26T09:30:18.515Z</time></trkpt><trkpt lat="43.134785" lon="13.154875"><ele>325.3333333333333</ele><time>2026-04-26T09:30:19.515Z</time></trkpt><trkpt lat="43.1347883" lon="13.1549867"><ele>323.6666666666667</ele><time>2026-04-26T09:30:20.515Z</time></trkpt><trkpt lat="43.1348" lon="13.1550933"><ele>322.0</ele><time>2026-04-26T09:30:21.515Z</time></trkpt><trkpt lat="43.1348" lon="13.1551867"><ele>320.33333333333337</ele><time>2026-04-26T09:30:22.515Z</time></trkpt><trkpt lat="43.1347783" lon="13.15535"><ele>318.6666666666667</ele><time>2026-04-26T09:30:24.515Z</time></trkpt><trkpt lat="43.1347567" lon="13.1554433"><ele>317.0</ele><time>2026-04-26T09:30:25.515Z</time></trkpt><trkpt lat="43.13473" lon="13.155545"><ele>317.0</ele><time>2026-04-26T09:30:26.515Z</time></trkpt><trkpt lat="43.13469" lon="13.1556667"><ele>317.0</ele><time>2026-04-26T09:30:27.515Z</time></trkpt><trkpt lat="43.1346667" lon="13.1557933"><ele>317.0</ele><time>2026-04-26T09:30:28.515Z</time></trkpt><trkpt lat="43.1346417" lon="13.15589"><ele>317.0</ele><time>2026-04-26T09:30:29.516Z</time></trkpt><trkpt lat="43.134645" lon="13.1559767"><ele>317.0</ele><time>2026-04-26T09:30:30.515Z</time></trkpt><trkpt lat="43.13472" lon="13.1560883"><ele>317.0</ele><time>2026-04-26T09:30:32.515Z</time></trkpt><trkpt lat="43.1348083" lon="13.156105"><ele>316.0</ele><time>2026-04-26T09:30:34.516Z</time></trkpt><trkpt lat="43.1349017" lon="13.15608"><ele>315.0</ele><time>2026-04-26T09:30:37.515Z</time></trkpt><trkpt lat="43.135005" lon="13.1560333"><ele>314.0</ele><time>2026-04-26T09:30:39.516Z</time></trkpt><trkpt lat="43.1350733" lon="13.1560117"><ele>313.0</ele><time>2026-04-26T09:30:40.516Z</time></trkpt><trkpt lat="43.1351417" lon="13.155985"><ele>312.0</ele><time>2026-04-26T09:30:41.515Z</time></trkpt><trkpt lat="43.13521" lon="13.1559533"><ele>311.0</ele><time>2026-04-26T09:30:42.515Z</time></trkpt><trkpt lat="43.1352717" lon="13.1559183"><ele>311.0</ele><time>2026-04-26T09:30:43.516Z</time></trkpt><trkpt lat="43.1353633" lon="13.1558717"><ele>311.0</ele><time>2026-04-26T09:30:45.516Z</time></trkpt><trkpt lat="43.1354367" lon="13.1558317"><ele>311.0</ele><time>2026-04-26T09:30:47.515Z</time></trkpt><trkpt lat="43.1355383" lon="13.1557933"><ele>311.0</ele><time>2026-04-26T09:30:49.515Z</time></trkpt><trkpt lat="43.1356083" lon="13.1557533"><ele>311.0</ele><time>2026-04-26T09:30:51.516Z</time></trkpt><trkpt lat="43.135695" lon="13.1556933"><ele>311.5</ele><time>2026-04-26T09:30:53.516Z</time></trkpt><trkpt lat="43.13578" lon="13.1556217"><ele>312.0</ele><time>2026-04-26T09:30:55.516Z</time></trkpt><trkpt lat="43.1358433" lon="13.1555733"><ele>312.5</ele><time>2026-04-26T09:30:57.515Z</time></trkpt><trkpt lat="43.1359117" lon="13.1555383"><ele>313.0</ele><time>2026-04-26T09:30:59.515Z</time></trkpt><trkpt lat="43.135975" lon="13.1554667"><ele>313.5</ele><time>2026-04-26T09:31:28.515Z</time></trkpt><trkpt lat="43.1360367" lon="13.1554067"><ele>314.0</ele><time>2026-04-26T09:31:31.515Z</time></trkpt><trkpt lat="43.136055" lon="13.155295"><ele>314.0</ele><time>2026-04-26T09:31:37.516Z</time></trkpt><trkpt lat="43.1360433" lon="13.1551983"><ele>314.0</ele><time>2026-04-26T09:31:39.516Z</time></trkpt><trkpt lat="43.1360833" lon="13.1550617"><ele>314.0</ele><time>2026-04-26T09:31:41.515Z</time></trkpt><trkpt lat="43.136175" lon="13.154945"><ele>314.0</ele><time>2026-04-26T09:31:43.515Z</time></trkpt><trkpt lat="43.1362317" lon="13.154895"><ele>314.0</ele><time>2026-04-26T09:31:44.515Z</time></trkpt><trkpt lat="43.136295" lon="13.1548567"><ele>314.0</ele><time>2026-04-26T09:31:45.515Z</time></trkpt><trkpt lat="43.1364183" lon="13.1548"><ele>316.57142857142856</ele><time>2026-04-26T09:31:47.516Z</time></trkpt><trkpt lat="43.1364867" lon="13.15478"><ele>319.1428571428571</ele><time>2026-04-26T09:31:48.515Z</time></trkpt><trkpt lat="43.13657" lon="13.1547633"><ele>321.71428571428567</ele><time>2026-04-26T09:31:49.515Z</time></trkpt><trkpt lat="43.1366433" lon="13.154745"><ele>324.2857142857143</ele><time>2026-04-26T09:31:50.515Z</time></trkpt><trkpt lat="43.1367067" lon="13.15473"><ele>326.8571428571429</ele><time>2026-04-26T09:31:51.515Z</time></trkpt><trkpt lat="43.136775" lon="13.154705"><ele>329.4285714285714</ele><time>2026-04-26T09:31:53.516Z</time></trkpt><trkpt lat="43.1367067" lon="13.1546433"><ele>332.0</ele><time>2026-04-26T09:31:59.515Z</time></trkpt><trkpt lat="43.13664" lon="13.1546333"><ele>332.0</ele><time>2026-04-26T09:32:00.515Z</time></trkpt><trkpt lat="43.1365483" lon="13.1546267"><ele>332.0</ele><time>2026-04-26T09:32:01.515Z</time></trkpt><trkpt lat="43.1364467" lon="13.1546267"><ele>332.0</ele><time>2026-04-26T09:32:02.515Z</time></trkpt><trkpt lat="43.136345" lon="13.154645"><ele>332.0</ele><time>2026-04-26T09:32:03.515Z</time></trkpt><trkpt lat="43.13624" lon="13.1546583"><ele>332.0</ele><time>2026-04-26T09:32:04.515Z</time></trkpt><trkpt lat="43.1361433" lon="13.1546617"><ele>332.0</ele><time>2026-04-26T09:32:05.516Z</time></trkpt><trkpt lat="43.1360567" lon="13.154665"><ele>332.0</ele><time>2026-04-26T09:32:06.516Z</time></trkpt><trkpt lat="43.1359733" lon="13.1546483"><ele>332.0</ele><time>2026-04-26T09:32:07.516Z</time></trkpt><trkpt lat="43.1358917" lon="13.15462"><ele>332.0</ele><time>2026-04-26T09:32:08.515Z</time></trkpt><trkpt lat="43.1358167" lon="13.154575"><ele>332.0</ele><time>2026-04-26T09:32:09.515Z</time></trkpt><trkpt lat="43.1357567" lon="13.154505"><ele>332.0</ele><time>2026-04-26T09:32:10.515Z</time></trkpt><trkpt lat="43.1357267" lon="13.1544033"><ele>332.0</ele><time>2026-04-26T09:32:11.516Z</time></trkpt><trkpt lat="43.1357233" lon="13.1542667"><ele>332.0</ele><time>2026-04-26T09:32:12.515Z</time></trkpt><trkpt lat="43.135725" lon="13.154115"><ele>332.0</ele><time>2026-04-26T09:32:13.515Z</time></trkpt><trkpt lat="43.135725" lon="13.1539617"><ele>332.0</ele><time>2026-04-26T09:32:14.515Z</time></trkpt><trkpt lat="43.1357233" lon="13.1538067"><ele>332.0</ele><time>2026-04-26T09:32:15.516Z</time></trkpt><trkpt lat="43.1357133" lon="13.1536517"><ele>328.25</ele><time>2026-04-26T09:32:16.516Z</time></trkpt><trkpt lat="43.1357067" lon="13.15349"><ele>324.5</ele><time>2026-04-26T09:32:17.515Z</time></trkpt><trkpt lat="43.135695" lon="13.1533233"><ele>320.75</ele><time>2026-04-26T09:32:18.516Z</time></trkpt><trkpt lat="43.13568" lon="13.1531567"><ele>317.0</ele><time>2026-04-26T09:32:19.515Z</time></trkpt><trkpt lat="43.1356583" lon="13.1529917"><ele>317.0</ele><time>2026-04-26T09:32:20.515Z</time></trkpt><trkpt lat="43.1356333" lon="13.1528367"><ele>317.0</ele><time>2026-04-26T09:32:21.515Z</time></trkpt><trkpt lat="43.13562" lon="13.1527"><ele>317.0</ele><time>2026-04-26T09:32:22.515Z</time></trkpt><trkpt lat="43.1356217" lon="13.15258"><ele>317.0</ele><time>2026-04-26T09:32:23.515Z</time></trkpt><trkpt lat="43.1356417" lon="13.1524567"><ele>317.0</ele><time>2026-04-26T09:32:24.515Z</time></trkpt><trkpt lat="43.13567" lon="13.1523433"><ele>317.2</ele><time>2026-04-26T09:32:25.515Z</time></trkpt><trkpt lat="43.135695" lon="13.1522267"><ele>317.4</ele><time>2026-04-26T09:32:26.515Z</time></trkpt><trkpt lat="43.1357217" lon="13.1520983"><ele>317.6</ele><time>2026-04-26T09:32:27.515Z</time></trkpt><trkpt lat="43.1357667" lon="13.151975"><ele>317.8</ele><time>2026-04-26T09:32:28.515Z</time></trkpt><trkpt lat="43.1358167" lon="13.1518567"><ele>318.0</ele><time>2026-04-26T09:32:29.515Z</time></trkpt><trkpt lat="43.1358717" lon="13.1517433"><ele>320.25</ele><time>2026-04-26T09:32:30.515Z</time></trkpt><trkpt lat="43.135925" lon="13.1516133"><ele>322.5</ele><time>2026-04-26T09:32:31.515Z</time></trkpt><trkpt lat="43.1359817" lon="13.1514717"><ele>324.75</ele><time>2026-04-26T09:32:32.515Z</time></trkpt><trkpt lat="43.1360267" lon="13.1513217"><ele>327.0</ele><time>2026-04-26T09:32:33.515Z</time></trkpt><trkpt lat="43.1360717" lon="13.15119"><ele>327.0</ele><time>2026-04-26T09:32:34.515Z</time></trkpt><trkpt lat="43.1361167" lon="13.1510717"><ele>327.0</ele><time>2026-04-26T09:32:35.515Z</time></trkpt><trkpt lat="43.136145" lon="13.1509533"><ele>327.0</ele><time>2026-04-26T09:32:36.515Z</time></trkpt><trkpt lat="43.1361667" lon="13.1508367"><ele>327.0</ele><time>2026-04-26T09:32:37.515Z</time></trkpt><trkpt lat="43.1361883" lon="13.1507283"><ele>327.0</ele><time>2026-04-26T09:32:38.515Z</time></trkpt><trkpt lat="43.1362083" lon="13.15062"><ele>327.0</ele><time>2026-04-26T09:32:39.516Z</time></trkpt><trkpt lat="43.13623" lon="13.1505083"><ele>326.8</ele><time>2026-04-26T09:32:40.515Z</time></trkpt><trkpt lat="43.1362567" lon="13.1503867"><ele>326.6</ele><time>2026-04-26T09:32:41.515Z</time></trkpt><trkpt lat="43.1362733" lon="13.1502683"><ele>326.40000000000003</ele><time>2026-04-26T09:32:42.515Z</time></trkpt><trkpt lat="43.1362883" lon="13.1501283"><ele>326.20000000000005</ele><time>2026-04-26T09:32:43.515Z</time></trkpt><trkpt lat="43.1363033" lon="13.1499817"><ele>326.0</ele><time>2026-04-26T09:32:44.516Z</time></trkpt><trkpt lat="43.1363133" lon="13.14984"><ele>326.0</ele><time>2026-04-26T09:32:45.516Z</time></trkpt><trkpt lat="43.13631" lon="13.1496967"><ele>326.0</ele><time>2026-04-26T09:32:46.515Z</time></trkpt><trkpt lat="43.1363133" lon="13.1495567"><ele>326.0</ele><time>2026-04-26T09:32:47.515Z</time></trkpt><trkpt lat="43.136305" lon="13.1494133"><ele>326.0</ele><time>2026-04-26T09:32:48.515Z</time></trkpt><trkpt lat="43.1363017" lon="13.149285"><ele>326.0</ele><time>2026-04-26T09:32:49.515Z</time></trkpt><trkpt lat="43.1362967" lon="13.1491817"><ele>326.0</ele><time>2026-04-26T09:32:50.514Z</time></trkpt><trkpt lat="43.1362983" lon="13.1490933"><ele>326.0</ele><time>2026-04-26T09:32:51.515Z</time></trkpt><trkpt lat="43.1362967" lon="13.148995"><ele>326.0</ele><time>2026-04-26T09:32:53.514Z</time></trkpt><trkpt lat="43.136215" lon="13.1490533"><ele>326.0</ele><time>2026-04-26T09:33:16.514Z</time></trkpt><trkpt lat="43.1361217" lon="13.1490617"><ele>326.0</ele><time>2026-04-26T09:33:18.514Z</time></trkpt><trkpt lat="43.1360417" lon="13.14901"><ele>326.0</ele><time>2026-04-26T09:33:20.514Z</time></trkpt><trkpt lat="43.1359333" lon="13.148995"><ele>325.6666666666667</ele><time>2026-04-26T09:33:22.515Z</time></trkpt><trkpt lat="43.1358667" lon="13.1489983"><ele>325.33333333333337</ele><time>2026-04-26T09:33:23.514Z</time></trkpt><trkpt lat="43.1357883" lon="13.1489883"><ele>325.0</ele><time>2026-04-26T09:33:24.514Z</time></trkpt><trkpt lat="43.13571" lon="13.1489817"><ele>324.6666666666667</ele><time>2026-04-26T09:33:25.514Z</time></trkpt><trkpt lat="43.13563" lon="13.1489817"><ele>324.3333333333333</ele><time>2026-04-26T09:33:26.514Z</time></trkpt><trkpt lat="43.13555" lon="13.1489833"><ele>324.0</ele><time>2026-04-26T09:33:27.514Z</time></trkpt><trkpt lat="43.1354717" lon="13.148985"><ele>324.0</ele><time>2026-04-26T09:33:28.514Z</time></trkpt><trkpt lat="43.1354067" lon="13.1489833"><ele>324.0</ele><time>2026-04-26T09:33:29.514Z</time></trkpt><trkpt lat="43.1352867" lon="13.1489833"><ele>324.0</ele><time>2026-04-26T09:33:31.514Z</time></trkpt><trkpt lat="43.1351717" lon="13.1489783"><ele>324.0</ele><time>2026-04-26T09:33:33.514Z</time></trkpt><trkpt lat="43.135095" lon="13.14903"><ele>324.0</ele><time>2026-04-26T09:33:35.514Z</time></trkpt><trkpt lat="43.1350417" lon="13.1491367"><ele>323.6666666666667</ele><time>2026-04-26T09:33:37.514Z</time></trkpt><trkpt lat="43.1350383" lon="13.1493"><ele>323.3333333333333</ele><time>2026-04-26T09:33:39.514Z</time></trkpt><trkpt lat="43.1350417" lon="13.1494"><ele>323.0</ele><time>2026-04-26T09:33:40.514Z</time></trkpt><trkpt lat="43.1350533" lon="13.149505"><ele>322.66666666666663</ele><time>2026-04-26T09:33:41.514Z</time></trkpt><trkpt lat="43.1350667" lon="13.1495917"><ele>322.3333333333333</ele><time>2026-04-26T09:33:42.514Z</time></trkpt><trkpt lat="43.1350817" lon="13.1496783"><ele>322.0</ele><time>2026-04-26T09:33:43.515Z</time></trkpt><trkpt lat="43.1351033" lon="13.1498417"><ele>321.5</ele><time>2026-04-26T09:33:45.514Z</time></trkpt><trkpt lat="43.13512" lon="13.1500067"><ele>321.0</ele><time>2026-04-26T09:33:47.514Z</time></trkpt><trkpt lat="43.1351267" lon="13.1500933"><ele>320.5</ele><time>2026-04-26T09:33:48.515Z</time></trkpt><trkpt lat="43.13513" lon="13.1501867"><ele>320.0</ele><time>2026-04-26T09:33:49.515Z</time></trkpt><trkpt lat="43.1351333" lon="13.1502967"><ele>319.5</ele><time>2026-04-26T09:33:50.514Z</time></trkpt><trkpt lat="43.1351317" lon="13.1504033"><ele>319.0</ele><time>2026-04-26T09:33:51.514Z</time></trkpt><trkpt lat="43.1351383" lon="13.150515"><ele>319.0</ele><time>2026-04-26T09:33:52.514Z</time></trkpt><trkpt lat="43.1351367" lon="13.1506317"><ele>319.0</ele><time>2026-04-26T09:33:53.514Z</time></trkpt><trkpt lat="43.135145" lon="13.1507367"><ele>319.0</ele><time>2026-04-26T09:33:54.514Z</time></trkpt><trkpt lat="43.1351483" lon="13.150845"><ele>319.0</ele><time>2026-04-26T09:33:55.514Z</time></trkpt><trkpt lat="43.1351533" lon="13.1509633"><ele>319.0</ele><time>2026-04-26T09:33:56.515Z</time></trkpt><trkpt lat="43.1351633" lon="13.1510717"><ele>319.0</ele><time>2026-04-26T09:33:57.515Z</time></trkpt><trkpt lat="43.135165" lon="13.1511767"><ele>318.8</ele><time>2026-04-26T09:33:58.514Z</time></trkpt><trkpt lat="43.135165" lon="13.15127"><ele>318.59999999999997</ele><time>2026-04-26T09:33:59.514Z</time></trkpt><trkpt lat="43.13516" lon="13.1514133"><ele>318.4</ele><time>2026-04-26T09:34:01.514Z</time></trkpt><trkpt lat="43.1351483" lon="13.1515467"><ele>318.2</ele><time>2026-04-26T09:34:03.514Z</time></trkpt><trkpt lat="43.135155" lon="13.151685"><ele>318.0</ele><time>2026-04-26T09:34:05.514Z</time></trkpt><trkpt lat="43.1351967" lon="13.1518017"><ele>318.0</ele><time>2026-04-26T09:34:07.514Z</time></trkpt><trkpt lat="43.1352433" lon="13.1519283"><ele>318.0</ele><time>2026-04-26T09:34:09.514Z</time></trkpt><trkpt lat="43.1352767" lon="13.152075"><ele>318.0</ele><time>2026-04-26T09:34:11.514Z</time></trkpt><trkpt lat="43.1352717" lon="13.1521967"><ele>318.0</ele><time>2026-04-26T09:34:13.514Z</time></trkpt><trkpt lat="43.135225" lon="13.1522633"><ele>318.0</ele><time>2026-04-26T09:34:15.514Z</time></trkpt><trkpt lat="43.1351633" lon="13.1523"><ele>318.0</ele><time>2026-04-26T09:34:17.515Z</time></trkpt><trkpt lat="43.1351083" lon="13.1523533"><ele>318.0</ele><time>2026-04-26T09:34:20.515Z</time></trkpt><trkpt lat="43.1350317" lon="13.15234"><ele>318.0</ele><time>2026-04-26T09:34:21.514Z</time></trkpt><trkpt lat="43.1349633" lon="13.1523083"><ele>318.0</ele><time>2026-04-26T09:34:22.514Z</time></trkpt><trkpt lat="43.1349017" lon="13.152265"><ele>318.0</ele><time>2026-04-26T09:34:23.514Z</time></trkpt><trkpt lat="43.1348617" lon="13.1521683"><ele>318.0</ele><time>2026-04-26T09:34:25.514Z</time></trkpt><trkpt lat="43.13485" lon="13.15205"><ele>318.0</ele><time>2026-04-26T09:34:27.514Z</time></trkpt><trkpt lat="43.1348483" lon="13.1518817"><ele>317.3333333333333</ele><time>2026-04-26T09:34:29.514Z</time></trkpt><trkpt lat="43.1348417" lon="13.15178"><ele>316.6666666666667</ele><time>2026-04-26T09:34:30.514Z</time></trkpt><trkpt lat="43.1348367" lon="13.1516583"><ele>316.0</ele><time>2026-04-26T09:34:31.514Z</time></trkpt><trkpt lat="43.1348333" lon="13.1515417"><ele>315.33333333333337</ele><time>2026-04-26T09:34:32.514Z</time></trkpt><trkpt lat="43.1348283" lon="13.15143"><ele>314.6666666666667</ele><time>2026-04-26T09:34:33.514Z</time></trkpt><trkpt lat="43.1348183" lon="13.151335"><ele>314.0</ele><time>2026-04-26T09:34:34.514Z</time></trkpt><trkpt lat="43.134745" lon="13.1511983"><ele>314.0</ele><time>2026-04-26T09:34:36.514Z</time></trkpt><trkpt lat="43.1346817" lon="13.151155"><ele>314.0</ele><time>2026-04-26T09:34:37.514Z</time></trkpt><trkpt lat="43.1346217" lon="13.151115"><ele>314.0</ele><time>2026-04-26T09:34:38.514Z</time></trkpt><trkpt lat="43.134565" lon="13.1510667"><ele>314.0</ele><time>2026-04-26T09:34:39.514Z</time></trkpt><trkpt lat="43.134505" lon="13.1509983"><ele>314.0</ele><time>2026-04-26T09:34:40.514Z</time></trkpt><trkpt lat="43.1344433" lon="13.1509183"><ele>314.0</ele><time>2026-04-26T09:34:41.514Z</time></trkpt><trkpt lat="43.1343833" lon="13.150835"><ele>314.0</ele><time>2026-04-26T09:34:42.514Z</time></trkpt><trkpt lat="43.1343233" lon="13.150745"><ele>314.0</ele><time>2026-04-26T09:34:43.514Z</time></trkpt><trkpt lat="43.1342617" lon="13.1506633"><ele>314.0</ele><time>2026-04-26T09:34:44.515Z</time></trkpt><trkpt lat="43.1342017" lon="13.15058"><ele>314.0</ele><time>2026-04-26T09:34:45.514Z</time></trkpt><trkpt lat="43.134145" lon="13.15051"><ele>314.0</ele><time>2026-04-26T09:34:46.514Z</time></trkpt><trkpt lat="43.1341" lon="13.1504133"><ele>314.0</ele><time>2026-04-26T09:34:48.514Z</time></trkpt><trkpt lat="43.134055" lon="13.15031"><ele>315.1666666666667</ele><time>2026-04-26T09:34:50.514Z</time></trkpt><trkpt lat="43.1340017" lon="13.1501883"><ele>316.33333333333337</ele><time>2026-04-26T09:34:52.514Z</time></trkpt><trkpt lat="43.13397" lon="13.1501133"><ele>317.5</ele><time>2026-04-26T09:34:53.514Z</time></trkpt><trkpt lat="43.1339417" lon="13.15003"><ele>318.6666666666667</ele><time>2026-04-26T09:34:54.514Z</time></trkpt><trkpt lat="43.1339033" lon="13.1499367"><ele>319.8333333333333</ele><time>2026-04-26T09:34:55.514Z</time></trkpt><trkpt lat="43.13385" lon="13.1498383"><ele>321.0</ele><time>2026-04-26T09:34:56.514Z</time></trkpt><trkpt lat="43.1337933" lon="13.149755"><ele>320.99999999999994</ele><time>2026-04-26T09:34:57.514Z</time></trkpt><trkpt lat="43.13375" lon="13.14968"><ele>321.0</ele><time>2026-04-26T09:34:58.514Z</time></trkpt><trkpt lat="43.13371" lon="13.1496117"><ele>321.0</ele><time>2026-04-26T09:34:59.514Z</time></trkpt><trkpt lat="43.1336817" lon="13.1495233"><ele>321.0</ele><time>2026-04-26T09:35:00.514Z</time></trkpt><trkpt lat="43.1336567" lon="13.1494233"><ele>321.0</ele><time>2026-04-26T09:35:01.514Z</time></trkpt><trkpt lat="43.1336317" lon="13.1493333"><ele>320.99999999999994</ele><time>2026-04-26T09:35:02.515Z</time></trkpt><trkpt lat="43.1336017" lon="13.1492267"><ele>321.0</ele><time>2026-04-26T09:35:03.514Z</time></trkpt><trkpt lat="43.1335583" lon="13.14912"><ele>320.5</ele><time>2026-04-26T09:35:04.515Z</time></trkpt><trkpt lat="43.1335167" lon="13.149015"><ele>320.0</ele><time>2026-04-26T09:35:05.514Z</time></trkpt><trkpt lat="43.1334767" lon="13.148905"><ele>319.5</ele><time>2026-04-26T09:35:06.514Z</time></trkpt><trkpt lat="43.1334383" lon="13.1488067"><ele>319.0</ele><time>2026-04-26T09:35:07.514Z</time></trkpt><trkpt lat="43.1334033" lon="13.1487217"><ele>318.5</ele><time>2026-04-26T09:35:08.514Z</time></trkpt><trkpt lat="43.1333583" lon="13.1485783"><ele>318.0</ele><time>2026-04-26T09:35:10.514Z</time></trkpt><trkpt lat="43.133305" lon="13.14848"><ele>318.0</ele><time>2026-04-26T09:35:12.514Z</time></trkpt><trkpt lat="43.13325" lon="13.1484"><ele>318.0</ele><time>2026-04-26T09:35:14.514Z</time></trkpt><trkpt lat="43.1331617" lon="13.148375"><ele>318.0</ele><time>2026-04-26T09:35:16.514Z</time></trkpt><trkpt lat="43.1330783" lon="13.148375"><ele>318.0</ele><time>2026-04-26T09:35:18.515Z</time></trkpt><trkpt lat="43.13302" lon="13.1482767"><ele>318.0</ele><time>2026-04-26T09:35:21.514Z</time></trkpt><trkpt lat="43.133045" lon="13.1481667"><ele>318.0</ele><time>2026-04-26T09:35:23.514Z</time></trkpt><trkpt lat="43.133105" lon="13.1481133"><ele>317.6666666666667</ele><time>2026-04-26T09:35:25.514Z</time></trkpt><trkpt lat="43.1331833" lon="13.148105"><ele>317.3333333333333</ele><time>2026-04-26T09:35:27.514Z</time></trkpt><trkpt lat="43.1332533" lon="13.1481483"><ele>317.0</ele><time>2026-04-26T09:35:29.514Z</time></trkpt><trkpt lat="43.1333317" lon="13.1481767"><ele>316.66666666666663</ele><time>2026-04-26T09:35:31.514Z</time></trkpt><trkpt lat="43.13341" lon="13.1481733"><ele>316.3333333333333</ele><time>2026-04-26T09:35:33.514Z</time></trkpt><trkpt lat="43.1333333" lon="13.148155"><ele>316.0</ele><time>2026-04-26T09:36:15.514Z</time></trkpt><trkpt lat="43.1332467" lon="13.148105"><ele>316.3333333333333</ele><time>2026-04-26T09:36:18.514Z</time></trkpt><trkpt lat="43.1331517" lon="13.1480933"><ele>316.66666666666663</ele><time>2026-04-26T09:36:21.514Z</time></trkpt><trkpt lat="43.1330783" lon="13.1481217"><ele>317.0</ele><time>2026-04-26T09:36:23.514Z</time></trkpt><trkpt lat="43.1330217" lon="13.1482017"><ele>317.3333333333333</ele><time>2026-04-26T09:36:25.515Z</time></trkpt><trkpt lat="43.1330467" lon="13.1482967"><ele>317.6666666666667</ele><time>2026-04-26T09:36:27.514Z</time></trkpt><trkpt lat="43.1331283" lon="13.148345"><ele>318.0</ele><time>2026-04-26T09:36:29.514Z</time></trkpt><trkpt lat="43.1332383" lon="13.1483767"><ele>318.0</ele><time>2026-04-26T09:36:31.514Z</time></trkpt><trkpt lat="43.133295" lon="13.1484217"><ele>318.0</ele><time>2026-04-26T09:36:32.514Z</time></trkpt><trkpt lat="43.1333467" lon="13.1484867"><ele>318.0</ele><time>2026-04-26T09:36:33.514Z</time></trkpt><trkpt lat="43.1334083" lon="13.1486333"><ele>318.0</ele><time>2026-04-26T09:36:35.515Z</time></trkpt><trkpt lat="43.13343" lon="13.1487233"><ele>318.0</ele><time>2026-04-26T09:36:36.514Z</time></trkpt><trkpt lat="43.13346" lon="13.1488217"><ele>318.0</ele><time>2026-04-26T09:36:37.514Z</time></trkpt><trkpt lat="43.1334967" lon="13.1489283"><ele>318.0</ele><time>2026-04-26T09:36:38.514Z</time></trkpt><trkpt lat="43.133535" lon="13.1490367"><ele>318.0</ele><time>2026-04-26T09:36:39.515Z</time></trkpt><trkpt lat="43.1335767" lon="13.14914"><ele>318.0</ele><time>2026-04-26T09:36:40.514Z</time></trkpt><trkpt lat="43.1336133" lon="13.1492333"><ele>318.0</ele><time>2026-04-26T09:36:41.514Z</time></trkpt><trkpt lat="43.133645" lon="13.1493117"><ele>318.0</ele><time>2026-04-26T09:36:42.514Z</time></trkpt><trkpt lat="43.1336733" lon="13.1493967"><ele>318.0</ele><time>2026-04-26T09:36:43.514Z</time></trkpt><trkpt lat="43.133705" lon="13.149495"><ele>318.6</ele><time>2026-04-26T09:36:44.514Z</time></trkpt><trkpt lat="43.133735" lon="13.1496017"><ele>319.20000000000005</ele><time>2026-04-26T09:36:45.514Z</time></trkpt><trkpt lat="43.1337567" lon="13.1496917"><ele>319.8</ele><time>2026-04-26T09:36:46.514Z</time></trkpt><trkpt lat="43.1338217" lon="13.14984"><ele>320.40000000000003</ele><time>2026-04-26T09:36:48.514Z</time></trkpt><trkpt lat="43.13387" lon="13.1499067"><ele>321.0</ele><time>2026-04-26T09:36:49.515Z</time></trkpt><trkpt lat="43.133945" lon="13.1500483"><ele>321.0</ele><time>2026-04-26T09:36:51.514Z</time></trkpt><trkpt lat="43.1339733" lon="13.150135"><ele>321.0</ele><time>2026-04-26T09:36:52.514Z</time></trkpt><trkpt lat="43.1340083" lon="13.150225"><ele>321.0</ele><time>2026-04-26T09:36:53.514Z</time></trkpt><trkpt lat="43.1340767" lon="13.1503567"><ele>321.0</ele><time>2026-04-26T09:36:55.515Z</time></trkpt><trkpt lat="43.134145" lon="13.1504733"><ele>321.0</ele><time>2026-04-26T09:36:57.514Z</time></trkpt><trkpt lat="43.1342233" lon="13.150625"><ele>320.5</ele><time>2026-04-26T09:36:59.514Z</time></trkpt><trkpt lat="43.1342817" lon="13.1507067"><ele>320.0</ele><time>2026-04-26T09:37:00.514Z</time></trkpt><trkpt lat="43.1343433" lon="13.1507933"><ele>319.5</ele><time>2026-04-26T09:37:01.514Z</time></trkpt><trkpt lat="43.1344" lon="13.15088"><ele>319.0</ele><time>2026-04-26T09:37:02.515Z</time></trkpt><trkpt lat="43.1344533" lon="13.1509617"><ele>318.5</ele><time>2026-04-26T09:37:03.514Z</time></trkpt><trkpt lat="43.1345117" lon="13.151035"><ele>318.0</ele><time>2026-04-26T09:37:04.514Z</time></trkpt><trkpt lat="43.134575" lon="13.1511017"><ele>317.2</ele><time>2026-04-26T09:37:05.514Z</time></trkpt><trkpt lat="43.134645" lon="13.15116"><ele>316.4</ele><time>2026-04-26T09:37:06.515Z</time></trkpt><trkpt lat="43.1347067" lon="13.1512167"><ele>315.59999999999997</ele><time>2026-04-26T09:37:07.514Z</time></trkpt><trkpt lat="43.1347983" lon="13.151315"><ele>314.8</ele><time>2026-04-26T09:37:09.514Z</time></trkpt><trkpt lat="43.1348383" lon="13.151475"><ele>314.0</ele><time>2026-04-26T09:37:11.514Z</time></trkpt><trkpt lat="43.1348483" lon="13.1515933"><ele>313.83333333333337</ele><time>2026-04-26T09:37:12.515Z</time></trkpt><trkpt lat="43.13485" lon="13.1517317"><ele>313.6666666666667</ele><time>2026-04-26T09:37:13.514Z</time></trkpt><trkpt lat="43.1348533" lon="13.1518717"><ele>313.5</ele><time>2026-04-26T09:37:14.514Z</time></trkpt><trkpt lat="43.13486" lon="13.1519967"><ele>313.3333333333333</ele><time>2026-04-26T09:37:15.514Z</time></trkpt><trkpt lat="43.1348583" lon="13.1521067"><ele>313.16666666666663</ele><time>2026-04-26T09:37:16.514Z</time></trkpt><trkpt lat="43.134855" lon="13.1521967"><ele>313.0</ele><time>2026-04-26T09:37:17.514Z</time></trkpt><trkpt lat="43.13487" lon="13.15231"><ele>313.66666666666663</ele><time>2026-04-26T09:37:19.514Z</time></trkpt><trkpt lat="43.1349383" lon="13.1523567"><ele>314.3333333333333</ele><time>2026-04-26T09:37:21.514Z</time></trkpt><trkpt lat="43.1350117" lon="13.1524"><ele>315.0</ele><time>2026-04-26T09:37:24.514Z</time></trkpt><trkpt lat="43.135075" lon="13.15238"><ele>315.6666666666667</ele><time>2026-04-26T09:37:25.514Z</time></trkpt><trkpt lat="43.135155" lon="13.15233"><ele>316.33333333333337</ele><time>2026-04-26T09:37:26.514Z</time></trkpt><trkpt lat="43.135245" lon="13.15224"><ele>317.0</ele><time>2026-04-26T09:37:27.515Z</time></trkpt><trkpt lat="43.1352883" lon="13.1521317"><ele>317.0</ele><time>2026-04-26T09:37:28.514Z</time></trkpt><trkpt lat="43.13531" lon="13.1520317"><ele>317.0</ele><time>2026-04-26T09:37:29.514Z</time></trkpt><trkpt lat="43.1353033" lon="13.1519283"><ele>317.0</ele><time>2026-04-26T09:37:30.514Z</time></trkpt><trkpt lat="43.13528" lon="13.1518333"><ele>317.0</ele><time>2026-04-26T09:37:31.515Z</time></trkpt><trkpt lat="43.1352533" lon="13.1517433"><ele>317.0</ele><time>2026-04-26T09:37:32.515Z</time></trkpt><trkpt lat="43.1352133" lon="13.15167"><ele>317.0</ele><time>2026-04-26T09:37:33.514Z</time></trkpt><trkpt lat="43.1351783" lon="13.1515933"><ele>317.0</ele><time>2026-04-26T09:37:34.515Z</time></trkpt><trkpt lat="43.135165" lon="13.1515067"><ele>317.0</ele><time>2026-04-26T09:37:35.514Z</time></trkpt><trkpt lat="43.13516" lon="13.1514133"><ele>317.0</ele><time>2026-04-26T09:37:36.514Z</time></trkpt><trkpt lat="43.1351617" lon="13.1512883"><ele>317.0</ele><time>2026-04-26T09:37:37.515Z</time></trkpt><trkpt lat="43.135165" lon="13.151155"><ele>317.0</ele><time>2026-04-26T09:37:38.514Z</time></trkpt><trkpt lat="43.13516" lon="13.1510117"><ele>317.0</ele><time>2026-04-26T09:37:39.514Z</time></trkpt><trkpt lat="43.1351583" lon="13.15087"><ele>317.0</ele><time>2026-04-26T09:37:40.515Z</time></trkpt><trkpt lat="43.1351567" lon="13.1507233"><ele>317.0</ele><time>2026-04-26T09:37:41.514Z</time></trkpt><trkpt lat="43.1351567" lon="13.1505767"><ele>317.0</ele><time>2026-04-26T09:37:42.514Z</time></trkpt><trkpt lat="43.1351517" lon="13.150435"><ele>317.0</ele><time>2026-04-26T09:37:43.514Z</time></trkpt><trkpt lat="43.135145" lon="13.1502833"><ele>317.0</ele><time>2026-04-26T09:37:44.514Z</time></trkpt><trkpt lat="43.1351383" lon="13.1501367"><ele>317.4</ele><time>2026-04-26T09:37:45.514Z</time></trkpt><trkpt lat="43.1351283" lon="13.1499883"><ele>317.79999999999995</ele><time>2026-04-26T09:37:46.515Z</time></trkpt><trkpt lat="43.13512" lon="13.1498433"><ele>318.2</ele><time>2026-04-26T09:37:47.514Z</time></trkpt><trkpt lat="43.1350917" lon="13.1497083"><ele>318.59999999999997</ele><time>2026-04-26T09:37:48.514Z</time></trkpt><trkpt lat="43.1350767" lon="13.1495767"><ele>319.0</ele><time>2026-04-26T09:37:49.514Z</time></trkpt><trkpt lat="43.13507" lon="13.1494417"><ele>319.6</ele><time>2026-04-26T09:37:50.514Z</time></trkpt><trkpt lat="43.13506" lon="13.1493167"><ele>320.2</ele><time>2026-04-26T09:37:51.514Z</time></trkpt><trkpt lat="43.1350567" lon="13.149215"><ele>320.8</ele><time>2026-04-26T09:37:52.514Z</time></trkpt><trkpt lat="43.13507" lon="13.1490933"><ele>321.40000000000003</ele><time>2026-04-26T09:37:54.515Z</time></trkpt><trkpt lat="43.13512" lon="13.14902"><ele>322.0</ele><time>2026-04-26T09:38:07.515Z</time></trkpt><trkpt lat="43.1352383" lon="13.1489767"><ele>322.40000000000003</ele><time>2026-04-26T09:38:09.514Z</time></trkpt><trkpt lat="43.1353083" lon="13.1489817"><ele>322.8</ele><time>2026-04-26T09:38:10.515Z</time></trkpt><trkpt lat="43.1353917" lon="13.1489967"><ele>323.2</ele><time>2026-04-26T09:38:11.514Z</time></trkpt><trkpt lat="43.135475" lon="13.149005"><ele>323.6</ele><time>2026-04-26T09:38:12.514Z</time></trkpt><trkpt lat="43.1355817" lon="13.14901"><ele>324.0</ele><time>2026-04-26T09:38:13.514Z</time></trkpt><trkpt lat="43.1356933" lon="13.1490067"><ele>324.3333333333333</ele><time>2026-04-26T09:38:14.514Z</time></trkpt><trkpt lat="43.13579" lon="13.149"><ele>324.6666666666667</ele><time>2026-04-26T09:38:15.514Z</time></trkpt><trkpt lat="43.1358767" lon="13.1489983"><ele>325.0</ele><time>2026-04-26T09:38:16.514Z</time></trkpt><trkpt lat="43.1359517" lon="13.149005"><ele>325.33333333333337</ele><time>2026-04-26T09:38:17.514Z</time></trkpt><trkpt lat="43.1360167" lon="13.1490183"><ele>325.6666666666667</ele><time>2026-04-26T09:38:18.514Z</time></trkpt><trkpt lat="43.1361283" lon="13.14907"><ele>326.0</ele><time>2026-04-26T09:38:20.514Z</time></trkpt><trkpt lat="43.1362167" lon="13.1491033"><ele>327.1666666666667</ele><time>2026-04-26T09:38:22.514Z</time></trkpt><trkpt lat="43.1362733" lon="13.1489983"><ele>328.33333333333337</ele><time>2026-04-26T09:38:29.514Z</time></trkpt><trkpt lat="43.1362667" lon="13.1489117"><ele>329.5</ele><time>2026-04-26T09:38:30.514Z</time></trkpt><trkpt lat="43.1362467" lon="13.1488033"><ele>330.6666666666667</ele><time>2026-04-26T09:38:31.514Z</time></trkpt><trkpt lat="43.136215" lon="13.1486817"><ele>331.8333333333333</ele><time>2026-04-26T09:38:32.514Z</time></trkpt><trkpt lat="43.1361783" lon="13.148545"><ele>333.0</ele><time>2026-04-26T09:38:33.514Z</time></trkpt><trkpt lat="43.1361333" lon="13.1483783"><ele>336.0</ele><time>2026-04-26T09:38:34.514Z</time></trkpt><trkpt lat="43.1360783" lon="13.148205"><ele>339.0</ele><time>2026-04-26T09:38:35.514Z</time></trkpt><trkpt lat="43.1360217" lon="13.1480367"><ele>342.0</ele><time>2026-04-26T09:38:36.514Z</time></trkpt><trkpt lat="43.1359583" lon="13.1478567"><ele>345.0</ele><time>2026-04-26T09:38:37.515Z</time></trkpt><trkpt lat="43.1358783" lon="13.1476767"><ele>345.0</ele><time>2026-04-26T09:38:38.514Z</time></trkpt><trkpt lat="43.1358033" lon="13.1474967"><ele>345.0</ele><time>2026-04-26T09:38:39.514Z</time></trkpt><trkpt lat="43.1357233" lon="13.1473083"><ele>345.0</ele><time>2026-04-26T09:38:40.514Z</time></trkpt><trkpt lat="43.1356483" lon="13.1471133"><ele>342.3333333333333</ele><time>2026-04-26T09:38:41.514Z</time></trkpt><trkpt lat="43.135565" lon="13.14692"><ele>339.66666666666663</ele><time>2026-04-26T09:38:42.514Z</time></trkpt><trkpt lat="43.13548" lon="13.1467283"><ele>337.0</ele><time>2026-04-26T09:38:43.514Z</time></trkpt><trkpt lat="43.1353967" lon="13.14653"><ele>337.0</ele><time>2026-04-26T09:38:44.515Z</time></trkpt><trkpt lat="43.1353217" lon="13.146335"><ele>337.0</ele><time>2026-04-26T09:38:45.514Z</time></trkpt><trkpt lat="43.1352517" lon="13.1461433"><ele>337.0</ele><time>2026-04-26T09:38:46.514Z</time></trkpt><trkpt lat="43.13519" lon="13.1459417"><ele>337.0</ele><time>2026-04-26T09:38:47.514Z</time></trkpt><trkpt lat="43.1351383" lon="13.145715"><ele>337.0</ele><time>2026-04-26T09:38:48.514Z</time></trkpt><trkpt lat="43.13507" lon="13.1454983"><ele>337.0</ele><time>2026-04-26T09:38:49.514Z</time></trkpt><trkpt lat="43.134995" lon="13.1452933"><ele>338.66666666666663</ele><time>2026-04-26T09:38:50.515Z</time></trkpt><trkpt lat="43.1349" lon="13.1450883"><ele>340.3333333333333</ele><time>2026-04-26T09:38:51.514Z</time></trkpt><trkpt lat="43.1347883" lon="13.1448867"><ele>342.0</ele><time>2026-04-26T09:38:52.515Z</time></trkpt><trkpt lat="43.1346783" lon="13.1446767"><ele>342.0</ele><time>2026-04-26T09:38:53.514Z</time></trkpt><trkpt lat="43.13457" lon="13.1444667"><ele>342.0</ele><time>2026-04-26T09:38:54.515Z</time></trkpt><trkpt lat="43.1344567" lon="13.144275"><ele>342.0</ele><time>2026-04-26T09:38:55.514Z</time></trkpt><trkpt lat="43.1343533" lon="13.1440883"><ele>342.6666666666667</ele><time>2026-04-26T09:38:56.514Z</time></trkpt><trkpt lat="43.1342383" lon="13.1439267"><ele>343.33333333333337</ele><time>2026-04-26T09:38:57.514Z</time></trkpt><trkpt lat="43.1341033" lon="13.14379"><ele>344.0</ele><time>2026-04-26T09:38:58.514Z</time></trkpt><trkpt lat="43.133955" lon="13.1436717"><ele>344.0</ele><time>2026-04-26T09:38:59.514Z</time></trkpt><trkpt lat="43.1338" lon="13.1435717"><ele>344.0</ele><time>2026-04-26T09:39:00.514Z</time></trkpt><trkpt lat="43.1336467" lon="13.1435033"><ele>344.0</ele><time>2026-04-26T09:39:01.514Z</time></trkpt><trkpt lat="43.1335117" lon="13.1434267"><ele>344.0</ele><time>2026-04-26T09:39:02.514Z</time></trkpt><trkpt lat="43.1333767" lon="13.1433317"><ele>344.0</ele><time>2026-04-26T09:39:03.514Z</time></trkpt><trkpt lat="43.133245" lon="13.143215"><ele>344.0</ele><time>2026-04-26T09:39:04.514Z</time></trkpt><trkpt lat="43.1331233" lon="13.1430583"><ele>342.6666666666667</ele><time>2026-04-26T09:39:05.514Z</time></trkpt><trkpt lat="43.133005" lon="13.1428917"><ele>341.3333333333333</ele><time>2026-04-26T09:39:06.514Z</time></trkpt><trkpt lat="43.1328833" lon="13.1427167"><ele>340.0</ele><time>2026-04-26T09:39:07.514Z</time></trkpt><trkpt lat="43.132755" lon="13.1425517"><ele>340.0</ele><time>2026-04-26T09:39:08.515Z</time></trkpt><trkpt lat="43.1326233" lon="13.1423933"><ele>340.0</ele><time>2026-04-26T09:39:09.514Z</time></trkpt><trkpt lat="43.13248" lon="13.142245"><ele>340.0</ele><time>2026-04-26T09:39:10.514Z</time></trkpt><trkpt lat="43.13234" lon="13.1421133"><ele>337.3333333333333</ele><time>2026-04-26T09:39:11.515Z</time></trkpt><trkpt lat="43.1322133" lon="13.1419917"><ele>334.6666666666667</ele><time>2026-04-26T09:39:12.514Z</time></trkpt><trkpt lat="43.132105" lon="13.1418567"><ele>332.0</ele><time>2026-04-26T09:39:13.514Z</time></trkpt><trkpt lat="43.1320067" lon="13.1416867"><ele>338.33333333333337</ele><time>2026-04-26T09:39:14.514Z</time></trkpt><trkpt lat="43.1319233" lon="13.1414883"><ele>344.6666666666667</ele><time>2026-04-26T09:39:15.514Z</time></trkpt><trkpt lat="43.1318217" lon="13.1413017"><ele>351.0</ele><time>2026-04-26T09:39:16.514Z</time></trkpt><trkpt lat="43.1317067" lon="13.14112"><ele>351.0</ele><time>2026-04-26T09:39:17.514Z</time></trkpt><trkpt lat="43.1315683" lon="13.14095"><ele>351.0</ele><time>2026-04-26T09:39:18.515Z</time></trkpt><trkpt lat="43.13142" lon="13.14079"><ele>351.0</ele><time>2026-04-26T09:39:19.515Z</time></trkpt><trkpt lat="43.1312617" lon="13.1406367"><ele>352.0</ele><time>2026-04-26T09:39:20.514Z</time></trkpt><trkpt lat="43.1311267" lon="13.140495"><ele>353.0</ele><time>2026-04-26T09:39:21.514Z</time></trkpt><trkpt lat="43.1309883" lon="13.140365"><ele>354.0</ele><time>2026-04-26T09:39:22.514Z</time></trkpt><trkpt lat="43.1308333" lon="13.140255"><ele>348.6666666666667</ele><time>2026-04-26T09:39:23.514Z</time></trkpt><trkpt lat="43.1306583" lon="13.1401667"><ele>343.33333333333337</ele><time>2026-04-26T09:39:24.514Z</time></trkpt><trkpt lat="43.1304783" lon="13.1400833"><ele>338.0</ele><time>2026-04-26T09:39:25.514Z</time></trkpt><trkpt lat="43.1302983" lon="13.140005"><ele>338.0</ele><time>2026-04-26T09:39:26.514Z</time></trkpt><trkpt lat="43.13012" lon="13.13993"><ele>338.0</ele><time>2026-04-26T09:39:27.514Z</time></trkpt><trkpt lat="43.1299417" lon="13.13984"><ele>338.0</ele><time>2026-04-26T09:39:28.514Z</time></trkpt><trkpt lat="43.1297833" lon="13.1397567"><ele>337.6666666666667</ele><time>2026-04-26T09:39:29.514Z</time></trkpt><trkpt lat="43.1296417" lon="13.1396533"><ele>337.3333333333333</ele><time>2026-04-26T09:39:30.514Z</time></trkpt><trkpt lat="43.1295233" lon="13.1395317"><ele>337.0</ele><time>2026-04-26T09:39:31.514Z</time></trkpt><trkpt lat="43.1294267" lon="13.1393883"><ele>337.0</ele><time>2026-04-26T09:39:32.515Z</time></trkpt><trkpt lat="43.129345" lon="13.1392033"><ele>337.0</ele><time>2026-04-26T09:39:33.514Z</time></trkpt><trkpt lat="43.129265" lon="13.139"><ele>337.0</ele><time>2026-04-26T09:39:34.514Z</time></trkpt><trkpt lat="43.12918" lon="13.13879"><ele>335.66666666666663</ele><time>2026-04-26T09:39:35.513Z</time></trkpt><trkpt lat="43.1290983" lon="13.1385783"><ele>334.3333333333333</ele><time>2026-04-26T09:39:36.513Z</time></trkpt><trkpt lat="43.12901" lon="13.1383567"><ele>333.0</ele><time>2026-04-26T09:39:37.513Z</time></trkpt><trkpt lat="43.1289233" lon="13.1381367"><ele>333.0</ele><time>2026-04-26T09:39:38.513Z</time></trkpt><trkpt lat="43.1288483" lon="13.1379133"><ele>333.0</ele><time>2026-04-26T09:39:39.513Z</time></trkpt><trkpt lat="43.1287717" lon="13.1376983"><ele>333.0</ele><time>2026-04-26T09:39:40.513Z</time></trkpt><trkpt lat="43.128695" lon="13.1374967"><ele>337.3333333333333</ele><time>2026-04-26T09:39:41.513Z</time></trkpt><trkpt lat="43.1286217" lon="13.1373067"><ele>341.66666666666663</ele><time>2026-04-26T09:39:42.513Z</time></trkpt><trkpt lat="43.1285383" lon="13.13714"><ele>346.0</ele><time>2026-04-26T09:39:43.513Z</time></trkpt><trkpt lat="43.128435" lon="13.1369933"><ele>346.0</ele><time>2026-04-26T09:39:44.513Z</time></trkpt><trkpt lat="43.128315" lon="13.1368567"><ele>346.0</ele><time>2026-04-26T09:39:45.514Z</time></trkpt><trkpt lat="43.128185" lon="13.1367267"><ele>346.0</ele><time>2026-04-26T09:39:46.513Z</time></trkpt><trkpt lat="43.1280667" lon="13.1366083"><ele>341.75</ele><time>2026-04-26T09:39:47.513Z</time></trkpt><trkpt lat="43.1279717" lon="13.1364633"><ele>337.5</ele><time>2026-04-26T09:39:48.513Z</time></trkpt><trkpt lat="43.12791" lon="13.1362967"><ele>333.25</ele><time>2026-04-26T09:39:49.513Z</time></trkpt><trkpt lat="43.1278667" lon="13.136105"><ele>329.0</ele><time>2026-04-26T09:39:50.513Z</time></trkpt><trkpt lat="43.1278467" lon="13.1359017"><ele>329.75</ele><time>2026-04-26T09:39:51.513Z</time></trkpt><trkpt lat="43.127825" lon="13.1357017"><ele>330.5</ele><time>2026-04-26T09:39:52.513Z</time></trkpt><trkpt lat="43.1277767" lon="13.1355117"><ele>331.25</ele><time>2026-04-26T09:39:53.513Z</time></trkpt><trkpt lat="43.1277117" lon="13.1353283"><ele>332.0</ele><time>2026-04-26T09:39:54.513Z</time></trkpt><trkpt lat="43.1276417" lon="13.1351467"><ele>332.0</ele><time>2026-04-26T09:39:55.513Z</time></trkpt><trkpt lat="43.1275467" lon="13.1349833"><ele>332.0</ele><time>2026-04-26T09:39:56.513Z</time></trkpt><trkpt lat="43.1274233" lon="13.1348267"><ele>332.0</ele><time>2026-04-26T09:39:57.513Z</time></trkpt><trkpt lat="43.127295" lon="13.1346667"><ele>331.6666666666667</ele><time>2026-04-26T09:39:58.513Z</time></trkpt><trkpt lat="43.1271617" lon="13.1345067"><ele>331.3333333333333</ele><time>2026-04-26T09:39:59.513Z</time></trkpt><trkpt lat="43.1270167" lon="13.134335"><ele>331.0</ele><time>2026-04-26T09:40:00.513Z</time></trkpt><trkpt lat="43.1268683" lon="13.134165"><ele>333.3333333333333</ele><time>2026-04-26T09:40:01.514Z</time></trkpt><trkpt lat="43.1267283" lon="13.133995"><ele>335.6666666666667</ele><time>2026-04-26T09:40:02.513Z</time></trkpt><trkpt lat="43.1265867" lon="13.133835"><ele>338.0</ele><time>2026-04-26T09:40:03.513Z</time></trkpt><trkpt lat="43.12645" lon="13.1336883"><ele>338.0</ele><time>2026-04-26T09:40:04.513Z</time></trkpt><trkpt lat="43.1263133" lon="13.1335517"><ele>338.0</ele><time>2026-04-26T09:40:05.513Z</time></trkpt><trkpt lat="43.1261533" lon="13.1334317"><ele>338.0</ele><time>2026-04-26T09:40:06.513Z</time></trkpt><trkpt lat="43.12599" lon="13.1333133"><ele>351.0</ele><time>2026-04-26T09:40:07.513Z</time></trkpt><trkpt lat="43.125815" lon="13.1331933"><ele>364.0</ele><time>2026-04-26T09:40:08.513Z</time></trkpt><trkpt lat="43.12565" lon="13.1330783"><ele>377.0</ele><time>2026-04-26T09:40:09.513Z</time></trkpt><trkpt lat="43.1255" lon="13.1329867"><ele>378.5</ele><time>2026-04-26T09:40:10.513Z</time></trkpt><trkpt lat="43.1253583" lon="13.13292"><ele>380.0</ele><time>2026-04-26T09:40:11.513Z</time></trkpt><trkpt lat="43.1252383" lon="13.1328733"><ele>381.5</ele><time>2026-04-26T09:40:12.513Z</time></trkpt><trkpt lat="43.125135" lon="13.1328533"><ele>383.0</ele><time>2026-04-26T09:40:13.513Z</time></trkpt><trkpt lat="43.1250367" lon="13.1328667"><ele>383.0</ele><time>2026-04-26T09:40:14.513Z</time></trkpt><trkpt lat="43.124945" lon="13.1329317"><ele>383.0</ele><time>2026-04-26T09:40:15.514Z</time></trkpt><trkpt lat="43.1248567" lon="13.1330417"><ele>383.0</ele><time>2026-04-26T09:40:16.513Z</time></trkpt><trkpt lat="43.1247733" lon="13.13319"><ele>383.0</ele><time>2026-04-26T09:40:17.514Z</time></trkpt><trkpt lat="43.12471" lon="13.1333567"><ele>382.25</ele><time>2026-04-26T09:40:18.513Z</time></trkpt><trkpt lat="43.124655" lon="13.13352"><ele>381.5</ele><time>2026-04-26T09:40:19.513Z</time></trkpt><trkpt lat="43.12463" lon="13.13369"><ele>380.75</ele><time>2026-04-26T09:40:20.513Z</time></trkpt><trkpt lat="43.1246283" lon="13.1338717"><ele>380.0</ele><time>2026-04-26T09:40:21.513Z</time></trkpt><trkpt lat="43.1246483" lon="13.134055"><ele>374.2</ele><time>2026-04-26T09:40:22.513Z</time></trkpt><trkpt lat="43.124675" lon="13.134225"><ele>368.4</ele><time>2026-04-26T09:40:23.513Z</time></trkpt><trkpt lat="43.1246767" lon="13.1343633"><ele>362.6</ele><time>2026-04-26T09:40:24.513Z</time></trkpt><trkpt lat="43.1246533" lon="13.1344667"><ele>356.8</ele><time>2026-04-26T09:40:25.513Z</time></trkpt><trkpt lat="43.12461" lon="13.1345483"><ele>351.0</ele><time>2026-04-26T09:40:26.514Z</time></trkpt><trkpt lat="43.124535" lon="13.1345883"><ele>351.0</ele><time>2026-04-26T09:40:27.513Z</time></trkpt><trkpt lat="43.1244333" lon="13.134585"><ele>351.0</ele><time>2026-04-26T09:40:28.513Z</time></trkpt><trkpt lat="43.1243" lon="13.134535"><ele>351.0</ele><time>2026-04-26T09:40:29.513Z</time></trkpt><trkpt lat="43.1241467" lon="13.1344667"><ele>351.0</ele><time>2026-04-26T09:40:30.513Z</time></trkpt><trkpt lat="43.1239783" lon="13.1344183"><ele>351.6666666666667</ele><time>2026-04-26T09:40:31.513Z</time></trkpt><trkpt lat="43.12381" lon="13.1343933"><ele>352.33333333333337</ele><time>2026-04-26T09:40:32.514Z</time></trkpt><trkpt lat="43.1236417" lon="13.1343833"><ele>353.0</ele><time>2026-04-26T09:40:33.513Z</time></trkpt><trkpt lat="43.1234667" lon="13.1343967"><ele>353.0</ele><time>2026-04-26T09:40:34.513Z</time></trkpt><trkpt lat="43.123295" lon="13.1344033"><ele>353.0</ele><time>2026-04-26T09:40:35.513Z</time></trkpt><trkpt lat="43.1231183" lon="13.13442"><ele>353.0</ele><time>2026-04-26T09:40:36.513Z</time></trkpt><trkpt lat="43.1229467" lon="13.1344333"><ele>356.33333333333337</ele><time>2026-04-26T09:40:37.513Z</time></trkpt><trkpt lat="43.1227633" lon="13.1344567"><ele>359.6666666666667</ele><time>2026-04-26T09:40:38.513Z</time></trkpt><trkpt lat="43.1225833" lon="13.13449"><ele>363.0</ele><time>2026-04-26T09:40:39.514Z</time></trkpt><trkpt lat="43.12239" lon="13.134525"><ele>364.3333333333333</ele><time>2026-04-26T09:40:40.513Z</time></trkpt><trkpt lat="43.1222017" lon="13.13457"><ele>365.66666666666663</ele><time>2026-04-26T09:40:41.513Z</time></trkpt><trkpt lat="43.122015" lon="13.1346133"><ele>367.0</ele><time>2026-04-26T09:40:42.513Z</time></trkpt><trkpt lat="43.1218383" lon="13.1346633"><ele>367.0</ele><time>2026-04-26T09:40:43.513Z</time></trkpt><trkpt lat="43.121665" lon="13.1347167"><ele>367.0</ele><time>2026-04-26T09:40:44.514Z</time></trkpt><trkpt lat="43.121505" lon="13.134755"><ele>367.0</ele><time>2026-04-26T09:40:45.513Z</time></trkpt><trkpt lat="43.121355" lon="13.1347783"><ele>364.0</ele><time>2026-04-26T09:40:46.513Z</time></trkpt><trkpt lat="43.1212067" lon="13.134785"><ele>361.0</ele><time>2026-04-26T09:40:47.513Z</time></trkpt><trkpt lat="43.1210667" lon="13.13476"><ele>358.0</ele><time>2026-04-26T09:40:48.513Z</time></trkpt><trkpt lat="43.12095" lon="13.1347233"><ele>355.0</ele><time>2026-04-26T09:40:49.513Z</time></trkpt><trkpt lat="43.12086" lon="13.1346933"><ele>355.0</ele><time>2026-04-26T09:40:50.514Z</time></trkpt><trkpt lat="43.1207883" lon="13.1346833"><ele>355.0</ele><time>2026-04-26T09:40:51.514Z</time></trkpt><trkpt lat="43.120685" lon="13.134705"><ele>355.0</ele><time>2026-04-26T09:40:53.513Z</time></trkpt><trkpt lat="43.1206033" lon="13.134865"><ele>355.0</ele><time>2026-04-26T09:40:55.513Z</time></trkpt><trkpt lat="43.12056" lon="13.135005"><ele>355.0</ele><time>2026-04-26T09:40:56.513Z</time></trkpt><trkpt lat="43.1205317" lon="13.1351283"><ele>352.66666666666663</ele><time>2026-04-26T09:40:57.513Z</time></trkpt><trkpt lat="43.1205" lon="13.1352333"><ele>350.3333333333333</ele><time>2026-04-26T09:40:58.513Z</time></trkpt><trkpt lat="43.12046" lon="13.1353033"><ele>348.0</ele><time>2026-04-26T09:40:59.513Z</time></trkpt><trkpt lat="43.120385" lon="13.135395"><ele>345.6666666666667</ele><time>2026-04-26T09:41:01.513Z</time></trkpt><trkpt lat="43.1203067" lon="13.1354617"><ele>343.33333333333337</ele><time>2026-04-26T09:41:03.513Z</time></trkpt><trkpt lat="43.1202167" lon="13.1355083"><ele>341.0</ele><time>2026-04-26T09:41:05.513Z</time></trkpt><trkpt lat="43.1201267" lon="13.1354817"><ele>341.0</ele><time>2026-04-26T09:41:07.513Z</time></trkpt><trkpt lat="43.120015" lon="13.1353617"><ele>341.0</ele><time>2026-04-26T09:41:09.513Z</time></trkpt><trkpt lat="43.1199367" lon="13.1352717"><ele>341.0</ele><time>2026-04-26T09:41:10.513Z</time></trkpt><trkpt lat="43.1198367" lon="13.1351833"><ele>341.0</ele><time>2026-04-26T09:41:11.513Z</time></trkpt><trkpt lat="43.1197333" lon="13.1351117"><ele>341.6</ele><time>2026-04-26T09:41:12.513Z</time></trkpt><trkpt lat="43.1196333" lon="13.1350567"><ele>342.20000000000005</ele><time>2026-04-26T09:41:13.513Z</time></trkpt><trkpt lat="43.11953" lon="13.1350033"><ele>342.79999999999995</ele><time>2026-04-26T09:41:14.513Z</time></trkpt><trkpt lat="43.119445" lon="13.1349467"><ele>343.4</ele><time>2026-04-26T09:41:15.513Z</time></trkpt><trkpt lat="43.119345" lon="13.1348867"><ele>344.0</ele><time>2026-04-26T09:41:16.513Z</time></trkpt><trkpt lat="43.1192533" lon="13.1348383"><ele>344.0</ele><time>2026-04-26T09:41:17.513Z</time></trkpt><trkpt lat="43.11918" lon="13.134805"><ele>344.0</ele><time>2026-04-26T09:41:18.513Z</time></trkpt><trkpt lat="43.11912" lon="13.13477"><ele>344.0</ele><time>2026-04-26T09:41:19.513Z</time></trkpt><trkpt lat="43.1190367" lon="13.1347133"><ele>344.0</ele><time>2026-04-26T09:41:21.513Z</time></trkpt><trkpt lat="43.1189883" lon="13.134645"><ele>344.0</ele><time>2026-04-26T09:41:23.514Z</time></trkpt><trkpt lat="43.1189483" lon="13.1345283"><ele>344.0</ele><time>2026-04-26T09:41:25.513Z</time></trkpt><trkpt lat="43.1188883" lon="13.1344017"><ele>347.4</ele><time>2026-04-26T09:41:27.514Z</time></trkpt><trkpt lat="43.118835" lon="13.1342883"><ele>350.79999999999995</ele><time>2026-04-26T09:41:29.513Z</time></trkpt><trkpt lat="43.1188217" lon="13.1341983"><ele>354.20000000000005</ele><time>2026-04-26T09:41:30.514Z</time></trkpt><trkpt lat="43.1187917" lon="13.1340417"><ele>357.6</ele><time>2026-04-26T09:41:32.513Z</time></trkpt><trkpt lat="43.1187533" lon="13.133895"><ele>361.0</ele><time>2026-04-26T09:41:34.513Z</time></trkpt><trkpt lat="43.118725" lon="13.1338117"><ele>361.0</ele><time>2026-04-26T09:41:35.513Z</time></trkpt><trkpt lat="43.1186983" lon="13.1337267"><ele>361.0</ele><time>2026-04-26T09:41:36.513Z</time></trkpt><trkpt lat="43.1186717" lon="13.1336317"><ele>361.0</ele><time>2026-04-26T09:41:37.513Z</time></trkpt><trkpt lat="43.11864" lon="13.1335417"><ele>361.0</ele><time>2026-04-26T09:41:38.513Z</time></trkpt><trkpt lat="43.1186017" lon="13.1334517"><ele>361.0</ele><time>2026-04-26T09:41:39.513Z</time></trkpt><trkpt lat="43.1185583" lon="13.1333683"><ele>361.0</ele><time>2026-04-26T09:41:40.513Z</time></trkpt><trkpt lat="43.1185017" lon="13.13329"><ele>361.0</ele><time>2026-04-26T09:41:41.514Z</time></trkpt><trkpt lat="43.1184483" lon="13.1332"><ele>360.3333333333333</ele><time>2026-04-26T09:41:42.513Z</time></trkpt><trkpt lat="43.1184067" lon="13.1331167"><ele>359.66666666666663</ele><time>2026-04-26T09:41:43.513Z</time></trkpt><trkpt lat="43.11836" lon="13.13302"><ele>359.0</ele><time>2026-04-26T09:41:44.513Z</time></trkpt><trkpt lat="43.11832" lon="13.1329417"><ele>358.3333333333333</ele><time>2026-04-26T09:41:45.513Z</time></trkpt><trkpt lat="43.1182533" lon="13.1328167"><ele>357.6666666666667</ele><time>2026-04-26T09:41:47.513Z</time></trkpt><trkpt lat="43.1182067" lon="13.1327583"><ele>357.0</ele><time>2026-04-26T09:41:48.513Z</time></trkpt><trkpt lat="43.11815" lon="13.1327083"><ele>357.0</ele><time>2026-04-26T09:41:49.513Z</time></trkpt><trkpt lat="43.1180783" lon="13.132655"><ele>357.0</ele><time>2026-04-26T09:41:50.513Z</time></trkpt><trkpt lat="43.1180067" lon="13.1326"><ele>357.0</ele><time>2026-04-26T09:41:51.514Z</time></trkpt><trkpt lat="43.1179383" lon="13.1325333"><ele>357.0</ele><time>2026-04-26T09:41:52.514Z</time></trkpt><trkpt lat="43.1178717" lon="13.1324683"><ele>357.0</ele><time>2026-04-26T09:41:53.513Z</time></trkpt><trkpt lat="43.1178117" lon="13.1324117"><ele>357.0</ele><time>2026-04-26T09:41:54.514Z</time></trkpt><trkpt lat="43.1177517" lon="13.1323583"><ele>355.0</ele><time>2026-04-26T09:41:55.513Z</time></trkpt><trkpt lat="43.1176933" lon="13.1322917"><ele>353.0</ele><time>2026-04-26T09:41:56.513Z</time></trkpt><trkpt lat="43.1176467" lon="13.1322083"><ele>351.0</ele><time>2026-04-26T09:41:57.514Z</time></trkpt><trkpt lat="43.117605" lon="13.132135"><ele>349.0</ele><time>2026-04-26T09:41:58.513Z</time></trkpt><trkpt lat="43.1175733" lon="13.1320483"><ele>347.0</ele><time>2026-04-26T09:41:59.513Z</time></trkpt><trkpt lat="43.1175467" lon="13.1319567"><ele>345.0</ele><time>2026-04-26T09:42:00.514Z</time></trkpt><trkpt lat="43.117515" lon="13.1318633"><ele>343.0</ele><time>2026-04-26T09:42:01.513Z</time></trkpt><trkpt lat="43.1174717" lon="13.1317667"><ele>343.0</ele><time>2026-04-26T09:42:02.513Z</time></trkpt><trkpt lat="43.11743" lon="13.1316817"><ele>343.0</ele><time>2026-04-26T09:42:03.513Z</time></trkpt><trkpt lat="43.1173817" lon="13.1316083"><ele>343.0</ele><time>2026-04-26T09:42:04.514Z</time></trkpt><trkpt lat="43.117335" lon="13.1315367"><ele>343.0</ele><time>2026-04-26T09:42:05.514Z</time></trkpt><trkpt lat="43.1173017" lon="13.131455"><ele>343.0</ele><time>2026-04-26T09:42:06.514Z</time></trkpt><trkpt lat="43.11727" lon="13.13137"><ele>343.0</ele><time>2026-04-26T09:42:07.514Z</time></trkpt><trkpt lat="43.1172033" lon="13.1312133"><ele>344.8333333333333</ele><time>2026-04-26T09:42:09.513Z</time></trkpt><trkpt lat="43.11715" lon="13.13113"><ele>346.66666666666663</ele><time>2026-04-26T09:42:10.513Z</time></trkpt><trkpt lat="43.1170883" lon="13.1310583"><ele>348.5</ele><time>2026-04-26T09:42:11.513Z</time></trkpt><trkpt lat="43.1170333" lon="13.1309933"><ele>350.3333333333333</ele><time>2026-04-26T09:42:12.513Z</time></trkpt><trkpt lat="43.1169767" lon="13.1309383"><ele>352.1666666666667</ele><time>2026-04-26T09:42:13.514Z</time></trkpt><trkpt lat="43.1169217" lon="13.1308867"><ele>354.0</ele><time>2026-04-26T09:42:14.513Z</time></trkpt><trkpt lat="43.1168183" lon="13.1308017"><ele>354.0</ele><time>2026-04-26T09:42:16.514Z</time></trkpt><trkpt lat="43.1167233" lon="13.1307617"><ele>354.0</ele><time>2026-04-26T09:42:18.514Z</time></trkpt><trkpt lat="43.1166133" lon="13.1307083"><ele>354.0</ele><time>2026-04-26T09:42:20.513Z</time></trkpt><trkpt lat="43.1165" lon="13.13068"><ele>354.0</ele><time>2026-04-26T09:42:22.513Z</time></trkpt><trkpt lat="43.11638" lon="13.1306583"><ele>351.5</ele><time>2026-04-26T09:42:24.513Z</time></trkpt><trkpt lat="43.1162583" lon="13.1306367"><ele>349.0</ele><time>2026-04-26T09:42:26.513Z</time></trkpt><trkpt lat="43.1161917" lon="13.1306283"><ele>346.5</ele><time>2026-04-26T09:42:27.513Z</time></trkpt><trkpt lat="43.1160733" lon="13.1306117"><ele>344.0</ele><time>2026-04-26T09:42:29.513Z</time></trkpt><trkpt lat="43.1160083" lon="13.1306217"><ele>341.5</ele><time>2026-04-26T09:42:30.513Z</time></trkpt><trkpt lat="43.1159483" lon="13.13065"><ele>339.0</ele><time>2026-04-26T09:42:31.513Z</time></trkpt><trkpt lat="43.115895" lon="13.1306967"><ele>340.2</ele><time>2026-04-26T09:42:32.513Z</time></trkpt><trkpt lat="43.11582" lon="13.1308183"><ele>341.4</ele><time>2026-04-26T09:42:34.513Z</time></trkpt><trkpt lat="43.115745" lon="13.1309083"><ele>342.6</ele><time>2026-04-26T09:42:36.513Z</time></trkpt><trkpt lat="43.1156783" lon="13.1309767"><ele>343.8</ele><time>2026-04-26T09:42:38.514Z</time></trkpt><trkpt lat="43.1156283" lon="13.1310667"><ele>345.0</ele><time>2026-04-26T09:42:40.513Z</time></trkpt><trkpt lat="43.1155667" lon="13.131145"><ele>345.0</ele><time>2026-04-26T09:42:42.514Z</time></trkpt><trkpt lat="43.11552" lon="13.1312483"><ele>345.0</ele><time>2026-04-26T09:42:44.513Z</time></trkpt><trkpt lat="43.1154667" lon="13.1313383"><ele>345.0</ele><time>2026-04-26T09:42:46.513Z</time></trkpt><trkpt lat="43.11541" lon="13.13144"><ele>345.0</ele><time>2026-04-26T09:42:48.513Z</time></trkpt><trkpt lat="43.115365" lon="13.1315517"><ele>345.0</ele><time>2026-04-26T09:42:50.513Z</time></trkpt><trkpt lat="43.1153033" lon="13.1316667"><ele>350.0</ele><time>2026-04-26T09:42:52.513Z</time></trkpt><trkpt lat="43.1152467" lon="13.1317733"><ele>355.0</ele><time>2026-04-26T09:42:54.513Z</time></trkpt><trkpt lat="43.11518" lon="13.1318883"><ele>360.0</ele><time>2026-04-26T09:42:56.513Z</time></trkpt><trkpt lat="43.1151133" lon="13.131995"><ele>365.0</ele><time>2026-04-26T09:42:58.513Z</time></trkpt><trkpt lat="43.115065" lon="13.1321033"><ele>370.0</ele><time>2026-04-26T09:43:00.513Z</time></trkpt><trkpt lat="43.1150167" lon="13.1322017"><ele>370.0</ele><time>2026-04-26T09:43:02.513Z</time></trkpt><trkpt lat="43.1149667" lon="13.1322833"><ele>370.0</ele><time>2026-04-26T09:43:04.513Z</time></trkpt><trkpt lat="43.1149117" lon="13.1323767"><ele>370.0</ele><time>2026-04-26T09:43:07.513Z</time></trkpt><trkpt lat="43.1148583" lon="13.132465"><ele>370.0</ele><time>2026-04-26T09:43:10.513Z</time></trkpt><trkpt lat="43.1147917" lon="13.1325217"><ele>370.0</ele><time>2026-04-26T09:43:12.513Z</time></trkpt><trkpt lat="43.1147233" lon="13.132585"><ele>370.0</ele><time>2026-04-26T09:43:14.514Z</time></trkpt><trkpt lat="43.1146367" lon="13.132665"><ele>374.16666666666663</ele><time>2026-04-26T09:43:16.513Z</time></trkpt><trkpt lat="43.1145467" lon="13.1327367"><ele>378.3333333333333</ele><time>2026-04-26T09:43:18.513Z</time></trkpt><trkpt lat="43.11445" lon="13.1327917"><ele>382.5</ele><time>2026-04-26T09:43:20.513Z</time></trkpt><trkpt lat="43.1143817" lon="13.1328517"><ele>386.66666666666663</ele><time>2026-04-26T09:43:22.513Z</time></trkpt><trkpt lat="43.1143317" lon="13.1329133"><ele>390.8333333333333</ele><time>2026-04-26T09:43:24.513Z</time></trkpt><trkpt lat="43.11427" lon="13.132985"><ele>395.0</ele><time>2026-04-26T09:43:26.514Z</time></trkpt><trkpt lat="43.1141883" lon="13.133035"><ele>395.0</ele><time>2026-04-26T09:43:28.513Z</time></trkpt><trkpt lat="43.1141017" lon="13.1330767"><ele>395.0</ele><time>2026-04-26T09:43:30.513Z</time></trkpt><trkpt lat="43.1140283" lon="13.1331267"><ele>395.0</ele><time>2026-04-26T09:43:32.513Z</time></trkpt><trkpt lat="43.1139317" lon="13.1331717"><ele>395.0</ele><time>2026-04-26T09:43:34.513Z</time></trkpt><trkpt lat="43.1138233" lon="13.1332283"><ele>395.0</ele><time>2026-04-26T09:43:36.513Z</time></trkpt><trkpt lat="43.11372" lon="13.1332783"><ele>395.49999999999994</ele><time>2026-04-26T09:43:38.513Z</time></trkpt><trkpt lat="43.113655" lon="13.13332"><ele>396.0</ele><time>2026-04-26T09:43:41.513Z</time></trkpt><trkpt lat="43.11359" lon="13.133355"><ele>396.5</ele><time>2026-04-26T09:43:47.513Z</time></trkpt><trkpt lat="43.11351" lon="13.1334167"><ele>397.0</ele><time>2026-04-26T09:43:52.513Z</time></trkpt><trkpt lat="43.1134283" lon="13.1334767"><ele>397.49999999999994</ele><time>2026-04-26T09:43:54.513Z</time></trkpt><trkpt lat="43.1133333" lon="13.1335783"><ele>398.0</ele><time>2026-04-26T09:43:56.513Z</time></trkpt><trkpt lat="43.113235" lon="13.133655"><ele>397.99999999999994</ele><time>2026-04-26T09:43:58.513Z</time></trkpt><trkpt lat="43.1131333" lon="13.1337433"><ele>398.0</ele><time>2026-04-26T09:44:00.513Z</time></trkpt><trkpt lat="43.11307" lon="13.133785"><ele>398.0</ele><time>2026-04-26T09:44:01.513Z</time></trkpt><trkpt lat="43.1129917" lon="13.1338267"><ele>398.0</ele><time>2026-04-26T09:44:02.514Z</time></trkpt><trkpt lat="43.1129233" lon="13.1338717"><ele>397.99999999999994</ele><time>2026-04-26T09:44:03.513Z</time></trkpt><trkpt lat="43.1128583" lon="13.133915"><ele>398.0</ele><time>2026-04-26T09:44:04.513Z</time></trkpt><trkpt lat="43.112795" lon="13.13396"><ele>397.99999999999994</ele><time>2026-04-26T09:44:05.513Z</time></trkpt><trkpt lat="43.1127333" lon="13.1340133"><ele>398.0</ele><time>2026-04-26T09:44:06.513Z</time></trkpt><trkpt lat="43.1126817" lon="13.1340767"><ele>398.0</ele><time>2026-04-26T09:44:07.513Z</time></trkpt><trkpt lat="43.1126233" lon="13.1341267"><ele>398.0</ele><time>2026-04-26T09:44:08.513Z</time></trkpt><trkpt lat="43.11253" lon="13.1342183"><ele>397.99999999999994</ele><time>2026-04-26T09:44:10.514Z</time></trkpt><trkpt lat="43.112455" lon="13.1343017"><ele>398.0</ele><time>2026-04-26T09:44:12.513Z</time></trkpt><trkpt lat="43.1123717" lon="13.1343567"><ele>399.8333333333333</ele><time>2026-04-26T09:44:14.514Z</time></trkpt><trkpt lat="43.1122617" lon="13.134375"><ele>401.66666666666663</ele><time>2026-04-26T09:44:16.514Z</time></trkpt><trkpt lat="43.112195" lon="13.1343867"><ele>403.5</ele><time>2026-04-26T09:44:17.513Z</time></trkpt><trkpt lat="43.11207" lon="13.134415"><ele>405.33333333333337</ele><time>2026-04-26T09:44:19.513Z</time></trkpt><trkpt lat="43.1120067" lon="13.1344133"><ele>407.1666666666667</ele><time>2026-04-26T09:44:20.513Z</time></trkpt><trkpt lat="43.1119417" lon="13.1343983"><ele>409.0</ele><time>2026-04-26T09:44:21.513Z</time></trkpt><trkpt lat="43.111875" lon="13.1343833"><ele>409.00000000000006</ele><time>2026-04-26T09:44:22.513Z</time></trkpt><trkpt lat="43.11181" lon="13.1343617"><ele>409.0</ele><time>2026-04-26T09:44:23.513Z</time></trkpt><trkpt lat="43.111745" lon="13.1343283"><ele>409.0</ele><time>2026-04-26T09:44:24.513Z</time></trkpt><trkpt lat="43.1116833" lon="13.1342817"><ele>409.0</ele><time>2026-04-26T09:44:25.514Z</time></trkpt><trkpt lat="43.111625" lon="13.1342117"><ele>409.00000000000006</ele><time>2026-04-26T09:44:26.514Z</time></trkpt><trkpt lat="43.1115683" lon="13.1341283"><ele>409.0</ele><time>2026-04-26T09:44:27.513Z</time></trkpt><trkpt lat="43.1115083" lon="13.1340383"><ele>409.2</ele><time>2026-04-26T09:44:28.514Z</time></trkpt><trkpt lat="43.1114417" lon="13.1339517"><ele>409.4</ele><time>2026-04-26T09:44:29.513Z</time></trkpt><trkpt lat="43.1113733" lon="13.1338633"><ele>409.6</ele><time>2026-04-26T09:44:30.513Z</time></trkpt><trkpt lat="43.1113083" lon="13.1337717"><ele>409.8</ele><time>2026-04-26T09:44:31.513Z</time></trkpt><trkpt lat="43.1112467" lon="13.13368"><ele>410.0</ele><time>2026-04-26T09:44:32.513Z</time></trkpt><trkpt lat="43.11119" lon="13.1335783"><ele>409.99999999999994</ele><time>2026-04-26T09:44:33.513Z</time></trkpt><trkpt lat="43.1111467" lon="13.1334817"><ele>410.0</ele><time>2026-04-26T09:44:34.514Z</time></trkpt><trkpt lat="43.1111" lon="13.1333967"><ele>410.0</ele><time>2026-04-26T09:44:35.513Z</time></trkpt><trkpt lat="43.1110517" lon="13.13333"><ele>410.0</ele><time>2026-04-26T09:44:36.514Z</time></trkpt><trkpt lat="43.110995" lon="13.1332683"><ele>409.99999999999994</ele><time>2026-04-26T09:44:37.513Z</time></trkpt><trkpt lat="43.1109233" lon="13.1332133"><ele>410.0</ele><time>2026-04-26T09:44:38.513Z</time></trkpt><trkpt lat="43.1108283" lon="13.1331683"><ele>407.2</ele><time>2026-04-26T09:44:39.514Z</time></trkpt><trkpt lat="43.110735" lon="13.1331267"><ele>404.4</ele><time>2026-04-26T09:44:40.513Z</time></trkpt><trkpt lat="43.1106383" lon="13.1330967"><ele>401.6</ele><time>2026-04-26T09:44:41.513Z</time></trkpt><trkpt lat="43.11055" lon="13.1330733"><ele>398.8</ele><time>2026-04-26T09:44:42.514Z</time></trkpt><trkpt lat="43.1104583" lon="13.1330683"><ele>396.0</ele><time>2026-04-26T09:44:43.513Z</time></trkpt><trkpt lat="43.1103667" lon="13.133065"><ele>396.0</ele><time>2026-04-26T09:44:44.513Z</time></trkpt><trkpt lat="43.1102817" lon="13.133075"><ele>396.0</ele><time>2026-04-26T09:44:45.513Z</time></trkpt><trkpt lat="43.1102" lon="13.1330917"><ele>396.0</ele><time>2026-04-26T09:44:46.514Z</time></trkpt><trkpt lat="43.1101267" lon="13.1331033"><ele>396.0</ele><time>2026-04-26T09:44:47.513Z</time></trkpt><trkpt lat="43.1100583" lon="13.1331217"><ele>396.0</ele><time>2026-04-26T09:44:48.514Z</time></trkpt><trkpt lat="43.1099817" lon="13.133125"><ele>396.0</ele><time>2026-04-26T09:44:49.513Z</time></trkpt><trkpt lat="43.1098983" lon="13.1331283"><ele>397.8</ele><time>2026-04-26T09:44:50.513Z</time></trkpt><trkpt lat="43.10982" lon="13.13313"><ele>399.6</ele><time>2026-04-26T09:44:51.514Z</time></trkpt><trkpt lat="43.10973" lon="13.1331217"><ele>401.4</ele><time>2026-04-26T09:44:52.513Z</time></trkpt><trkpt lat="43.1096383" lon="13.1331083"><ele>403.2</ele><time>2026-04-26T09:44:53.513Z</time></trkpt><trkpt lat="43.1095417" lon="13.133095"><ele>405.0</ele><time>2026-04-26T09:44:54.513Z</time></trkpt><trkpt lat="43.1094483" lon="13.13307"><ele>405.0</ele><time>2026-04-26T09:44:55.513Z</time></trkpt><trkpt lat="43.10936" lon="13.1330333"><ele>405.0</ele><time>2026-04-26T09:44:56.513Z</time></trkpt><trkpt lat="43.109285" lon="13.13298"><ele>405.0</ele><time>2026-04-26T09:44:57.513Z</time></trkpt><trkpt lat="43.1092183" lon="13.1329083"><ele>405.0</ele><time>2026-04-26T09:44:58.514Z</time></trkpt><trkpt lat="43.1091583" lon="13.1328317"><ele>405.0</ele><time>2026-04-26T09:44:59.513Z</time></trkpt><trkpt lat="43.10911" lon="13.132735"><ele>405.0</ele><time>2026-04-26T09:45:00.513Z</time></trkpt><trkpt lat="43.109075" lon="13.1326333"><ele>404.1666666666667</ele><time>2026-04-26T09:45:01.513Z</time></trkpt><trkpt lat="43.1090433" lon="13.132535"><ele>403.33333333333337</ele><time>2026-04-26T09:45:02.513Z</time></trkpt><trkpt lat="43.1090183" lon="13.1324533"><ele>402.5</ele><time>2026-04-26T09:45:03.513Z</time></trkpt><trkpt lat="43.109005" lon="13.13234"><ele>401.6666666666667</ele><time>2026-04-26T09:45:05.513Z</time></trkpt><trkpt lat="43.1090667" lon="13.1322367"><ele>400.83333333333337</ele><time>2026-04-26T09:45:07.514Z</time></trkpt><trkpt lat="43.1091433" lon="13.132155"><ele>400.0</ele><time>2026-04-26T09:45:09.513Z</time></trkpt><trkpt lat="43.1092033" lon="13.1321217"><ele>398.6666666666667</ele><time>2026-04-26T09:45:10.513Z</time></trkpt><trkpt lat="43.1092767" lon="13.1321167"><ele>397.33333333333337</ele><time>2026-04-26T09:45:11.513Z</time></trkpt><trkpt lat="43.109385" lon="13.1321133"><ele>396.0</ele><time>2026-04-26T09:45:13.514Z</time></trkpt><trkpt lat="43.109445" lon="13.1320533"><ele>394.66666666666663</ele><time>2026-04-26T09:45:15.513Z</time></trkpt><trkpt lat="43.1094783" lon="13.1319633"><ele>393.3333333333333</ele><time>2026-04-26T09:45:17.513Z</time></trkpt><trkpt lat="43.1095367" lon="13.1318967"><ele>392.0</ele><time>2026-04-26T09:45:19.513Z</time></trkpt><trkpt lat="43.109565" lon="13.13181"><ele>391.99999999999994</ele><time>2026-04-26T09:45:21.513Z</time></trkpt><trkpt lat="43.1095283" lon="13.1317317"><ele>392.0</ele><time>2026-04-26T09:45:23.513Z</time></trkpt><trkpt lat="43.1094333" lon="13.1317483"><ele>392.0</ele><time>2026-04-26T09:45:25.514Z</time></trkpt><trkpt lat="43.109365" lon="13.1317683"><ele>392.0</ele><time>2026-04-26T09:45:26.513Z</time></trkpt><trkpt lat="43.1092667" lon="13.1317733"><ele>391.99999999999994</ele><time>2026-04-26T09:45:28.513Z</time></trkpt><trkpt lat="43.10916" lon="13.1317217"><ele>392.0</ele><time>2026-04-26T09:45:30.514Z</time></trkpt><trkpt lat="43.1090883" lon="13.13166"><ele>390.66666666666663</ele><time>2026-04-26T09:45:31.513Z</time></trkpt><trkpt lat="43.10901" lon="13.1315867"><ele>389.3333333333333</ele><time>2026-04-26T09:45:32.513Z</time></trkpt><trkpt lat="43.1089383" lon="13.1315133"><ele>388.0</ele><time>2026-04-26T09:45:33.513Z</time></trkpt><trkpt lat="43.1088633" lon="13.1314567"><ele>386.66666666666663</ele><time>2026-04-26T09:45:34.513Z</time></trkpt><trkpt lat="43.108795" lon="13.131395"><ele>385.3333333333333</ele><time>2026-04-26T09:45:35.513Z</time></trkpt><trkpt lat="43.1087233" lon="13.1313383"><ele>384.0</ele><time>2026-04-26T09:45:36.513Z</time></trkpt><trkpt lat="43.108655" lon="13.1312883"><ele>380.5</ele><time>2026-04-26T09:45:37.513Z</time></trkpt><trkpt lat="43.1085933" lon="13.1312567"><ele>377.0</ele><time>2026-04-26T09:45:38.513Z</time></trkpt><trkpt lat="43.1084733" lon="13.1312767"><ele>373.5</ele><time>2026-04-26T09:45:40.513Z</time></trkpt><trkpt lat="43.1084117" lon="13.131325"><ele>370.0</ele><time>2026-04-26T09:45:41.514Z</time></trkpt><trkpt lat="43.1083567" lon="13.13138"><ele>366.5</ele><time>2026-04-26T09:45:42.513Z</time></trkpt><trkpt lat="43.1083083" lon="13.13144"><ele>363.0</ele><time>2026-04-26T09:45:43.513Z</time></trkpt><trkpt lat="43.1082567" lon="13.1315017"><ele>363.5</ele><time>2026-04-26T09:45:44.514Z</time></trkpt><trkpt lat="43.108145" lon="13.1315817"><ele>364.0</ele><time>2026-04-26T09:45:46.513Z</time></trkpt><trkpt lat="43.1080717" lon="13.1316"><ele>364.5</ele><time>2026-04-26T09:45:47.514Z</time></trkpt><trkpt lat="43.1080017" lon="13.1316233"><ele>365.0</ele><time>2026-04-26T09:45:48.513Z</time></trkpt><trkpt lat="43.10793" lon="13.1316683"><ele>365.5</ele><time>2026-04-26T09:45:49.513Z</time></trkpt><trkpt lat="43.10786" lon="13.1317133"><ele>366.0</ele><time>2026-04-26T09:45:50.513Z</time></trkpt><trkpt lat="43.1078" lon="13.1317583"><ele>366.0</ele><time>2026-04-26T09:45:51.513Z</time></trkpt><trkpt lat="43.1077383" lon="13.1318033"><ele>366.0</ele><time>2026-04-26T09:45:52.513Z</time></trkpt><trkpt lat="43.1076783" lon="13.1318433"><ele>366.0</ele><time>2026-04-26T09:45:53.513Z</time></trkpt><trkpt lat="43.1076167" lon="13.1318633"><ele>366.0</ele><time>2026-04-26T09:45:54.513Z</time></trkpt><trkpt lat="43.1075517" lon="13.1318767"><ele>366.0</ele><time>2026-04-26T09:45:55.513Z</time></trkpt><trkpt lat="43.1074867" lon="13.1318733"><ele>366.0</ele><time>2026-04-26T09:45:56.513Z</time></trkpt><trkpt lat="43.1074233" lon="13.13187"><ele>366.0</ele><time>2026-04-26T09:45:57.513Z</time></trkpt><trkpt lat="43.1073583" lon="13.131865"><ele>365.6666666666667</ele><time>2026-04-26T09:45:58.513Z</time></trkpt><trkpt lat="43.1072433" lon="13.1318583"><ele>365.3333333333333</ele><time>2026-04-26T09:46:00.513Z</time></trkpt><trkpt lat="43.1071383" lon="13.131875"><ele>365.0</ele><time>2026-04-26T09:46:02.513Z</time></trkpt><trkpt lat="43.1070717" lon="13.1318867"><ele>364.66666666666663</ele><time>2026-04-26T09:46:03.513Z</time></trkpt><trkpt lat="43.107005" lon="13.1318967"><ele>364.3333333333333</ele><time>2026-04-26T09:46:04.513Z</time></trkpt><trkpt lat="43.1069383" lon="13.1319017"><ele>364.0</ele><time>2026-04-26T09:46:05.513Z</time></trkpt><trkpt lat="43.1068717" lon="13.1318983"><ele>364.0</ele><time>2026-04-26T09:46:06.513Z</time></trkpt><trkpt lat="43.1068017" lon="13.13189"><ele>364.0</ele><time>2026-04-26T09:46:07.513Z</time></trkpt><trkpt lat="43.1067317" lon="13.1318667"><ele>364.0</ele><time>2026-04-26T09:46:08.513Z</time></trkpt><trkpt lat="43.10667" lon="13.1318367"><ele>364.0</ele><time>2026-04-26T09:46:09.513Z</time></trkpt><trkpt lat="43.1065633" lon="13.131795"><ele>364.0</ele><time>2026-04-26T09:46:11.513Z</time></trkpt><trkpt lat="43.1064783" lon="13.1317583"><ele>364.0</ele><time>2026-04-26T09:46:13.514Z</time></trkpt><trkpt lat="43.1064217" lon="13.13172"><ele>365.0</ele><time>2026-04-26T09:46:14.513Z</time></trkpt><trkpt lat="43.106315" lon="13.13168"><ele>366.0</ele><time>2026-04-26T09:46:16.513Z</time></trkpt><trkpt lat="43.1062117" lon="13.131655"><ele>367.0</ele><time>2026-04-26T09:46:18.513Z</time></trkpt><trkpt lat="43.106075" lon="13.1316233"><ele>368.0</ele><time>2026-04-26T09:46:20.513Z</time></trkpt><trkpt lat="43.105985" lon="13.1316017"><ele>369.0</ele><time>2026-04-26T09:46:21.513Z</time></trkpt><trkpt lat="43.1058933" lon="13.1315683"><ele>368.1666666666667</ele><time>2026-04-26T09:46:22.513Z</time></trkpt><trkpt lat="43.1058117" lon="13.131535"><ele>367.3333333333333</ele><time>2026-04-26T09:46:23.513Z</time></trkpt><trkpt lat="43.1057417" lon="13.131475"><ele>366.5</ele><time>2026-04-26T09:46:24.512Z</time></trkpt><trkpt lat="43.1056683" lon="13.1314233"><ele>365.66666666666663</ele><time>2026-04-26T09:46:25.512Z</time></trkpt><trkpt lat="43.10558" lon="13.1313917"><ele>364.8333333333333</ele><time>2026-04-26T09:46:26.512Z</time></trkpt><trkpt lat="43.10549" lon="13.1313633"><ele>364.0</ele><time>2026-04-26T09:46:27.512Z</time></trkpt><trkpt lat="43.1054033" lon="13.131335"><ele>364.0</ele><time>2026-04-26T09:46:28.512Z</time></trkpt><trkpt lat="43.1053317" lon="13.1313017"><ele>364.0</ele><time>2026-04-26T09:46:29.512Z</time></trkpt><trkpt lat="43.1052583" lon="13.1312617"><ele>364.0</ele><time>2026-04-26T09:46:30.513Z</time></trkpt><trkpt lat="43.1052017" lon="13.1312167"><ele>364.0</ele><time>2026-04-26T09:46:31.512Z</time></trkpt><trkpt lat="43.1051417" lon="13.1311567"><ele>364.0</ele><time>2026-04-26T09:46:32.512Z</time></trkpt><trkpt lat="43.1050833" lon="13.1310883"><ele>364.0</ele><time>2026-04-26T09:46:33.512Z</time></trkpt><trkpt lat="43.105025" lon="13.1310117"><ele>364.0</ele><time>2026-04-26T09:46:34.512Z</time></trkpt><trkpt lat="43.1049717" lon="13.13095"><ele>364.0</ele><time>2026-04-26T09:46:35.512Z</time></trkpt><trkpt lat="43.1049267" lon="13.1308883"><ele>364.0</ele><time>2026-04-26T09:46:36.513Z</time></trkpt><trkpt lat="43.1048567" lon="13.1307683"><ele>364.0</ele><time>2026-04-26T09:46:38.512Z</time></trkpt><trkpt lat="43.1047833" lon="13.1306717"><ele>364.0</ele><time>2026-04-26T09:46:40.512Z</time></trkpt><trkpt lat="43.104725" lon="13.1306317"><ele>364.0</ele><time>2026-04-26T09:46:41.513Z</time></trkpt><trkpt lat="43.1046683" lon="13.130585"><ele>364.16666666666663</ele><time>2026-04-26T09:46:42.512Z</time></trkpt><trkpt lat="43.10462" lon="13.1305133"><ele>364.3333333333333</ele><time>2026-04-26T09:46:43.512Z</time></trkpt><trkpt lat="43.1045667" lon="13.13042"><ele>364.5</ele><time>2026-04-26T09:46:44.512Z</time></trkpt><trkpt lat="43.1045183" lon="13.13031"><ele>364.6666666666667</ele><time>2026-04-26T09:46:45.512Z</time></trkpt><trkpt lat="43.1044667" lon="13.130205"><ele>364.83333333333337</ele><time>2026-04-26T09:46:46.513Z</time></trkpt><trkpt lat="43.1044267" lon="13.1301"><ele>365.0</ele><time>2026-04-26T09:46:47.512Z</time></trkpt><trkpt lat="43.10438" lon="13.130005"><ele>365.0</ele><time>2026-04-26T09:46:48.512Z</time></trkpt><trkpt lat="43.104335" lon="13.1299267"><ele>365.0</ele><time>2026-04-26T09:46:49.512Z</time></trkpt><trkpt lat="43.1042867" lon="13.1298683"><ele>365.0</ele><time>2026-04-26T09:46:50.512Z</time></trkpt><trkpt lat="43.1041717" lon="13.1298233"><ele>365.0</ele><time>2026-04-26T09:46:52.512Z</time></trkpt><trkpt lat="43.1040983" lon="13.1297883"><ele>365.0</ele><time>2026-04-26T09:46:53.512Z</time></trkpt><trkpt lat="43.1040333" lon="13.1297467"><ele>365.0</ele><time>2026-04-26T09:46:54.512Z</time></trkpt><trkpt lat="43.103965" lon="13.12972"><ele>363.8</ele><time>2026-04-26T09:46:55.512Z</time></trkpt><trkpt lat="43.1038917" lon="13.1297033"><ele>362.6</ele><time>2026-04-26T09:46:56.512Z</time></trkpt><trkpt lat="43.1037983" lon="13.1296867"><ele>361.4</ele><time>2026-04-26T09:46:57.512Z</time></trkpt><trkpt lat="43.1036983" lon="13.129675"><ele>360.2</ele><time>2026-04-26T09:46:58.513Z</time></trkpt><trkpt lat="43.1035883" lon="13.1296683"><ele>359.0</ele><time>2026-04-26T09:46:59.513Z</time></trkpt><trkpt lat="43.1034867" lon="13.1296783"><ele>359.0</ele><time>2026-04-26T09:47:00.512Z</time></trkpt><trkpt lat="43.10338" lon="13.1296633"><ele>359.0</ele><time>2026-04-26T09:47:01.512Z</time></trkpt><trkpt lat="43.1032767" lon="13.129645"><ele>359.0</ele><time>2026-04-26T09:47:02.513Z</time></trkpt><trkpt lat="43.1031667" lon="13.1296167"><ele>359.0</ele><time>2026-04-26T09:47:03.513Z</time></trkpt><trkpt lat="43.103055" lon="13.1295917"><ele>359.0</ele><time>2026-04-26T09:47:04.513Z</time></trkpt><trkpt lat="43.1029583" lon="13.1295767"><ele>359.33333333333337</ele><time>2026-04-26T09:47:05.512Z</time></trkpt><trkpt lat="43.1028733" lon="13.1295867"><ele>359.6666666666667</ele><time>2026-04-26T09:47:06.512Z</time></trkpt><trkpt lat="43.1028" lon="13.1296083"><ele>360.0</ele><time>2026-04-26T09:47:07.512Z</time></trkpt><trkpt lat="43.1027367" lon="13.1296533"><ele>360.3333333333333</ele><time>2026-04-26T09:47:08.512Z</time></trkpt><trkpt lat="43.1026833" lon="13.1297183"><ele>360.66666666666663</ele><time>2026-04-26T09:47:09.513Z</time></trkpt><trkpt lat="43.1025883" lon="13.129805"><ele>361.0</ele><time>2026-04-26T09:47:11.512Z</time></trkpt><trkpt lat="43.102525" lon="13.1298233"><ele>361.0</ele><time>2026-04-26T09:47:12.512Z</time></trkpt><trkpt lat="43.1024383" lon="13.1298233"><ele>361.0</ele><time>2026-04-26T09:47:13.512Z</time></trkpt><trkpt lat="43.1023517" lon="13.1298267"><ele>361.0</ele><time>2026-04-26T09:47:14.512Z</time></trkpt><trkpt lat="43.102265" lon="13.1298383"><ele>361.0</ele><time>2026-04-26T09:47:15.512Z</time></trkpt><trkpt lat="43.1021833" lon="13.12988"><ele>361.0</ele><time>2026-04-26T09:47:16.512Z</time></trkpt><trkpt lat="43.1021" lon="13.1299317"><ele>361.0</ele><time>2026-04-26T09:47:17.512Z</time></trkpt><trkpt lat="43.1020433" lon="13.13001"><ele>361.66666666666663</ele><time>2026-04-26T09:47:18.512Z</time></trkpt><trkpt lat="43.1020017" lon="13.1301"><ele>362.3333333333333</ele><time>2026-04-26T09:47:19.513Z</time></trkpt><trkpt lat="43.1019633" lon="13.1301767"><ele>363.0</ele><time>2026-04-26T09:47:20.512Z</time></trkpt><trkpt lat="43.10187" lon="13.1302767"><ele>363.6666666666667</ele><time>2026-04-26T09:47:22.512Z</time></trkpt><trkpt lat="43.1018083" lon="13.13031"><ele>364.33333333333337</ele><time>2026-04-26T09:47:23.512Z</time></trkpt><trkpt lat="43.101725" lon="13.1303233"><ele>365.0</ele><time>2026-04-26T09:47:24.512Z</time></trkpt><trkpt lat="43.101645" lon="13.1303617"><ele>364.0</ele><time>2026-04-26T09:47:25.512Z</time></trkpt><trkpt lat="43.1015683" lon="13.1304167"><ele>363.0</ele><time>2026-04-26T09:47:26.512Z</time></trkpt><trkpt lat="43.1014917" lon="13.1304733"><ele>362.0</ele><time>2026-04-26T09:47:27.512Z</time></trkpt><trkpt lat="43.1014167" lon="13.1305317"><ele>361.0</ele><time>2026-04-26T09:47:28.512Z</time></trkpt><trkpt lat="43.1013433" lon="13.1305717"><ele>360.0</ele><time>2026-04-26T09:47:29.512Z</time></trkpt><trkpt lat="43.101265" lon="13.1305917"><ele>359.0</ele><time>2026-04-26T09:47:30.512Z</time></trkpt><trkpt lat="43.1011767" lon="13.130605"><ele>359.0</ele><time>2026-04-26T09:47:31.512Z</time></trkpt><trkpt lat="43.10108" lon="13.1306317"><ele>359.0</ele><time>2026-04-26T09:47:32.513Z</time></trkpt><trkpt lat="43.1009683" lon="13.1306633"><ele>359.0</ele><time>2026-04-26T09:47:33.512Z</time></trkpt><trkpt lat="43.100855" lon="13.1306867"><ele>359.0</ele><time>2026-04-26T09:47:34.512Z</time></trkpt><trkpt lat="43.1007417" lon="13.1307133"><ele>359.0</ele><time>2026-04-26T09:47:35.513Z</time></trkpt><trkpt lat="43.10063" lon="13.1307283"><ele>359.79999999999995</ele><time>2026-04-26T09:47:36.512Z</time></trkpt><trkpt lat="43.1005317" lon="13.1307333"><ele>360.59999999999997</ele><time>2026-04-26T09:47:37.512Z</time></trkpt><trkpt lat="43.1004367" lon="13.1307367"><ele>361.4</ele><time>2026-04-26T09:47:38.512Z</time></trkpt><trkpt lat="43.1003433" lon="13.1307267"><ele>362.2</ele><time>2026-04-26T09:47:39.512Z</time></trkpt><trkpt lat="43.1002617" lon="13.1307133"><ele>363.0</ele><time>2026-04-26T09:47:40.512Z</time></trkpt><trkpt lat="43.1001767" lon="13.1307167"><ele>363.0</ele><time>2026-04-26T09:47:41.512Z</time></trkpt><trkpt lat="43.1000983" lon="13.13074"><ele>363.0</ele><time>2026-04-26T09:47:42.512Z</time></trkpt><trkpt lat="43.1000333" lon="13.1307583"><ele>363.0</ele><time>2026-04-26T09:47:43.513Z</time></trkpt><trkpt lat="43.0999367" lon="13.1307217"><ele>363.0</ele><time>2026-04-26T09:47:45.512Z</time></trkpt><trkpt lat="43.0998883" lon="13.1306633"><ele>363.0</ele><time>2026-04-26T09:47:46.512Z</time></trkpt><trkpt lat="43.0998467" lon="13.130575"><ele>363.0</ele><time>2026-04-26T09:47:47.512Z</time></trkpt><trkpt lat="43.0998183" lon="13.1304633"><ele>364.5</ele><time>2026-04-26T09:47:48.513Z</time></trkpt><trkpt lat="43.0997867" lon="13.1303433"><ele>366.0</ele><time>2026-04-26T09:47:49.512Z</time></trkpt><trkpt lat="43.09976" lon="13.1302383"><ele>367.5</ele><time>2026-04-26T09:47:50.512Z</time></trkpt><trkpt lat="43.09972" lon="13.1301633"><ele>369.0</ele><time>2026-04-26T09:47:51.512Z</time></trkpt><trkpt lat="43.0996667" lon="13.13009"><ele>370.5</ele><time>2026-04-26T09:47:52.512Z</time></trkpt><trkpt lat="43.0995833" lon="13.130045"><ele>372.0</ele><time>2026-04-26T09:47:53.512Z</time></trkpt><trkpt lat="43.0994967" lon="13.1300167"><ele>372.0</ele><time>2026-04-26T09:47:54.512Z</time></trkpt><trkpt lat="43.09942" lon="13.1300017"><ele>372.0</ele><time>2026-04-26T09:47:55.512Z</time></trkpt><trkpt lat="43.0993383" lon="13.1299817"><ele>372.0</ele><time>2026-04-26T09:47:56.512Z</time></trkpt><trkpt lat="43.099265" lon="13.1299533"><ele>372.0</ele><time>2026-04-26T09:47:57.512Z</time></trkpt><trkpt lat="43.0992067" lon="13.12992"><ele>372.0</ele><time>2026-04-26T09:47:58.513Z</time></trkpt><trkpt lat="43.099115" lon="13.1298583"><ele>372.0</ele><time>2026-04-26T09:48:00.513Z</time></trkpt><trkpt lat="43.09905" lon="13.1298067"><ele>371.8333333333333</ele><time>2026-04-26T09:48:17.513Z</time></trkpt><trkpt lat="43.0989867" lon="13.1297783"><ele>371.6666666666667</ele><time>2026-04-26T09:48:19.513Z</time></trkpt><trkpt lat="43.098905" lon="13.1297483"><ele>371.5</ele><time>2026-04-26T09:48:21.513Z</time></trkpt><trkpt lat="43.0988083" lon="13.1296933"><ele>371.33333333333337</ele><time>2026-04-26T09:48:23.512Z</time></trkpt><trkpt lat="43.0987017" lon="13.12967"><ele>371.1666666666667</ele><time>2026-04-26T09:48:25.513Z</time></trkpt><trkpt lat="43.0986383" lon="13.1296567"><ele>371.0</ele><time>2026-04-26T09:48:26.513Z</time></trkpt><trkpt lat="43.0985733" lon="13.1296333"><ele>371.0</ele><time>2026-04-26T09:48:27.512Z</time></trkpt><trkpt lat="43.0985083" lon="13.1295917"><ele>371.0</ele><time>2026-04-26T09:48:28.513Z</time></trkpt><trkpt lat="43.0984467" lon="13.1295367"><ele>371.0</ele><time>2026-04-26T09:48:29.512Z</time></trkpt><trkpt lat="43.09839" lon="13.1294733"><ele>371.0</ele><time>2026-04-26T09:48:30.512Z</time></trkpt><trkpt lat="43.0983333" lon="13.1294183"><ele>371.0</ele><time>2026-04-26T09:48:31.513Z</time></trkpt><trkpt lat="43.0982733" lon="13.1293583"><ele>371.0</ele><time>2026-04-26T09:48:32.512Z</time></trkpt><trkpt lat="43.098215" lon="13.129305"><ele>371.0</ele><time>2026-04-26T09:48:33.513Z</time></trkpt><trkpt lat="43.0981417" lon="13.1292033"><ele>371.20000000000005</ele><time>2026-04-26T09:48:35.513Z</time></trkpt><trkpt lat="43.0981033" lon="13.1290683"><ele>371.40000000000003</ele><time>2026-04-26T09:48:37.512Z</time></trkpt><trkpt lat="43.0980867" lon="13.1289717"><ele>371.6</ele><time>2026-04-26T09:48:38.512Z</time></trkpt><trkpt lat="43.0980717" lon="13.1288633"><ele>371.8</ele><time>2026-04-26T09:48:39.512Z</time></trkpt><trkpt lat="43.0980467" lon="13.12874"><ele>372.0</ele><time>2026-04-26T09:48:40.512Z</time></trkpt><trkpt lat="43.0980283" lon="13.128605"><ele>372.0</ele><time>2026-04-26T09:48:41.513Z</time></trkpt><trkpt lat="43.09802" lon="13.128485"><ele>372.0</ele><time>2026-04-26T09:48:42.513Z</time></trkpt><trkpt lat="43.09802" lon="13.1283717"><ele>372.0</ele><time>2026-04-26T09:48:43.513Z</time></trkpt><trkpt lat="43.098025" lon="13.1282633"><ele>372.0</ele><time>2026-04-26T09:48:44.512Z</time></trkpt><trkpt lat="43.0980283" lon="13.1281567"><ele>372.0</ele><time>2026-04-26T09:48:45.512Z</time></trkpt><trkpt lat="43.0980267" lon="13.1280533"><ele>372.0</ele><time>2026-04-26T09:48:46.513Z</time></trkpt><trkpt lat="43.0980317" lon="13.1279633"><ele>371.75</ele><time>2026-04-26T09:48:47.512Z</time></trkpt><trkpt lat="43.098045" lon="13.127805"><ele>371.5</ele><time>2026-04-26T09:48:49.512Z</time></trkpt><trkpt lat="43.09805" lon="13.1276533"><ele>371.25</ele><time>2026-04-26T09:48:51.513Z</time></trkpt><trkpt lat="43.0980433" lon="13.1274983"><ele>371.0</ele><time>2026-04-26T09:48:53.513Z</time></trkpt><trkpt lat="43.0980217" lon="13.12735"><ele>370.6666666666667</ele><time>2026-04-26T09:48:55.512Z</time></trkpt><trkpt lat="43.09801" lon="13.1272617"><ele>370.33333333333337</ele><time>2026-04-26T09:48:56.512Z</time></trkpt><trkpt lat="43.0979983" lon="13.1271583"><ele>370.0</ele><time>2026-04-26T09:48:57.512Z</time></trkpt><trkpt lat="43.098" lon="13.1270433"><ele>369.6666666666667</ele><time>2026-04-26T09:48:58.512Z</time></trkpt><trkpt lat="43.0980083" lon="13.1269333"><ele>369.3333333333333</ele><time>2026-04-26T09:48:59.512Z</time></trkpt><trkpt lat="43.0980167" lon="13.12684"><ele>369.0</ele><time>2026-04-26T09:49:00.512Z</time></trkpt><trkpt lat="43.09804" lon="13.1266767"><ele>369.0</ele><time>2026-04-26T09:49:02.512Z</time></trkpt><trkpt lat="43.0980617" lon="13.1265817"><ele>369.0</ele><time>2026-04-26T09:49:03.512Z</time></trkpt><trkpt lat="43.0980883" lon="13.1264867"><ele>369.0</ele><time>2026-04-26T09:49:04.513Z</time></trkpt><trkpt lat="43.0981267" lon="13.1263933"><ele>369.0</ele><time>2026-04-26T09:49:05.512Z</time></trkpt><trkpt lat="43.0981767" lon="13.1263167"><ele>369.0</ele><time>2026-04-26T09:49:06.512Z</time></trkpt><trkpt lat="43.0982333" lon="13.1262617"><ele>369.0</ele><time>2026-04-26T09:49:07.513Z</time></trkpt><trkpt lat="43.0982917" lon="13.1262283"><ele>369.0</ele><time>2026-04-26T09:49:08.512Z</time></trkpt><trkpt lat="43.098355" lon="13.12621"><ele>368.79999999999995</ele><time>2026-04-26T09:49:09.512Z</time></trkpt><trkpt lat="43.0984517" lon="13.1261933"><ele>368.59999999999997</ele><time>2026-04-26T09:49:11.512Z</time></trkpt><trkpt lat="43.0984933" lon="13.12612"><ele>368.4</ele><time>2026-04-26T09:49:14.512Z</time></trkpt><trkpt lat="43.0984033" lon="13.1260433"><ele>368.2</ele><time>2026-04-26T09:49:16.512Z</time></trkpt><trkpt lat="43.098315" lon="13.125995"><ele>368.0</ele><time>2026-04-26T09:49:17.512Z</time></trkpt><trkpt lat="43.0981983" lon="13.1259333"><ele>368.0</ele><time>2026-04-26T09:49:18.512Z</time></trkpt><trkpt lat="43.09808" lon="13.1258667"><ele>368.0</ele><time>2026-04-26T09:49:19.512Z</time></trkpt><trkpt lat="43.097975" lon="13.1258017"><ele>368.0</ele><time>2026-04-26T09:49:20.512Z</time></trkpt><trkpt lat="43.0978833" lon="13.1257367"><ele>368.0</ele><time>2026-04-26T09:49:21.512Z</time></trkpt><trkpt lat="43.0977917" lon="13.125695"><ele>368.0</ele><time>2026-04-26T09:49:22.512Z</time></trkpt><trkpt lat="43.0976983" lon="13.125685"><ele>368.0</ele><time>2026-04-26T09:49:23.512Z</time></trkpt><trkpt lat="43.0976017" lon="13.1257083"><ele>368.0</ele><time>2026-04-26T09:49:24.512Z</time></trkpt><trkpt lat="43.09753" lon="13.12576"><ele>368.0</ele><time>2026-04-26T09:49:25.512Z</time></trkpt><trkpt lat="43.0974733" lon="13.1258183"><ele>368.0</ele><time>2026-04-26T09:49:26.512Z</time></trkpt><trkpt lat="43.0973917" lon="13.1259117"><ele>368.0</ele><time>2026-04-26T09:49:28.512Z</time></trkpt><trkpt lat="43.097465" lon="13.1259217"><ele>368.0</ele><time>2026-04-26T09:49:32.512Z</time></trkpt><trkpt lat="43.0975733" lon="13.1258067"><ele>368.0</ele><time>2026-04-26T09:49:34.513Z</time></trkpt><trkpt lat="43.09764" lon="13.125755"><ele>368.0</ele><time>2026-04-26T09:49:35.512Z</time></trkpt><trkpt lat="43.0977183" lon="13.12573"><ele>368.0</ele><time>2026-04-26T09:49:36.512Z</time></trkpt><trkpt lat="43.0978033" lon="13.1257233"><ele>368.0</ele><time>2026-04-26T09:49:37.512Z</time></trkpt><trkpt lat="43.0978883" lon="13.1257567"><ele>368.0</ele><time>2026-04-26T09:49:38.512Z</time></trkpt><trkpt lat="43.0979817" lon="13.125815"><ele>368.0</ele><time>2026-04-26T09:49:39.512Z</time></trkpt><trkpt lat="43.0980833" lon="13.125885"><ele>368.0</ele><time>2026-04-26T09:49:40.512Z</time></trkpt><trkpt lat="43.0981867" lon="13.12595"><ele>368.0</ele><time>2026-04-26T09:49:41.512Z</time></trkpt><trkpt lat="43.098295" lon="13.1260167"><ele>368.0</ele><time>2026-04-26T09:49:42.513Z</time></trkpt><trkpt lat="43.0984117" lon="13.1260833"><ele>368.0</ele><time>2026-04-26T09:49:43.512Z</time></trkpt><trkpt lat="43.0985417" lon="13.12616"><ele>367.0</ele><time>2026-04-26T09:49:44.512Z</time></trkpt><trkpt lat="43.098665" lon="13.1262367"><ele>366.0</ele><time>2026-04-26T09:49:45.512Z</time></trkpt><trkpt lat="43.0987867" lon="13.1262933"><ele>365.0</ele><time>2026-04-26T09:49:46.512Z</time></trkpt><trkpt lat="43.0988983" lon="13.126345"><ele>364.0</ele><time>2026-04-26T09:49:47.512Z</time></trkpt><trkpt lat="43.0990083" lon="13.12638"><ele>365.0</ele><time>2026-04-26T09:49:48.513Z</time></trkpt><trkpt lat="43.099115" lon="13.126405"><ele>366.0</ele><time>2026-04-26T09:49:49.512Z</time></trkpt><trkpt lat="43.0992233" lon="13.1264017"><ele>367.0</ele><time>2026-04-26T09:49:50.512Z</time></trkpt><trkpt lat="43.0993367" lon="13.1263767"><ele>368.0</ele><time>2026-04-26T09:49:51.512Z</time></trkpt><trkpt lat="43.099445" lon="13.1263267"><ele>369.0</ele><time>2026-04-26T09:49:52.512Z</time></trkpt><trkpt lat="43.099545" lon="13.1262767"><ele>369.0</ele><time>2026-04-26T09:49:53.513Z</time></trkpt><trkpt lat="43.099625" lon="13.12624"><ele>369.0</ele><time>2026-04-26T09:49:54.512Z</time></trkpt><trkpt lat="43.0996867" lon="13.126215"><ele>369.0</ele><time>2026-04-26T09:49:55.513Z</time></trkpt><trkpt lat="43.0997717" lon="13.1261133"><ele>369.0</ele><time>2026-04-26T09:50:03.512Z</time></trkpt><trkpt lat="43.0997217" lon="13.1259383"><ele>369.0</ele><time>2026-04-26T09:50:05.512Z</time></trkpt><trkpt lat="43.0996467" lon="13.1258233"><ele>370.75</ele><time>2026-04-26T09:50:06.512Z</time></trkpt><trkpt lat="43.09957" lon="13.125675"><ele>372.5</ele><time>2026-04-26T09:50:07.512Z</time></trkpt><trkpt lat="43.09951" lon="13.1255033"><ele>374.25</ele><time>2026-04-26T09:50:08.512Z</time></trkpt><trkpt lat="43.0994733" lon="13.1253117"><ele>376.0</ele><time>2026-04-26T09:50:09.512Z</time></trkpt><trkpt lat="43.0994367" lon="13.1251267"><ele>376.0</ele><time>2026-04-26T09:50:10.512Z</time></trkpt><trkpt lat="43.0994267" lon="13.1249283"><ele>376.0</ele><time>2026-04-26T09:50:11.512Z</time></trkpt><trkpt lat="43.0993817" lon="13.1247717"><ele>376.0</ele><time>2026-04-26T09:50:12.512Z</time></trkpt><trkpt lat="43.0992967" lon="13.12464"><ele>376.0</ele><time>2026-04-26T09:50:13.513Z</time></trkpt><trkpt lat="43.0991883" lon="13.1245133"><ele>376.3333333333333</ele><time>2026-04-26T09:50:14.513Z</time></trkpt><trkpt lat="43.0990633" lon="13.1243817"><ele>376.6666666666667</ele><time>2026-04-26T09:50:15.512Z</time></trkpt><trkpt lat="43.0989267" lon="13.124255"><ele>377.0</ele><time>2026-04-26T09:50:16.513Z</time></trkpt><trkpt lat="43.0987833" lon="13.1241283"><ele>382.6666666666667</ele><time>2026-04-26T09:50:17.512Z</time></trkpt><trkpt lat="43.0986367" lon="13.1239883"><ele>388.33333333333337</ele><time>2026-04-26T09:50:18.512Z</time></trkpt><trkpt lat="43.0984833" lon="13.1238467"><ele>394.0</ele><time>2026-04-26T09:50:19.512Z</time></trkpt><trkpt lat="43.098335" lon="13.1237"><ele>388.6666666666667</ele><time>2026-04-26T09:50:20.512Z</time></trkpt><trkpt lat="43.0981683" lon="13.1235483"><ele>383.33333333333337</ele><time>2026-04-26T09:50:21.512Z</time></trkpt><trkpt lat="43.0979967" lon="13.1233933"><ele>378.0</ele><time>2026-04-26T09:50:22.512Z</time></trkpt><trkpt lat="43.0978267" lon="13.1232333"><ele>381.33333333333337</ele><time>2026-04-26T09:50:23.513Z</time></trkpt><trkpt lat="43.09766" lon="13.12308"><ele>384.6666666666667</ele><time>2026-04-26T09:50:24.512Z</time></trkpt><trkpt lat="43.097505" lon="13.1229433"><ele>388.0</ele><time>2026-04-26T09:50:25.513Z</time></trkpt><trkpt lat="43.0973733" lon="13.122825"><ele>388.0</ele><time>2026-04-26T09:50:26.513Z</time></trkpt><trkpt lat="43.0972467" lon="13.1227367"><ele>388.0</ele><time>2026-04-26T09:50:27.513Z</time></trkpt><trkpt lat="43.097105" lon="13.1226833"><ele>388.0</ele><time>2026-04-26T09:50:28.513Z</time></trkpt><trkpt lat="43.096935" lon="13.12266"><ele>388.0</ele><time>2026-04-26T09:50:29.512Z</time></trkpt><trkpt lat="43.0967633" lon="13.122645"><ele>388.0</ele><time>2026-04-26T09:50:30.512Z</time></trkpt><trkpt lat="43.0965767" lon="13.12265"><ele>388.0</ele><time>2026-04-26T09:50:31.512Z</time></trkpt><trkpt lat="43.0963583" lon="13.1226733"><ele>385.33333333333337</ele><time>2026-04-26T09:50:32.512Z</time></trkpt><trkpt lat="43.0961367" lon="13.12269"><ele>382.6666666666667</ele><time>2026-04-26T09:50:33.512Z</time></trkpt><trkpt lat="43.0959117" lon="13.1226883"><ele>380.0</ele><time>2026-04-26T09:50:34.513Z</time></trkpt><trkpt lat="43.0956967" lon="13.1226767"><ele>378.6666666666667</ele><time>2026-04-26T09:50:35.512Z</time></trkpt><trkpt lat="43.0954833" lon="13.12265"><ele>377.3333333333333</ele><time>2026-04-26T09:50:36.512Z</time></trkpt><trkpt lat="43.095275" lon="13.1225983"><ele>376.0</ele><time>2026-04-26T09:50:37.512Z</time></trkpt><trkpt lat="43.0950717" lon="13.1225317"><ele>375.3333333333333</ele><time>2026-04-26T09:50:38.513Z</time></trkpt><trkpt lat="43.0948683" lon="13.1224517"><ele>374.6666666666667</ele><time>2026-04-26T09:50:39.513Z</time></trkpt><trkpt lat="43.0946717" lon="13.12235"><ele>374.0</ele><time>2026-04-26T09:50:40.512Z</time></trkpt><trkpt lat="43.0944767" lon="13.1222417"><ele>376.0</ele><time>2026-04-26T09:50:41.513Z</time></trkpt><trkpt lat="43.0943" lon="13.1221217"><ele>378.0</ele><time>2026-04-26T09:50:42.512Z</time></trkpt><trkpt lat="43.094125" lon="13.1219933"><ele>380.0</ele><time>2026-04-26T09:50:43.512Z</time></trkpt><trkpt lat="43.0939467" lon="13.12186"><ele>380.0</ele><time>2026-04-26T09:50:44.512Z</time></trkpt><trkpt lat="43.0937767" lon="13.1217217"><ele>380.0</ele><time>2026-04-26T09:50:45.512Z</time></trkpt><trkpt lat="43.0935983" lon="13.1215767"><ele>380.0</ele><time>2026-04-26T09:50:46.512Z</time></trkpt><trkpt lat="43.0934117" lon="13.1214317"><ele>380.0</ele><time>2026-04-26T09:50:47.513Z</time></trkpt><trkpt lat="43.0932233" lon="13.12129"><ele>380.0</ele><time>2026-04-26T09:50:48.512Z</time></trkpt><trkpt lat="43.0930367" lon="13.12115"><ele>380.0</ele><time>2026-04-26T09:50:49.513Z</time></trkpt><trkpt lat="43.0928667" lon="13.1210167"><ele>380.0</ele><time>2026-04-26T09:50:50.512Z</time></trkpt><trkpt lat="43.0927117" lon="13.1208933"><ele>380.0</ele><time>2026-04-26T09:50:51.512Z</time></trkpt><trkpt lat="43.0925817" lon="13.12078"><ele>380.0</ele><time>2026-04-26T09:50:52.512Z</time></trkpt><trkpt lat="43.0924633" lon="13.120675"><ele>379.25</ele><time>2026-04-26T09:50:53.512Z</time></trkpt><trkpt lat="43.092365" lon="13.1205567"><ele>378.5</ele><time>2026-04-26T09:50:54.512Z</time></trkpt><trkpt lat="43.0922817" lon="13.120415"><ele>377.75</ele><time>2026-04-26T09:50:55.512Z</time></trkpt><trkpt lat="43.09222" lon="13.1202467"><ele>377.0</ele><time>2026-04-26T09:50:56.512Z</time></trkpt><trkpt lat="43.09218" lon="13.120065"><ele>376.75</ele><time>2026-04-26T09:50:57.512Z</time></trkpt><trkpt lat="43.0921483" lon="13.1198667"><ele>376.5</ele><time>2026-04-26T09:50:58.512Z</time></trkpt><trkpt lat="43.09213" lon="13.119675"><ele>376.25</ele><time>2026-04-26T09:50:59.513Z</time></trkpt><trkpt lat="43.092125" lon="13.1194717"><ele>376.0</ele><time>2026-04-26T09:51:00.513Z</time></trkpt><trkpt lat="43.09211" lon="13.1192767"><ele>376.0</ele><time>2026-04-26T09:51:01.512Z</time></trkpt><trkpt lat="43.0920867" lon="13.119105"><ele>376.0</ele><time>2026-04-26T09:51:02.512Z</time></trkpt><trkpt lat="43.0920483" lon="13.118935"><ele>376.0</ele><time>2026-04-26T09:51:03.512Z</time></trkpt><trkpt lat="43.09199" lon="13.1187683"><ele>376.0</ele><time>2026-04-26T09:51:04.512Z</time></trkpt><trkpt lat="43.0919117" lon="13.1186033"><ele>376.6</ele><time>2026-04-26T09:51:05.512Z</time></trkpt><trkpt lat="43.0918517" lon="13.1184467"><ele>377.20000000000005</ele><time>2026-04-26T09:51:06.513Z</time></trkpt><trkpt lat="43.091785" lon="13.1183183"><ele>377.79999999999995</ele><time>2026-04-26T09:51:07.512Z</time></trkpt><trkpt lat="43.0917383" lon="13.11821"><ele>378.4</ele><time>2026-04-26T09:51:08.512Z</time></trkpt><trkpt lat="43.0917033" lon="13.11813"><ele>379.0</ele><time>2026-04-26T09:51:09.512Z</time></trkpt><trkpt lat="43.0916167" lon="13.1181"><ele>379.0</ele><time>2026-04-26T09:51:11.513Z</time></trkpt><trkpt lat="43.0915267" lon="13.1181917"><ele>379.0</ele><time>2026-04-26T09:51:13.513Z</time></trkpt><trkpt lat="43.0914683" lon="13.1182783"><ele>379.0</ele><time>2026-04-26T09:51:14.512Z</time></trkpt><trkpt lat="43.0913783" lon="13.1183867"><ele>379.0</ele><time>2026-04-26T09:51:15.512Z</time></trkpt><trkpt lat="43.09125" lon="13.1185167"><ele>378.3333333333333</ele><time>2026-04-26T09:51:16.512Z</time></trkpt><trkpt lat="43.0911183" lon="13.11867"><ele>377.6666666666667</ele><time>2026-04-26T09:51:17.512Z</time></trkpt><trkpt lat="43.090945" lon="13.1188483"><ele>377.0</ele><time>2026-04-26T09:51:18.513Z</time></trkpt><trkpt lat="43.0907583" lon="13.11903"><ele>379.33333333333337</ele><time>2026-04-26T09:51:19.512Z</time></trkpt><trkpt lat="43.09058" lon="13.1192017"><ele>381.6666666666667</ele><time>2026-04-26T09:51:20.512Z</time></trkpt><trkpt lat="43.0903983" lon="13.1193783"><ele>384.0</ele><time>2026-04-26T09:51:21.512Z</time></trkpt><trkpt lat="43.090225" lon="13.1195367"><ele>384.0</ele><time>2026-04-26T09:51:22.512Z</time></trkpt><trkpt lat="43.090065" lon="13.1196933"><ele>384.0</ele><time>2026-04-26T09:51:23.512Z</time></trkpt><trkpt lat="43.0899283" lon="13.1198383"><ele>384.0</ele><time>2026-04-26T09:51:24.512Z</time></trkpt><trkpt lat="43.0898033" lon="13.1199567"><ele>385.2</ele><time>2026-04-26T09:51:25.512Z</time></trkpt><trkpt lat="43.0897" lon="13.1200583"><ele>386.4</ele><time>2026-04-26T09:51:26.512Z</time></trkpt><trkpt lat="43.0896083" lon="13.1201467"><ele>387.6</ele><time>2026-04-26T09:51:27.512Z</time></trkpt><trkpt lat="43.0895433" lon="13.1202117"><ele>388.8</ele><time>2026-04-26T09:51:28.512Z</time></trkpt><trkpt lat="43.0894467" lon="13.1202283"><ele>390.0</ele><time>2026-04-26T09:51:30.512Z</time></trkpt><trkpt lat="43.0893683" lon="13.1200717"><ele>389.0</ele><time>2026-04-26T09:51:32.512Z</time></trkpt><trkpt lat="43.0893217" lon="13.1199"><ele>388.0</ele><time>2026-04-26T09:51:33.512Z</time></trkpt><trkpt lat="43.08925" lon="13.1196467"><ele>387.0</ele><time>2026-04-26T09:51:34.512Z</time></trkpt><trkpt lat="43.08913" lon="13.11935"><ele>388.5</ele><time>2026-04-26T09:51:35.513Z</time></trkpt><trkpt lat="43.088965" lon="13.1190467"><ele>390.0</ele><time>2026-04-26T09:51:36.512Z</time></trkpt><trkpt lat="43.088795" lon="13.1187683"><ele>390.0</ele><time>2026-04-26T09:51:37.512Z</time></trkpt><trkpt lat="43.0886067" lon="13.1185017"><ele>390.0</ele><time>2026-04-26T09:51:38.512Z</time></trkpt><trkpt lat="43.0884083" lon="13.11823"><ele>393.0</ele><time>2026-04-26T09:51:39.512Z</time></trkpt><trkpt lat="43.08822" lon="13.11794"><ele>396.0</ele><time>2026-04-26T09:51:40.512Z</time></trkpt><trkpt lat="43.088045" lon="13.1176483"><ele>395.0</ele><time>2026-04-26T09:51:41.512Z</time></trkpt><trkpt lat="43.08789" lon="13.11736"><ele>394.0</ele><time>2026-04-26T09:51:42.512Z</time></trkpt><trkpt lat="43.0877417" lon="13.117085"><ele>394.0</ele><time>2026-04-26T09:51:43.512Z</time></trkpt><trkpt lat="43.0875867" lon="13.11681"><ele>394.0</ele><time>2026-04-26T09:51:44.512Z</time></trkpt><trkpt lat="43.0874267" lon="13.11652"><ele>398.5</ele><time>2026-04-26T09:51:45.512Z</time></trkpt><trkpt lat="43.0872583" lon="13.1162483"><ele>403.0</ele><time>2026-04-26T09:51:46.512Z</time></trkpt><trkpt lat="43.0871017" lon="13.1159917"><ele>403.0</ele><time>2026-04-26T09:51:47.512Z</time></trkpt><trkpt lat="43.0869483" lon="13.1157383"><ele>403.0</ele><time>2026-04-26T09:51:48.512Z</time></trkpt><trkpt lat="43.0868117" lon="13.115485"><ele>401.33333333333337</ele><time>2026-04-26T09:51:49.512Z</time></trkpt><trkpt lat="43.086725" lon="13.115255"><ele>399.66666666666663</ele><time>2026-04-26T09:51:50.512Z</time></trkpt><trkpt lat="43.0866683" lon="13.1150367"><ele>398.0</ele><time>2026-04-26T09:51:51.513Z</time></trkpt><trkpt lat="43.086635" lon="13.1148183"><ele>404.3333333333333</ele><time>2026-04-26T09:51:52.513Z</time></trkpt><trkpt lat="43.0865933" lon="13.1145967"><ele>410.66666666666663</ele><time>2026-04-26T09:51:53.513Z</time></trkpt><trkpt lat="43.086535" lon="13.1143817"><ele>417.0</ele><time>2026-04-26T09:51:54.512Z</time></trkpt><trkpt lat="43.0864533" lon="13.11418"><ele>416.0</ele><time>2026-04-26T09:51:55.512Z</time></trkpt><trkpt lat="43.0863567" lon="13.11398"><ele>415.0</ele><time>2026-04-26T09:51:56.512Z</time></trkpt><trkpt lat="43.0862533" lon="13.1137817"><ele>414.0</ele><time>2026-04-26T09:51:57.512Z</time></trkpt><trkpt lat="43.0861683" lon="13.1135867"><ele>414.0</ele><time>2026-04-26T09:51:58.512Z</time></trkpt><trkpt lat="43.0861033" lon="13.1133917"><ele>414.0</ele><time>2026-04-26T09:51:59.513Z</time></trkpt><trkpt lat="43.0860667" lon="13.1131917"><ele>414.0</ele><time>2026-04-26T09:52:00.512Z</time></trkpt><trkpt lat="43.0860433" lon="13.113"><ele>414.0</ele><time>2026-04-26T09:52:01.512Z</time></trkpt><trkpt lat="43.0860067" lon="13.1128183"><ele>414.5</ele><time>2026-04-26T09:52:02.512Z</time></trkpt><trkpt lat="43.0859483" lon="13.1126517"><ele>415.0</ele><time>2026-04-26T09:52:03.512Z</time></trkpt><trkpt lat="43.085865" lon="13.1124817"><ele>415.5</ele><time>2026-04-26T09:52:04.512Z</time></trkpt><trkpt lat="43.0857717" lon="13.112315"><ele>416.0</ele><time>2026-04-26T09:52:05.513Z</time></trkpt><trkpt lat="43.08568" lon="13.11215"><ele>416.0</ele><time>2026-04-26T09:52:06.512Z</time></trkpt><trkpt lat="43.08558" lon="13.112005"><ele>416.0</ele><time>2026-04-26T09:52:07.513Z</time></trkpt><trkpt lat="43.0854717" lon="13.1118833"><ele>416.0</ele><time>2026-04-26T09:52:08.512Z</time></trkpt><trkpt lat="43.0853483" lon="13.111775"><ele>416.0</ele><time>2026-04-26T09:52:09.512Z</time></trkpt><trkpt lat="43.0852167" lon="13.1116767"><ele>416.0</ele><time>2026-04-26T09:52:10.513Z</time></trkpt><trkpt lat="43.0850783" lon="13.11159"><ele>416.0</ele><time>2026-04-26T09:52:11.512Z</time></trkpt><trkpt lat="43.0849333" lon="13.1115067"><ele>416.0</ele><time>2026-04-26T09:52:12.512Z</time></trkpt><trkpt lat="43.0848233" lon="13.1113967"><ele>416.0</ele><time>2026-04-26T09:52:13.512Z</time></trkpt><trkpt lat="43.08471" lon="13.1112617"><ele>417.3333333333333</ele><time>2026-04-26T09:52:14.512Z</time></trkpt><trkpt lat="43.0846117" lon="13.1110967"><ele>418.66666666666663</ele><time>2026-04-26T09:52:15.512Z</time></trkpt><trkpt lat="43.08452" lon="13.1108783"><ele>420.0</ele><time>2026-04-26T09:52:16.512Z</time></trkpt><trkpt lat="43.0844133" lon="13.11063"><ele>416.66666666666663</ele><time>2026-04-26T09:52:17.512Z</time></trkpt><trkpt lat="43.084295" lon="13.1103817"><ele>413.3333333333333</ele><time>2026-04-26T09:52:18.512Z</time></trkpt><trkpt lat="43.0841683" lon="13.1101217"><ele>410.0</ele><time>2026-04-26T09:52:19.513Z</time></trkpt><trkpt lat="43.0840483" lon="13.1098767"><ele>419.3333333333333</ele><time>2026-04-26T09:52:20.512Z</time></trkpt><trkpt lat="43.08394" lon="13.1096517"><ele>428.66666666666663</ele><time>2026-04-26T09:52:21.512Z</time></trkpt><trkpt lat="43.0838617" lon="13.109455"><ele>438.0</ele><time>2026-04-26T09:52:22.512Z</time></trkpt><trkpt lat="43.0837983" lon="13.10927"><ele>438.0</ele><time>2026-04-26T09:52:23.512Z</time></trkpt><trkpt lat="43.0837583" lon="13.10909"><ele>438.0</ele><time>2026-04-26T09:52:24.512Z</time></trkpt><trkpt lat="43.0837383" lon="13.1089083"><ele>438.0</ele><time>2026-04-26T09:52:25.513Z</time></trkpt><trkpt lat="43.0837667" lon="13.1087233"><ele>438.0</ele><time>2026-04-26T09:52:26.512Z</time></trkpt><trkpt lat="43.083825" lon="13.1085517"><ele>438.5</ele><time>2026-04-26T09:52:27.512Z</time></trkpt><trkpt lat="43.0838833" lon="13.1083717"><ele>439.0</ele><time>2026-04-26T09:52:28.512Z</time></trkpt><trkpt lat="43.08392" lon="13.1082117"><ele>439.5</ele><time>2026-04-26T09:52:29.513Z</time></trkpt><trkpt lat="43.0839217" lon="13.1080417"><ele>440.0</ele><time>2026-04-26T09:52:30.512Z</time></trkpt><trkpt lat="43.0838867" lon="13.1078667"><ele>440.0</ele><time>2026-04-26T09:52:31.512Z</time></trkpt><trkpt lat="43.0838333" lon="13.1076683"><ele>440.0</ele><time>2026-04-26T09:52:32.512Z</time></trkpt><trkpt lat="43.083775" lon="13.1074667"><ele>440.0</ele><time>2026-04-26T09:52:33.512Z</time></trkpt><trkpt lat="43.0836983" lon="13.1072833"><ele>433.3333333333333</ele><time>2026-04-26T09:52:34.512Z</time></trkpt><trkpt lat="43.0836217" lon="13.107095"><ele>426.66666666666663</ele><time>2026-04-26T09:52:35.513Z</time></trkpt><trkpt lat="43.083525" lon="13.1068983"><ele>420.0</ele><time>2026-04-26T09:52:36.512Z</time></trkpt><trkpt lat="43.0833933" lon="13.1066933"><ele>421.33333333333337</ele><time>2026-04-26T09:52:37.512Z</time></trkpt><trkpt lat="43.08325" lon="13.106485"><ele>422.6666666666667</ele><time>2026-04-26T09:52:38.512Z</time></trkpt><trkpt lat="43.0831067" lon="13.1062867"><ele>424.0</ele><time>2026-04-26T09:52:39.512Z</time></trkpt><trkpt lat="43.08296" lon="13.1061017"><ele>424.0</ele><time>2026-04-26T09:52:40.513Z</time></trkpt><trkpt lat="43.0827933" lon="13.10594"><ele>424.0</ele><time>2026-04-26T09:52:41.512Z</time></trkpt><trkpt lat="43.0826333" lon="13.10578"><ele>424.0</ele><time>2026-04-26T09:52:42.513Z</time></trkpt><trkpt lat="43.0824817" lon="13.1056467"><ele>424.6666666666667</ele><time>2026-04-26T09:52:43.512Z</time></trkpt><trkpt lat="43.0823183" lon="13.1055433"><ele>425.33333333333337</ele><time>2026-04-26T09:52:44.512Z</time></trkpt><trkpt lat="43.08215" lon="13.1054617"><ele>426.0</ele><time>2026-04-26T09:52:45.512Z</time></trkpt><trkpt lat="43.0820067" lon="13.105405"><ele>426.0</ele><time>2026-04-26T09:52:46.512Z</time></trkpt><trkpt lat="43.0818783" lon="13.105355"><ele>426.0</ele><time>2026-04-26T09:52:47.512Z</time></trkpt><trkpt lat="43.0817583" lon="13.1052733"><ele>426.0</ele><time>2026-04-26T09:52:48.512Z</time></trkpt><trkpt lat="43.08166" lon="13.1051533"><ele>426.0</ele><time>2026-04-26T09:52:49.512Z</time></trkpt><trkpt lat="43.08158" lon="13.1050083"><ele>431.66666666666663</ele><time>2026-04-26T09:52:50.512Z</time></trkpt><trkpt lat="43.0815283" lon="13.1048083"><ele>437.3333333333333</ele><time>2026-04-26T09:52:51.512Z</time></trkpt><trkpt lat="43.0814817" lon="13.104575"><ele>443.0</ele><time>2026-04-26T09:52:52.512Z</time></trkpt><trkpt lat="43.0814367" lon="13.1043333"><ele>441.3333333333333</ele><time>2026-04-26T09:52:53.513Z</time></trkpt><trkpt lat="43.081385" lon="13.104065"><ele>439.66666666666663</ele><time>2026-04-26T09:52:54.512Z</time></trkpt><trkpt lat="43.0813367" lon="13.10382"><ele>438.0</ele><time>2026-04-26T09:52:55.512Z</time></trkpt><trkpt lat="43.0812817" lon="13.1036083"><ele>438.0</ele><time>2026-04-26T09:52:56.512Z</time></trkpt><trkpt lat="43.0812033" lon="13.1034133"><ele>438.0</ele><time>2026-04-26T09:52:57.512Z</time></trkpt><trkpt lat="43.0811017" lon="13.10322"><ele>438.0</ele><time>2026-04-26T09:52:58.512Z</time></trkpt><trkpt lat="43.0809867" lon="13.1030333"><ele>434.66666666666663</ele><time>2026-04-26T09:52:59.512Z</time></trkpt><trkpt lat="43.08088" lon="13.1028467"><ele>431.3333333333333</ele><time>2026-04-26T09:53:00.513Z</time></trkpt><trkpt lat="43.0807933" lon="13.10264"><ele>428.0</ele><time>2026-04-26T09:53:01.513Z</time></trkpt><trkpt lat="43.0807267" lon="13.102405"><ele>439.66666666666663</ele><time>2026-04-26T09:53:02.512Z</time></trkpt><trkpt lat="43.08068" lon="13.102155"><ele>451.33333333333337</ele><time>2026-04-26T09:53:03.512Z</time></trkpt><trkpt lat="43.080645" lon="13.101895"><ele>463.0</ele><time>2026-04-26T09:53:04.512Z</time></trkpt><trkpt lat="43.0806233" lon="13.101635"><ele>457.6666666666667</ele><time>2026-04-26T09:53:05.512Z</time></trkpt><trkpt lat="43.080615" lon="13.1014017"><ele>452.33333333333337</ele><time>2026-04-26T09:53:06.512Z</time></trkpt><trkpt lat="43.0806017" lon="13.1011917"><ele>447.0</ele><time>2026-04-26T09:53:07.512Z</time></trkpt><trkpt lat="43.08059" lon="13.1010017"><ele>447.0</ele><time>2026-04-26T09:53:08.513Z</time></trkpt><trkpt lat="43.0805517" lon="13.1008283"><ele>447.0</ele><time>2026-04-26T09:53:09.512Z</time></trkpt><trkpt lat="43.08049" lon="13.1006667"><ele>447.0</ele><time>2026-04-26T09:53:10.512Z</time></trkpt><trkpt lat="43.08039" lon="13.1005017"><ele>447.0</ele><time>2026-04-26T09:53:11.512Z</time></trkpt><trkpt lat="43.08028" lon="13.1003267"><ele>440.33333333333337</ele><time>2026-04-26T09:53:12.512Z</time></trkpt><trkpt lat="43.0801733" lon="13.1001267"><ele>433.6666666666667</ele><time>2026-04-26T09:53:13.512Z</time></trkpt><trkpt lat="43.08008" lon="13.09989"><ele>427.0</ele><time>2026-04-26T09:53:14.512Z</time></trkpt><trkpt lat="43.079995" lon="13.0996317"><ele>429.6666666666667</ele><time>2026-04-26T09:53:15.511Z</time></trkpt><trkpt lat="43.0799233" lon="13.099385"><ele>432.33333333333337</ele><time>2026-04-26T09:53:16.511Z</time></trkpt><trkpt lat="43.0798533" lon="13.09915"><ele>435.0</ele><time>2026-04-26T09:53:17.512Z</time></trkpt><trkpt lat="43.07979" lon="13.0989117"><ele>435.0</ele><time>2026-04-26T09:53:18.511Z</time></trkpt><trkpt lat="43.0797217" lon="13.0986517"><ele>435.0</ele><time>2026-04-26T09:53:19.512Z</time></trkpt><trkpt lat="43.07965" lon="13.0983733"><ele>435.0</ele><time>2026-04-26T09:53:20.511Z</time></trkpt><trkpt lat="43.0795733" lon="13.0980883"><ele>430.0</ele><time>2026-04-26T09:53:21.511Z</time></trkpt><trkpt lat="43.0794833" lon="13.0978033"><ele>425.0</ele><time>2026-04-26T09:53:22.512Z</time></trkpt><trkpt lat="43.07938" lon="13.0975367"><ele>420.0</ele><time>2026-04-26T09:53:23.511Z</time></trkpt><trkpt lat="43.0792667" lon="13.0972733"><ele>422.5</ele><time>2026-04-26T09:53:24.511Z</time></trkpt><trkpt lat="43.0791417" lon="13.0970067"><ele>425.0</ele><time>2026-04-26T09:53:25.511Z</time></trkpt><trkpt lat="43.0789917" lon="13.0967517"><ele>423.0</ele><time>2026-04-26T09:53:26.511Z</time></trkpt><trkpt lat="43.07884" lon="13.0965067"><ele>421.0</ele><time>2026-04-26T09:53:27.511Z</time></trkpt><trkpt lat="43.078705" lon="13.096285"><ele>419.0</ele><time>2026-04-26T09:53:28.511Z</time></trkpt><trkpt lat="43.0785783" lon="13.096085"><ele>419.0</ele><time>2026-04-26T09:53:29.511Z</time></trkpt><trkpt lat="43.0784917" lon="13.0958933"><ele>419.0</ele><time>2026-04-26T09:53:30.512Z</time></trkpt><trkpt lat="43.07843" lon="13.09571"><ele>419.0</ele><time>2026-04-26T09:53:31.511Z</time></trkpt><trkpt lat="43.0784" lon="13.09553"><ele>419.0</ele><time>2026-04-26T09:53:32.512Z</time></trkpt><trkpt lat="43.07839" lon="13.0953317"><ele>418.0</ele><time>2026-04-26T09:53:33.512Z</time></trkpt><trkpt lat="43.07841" lon="13.09511"><ele>417.0</ele><time>2026-04-26T09:53:34.511Z</time></trkpt><trkpt lat="43.0784517" lon="13.0948817"><ele>416.0</ele><time>2026-04-26T09:53:35.511Z</time></trkpt><trkpt lat="43.0785067" lon="13.09466"><ele>415.75</ele><time>2026-04-26T09:53:36.511Z</time></trkpt><trkpt lat="43.0785533" lon="13.0944733"><ele>415.5</ele><time>2026-04-26T09:53:37.511Z</time></trkpt><trkpt lat="43.0785883" lon="13.0943"><ele>415.25</ele><time>2026-04-26T09:53:38.511Z</time></trkpt><trkpt lat="43.0785833" lon="13.0941333"><ele>415.0</ele><time>2026-04-26T09:53:39.512Z</time></trkpt><trkpt lat="43.07855" lon="13.0939767"><ele>414.33333333333337</ele><time>2026-04-26T09:53:40.511Z</time></trkpt><trkpt lat="43.078465" lon="13.0938433"><ele>413.66666666666663</ele><time>2026-04-26T09:53:41.511Z</time></trkpt><trkpt lat="43.0783417" lon="13.093705"><ele>413.0</ele><time>2026-04-26T09:53:42.511Z</time></trkpt><trkpt lat="43.0782033" lon="13.093565"><ele>413.0</ele><time>2026-04-26T09:53:43.511Z</time></trkpt><trkpt lat="43.0780717" lon="13.0934083"><ele>413.0</ele><time>2026-04-26T09:53:44.511Z</time></trkpt><trkpt lat="43.0779333" lon="13.093225"><ele>413.0</ele><time>2026-04-26T09:53:45.511Z</time></trkpt><trkpt lat="43.0778133" lon="13.0930033"><ele>410.66666666666663</ele><time>2026-04-26T09:53:46.511Z</time></trkpt><trkpt lat="43.07771" lon="13.0927633"><ele>408.33333333333337</ele><time>2026-04-26T09:53:47.511Z</time></trkpt><trkpt lat="43.0776067" lon="13.0925317"><ele>406.0</ele><time>2026-04-26T09:53:48.511Z</time></trkpt><trkpt lat="43.0774933" lon="13.0923133"><ele>408.0</ele><time>2026-04-26T09:53:49.511Z</time></trkpt><trkpt lat="43.077345" lon="13.0921033"><ele>410.0</ele><time>2026-04-26T09:53:50.512Z</time></trkpt><trkpt lat="43.0771817" lon="13.09191"><ele>412.0</ele><time>2026-04-26T09:53:51.512Z</time></trkpt><trkpt lat="43.076995" lon="13.0917067"><ele>407.5</ele><time>2026-04-26T09:53:52.511Z</time></trkpt><trkpt lat="43.0767717" lon="13.0915"><ele>403.0</ele><time>2026-04-26T09:53:53.511Z</time></trkpt><trkpt lat="43.076585" lon="13.0913217"><ele>410.0</ele><time>2026-04-26T09:53:54.511Z</time></trkpt><trkpt lat="43.0764317" lon="13.0911833"><ele>417.0</ele><time>2026-04-26T09:53:55.512Z</time></trkpt><trkpt lat="43.0763117" lon="13.0910483"><ele>424.0</ele><time>2026-04-26T09:53:56.511Z</time></trkpt><trkpt lat="43.0762117" lon="13.0909017"><ele>420.6666666666667</ele><time>2026-04-26T09:53:57.511Z</time></trkpt><trkpt lat="43.0761217" lon="13.0907317"><ele>417.33333333333337</ele><time>2026-04-26T09:53:58.512Z</time></trkpt><trkpt lat="43.0760467" lon="13.0905217"><ele>414.0</ele><time>2026-04-26T09:53:59.511Z</time></trkpt><trkpt lat="43.0759833" lon="13.090285"><ele>414.0</ele><time>2026-04-26T09:54:00.511Z</time></trkpt><trkpt lat="43.07592" lon="13.0900333"><ele>414.0</ele><time>2026-04-26T09:54:01.511Z</time></trkpt><trkpt lat="43.0758583" lon="13.0897783"><ele>414.0</ele><time>2026-04-26T09:54:02.511Z</time></trkpt><trkpt lat="43.0758117" lon="13.0895283"><ele>412.66666666666663</ele><time>2026-04-26T09:54:03.511Z</time></trkpt><trkpt lat="43.0757817" lon="13.0892933"><ele>411.3333333333333</ele><time>2026-04-26T09:54:04.511Z</time></trkpt><trkpt lat="43.07577" lon="13.0890683"><ele>410.0</ele><time>2026-04-26T09:54:05.511Z</time></trkpt><trkpt lat="43.0757767" lon="13.0888567"><ele>409.5</ele><time>2026-04-26T09:54:06.512Z</time></trkpt><trkpt lat="43.0757917" lon="13.0886667"><ele>409.0</ele><time>2026-04-26T09:54:07.511Z</time></trkpt><trkpt lat="43.0758167" lon="13.0884983"><ele>408.5</ele><time>2026-04-26T09:54:08.512Z</time></trkpt><trkpt lat="43.0758517" lon="13.0883433"><ele>408.0</ele><time>2026-04-26T09:54:09.511Z</time></trkpt><trkpt lat="43.0758933" lon="13.088205"><ele>408.0</ele><time>2026-04-26T09:54:10.511Z</time></trkpt><trkpt lat="43.0759567" lon="13.088075"><ele>408.0</ele><time>2026-04-26T09:54:11.511Z</time></trkpt><trkpt lat="43.0760417" lon="13.0879367"><ele>408.0</ele><time>2026-04-26T09:54:12.511Z</time></trkpt><trkpt lat="43.0761317" lon="13.0877833"><ele>408.0</ele><time>2026-04-26T09:54:13.511Z</time></trkpt><trkpt lat="43.0762233" lon="13.08762"><ele>408.0</ele><time>2026-04-26T09:54:14.512Z</time></trkpt><trkpt lat="43.0762967" lon="13.087455"><ele>408.0</ele><time>2026-04-26T09:54:15.511Z</time></trkpt><trkpt lat="43.07636" lon="13.0873"><ele>408.0</ele><time>2026-04-26T09:54:16.511Z</time></trkpt><trkpt lat="43.07642" lon="13.0871583"><ele>408.0</ele><time>2026-04-26T09:54:17.512Z</time></trkpt><trkpt lat="43.0764667" lon="13.0870217"><ele>408.0</ele><time>2026-04-26T09:54:18.511Z</time></trkpt><trkpt lat="43.0764883" lon="13.0868483"><ele>408.0</ele><time>2026-04-26T09:54:19.512Z</time></trkpt><trkpt lat="43.0764917" lon="13.0866333"><ele>408.0</ele><time>2026-04-26T09:54:20.511Z</time></trkpt><trkpt lat="43.076455" lon="13.08639"><ele>408.0</ele><time>2026-04-26T09:54:21.512Z</time></trkpt><trkpt lat="43.0764117" lon="13.0861133"><ele>408.0</ele><time>2026-04-26T09:54:22.512Z</time></trkpt><trkpt lat="43.07636" lon="13.085815"><ele>408.0</ele><time>2026-04-26T09:54:23.511Z</time></trkpt><trkpt lat="43.0763133" lon="13.0854967"><ele>407.5</ele><time>2026-04-26T09:54:24.511Z</time></trkpt><trkpt lat="43.0762783" lon="13.0851617"><ele>407.0</ele><time>2026-04-26T09:54:25.511Z</time></trkpt><trkpt lat="43.0762417" lon="13.0848167"><ele>407.0</ele><time>2026-04-26T09:54:26.511Z</time></trkpt><trkpt lat="43.0762083" lon="13.084495"><ele>407.0</ele><time>2026-04-26T09:54:27.511Z</time></trkpt><trkpt lat="43.0761667" lon="13.084185"><ele>408.0</ele><time>2026-04-26T09:54:28.511Z</time></trkpt><trkpt lat="43.076115" lon="13.08388"><ele>409.0</ele><time>2026-04-26T09:54:29.511Z</time></trkpt><trkpt lat="43.0760667" lon="13.0835833"><ele>409.0</ele><time>2026-04-26T09:54:30.511Z</time></trkpt><trkpt lat="43.07603" lon="13.0833133"><ele>409.0</ele><time>2026-04-26T09:54:31.511Z</time></trkpt><trkpt lat="43.07601" lon="13.0830833"><ele>409.0</ele><time>2026-04-26T09:54:32.511Z</time></trkpt><trkpt lat="43.0759967" lon="13.0828783"><ele>409.2</ele><time>2026-04-26T09:54:33.511Z</time></trkpt><trkpt lat="43.07599" lon="13.0827133"><ele>409.4</ele><time>2026-04-26T09:54:34.511Z</time></trkpt><trkpt lat="43.0759917" lon="13.0825783"><ele>409.6</ele><time>2026-04-26T09:54:35.511Z</time></trkpt><trkpt lat="43.0759917" lon="13.0824733"><ele>409.8</ele><time>2026-04-26T09:54:36.511Z</time></trkpt><trkpt lat="43.075995" lon="13.0823417"><ele>410.0</ele><time>2026-04-26T09:54:38.512Z</time></trkpt><trkpt lat="43.0759967" lon="13.0821567"><ele>410.66666666666663</ele><time>2026-04-26T09:54:40.511Z</time></trkpt><trkpt lat="43.07602" lon="13.0819783"><ele>411.33333333333337</ele><time>2026-04-26T09:54:41.511Z</time></trkpt><trkpt lat="43.0760467" lon="13.0817467"><ele>412.0</ele><time>2026-04-26T09:54:42.511Z</time></trkpt><trkpt lat="43.07608" lon="13.08147"><ele>412.33333333333337</ele><time>2026-04-26T09:54:43.511Z</time></trkpt><trkpt lat="43.0761083" lon="13.081175"><ele>412.66666666666663</ele><time>2026-04-26T09:54:44.511Z</time></trkpt><trkpt lat="43.07614" lon="13.0808683"><ele>413.0</ele><time>2026-04-26T09:54:45.511Z</time></trkpt><trkpt lat="43.07617" lon="13.080565"><ele>413.0</ele><time>2026-04-26T09:54:46.511Z</time></trkpt><trkpt lat="43.0762017" lon="13.08029"><ele>413.0</ele><time>2026-04-26T09:54:47.511Z</time></trkpt><trkpt lat="43.0762383" lon="13.0800233"><ele>413.0</ele><time>2026-04-26T09:54:48.511Z</time></trkpt><trkpt lat="43.0762617" lon="13.0797683"><ele>413.66666666666663</ele><time>2026-04-26T09:54:49.511Z</time></trkpt><trkpt lat="43.076285" lon="13.07954"><ele>414.33333333333337</ele><time>2026-04-26T09:54:50.511Z</time></trkpt><trkpt lat="43.0763117" lon="13.0793217"><ele>415.0</ele><time>2026-04-26T09:54:51.511Z</time></trkpt><trkpt lat="43.0763283" lon="13.0791233"><ele>415.5</ele><time>2026-04-26T09:54:52.511Z</time></trkpt><trkpt lat="43.076345" lon="13.0789433"><ele>416.0</ele><time>2026-04-26T09:54:53.511Z</time></trkpt><trkpt lat="43.076365" lon="13.0787717"><ele>416.5</ele><time>2026-04-26T09:54:54.512Z</time></trkpt><trkpt lat="43.076395" lon="13.0786117"><ele>417.0</ele><time>2026-04-26T09:54:55.511Z</time></trkpt><trkpt lat="43.0764267" lon="13.0784667"><ele>417.0</ele><time>2026-04-26T09:54:56.511Z</time></trkpt><trkpt lat="43.0764667" lon="13.0783183"><ele>417.0</ele><time>2026-04-26T09:54:57.512Z</time></trkpt><trkpt lat="43.0764917" lon="13.07819"><ele>417.0</ele><time>2026-04-26T09:54:58.511Z</time></trkpt><trkpt lat="43.0765017" lon="13.0780617"><ele>417.0</ele><time>2026-04-26T09:54:59.511Z</time></trkpt><trkpt lat="43.076505" lon="13.077935"><ele>417.0</ele><time>2026-04-26T09:55:00.511Z</time></trkpt><trkpt lat="43.07648" lon="13.0778183"><ele>416.8</ele><time>2026-04-26T09:55:01.511Z</time></trkpt><trkpt lat="43.076455" lon="13.0776833"><ele>416.6</ele><time>2026-04-26T09:55:02.512Z</time></trkpt><trkpt lat="43.0764283" lon="13.0775717"><ele>416.40000000000003</ele><time>2026-04-26T09:55:03.512Z</time></trkpt><trkpt lat="43.0764017" lon="13.077465"><ele>416.20000000000005</ele><time>2026-04-26T09:55:04.511Z</time></trkpt><trkpt lat="43.0763783" lon="13.07735"><ele>416.0</ele><time>2026-04-26T09:55:05.511Z</time></trkpt><trkpt lat="43.07634" lon="13.077215"><ele>415.75</ele><time>2026-04-26T09:55:06.511Z</time></trkpt><trkpt lat="43.0762933" lon="13.0770683"><ele>415.5</ele><time>2026-04-26T09:55:07.512Z</time></trkpt><trkpt lat="43.0762383" lon="13.076915"><ele>415.25</ele><time>2026-04-26T09:55:08.511Z</time></trkpt><trkpt lat="43.076185" lon="13.0767583"><ele>415.0</ele><time>2026-04-26T09:55:09.512Z</time></trkpt><trkpt lat="43.0761467" lon="13.0766083"><ele>415.33333333333337</ele><time>2026-04-26T09:55:10.512Z</time></trkpt><trkpt lat="43.076105" lon="13.0764733"><ele>415.6666666666667</ele><time>2026-04-26T09:55:11.512Z</time></trkpt><trkpt lat="43.0760767" lon="13.0763617"><ele>416.0</ele><time>2026-04-26T09:55:12.511Z</time></trkpt><trkpt lat="43.0760483" lon="13.0762567"><ele>416.33333333333337</ele><time>2026-04-26T09:55:13.511Z</time></trkpt><trkpt lat="43.076025" lon="13.0761717"><ele>416.6666666666667</ele><time>2026-04-26T09:55:14.511Z</time></trkpt><trkpt lat="43.0760017" lon="13.0760383"><ele>417.0</ele><time>2026-04-26T09:55:16.511Z</time></trkpt><trkpt lat="43.0760067" lon="13.0759133"><ele>417.0</ele><time>2026-04-26T09:55:18.511Z</time></trkpt><trkpt lat="43.0759983" lon="13.07582"><ele>417.0</ele><time>2026-04-26T09:55:19.511Z</time></trkpt><trkpt lat="43.0759983" lon="13.07573"><ele>417.0</ele><time>2026-04-26T09:55:20.511Z</time></trkpt><trkpt lat="43.076035" lon="13.07559"><ele>417.0</ele><time>2026-04-26T09:55:22.512Z</time></trkpt><trkpt lat="43.0761" lon="13.0755583"><ele>417.0</ele><time>2026-04-26T09:55:24.512Z</time></trkpt><trkpt lat="43.0761783" lon="13.07556"><ele>417.0</ele><time>2026-04-26T09:55:26.511Z</time></trkpt><trkpt lat="43.0762333" lon="13.0754867"><ele>416.6</ele><time>2026-04-26T09:55:28.511Z</time></trkpt><trkpt lat="43.0762417" lon="13.0753967"><ele>416.20000000000005</ele><time>2026-04-26T09:55:29.511Z</time></trkpt><trkpt lat="43.07623" lon="13.0752783"><ele>415.8</ele><time>2026-04-26T09:55:30.511Z</time></trkpt><trkpt lat="43.0762083" lon="13.07513"><ele>415.4</ele><time>2026-04-26T09:55:31.512Z</time></trkpt><trkpt lat="43.07618" lon="13.0749833"><ele>415.0</ele><time>2026-04-26T09:55:32.511Z</time></trkpt><trkpt lat="43.0761517" lon="13.0748683"><ele>415.00000000000006</ele><time>2026-04-26T09:55:33.511Z</time></trkpt><trkpt lat="43.0761183" lon="13.0747683"><ele>415.0</ele><time>2026-04-26T09:55:34.511Z</time></trkpt><trkpt lat="43.0760867" lon="13.0746183"><ele>415.0</ele><time>2026-04-26T09:55:36.511Z</time></trkpt><trkpt lat="43.0761167" lon="13.0744833"><ele>415.0</ele><time>2026-04-26T09:55:38.512Z</time></trkpt><trkpt lat="43.0761667" lon="13.07441"><ele>415.00000000000006</ele><time>2026-04-26T09:55:39.511Z</time></trkpt><trkpt lat="43.076225" lon="13.0743483"><ele>415.0</ele><time>2026-04-26T09:55:40.511Z</time></trkpt><trkpt lat="43.0762717" lon="13.07429"><ele>415.0</ele><time>2026-04-26T09:55:41.511Z</time></trkpt><trkpt lat="43.0763183" lon="13.0741683"><ele>415.0</ele><time>2026-04-26T09:55:43.511Z</time></trkpt><trkpt lat="43.0763067" lon="13.074005"><ele>415.0</ele><time>2026-04-26T09:55:45.511Z</time></trkpt><trkpt lat="43.07631" lon="13.0738983"><ele>415.0</ele><time>2026-04-26T09:55:46.511Z</time></trkpt><trkpt lat="43.076315" lon="13.0737883"><ele>415.0</ele><time>2026-04-26T09:55:47.511Z</time></trkpt><trkpt lat="43.076325" lon="13.0736733"><ele>415.00000000000006</ele><time>2026-04-26T09:55:48.511Z</time></trkpt><trkpt lat="43.07633" lon="13.0735517"><ele>415.0</ele><time>2026-04-26T09:55:49.511Z</time></trkpt><trkpt lat="43.076325" lon="13.0734283"><ele>415.0</ele><time>2026-04-26T09:55:50.511Z</time></trkpt><trkpt lat="43.0763133" lon="13.0733067"><ele>415.0</ele><time>2026-04-26T09:55:51.511Z</time></trkpt><trkpt lat="43.0762833" lon="13.0732"><ele>415.00000000000006</ele><time>2026-04-26T09:55:52.511Z</time></trkpt><trkpt lat="43.0762383" lon="13.0730933"><ele>415.0</ele><time>2026-04-26T09:55:53.511Z</time></trkpt><trkpt lat="43.0761833" lon="13.0729867"><ele>415.2</ele><time>2026-04-26T09:55:54.511Z</time></trkpt><trkpt lat="43.0761383" lon="13.07288"><ele>415.4</ele><time>2026-04-26T09:55:55.511Z</time></trkpt><trkpt lat="43.0760967" lon="13.0727633"><ele>415.6</ele><time>2026-04-26T09:55:56.511Z</time></trkpt><trkpt lat="43.0760617" lon="13.0726433"><ele>415.8</ele><time>2026-04-26T09:55:57.511Z</time></trkpt><trkpt lat="43.076025" lon="13.0725267"><ele>416.0</ele><time>2026-04-26T09:55:58.511Z</time></trkpt><trkpt lat="43.0759733" lon="13.07241"><ele>416.4</ele><time>2026-04-26T09:55:59.512Z</time></trkpt><trkpt lat="43.0759133" lon="13.0723033"><ele>416.8</ele><time>2026-04-26T09:56:00.511Z</time></trkpt><trkpt lat="43.0758617" lon="13.0722083"><ele>417.2</ele><time>2026-04-26T09:56:01.511Z</time></trkpt><trkpt lat="43.0757967" lon="13.0721183"><ele>417.59999999999997</ele><time>2026-04-26T09:56:02.511Z</time></trkpt><trkpt lat="43.0757283" lon="13.0720167"><ele>418.0</ele><time>2026-04-26T09:56:03.511Z</time></trkpt><trkpt lat="43.0756517" lon="13.07191"><ele>418.0</ele><time>2026-04-26T09:56:04.511Z</time></trkpt><trkpt lat="43.0755783" lon="13.0717933"><ele>418.0</ele><time>2026-04-26T09:56:05.511Z</time></trkpt><trkpt lat="43.075505" lon="13.0716717"><ele>418.0</ele><time>2026-04-26T09:56:06.511Z</time></trkpt><trkpt lat="43.075435" lon="13.0715517"><ele>418.0</ele><time>2026-04-26T09:56:07.511Z</time></trkpt><trkpt lat="43.0753633" lon="13.0714317"><ele>417.79999999999995</ele><time>2026-04-26T09:56:08.511Z</time></trkpt><trkpt lat="43.07529" lon="13.0713183"><ele>417.6</ele><time>2026-04-26T09:56:09.511Z</time></trkpt><trkpt lat="43.0752233" lon="13.071205"><ele>417.4</ele><time>2026-04-26T09:56:10.511Z</time></trkpt><trkpt lat="43.0751517" lon="13.0710917"><ele>417.20000000000005</ele><time>2026-04-26T09:56:11.511Z</time></trkpt><trkpt lat="43.075085" lon="13.0709733"><ele>417.0</ele><time>2026-04-26T09:56:12.511Z</time></trkpt><trkpt lat="43.0750233" lon="13.0708617"><ele>417.40000000000003</ele><time>2026-04-26T09:56:13.511Z</time></trkpt><trkpt lat="43.0749617" lon="13.0707483"><ele>417.8</ele><time>2026-04-26T09:56:14.511Z</time></trkpt><trkpt lat="43.0749017" lon="13.0706267"><ele>418.2</ele><time>2026-04-26T09:56:15.511Z</time></trkpt><trkpt lat="43.074845" lon="13.0705117"><ele>418.6</ele><time>2026-04-26T09:56:16.512Z</time></trkpt><trkpt lat="43.0747933" lon="13.0703933"><ele>419.0</ele><time>2026-04-26T09:56:17.512Z</time></trkpt><trkpt lat="43.0747417" lon="13.07028"><ele>418.99999999999994</ele><time>2026-04-26T09:56:18.511Z</time></trkpt><trkpt lat="43.0746967" lon="13.0701767"><ele>419.0</ele><time>2026-04-26T09:56:19.511Z</time></trkpt><trkpt lat="43.0746633" lon="13.0700817"><ele>419.0</ele><time>2026-04-26T09:56:20.511Z</time></trkpt><trkpt lat="43.0746333" lon="13.069995"><ele>419.0</ele><time>2026-04-26T09:56:21.511Z</time></trkpt><trkpt lat="43.07461" lon="13.0699083"><ele>418.99999999999994</ele><time>2026-04-26T09:56:22.511Z</time></trkpt><trkpt lat="43.0745867" lon="13.0697633"><ele>419.0</ele><time>2026-04-26T09:56:24.511Z</time></trkpt><trkpt lat="43.0745617" lon="13.0696367"><ele>419.2</ele><time>2026-04-26T09:56:26.511Z</time></trkpt><trkpt lat="43.074545" lon="13.0694967"><ele>419.4</ele><time>2026-04-26T09:56:28.511Z</time></trkpt><trkpt lat="43.07453" lon="13.0693483"><ele>419.6</ele><time>2026-04-26T09:56:30.511Z</time></trkpt><trkpt lat="43.074515" lon="13.0691817"><ele>419.8</ele><time>2026-04-26T09:56:32.511Z</time></trkpt><trkpt lat="43.0744983" lon="13.0690883"><ele>420.0</ele><time>2026-04-26T09:56:33.511Z</time></trkpt><trkpt lat="43.07448" lon="13.0689983"><ele>420.3333333333333</ele><time>2026-04-26T09:56:34.511Z</time></trkpt><trkpt lat="43.0744583" lon="13.06891"><ele>420.66666666666663</ele><time>2026-04-26T09:56:35.511Z</time></trkpt><trkpt lat="43.0744333" lon="13.068825"><ele>421.0</ele><time>2026-04-26T09:56:36.511Z</time></trkpt><trkpt lat="43.0744133" lon="13.0687417"><ele>421.3333333333333</ele><time>2026-04-26T09:56:37.511Z</time></trkpt><trkpt lat="43.0743817" lon="13.0685967"><ele>421.66666666666663</ele><time>2026-04-26T09:56:39.511Z</time></trkpt><trkpt lat="43.074345" lon="13.068495"><ele>422.0</ele><time>2026-04-26T09:56:41.511Z</time></trkpt><trkpt lat="43.0742867" lon="13.0683733"><ele>421.99999999999994</ele><time>2026-04-26T09:56:43.512Z</time></trkpt><trkpt lat="43.0742533" lon="13.068295"><ele>422.0</ele><time>2026-04-26T09:56:44.512Z</time></trkpt><trkpt lat="43.0742117" lon="13.068215"><ele>422.0</ele><time>2026-04-26T09:56:45.511Z</time></trkpt><trkpt lat="43.0741717" lon="13.0681233"><ele>422.0</ele><time>2026-04-26T09:56:46.512Z</time></trkpt><trkpt lat="43.0741217" lon="13.0680233"><ele>421.99999999999994</ele><time>2026-04-26T09:56:47.511Z</time></trkpt><trkpt lat="43.0740733" lon="13.0679233"><ele>422.0</ele><time>2026-04-26T09:56:48.511Z</time></trkpt><trkpt lat="43.0740283" lon="13.0678267"><ele>422.20000000000005</ele><time>2026-04-26T09:56:49.512Z</time></trkpt><trkpt lat="43.0739817" lon="13.0677233"><ele>422.4</ele><time>2026-04-26T09:56:50.511Z</time></trkpt><trkpt lat="43.07393" lon="13.0676133"><ele>422.6</ele><time>2026-04-26T09:56:51.511Z</time></trkpt><trkpt lat="43.0738783" lon="13.0674917"><ele>422.79999999999995</ele><time>2026-04-26T09:56:52.511Z</time></trkpt><trkpt lat="43.073835" lon="13.0673683"><ele>423.0</ele><time>2026-04-26T09:56:53.511Z</time></trkpt><trkpt lat="43.0737967" lon="13.0672417"><ele>424.2</ele><time>2026-04-26T09:56:54.511Z</time></trkpt><trkpt lat="43.0737683" lon="13.0671067"><ele>425.4</ele><time>2026-04-26T09:56:55.511Z</time></trkpt><trkpt lat="43.0737483" lon="13.0669667"><ele>426.59999999999997</ele><time>2026-04-26T09:56:56.511Z</time></trkpt><trkpt lat="43.0737333" lon="13.0668283"><ele>427.79999999999995</ele><time>2026-04-26T09:56:57.511Z</time></trkpt><trkpt lat="43.0737267" lon="13.066685"><ele>429.0</ele><time>2026-04-26T09:56:58.511Z</time></trkpt><trkpt lat="43.0737167" lon="13.0665367"><ele>429.25</ele><time>2026-04-26T09:56:59.511Z</time></trkpt><trkpt lat="43.0736967" lon="13.066385"><ele>429.5</ele><time>2026-04-26T09:57:00.511Z</time></trkpt><trkpt lat="43.07367" lon="13.0662217"><ele>429.75</ele><time>2026-04-26T09:57:01.511Z</time></trkpt><trkpt lat="43.0736367" lon="13.0660433"><ele>430.0</ele><time>2026-04-26T09:57:02.511Z</time></trkpt><trkpt lat="43.0736067" lon="13.06586"><ele>429.5</ele><time>2026-04-26T09:57:03.511Z</time></trkpt><trkpt lat="43.0735883" lon="13.06567"><ele>429.0</ele><time>2026-04-26T09:57:04.511Z</time></trkpt><trkpt lat="43.0735683" lon="13.0654933"><ele>428.5</ele><time>2026-04-26T09:57:05.511Z</time></trkpt><trkpt lat="43.0735583" lon="13.065335"><ele>428.0</ele><time>2026-04-26T09:57:06.511Z</time></trkpt><trkpt lat="43.073555" lon="13.0651983"><ele>427.99999999999994</ele><time>2026-04-26T09:57:07.511Z</time></trkpt><trkpt lat="43.073555" lon="13.0650817"><ele>428.0</ele><time>2026-04-26T09:57:08.511Z</time></trkpt><trkpt lat="43.0735533" lon="13.06498"><ele>428.0</ele><time>2026-04-26T09:57:09.511Z</time></trkpt><trkpt lat="43.073565" lon="13.0648867"><ele>428.0</ele><time>2026-04-26T09:57:10.511Z</time></trkpt><trkpt lat="43.07358" lon="13.0647933"><ele>427.99999999999994</ele><time>2026-04-26T09:57:11.511Z</time></trkpt><trkpt lat="43.0736117" lon="13.0646967"><ele>428.0</ele><time>2026-04-26T09:57:12.512Z</time></trkpt><trkpt lat="43.073655" lon="13.0645967"><ele>428.16666666666663</ele><time>2026-04-26T09:57:13.511Z</time></trkpt><trkpt lat="43.0737" lon="13.0645017"><ele>428.3333333333333</ele><time>2026-04-26T09:57:14.511Z</time></trkpt><trkpt lat="43.0737367" lon="13.0644167"><ele>428.5</ele><time>2026-04-26T09:57:15.512Z</time></trkpt><trkpt lat="43.0737633" lon="13.064335"><ele>428.66666666666663</ele><time>2026-04-26T09:57:16.511Z</time></trkpt><trkpt lat="43.0737683" lon="13.0642017"><ele>428.8333333333333</ele><time>2026-04-26T09:57:18.511Z</time></trkpt><trkpt lat="43.0736633" lon="13.0641567"><ele>429.0</ele><time>2026-04-26T09:57:20.511Z</time></trkpt><trkpt lat="43.0735883" lon="13.064165"><ele>429.0</ele><time>2026-04-26T09:57:21.511Z</time></trkpt><trkpt lat="43.0734917" lon="13.0641533"><ele>429.0</ele><time>2026-04-26T09:57:23.512Z</time></trkpt><trkpt lat="43.0735" lon="13.064065"><ele>429.0</ele><time>2026-04-26T09:57:26.511Z</time></trkpt><trkpt lat="43.073605" lon="13.064035"><ele>429.0</ele><time>2026-04-26T09:57:28.511Z</time></trkpt><trkpt lat="43.0736883" lon="13.0640267"><ele>429.0</ele><time>2026-04-26T09:57:29.511Z</time></trkpt><trkpt lat="43.07379" lon="13.0640117"><ele>428.75</ele><time>2026-04-26T09:57:30.512Z</time></trkpt><trkpt lat="43.0739117" lon="13.0640067"><ele>428.5</ele><time>2026-04-26T09:57:31.511Z</time></trkpt><trkpt lat="43.0740417" lon="13.0639967"><ele>428.25</ele><time>2026-04-26T09:57:32.511Z</time></trkpt><trkpt lat="43.0741783" lon="13.063985"><ele>428.0</ele><time>2026-04-26T09:57:33.511Z</time></trkpt><trkpt lat="43.0743133" lon="13.063995"><ele>428.0</ele><time>2026-04-26T09:57:34.512Z</time></trkpt><trkpt lat="43.0744433" lon="13.0640017"><ele>428.0</ele><time>2026-04-26T09:57:35.511Z</time></trkpt><trkpt lat="43.0745733" lon="13.0640083"><ele>428.0</ele><time>2026-04-26T09:57:36.511Z</time></trkpt><trkpt lat="43.074695" lon="13.064"><ele>428.0</ele><time>2026-04-26T09:57:37.511Z</time></trkpt><trkpt lat="43.0748117" lon="13.0639783"><ele>428.0</ele><time>2026-04-26T09:57:38.511Z</time></trkpt><trkpt lat="43.0749167" lon="13.06397"><ele>427.99999999999994</ele><time>2026-04-26T09:57:39.512Z</time></trkpt><trkpt lat="43.0750217" lon="13.0639517"><ele>427.99999999999994</ele><time>2026-04-26T09:57:40.511Z</time></trkpt><trkpt lat="43.07511" lon="13.06394"><ele>428.0</ele><time>2026-04-26T09:57:41.511Z</time></trkpt><trkpt lat="43.0751867" lon="13.0638983"><ele>428.0</ele><time>2026-04-26T09:57:42.511Z</time></trkpt><trkpt lat="43.0752517" lon="13.063845"><ele>428.0</ele><time>2026-04-26T09:57:43.511Z</time></trkpt><trkpt lat="43.0753067" lon="13.0637767"><ele>427.99999999999994</ele><time>2026-04-26T09:57:44.512Z</time></trkpt><trkpt lat="43.0753867" lon="13.0636617"><ele>427.99999999999994</ele><time>2026-04-26T09:57:46.512Z</time></trkpt><trkpt lat="43.0754583" lon="13.06354"><ele>428.0</ele><time>2026-04-26T09:57:48.511Z</time></trkpt><trkpt lat="43.0754833" lon="13.0633733"><ele>428.0</ele><time>2026-04-26T09:57:50.512Z</time></trkpt><trkpt lat="43.075465" lon="13.063275"><ele>428.16666666666663</ele><time>2026-04-26T09:57:51.511Z</time></trkpt><trkpt lat="43.0754467" lon="13.0631783"><ele>428.3333333333333</ele><time>2026-04-26T09:57:52.511Z</time></trkpt><trkpt lat="43.0754417" lon="13.0629883"><ele>428.5</ele><time>2026-04-26T09:57:54.511Z</time></trkpt><trkpt lat="43.0754567" lon="13.062885"><ele>428.66666666666663</ele><time>2026-04-26T09:57:55.511Z</time></trkpt><trkpt lat="43.075485" lon="13.0627767"><ele>428.8333333333333</ele><time>2026-04-26T09:57:56.512Z</time></trkpt><trkpt lat="43.075505" lon="13.0626783"><ele>429.0</ele><time>2026-04-26T09:57:57.511Z</time></trkpt><trkpt lat="43.0755217" lon="13.0625933"><ele>429.0</ele><time>2026-04-26T09:57:58.511Z</time></trkpt><trkpt lat="43.0755367" lon="13.0624733"><ele>429.0</ele><time>2026-04-26T09:58:00.511Z</time></trkpt><trkpt lat="43.0755683" lon="13.0623833"><ele>429.0</ele><time>2026-04-26T10:04:03.511Z</time></trkpt><trkpt lat="43.07565" lon="13.06233"><ele>429.0</ele><time>2026-04-26T10:04:04.511Z</time></trkpt><trkpt lat="43.0755483" lon="13.06226"><ele>429.0</ele><time>2026-04-26T10:04:43.512Z</time></trkpt><trkpt lat="43.0754783" lon="13.06227"><ele>429.0</ele><time>2026-04-26T10:04:44.512Z</time></trkpt><trkpt lat="43.0754133" lon="13.0623117"><ele>429.0</ele><time>2026-04-26T10:04:45.511Z</time></trkpt><trkpt lat="43.0753583" lon="13.0623833"><ele>429.0</ele><time>2026-04-26T10:04:46.511Z</time></trkpt><trkpt lat="43.0753333" lon="13.06248"><ele>429.0</ele><time>2026-04-26T10:04:47.511Z</time></trkpt><trkpt lat="43.0753317" lon="13.0625983"><ele>429.0</ele><time>2026-04-26T10:04:48.511Z</time></trkpt><trkpt lat="43.0753367" lon="13.062695"><ele>429.0</ele><time>2026-04-26T10:04:49.511Z</time></trkpt><trkpt lat="43.0753483" lon="13.062855"><ele>429.0</ele><time>2026-04-26T10:04:51.511Z</time></trkpt><trkpt lat="43.0753617" lon="13.0629817"><ele>429.0</ele><time>2026-04-26T10:04:53.511Z</time></trkpt><trkpt lat="43.0754117" lon="13.0631117"><ele>429.0</ele><time>2026-04-26T10:04:55.511Z</time></trkpt><trkpt lat="43.0754383" lon="13.0631933"><ele>429.0</ele><time>2026-04-26T10:04:56.511Z</time></trkpt><trkpt lat="43.0754483" lon="13.0632883"><ele>429.0</ele><time>2026-04-26T10:04:57.511Z</time></trkpt><trkpt lat="43.0754583" lon="13.063375"><ele>429.0</ele><time>2026-04-26T10:04:58.511Z</time></trkpt><trkpt lat="43.0754133" lon="13.0635367"><ele>429.0</ele><time>2026-04-26T10:05:00.511Z</time></trkpt><trkpt lat="43.075365" lon="13.0636017"><ele>428.79999999999995</ele><time>2026-04-26T10:05:01.511Z</time></trkpt><trkpt lat="43.0753167" lon="13.06366"><ele>428.59999999999997</ele><time>2026-04-26T10:05:02.512Z</time></trkpt><trkpt lat="43.0752367" lon="13.0637783"><ele>428.4</ele><time>2026-04-26T10:05:04.511Z</time></trkpt><trkpt lat="43.0751683" lon="13.0638733"><ele>428.2</ele><time>2026-04-26T10:05:06.511Z</time></trkpt><trkpt lat="43.0750283" lon="13.063905"><ele>428.0</ele><time>2026-04-26T10:05:08.511Z</time></trkpt><trkpt lat="43.07494" lon="13.0639067"><ele>428.0</ele><time>2026-04-26T10:05:09.512Z</time></trkpt><trkpt lat="43.074835" lon="13.0639217"><ele>427.99999999999994</ele><time>2026-04-26T10:05:10.511Z</time></trkpt><trkpt lat="43.0747217" lon="13.0639283"><ele>427.99999999999994</ele><time>2026-04-26T10:05:11.511Z</time></trkpt><trkpt lat="43.0746033" lon="13.0639333"><ele>428.0</ele><time>2026-04-26T10:05:12.511Z</time></trkpt><trkpt lat="43.074495" lon="13.0639267"><ele>428.0</ele><time>2026-04-26T10:05:13.511Z</time></trkpt><trkpt lat="43.0743983" lon="13.06391"><ele>427.99999999999994</ele><time>2026-04-26T10:05:14.512Z</time></trkpt><trkpt lat="43.0743183" lon="13.0638783"><ele>428.0</ele><time>2026-04-26T10:05:15.512Z</time></trkpt><trkpt lat="43.07425" lon="13.063835"><ele>428.0</ele><time>2026-04-26T10:05:16.512Z</time></trkpt><trkpt lat="43.0741833" lon="13.0637833"><ele>428.0</ele><time>2026-04-26T10:05:17.511Z</time></trkpt><trkpt lat="43.0741183" lon="13.063715"><ele>427.99999999999994</ele><time>2026-04-26T10:05:18.511Z</time></trkpt><trkpt lat="43.0740617" lon="13.0636483"><ele>428.0</ele><time>2026-04-26T10:05:19.511Z</time></trkpt><trkpt lat="43.0740017" lon="13.0636133"><ele>429.4</ele><time>2026-04-26T10:05:20.511Z</time></trkpt><trkpt lat="43.0738767" lon="13.06366"><ele>430.79999999999995</ele><time>2026-04-26T10:05:22.511Z</time></trkpt><trkpt lat="43.0738167" lon="13.0637233"><ele>432.2</ele><time>2026-04-26T10:05:23.511Z</time></trkpt><trkpt lat="43.0737633" lon="13.06381"><ele>433.6</ele><time>2026-04-26T10:05:24.512Z</time></trkpt><trkpt lat="43.073695" lon="13.063905"><ele>435.0</ele><time>2026-04-26T10:05:25.511Z</time></trkpt><trkpt lat="43.07361" lon="13.0639817"><ele>435.0</ele><time>2026-04-26T10:05:26.511Z</time></trkpt><trkpt lat="43.0735" lon="13.0640333"><ele>435.0</ele><time>2026-04-26T10:05:27.511Z</time></trkpt><trkpt lat="43.0733683" lon="13.0640483"><ele>435.0</ele><time>2026-04-26T10:05:28.511Z</time></trkpt><trkpt lat="43.0732283" lon="13.0640467"><ele>435.0</ele><time>2026-04-26T10:05:29.511Z</time></trkpt><trkpt lat="43.0730733" lon="13.0640417"><ele>436.33333333333337</ele><time>2026-04-26T10:05:30.511Z</time></trkpt><trkpt lat="43.072905" lon="13.0640383"><ele>437.6666666666667</ele><time>2026-04-26T10:05:31.512Z</time></trkpt><trkpt lat="43.07273" lon="13.06403"><ele>439.0</ele><time>2026-04-26T10:05:32.511Z</time></trkpt><trkpt lat="43.0725433" lon="13.06402"><ele>438.33333333333337</ele><time>2026-04-26T10:05:33.511Z</time></trkpt><trkpt lat="43.0723517" lon="13.0639983"><ele>437.66666666666663</ele><time>2026-04-26T10:05:34.512Z</time></trkpt><trkpt lat="43.0721517" lon="13.0639717"><ele>437.0</ele><time>2026-04-26T10:05:35.511Z</time></trkpt><trkpt lat="43.071945" lon="13.0639533"><ele>437.0</ele><time>2026-04-26T10:05:36.511Z</time></trkpt><trkpt lat="43.0717333" lon="13.063935"><ele>437.0</ele><time>2026-04-26T10:05:37.511Z</time></trkpt><trkpt lat="43.0715133" lon="13.0639083"><ele>437.0</ele><time>2026-04-26T10:05:38.51Z</time></trkpt><trkpt lat="43.0712917" lon="13.0638733"><ele>437.5</ele><time>2026-04-26T10:05:39.51Z</time></trkpt><trkpt lat="43.0710683" lon="13.0638333"><ele>438.0</ele><time>2026-04-26T10:05:40.51Z</time></trkpt><trkpt lat="43.0708433" lon="13.06379"><ele>434.0</ele><time>2026-04-26T10:05:41.51Z</time></trkpt><trkpt lat="43.0706133" lon="13.063745"><ele>430.0</ele><time>2026-04-26T10:05:42.51Z</time></trkpt><trkpt lat="43.0703867" lon="13.063695"><ele>430.0</ele><time>2026-04-26T10:05:43.51Z</time></trkpt><trkpt lat="43.0701633" lon="13.0636433"><ele>430.0</ele><time>2026-04-26T10:05:44.51Z</time></trkpt><trkpt lat="43.0699417" lon="13.0635967"><ele>431.5</ele><time>2026-04-26T10:05:45.51Z</time></trkpt><trkpt lat="43.0697133" lon="13.0635483"><ele>433.0</ele><time>2026-04-26T10:05:46.51Z</time></trkpt><trkpt lat="43.069485" lon="13.063505"><ele>433.0</ele><time>2026-04-26T10:05:47.511Z</time></trkpt><trkpt lat="43.0692633" lon="13.0634617"><ele>433.0</ele><time>2026-04-26T10:05:48.51Z</time></trkpt><trkpt lat="43.069045" lon="13.06342"><ele>433.0</ele><time>2026-04-26T10:05:49.51Z</time></trkpt><trkpt lat="43.0688233" lon="13.063375"><ele>433.0</ele><time>2026-04-26T10:05:50.51Z</time></trkpt><trkpt lat="43.0686" lon="13.0633283"><ele>433.0</ele><time>2026-04-26T10:05:51.51Z</time></trkpt><trkpt lat="43.0683783" lon="13.06328"><ele>437.0</ele><time>2026-04-26T10:05:52.51Z</time></trkpt><trkpt lat="43.068155" lon="13.0632333"><ele>441.0</ele><time>2026-04-26T10:05:53.51Z</time></trkpt><trkpt lat="43.06793" lon="13.0631867"><ele>441.0</ele><time>2026-04-26T10:05:54.511Z</time></trkpt><trkpt lat="43.0677" lon="13.0631433"><ele>441.0</ele><time>2026-04-26T10:05:55.51Z</time></trkpt><trkpt lat="43.0674733" lon="13.0630933"><ele>444.0</ele><time>2026-04-26T10:05:56.51Z</time></trkpt><trkpt lat="43.0672467" lon="13.06305"><ele>447.0</ele><time>2026-04-26T10:05:57.51Z</time></trkpt><trkpt lat="43.06702" lon="13.0629983"><ele>447.0</ele><time>2026-04-26T10:05:58.511Z</time></trkpt><trkpt lat="43.0667867" lon="13.0629483"><ele>447.0</ele><time>2026-04-26T10:05:59.51Z</time></trkpt><trkpt lat="43.066545" lon="13.0628983"><ele>447.0</ele><time>2026-04-26T10:06:00.51Z</time></trkpt><trkpt lat="43.0663033" lon="13.06285"><ele>447.0</ele><time>2026-04-26T10:06:01.511Z</time></trkpt><trkpt lat="43.0660567" lon="13.0628017"><ele>447.0</ele><time>2026-04-26T10:06:02.51Z</time></trkpt><trkpt lat="43.065805" lon="13.062755"><ele>447.0</ele><time>2026-04-26T10:06:03.511Z</time></trkpt><trkpt lat="43.065555" lon="13.0627067"><ele>444.0</ele><time>2026-04-26T10:06:04.51Z</time></trkpt><trkpt lat="43.0652983" lon="13.0626633"><ele>441.0</ele><time>2026-04-26T10:06:05.51Z</time></trkpt><trkpt lat="43.065035" lon="13.06262"><ele>441.0</ele><time>2026-04-26T10:06:06.51Z</time></trkpt><trkpt lat="43.0647683" lon="13.0625733"><ele>441.0</ele><time>2026-04-26T10:06:07.511Z</time></trkpt><trkpt lat="43.0644983" lon="13.0625183"><ele>441.0</ele><time>2026-04-26T10:06:08.51Z</time></trkpt><trkpt lat="43.0642317" lon="13.0624583"><ele>441.0</ele><time>2026-04-26T10:06:09.51Z</time></trkpt><trkpt lat="43.0639667" lon="13.0624"><ele>443.0</ele><time>2026-04-26T10:06:10.511Z</time></trkpt><trkpt lat="43.06369" lon="13.062335"><ele>445.0</ele><time>2026-04-26T10:06:11.511Z</time></trkpt><trkpt lat="43.0634217" lon="13.0622717"><ele>445.0</ele><time>2026-04-26T10:06:12.511Z</time></trkpt><trkpt lat="43.06316" lon="13.0622183"><ele>445.0</ele><time>2026-04-26T10:06:13.51Z</time></trkpt><trkpt lat="43.0629017" lon="13.0621617"><ele>445.0</ele><time>2026-04-26T10:06:14.511Z</time></trkpt><trkpt lat="43.0626433" lon="13.0621117"><ele>445.0</ele><time>2026-04-26T10:06:15.51Z</time></trkpt><trkpt lat="43.062385" lon="13.0620617"><ele>446.0</ele><time>2026-04-26T10:06:16.51Z</time></trkpt><trkpt lat="43.0621217" lon="13.06201"><ele>447.0</ele><time>2026-04-26T10:06:17.51Z</time></trkpt><trkpt lat="43.0618617" lon="13.0619583"><ele>447.5</ele><time>2026-04-26T10:06:18.51Z</time></trkpt><trkpt lat="43.0615917" lon="13.0618967"><ele>448.0</ele><time>2026-04-26T10:06:19.51Z</time></trkpt><trkpt lat="43.0613217" lon="13.06184"><ele>448.0</ele><time>2026-04-26T10:06:20.51Z</time></trkpt><trkpt lat="43.061055" lon="13.061785"><ele>448.0</ele><time>2026-04-26T10:06:21.511Z</time></trkpt><trkpt lat="43.0607767" lon="13.061735"><ele>447.5</ele><time>2026-04-26T10:06:22.51Z</time></trkpt><trkpt lat="43.0605" lon="13.0616783"><ele>447.0</ele><time>2026-04-26T10:06:23.51Z</time></trkpt><trkpt lat="43.0602267" lon="13.06163"><ele>450.5</ele><time>2026-04-26T10:06:24.51Z</time></trkpt><trkpt lat="43.059965" lon="13.0615767"><ele>454.0</ele><time>2026-04-26T10:06:25.51Z</time></trkpt><trkpt lat="43.0597183" lon="13.0615233"><ele>454.33333333333337</ele><time>2026-04-26T10:06:26.511Z</time></trkpt><trkpt lat="43.05949" lon="13.06147"><ele>454.66666666666663</ele><time>2026-04-26T10:06:27.51Z</time></trkpt><trkpt lat="43.0592767" lon="13.0614233"><ele>455.0</ele><time>2026-04-26T10:06:28.51Z</time></trkpt><trkpt lat="43.0590683" lon="13.0613617"><ele>454.3333333333333</ele><time>2026-04-26T10:06:29.51Z</time></trkpt><trkpt lat="43.0588583" lon="13.0612817"><ele>453.66666666666663</ele><time>2026-04-26T10:06:30.51Z</time></trkpt><trkpt lat="43.0586467" lon="13.0611867"><ele>453.0</ele><time>2026-04-26T10:06:31.51Z</time></trkpt><trkpt lat="43.058435" lon="13.06108"><ele>451.5</ele><time>2026-04-26T10:06:32.51Z</time></trkpt><trkpt lat="43.0582167" lon="13.060955"><ele>450.0</ele><time>2026-04-26T10:06:33.51Z</time></trkpt><trkpt lat="43.0580067" lon="13.0608133"><ele>454.5</ele><time>2026-04-26T10:06:34.511Z</time></trkpt><trkpt lat="43.0577917" lon="13.06065"><ele>459.0</ele><time>2026-04-26T10:06:35.51Z</time></trkpt><trkpt lat="43.0575717" lon="13.0604917"><ele>456.5</ele><time>2026-04-26T10:06:36.51Z</time></trkpt><trkpt lat="43.0573517" lon="13.0603317"><ele>454.0</ele><time>2026-04-26T10:06:37.51Z</time></trkpt><trkpt lat="43.0571267" lon="13.06017"><ele>454.0</ele><time>2026-04-26T10:06:38.511Z</time></trkpt><trkpt lat="43.0569" lon="13.06001"><ele>454.0</ele><time>2026-04-26T10:06:39.51Z</time></trkpt><trkpt lat="43.0566783" lon="13.0598533"><ele>457.0</ele><time>2026-04-26T10:06:40.51Z</time></trkpt><trkpt lat="43.0564583" lon="13.0596867"><ele>460.0</ele><time>2026-04-26T10:06:41.51Z</time></trkpt><trkpt lat="43.0562367" lon="13.0595233"><ele>460.0</ele><time>2026-04-26T10:06:42.51Z</time></trkpt><trkpt lat="43.05601" lon="13.0593567"><ele>460.0</ele><time>2026-04-26T10:06:43.511Z</time></trkpt><trkpt lat="43.0557817" lon="13.0592017"><ele>461.0</ele><time>2026-04-26T10:06:44.51Z</time></trkpt><trkpt lat="43.055555" lon="13.0590417"><ele>462.0</ele><time>2026-04-26T10:06:45.51Z</time></trkpt><trkpt lat="43.05533" lon="13.05888"><ele>462.0</ele><time>2026-04-26T10:06:46.511Z</time></trkpt><trkpt lat="43.055105" lon="13.0587217"><ele>462.0</ele><time>2026-04-26T10:06:47.51Z</time></trkpt><trkpt lat="43.05488" lon="13.0585683"><ele>460.0</ele><time>2026-04-26T10:06:48.51Z</time></trkpt><trkpt lat="43.054655" lon="13.0584167"><ele>458.0</ele><time>2026-04-26T10:06:49.51Z</time></trkpt><trkpt lat="43.0544383" lon="13.058275"><ele>457.66666666666663</ele><time>2026-04-26T10:06:50.51Z</time></trkpt><trkpt lat="43.0542367" lon="13.0581433"><ele>457.33333333333337</ele><time>2026-04-26T10:06:51.51Z</time></trkpt><trkpt lat="43.0540433" lon="13.0580083"><ele>457.0</ele><time>2026-04-26T10:06:52.51Z</time></trkpt><trkpt lat="43.05386" lon="13.057865"><ele>457.0</ele><time>2026-04-26T10:06:53.51Z</time></trkpt><trkpt lat="43.0536733" lon="13.0577117"><ele>457.0</ele><time>2026-04-26T10:06:54.51Z</time></trkpt><trkpt lat="43.0534867" lon="13.0575517"><ele>457.0</ele><time>2026-04-26T10:06:55.51Z</time></trkpt><trkpt lat="43.05331" lon="13.0573817"><ele>457.6666666666667</ele><time>2026-04-26T10:06:56.51Z</time></trkpt><trkpt lat="43.053135" lon="13.0571917"><ele>458.33333333333337</ele><time>2026-04-26T10:06:57.51Z</time></trkpt><trkpt lat="43.052965" lon="13.0570033"><ele>459.0</ele><time>2026-04-26T10:06:58.51Z</time></trkpt><trkpt lat="43.0527983" lon="13.0568067"><ele>461.0</ele><time>2026-04-26T10:06:59.51Z</time></trkpt><trkpt lat="43.0526333" lon="13.0565967"><ele>463.0</ele><time>2026-04-26T10:07:00.51Z</time></trkpt><trkpt lat="43.05247" lon="13.0563833"><ele>461.0</ele><time>2026-04-26T10:07:01.51Z</time></trkpt><trkpt lat="43.0523" lon="13.05617"><ele>459.0</ele><time>2026-04-26T10:07:02.51Z</time></trkpt><trkpt lat="43.052135" lon="13.0559617"><ele>460.5</ele><time>2026-04-26T10:07:03.51Z</time></trkpt><trkpt lat="43.051965" lon="13.0557633"><ele>462.0</ele><time>2026-04-26T10:07:04.511Z</time></trkpt><trkpt lat="43.0517783" lon="13.0555733"><ele>460.0</ele><time>2026-04-26T10:07:05.51Z</time></trkpt><trkpt lat="43.05158" lon="13.0553883"><ele>458.0</ele><time>2026-04-26T10:07:06.51Z</time></trkpt><trkpt lat="43.0513767" lon="13.0552067"><ele>458.0</ele><time>2026-04-26T10:07:07.51Z</time></trkpt><trkpt lat="43.0511733" lon="13.0550267"><ele>458.0</ele><time>2026-04-26T10:07:08.51Z</time></trkpt><trkpt lat="43.050965" lon="13.0548433"><ele>459.0</ele><time>2026-04-26T10:07:09.51Z</time></trkpt><trkpt lat="43.0507617" lon="13.0546567"><ele>460.0</ele><time>2026-04-26T10:07:10.511Z</time></trkpt><trkpt lat="43.0505567" lon="13.0544583"><ele>460.0</ele><time>2026-04-26T10:07:11.51Z</time></trkpt><trkpt lat="43.050355" lon="13.054265"><ele>460.0</ele><time>2026-04-26T10:07:12.51Z</time></trkpt><trkpt lat="43.0501517" lon="13.0540683"><ele>461.5</ele><time>2026-04-26T10:07:13.51Z</time></trkpt><trkpt lat="43.0499433" lon="13.0538883"><ele>463.0</ele><time>2026-04-26T10:07:14.51Z</time></trkpt><trkpt lat="43.0497383" lon="13.05371"><ele>463.0</ele><time>2026-04-26T10:07:15.51Z</time></trkpt><trkpt lat="43.04953" lon="13.053545"><ele>463.0</ele><time>2026-04-26T10:07:16.51Z</time></trkpt><trkpt lat="43.0493133" lon="13.0533883"><ele>464.5</ele><time>2026-04-26T10:07:17.51Z</time></trkpt><trkpt lat="43.049085" lon="13.0532517"><ele>466.0</ele><time>2026-04-26T10:07:18.511Z</time></trkpt><trkpt lat="43.0488583" lon="13.0531283"><ele>466.0</ele><time>2026-04-26T10:07:19.51Z</time></trkpt><trkpt lat="43.0486267" lon="13.053005"><ele>466.0</ele><time>2026-04-26T10:07:20.51Z</time></trkpt><trkpt lat="43.0483967" lon="13.05289"><ele>465.5</ele><time>2026-04-26T10:07:21.511Z</time></trkpt><trkpt lat="43.0481667" lon="13.0527867"><ele>465.0</ele><time>2026-04-26T10:07:22.51Z</time></trkpt><trkpt lat="43.0479367" lon="13.0526783"><ele>465.0</ele><time>2026-04-26T10:07:23.51Z</time></trkpt><trkpt lat="43.0477083" lon="13.0525717"><ele>465.0</ele><time>2026-04-26T10:07:24.51Z</time></trkpt><trkpt lat="43.0474967" lon="13.0524583"><ele>467.0</ele><time>2026-04-26T10:07:25.51Z</time></trkpt><trkpt lat="43.0472967" lon="13.0523617"><ele>469.0</ele><time>2026-04-26T10:07:26.51Z</time></trkpt><trkpt lat="43.0471067" lon="13.052265"><ele>471.0</ele><time>2026-04-26T10:07:27.51Z</time></trkpt><trkpt lat="43.046925" lon="13.052185"><ele>471.0</ele><time>2026-04-26T10:07:28.51Z</time></trkpt><trkpt lat="43.0467567" lon="13.05212"><ele>471.0</ele><time>2026-04-26T10:07:29.51Z</time></trkpt><trkpt lat="43.0465817" lon="13.0520783"><ele>471.0</ele><time>2026-04-26T10:07:30.51Z</time></trkpt><trkpt lat="43.046405" lon="13.0520583"><ele>470.33333333333337</ele><time>2026-04-26T10:07:31.51Z</time></trkpt><trkpt lat="43.0462233" lon="13.0520583"><ele>469.6666666666667</ele><time>2026-04-26T10:07:32.51Z</time></trkpt><trkpt lat="43.0460417" lon="13.0520517"><ele>469.0</ele><time>2026-04-26T10:07:33.51Z</time></trkpt><trkpt lat="43.0458683" lon="13.0520467"><ele>468.6666666666667</ele><time>2026-04-26T10:07:34.51Z</time></trkpt><trkpt lat="43.0457117" lon="13.052035"><ele>468.33333333333337</ele><time>2026-04-26T10:07:35.51Z</time></trkpt><trkpt lat="43.045555" lon="13.0520033"><ele>468.0</ele><time>2026-04-26T10:07:36.511Z</time></trkpt><trkpt lat="43.0453967" lon="13.0519483"><ele>468.0</ele><time>2026-04-26T10:07:37.51Z</time></trkpt><trkpt lat="43.04523" lon="13.05187"><ele>468.0</ele><time>2026-04-26T10:07:38.51Z</time></trkpt><trkpt lat="43.0450617" lon="13.0517767"><ele>468.0</ele><time>2026-04-26T10:07:39.51Z</time></trkpt><trkpt lat="43.0448933" lon="13.0516617"><ele>469.33333333333337</ele><time>2026-04-26T10:07:40.51Z</time></trkpt><trkpt lat="43.0447217" lon="13.0515317"><ele>470.6666666666667</ele><time>2026-04-26T10:07:41.51Z</time></trkpt><trkpt lat="43.0445617" lon="13.0513867"><ele>472.0</ele><time>2026-04-26T10:07:42.51Z</time></trkpt><trkpt lat="43.0443933" lon="13.0512333"><ele>472.0</ele><time>2026-04-26T10:07:43.51Z</time></trkpt><trkpt lat="43.0442183" lon="13.0510783"><ele>472.0</ele><time>2026-04-26T10:07:44.51Z</time></trkpt><trkpt lat="43.0440467" lon="13.05093"><ele>472.0</ele><time>2026-04-26T10:07:45.51Z</time></trkpt><trkpt lat="43.043875" lon="13.0507867"><ele>471.6666666666667</ele><time>2026-04-26T10:07:46.51Z</time></trkpt><trkpt lat="43.0437033" lon="13.050645"><ele>471.33333333333337</ele><time>2026-04-26T10:07:47.51Z</time></trkpt><trkpt lat="43.043535" lon="13.0505017"><ele>471.0</ele><time>2026-04-26T10:07:48.51Z</time></trkpt><trkpt lat="43.0433667" lon="13.050365"><ele>471.0</ele><time>2026-04-26T10:07:49.51Z</time></trkpt><trkpt lat="43.0431983" lon="13.0502267"><ele>471.0</ele><time>2026-04-26T10:07:50.51Z</time></trkpt><trkpt lat="43.0430417" lon="13.050095"><ele>471.0</ele><time>2026-04-26T10:07:51.51Z</time></trkpt><trkpt lat="43.0429033" lon="13.0499683"><ele>471.33333333333337</ele><time>2026-04-26T10:07:52.51Z</time></trkpt><trkpt lat="43.04277" lon="13.0498433"><ele>471.6666666666667</ele><time>2026-04-26T10:07:53.51Z</time></trkpt><trkpt lat="43.042645" lon="13.0497367"><ele>472.0</ele><time>2026-04-26T10:07:54.511Z</time></trkpt><trkpt lat="43.0425267" lon="13.0496233"><ele>472.0</ele><time>2026-04-26T10:07:55.511Z</time></trkpt><trkpt lat="43.0424067" lon="13.04951"><ele>472.0</ele><time>2026-04-26T10:07:56.51Z</time></trkpt><trkpt lat="43.042285" lon="13.0493983"><ele>472.0</ele><time>2026-04-26T10:07:57.51Z</time></trkpt><trkpt lat="43.0421567" lon="13.0492817"><ele>472.0</ele><time>2026-04-26T10:07:58.51Z</time></trkpt><trkpt lat="43.0420183" lon="13.0491633"><ele>473.0</ele><time>2026-04-26T10:07:59.51Z</time></trkpt><trkpt lat="43.0418883" lon="13.049035"><ele>474.0</ele><time>2026-04-26T10:08:00.51Z</time></trkpt><trkpt lat="43.0417533" lon="13.0489083"><ele>475.0</ele><time>2026-04-26T10:08:01.51Z</time></trkpt><trkpt lat="43.04162" lon="13.048775"><ele>475.33333333333337</ele><time>2026-04-26T10:08:02.511Z</time></trkpt><trkpt lat="43.04149" lon="13.04865"><ele>475.66666666666663</ele><time>2026-04-26T10:08:03.51Z</time></trkpt><trkpt lat="43.0413633" lon="13.04853"><ele>476.0</ele><time>2026-04-26T10:08:04.51Z</time></trkpt><trkpt lat="43.0412483" lon="13.04842"><ele>475.99999999999994</ele><time>2026-04-26T10:08:05.51Z</time></trkpt><trkpt lat="43.0411583" lon="13.0483167"><ele>476.0</ele><time>2026-04-26T10:08:06.51Z</time></trkpt><trkpt lat="43.0410817" lon="13.0482567"><ele>476.0</ele><time>2026-04-26T10:08:07.51Z</time></trkpt><trkpt lat="43.041035" lon="13.0481933"><ele>476.0</ele><time>2026-04-26T10:08:08.51Z</time></trkpt><trkpt lat="43.0410167" lon="13.0480867"><ele>475.99999999999994</ele><time>2026-04-26T10:08:10.51Z</time></trkpt><trkpt lat="43.0410833" lon="13.048035"><ele>476.0</ele><time>2026-04-26T10:08:12.51Z</time></trkpt><trkpt lat="43.0411517" lon="13.0480383"><ele>475.75</ele><time>2026-04-26T10:08:13.51Z</time></trkpt><trkpt lat="43.041245" lon="13.0480383"><ele>475.5</ele><time>2026-04-26T10:08:14.51Z</time></trkpt><trkpt lat="43.0413583" lon="13.04803"><ele>475.25</ele><time>2026-04-26T10:08:15.51Z</time></trkpt><trkpt lat="43.0414817" lon="13.048025"><ele>475.0</ele><time>2026-04-26T10:08:16.51Z</time></trkpt><trkpt lat="43.041605" lon="13.04801"><ele>475.2</ele><time>2026-04-26T10:08:17.51Z</time></trkpt><trkpt lat="43.0417233" lon="13.0479983"><ele>475.4</ele><time>2026-04-26T10:08:18.51Z</time></trkpt><trkpt lat="43.041835" lon="13.0479917"><ele>475.6</ele><time>2026-04-26T10:08:19.51Z</time></trkpt><trkpt lat="43.041935" lon="13.0479867"><ele>475.8</ele><time>2026-04-26T10:08:20.511Z</time></trkpt><trkpt lat="43.0420267" lon="13.0479717"><ele>476.0</ele><time>2026-04-26T10:08:21.51Z</time></trkpt><trkpt lat="43.0421167" lon="13.0479483"><ele>476.0</ele><time>2026-04-26T10:08:22.51Z</time></trkpt><trkpt lat="43.0421933" lon="13.0478983"><ele>476.0</ele><time>2026-04-26T10:08:23.51Z</time></trkpt><trkpt lat="43.042275" lon="13.0478083"><ele>476.0</ele><time>2026-04-26T10:08:24.51Z</time></trkpt><trkpt lat="43.0423633" lon="13.04769"><ele>476.0</ele><time>2026-04-26T10:08:25.51Z</time></trkpt><trkpt lat="43.0424683" lon="13.0475633"><ele>479.0</ele><time>2026-04-26T10:08:26.51Z</time></trkpt><trkpt lat="43.0425783" lon="13.0474233"><ele>482.0</ele><time>2026-04-26T10:08:27.511Z</time></trkpt><trkpt lat="43.042685" lon="13.047285"><ele>485.0</ele><time>2026-04-26T10:08:28.51Z</time></trkpt><trkpt lat="43.0427933" lon="13.0471333"><ele>485.0</ele><time>2026-04-26T10:08:29.51Z</time></trkpt><trkpt lat="43.0428983" lon="13.046995"><ele>485.0</ele><time>2026-04-26T10:08:30.51Z</time></trkpt><trkpt lat="43.0430133" lon="13.046855"><ele>485.0</ele><time>2026-04-26T10:08:31.51Z</time></trkpt><trkpt lat="43.0431167" lon="13.0466933"><ele>485.75</ele><time>2026-04-26T10:08:32.51Z</time></trkpt><trkpt lat="43.0432083" lon="13.0465283"><ele>486.5</ele><time>2026-04-26T10:08:33.511Z</time></trkpt><trkpt lat="43.0432733" lon="13.0463667"><ele>487.25</ele><time>2026-04-26T10:08:34.511Z</time></trkpt><trkpt lat="43.04333" lon="13.04622"><ele>488.0</ele><time>2026-04-26T10:08:35.51Z</time></trkpt><trkpt lat="43.0433817" lon="13.0460883"><ele>488.0</ele><time>2026-04-26T10:08:36.51Z</time></trkpt><trkpt lat="43.043425" lon="13.04597"><ele>487.99999999999994</ele><time>2026-04-26T10:08:37.51Z</time></trkpt><trkpt lat="43.0434683" lon="13.0458533"><ele>487.99999999999994</ele><time>2026-04-26T10:08:38.51Z</time></trkpt><trkpt lat="43.0435017" lon="13.0457267"><ele>488.0</ele><time>2026-04-26T10:08:39.51Z</time></trkpt><trkpt lat="43.0435233" lon="13.045605"><ele>488.0</ele><time>2026-04-26T10:08:40.51Z</time></trkpt><trkpt lat="43.0435417" lon="13.0454717"><ele>488.16666666666663</ele><time>2026-04-26T10:08:41.51Z</time></trkpt><trkpt lat="43.0435417" lon="13.045345"><ele>488.3333333333333</ele><time>2026-04-26T10:08:42.51Z</time></trkpt><trkpt lat="43.0435383" lon="13.04524"><ele>488.5</ele><time>2026-04-26T10:08:43.51Z</time></trkpt><trkpt lat="43.0435317" lon="13.0451383"><ele>488.66666666666663</ele><time>2026-04-26T10:08:44.511Z</time></trkpt><trkpt lat="43.0435233" lon="13.04502"><ele>488.8333333333333</ele><time>2026-04-26T10:08:45.511Z</time></trkpt><trkpt lat="43.04352" lon="13.04488"><ele>489.0</ele><time>2026-04-26T10:08:46.51Z</time></trkpt><trkpt lat="43.04351" lon="13.044715"><ele>489.0</ele><time>2026-04-26T10:08:47.51Z</time></trkpt><trkpt lat="43.0435033" lon="13.0445367"><ele>489.0</ele><time>2026-04-26T10:08:48.511Z</time></trkpt><trkpt lat="43.0435033" lon="13.0443417"><ele>489.0</ele><time>2026-04-26T10:08:49.51Z</time></trkpt><trkpt lat="43.043495" lon="13.04414"><ele>489.0</ele><time>2026-04-26T10:08:50.51Z</time></trkpt><trkpt lat="43.0434917" lon="13.0439283"><ele>489.33333333333337</ele><time>2026-04-26T10:08:51.51Z</time></trkpt><trkpt lat="43.0434917" lon="13.0437183"><ele>489.6666666666667</ele><time>2026-04-26T10:08:52.51Z</time></trkpt><trkpt lat="43.0434933" lon="13.043505"><ele>490.0</ele><time>2026-04-26T10:08:53.51Z</time></trkpt><trkpt lat="43.04349" lon="13.043275"><ele>491.0</ele><time>2026-04-26T10:08:54.51Z</time></trkpt><trkpt lat="43.0435" lon="13.0430517"><ele>492.0</ele><time>2026-04-26T10:08:55.51Z</time></trkpt><trkpt lat="43.04349" lon="13.0428283"><ele>493.0</ele><time>2026-04-26T10:08:56.511Z</time></trkpt><trkpt lat="43.04349" lon="13.0426017"><ele>493.6666666666667</ele><time>2026-04-26T10:08:57.51Z</time></trkpt><trkpt lat="43.043485" lon="13.0423667"><ele>494.33333333333337</ele><time>2026-04-26T10:08:58.51Z</time></trkpt><trkpt lat="43.043485" lon="13.0421417"><ele>495.0</ele><time>2026-04-26T10:08:59.51Z</time></trkpt><trkpt lat="43.0434867" lon="13.0419083"><ele>495.0</ele><time>2026-04-26T10:09:00.51Z</time></trkpt><trkpt lat="43.043485" lon="13.0416717"><ele>495.0</ele><time>2026-04-26T10:09:01.51Z</time></trkpt><trkpt lat="43.0434883" lon="13.0414433"><ele>495.0</ele><time>2026-04-26T10:09:02.51Z</time></trkpt><trkpt lat="43.0434867" lon="13.0412167"><ele>494.66666666666663</ele><time>2026-04-26T10:09:03.51Z</time></trkpt><trkpt lat="43.04349" lon="13.040985"><ele>494.3333333333333</ele><time>2026-04-26T10:09:04.511Z</time></trkpt><trkpt lat="43.0434867" lon="13.0407533"><ele>494.0</ele><time>2026-04-26T10:09:05.511Z</time></trkpt><trkpt lat="43.0434833" lon="13.0405183"><ele>495.0</ele><time>2026-04-26T10:09:06.51Z</time></trkpt><trkpt lat="43.0434833" lon="13.0402767"><ele>496.0</ele><time>2026-04-26T10:09:07.51Z</time></trkpt><trkpt lat="43.04348" lon="13.0400467"><ele>497.0</ele><time>2026-04-26T10:09:08.51Z</time></trkpt><trkpt lat="43.0434833" lon="13.039805"><ele>497.5</ele><time>2026-04-26T10:09:09.51Z</time></trkpt><trkpt lat="43.043485" lon="13.0395717"><ele>498.0</ele><time>2026-04-26T10:09:10.51Z</time></trkpt><trkpt lat="43.0434933" lon="13.0393683"><ele>498.5</ele><time>2026-04-26T10:09:11.511Z</time></trkpt><trkpt lat="43.0435" lon="13.03923"><ele>499.0</ele><time>2026-04-26T10:09:12.51Z</time></trkpt><trkpt lat="43.0434967" lon="13.0391333"><ele>499.4</ele><time>2026-04-26T10:09:13.51Z</time></trkpt><trkpt lat="43.0435033" lon="13.0389967"><ele>499.79999999999995</ele><time>2026-04-26T10:09:15.51Z</time></trkpt><trkpt lat="43.0435067" lon="13.0389017"><ele>500.20000000000005</ele><time>2026-04-26T10:09:18.51Z</time></trkpt><trkpt lat="43.0435" lon="13.0387133"><ele>500.6</ele><time>2026-04-26T10:09:20.51Z</time></trkpt><trkpt lat="43.0434817" lon="13.0385683"><ele>501.0</ele><time>2026-04-26T10:09:21.51Z</time></trkpt><trkpt lat="43.0434717" lon="13.0383683"><ele>501.0</ele><time>2026-04-26T10:09:22.51Z</time></trkpt><trkpt lat="43.0434567" lon="13.03813"><ele>501.0</ele><time>2026-04-26T10:09:23.511Z</time></trkpt><trkpt lat="43.0434509" lon="13.0378673"><ele>501.0</ele><time>2026-04-26T10:09:24.51Z</time></trkpt><trkpt lat="43.0434532" lon="13.0375781"><ele>502.33333333333337</ele><time>2026-04-26T10:09:25.51Z</time></trkpt><trkpt lat="43.0434513" lon="13.0373101"><ele>503.6666666666667</ele><time>2026-04-26T10:09:26.51Z</time></trkpt><trkpt lat="43.0434442" lon="13.0370764"><ele>505.0</ele><time>2026-04-26T10:09:27.511Z</time></trkpt><trkpt lat="43.0434367" lon="13.0368833"><ele>505.0</ele><time>2026-04-26T10:09:28.51Z</time></trkpt><trkpt lat="43.0434483" lon="13.0366917"><ele>505.0</ele><time>2026-04-26T10:09:29.51Z</time></trkpt><trkpt lat="43.04348" lon="13.0364983"><ele>505.0</ele><time>2026-04-26T10:09:30.511Z</time></trkpt><trkpt lat="43.0435267" lon="13.0362867"><ele>505.0</ele><time>2026-04-26T10:09:31.511Z</time></trkpt><trkpt lat="43.04358" lon="13.0360683"><ele>505.0</ele><time>2026-04-26T10:09:32.51Z</time></trkpt><trkpt lat="43.0436367" lon="13.03583"><ele>505.0</ele><time>2026-04-26T10:09:33.51Z</time></trkpt><trkpt lat="43.0437033" lon="13.03558"><ele>505.0</ele><time>2026-04-26T10:09:34.51Z</time></trkpt><trkpt lat="43.0437667" lon="13.0353283"><ele>506.6666666666667</ele><time>2026-04-26T10:09:35.51Z</time></trkpt><trkpt lat="43.0438367" lon="13.0350717"><ele>508.33333333333337</ele><time>2026-04-26T10:09:36.51Z</time></trkpt><trkpt lat="43.04389" lon="13.034825"><ele>510.0</ele><time>2026-04-26T10:09:37.51Z</time></trkpt><trkpt lat="43.0439183" lon="13.0345767"><ele>510.66666666666663</ele><time>2026-04-26T10:09:38.511Z</time></trkpt><trkpt lat="43.0439317" lon="13.0343217"><ele>511.3333333333333</ele><time>2026-04-26T10:09:39.51Z</time></trkpt><trkpt lat="43.0439283" lon="13.03406"><ele>512.0</ele><time>2026-04-26T10:09:40.511Z</time></trkpt><trkpt lat="43.043925" lon="13.0337817"><ele>512.6666666666666</ele><time>2026-04-26T10:09:41.51Z</time></trkpt><trkpt lat="43.043925" lon="13.0335067"><ele>513.3333333333334</ele><time>2026-04-26T10:09:42.51Z</time></trkpt><trkpt lat="43.0439217" lon="13.0332367"><ele>514.0</ele><time>2026-04-26T10:09:43.51Z</time></trkpt><trkpt lat="43.0439167" lon="13.0329667"><ele>514.0</ele><time>2026-04-26T10:09:44.51Z</time></trkpt><trkpt lat="43.0439117" lon="13.0327167"><ele>514.0</ele><time>2026-04-26T10:09:45.511Z</time></trkpt><trkpt lat="43.0438817" lon="13.03248"><ele>514.0</ele><time>2026-04-26T10:09:46.511Z</time></trkpt><trkpt lat="43.0438317" lon="13.0322417"><ele>515.3333333333334</ele><time>2026-04-26T10:09:47.51Z</time></trkpt><trkpt lat="43.0437683" lon="13.0320033"><ele>516.6666666666666</ele><time>2026-04-26T10:09:48.51Z</time></trkpt><trkpt lat="43.043715" lon="13.0317967"><ele>518.0</ele><time>2026-04-26T10:09:49.51Z</time></trkpt><trkpt lat="43.043685" lon="13.031615"><ele>519.25</ele><time>2026-04-26T10:09:50.51Z</time></trkpt><trkpt lat="43.0436733" lon="13.0314367"><ele>520.5</ele><time>2026-04-26T10:09:51.511Z</time></trkpt><trkpt lat="43.04369" lon="13.0312583"><ele>521.75</ele><time>2026-04-26T10:09:52.51Z</time></trkpt><trkpt lat="43.04373" lon="13.03107"><ele>523.0</ele><time>2026-04-26T10:09:53.51Z</time></trkpt><trkpt lat="43.04377" lon="13.030875"><ele>524.6666666666667</ele><time>2026-04-26T10:09:54.51Z</time></trkpt><trkpt lat="43.0437867" lon="13.0306617"><ele>526.3333333333334</ele><time>2026-04-26T10:09:55.511Z</time></trkpt><trkpt lat="43.0437783" lon="13.03042"><ele>528.0</ele><time>2026-04-26T10:09:56.511Z</time></trkpt><trkpt lat="43.0437617" lon="13.0301683"><ele>530.0</ele><time>2026-04-26T10:09:57.51Z</time></trkpt><trkpt lat="43.04373" lon="13.029905"><ele>532.0</ele><time>2026-04-26T10:09:58.51Z</time></trkpt><trkpt lat="43.043685" lon="13.029635"><ele>534.0</ele><time>2026-04-26T10:09:59.51Z</time></trkpt><trkpt lat="43.04362" lon="13.0293717"><ele>534.6666666666666</ele><time>2026-04-26T10:10:00.51Z</time></trkpt><trkpt lat="43.0435567" lon="13.029135"><ele>535.3333333333333</ele><time>2026-04-26T10:10:01.511Z</time></trkpt><trkpt lat="43.0435033" lon="13.028915"><ele>536.0</ele><time>2026-04-26T10:10:02.51Z</time></trkpt><trkpt lat="43.043475" lon="13.0287067"><ele>536.0</ele><time>2026-04-26T10:10:03.51Z</time></trkpt><trkpt lat="43.04347" lon="13.0284733"><ele>536.0</ele><time>2026-04-26T10:10:04.51Z</time></trkpt><trkpt lat="43.043485" lon="13.0282317"><ele>536.0</ele><time>2026-04-26T10:10:05.51Z</time></trkpt><trkpt lat="43.0435067" lon="13.0279817"><ele>536.0</ele><time>2026-04-26T10:10:06.51Z</time></trkpt><trkpt lat="43.0435383" lon="13.027715"><ele>536.0</ele><time>2026-04-26T10:10:07.51Z</time></trkpt><trkpt lat="43.0435467" lon="13.0274417"><ele>536.0</ele><time>2026-04-26T10:10:08.51Z</time></trkpt><trkpt lat="43.0435367" lon="13.0271483"><ele>538.0</ele><time>2026-04-26T10:10:09.51Z</time></trkpt><trkpt lat="43.0435333" lon="13.0268567"><ele>540.0</ele><time>2026-04-26T10:10:10.51Z</time></trkpt><trkpt lat="43.04352" lon="13.026555"><ele>542.0</ele><time>2026-04-26T10:10:11.511Z</time></trkpt><trkpt lat="43.0435133" lon="13.02626"><ele>542.6666666666666</ele><time>2026-04-26T10:10:12.51Z</time></trkpt><trkpt lat="43.0435117" lon="13.0259983"><ele>543.3333333333334</ele><time>2026-04-26T10:10:13.51Z</time></trkpt><trkpt lat="43.0435283" lon="13.0257433"><ele>544.0</ele><time>2026-04-26T10:10:14.51Z</time></trkpt><trkpt lat="43.043575" lon="13.0255033"><ele>544.0</ele><time>2026-04-26T10:10:15.511Z</time></trkpt><trkpt lat="43.0436233" lon="13.02528"><ele>544.0</ele><time>2026-04-26T10:10:16.51Z</time></trkpt><trkpt lat="43.0436767" lon="13.025085"><ele>544.0</ele><time>2026-04-26T10:10:17.51Z</time></trkpt><trkpt lat="43.0437317" lon="13.024895"><ele>544.0</ele><time>2026-04-26T10:10:18.51Z</time></trkpt><trkpt lat="43.04377" lon="13.024715"><ele>544.0</ele><time>2026-04-26T10:10:19.511Z</time></trkpt><trkpt lat="43.04379" lon="13.02452"><ele>544.0</ele><time>2026-04-26T10:10:20.51Z</time></trkpt><trkpt lat="43.0437883" lon="13.024315"><ele>544.0</ele><time>2026-04-26T10:10:21.51Z</time></trkpt><trkpt lat="43.0437633" lon="13.0240783"><ele>543.3333333333334</ele><time>2026-04-26T10:10:22.51Z</time></trkpt><trkpt lat="43.0437367" lon="13.02382"><ele>542.6666666666666</ele><time>2026-04-26T10:10:23.511Z</time></trkpt><trkpt lat="43.043725" lon="13.023565"><ele>542.0</ele><time>2026-04-26T10:10:24.511Z</time></trkpt><trkpt lat="43.0437317" lon="13.0233267"><ele>544.3333333333333</ele><time>2026-04-26T10:10:25.51Z</time></trkpt><trkpt lat="43.0437417" lon="13.0230867"><ele>546.6666666666666</ele><time>2026-04-26T10:10:26.51Z</time></trkpt><trkpt lat="43.0437567" lon="13.0228533"><ele>549.0</ele><time>2026-04-26T10:10:27.511Z</time></trkpt><trkpt lat="43.0437517" lon="13.02261"><ele>549.3333333333334</ele><time>2026-04-26T10:10:28.51Z</time></trkpt><trkpt lat="43.0437217" lon="13.0223533"><ele>549.6666666666667</ele><time>2026-04-26T10:10:29.511Z</time></trkpt><trkpt lat="43.0436783" lon="13.0220733"><ele>550.0</ele><time>2026-04-26T10:10:30.511Z</time></trkpt><trkpt lat="43.0436483" lon="13.0218"><ele>550.0</ele><time>2026-04-26T10:10:31.511Z</time></trkpt><trkpt lat="43.0436283" lon="13.0215267"><ele>550.0</ele><time>2026-04-26T10:10:32.511Z</time></trkpt><trkpt lat="43.0436083" lon="13.0212767"><ele>550.0</ele><time>2026-04-26T10:10:33.51Z</time></trkpt><trkpt lat="43.0436067" lon="13.021055"><ele>550.0</ele><time>2026-04-26T10:10:34.511Z</time></trkpt><trkpt lat="43.04361" lon="13.0208583"><ele>550.0</ele><time>2026-04-26T10:10:35.511Z</time></trkpt><trkpt lat="43.043595" lon="13.0207"><ele>550.0</ele><time>2026-04-26T10:10:36.51Z</time></trkpt><trkpt lat="43.0435633" lon="13.02057"><ele>550.0</ele><time>2026-04-26T10:10:37.51Z</time></trkpt><trkpt lat="43.0435133" lon="13.0204633"><ele>550.6</ele><time>2026-04-26T10:10:38.51Z</time></trkpt><trkpt lat="43.0434467" lon="13.0203667"><ele>551.2</ele><time>2026-04-26T10:10:39.51Z</time></trkpt><trkpt lat="43.0433667" lon="13.0202833"><ele>551.8</ele><time>2026-04-26T10:10:40.51Z</time></trkpt><trkpt lat="43.0432867" lon="13.0202"><ele>552.4</ele><time>2026-04-26T10:10:41.511Z</time></trkpt><trkpt lat="43.0432017" lon="13.0201067"><ele>553.0</ele><time>2026-04-26T10:10:42.51Z</time></trkpt><trkpt lat="43.0431167" lon="13.02"><ele>563.5</ele><time>2026-04-26T10:10:43.51Z</time></trkpt><trkpt lat="43.04305" lon="13.019875"><ele>574.0</ele><time>2026-04-26T10:10:44.51Z</time></trkpt><trkpt lat="43.04302" lon="13.0197333"><ele>584.5</ele><time>2026-04-26T10:10:45.51Z</time></trkpt><trkpt lat="43.0430167" lon="13.019585"><ele>595.0</ele><time>2026-04-26T10:10:46.511Z</time></trkpt><trkpt lat="43.0430383" lon="13.0194183"><ele>595.0</ele><time>2026-04-26T10:10:47.51Z</time></trkpt><trkpt lat="43.0430717" lon="13.0192483"><ele>595.0</ele><time>2026-04-26T10:10:48.51Z</time></trkpt><trkpt lat="43.043085" lon="13.0190833"><ele>595.0</ele><time>2026-04-26T10:10:49.51Z</time></trkpt><trkpt lat="43.043065" lon="13.01893"><ele>595.0</ele><time>2026-04-26T10:10:50.51Z</time></trkpt><trkpt lat="43.0430033" lon="13.018765"><ele>595.75</ele><time>2026-04-26T10:10:51.511Z</time></trkpt><trkpt lat="43.042925" lon="13.0185967"><ele>596.5</ele><time>2026-04-26T10:10:52.51Z</time></trkpt><trkpt lat="43.0428633" lon="13.0184133"><ele>597.25</ele><time>2026-04-26T10:10:53.511Z</time></trkpt><trkpt lat="43.0428217" lon="13.0182167"><ele>598.0</ele><time>2026-04-26T10:10:54.51Z</time></trkpt><trkpt lat="43.0428067" lon="13.0180133"><ele>600.3333333333334</ele><time>2026-04-26T10:10:55.51Z</time></trkpt><trkpt lat="43.0428183" lon="13.017775"><ele>602.6666666666666</ele><time>2026-04-26T10:10:56.51Z</time></trkpt><trkpt lat="43.0428283" lon="13.0175233"><ele>605.0</ele><time>2026-04-26T10:10:57.511Z</time></trkpt><trkpt lat="43.042865" lon="13.0172583"><ele>608.6666666666666</ele><time>2026-04-26T10:10:58.51Z</time></trkpt><trkpt lat="43.0428967" lon="13.0169917"><ele>612.3333333333334</ele><time>2026-04-26T10:10:59.51Z</time></trkpt><trkpt lat="43.0429117" lon="13.016725"><ele>616.0</ele><time>2026-04-26T10:11:00.51Z</time></trkpt><trkpt lat="43.0429167" lon="13.0164683"><ele>617.0</ele><time>2026-04-26T10:11:01.51Z</time></trkpt><trkpt lat="43.04292" lon="13.0162417"><ele>618.0</ele><time>2026-04-26T10:11:02.51Z</time></trkpt><trkpt lat="43.0429267" lon="13.0160433"><ele>619.0</ele><time>2026-04-26T10:11:03.51Z</time></trkpt><trkpt lat="43.0429483" lon="13.01586"><ele>620.0</ele><time>2026-04-26T10:11:04.511Z</time></trkpt><trkpt lat="43.042985" lon="13.0156817"><ele>621.0</ele><time>2026-04-26T10:11:05.51Z</time></trkpt><trkpt lat="43.0430133" lon="13.0154933"><ele>622.0</ele><time>2026-04-26T10:11:06.51Z</time></trkpt><trkpt lat="43.0430183" lon="13.01528"><ele>623.0</ele><time>2026-04-26T10:11:07.51Z</time></trkpt><trkpt lat="43.0430117" lon="13.01506"><ele>621.75</ele><time>2026-04-26T10:11:08.51Z</time></trkpt><trkpt lat="43.0430217" lon="13.014865"><ele>620.5</ele><time>2026-04-26T10:11:09.51Z</time></trkpt><trkpt lat="43.0430583" lon="13.0146717"><ele>619.25</ele><time>2026-04-26T10:11:10.51Z</time></trkpt><trkpt lat="43.043115" lon="13.0144817"><ele>618.0</ele><time>2026-04-26T10:11:11.51Z</time></trkpt><trkpt lat="43.0431767" lon="13.0142933"><ele>617.75</ele><time>2026-04-26T10:11:12.51Z</time></trkpt><trkpt lat="43.04324" lon="13.014115"><ele>617.5</ele><time>2026-04-26T10:11:13.511Z</time></trkpt><trkpt lat="43.0433167" lon="13.0139583"><ele>617.25</ele><time>2026-04-26T10:11:14.511Z</time></trkpt><trkpt lat="43.0434067" lon="13.01381"><ele>617.0</ele><time>2026-04-26T10:11:15.51Z</time></trkpt><trkpt lat="43.0435" lon="13.0136933"><ele>617.0</ele><time>2026-04-26T10:11:16.511Z</time></trkpt><trkpt lat="43.04357" lon="13.0135783"><ele>617.0</ele><time>2026-04-26T10:11:17.51Z</time></trkpt><trkpt lat="43.04363" lon="13.0134317"><ele>617.0</ele><time>2026-04-26T10:11:18.51Z</time></trkpt><trkpt lat="43.0436533" lon="13.0132533"><ele>617.0</ele><time>2026-04-26T10:11:19.511Z</time></trkpt><trkpt lat="43.0436467" lon="13.01306"><ele>623.75</ele><time>2026-04-26T10:11:20.51Z</time></trkpt><trkpt lat="43.0436283" lon="13.0128567"><ele>630.5</ele><time>2026-04-26T10:11:21.51Z</time></trkpt><trkpt lat="43.0435933" lon="13.0126583"><ele>637.25</ele><time>2026-04-26T10:11:22.51Z</time></trkpt><trkpt lat="43.043555" lon="13.0124967"><ele>644.0</ele><time>2026-04-26T10:11:23.511Z</time></trkpt><trkpt lat="43.043545" lon="13.01235"><ele>648.75</ele><time>2026-04-26T10:11:24.51Z</time></trkpt><trkpt lat="43.043555" lon="13.01222"><ele>653.5</ele><time>2026-04-26T10:11:25.511Z</time></trkpt><trkpt lat="43.0436083" lon="13.0120917"><ele>658.25</ele><time>2026-04-26T10:11:26.51Z</time></trkpt><trkpt lat="43.043675" lon="13.0119533"><ele>663.0</ele><time>2026-04-26T10:11:27.51Z</time></trkpt><trkpt lat="43.0437467" lon="13.0118"><ele>671.3333333333334</ele><time>2026-04-26T10:11:28.51Z</time></trkpt><trkpt lat="43.04383" lon="13.011645"><ele>679.6666666666667</ele><time>2026-04-26T10:11:29.511Z</time></trkpt><trkpt lat="43.04393" lon="13.011475"><ele>688.0</ele><time>2026-04-26T10:11:30.51Z</time></trkpt><trkpt lat="43.0440333" lon="13.011315"><ele>688.0</ele><time>2026-04-26T10:11:31.511Z</time></trkpt><trkpt lat="43.0441283" lon="13.0111533"><ele>688.0</ele><time>2026-04-26T10:11:32.51Z</time></trkpt><trkpt lat="43.0441933" lon="13.0109883"><ele>688.0</ele><time>2026-04-26T10:11:33.51Z</time></trkpt><trkpt lat="43.0442417" lon="13.0108317"><ele>688.0</ele><time>2026-04-26T10:11:34.511Z</time></trkpt><trkpt lat="43.044295" lon="13.0107033"><ele>679.75</ele><time>2026-04-26T10:11:35.51Z</time></trkpt><trkpt lat="43.044365" lon="13.010595"><ele>671.5</ele><time>2026-04-26T10:11:36.51Z</time></trkpt><trkpt lat="43.0444617" lon="13.0105017"><ele>663.25</ele><time>2026-04-26T10:11:37.51Z</time></trkpt><trkpt lat="43.0445683" lon="13.010415"><ele>655.0</ele><time>2026-04-26T10:11:38.51Z</time></trkpt><trkpt lat="43.044665" lon="13.01034"><ele>655.0</ele><time>2026-04-26T10:11:39.51Z</time></trkpt><trkpt lat="43.04474" lon="13.0102517"><ele>655.0</ele><time>2026-04-26T10:11:40.51Z</time></trkpt><trkpt lat="43.044805" lon="13.01013"><ele>655.0</ele><time>2026-04-26T10:11:41.511Z</time></trkpt><trkpt lat="43.044845" lon="13.00997"><ele>655.0</ele><time>2026-04-26T10:11:42.51Z</time></trkpt><trkpt lat="43.0448883" lon="13.00978"><ele>661.0</ele><time>2026-04-26T10:11:43.51Z</time></trkpt><trkpt lat="43.0449433" lon="13.0095833"><ele>667.0</ele><time>2026-04-26T10:11:44.51Z</time></trkpt><trkpt lat="43.0449917" lon="13.0093933"><ele>673.0</ele><time>2026-04-26T10:11:45.511Z</time></trkpt><trkpt lat="43.0450283" lon="13.00923"><ele>679.0</ele><time>2026-04-26T10:11:46.511Z</time></trkpt><trkpt lat="43.045045" lon="13.0090883"><ele>678.75</ele><time>2026-04-26T10:11:47.511Z</time></trkpt><trkpt lat="43.0450267" lon="13.0089533"><ele>678.5</ele><time>2026-04-26T10:11:48.51Z</time></trkpt><trkpt lat="43.0449783" lon="13.00881"><ele>678.25</ele><time>2026-04-26T10:11:49.51Z</time></trkpt><trkpt lat="43.0449183" lon="13.0086667"><ele>678.0</ele><time>2026-04-26T10:11:50.511Z</time></trkpt><trkpt lat="43.0448533" lon="13.008505"><ele>678.0</ele><time>2026-04-26T10:11:51.51Z</time></trkpt><trkpt lat="43.0447917" lon="13.008335"><ele>678.0</ele><time>2026-04-26T10:11:52.511Z</time></trkpt><trkpt lat="43.04471" lon="13.0081733"><ele>678.0</ele><time>2026-04-26T10:11:53.51Z</time></trkpt><trkpt lat="43.044615" lon="13.008015"><ele>678.0</ele><time>2026-04-26T10:11:54.51Z</time></trkpt><trkpt lat="43.0445017" lon="13.0078617"><ele>675.75</ele><time>2026-04-26T10:11:55.51Z</time></trkpt><trkpt lat="43.0444033" lon="13.0077233"><ele>673.5</ele><time>2026-04-26T10:11:56.511Z</time></trkpt><trkpt lat="43.0443233" lon="13.007585"><ele>671.25</ele><time>2026-04-26T10:11:57.51Z</time></trkpt><trkpt lat="43.0442633" lon="13.0074317"><ele>669.0</ele><time>2026-04-26T10:11:58.51Z</time></trkpt><trkpt lat="43.0442533" lon="13.0072433"><ele>664.25</ele><time>2026-04-26T10:11:59.51Z</time></trkpt><trkpt lat="43.0442367" lon="13.0070583"><ele>659.5</ele><time>2026-04-26T10:12:00.51Z</time></trkpt><trkpt lat="43.04424" lon="13.006855"><ele>654.75</ele><time>2026-04-26T10:12:01.511Z</time></trkpt><trkpt lat="43.04423" lon="13.0066533"><ele>650.0</ele><time>2026-04-26T10:12:02.511Z</time></trkpt><trkpt lat="43.0442233" lon="13.0064517"><ele>649.6666666666666</ele><time>2026-04-26T10:12:03.51Z</time></trkpt><trkpt lat="43.0441917" lon="13.0062383"><ele>649.3333333333334</ele><time>2026-04-26T10:12:04.51Z</time></trkpt><trkpt lat="43.0441567" lon="13.0060117"><ele>649.0</ele><time>2026-04-26T10:12:05.511Z</time></trkpt><trkpt lat="43.0441133" lon="13.0057933"><ele>649.0</ele><time>2026-04-26T10:12:06.51Z</time></trkpt><trkpt lat="43.0440617" lon="13.0056033"><ele>649.0</ele><time>2026-04-26T10:12:07.51Z</time></trkpt><trkpt lat="43.0440467" lon="13.0054317"><ele>649.0</ele><time>2026-04-26T10:12:08.51Z</time></trkpt><trkpt lat="43.0440467" lon="13.005265"><ele>649.0</ele><time>2026-04-26T10:12:09.51Z</time></trkpt><trkpt lat="43.0440533" lon="13.0051117"><ele>644.5</ele><time>2026-04-26T10:12:10.51Z</time></trkpt><trkpt lat="43.0440633" lon="13.0049567"><ele>640.0</ele><time>2026-04-26T10:12:11.51Z</time></trkpt><trkpt lat="43.0440567" lon="13.0048067"><ele>635.5</ele><time>2026-04-26T10:12:12.51Z</time></trkpt><trkpt lat="43.043995" lon="13.004675"><ele>631.0</ele><time>2026-04-26T10:12:13.51Z</time></trkpt><trkpt lat="43.0439117" lon="13.004545"><ele>631.0</ele><time>2026-04-26T10:12:14.51Z</time></trkpt><trkpt lat="43.0437917" lon="13.004415"><ele>631.0</ele><time>2026-04-26T10:12:15.511Z</time></trkpt><trkpt lat="43.043665" lon="13.0042633"><ele>631.0</ele><time>2026-04-26T10:12:16.51Z</time></trkpt><trkpt lat="43.043535" lon="13.0040933"><ele>632.3333333333334</ele><time>2026-04-26T10:12:17.51Z</time></trkpt><trkpt lat="43.0434083" lon="13.0039117"><ele>633.6666666666666</ele><time>2026-04-26T10:12:18.51Z</time></trkpt><trkpt lat="43.0432833" lon="13.0037317"><ele>635.0</ele><time>2026-04-26T10:12:19.511Z</time></trkpt><trkpt lat="43.043165" lon="13.0035733"><ele>635.0</ele><time>2026-04-26T10:12:20.51Z</time></trkpt><trkpt lat="43.04304" lon="13.00345"><ele>635.0</ele><time>2026-04-26T10:12:21.511Z</time></trkpt><trkpt lat="43.042895" lon="13.00335"><ele>635.0</ele><time>2026-04-26T10:12:22.511Z</time></trkpt><trkpt lat="43.0427417" lon="13.0032633"><ele>635.3333333333333</ele><time>2026-04-26T10:12:23.51Z</time></trkpt><trkpt lat="43.0425867" lon="13.0031783"><ele>635.6666666666666</ele><time>2026-04-26T10:12:24.511Z</time></trkpt><trkpt lat="43.0424483" lon="13.0030917"><ele>636.0</ele><time>2026-04-26T10:12:25.51Z</time></trkpt><trkpt lat="43.0423267" lon="13.002995"><ele>636.0</ele><time>2026-04-26T10:12:26.51Z</time></trkpt><trkpt lat="43.0422383" lon="13.00286"><ele>636.0</ele><time>2026-04-26T10:12:27.511Z</time></trkpt><trkpt lat="43.042175" lon="13.0026933"><ele>636.0</ele><time>2026-04-26T10:12:28.51Z</time></trkpt><trkpt lat="43.0421183" lon="13.0024983"><ele>636.0</ele><time>2026-04-26T10:12:29.51Z</time></trkpt><trkpt lat="43.0420617" lon="13.0022933"><ele>636.3333333333334</ele><time>2026-04-26T10:12:30.51Z</time></trkpt><trkpt lat="43.04201" lon="13.0020683"><ele>636.6666666666667</ele><time>2026-04-26T10:12:31.51Z</time></trkpt><trkpt lat="43.041955" lon="13.00182"><ele>637.0</ele><time>2026-04-26T10:12:32.511Z</time></trkpt><trkpt lat="43.041885" lon="13.001575"><ele>637.6666666666667</ele><time>2026-04-26T10:12:33.51Z</time></trkpt><trkpt lat="43.0418067" lon="13.0013167"><ele>638.3333333333334</ele><time>2026-04-26T10:12:34.51Z</time></trkpt><trkpt lat="43.0417417" lon="13.001055"><ele>639.0</ele><time>2026-04-26T10:12:35.51Z</time></trkpt><trkpt lat="43.0416683" lon="13.00079"><ele>644.0</ele><time>2026-04-26T10:12:36.51Z</time></trkpt><trkpt lat="43.04161" lon="13.000525"><ele>649.0</ele><time>2026-04-26T10:12:37.51Z</time></trkpt><trkpt lat="43.041535" lon="13.0002833"><ele>654.0</ele><time>2026-04-26T10:12:38.51Z</time></trkpt><trkpt lat="43.0414617" lon="13.000075"><ele>654.0</ele><time>2026-04-26T10:12:39.51Z</time></trkpt><trkpt lat="43.0414017" lon="12.99988"><ele>654.0</ele><time>2026-04-26T10:12:40.51Z</time></trkpt><trkpt lat="43.04138" lon="12.999675"><ele>654.0</ele><time>2026-04-26T10:12:41.51Z</time></trkpt><trkpt lat="43.0413833" lon="12.9994617"><ele>654.0</ele><time>2026-04-26T10:12:42.51Z</time></trkpt><trkpt lat="43.04138" lon="12.9992417"><ele>654.0</ele><time>2026-04-26T10:12:43.51Z</time></trkpt><trkpt lat="43.0413617" lon="12.9990167"><ele>654.0</ele><time>2026-04-26T10:12:44.511Z</time></trkpt><trkpt lat="43.04131" lon="12.9987933"><ele>654.0</ele><time>2026-04-26T10:12:45.51Z</time></trkpt><trkpt lat="43.0412433" lon="12.99857"><ele>654.0</ele><time>2026-04-26T10:12:46.51Z</time></trkpt><trkpt lat="43.0411633" lon="12.9983733"><ele>654.0</ele><time>2026-04-26T10:12:47.51Z</time></trkpt><trkpt lat="43.04108" lon="12.9981883"><ele>654.5</ele><time>2026-04-26T10:12:48.51Z</time></trkpt><trkpt lat="43.041" lon="12.998015"><ele>655.0</ele><time>2026-04-26T10:12:49.51Z</time></trkpt><trkpt lat="43.0409183" lon="12.9978467"><ele>655.5</ele><time>2026-04-26T10:12:50.51Z</time></trkpt><trkpt lat="43.0408367" lon="12.997695"><ele>656.0</ele><time>2026-04-26T10:12:51.51Z</time></trkpt><trkpt lat="43.0407617" lon="12.9975583"><ele>661.75</ele><time>2026-04-26T10:12:52.51Z</time></trkpt><trkpt lat="43.0407067" lon="12.9974217"><ele>667.5</ele><time>2026-04-26T10:12:53.51Z</time></trkpt><trkpt lat="43.0406717" lon="12.9972783"><ele>673.25</ele><time>2026-04-26T10:12:54.511Z</time></trkpt><trkpt lat="43.040655" lon="12.997115"><ele>679.0</ele><time>2026-04-26T10:12:55.51Z</time></trkpt><trkpt lat="43.0406533" lon="12.9969417"><ele>679.0</ele><time>2026-04-26T10:12:56.51Z</time></trkpt><trkpt lat="43.04065" lon="12.9967583"><ele>679.0</ele><time>2026-04-26T10:12:57.51Z</time></trkpt><trkpt lat="43.04064" lon="12.9965833"><ele>679.0</ele><time>2026-04-26T10:12:58.51Z</time></trkpt><trkpt lat="43.04063" lon="12.99643"><ele>679.0</ele><time>2026-04-26T10:12:59.51Z</time></trkpt><trkpt lat="43.0406233" lon="12.9962817"><ele>678.0</ele><time>2026-04-26T10:13:00.51Z</time></trkpt><trkpt lat="43.0406017" lon="12.9961433"><ele>677.0</ele><time>2026-04-26T10:13:01.51Z</time></trkpt><trkpt lat="43.0405567" lon="12.9960067"><ele>676.0</ele><time>2026-04-26T10:13:02.51Z</time></trkpt><trkpt lat="43.0404983" lon="12.9958683"><ele>675.0</ele><time>2026-04-26T10:13:03.51Z</time></trkpt><trkpt lat="43.040435" lon="12.9957317"><ele>674.0</ele><time>2026-04-26T10:13:04.51Z</time></trkpt><trkpt lat="43.0403683" lon="12.9955833"><ele>671.75</ele><time>2026-04-26T10:13:05.51Z</time></trkpt><trkpt lat="43.04031" lon="12.9954317"><ele>669.5</ele><time>2026-04-26T10:13:06.51Z</time></trkpt><trkpt lat="43.0402567" lon="12.9952783"><ele>667.25</ele><time>2026-04-26T10:13:07.51Z</time></trkpt><trkpt lat="43.0402133" lon="12.99514"><ele>665.0</ele><time>2026-04-26T10:13:08.51Z</time></trkpt><trkpt lat="43.0401817" lon="12.9950033"><ele>664.4</ele><time>2026-04-26T10:13:09.51Z</time></trkpt><trkpt lat="43.04016" lon="12.99487"><ele>663.8</ele><time>2026-04-26T10:13:10.51Z</time></trkpt><trkpt lat="43.0401617" lon="12.994735"><ele>663.2</ele><time>2026-04-26T10:13:11.51Z</time></trkpt><trkpt lat="43.0401817" lon="12.9946"><ele>662.6</ele><time>2026-04-26T10:13:12.511Z</time></trkpt><trkpt lat="43.0402133" lon="12.9944583"><ele>662.0</ele><time>2026-04-26T10:13:13.51Z</time></trkpt><trkpt lat="43.0402533" lon="12.9943067"><ele>662.0</ele><time>2026-04-26T10:13:14.511Z</time></trkpt><trkpt lat="43.0403" lon="12.9941467"><ele>662.0</ele><time>2026-04-26T10:13:15.51Z</time></trkpt><trkpt lat="43.040335" lon="12.993965"><ele>662.0</ele><time>2026-04-26T10:13:16.51Z</time></trkpt><trkpt lat="43.04035" lon="12.9937617"><ele>662.0</ele><time>2026-04-26T10:13:17.51Z</time></trkpt><trkpt lat="43.0403417" lon="12.993545"><ele>660.0</ele><time>2026-04-26T10:13:18.51Z</time></trkpt><trkpt lat="43.0403183" lon="12.99332"><ele>658.0</ele><time>2026-04-26T10:13:19.51Z</time></trkpt><trkpt lat="43.0402917" lon="12.9930867"><ele>656.0</ele><time>2026-04-26T10:13:20.511Z</time></trkpt><trkpt lat="43.0402667" lon="12.9928467"><ele>656.0</ele><time>2026-04-26T10:13:21.51Z</time></trkpt><trkpt lat="43.0402317" lon="12.9925967"><ele>656.0</ele><time>2026-04-26T10:13:22.51Z</time></trkpt><trkpt lat="43.0401983" lon="12.9923483"><ele>656.0</ele><time>2026-04-26T10:13:23.51Z</time></trkpt><trkpt lat="43.040165" lon="12.99211"><ele>656.75</ele><time>2026-04-26T10:13:24.51Z</time></trkpt><trkpt lat="43.0401383" lon="12.9919"><ele>657.5</ele><time>2026-04-26T10:13:25.51Z</time></trkpt><trkpt lat="43.0401183" lon="12.9916983"><ele>658.25</ele><time>2026-04-26T10:13:26.51Z</time></trkpt><trkpt lat="43.0401167" lon="12.9915"><ele>659.0</ele><time>2026-04-26T10:13:27.51Z</time></trkpt><trkpt lat="43.040125" lon="12.9913067"><ele>659.5</ele><time>2026-04-26T10:13:28.51Z</time></trkpt><trkpt lat="43.04015" lon="12.9911133"><ele>660.0</ele><time>2026-04-26T10:13:29.51Z</time></trkpt><trkpt lat="43.0401767" lon="12.9909217"><ele>660.5</ele><time>2026-04-26T10:13:30.511Z</time></trkpt><trkpt lat="43.0402017" lon="12.99073"><ele>661.0</ele><time>2026-04-26T10:13:31.509Z</time></trkpt><trkpt lat="43.0402217" lon="12.990545"><ele>661.5</ele><time>2026-04-26T10:13:32.509Z</time></trkpt><trkpt lat="43.0402383" lon="12.990355"><ele>662.0</ele><time>2026-04-26T10:13:33.509Z</time></trkpt><trkpt lat="43.040225" lon="12.9901617"><ele>662.5</ele><time>2026-04-26T10:13:34.509Z</time></trkpt><trkpt lat="43.040185" lon="12.9899733"><ele>663.0</ele><time>2026-04-26T10:13:35.509Z</time></trkpt><trkpt lat="43.0401167" lon="12.989775"><ele>663.6666666666666</ele><time>2026-04-26T10:13:36.509Z</time></trkpt><trkpt lat="43.040025" lon="12.9895767"><ele>664.3333333333333</ele><time>2026-04-26T10:13:37.509Z</time></trkpt><trkpt lat="43.0399267" lon="12.9893717"><ele>665.0</ele><time>2026-04-26T10:13:38.509Z</time></trkpt><trkpt lat="43.0398333" lon="12.9891467"><ele>665.0</ele><time>2026-04-26T10:13:39.509Z</time></trkpt><trkpt lat="43.0397483" lon="12.9889183"><ele>665.0</ele><time>2026-04-26T10:13:40.509Z</time></trkpt><trkpt lat="43.0396667" lon="12.988715"><ele>665.0</ele><time>2026-04-26T10:13:41.509Z</time></trkpt><trkpt lat="43.0395883" lon="12.988515"><ele>666.6666666666666</ele><time>2026-04-26T10:13:42.509Z</time></trkpt><trkpt lat="43.0394983" lon="12.9883283"><ele>668.3333333333334</ele><time>2026-04-26T10:13:43.509Z</time></trkpt><trkpt lat="43.0393833" lon="12.988165"><ele>670.0</ele><time>2026-04-26T10:13:44.509Z</time></trkpt><trkpt lat="43.0392433" lon="12.9880133"><ele>672.3333333333334</ele><time>2026-04-26T10:13:45.509Z</time></trkpt><trkpt lat="43.0390933" lon="12.9878667"><ele>674.6666666666666</ele><time>2026-04-26T10:13:46.509Z</time></trkpt><trkpt lat="43.0389417" lon="12.9877267"><ele>677.0</ele><time>2026-04-26T10:13:47.51Z</time></trkpt><trkpt lat="43.03881" lon="12.9875917"><ele>675.6666666666666</ele><time>2026-04-26T10:13:48.51Z</time></trkpt><trkpt lat="43.0386917" lon="12.9874567"><ele>674.3333333333334</ele><time>2026-04-26T10:13:49.509Z</time></trkpt><trkpt lat="43.038585" lon="12.9872967"><ele>673.0</ele><time>2026-04-26T10:13:50.509Z</time></trkpt><trkpt lat="43.0384767" lon="12.98712"><ele>673.0</ele><time>2026-04-26T10:13:51.51Z</time></trkpt><trkpt lat="43.0383667" lon="12.9869233"><ele>673.0</ele><time>2026-04-26T10:13:52.51Z</time></trkpt><trkpt lat="43.0382517" lon="12.9867333"><ele>673.0</ele><time>2026-04-26T10:13:53.509Z</time></trkpt><trkpt lat="43.0381233" lon="12.9865433"><ele>674.0</ele><time>2026-04-26T10:13:54.509Z</time></trkpt><trkpt lat="43.037985" lon="12.9863567"><ele>675.0</ele><time>2026-04-26T10:13:55.509Z</time></trkpt><trkpt lat="43.037855" lon="12.9861833"><ele>676.0</ele><time>2026-04-26T10:13:56.509Z</time></trkpt><trkpt lat="43.0377367" lon="12.9860183"><ele>676.3333333333334</ele><time>2026-04-26T10:13:57.509Z</time></trkpt><trkpt lat="43.0376333" lon="12.985845"><ele>676.6666666666666</ele><time>2026-04-26T10:13:58.509Z</time></trkpt><trkpt lat="43.0375433" lon="12.9856533"><ele>677.0</ele><time>2026-04-26T10:13:59.509Z</time></trkpt><trkpt lat="43.03747" lon="12.9854383"><ele>679.6666666666666</ele><time>2026-04-26T10:14:00.509Z</time></trkpt><trkpt lat="43.0374117" lon="12.9852033"><ele>682.3333333333334</ele><time>2026-04-26T10:14:01.51Z</time></trkpt><trkpt lat="43.0373633" lon="12.9849567"><ele>685.0</ele><time>2026-04-26T10:14:02.509Z</time></trkpt><trkpt lat="43.0373067" lon="12.9847"><ele>685.3333333333334</ele><time>2026-04-26T10:14:03.509Z</time></trkpt><trkpt lat="43.037245" lon="12.9844583"><ele>685.6666666666666</ele><time>2026-04-26T10:14:04.51Z</time></trkpt><trkpt lat="43.037185" lon="12.9842167"><ele>686.0</ele><time>2026-04-26T10:14:05.51Z</time></trkpt><trkpt lat="43.0371183" lon="12.98398"><ele>685.0</ele><time>2026-04-26T10:14:06.51Z</time></trkpt><trkpt lat="43.03704" lon="12.9837617"><ele>684.0</ele><time>2026-04-26T10:14:07.509Z</time></trkpt><trkpt lat="43.0369367" lon="12.9835583"><ele>683.0</ele><time>2026-04-26T10:14:08.509Z</time></trkpt><trkpt lat="43.0368217" lon="12.9833567"><ele>685.3333333333333</ele><time>2026-04-26T10:14:09.509Z</time></trkpt><trkpt lat="43.03671" lon="12.9831483"><ele>687.6666666666666</ele><time>2026-04-26T10:14:10.51Z</time></trkpt><trkpt lat="43.0366033" lon="12.9829267"><ele>690.0</ele><time>2026-04-26T10:14:11.509Z</time></trkpt><trkpt lat="43.036495" lon="12.9826967"><ele>693.0</ele><time>2026-04-26T10:14:12.509Z</time></trkpt><trkpt lat="43.0364067" lon="12.9824733"><ele>696.0</ele><time>2026-04-26T10:14:13.509Z</time></trkpt><trkpt lat="43.03632" lon="12.98228"><ele>699.0</ele><time>2026-04-26T10:14:14.509Z</time></trkpt><trkpt lat="43.0362417" lon="12.9821133"><ele>699.0</ele><time>2026-04-26T10:14:15.509Z</time></trkpt><trkpt lat="43.0361967" lon="12.98196"><ele>699.0</ele><time>2026-04-26T10:14:16.509Z</time></trkpt><trkpt lat="43.0361833" lon="12.9817917"><ele>699.0</ele><time>2026-04-26T10:14:17.509Z</time></trkpt><trkpt lat="43.03619" lon="12.98161"><ele>699.0</ele><time>2026-04-26T10:14:18.51Z</time></trkpt><trkpt lat="43.0362067" lon="12.9814183"><ele>699.0</ele><time>2026-04-26T10:14:19.509Z</time></trkpt><trkpt lat="43.0362383" lon="12.9812167"><ele>699.0</ele><time>2026-04-26T10:14:20.509Z</time></trkpt><trkpt lat="43.0362783" lon="12.981015"><ele>699.0</ele><time>2026-04-26T10:14:21.509Z</time></trkpt><trkpt lat="43.0363183" lon="12.9808133"><ele>699.0</ele><time>2026-04-26T10:14:22.509Z</time></trkpt><trkpt lat="43.0363717" lon="12.980625"><ele>699.0</ele><time>2026-04-26T10:14:23.509Z</time></trkpt><trkpt lat="43.0364167" lon="12.980445"><ele>699.0</ele><time>2026-04-26T10:14:24.509Z</time></trkpt><trkpt lat="43.036435" lon="12.9802783"><ele>699.0</ele><time>2026-04-26T10:14:25.509Z</time></trkpt><trkpt lat="43.0364367" lon="12.98011"><ele>699.25</ele><time>2026-04-26T10:14:26.509Z</time></trkpt><trkpt lat="43.0364233" lon="12.9799417"><ele>699.5</ele><time>2026-04-26T10:14:27.509Z</time></trkpt><trkpt lat="43.0363833" lon="12.9797767"><ele>699.75</ele><time>2026-04-26T10:14:28.509Z</time></trkpt><trkpt lat="43.036345" lon="12.9796083"><ele>700.0</ele><time>2026-04-26T10:14:29.509Z</time></trkpt><trkpt lat="43.036295" lon="12.9794267"><ele>700.0</ele><time>2026-04-26T10:14:30.509Z</time></trkpt><trkpt lat="43.03624" lon="12.9792367"><ele>700.0</ele><time>2026-04-26T10:14:31.509Z</time></trkpt><trkpt lat="43.0361817" lon="12.979035"><ele>700.0</ele><time>2026-04-26T10:14:32.51Z</time></trkpt><trkpt lat="43.0361083" lon="12.9788383"><ele>699.3333333333334</ele><time>2026-04-26T10:14:33.509Z</time></trkpt><trkpt lat="43.0360317" lon="12.9786217"><ele>698.6666666666666</ele><time>2026-04-26T10:14:34.51Z</time></trkpt><trkpt lat="43.0359517" lon="12.9784083"><ele>698.0</ele><time>2026-04-26T10:14:35.509Z</time></trkpt><trkpt lat="43.03588" lon="12.978185"><ele>698.0</ele><time>2026-04-26T10:14:36.509Z</time></trkpt><trkpt lat="43.0358167" lon="12.9779633"><ele>698.0</ele><time>2026-04-26T10:14:37.509Z</time></trkpt><trkpt lat="43.0357467" lon="12.97775"><ele>698.0</ele><time>2026-04-26T10:14:38.509Z</time></trkpt><trkpt lat="43.0356833" lon="12.9775417"><ele>699.3333333333333</ele><time>2026-04-26T10:14:39.509Z</time></trkpt><trkpt lat="43.0356083" lon="12.9773367"><ele>700.6666666666666</ele><time>2026-04-26T10:14:40.509Z</time></trkpt><trkpt lat="43.0355333" lon="12.9771517"><ele>702.0</ele><time>2026-04-26T10:14:41.509Z</time></trkpt><trkpt lat="43.0354517" lon="12.9769983"><ele>702.0</ele><time>2026-04-26T10:14:42.509Z</time></trkpt><trkpt lat="43.0353583" lon="12.9768767"><ele>702.0</ele><time>2026-04-26T10:14:43.509Z</time></trkpt><trkpt lat="43.0352767" lon="12.9767667"><ele>702.0</ele><time>2026-04-26T10:14:44.509Z</time></trkpt><trkpt lat="43.0352" lon="12.97667"><ele>702.0</ele><time>2026-04-26T10:14:45.509Z</time></trkpt><trkpt lat="43.035125" lon="12.9765867"><ele>702.0</ele><time>2026-04-26T10:14:46.509Z</time></trkpt><trkpt lat="43.0350517" lon="12.9765017"><ele>702.5</ele><time>2026-04-26T10:14:47.509Z</time></trkpt><trkpt lat="43.0349817" lon="12.9764017"><ele>703.0</ele><time>2026-04-26T10:14:48.51Z</time></trkpt><trkpt lat="43.0348917" lon="12.9763"><ele>703.5</ele><time>2026-04-26T10:14:49.509Z</time></trkpt><trkpt lat="43.0348067" lon="12.9761817"><ele>704.0</ele><time>2026-04-26T10:14:50.509Z</time></trkpt><trkpt lat="43.034705" lon="12.9760567"><ele>704.75</ele><time>2026-04-26T10:14:51.509Z</time></trkpt><trkpt lat="43.0346083" lon="12.97593"><ele>705.5</ele><time>2026-04-26T10:14:52.509Z</time></trkpt><trkpt lat="43.0345233" lon="12.9757867"><ele>706.25</ele><time>2026-04-26T10:14:53.509Z</time></trkpt><trkpt lat="43.0344333" lon="12.97566"><ele>707.0</ele><time>2026-04-26T10:14:54.51Z</time></trkpt><trkpt lat="43.0343517" lon="12.9755117"><ele>707.0</ele><time>2026-04-26T10:14:55.509Z</time></trkpt><trkpt lat="43.0342833" lon="12.9753517"><ele>707.0</ele><time>2026-04-26T10:14:56.509Z</time></trkpt><trkpt lat="43.0342383" lon="12.9751667"><ele>707.0</ele><time>2026-04-26T10:14:57.509Z</time></trkpt><trkpt lat="43.03421" lon="12.9749717"><ele>707.0</ele><time>2026-04-26T10:14:58.509Z</time></trkpt><trkpt lat="43.0341767" lon="12.9747783"><ele>708.0</ele><time>2026-04-26T10:14:59.509Z</time></trkpt><trkpt lat="43.0341417" lon="12.9745917"><ele>709.0</ele><time>2026-04-26T10:15:00.509Z</time></trkpt><trkpt lat="43.0340833" lon="12.97441"><ele>710.0</ele><time>2026-04-26T10:15:01.509Z</time></trkpt><trkpt lat="43.0339917" lon="12.9742433"><ele>711.0</ele><time>2026-04-26T10:15:02.51Z</time></trkpt><trkpt lat="43.03388" lon="12.9740767"><ele>711.0</ele><time>2026-04-26T10:15:03.51Z</time></trkpt><trkpt lat="43.0337517" lon="12.9739083"><ele>711.0</ele><time>2026-04-26T10:15:04.51Z</time></trkpt><trkpt lat="43.0336167" lon="12.9737283"><ele>711.0</ele><time>2026-04-26T10:15:05.509Z</time></trkpt><trkpt lat="43.0334867" lon="12.9735467"><ele>711.0</ele><time>2026-04-26T10:15:06.509Z</time></trkpt><trkpt lat="43.03336" lon="12.973365"><ele>711.0</ele><time>2026-04-26T10:15:07.509Z</time></trkpt><trkpt lat="43.0332333" lon="12.9731917"><ele>711.0</ele><time>2026-04-26T10:15:08.509Z</time></trkpt><trkpt lat="43.0331117" lon="12.9730317"><ele>711.0</ele><time>2026-04-26T10:15:09.509Z</time></trkpt><trkpt lat="43.033005" lon="12.9728567"><ele>711.0</ele><time>2026-04-26T10:15:10.51Z</time></trkpt><trkpt lat="43.0329133" lon="12.97267"><ele>711.0</ele><time>2026-04-26T10:15:11.509Z</time></trkpt><trkpt lat="43.03283" lon="12.972465"><ele>711.0</ele><time>2026-04-26T10:15:12.51Z</time></trkpt><trkpt lat="43.0327417" lon="12.9722583"><ele>711.0</ele><time>2026-04-26T10:15:13.509Z</time></trkpt><trkpt lat="43.03264" lon="12.9720733"><ele>711.0</ele><time>2026-04-26T10:15:14.51Z</time></trkpt><trkpt lat="43.032525" lon="12.9718933"><ele>716.6666666666666</ele><time>2026-04-26T10:15:15.509Z</time></trkpt><trkpt lat="43.0323933" lon="12.9717183"><ele>722.3333333333333</ele><time>2026-04-26T10:15:16.51Z</time></trkpt><trkpt lat="43.0322433" lon="12.971555"><ele>728.0</ele><time>2026-04-26T10:15:17.509Z</time></trkpt><trkpt lat="43.0320833" lon="12.9713933"><ele>728.0</ele><time>2026-04-26T10:15:18.51Z</time></trkpt><trkpt lat="43.0319233" lon="12.9712217"><ele>728.0</ele><time>2026-04-26T10:15:19.51Z</time></trkpt><trkpt lat="43.0317633" lon="12.9710517"><ele>728.0</ele><time>2026-04-26T10:15:20.509Z</time></trkpt><trkpt lat="43.03159" lon="12.9708867"><ele>730.3333333333333</ele><time>2026-04-26T10:15:21.51Z</time></trkpt><trkpt lat="43.0314033" lon="12.9707383"><ele>732.6666666666666</ele><time>2026-04-26T10:15:22.509Z</time></trkpt><trkpt lat="43.0312317" lon="12.9705917"><ele>735.0</ele><time>2026-04-26T10:15:23.509Z</time></trkpt><trkpt lat="43.0310667" lon="12.9704483"><ele>735.0</ele><time>2026-04-26T10:15:24.509Z</time></trkpt><trkpt lat="43.030905" lon="12.9702867"><ele>735.0</ele><time>2026-04-26T10:15:25.51Z</time></trkpt><trkpt lat="43.0307517" lon="12.9701017"><ele>735.0</ele><time>2026-04-26T10:15:26.509Z</time></trkpt><trkpt lat="43.0306" lon="12.9699033"><ele>736.6666666666666</ele><time>2026-04-26T10:15:27.509Z</time></trkpt><trkpt lat="43.0304567" lon="12.9696967"><ele>738.3333333333333</ele><time>2026-04-26T10:15:28.51Z</time></trkpt><trkpt lat="43.0303017" lon="12.9694833"><ele>740.0</ele><time>2026-04-26T10:15:29.509Z</time></trkpt><trkpt lat="43.03014" lon="12.969275"><ele>742.5</ele><time>2026-04-26T10:15:30.509Z</time></trkpt><trkpt lat="43.0299667" lon="12.969065"><ele>745.0</ele><time>2026-04-26T10:15:31.509Z</time></trkpt><trkpt lat="43.0297933" lon="12.968855"><ele>745.0</ele><time>2026-04-26T10:15:32.509Z</time></trkpt><trkpt lat="43.0296267" lon="12.96865"><ele>745.0</ele><time>2026-04-26T10:15:33.509Z</time></trkpt><trkpt lat="43.02946" lon="12.9684367"><ele>748.0</ele><time>2026-04-26T10:15:34.51Z</time></trkpt><trkpt lat="43.02929" lon="12.9682283"><ele>751.0</ele><time>2026-04-26T10:15:35.509Z</time></trkpt><trkpt lat="43.0291217" lon="12.9680233"><ele>751.0</ele><time>2026-04-26T10:15:36.51Z</time></trkpt><trkpt lat="43.0289533" lon="12.96782"><ele>751.0</ele><time>2026-04-26T10:15:37.509Z</time></trkpt><trkpt lat="43.0287867" lon="12.9676167"><ele>751.0</ele><time>2026-04-26T10:15:38.509Z</time></trkpt><trkpt lat="43.02863" lon="12.9674217"><ele>748.6666666666667</ele><time>2026-04-26T10:15:39.509Z</time></trkpt><trkpt lat="43.02848" lon="12.9672417"><ele>746.3333333333334</ele><time>2026-04-26T10:15:40.509Z</time></trkpt><trkpt lat="43.0283383" lon="12.9670683"><ele>744.0</ele><time>2026-04-26T10:15:41.509Z</time></trkpt><trkpt lat="43.0281967" lon="12.9668967"><ele>746.0</ele><time>2026-04-26T10:15:42.509Z</time></trkpt><trkpt lat="43.0280717" lon="12.966715"><ele>748.0</ele><time>2026-04-26T10:15:43.509Z</time></trkpt><trkpt lat="43.0279567" lon="12.9665317"><ele>750.0</ele><time>2026-04-26T10:15:44.509Z</time></trkpt><trkpt lat="43.0278617" lon="12.9663483"><ele>750.0</ele><time>2026-04-26T10:15:45.509Z</time></trkpt><trkpt lat="43.027775" lon="12.96619"><ele>750.0</ele><time>2026-04-26T10:15:46.509Z</time></trkpt><trkpt lat="43.0277067" lon="12.966025"><ele>750.0</ele><time>2026-04-26T10:15:47.509Z</time></trkpt><trkpt lat="43.0276533" lon="12.9658333"><ele>750.0</ele><time>2026-04-26T10:15:48.509Z</time></trkpt><trkpt lat="43.0276133" lon="12.9656417"><ele>749.5</ele><time>2026-04-26T10:15:49.509Z</time></trkpt><trkpt lat="43.0275967" lon="12.965445"><ele>749.0</ele><time>2026-04-26T10:15:50.509Z</time></trkpt><trkpt lat="43.0276083" lon="12.9652617"><ele>748.5</ele><time>2026-04-26T10:15:51.509Z</time></trkpt><trkpt lat="43.02765" lon="12.965085"><ele>748.0</ele><time>2026-04-26T10:15:52.509Z</time></trkpt><trkpt lat="43.027705" lon="12.9649133"><ele>748.0</ele><time>2026-04-26T10:15:53.509Z</time></trkpt><trkpt lat="43.0277883" lon="12.9647383"><ele>748.0</ele><time>2026-04-26T10:15:54.51Z</time></trkpt><trkpt lat="43.0278583" lon="12.96455"><ele>748.0</ele><time>2026-04-26T10:15:55.51Z</time></trkpt><trkpt lat="43.0278933" lon="12.9643433"><ele>750.0</ele><time>2026-04-26T10:15:56.51Z</time></trkpt><trkpt lat="43.0278933" lon="12.9641217"><ele>752.0</ele><time>2026-04-26T10:15:57.509Z</time></trkpt><trkpt lat="43.027875" lon="12.9638717"><ele>754.0</ele><time>2026-04-26T10:15:58.509Z</time></trkpt><trkpt lat="43.027845" lon="12.9636"><ele>755.0</ele><time>2026-04-26T10:15:59.509Z</time></trkpt><trkpt lat="43.0278183" lon="12.9633267"><ele>756.0</ele><time>2026-04-26T10:16:00.509Z</time></trkpt><trkpt lat="43.02779" lon="12.9630567"><ele>757.0</ele><time>2026-04-26T10:16:01.509Z</time></trkpt><trkpt lat="43.027755" lon="12.9627967"><ele>757.0</ele><time>2026-04-26T10:16:02.509Z</time></trkpt><trkpt lat="43.027715" lon="12.9625517"><ele>757.0</ele><time>2026-04-26T10:16:03.509Z</time></trkpt><trkpt lat="43.02768" lon="12.96234"><ele>757.0</ele><time>2026-04-26T10:16:04.509Z</time></trkpt><trkpt lat="43.0276417" lon="12.9621633"><ele>757.8333333333334</ele><time>2026-04-26T10:16:05.509Z</time></trkpt><trkpt lat="43.0276" lon="12.9620217"><ele>758.6666666666667</ele><time>2026-04-26T10:16:06.509Z</time></trkpt><trkpt lat="43.0275517" lon="12.9619217"><ele>759.5</ele><time>2026-04-26T10:16:07.509Z</time></trkpt><trkpt lat="43.027495" lon="12.9618517"><ele>760.3333333333334</ele><time>2026-04-26T10:16:08.509Z</time></trkpt><trkpt lat="43.0274217" lon="12.9618067"><ele>761.1666666666666</ele><time>2026-04-26T10:16:09.509Z</time></trkpt><trkpt lat="43.0273417" lon="12.961765"><ele>762.0</ele><time>2026-04-26T10:16:10.509Z</time></trkpt><trkpt lat="43.0272533" lon="12.961735"><ele>763.3333333333334</ele><time>2026-04-26T10:16:11.509Z</time></trkpt><trkpt lat="43.0271817" lon="12.9617383"><ele>764.6666666666667</ele><time>2026-04-26T10:16:12.509Z</time></trkpt><trkpt lat="43.0270867" lon="12.9617483"><ele>766.0</ele><time>2026-04-26T10:16:14.509Z</time></trkpt><trkpt lat="43.027005" lon="12.961765"><ele>767.3333333333334</ele><time>2026-04-26T10:16:31.509Z</time></trkpt><trkpt lat="43.0270783" lon="12.9618233"><ele>768.6666666666667</ele><time>2026-04-26T10:16:35.51Z</time></trkpt><trkpt lat="43.0271517" lon="12.9618083"><ele>770.0</ele><time>2026-04-26T10:16:36.51Z</time></trkpt><trkpt lat="43.0272383" lon="12.9617933"><ele>770.0000000000001</ele><time>2026-04-26T10:16:37.509Z</time></trkpt><trkpt lat="43.0273267" lon="12.9618"><ele>770.0</ele><time>2026-04-26T10:16:38.509Z</time></trkpt><trkpt lat="43.0273983" lon="12.961815"><ele>770.0</ele><time>2026-04-26T10:16:39.509Z</time></trkpt><trkpt lat="43.02749" lon="12.961815"><ele>770.0</ele><time>2026-04-26T10:16:41.509Z</time></trkpt><trkpt lat="43.027555" lon="12.9617617"><ele>770.0000000000001</ele><time>2026-04-26T10:16:43.509Z</time></trkpt><trkpt lat="43.027585" lon="12.9616267"><ele>770.0</ele><time>2026-04-26T10:16:45.509Z</time></trkpt><trkpt lat="43.02758" lon="12.9615267"><ele>769.8333333333334</ele><time>2026-04-26T10:16:46.509Z</time></trkpt><trkpt lat="43.0275567" lon="12.961415"><ele>769.6666666666667</ele><time>2026-04-26T10:16:47.51Z</time></trkpt><trkpt lat="43.0275217" lon="12.9613133"><ele>769.5</ele><time>2026-04-26T10:16:48.51Z</time></trkpt><trkpt lat="43.0274967" lon="12.9611983"><ele>769.3333333333333</ele><time>2026-04-26T10:16:49.509Z</time></trkpt><trkpt lat="43.0274733" lon="12.9610767"><ele>769.1666666666666</ele><time>2026-04-26T10:16:50.51Z</time></trkpt><trkpt lat="43.0274533" lon="12.96095"><ele>769.0</ele><time>2026-04-26T10:16:51.509Z</time></trkpt><trkpt lat="43.0274333" lon="12.9608183"><ele>769.8000000000001</ele><time>2026-04-26T10:16:52.509Z</time></trkpt><trkpt lat="43.0274133" lon="12.9606817"><ele>770.6</ele><time>2026-04-26T10:16:53.509Z</time></trkpt><trkpt lat="43.0273867" lon="12.9605517"><ele>771.4</ele><time>2026-04-26T10:16:54.509Z</time></trkpt><trkpt lat="43.0273633" lon="12.9604133"><ele>772.2</ele><time>2026-04-26T10:16:55.509Z</time></trkpt><trkpt lat="43.0273383" lon="12.9602683"><ele>773.0</ele><time>2026-04-26T10:16:56.509Z</time></trkpt><trkpt lat="43.02732" lon="12.9601333"><ele>773.2</ele><time>2026-04-26T10:16:57.509Z</time></trkpt><trkpt lat="43.0273033" lon="12.9600067"><ele>773.4</ele><time>2026-04-26T10:16:58.509Z</time></trkpt><trkpt lat="43.0272717" lon="12.9598767"><ele>773.6</ele><time>2026-04-26T10:16:59.509Z</time></trkpt><trkpt lat="43.0272367" lon="12.9597567"><ele>773.8000000000001</ele><time>2026-04-26T10:17:00.509Z</time></trkpt><trkpt lat="43.02719" lon="12.9596283"><ele>774.0</ele><time>2026-04-26T10:17:01.509Z</time></trkpt><trkpt lat="43.02716" lon="12.9595017"><ele>774.0</ele><time>2026-04-26T10:17:02.51Z</time></trkpt><trkpt lat="43.0271317" lon="12.95937"><ele>774.0</ele><time>2026-04-26T10:17:03.509Z</time></trkpt><trkpt lat="43.0271183" lon="12.9592483"><ele>774.0</ele><time>2026-04-26T10:17:04.509Z</time></trkpt><trkpt lat="43.0270983" lon="12.95913"><ele>774.0</ele><time>2026-04-26T10:17:05.509Z</time></trkpt><trkpt lat="43.02709" lon="12.95903"><ele>774.0</ele><time>2026-04-26T10:17:06.509Z</time></trkpt><trkpt lat="43.0270767" lon="12.958925"><ele>774.0</ele><time>2026-04-26T10:17:07.509Z</time></trkpt><trkpt lat="43.0270667" lon="12.9588183"><ele>775.8333333333334</ele><time>2026-04-26T10:17:08.509Z</time></trkpt><trkpt lat="43.0270683" lon="12.9587083"><ele>777.6666666666667</ele><time>2026-04-26T10:17:09.509Z</time></trkpt><trkpt lat="43.0270733" lon="12.9586067"><ele>779.5</ele><time>2026-04-26T10:17:10.509Z</time></trkpt><trkpt lat="43.0270783" lon="12.9585183"><ele>781.3333333333334</ele><time>2026-04-26T10:17:11.509Z</time></trkpt><trkpt lat="43.0270533" lon="12.9583583"><ele>783.1666666666667</ele><time>2026-04-26T10:17:13.509Z</time></trkpt><trkpt lat="43.02704" lon="12.9582717"><ele>785.0</ele><time>2026-04-26T10:17:14.509Z</time></trkpt><trkpt lat="43.0270417" lon="12.9581767"><ele>787.2</ele><time>2026-04-26T10:17:15.509Z</time></trkpt><trkpt lat="43.0270567" lon="12.95806"><ele>789.4</ele><time>2026-04-26T10:17:16.509Z</time></trkpt><trkpt lat="43.02707" lon="12.957935"><ele>791.5999999999999</ele><time>2026-04-26T10:17:17.509Z</time></trkpt><trkpt lat="43.0270717" lon="12.9578067"><ele>793.8</ele><time>2026-04-26T10:17:18.509Z</time></trkpt><trkpt lat="43.0270767" lon="12.9576683"><ele>796.0</ele><time>2026-04-26T10:17:19.509Z</time></trkpt><trkpt lat="43.0270817" lon="12.95754"><ele>797.6666666666666</ele><time>2026-04-26T10:17:20.509Z</time></trkpt><trkpt lat="43.0270983" lon="12.9574133"><ele>799.3333333333333</ele><time>2026-04-26T10:17:21.509Z</time></trkpt><trkpt lat="43.0271067" lon="12.9572917"><ele>801.0</ele><time>2026-04-26T10:17:22.509Z</time></trkpt><trkpt lat="43.0271" lon="12.957175"><ele>802.6666666666667</ele><time>2026-04-26T10:17:23.509Z</time></trkpt><trkpt lat="43.02709" lon="12.9570617"><ele>804.3333333333334</ele><time>2026-04-26T10:17:24.51Z</time></trkpt><trkpt lat="43.02708" lon="12.9569467"><ele>806.0</ele><time>2026-04-26T10:17:25.509Z</time></trkpt><trkpt lat="43.0270617" lon="12.9568367"><ele>806.0</ele><time>2026-04-26T10:17:26.509Z</time></trkpt><trkpt lat="43.0270317" lon="12.956735"><ele>806.0</ele><time>2026-04-26T10:17:27.509Z</time></trkpt><trkpt lat="43.0269917" lon="12.956655"><ele>806.0</ele><time>2026-04-26T10:17:28.509Z</time></trkpt><trkpt lat="43.0269283" lon="12.956545"><ele>806.0</ele><time>2026-04-26T10:17:30.509Z</time></trkpt><trkpt lat="43.0268867" lon="12.9564167"><ele>806.0</ele><time>2026-04-26T10:17:32.51Z</time></trkpt><trkpt lat="43.026835" lon="12.9562433"><ele>807.0000000000001</ele><time>2026-04-26T10:17:34.509Z</time></trkpt><trkpt lat="43.0268" lon="12.95615"><ele>808.0</ele><time>2026-04-26T10:17:35.51Z</time></trkpt><trkpt lat="43.026765" lon="12.95605"><ele>809.0</ele><time>2026-04-26T10:17:36.509Z</time></trkpt><trkpt lat="43.02672" lon="12.9559467"><ele>810.0</ele><time>2026-04-26T10:17:37.509Z</time></trkpt><trkpt lat="43.0266783" lon="12.9558417"><ele>811.0000000000001</ele><time>2026-04-26T10:17:38.509Z</time></trkpt><trkpt lat="43.0266383" lon="12.95574"><ele>812.0</ele><time>2026-04-26T10:17:39.509Z</time></trkpt><trkpt lat="43.0265967" lon="12.9556517"><ele>820.8</ele><time>2026-04-26T10:17:40.509Z</time></trkpt><trkpt lat="43.026565" lon="12.9555683"><ele>829.6</ele><time>2026-04-26T10:17:41.51Z</time></trkpt><trkpt lat="43.0265217" lon="12.9554167"><ele>838.3999999999999</ele><time>2026-04-26T10:17:43.509Z</time></trkpt><trkpt lat="43.0264967" lon="12.9552517"><ele>847.1999999999999</ele><time>2026-04-26T10:17:45.509Z</time></trkpt><trkpt lat="43.0264867" lon="12.9551583"><ele>856.0</ele><time>2026-04-26T10:17:46.51Z</time></trkpt><trkpt lat="43.02647" lon="12.955055"><ele>854.6666666666666</ele><time>2026-04-26T10:17:47.509Z</time></trkpt><trkpt lat="43.02644" lon="12.9549533"><ele>853.3333333333333</ele><time>2026-04-26T10:17:48.509Z</time></trkpt><trkpt lat="43.026415" lon="12.954855"><ele>852.0</ele><time>2026-04-26T10:17:49.509Z</time></trkpt><trkpt lat="43.0263883" lon="12.954775"><ele>850.6666666666667</ele><time>2026-04-26T10:17:50.509Z</time></trkpt><trkpt lat="43.02636" lon="12.9546467"><ele>849.3333333333334</ele><time>2026-04-26T10:17:52.509Z</time></trkpt><trkpt lat="43.02634" lon="12.9545"><ele>848.0</ele><time>2026-04-26T10:17:54.509Z</time></trkpt><trkpt lat="43.0262783" lon="12.95434"><ele>848.0000000000001</ele><time>2026-04-26T10:17:56.509Z</time></trkpt><trkpt lat="43.0262433" lon="12.9542483"><ele>848.0</ele><time>2026-04-26T10:17:57.509Z</time></trkpt><trkpt lat="43.0262017" lon="12.9541583"><ele>848.0</ele><time>2026-04-26T10:17:58.509Z</time></trkpt><trkpt lat="43.0261483" lon="12.9540767"><ele>848.0</ele><time>2026-04-26T10:17:59.509Z</time></trkpt><trkpt lat="43.0260983" lon="12.9539883"><ele>848.0000000000001</ele><time>2026-04-26T10:18:00.509Z</time></trkpt><trkpt lat="43.0260533" lon="12.9538883"><ele>848.0</ele><time>2026-04-26T10:18:01.509Z</time></trkpt><trkpt lat="43.026015" lon="12.9537867"><ele>846.5000000000001</ele><time>2026-04-26T10:18:02.509Z</time></trkpt><trkpt lat="43.02598" lon="12.9536833"><ele>845.0</ele><time>2026-04-26T10:18:03.509Z</time></trkpt><trkpt lat="43.0259433" lon="12.9535833"><ele>843.5</ele><time>2026-04-26T10:18:04.509Z</time></trkpt><trkpt lat="43.0258983" lon="12.9535"><ele>842.0</ele><time>2026-04-26T10:18:05.509Z</time></trkpt><trkpt lat="43.0258533" lon="12.9534133"><ele>840.5000000000001</ele><time>2026-04-26T10:18:06.509Z</time></trkpt><trkpt lat="43.0258033" lon="12.953325"><ele>839.0</ele><time>2026-04-26T10:18:07.509Z</time></trkpt><trkpt lat="43.0257617" lon="12.9532367"><ele>845.0</ele><time>2026-04-26T10:18:08.509Z</time></trkpt><trkpt lat="43.0257" lon="12.95314"><ele>851.0</ele><time>2026-04-26T10:18:09.509Z</time></trkpt><trkpt lat="43.025635" lon="12.953045"><ele>857.0000000000001</ele><time>2026-04-26T10:18:10.509Z</time></trkpt><trkpt lat="43.02557" lon="12.9529467"><ele>863.0</ele><time>2026-04-26T10:18:11.509Z</time></trkpt><trkpt lat="43.0255017" lon="12.952855"><ele>869.0</ele><time>2026-04-26T10:18:12.51Z</time></trkpt><trkpt lat="43.02543" lon="12.952755"><ele>869.0</ele><time>2026-04-26T10:18:13.509Z</time></trkpt><trkpt lat="43.0253583" lon="12.9526567"><ele>869.0000000000001</ele><time>2026-04-26T10:18:14.509Z</time></trkpt><trkpt lat="43.0252917" lon="12.9525433"><ele>869.0000000000001</ele><time>2026-04-26T10:18:15.509Z</time></trkpt><trkpt lat="43.0252333" lon="12.9524233"><ele>869.0</ele><time>2026-04-26T10:18:16.509Z</time></trkpt><trkpt lat="43.0251833" lon="12.9523"><ele>869.0</ele><time>2026-04-26T10:18:17.509Z</time></trkpt><trkpt lat="43.0251267" lon="12.952185"><ele>870.8333333333334</ele><time>2026-04-26T10:18:18.509Z</time></trkpt><trkpt lat="43.02507" lon="12.95207"><ele>872.6666666666667</ele><time>2026-04-26T10:18:19.509Z</time></trkpt><trkpt lat="43.0250083" lon="12.95196"><ele>874.5</ele><time>2026-04-26T10:18:20.509Z</time></trkpt><trkpt lat="43.02496" lon="12.951865"><ele>876.3333333333333</ele><time>2026-04-26T10:18:21.509Z</time></trkpt><trkpt lat="43.0249133" lon="12.951785"><ele>878.1666666666666</ele><time>2026-04-26T10:18:22.509Z</time></trkpt><trkpt lat="43.0248733" lon="12.9517133"><ele>880.0</ele><time>2026-04-26T10:18:23.509Z</time></trkpt><trkpt lat="43.0248333" lon="12.9516433"><ele>879.9999999999999</ele><time>2026-04-26T10:18:24.509Z</time></trkpt><trkpt lat="43.02479" lon="12.95156"><ele>880.0</ele><time>2026-04-26T10:18:25.509Z</time></trkpt><trkpt lat="43.0247383" lon="12.9514867"><ele>880.0</ele><time>2026-04-26T10:18:26.51Z</time></trkpt><trkpt lat="43.0246783" lon="12.9514067"><ele>880.0</ele><time>2026-04-26T10:18:27.509Z</time></trkpt><trkpt lat="43.024635" lon="12.9513"><ele>879.9999999999999</ele><time>2026-04-26T10:18:28.509Z</time></trkpt><trkpt lat="43.024595" lon="12.951205"><ele>880.0</ele><time>2026-04-26T10:18:29.509Z</time></trkpt><trkpt lat="43.0245567" lon="12.9511083"><ele>879.9999999999999</ele><time>2026-04-26T10:18:30.509Z</time></trkpt><trkpt lat="43.0245017" lon="12.9510283"><ele>880.0</ele><time>2026-04-26T10:18:31.509Z</time></trkpt><trkpt lat="43.0244517" lon="12.950955"><ele>880.0</ele><time>2026-04-26T10:18:32.509Z</time></trkpt><trkpt lat="43.0244067" lon="12.9508833"><ele>880.0</ele><time>2026-04-26T10:18:33.509Z</time></trkpt><trkpt lat="43.0243617" lon="12.950815"><ele>880.0</ele><time>2026-04-26T10:18:34.509Z</time></trkpt><trkpt lat="43.02432" lon="12.9507483"><ele>879.9999999999999</ele><time>2026-04-26T10:18:35.509Z</time></trkpt><trkpt lat="43.0242667" lon="12.9506733"><ele>880.0</ele><time>2026-04-26T10:18:36.509Z</time></trkpt><trkpt lat="43.0242183" lon="12.9506017"><ele>878.3333333333333</ele><time>2026-04-26T10:18:37.509Z</time></trkpt><trkpt lat="43.024175" lon="12.95053"><ele>876.6666666666666</ele><time>2026-04-26T10:18:38.509Z</time></trkpt><trkpt lat="43.0241317" lon="12.95042"><ele>875.0</ele><time>2026-04-26T10:18:40.509Z</time></trkpt><trkpt lat="43.02408" lon="12.95035"><ele>873.3333333333333</ele><time>2026-04-26T10:19:19.51Z</time></trkpt><trkpt lat="43.0240233" lon="12.9502467"><ele>871.6666666666666</ele><time>2026-04-26T10:20:03.509Z</time></trkpt><trkpt lat="43.023985" lon="12.9501767"><ele>870.0</ele><time>2026-04-26T10:20:04.509Z</time></trkpt><trkpt lat="43.02395" lon="12.9501"><ele>872.3333333333334</ele><time>2026-04-26T10:20:05.509Z</time></trkpt><trkpt lat="43.02391" lon="12.9499967"><ele>874.6666666666667</ele><time>2026-04-26T10:20:06.509Z</time></trkpt><trkpt lat="43.0238733" lon="12.9498867"><ele>877.0</ele><time>2026-04-26T10:20:07.509Z</time></trkpt><trkpt lat="43.023845" lon="12.9497933"><ele>879.3333333333334</ele><time>2026-04-26T10:20:08.509Z</time></trkpt><trkpt lat="43.02383" lon="12.9497033"><ele>881.6666666666667</ele><time>2026-04-26T10:20:09.509Z</time></trkpt><trkpt lat="43.0238183" lon="12.9495383"><ele>884.0</ele><time>2026-04-26T10:20:11.509Z</time></trkpt><trkpt lat="43.0238083" lon="12.9494417"><ele>884.0</ele><time>2026-04-26T10:20:12.509Z</time></trkpt><trkpt lat="43.0238" lon="12.94934"><ele>884.0000000000001</ele><time>2026-04-26T10:20:13.51Z</time></trkpt><trkpt lat="43.023795" lon="12.9492317"><ele>884.0000000000001</ele><time>2026-04-26T10:20:14.509Z</time></trkpt><trkpt lat="43.0237917" lon="12.94914"><ele>884.0</ele><time>2026-04-26T10:20:15.509Z</time></trkpt><trkpt lat="43.0237867" lon="12.9489733"><ele>884.0</ele><time>2026-04-26T10:20:17.509Z</time></trkpt><trkpt lat="43.023785" lon="12.948805"><ele>880.8000000000001</ele><time>2026-04-26T10:20:19.509Z</time></trkpt><trkpt lat="43.0238117" lon="12.9486717"><ele>877.6000000000001</ele><time>2026-04-26T10:20:21.509Z</time></trkpt><trkpt lat="43.0238467" lon="12.9485267"><ele>874.4</ele><time>2026-04-26T10:20:23.509Z</time></trkpt><trkpt lat="43.02391" lon="12.9484167"><ele>871.2</ele><time>2026-04-26T10:20:25.509Z</time></trkpt><trkpt lat="43.0239783" lon="12.9482933"><ele>868.0</ele><time>2026-04-26T10:20:27.509Z</time></trkpt><trkpt lat="43.02405" lon="12.9481983"><ele>871.4</ele><time>2026-04-26T10:20:29.509Z</time></trkpt><trkpt lat="43.0241567" lon="12.948145"><ele>874.8</ele><time>2026-04-26T10:20:31.509Z</time></trkpt><trkpt lat="43.02427" lon="12.9480733"><ele>878.2</ele><time>2026-04-26T10:20:33.51Z</time></trkpt><trkpt lat="43.02433" lon="12.9480133"><ele>881.6</ele><time>2026-04-26T10:20:34.51Z</time></trkpt><trkpt lat="43.024385" lon="12.9479417"><ele>885.0</ele><time>2026-04-26T10:20:35.509Z</time></trkpt><trkpt lat="43.0244417" lon="12.947865"><ele>885.0</ele><time>2026-04-26T10:20:36.509Z</time></trkpt><trkpt lat="43.024495" lon="12.9477933"><ele>885.0</ele><time>2026-04-26T10:20:37.509Z</time></trkpt><trkpt lat="43.0245467" lon="12.9477283"><ele>885.0</ele><time>2026-04-26T10:20:38.509Z</time></trkpt><trkpt lat="43.0246083" lon="12.94767"><ele>885.0</ele><time>2026-04-26T10:20:39.509Z</time></trkpt><trkpt lat="43.0246633" lon="12.9476067"><ele>885.0</ele><time>2026-04-26T10:20:40.509Z</time></trkpt><trkpt lat="43.0247217" lon="12.9475333"><ele>885.0</ele><time>2026-04-26T10:20:41.509Z</time></trkpt><trkpt lat="43.0247783" lon="12.9474633"><ele>885.0</ele><time>2026-04-26T10:20:42.509Z</time></trkpt><trkpt lat="43.0248317" lon="12.94739"><ele>883.1428571428571</ele><time>2026-04-26T10:20:43.51Z</time></trkpt><trkpt lat="43.0248867" lon="12.9473267"><ele>881.2857142857142</ele><time>2026-04-26T10:20:44.509Z</time></trkpt><trkpt lat="43.0249383" lon="12.9472733"><ele>879.4285714285714</ele><time>2026-04-26T10:20:45.509Z</time></trkpt><trkpt lat="43.0249883" lon="12.9472167"><ele>877.5714285714286</ele><time>2026-04-26T10:20:46.51Z</time></trkpt><trkpt lat="43.0250367" lon="12.9471583"><ele>875.7142857142858</ele><time>2026-04-26T10:20:47.509Z</time></trkpt><trkpt lat="43.0250917" lon="12.9471"><ele>873.8571428571429</ele><time>2026-04-26T10:20:48.509Z</time></trkpt><trkpt lat="43.0251467" lon="12.9470567"><ele>872.0</ele><time>2026-04-26T10:20:49.509Z</time></trkpt><trkpt lat="43.0252033" lon="12.9470133"><ele>874.5000000000001</ele><time>2026-04-26T10:20:50.509Z</time></trkpt><trkpt lat="43.02526" lon="12.9469683"><ele>877.0</ele><time>2026-04-26T10:20:51.509Z</time></trkpt><trkpt lat="43.0253167" lon="12.9468983"><ele>879.5</ele><time>2026-04-26T10:20:52.509Z</time></trkpt><trkpt lat="43.0253783" lon="12.9468383"><ele>882.0</ele><time>2026-04-26T10:20:53.509Z</time></trkpt><trkpt lat="43.02544" lon="12.9467733"><ele>884.5000000000001</ele><time>2026-04-26T10:20:54.509Z</time></trkpt><trkpt lat="43.0255033" lon="12.9467067"><ele>887.0</ele><time>2026-04-26T10:20:55.51Z</time></trkpt><trkpt lat="43.0255667" lon="12.9466367"><ele>887.0000000000001</ele><time>2026-04-26T10:20:56.51Z</time></trkpt><trkpt lat="43.0256283" lon="12.9465667"><ele>887.0</ele><time>2026-04-26T10:20:57.509Z</time></trkpt><trkpt lat="43.025695" lon="12.94648"><ele>887.0</ele><time>2026-04-26T10:20:58.509Z</time></trkpt><trkpt lat="43.02576" lon="12.9463983"><ele>887.0</ele><time>2026-04-26T10:20:59.509Z</time></trkpt><trkpt lat="43.02583" lon="12.9463167"><ele>887.0000000000001</ele><time>2026-04-26T10:21:00.509Z</time></trkpt><trkpt lat="43.0258983" lon="12.9462333"><ele>887.0</ele><time>2026-04-26T10:21:01.509Z</time></trkpt><trkpt lat="43.0259667" lon="12.946165"><ele>890.5000000000001</ele><time>2026-04-26T10:21:02.509Z</time></trkpt><trkpt lat="43.0260433" lon="12.946105"><ele>894.0</ele><time>2026-04-26T10:21:03.509Z</time></trkpt><trkpt lat="43.0260983" lon="12.9460367"><ele>897.5</ele><time>2026-04-26T10:21:04.509Z</time></trkpt><trkpt lat="43.0261467" lon="12.94597"><ele>901.0</ele><time>2026-04-26T10:21:05.51Z</time></trkpt><trkpt lat="43.026195" lon="12.9458867"><ele>904.5000000000001</ele><time>2026-04-26T10:21:06.509Z</time></trkpt><trkpt lat="43.0262467" lon="12.945795"><ele>908.0</ele><time>2026-04-26T10:21:07.509Z</time></trkpt><trkpt lat="43.026295" lon="12.9457033"><ele>908.0000000000001</ele><time>2026-04-26T10:21:08.509Z</time></trkpt><trkpt lat="43.026345" lon="12.9456133"><ele>908.0</ele><time>2026-04-26T10:21:09.509Z</time></trkpt><trkpt lat="43.0264" lon="12.9455283"><ele>908.0</ele><time>2026-04-26T10:21:10.509Z</time></trkpt><trkpt lat="43.02646" lon="12.9454517"><ele>908.0</ele><time>2026-04-26T10:21:11.509Z</time></trkpt><trkpt lat="43.026525" lon="12.945385"><ele>908.0000000000001</ele><time>2026-04-26T10:21:12.509Z</time></trkpt><trkpt lat="43.02658" lon="12.9453217"><ele>908.0</ele><time>2026-04-26T10:21:13.509Z</time></trkpt><trkpt lat="43.0266317" lon="12.9452533"><ele>911.5000000000001</ele><time>2026-04-26T10:21:14.509Z</time></trkpt><trkpt lat="43.0266783" lon="12.9451767"><ele>915.0</ele><time>2026-04-26T10:21:15.51Z</time></trkpt><trkpt lat="43.026725" lon="12.9450917"><ele>918.5</ele><time>2026-04-26T10:21:16.51Z</time></trkpt><trkpt lat="43.0267617" lon="12.94499"><ele>922.0</ele><time>2026-04-26T10:21:17.51Z</time></trkpt><trkpt lat="43.0268" lon="12.9448733"><ele>925.5000000000001</ele><time>2026-04-26T10:21:18.509Z</time></trkpt><trkpt lat="43.026845" lon="12.9447667"><ele>929.0</ele><time>2026-04-26T10:21:19.509Z</time></trkpt><trkpt lat="43.0268783" lon="12.9446783"><ele>929.0000000000001</ele><time>2026-04-26T10:21:20.51Z</time></trkpt><trkpt lat="43.0269283" lon="12.9446033"><ele>929.0</ele><time>2026-04-26T10:21:21.509Z</time></trkpt><trkpt lat="43.0269917" lon="12.9445483"><ele>929.0</ele><time>2026-04-26T10:21:22.509Z</time></trkpt><trkpt lat="43.0270733" lon="12.9444933"><ele>929.0</ele><time>2026-04-26T10:21:23.509Z</time></trkpt><trkpt lat="43.0271617" lon="12.9444383"><ele>929.0000000000001</ele><time>2026-04-26T10:21:24.509Z</time></trkpt><trkpt lat="43.0272517" lon="12.9443883"><ele>929.0</ele><time>2026-04-26T10:21:25.509Z</time></trkpt><trkpt lat="43.0273483" lon="12.9443367"><ele>929.0</ele><time>2026-04-26T10:21:26.509Z</time></trkpt><trkpt lat="43.0274333" lon="12.9443033"><ele>929.0000000000001</ele><time>2026-04-26T10:21:27.509Z</time></trkpt><trkpt lat="43.027505" lon="12.9442733"><ele>929.0000000000001</ele><time>2026-04-26T10:21:28.509Z</time></trkpt><trkpt lat="43.027575" lon="12.9442517"><ele>929.0</ele><time>2026-04-26T10:21:29.509Z</time></trkpt><trkpt lat="43.02769" lon="12.9442483"><ele>929.0</ele><time>2026-04-26T10:21:31.509Z</time></trkpt><trkpt lat="43.0277983" lon="12.9442633"><ele>932.3333333333334</ele><time>2026-04-26T10:21:33.509Z</time></trkpt><trkpt lat="43.0279017" lon="12.9442783"><ele>935.6666666666667</ele><time>2026-04-26T10:21:35.509Z</time></trkpt><trkpt lat="43.0279767" lon="12.9442867"><ele>939.0</ele><time>2026-04-26T10:21:36.508Z</time></trkpt><trkpt lat="43.0280533" lon="12.9442983"><ele>942.3333333333333</ele><time>2026-04-26T10:21:37.508Z</time></trkpt><trkpt lat="43.0281317" lon="12.9443067"><ele>945.6666666666666</ele><time>2026-04-26T10:21:38.508Z</time></trkpt><trkpt lat="43.02823" lon="12.9443017"><ele>949.0</ele><time>2026-04-26T10:21:39.508Z</time></trkpt><trkpt lat="43.0283167" lon="12.94427"><ele>946.9999999999999</ele><time>2026-04-26T10:21:40.508Z</time></trkpt><trkpt lat="43.0283983" lon="12.94423"><ele>945.0</ele><time>2026-04-26T10:21:41.509Z</time></trkpt><trkpt lat="43.0284833" lon="12.944195"><ele>943.0</ele><time>2026-04-26T10:21:42.508Z</time></trkpt><trkpt lat="43.0285517" lon="12.9441583"><ele>941.0</ele><time>2026-04-26T10:21:43.508Z</time></trkpt><trkpt lat="43.0286233" lon="12.94412"><ele>938.9999999999999</ele><time>2026-04-26T10:21:44.508Z</time></trkpt><trkpt lat="43.0287" lon="12.9440767"><ele>937.0</ele><time>2026-04-26T10:21:45.509Z</time></trkpt><trkpt lat="43.0287683" lon="12.944035"><ele>937.0</ele><time>2026-04-26T10:21:46.509Z</time></trkpt><trkpt lat="43.0288267" lon="12.94399"><ele>937.0</ele><time>2026-04-26T10:21:47.509Z</time></trkpt><trkpt lat="43.0288817" lon="12.94393"><ele>937.0</ele><time>2026-04-26T10:21:48.508Z</time></trkpt><trkpt lat="43.0289333" lon="12.9438667"><ele>937.0</ele><time>2026-04-26T10:21:49.508Z</time></trkpt><trkpt lat="43.028995" lon="12.94381"><ele>937.0</ele><time>2026-04-26T10:21:50.508Z</time></trkpt><trkpt lat="43.0290617" lon="12.943755"><ele>937.0</ele><time>2026-04-26T10:21:51.508Z</time></trkpt><trkpt lat="43.02912" lon="12.9437067"><ele>937.0</ele><time>2026-04-26T10:21:52.508Z</time></trkpt><trkpt lat="43.02924" lon="12.943625"><ele>938.6666666666666</ele><time>2026-04-26T10:21:54.508Z</time></trkpt><trkpt lat="43.029305" lon="12.9435817"><ele>940.3333333333333</ele><time>2026-04-26T10:21:55.508Z</time></trkpt><trkpt lat="43.02937" lon="12.943525"><ele>942.0</ele><time>2026-04-26T10:21:56.508Z</time></trkpt><trkpt lat="43.0294383" lon="12.943465"><ele>943.6666666666667</ele><time>2026-04-26T10:21:57.508Z</time></trkpt><trkpt lat="43.0295083" lon="12.9434067"><ele>945.3333333333334</ele><time>2026-04-26T10:21:58.508Z</time></trkpt><trkpt lat="43.0295933" lon="12.943325"><ele>947.0</ele><time>2026-04-26T10:21:59.508Z</time></trkpt><trkpt lat="43.0296767" lon="12.94324"><ele>944.8</ele><time>2026-04-26T10:22:00.508Z</time></trkpt><trkpt lat="43.0297517" lon="12.9431567"><ele>942.6</ele><time>2026-04-26T10:22:01.508Z</time></trkpt><trkpt lat="43.02984" lon="12.94305"><ele>940.3999999999999</ele><time>2026-04-26T10:22:02.508Z</time></trkpt><trkpt lat="43.02993" lon="12.942955"><ele>938.1999999999999</ele><time>2026-04-26T10:22:03.508Z</time></trkpt><trkpt lat="43.03002" lon="12.942855"><ele>936.0</ele><time>2026-04-26T10:22:04.509Z</time></trkpt><trkpt lat="43.030105" lon="12.9427583"><ele>936.0</ele><time>2026-04-26T10:22:05.509Z</time></trkpt><trkpt lat="43.030185" lon="12.94267"><ele>935.9999999999999</ele><time>2026-04-26T10:22:06.508Z</time></trkpt><trkpt lat="43.0302617" lon="12.9425833"><ele>935.9999999999999</ele><time>2026-04-26T10:22:07.508Z</time></trkpt><trkpt lat="43.0303267" lon="12.9425183"><ele>936.0</ele><time>2026-04-26T10:22:08.508Z</time></trkpt><trkpt lat="43.030405" lon="12.94242"><ele>936.0</ele><time>2026-04-26T10:22:10.508Z</time></trkpt><trkpt lat="43.0304517" lon="12.9423333"><ele>935.1666666666666</ele><time>2026-04-26T10:22:13.508Z</time></trkpt><trkpt lat="43.0305317" lon="12.9422717"><ele>934.3333333333333</ele><time>2026-04-26T10:22:17.509Z</time></trkpt><trkpt lat="43.0306017" lon="12.942225"><ele>933.5</ele><time>2026-04-26T10:22:19.508Z</time></trkpt><trkpt lat="43.0307067" lon="12.94215"><ele>932.6666666666666</ele><time>2026-04-26T10:22:21.508Z</time></trkpt><trkpt lat="43.03077" lon="12.9421167"><ele>931.8333333333333</ele><time>2026-04-26T10:22:22.508Z</time></trkpt><trkpt lat="43.0308367" lon="12.9420867"><ele>931.0</ele><time>2026-04-26T10:22:23.509Z</time></trkpt><trkpt lat="43.0309033" lon="12.9420467"><ele>931.0</ele><time>2026-04-26T10:22:24.508Z</time></trkpt><trkpt lat="43.0309633" lon="12.9420067"><ele>931.0</ele><time>2026-04-26T10:22:25.508Z</time></trkpt><trkpt lat="43.0310217" lon="12.9419683"><ele>931.0</ele><time>2026-04-26T10:22:26.508Z</time></trkpt><trkpt lat="43.031085" lon="12.94193"><ele>931.0</ele><time>2026-04-26T10:22:27.509Z</time></trkpt><trkpt lat="43.0311467" lon="12.941895"><ele>931.0</ele><time>2026-04-26T10:22:28.508Z</time></trkpt><trkpt lat="43.03121" lon="12.94186"><ele>931.0</ele><time>2026-04-26T10:22:29.509Z</time></trkpt><trkpt lat="43.0312783" lon="12.9418317"><ele>931.0</ele><time>2026-04-26T10:22:30.508Z</time></trkpt><trkpt lat="43.0313433" lon="12.941815"><ele>930.9999999999999</ele><time>2026-04-26T10:22:31.509Z</time></trkpt><trkpt lat="43.0314133" lon="12.9418017"><ele>931.0</ele><time>2026-04-26T10:22:32.508Z</time></trkpt><trkpt lat="43.0314833" lon="12.9417867"><ele>931.0</ele><time>2026-04-26T10:22:33.508Z</time></trkpt><trkpt lat="43.0315467" lon="12.9417817"><ele>931.0</ele><time>2026-04-26T10:22:34.509Z</time></trkpt><trkpt lat="43.0316733" lon="12.9417817"><ele>930.9999999999999</ele><time>2026-04-26T10:22:36.508Z</time></trkpt><trkpt lat="43.0317467" lon="12.941795"><ele>931.0</ele><time>2026-04-26T10:22:37.509Z</time></trkpt><trkpt lat="43.031815" lon="12.9418167"><ele>930.6666666666666</ele><time>2026-04-26T10:22:38.508Z</time></trkpt><trkpt lat="43.0318867" lon="12.9418383"><ele>930.3333333333333</ele><time>2026-04-26T10:22:39.508Z</time></trkpt><trkpt lat="43.031975" lon="12.9418583"><ele>930.0</ele><time>2026-04-26T10:22:40.508Z</time></trkpt><trkpt lat="43.0320617" lon="12.9418767"><ele>929.6666666666667</ele><time>2026-04-26T10:22:41.508Z</time></trkpt><trkpt lat="43.03214" lon="12.94189"><ele>929.3333333333334</ele><time>2026-04-26T10:22:42.508Z</time></trkpt><trkpt lat="43.0322183" lon="12.9418967"><ele>929.0</ele><time>2026-04-26T10:22:43.508Z</time></trkpt><trkpt lat="43.0322983" lon="12.9419083"><ele>929.0</ele><time>2026-04-26T10:22:44.509Z</time></trkpt><trkpt lat="43.0323817" lon="12.9419367"><ele>929.0000000000001</ele><time>2026-04-26T10:22:45.508Z</time></trkpt><trkpt lat="43.032465" lon="12.9419633"><ele>929.0000000000001</ele><time>2026-04-26T10:22:46.508Z</time></trkpt><trkpt lat="43.03254" lon="12.94198"><ele>929.0</ele><time>2026-04-26T10:22:47.508Z</time></trkpt><trkpt lat="43.0326033" lon="12.9419933"><ele>929.0</ele><time>2026-04-26T10:22:48.508Z</time></trkpt><trkpt lat="43.03274" lon="12.941945"><ele>930.2</ele><time>2026-04-26T10:22:50.508Z</time></trkpt><trkpt lat="43.032835" lon="12.9419033"><ele>931.4000000000001</ele><time>2026-04-26T10:22:51.508Z</time></trkpt><trkpt lat="43.0329233" lon="12.9418483"><ele>932.6</ele><time>2026-04-26T10:22:52.508Z</time></trkpt><trkpt lat="43.0330083" lon="12.94178"><ele>933.8</ele><time>2026-04-26T10:22:53.508Z</time></trkpt><trkpt lat="43.0330883" lon="12.9416883"><ele>935.0</ele><time>2026-04-26T10:22:54.509Z</time></trkpt><trkpt lat="43.0331617" lon="12.94159"><ele>933.4</ele><time>2026-04-26T10:22:55.508Z</time></trkpt><trkpt lat="43.033225" lon="12.941495"><ele>931.8</ele><time>2026-04-26T10:22:56.508Z</time></trkpt><trkpt lat="43.0332817" lon="12.941395"><ele>930.2</ele><time>2026-04-26T10:22:57.508Z</time></trkpt><trkpt lat="43.03333" lon="12.9412983"><ele>928.6</ele><time>2026-04-26T10:22:58.509Z</time></trkpt><trkpt lat="43.0333933" lon="12.9412033"><ele>927.0</ele><time>2026-04-26T10:22:59.509Z</time></trkpt><trkpt lat="43.03346" lon="12.9411183"><ele>927.0</ele><time>2026-04-26T10:23:00.508Z</time></trkpt><trkpt lat="43.03353" lon="12.9410317"><ele>927.0</ele><time>2026-04-26T10:23:01.508Z</time></trkpt><trkpt lat="43.0336067" lon="12.9409417"><ele>927.0</ele><time>2026-04-26T10:23:02.508Z</time></trkpt><trkpt lat="43.0336683" lon="12.94086"><ele>927.0</ele><time>2026-04-26T10:23:03.508Z</time></trkpt><trkpt lat="43.033735" lon="12.940785"><ele>927.0</ele><time>2026-04-26T10:23:04.508Z</time></trkpt><trkpt lat="43.0337867" lon="12.9407233"><ele>927.0</ele><time>2026-04-26T10:23:05.508Z</time></trkpt><trkpt lat="43.03387" lon="12.9406417"><ele>926.6666666666666</ele><time>2026-04-26T10:23:07.509Z</time></trkpt><trkpt lat="43.0339267" lon="12.9405533"><ele>926.3333333333333</ele><time>2026-04-26T10:23:09.508Z</time></trkpt><trkpt lat="43.0339917" lon="12.94048"><ele>926.0</ele><time>2026-04-26T10:23:11.508Z</time></trkpt><trkpt lat="43.0340717" lon="12.94043"><ele>925.6666666666666</ele><time>2026-04-26T10:23:13.508Z</time></trkpt><trkpt lat="43.0341333" lon="12.940395"><ele>925.3333333333333</ele><time>2026-04-26T10:23:14.509Z</time></trkpt><trkpt lat="43.0341983" lon="12.9403617"><ele>925.0</ele><time>2026-04-26T10:23:15.508Z</time></trkpt><trkpt lat="43.0342967" lon="12.9403"><ele>924.9999999999999</ele><time>2026-04-26T10:23:17.509Z</time></trkpt><trkpt lat="43.0343917" lon="12.940215"><ele>925.0</ele><time>2026-04-26T10:23:19.508Z</time></trkpt><trkpt lat="43.034445" lon="12.940165"><ele>925.0</ele><time>2026-04-26T10:23:20.508Z</time></trkpt><trkpt lat="43.034505" lon="12.940105"><ele>925.0</ele><time>2026-04-26T10:23:21.508Z</time></trkpt><trkpt lat="43.0345633" lon="12.9400267"><ele>924.9999999999999</ele><time>2026-04-26T10:23:22.508Z</time></trkpt><trkpt lat="43.034615" lon="12.9399183"><ele>925.0</ele><time>2026-04-26T10:23:23.509Z</time></trkpt><trkpt lat="43.0346533" lon="12.9397933"><ele>921.8</ele><time>2026-04-26T10:23:24.509Z</time></trkpt><trkpt lat="43.0346833" lon="12.9396883"><ele>918.6</ele><time>2026-04-26T10:23:25.508Z</time></trkpt><trkpt lat="43.0347233" lon="12.9395283"><ele>915.4000000000001</ele><time>2026-04-26T10:23:27.508Z</time></trkpt><trkpt lat="43.03479" lon="12.9394333"><ele>912.2</ele><time>2026-04-26T10:23:29.508Z</time></trkpt><trkpt lat="43.034855" lon="12.9393833"><ele>909.0</ele><time>2026-04-26T10:23:30.509Z</time></trkpt><trkpt lat="43.034925" lon="12.93934"><ele>908.6</ele><time>2026-04-26T10:23:31.508Z</time></trkpt><trkpt lat="43.0349833" lon="12.9393"><ele>908.2</ele><time>2026-04-26T10:23:32.508Z</time></trkpt><trkpt lat="43.035065" lon="12.9392183"><ele>907.8000000000001</ele><time>2026-04-26T10:23:34.508Z</time></trkpt><trkpt lat="43.0351167" lon="12.939105"><ele>907.4000000000001</ele><time>2026-04-26T10:27:46.508Z</time></trkpt><trkpt lat="43.0351833" lon="12.9389617"><ele>907.0</ele><time>2026-04-26T10:27:48.508Z</time></trkpt><trkpt lat="43.0352233" lon="12.9388533"><ele>907.0</ele><time>2026-04-26T10:27:50.509Z</time></trkpt><trkpt lat="43.0352033" lon="12.9387317"><ele>907.0</ele><time>2026-04-26T10:27:53.508Z</time></trkpt><trkpt lat="43.03515" lon="12.9386383"><ele>907.0</ele><time>2026-04-26T10:27:55.508Z</time></trkpt><trkpt lat="43.0350867" lon="12.938535"><ele>907.0</ele><time>2026-04-26T10:27:57.508Z</time></trkpt><trkpt lat="43.0350283" lon="12.9384267"><ele>907.0</ele><time>2026-04-26T10:27:59.508Z</time></trkpt><trkpt lat="43.034965" lon="12.938325"><ele>903.4999999999999</ele><time>2026-04-26T10:28:01.509Z</time></trkpt><trkpt lat="43.034885" lon="12.9382067"><ele>900.0</ele><time>2026-04-26T10:28:03.508Z</time></trkpt><trkpt lat="43.03483" lon="12.93814"><ele>896.5</ele><time>2026-04-26T10:28:04.508Z</time></trkpt><trkpt lat="43.0347783" lon="12.9380683"><ele>893.0</ele><time>2026-04-26T10:28:05.508Z</time></trkpt><trkpt lat="43.0347317" lon="12.938"><ele>889.4999999999999</ele><time>2026-04-26T10:28:06.508Z</time></trkpt><trkpt lat="43.0346883" lon="12.9379317"><ele>886.0</ele><time>2026-04-26T10:28:07.508Z</time></trkpt><trkpt lat="43.034605" lon="12.93781"><ele>885.9999999999999</ele><time>2026-04-26T10:28:09.509Z</time></trkpt><trkpt lat="43.0345433" lon="12.9376667"><ele>886.0</ele><time>2026-04-26T10:28:11.508Z</time></trkpt><trkpt lat="43.0345317" lon="12.93756"><ele>886.0</ele><time>2026-04-26T10:28:12.508Z</time></trkpt><trkpt lat="43.03453" lon="12.9374517"><ele>886.0</ele><time>2026-04-26T10:28:13.508Z</time></trkpt><trkpt lat="43.03453" lon="12.9373533"><ele>885.9999999999999</ele><time>2026-04-26T10:28:14.509Z</time></trkpt><trkpt lat="43.0345183" lon="12.93726"><ele>886.0</ele><time>2026-04-26T10:28:15.509Z</time></trkpt><trkpt lat="43.0344983" lon="12.9371533"><ele>885.3333333333333</ele><time>2026-04-26T10:28:16.508Z</time></trkpt><trkpt lat="43.0344817" lon="12.9370567"><ele>884.6666666666666</ele><time>2026-04-26T10:28:17.508Z</time></trkpt><trkpt lat="43.0344717" lon="12.9369583"><ele>884.0</ele><time>2026-04-26T10:28:18.508Z</time></trkpt><trkpt lat="43.0344583" lon="12.9368483"><ele>883.3333333333333</ele><time>2026-04-26T10:28:19.508Z</time></trkpt><trkpt lat="43.03444" lon="12.936745"><ele>882.6666666666666</ele><time>2026-04-26T10:28:20.508Z</time></trkpt><trkpt lat="43.0344217" lon="12.9366417"><ele>882.0</ele><time>2026-04-26T10:28:21.508Z</time></trkpt><trkpt lat="43.03441" lon="12.9365483"><ele>881.3333333333334</ele><time>2026-04-26T10:28:22.508Z</time></trkpt><trkpt lat="43.0344167" lon="12.9364483"><ele>880.6666666666667</ele><time>2026-04-26T10:28:23.508Z</time></trkpt><trkpt lat="43.03444" lon="12.93633"><ele>880.0</ele><time>2026-04-26T10:28:24.509Z</time></trkpt><trkpt lat="43.0344617" lon="12.9362183"><ele>879.3333333333334</ele><time>2026-04-26T10:28:25.508Z</time></trkpt><trkpt lat="43.0344783" lon="12.9361133"><ele>878.6666666666667</ele><time>2026-04-26T10:28:26.509Z</time></trkpt><trkpt lat="43.0344867" lon="12.936"><ele>878.0</ele><time>2026-04-26T10:28:27.508Z</time></trkpt><trkpt lat="43.0344933" lon="12.9358983"><ele>877.5999999999999</ele><time>2026-04-26T10:28:28.508Z</time></trkpt><trkpt lat="43.03451" lon="12.93581"><ele>877.1999999999999</ele><time>2026-04-26T10:28:29.507Z</time></trkpt><trkpt lat="43.0345683" lon="12.93567"><ele>876.8</ele><time>2026-04-26T10:28:31.507Z</time></trkpt><trkpt lat="43.03467" lon="12.9355833"><ele>876.4</ele><time>2026-04-26T10:28:33.507Z</time></trkpt><trkpt lat="43.034765" lon="12.9354983"><ele>876.0</ele><time>2026-04-26T10:28:35.508Z</time></trkpt><trkpt lat="43.0348133" lon="12.9354383"><ele>876.0</ele><time>2026-04-26T10:28:36.507Z</time></trkpt><trkpt lat="43.0348533" lon="12.93537"><ele>876.0</ele><time>2026-04-26T10:28:37.507Z</time></trkpt><trkpt lat="43.0348917" lon="12.9352883"><ele>876.0</ele><time>2026-04-26T10:28:38.507Z</time></trkpt><trkpt lat="43.0349317" lon="12.93521"><ele>876.0</ele><time>2026-04-26T10:28:39.507Z</time></trkpt><trkpt lat="43.0349783" lon="12.9351517"><ele>876.0</ele><time>2026-04-26T10:28:40.507Z</time></trkpt><trkpt lat="43.035035" lon="12.9351017"><ele>876.0</ele><time>2026-04-26T10:28:41.507Z</time></trkpt><trkpt lat="43.0350983" lon="12.93505"><ele>876.0</ele><time>2026-04-26T10:28:42.508Z</time></trkpt><trkpt lat="43.0351767" lon="12.9349883"><ele>874.8333333333334</ele><time>2026-04-26T10:28:43.508Z</time></trkpt><trkpt lat="43.0352583" lon="12.9349217"><ele>873.6666666666667</ele><time>2026-04-26T10:28:44.508Z</time></trkpt><trkpt lat="43.0353317" lon="12.9348633"><ele>872.5</ele><time>2026-04-26T10:28:45.507Z</time></trkpt><trkpt lat="43.0354133" lon="12.9348133"><ele>871.3333333333334</ele><time>2026-04-26T10:28:46.507Z</time></trkpt><trkpt lat="43.0354883" lon="12.9347767"><ele>870.1666666666667</ele><time>2026-04-26T10:28:47.507Z</time></trkpt><trkpt lat="43.0355517" lon="12.9347367"><ele>869.0</ele><time>2026-04-26T10:28:48.507Z</time></trkpt><trkpt lat="43.0356517" lon="12.934655"><ele>869.0000000000001</ele><time>2026-04-26T10:28:50.507Z</time></trkpt><trkpt lat="43.0356983" lon="12.9345183"><ele>869.0</ele><time>2026-04-26T10:28:52.507Z</time></trkpt><trkpt lat="43.03572" lon="12.9344217"><ele>869.0</ele><time>2026-04-26T10:28:53.507Z</time></trkpt><trkpt lat="43.035755" lon="12.9343233"><ele>869.0</ele><time>2026-04-26T10:28:54.508Z</time></trkpt><trkpt lat="43.03579" lon="12.93422"><ele>869.0000000000001</ele><time>2026-04-26T10:28:55.507Z</time></trkpt><trkpt lat="43.0358167" lon="12.9341217"><ele>869.0</ele><time>2026-04-26T10:28:56.507Z</time></trkpt><trkpt lat="43.0358517" lon="12.934025"><ele>866.8333333333334</ele><time>2026-04-26T10:28:57.507Z</time></trkpt><trkpt lat="43.035885" lon="12.9339417"><ele>864.6666666666667</ele><time>2026-04-26T10:28:58.507Z</time></trkpt><trkpt lat="43.035915" lon="12.933855"><ele>862.5</ele><time>2026-04-26T10:28:59.507Z</time></trkpt><trkpt lat="43.0359417" lon="12.9337767"><ele>860.3333333333333</ele><time>2026-04-26T10:29:00.507Z</time></trkpt><trkpt lat="43.0359933" lon="12.9336567"><ele>858.1666666666666</ele><time>2026-04-26T10:29:02.507Z</time></trkpt><trkpt lat="43.03606" lon="12.9336033"><ele>856.0</ele><time>2026-04-26T10:29:04.508Z</time></trkpt><trkpt lat="43.036165" lon="12.9335667"><ele>856.0</ele><time>2026-04-26T10:29:06.508Z</time></trkpt><trkpt lat="43.036275" lon="12.9335567"><ele>855.9999999999999</ele><time>2026-04-26T10:29:08.507Z</time></trkpt><trkpt lat="43.036385" lon="12.93359"><ele>855.9999999999999</ele><time>2026-04-26T10:29:10.507Z</time></trkpt><trkpt lat="43.0364833" lon="12.933595"><ele>856.0</ele><time>2026-04-26T10:29:12.508Z</time></trkpt><trkpt lat="43.036535" lon="12.9334833"><ele>856.0</ele><time>2026-04-26T10:29:14.507Z</time></trkpt><trkpt lat="43.0364833" lon="12.9333367"><ele>853.9999999999999</ele><time>2026-04-26T10:29:16.507Z</time></trkpt><trkpt lat="43.0364267" lon="12.9332583"><ele>852.0</ele><time>2026-04-26T10:29:17.507Z</time></trkpt><trkpt lat="43.0363667" lon="12.933185"><ele>850.0</ele><time>2026-04-26T10:29:18.508Z</time></trkpt><trkpt lat="43.036315" lon="12.9331033"><ele>848.0</ele><time>2026-04-26T10:29:19.507Z</time></trkpt><trkpt lat="43.036265" lon="12.9330233"><ele>845.9999999999999</ele><time>2026-04-26T10:29:20.507Z</time></trkpt><trkpt lat="43.036205" lon="12.93294"><ele>844.0</ele><time>2026-04-26T10:29:21.508Z</time></trkpt><trkpt lat="43.0361367" lon="12.9328633"><ele>843.9999999999999</ele><time>2026-04-26T10:29:22.507Z</time></trkpt><trkpt lat="43.0360683" lon="12.9327883"><ele>844.0</ele><time>2026-04-26T10:29:23.507Z</time></trkpt><trkpt lat="43.0359983" lon="12.93272"><ele>844.0</ele><time>2026-04-26T10:29:24.508Z</time></trkpt><trkpt lat="43.0359133" lon="12.93265"><ele>844.0</ele><time>2026-04-26T10:29:25.507Z</time></trkpt><trkpt lat="43.0358417" lon="12.9325833"><ele>843.9999999999999</ele><time>2026-04-26T10:29:26.508Z</time></trkpt><trkpt lat="43.0357733" lon="12.9325217"><ele>844.0</ele><time>2026-04-26T10:29:27.507Z</time></trkpt><trkpt lat="43.0357017" lon="12.9324533"><ele>841.6666666666666</ele><time>2026-04-26T10:29:28.508Z</time></trkpt><trkpt lat="43.0356267" lon="12.9323983"><ele>839.3333333333333</ele><time>2026-04-26T10:29:29.507Z</time></trkpt><trkpt lat="43.0355467" lon="12.9323417"><ele>837.0</ele><time>2026-04-26T10:29:30.508Z</time></trkpt><trkpt lat="43.035465" lon="12.9322917"><ele>834.6666666666667</ele><time>2026-04-26T10:29:31.507Z</time></trkpt><trkpt lat="43.0353783" lon="12.9322583"><ele>832.3333333333334</ele><time>2026-04-26T10:29:32.507Z</time></trkpt><trkpt lat="43.0352917" lon="12.9322267"><ele>830.0</ele><time>2026-04-26T10:29:33.508Z</time></trkpt><trkpt lat="43.0352017" lon="12.9321967"><ele>830.0</ele><time>2026-04-26T10:29:34.507Z</time></trkpt><trkpt lat="43.03511" lon="12.9321667"><ele>830.0</ele><time>2026-04-26T10:29:35.507Z</time></trkpt><trkpt lat="43.035015" lon="12.9321417"><ele>830.0</ele><time>2026-04-26T10:29:36.507Z</time></trkpt><trkpt lat="43.0349283" lon="12.93211"><ele>830.0</ele><time>2026-04-26T10:29:37.507Z</time></trkpt><trkpt lat="43.0348367" lon="12.9320767"><ele>830.0</ele><time>2026-04-26T10:29:38.507Z</time></trkpt><trkpt lat="43.0347467" lon="12.9320633"><ele>830.2</ele><time>2026-04-26T10:29:39.507Z</time></trkpt><trkpt lat="43.0346417" lon="12.9320517"><ele>830.4</ele><time>2026-04-26T10:29:40.507Z</time></trkpt><trkpt lat="43.0345433" lon="12.9320467"><ele>830.5999999999999</ele><time>2026-04-26T10:29:41.507Z</time></trkpt><trkpt lat="43.0344483" lon="12.9320383"><ele>830.8</ele><time>2026-04-26T10:29:42.507Z</time></trkpt><trkpt lat="43.0343517" lon="12.93202"><ele>831.0</ele><time>2026-04-26T10:29:43.508Z</time></trkpt><trkpt lat="43.03427" lon="12.931965"><ele>831.0</ele><time>2026-04-26T10:29:44.507Z</time></trkpt><trkpt lat="43.0341917" lon="12.9318917"><ele>831.0</ele><time>2026-04-26T10:29:45.507Z</time></trkpt><trkpt lat="43.0341133" lon="12.9317983"><ele>831.0</ele><time>2026-04-26T10:29:46.507Z</time></trkpt><trkpt lat="43.0340333" lon="12.93171"><ele>831.0</ele><time>2026-04-26T10:29:47.508Z</time></trkpt><trkpt lat="43.0339683" lon="12.93161"><ele>831.0</ele><time>2026-04-26T10:29:48.507Z</time></trkpt><trkpt lat="43.0339117" lon="12.93152"><ele>827.0</ele><time>2026-04-26T10:29:49.507Z</time></trkpt><trkpt lat="43.03387" lon="12.93145"><ele>823.0</ele><time>2026-04-26T10:29:50.508Z</time></trkpt><trkpt lat="43.033825" lon="12.931385"><ele>819.0</ele><time>2026-04-26T10:29:51.507Z</time></trkpt><trkpt lat="43.033765" lon="12.9313067"><ele>815.0</ele><time>2026-04-26T10:29:53.507Z</time></trkpt><trkpt lat="43.03368" lon="12.9312567"><ele>811.0</ele><time>2026-04-26T10:29:55.507Z</time></trkpt><trkpt lat="43.0335717" lon="12.9311617"><ele>807.0</ele><time>2026-04-26T10:29:57.507Z</time></trkpt><trkpt lat="43.03349" lon="12.9310333"><ele>807.0</ele><time>2026-04-26T10:29:59.507Z</time></trkpt><trkpt lat="43.033465" lon="12.9309417"><ele>807.0</ele><time>2026-04-26T10:30:00.507Z</time></trkpt><trkpt lat="43.0334433" lon="12.93084"><ele>807.0</ele><time>2026-04-26T10:30:01.507Z</time></trkpt><trkpt lat="43.0334267" lon="12.93073"><ele>807.0</ele><time>2026-04-26T10:30:02.507Z</time></trkpt><trkpt lat="43.033405" lon="12.9306083"><ele>807.0</ele><time>2026-04-26T10:30:03.507Z</time></trkpt><trkpt lat="43.0333817" lon="12.93047"><ele>807.0</ele><time>2026-04-26T10:30:04.507Z</time></trkpt><trkpt lat="43.0333533" lon="12.93034"><ele>805.0</ele><time>2026-04-26T10:30:05.507Z</time></trkpt><trkpt lat="43.0333233" lon="12.9302067"><ele>803.0</ele><time>2026-04-26T10:30:06.508Z</time></trkpt><trkpt lat="43.033295" lon="12.9300867"><ele>801.0</ele><time>2026-04-26T10:30:07.507Z</time></trkpt><trkpt lat="43.0332633" lon="12.9299667"><ele>799.0</ele><time>2026-04-26T10:30:08.508Z</time></trkpt><trkpt lat="43.033235" lon="12.9298433"><ele>797.0</ele><time>2026-04-26T10:30:09.507Z</time></trkpt><trkpt lat="43.033205" lon="12.9297333"><ele>794.8333333333334</ele><time>2026-04-26T10:30:10.507Z</time></trkpt><trkpt lat="43.0331783" lon="12.92962"><ele>792.6666666666667</ele><time>2026-04-26T10:30:11.508Z</time></trkpt><trkpt lat="43.033145" lon="12.9295117"><ele>790.5</ele><time>2026-04-26T10:30:12.508Z</time></trkpt><trkpt lat="43.0331183" lon="12.9294067"><ele>788.3333333333333</ele><time>2026-04-26T10:30:13.507Z</time></trkpt><trkpt lat="43.0330867" lon="12.9293"><ele>786.1666666666666</ele><time>2026-04-26T10:30:14.507Z</time></trkpt><trkpt lat="43.0330533" lon="12.9291917"><ele>784.0</ele><time>2026-04-26T10:30:15.507Z</time></trkpt><trkpt lat="43.033025" lon="12.9290883"><ele>783.2857142857143</ele><time>2026-04-26T10:30:16.507Z</time></trkpt><trkpt lat="43.0330017" lon="12.9289933"><ele>782.5714285714286</ele><time>2026-04-26T10:30:17.508Z</time></trkpt><trkpt lat="43.0329683" lon="12.9289117"><ele>781.8571428571429</ele><time>2026-04-26T10:30:18.507Z</time></trkpt><trkpt lat="43.032935" lon="12.928825"><ele>781.1428571428571</ele><time>2026-04-26T10:30:19.507Z</time></trkpt><trkpt lat="43.0329017" lon="12.9287317"><ele>780.4285714285714</ele><time>2026-04-26T10:30:20.507Z</time></trkpt><trkpt lat="43.0328633" lon="12.92864"><ele>779.7142857142858</ele><time>2026-04-26T10:30:21.507Z</time></trkpt><trkpt lat="43.0328217" lon="12.9285533"><ele>779.0</ele><time>2026-04-26T10:30:22.507Z</time></trkpt><trkpt lat="43.0327733" lon="12.92847"><ele>778.6</ele><time>2026-04-26T10:30:23.507Z</time></trkpt><trkpt lat="43.03272" lon="12.9283733"><ele>778.2</ele><time>2026-04-26T10:30:24.507Z</time></trkpt><trkpt lat="43.032665" lon="12.9282583"><ele>777.8000000000001</ele><time>2026-04-26T10:30:25.507Z</time></trkpt><trkpt lat="43.0326033" lon="12.9281283"><ele>777.4000000000001</ele><time>2026-04-26T10:30:26.507Z</time></trkpt><trkpt lat="43.03254" lon="12.927995"><ele>777.0</ele><time>2026-04-26T10:30:27.508Z</time></trkpt><trkpt lat="43.03248" lon="12.927875"><ele>777.0</ele><time>2026-04-26T10:30:28.507Z</time></trkpt><trkpt lat="43.032425" lon="12.927755"><ele>777.0</ele><time>2026-04-26T10:30:29.507Z</time></trkpt><trkpt lat="43.0323733" lon="12.9276317"><ele>777.0</ele><time>2026-04-26T10:30:30.507Z</time></trkpt><trkpt lat="43.0323317" lon="12.9275067"><ele>777.0</ele><time>2026-04-26T10:30:31.507Z</time></trkpt><trkpt lat="43.0322933" lon="12.9273933"><ele>777.0</ele><time>2026-04-26T10:30:32.507Z</time></trkpt><trkpt lat="43.03225" lon="12.9272817"><ele>776.2</ele><time>2026-04-26T10:30:33.508Z</time></trkpt><trkpt lat="43.03221" lon="12.9271683"><ele>775.4000000000001</ele><time>2026-04-26T10:30:34.508Z</time></trkpt><trkpt lat="43.032155" lon="12.92705"><ele>774.5999999999999</ele><time>2026-04-26T10:30:35.508Z</time></trkpt><trkpt lat="43.0320933" lon="12.9269283"><ele>773.8</ele><time>2026-04-26T10:30:36.508Z</time></trkpt><trkpt lat="43.032025" lon="12.926815"><ele>773.0</ele><time>2026-04-26T10:30:37.508Z</time></trkpt><trkpt lat="43.0319667" lon="12.9267067"><ele>772.8333333333334</ele><time>2026-04-26T10:30:38.507Z</time></trkpt><trkpt lat="43.031915" lon="12.926625"><ele>772.6666666666667</ele><time>2026-04-26T10:30:39.508Z</time></trkpt><trkpt lat="43.0318567" lon="12.926575"><ele>772.5</ele><time>2026-04-26T10:30:40.507Z</time></trkpt><trkpt lat="43.0317367" lon="12.9265533"><ele>772.3333333333333</ele><time>2026-04-26T10:30:42.507Z</time></trkpt><trkpt lat="43.0316683" lon="12.9265817"><ele>772.1666666666666</ele><time>2026-04-26T10:30:43.507Z</time></trkpt><trkpt lat="43.0316017" lon="12.9266483"><ele>772.0</ele><time>2026-04-26T10:30:44.508Z</time></trkpt><trkpt lat="43.0315517" lon="12.926725"><ele>772.4999999999999</ele><time>2026-04-26T10:30:45.508Z</time></trkpt><trkpt lat="43.031505" lon="12.92679"><ele>773.0</ele><time>2026-04-26T10:30:46.507Z</time></trkpt><trkpt lat="43.0314317" lon="12.9268433"><ele>773.5</ele><time>2026-04-26T10:30:48.507Z</time></trkpt><trkpt lat="43.0314367" lon="12.9266983"><ele>774.0</ele><time>2026-04-26T10:30:51.507Z</time></trkpt><trkpt lat="43.0314917" lon="12.9266067"><ele>774.4999999999999</ele><time>2026-04-26T10:30:52.507Z</time></trkpt><trkpt lat="43.031555" lon="12.926505"><ele>775.0</ele><time>2026-04-26T10:30:53.507Z</time></trkpt><trkpt lat="43.031625" lon="12.9263617"><ele>774.25</ele><time>2026-04-26T10:30:54.507Z</time></trkpt><trkpt lat="43.03169" lon="12.926195"><ele>773.5</ele><time>2026-04-26T10:30:55.507Z</time></trkpt><trkpt lat="43.031755" lon="12.92602"><ele>772.75</ele><time>2026-04-26T10:30:56.507Z</time></trkpt><trkpt lat="43.0318233" lon="12.92584"><ele>772.0</ele><time>2026-04-26T10:30:57.507Z</time></trkpt><trkpt lat="43.0318717" lon="12.92566"><ele>771.75</ele><time>2026-04-26T10:30:58.507Z</time></trkpt><trkpt lat="43.0319" lon="12.9255183"><ele>771.5</ele><time>2026-04-26T10:30:59.507Z</time></trkpt><trkpt lat="43.0318967" lon="12.9253483"><ele>771.25</ele><time>2026-04-26T10:31:00.508Z</time></trkpt><trkpt lat="43.03186" lon="12.9251367"><ele>771.0</ele><time>2026-04-26T10:31:01.507Z</time></trkpt><trkpt lat="43.0318117" lon="12.9248933"><ele>770.6666666666667</ele><time>2026-04-26T10:31:02.507Z</time></trkpt><trkpt lat="43.03177" lon="12.9246433"><ele>770.3333333333334</ele><time>2026-04-26T10:31:03.507Z</time></trkpt><trkpt lat="43.031735" lon="12.9244017"><ele>770.0</ele><time>2026-04-26T10:31:04.508Z</time></trkpt><trkpt lat="43.03171" lon="12.9241817"><ele>769.3333333333334</ele><time>2026-04-26T10:31:05.508Z</time></trkpt><trkpt lat="43.0316717" lon="12.923965"><ele>768.6666666666667</ele><time>2026-04-26T10:31:06.507Z</time></trkpt><trkpt lat="43.0316017" lon="12.923745"><ele>768.0</ele><time>2026-04-26T10:31:07.507Z</time></trkpt><trkpt lat="43.031515" lon="12.9235233"><ele>767.0</ele><time>2026-04-26T10:31:08.507Z</time></trkpt><trkpt lat="43.03141" lon="12.9232967"><ele>766.0</ele><time>2026-04-26T10:31:09.508Z</time></trkpt><trkpt lat="43.0312867" lon="12.9230667"><ele>765.0</ele><time>2026-04-26T10:31:10.507Z</time></trkpt><trkpt lat="43.0311533" lon="12.9228283"><ele>765.0</ele><time>2026-04-26T10:31:11.507Z</time></trkpt><trkpt lat="43.031015" lon="12.9225833"><ele>765.0</ele><time>2026-04-26T10:31:12.507Z</time></trkpt><trkpt lat="43.0308733" lon="12.922325"><ele>764.5</ele><time>2026-04-26T10:31:13.507Z</time></trkpt><trkpt lat="43.0307233" lon="12.9220667"><ele>764.0</ele><time>2026-04-26T10:31:14.507Z</time></trkpt><trkpt lat="43.0305717" lon="12.921815"><ele>763.5</ele><time>2026-04-26T10:31:15.507Z</time></trkpt><trkpt lat="43.0304183" lon="12.9215717"><ele>763.0</ele><time>2026-04-26T10:31:16.507Z</time></trkpt><trkpt lat="43.030275" lon="12.921325"><ele>763.0</ele><time>2026-04-26T10:31:17.507Z</time></trkpt><trkpt lat="43.030135" lon="12.92108"><ele>763.0</ele><time>2026-04-26T10:31:18.507Z</time></trkpt><trkpt lat="43.0299933" lon="12.9208417"><ele>761.3333333333334</ele><time>2026-04-26T10:31:19.507Z</time></trkpt><trkpt lat="43.0298517" lon="12.920605"><ele>759.6666666666666</ele><time>2026-04-26T10:31:20.507Z</time></trkpt><trkpt lat="43.029715" lon="12.92037"><ele>758.0</ele><time>2026-04-26T10:31:21.507Z</time></trkpt><trkpt lat="43.0295817" lon="12.9201317"><ele>758.0</ele><time>2026-04-26T10:31:22.507Z</time></trkpt><trkpt lat="43.0294483" lon="12.9198983"><ele>758.0</ele><time>2026-04-26T10:31:23.507Z</time></trkpt><trkpt lat="43.02932" lon="12.919675"><ele>758.0</ele><time>2026-04-26T10:31:24.507Z</time></trkpt><trkpt lat="43.029205" lon="12.9194567"><ele>759.3333333333333</ele><time>2026-04-26T10:31:25.508Z</time></trkpt><trkpt lat="43.0291017" lon="12.9192283"><ele>760.6666666666666</ele><time>2026-04-26T10:31:26.508Z</time></trkpt><trkpt lat="43.0290083" lon="12.9189917"><ele>762.0</ele><time>2026-04-26T10:31:27.508Z</time></trkpt><trkpt lat="43.028925" lon="12.9187667"><ele>762.0</ele><time>2026-04-26T10:31:28.508Z</time></trkpt><trkpt lat="43.0288467" lon="12.918565"><ele>762.0</ele><time>2026-04-26T10:31:29.507Z</time></trkpt><trkpt lat="43.0287667" lon="12.9183767"><ele>762.0</ele><time>2026-04-26T10:31:30.507Z</time></trkpt><trkpt lat="43.02871" lon="12.9182117"><ele>762.0</ele><time>2026-04-26T10:31:31.507Z</time></trkpt><trkpt lat="43.0286567" lon="12.91807"><ele>762.0</ele><time>2026-04-26T10:31:32.507Z</time></trkpt><trkpt lat="43.0286033" lon="12.91794"><ele>762.0</ele><time>2026-04-26T10:31:33.507Z</time></trkpt><trkpt lat="43.0285567" lon="12.9178233"><ele>762.0</ele><time>2026-04-26T10:31:34.507Z</time></trkpt><trkpt lat="43.0285183" lon="12.917725"><ele>762.0</ele><time>2026-04-26T10:31:35.507Z</time></trkpt><trkpt lat="43.0284817" lon="12.91764"><ele>762.0</ele><time>2026-04-26T10:31:36.507Z</time></trkpt><trkpt lat="43.0284467" lon="12.9175567"><ele>762.0</ele><time>2026-04-26T10:31:37.507Z</time></trkpt><trkpt lat="43.0284167" lon="12.9174667"><ele>762.0</ele><time>2026-04-26T10:31:38.507Z</time></trkpt><trkpt lat="43.0283817" lon="12.9173683"><ele>762.0</ele><time>2026-04-26T10:31:39.507Z</time></trkpt><trkpt lat="43.02835" lon="12.917245"><ele>762.0</ele><time>2026-04-26T10:31:40.507Z</time></trkpt><trkpt lat="43.0283133" lon="12.9171083"><ele>762.0</ele><time>2026-04-26T10:31:41.507Z</time></trkpt><trkpt lat="43.02828" lon="12.91694"><ele>762.3333333333334</ele><time>2026-04-26T10:31:42.507Z</time></trkpt><trkpt lat="43.028265" lon="12.916735"><ele>762.6666666666667</ele><time>2026-04-26T10:31:43.507Z</time></trkpt><trkpt lat="43.0282533" lon="12.91649"><ele>763.0</ele><time>2026-04-26T10:31:44.507Z</time></trkpt><trkpt lat="43.0282367" lon="12.91622"><ele>763.0</ele><time>2026-04-26T10:31:45.507Z</time></trkpt><trkpt lat="43.028215" lon="12.9159283"><ele>763.0</ele><time>2026-04-26T10:31:46.507Z</time></trkpt><trkpt lat="43.0281883" lon="12.9156183"><ele>763.0</ele><time>2026-04-26T10:31:47.507Z</time></trkpt><trkpt lat="43.0281633" lon="12.9152933"><ele>762.0</ele><time>2026-04-26T10:31:48.507Z</time></trkpt><trkpt lat="43.0281333" lon="12.914955"><ele>761.0</ele><time>2026-04-26T10:31:49.508Z</time></trkpt><trkpt lat="43.0281067" lon="12.9146167"><ele>761.0</ele><time>2026-04-26T10:31:50.507Z</time></trkpt><trkpt lat="43.0280817" lon="12.9142933"><ele>761.0</ele><time>2026-04-26T10:31:51.507Z</time></trkpt><trkpt lat="43.0280533" lon="12.9139767"><ele>762.0</ele><time>2026-04-26T10:31:52.507Z</time></trkpt><trkpt lat="43.028025" lon="12.9136617"><ele>763.0</ele><time>2026-04-26T10:31:53.507Z</time></trkpt><trkpt lat="43.0279967" lon="12.91335"><ele>764.0</ele><time>2026-04-26T10:31:54.508Z</time></trkpt><trkpt lat="43.0279817" lon="12.9130367"><ele>765.0</ele><time>2026-04-26T10:31:55.507Z</time></trkpt><trkpt lat="43.02797" lon="12.9127167"><ele>764.0</ele><time>2026-04-26T10:31:56.507Z</time></trkpt><trkpt lat="43.027955" lon="12.9124017"><ele>763.0</ele><time>2026-04-26T10:31:57.507Z</time></trkpt><trkpt lat="43.0279433" lon="12.91209"><ele>763.0</ele><time>2026-04-26T10:31:58.507Z</time></trkpt><trkpt lat="43.027935" lon="12.9117917"><ele>763.0</ele><time>2026-04-26T10:31:59.507Z</time></trkpt><trkpt lat="43.0279217" lon="12.9115083"><ele>763.0</ele><time>2026-04-26T10:32:00.507Z</time></trkpt><trkpt lat="43.027915" lon="12.9112483"><ele>763.0</ele><time>2026-04-26T10:32:01.507Z</time></trkpt><trkpt lat="43.02791" lon="12.9110067"><ele>763.0</ele><time>2026-04-26T10:32:02.507Z</time></trkpt><trkpt lat="43.0279167" lon="12.910775"><ele>763.0</ele><time>2026-04-26T10:32:03.507Z</time></trkpt><trkpt lat="43.02795" lon="12.9105517"><ele>763.0</ele><time>2026-04-26T10:32:04.508Z</time></trkpt><trkpt lat="43.02801" lon="12.9103233"><ele>763.0</ele><time>2026-04-26T10:32:05.507Z</time></trkpt><trkpt lat="43.0280933" lon="12.910105"><ele>763.0</ele><time>2026-04-26T10:32:06.507Z</time></trkpt><trkpt lat="43.0281883" lon="12.9098817"><ele>761.6666666666667</ele><time>2026-04-26T10:32:07.507Z</time></trkpt><trkpt lat="43.0283017" lon="12.9096633"><ele>760.3333333333334</ele><time>2026-04-26T10:32:08.508Z</time></trkpt><trkpt lat="43.0284267" lon="12.9094567"><ele>759.0</ele><time>2026-04-26T10:32:09.507Z</time></trkpt><trkpt lat="43.028565" lon="12.90925"><ele>759.6666666666666</ele><time>2026-04-26T10:32:10.508Z</time></trkpt><trkpt lat="43.0287067" lon="12.9090517"><ele>760.3333333333333</ele><time>2026-04-26T10:32:11.507Z</time></trkpt><trkpt lat="43.028825" lon="12.9088617"><ele>761.0</ele><time>2026-04-26T10:32:12.507Z</time></trkpt><trkpt lat="43.0289283" lon="12.90866"><ele>761.0</ele><time>2026-04-26T10:32:13.507Z</time></trkpt><trkpt lat="43.0290167" lon="12.9084417"><ele>761.0</ele><time>2026-04-26T10:32:14.507Z</time></trkpt><trkpt lat="43.0290983" lon="12.908205"><ele>761.0</ele><time>2026-04-26T10:32:15.507Z</time></trkpt><trkpt lat="43.0291567" lon="12.9079583"><ele>760.0</ele><time>2026-04-26T10:32:16.507Z</time></trkpt><trkpt lat="43.0292033" lon="12.907695"><ele>759.0</ele><time>2026-04-26T10:32:17.508Z</time></trkpt><trkpt lat="43.02925" lon="12.9074217"><ele>758.0</ele><time>2026-04-26T10:32:18.507Z</time></trkpt><trkpt lat="43.0292983" lon="12.9071467"><ele>758.0</ele><time>2026-04-26T10:32:19.508Z</time></trkpt><trkpt lat="43.0293517" lon="12.9068767"><ele>758.0</ele><time>2026-04-26T10:32:20.508Z</time></trkpt><trkpt lat="43.02942" lon="12.9066117"><ele>758.0</ele><time>2026-04-26T10:32:21.507Z</time></trkpt><trkpt lat="43.0295083" lon="12.906355"><ele>758.0</ele><time>2026-04-26T10:32:22.507Z</time></trkpt><trkpt lat="43.0295933" lon="12.906115"><ele>758.0</ele><time>2026-04-26T10:32:23.507Z</time></trkpt><trkpt lat="43.0296733" lon="12.9059"><ele>758.0</ele><time>2026-04-26T10:32:24.507Z</time></trkpt><trkpt lat="43.0297683" lon="12.9057067"><ele>758.0</ele><time>2026-04-26T10:32:25.508Z</time></trkpt><trkpt lat="43.02989" lon="12.905525"><ele>758.0</ele><time>2026-04-26T10:32:26.508Z</time></trkpt><trkpt lat="43.0300333" lon="12.9053583"><ele>758.0</ele><time>2026-04-26T10:32:27.508Z</time></trkpt><trkpt lat="43.0301933" lon="12.905195"><ele>757.6666666666666</ele><time>2026-04-26T10:32:28.507Z</time></trkpt><trkpt lat="43.0303567" lon="12.90503"><ele>757.3333333333334</ele><time>2026-04-26T10:32:29.507Z</time></trkpt><trkpt lat="43.0305067" lon="12.9048683"><ele>757.0</ele><time>2026-04-26T10:32:30.507Z</time></trkpt><trkpt lat="43.030645" lon="12.904715"><ele>757.0</ele><time>2026-04-26T10:32:31.507Z</time></trkpt><trkpt lat="43.0307683" lon="12.904575"><ele>757.0</ele><time>2026-04-26T10:32:32.507Z</time></trkpt><trkpt lat="43.0308683" lon="12.904425"><ele>757.0</ele><time>2026-04-26T10:32:33.507Z</time></trkpt><trkpt lat="43.03094" lon="12.90427"><ele>757.0</ele><time>2026-04-26T10:32:34.507Z</time></trkpt><trkpt lat="43.0309817" lon="12.9041083"><ele>757.25</ele><time>2026-04-26T10:32:35.507Z</time></trkpt><trkpt lat="43.030995" lon="12.9039433"><ele>757.5</ele><time>2026-04-26T10:32:36.507Z</time></trkpt><trkpt lat="43.0309767" lon="12.9037617"><ele>757.75</ele><time>2026-04-26T10:32:37.507Z</time></trkpt><trkpt lat="43.03091" lon="12.903565"><ele>758.0</ele><time>2026-04-26T10:32:38.507Z</time></trkpt><trkpt lat="43.0307983" lon="12.9033617"><ele>758.0</ele><time>2026-04-26T10:32:39.507Z</time></trkpt><trkpt lat="43.0306717" lon="12.9031333"><ele>758.0</ele><time>2026-04-26T10:32:40.507Z</time></trkpt><trkpt lat="43.030525" lon="12.90288"><ele>758.0</ele><time>2026-04-26T10:32:41.507Z</time></trkpt><trkpt lat="43.030365" lon="12.90261"><ele>758.0</ele><time>2026-04-26T10:32:42.507Z</time></trkpt><trkpt lat="43.0302067" lon="12.9023267"><ele>758.0</ele><time>2026-04-26T10:32:43.507Z</time></trkpt><trkpt lat="43.03004" lon="12.9020483"><ele>758.0</ele><time>2026-04-26T10:32:44.507Z</time></trkpt><trkpt lat="43.0298733" lon="12.90178"><ele>758.0</ele><time>2026-04-26T10:32:45.507Z</time></trkpt><trkpt lat="43.0297183" lon="12.9015167"><ele>758.0</ele><time>2026-04-26T10:32:46.507Z</time></trkpt><trkpt lat="43.0295733" lon="12.901265"><ele>758.0</ele><time>2026-04-26T10:32:47.507Z</time></trkpt><trkpt lat="43.02944" lon="12.901025"><ele>758.0</ele><time>2026-04-26T10:32:48.507Z</time></trkpt><trkpt lat="43.0293167" lon="12.9007833"><ele>758.0</ele><time>2026-04-26T10:32:49.507Z</time></trkpt><trkpt lat="43.02921" lon="12.9005433"><ele>758.0</ele><time>2026-04-26T10:32:50.507Z</time></trkpt><trkpt lat="43.0291167" lon="12.900315"><ele>758.0</ele><time>2026-04-26T10:32:51.507Z</time></trkpt><trkpt lat="43.0290467" lon="12.900095"><ele>758.0</ele><time>2026-04-26T10:32:52.507Z</time></trkpt><trkpt lat="43.0289783" lon="12.8998883"><ele>758.0</ele><time>2026-04-26T10:32:53.507Z</time></trkpt><trkpt lat="43.0289183" lon="12.8996967"><ele>758.2</ele><time>2026-04-26T10:32:54.508Z</time></trkpt><trkpt lat="43.0288633" lon="12.8995183"><ele>758.4</ele><time>2026-04-26T10:32:55.507Z</time></trkpt><trkpt lat="43.0288133" lon="12.8993667"><ele>758.6</ele><time>2026-04-26T10:32:56.507Z</time></trkpt><trkpt lat="43.02878" lon="12.8992483"><ele>758.8000000000001</ele><time>2026-04-26T10:32:57.507Z</time></trkpt><trkpt lat="43.0287667" lon="12.8991567"><ele>759.0</ele><time>2026-04-26T10:32:58.507Z</time></trkpt><trkpt lat="43.0287767" lon="12.8990283"><ele>759.1666666666666</ele><time>2026-04-26T10:33:00.507Z</time></trkpt><trkpt lat="43.02876" lon="12.8988817"><ele>759.3333333333334</ele><time>2026-04-26T10:33:02.507Z</time></trkpt><trkpt lat="43.0287367" lon="12.8987867"><ele>759.5</ele><time>2026-04-26T10:33:03.507Z</time></trkpt><trkpt lat="43.0287033" lon="12.8986883"><ele>759.6666666666667</ele><time>2026-04-26T10:33:04.507Z</time></trkpt><trkpt lat="43.02867" lon="12.8985783"><ele>759.8333333333334</ele><time>2026-04-26T10:33:05.507Z</time></trkpt><trkpt lat="43.0286517" lon="12.8984533"><ele>760.0</ele><time>2026-04-26T10:33:06.507Z</time></trkpt><trkpt lat="43.0286483" lon="12.8983067"><ele>760.0</ele><time>2026-04-26T10:33:07.507Z</time></trkpt><trkpt lat="43.0286467" lon="12.89815"><ele>760.0</ele><time>2026-04-26T10:33:08.507Z</time></trkpt><trkpt lat="43.028645" lon="12.8979817"><ele>760.0</ele><time>2026-04-26T10:33:09.508Z</time></trkpt><trkpt lat="43.0286483" lon="12.8978017"><ele>760.0</ele><time>2026-04-26T10:33:10.507Z</time></trkpt><trkpt lat="43.0286533" lon="12.89761"><ele>760.0</ele><time>2026-04-26T10:33:11.507Z</time></trkpt><trkpt lat="43.0286567" lon="12.8974067"><ele>760.0</ele><time>2026-04-26T10:33:12.507Z</time></trkpt><trkpt lat="43.028655" lon="12.897205"><ele>760.0</ele><time>2026-04-26T10:33:13.507Z</time></trkpt><trkpt lat="43.0286533" lon="12.8969933"><ele>760.0</ele><time>2026-04-26T10:33:14.507Z</time></trkpt><trkpt lat="43.0286533" lon="12.896785"><ele>760.0</ele><time>2026-04-26T10:33:15.507Z</time></trkpt><trkpt lat="43.02866" lon="12.8965733"><ele>760.0</ele><time>2026-04-26T10:33:16.507Z</time></trkpt><trkpt lat="43.0286667" lon="12.8963633"><ele>760.0</ele><time>2026-04-26T10:33:17.507Z</time></trkpt><trkpt lat="43.0286883" lon="12.8961533"><ele>760.0</ele><time>2026-04-26T10:33:18.507Z</time></trkpt><trkpt lat="43.02871" lon="12.8959533"><ele>760.0</ele><time>2026-04-26T10:33:19.507Z</time></trkpt><trkpt lat="43.0287333" lon="12.8957517"><ele>760.3333333333334</ele><time>2026-04-26T10:33:20.507Z</time></trkpt><trkpt lat="43.0287567" lon="12.8955417"><ele>760.6666666666666</ele><time>2026-04-26T10:33:21.507Z</time></trkpt><trkpt lat="43.0287783" lon="12.8953317"><ele>761.0</ele><time>2026-04-26T10:33:22.507Z</time></trkpt><trkpt lat="43.0287967" lon="12.8951283"><ele>760.75</ele><time>2026-04-26T10:33:23.507Z</time></trkpt><trkpt lat="43.028815" lon="12.8949333"><ele>760.5</ele><time>2026-04-26T10:33:24.507Z</time></trkpt><trkpt lat="43.02884" lon="12.89476"><ele>760.25</ele><time>2026-04-26T10:33:25.507Z</time></trkpt><trkpt lat="43.028865" lon="12.8945967"><ele>760.0</ele><time>2026-04-26T10:33:26.507Z</time></trkpt><trkpt lat="43.028875" lon="12.89444"><ele>760.0</ele><time>2026-04-26T10:33:27.507Z</time></trkpt><trkpt lat="43.0288817" lon="12.8942983"><ele>760.0</ele><time>2026-04-26T10:33:28.507Z</time></trkpt><trkpt lat="43.028875" lon="12.8941633"><ele>760.0</ele><time>2026-04-26T10:33:29.507Z</time></trkpt><trkpt lat="43.0288633" lon="12.89402"><ele>760.0</ele><time>2026-04-26T10:33:30.507Z</time></trkpt><trkpt lat="43.0288483" lon="12.89387"><ele>760.0</ele><time>2026-04-26T10:33:31.507Z</time></trkpt><trkpt lat="43.0288283" lon="12.8937117"><ele>760.25</ele><time>2026-04-26T10:33:32.507Z</time></trkpt><trkpt lat="43.0287983" lon="12.89355"><ele>760.5</ele><time>2026-04-26T10:33:33.507Z</time></trkpt><trkpt lat="43.028765" lon="12.8933783"><ele>760.75</ele><time>2026-04-26T10:33:34.507Z</time></trkpt><trkpt lat="43.028735" lon="12.893205"><ele>761.0</ele><time>2026-04-26T10:33:35.507Z</time></trkpt><trkpt lat="43.028705" lon="12.893025"><ele>762.0</ele><time>2026-04-26T10:33:36.507Z</time></trkpt><trkpt lat="43.0286767" lon="12.8928383"><ele>763.0</ele><time>2026-04-26T10:33:37.508Z</time></trkpt><trkpt lat="43.0286567" lon="12.8926583"><ele>764.0</ele><time>2026-04-26T10:33:38.507Z</time></trkpt><trkpt lat="43.0286317" lon="12.8924917"><ele>765.0</ele><time>2026-04-26T10:33:39.508Z</time></trkpt><trkpt lat="43.02861" lon="12.892345"><ele>764.8333333333334</ele><time>2026-04-26T10:33:40.507Z</time></trkpt><trkpt lat="43.028595" lon="12.8922033"><ele>764.6666666666666</ele><time>2026-04-26T10:33:41.507Z</time></trkpt><trkpt lat="43.02858" lon="12.892075"><ele>764.5</ele><time>2026-04-26T10:33:42.507Z</time></trkpt><trkpt lat="43.0285667" lon="12.891955"><ele>764.3333333333333</ele><time>2026-04-26T10:33:43.507Z</time></trkpt><trkpt lat="43.0285567" lon="12.89185"><ele>764.1666666666666</ele><time>2026-04-26T10:33:44.507Z</time></trkpt><trkpt lat="43.0285467" lon="12.89175"><ele>764.0</ele><time>2026-04-26T10:33:45.508Z</time></trkpt><trkpt lat="43.0285367" lon="12.8916483"><ele>764.0</ele><time>2026-04-26T10:33:46.507Z</time></trkpt><trkpt lat="43.0285283" lon="12.8915617"><ele>764.0</ele><time>2026-04-26T10:33:47.507Z</time></trkpt><trkpt lat="43.0285433" lon="12.8914417"><ele>764.0</ele><time>2026-04-26T10:33:49.507Z</time></trkpt><trkpt lat="43.0285617" lon="12.8913583"><ele>764.0</ele><time>2026-04-26T10:33:52.507Z</time></trkpt><trkpt lat="43.0285633" lon="12.8912533"><ele>764.0</ele><time>2026-04-26T10:33:55.507Z</time></trkpt><trkpt lat="43.0285733" lon="12.8911467"><ele>764.0</ele><time>2026-04-26T10:33:59.508Z</time></trkpt><trkpt lat="43.02858" lon="12.8910517"><ele>764.0</ele><time>2026-04-26T10:34:02.507Z</time></trkpt><trkpt lat="43.02858" lon="12.8909333"><ele>764.4000000000001</ele><time>2026-04-26T10:34:05.507Z</time></trkpt><trkpt lat="43.0285767" lon="12.8908033"><ele>764.8</ele><time>2026-04-26T10:34:07.507Z</time></trkpt><trkpt lat="43.028495" lon="12.8906833"><ele>765.2</ele><time>2026-04-26T10:34:09.508Z</time></trkpt><trkpt lat="43.0284317" lon="12.89063"><ele>765.5999999999999</ele><time>2026-04-26T10:34:10.507Z</time></trkpt><trkpt lat="43.0283717" lon="12.8905767"><ele>766.0</ele><time>2026-04-26T10:34:11.507Z</time></trkpt><trkpt lat="43.0282867" lon="12.8904717"><ele>766.0</ele><time>2026-04-26T10:34:13.507Z</time></trkpt><trkpt lat="43.02821" lon="12.8903833"><ele>766.0</ele><time>2026-04-26T10:34:15.507Z</time></trkpt><trkpt lat="43.028135" lon="12.8903183"><ele>766.0</ele><time>2026-04-26T10:34:17.507Z</time></trkpt><trkpt lat="43.02808" lon="12.8902717"><ele>766.0</ele><time>2026-04-26T10:34:18.507Z</time></trkpt><trkpt lat="43.02802" lon="12.890235"><ele>766.0</ele><time>2026-04-26T10:34:19.507Z</time></trkpt><trkpt lat="43.0279167" lon="12.8901567"><ele>766.0</ele><time>2026-04-26T10:34:21.507Z</time></trkpt><trkpt lat="43.02785" lon="12.89008"><ele>766.0</ele><time>2026-04-26T10:34:23.507Z</time></trkpt><trkpt lat="43.0277883" lon="12.890055"><ele>766.0</ele><time>2026-04-26T10:34:25.507Z</time></trkpt><trkpt lat="43.0277633" lon="12.8901933"><ele>766.0</ele><time>2026-04-26T10:34:28.507Z</time></trkpt><trkpt lat="43.0278017" lon="12.8902767"><ele>766.0</ele><time>2026-04-26T10:34:31.507Z</time></trkpt><trkpt lat="43.0278683" lon="12.8901617"><ele>766.0</ele><time>2026-04-26T10:35:26.507Z</time></trkpt><trkpt lat="43.0278551" lon="12.8900661"><ele>766.0</ele><time>2026-04-26T10:35:50.507Z</time></trkpt><trkpt lat="43.0279384" lon="12.8900228"><ele>761.0</ele><time>2026-04-26T10:36:37.506Z</time></trkpt><trkpt lat="43.0279849" lon="12.8901238"><ele>766.0</ele><time>2026-04-26T10:43:45.507Z</time></trkpt></trkseg><trkseg><trkpt lat="43.02801" lon="12.890155"><ele>766.0</ele><time>2026-04-26T11:19:57.219Z</time></trkpt><trkpt lat="43.027845" lon="12.8902283"><ele>766.0</ele><time>2026-04-26T11:25:13.526Z</time></trkpt><trkpt lat="43.0279083" lon="12.89018"><ele>766.0</ele><time>2026-04-26T11:25:38.526Z</time></trkpt><trkpt lat="43.0279817" lon="12.8902383"><ele>766.0</ele><time>2026-04-26T11:25:40.526Z</time></trkpt><trkpt lat="43.0280367" lon="12.8903067"><ele>766.0</ele><time>2026-04-26T11:25:42.526Z</time></trkpt><trkpt lat="43.0280317" lon="12.8903967"><ele>766.0</ele><time>2026-04-26T11:25:44.526Z</time></trkpt><trkpt lat="43.0279583" lon="12.890525"><ele>766.0</ele><time>2026-04-26T11:25:46.526Z</time></trkpt><trkpt lat="43.027935" lon="12.890635"><ele>766.0</ele><time>2026-04-26T11:25:48.526Z</time></trkpt><trkpt lat="43.0279883" lon="12.8907117"><ele>766.0</ele><time>2026-04-26T11:25:50.526Z</time></trkpt><trkpt lat="43.0280833" lon="12.8907817"><ele>766.0</ele><time>2026-04-26T11:25:52.526Z</time></trkpt><trkpt lat="43.0281433" lon="12.8908233"><ele>766.0</ele><time>2026-04-26T11:25:53.527Z</time></trkpt><trkpt lat="43.0282133" lon="12.890865"><ele>766.0</ele><time>2026-04-26T11:25:54.526Z</time></trkpt><trkpt lat="43.028285" lon="12.89091"><ele>766.0</ele><time>2026-04-26T11:25:55.526Z</time></trkpt><trkpt lat="43.0283467" lon="12.890945"><ele>766.0</ele><time>2026-04-26T11:25:56.527Z</time></trkpt><trkpt lat="43.0284417" lon="12.890995"><ele>766.0</ele><time>2026-04-26T11:25:58.526Z</time></trkpt><trkpt lat="43.0285217" lon="12.8910467"><ele>766.0</ele><time>2026-04-26T11:26:00.526Z</time></trkpt><trkpt lat="43.02856" lon="12.8911767"><ele>765.6666666666667</ele><time>2026-04-26T11:26:03.526Z</time></trkpt><trkpt lat="43.0285167" lon="12.8912417"><ele>765.3333333333334</ele><time>2026-04-26T11:26:07.527Z</time></trkpt><trkpt lat="43.02858" lon="12.8913517"><ele>765.0</ele><time>2026-04-26T11:26:12.526Z</time></trkpt><trkpt lat="43.02864" lon="12.8913933"><ele>764.6666666666666</ele><time>2026-04-26T11:26:13.527Z</time></trkpt><trkpt lat="43.0287117" lon="12.8914317"><ele>764.3333333333333</ele><time>2026-04-26T11:26:14.526Z</time></trkpt><trkpt lat="43.028795" lon="12.8914733"><ele>764.0</ele><time>2026-04-26T11:26:15.527Z</time></trkpt><trkpt lat="43.0288867" lon="12.891515"><ele>764.0</ele><time>2026-04-26T11:26:16.526Z</time></trkpt><trkpt lat="43.028985" lon="12.891565"><ele>764.0</ele><time>2026-04-26T11:26:17.526Z</time></trkpt><trkpt lat="43.0290917" lon="12.89162"><ele>764.0</ele><time>2026-04-26T11:26:18.527Z</time></trkpt><trkpt lat="43.0292067" lon="12.89167"><ele>764.0</ele><time>2026-04-26T11:26:19.526Z</time></trkpt><trkpt lat="43.0293283" lon="12.8917117"><ele>762.75</ele><time>2026-04-26T11:26:20.526Z</time></trkpt><trkpt lat="43.029435" lon="12.891775"><ele>761.5</ele><time>2026-04-26T11:26:21.526Z</time></trkpt><trkpt lat="43.0295567" lon="12.8918417"><ele>760.25</ele><time>2026-04-26T11:26:22.526Z</time></trkpt><trkpt lat="43.02968" lon="12.8919117"><ele>759.0</ele><time>2026-04-26T11:26:23.526Z</time></trkpt><trkpt lat="43.0298033" lon="12.8919883"><ele>759.0</ele><time>2026-04-26T11:26:24.526Z</time></trkpt><trkpt lat="43.029925" lon="12.8920717"><ele>759.0</ele><time>2026-04-26T11:26:25.526Z</time></trkpt><trkpt lat="43.03005" lon="12.892165"><ele>759.0</ele><time>2026-04-26T11:26:26.526Z</time></trkpt><trkpt lat="43.0301833" lon="12.8922617"><ele>759.0</ele><time>2026-04-26T11:26:27.526Z</time></trkpt><trkpt lat="43.0303083" lon="12.892365"><ele>758.75</ele><time>2026-04-26T11:26:28.526Z</time></trkpt><trkpt lat="43.0304383" lon="12.89246"><ele>758.5</ele><time>2026-04-26T11:26:29.526Z</time></trkpt><trkpt lat="43.030565" lon="12.8925567"><ele>758.25</ele><time>2026-04-26T11:26:30.526Z</time></trkpt><trkpt lat="43.0306983" lon="12.8926567"><ele>758.0</ele><time>2026-04-26T11:26:31.527Z</time></trkpt><trkpt lat="43.0308283" lon="12.8927617"><ele>759.0</ele><time>2026-04-26T11:26:32.526Z</time></trkpt><trkpt lat="43.0309667" lon="12.8928633"><ele>760.0</ele><time>2026-04-26T11:26:33.526Z</time></trkpt><trkpt lat="43.0311033" lon="12.8929733"><ele>761.0</ele><time>2026-04-26T11:26:34.527Z</time></trkpt><trkpt lat="43.031235" lon="12.89308"><ele>761.0</ele><time>2026-04-26T11:26:35.526Z</time></trkpt><trkpt lat="43.0313683" lon="12.8931867"><ele>761.0</ele><time>2026-04-26T11:26:36.526Z</time></trkpt><trkpt lat="43.0315033" lon="12.893295"><ele>761.0</ele><time>2026-04-26T11:26:37.527Z</time></trkpt><trkpt lat="43.0316383" lon="12.8934133"><ele>760.0</ele><time>2026-04-26T11:26:38.526Z</time></trkpt><trkpt lat="43.031775" lon="12.89352"><ele>759.0</ele><time>2026-04-26T11:26:39.526Z</time></trkpt><trkpt lat="43.0319217" lon="12.8936283"><ele>758.0</ele><time>2026-04-26T11:26:40.526Z</time></trkpt><trkpt lat="43.0320667" lon="12.893735"><ele>758.0</ele><time>2026-04-26T11:26:41.526Z</time></trkpt><trkpt lat="43.0322183" lon="12.8938367"><ele>758.0</ele><time>2026-04-26T11:26:42.527Z</time></trkpt><trkpt lat="43.032365" lon="12.89393"><ele>758.0</ele><time>2026-04-26T11:26:43.526Z</time></trkpt><trkpt lat="43.0325167" lon="12.8940333"><ele>758.3333333333333</ele><time>2026-04-26T11:26:44.527Z</time></trkpt><trkpt lat="43.0326783" lon="12.8941217"><ele>758.6666666666666</ele><time>2026-04-26T11:26:45.527Z</time></trkpt><trkpt lat="43.0328383" lon="12.8942167"><ele>759.0</ele><time>2026-04-26T11:26:46.526Z</time></trkpt><trkpt lat="43.032985" lon="12.8942917"><ele>759.0</ele><time>2026-04-26T11:26:47.526Z</time></trkpt><trkpt lat="43.0331183" lon="12.8943733"><ele>759.0</ele><time>2026-04-26T11:26:48.526Z</time></trkpt><trkpt lat="43.03325" lon="12.89445"><ele>759.0</ele><time>2026-04-26T11:26:49.526Z</time></trkpt><trkpt lat="43.03338" lon="12.8945333"><ele>759.0</ele><time>2026-04-26T11:26:50.526Z</time></trkpt><trkpt lat="43.0335133" lon="12.8946083"><ele>758.6666666666666</ele><time>2026-04-26T11:26:51.526Z</time></trkpt><trkpt lat="43.0336483" lon="12.8946833"><ele>758.3333333333333</ele><time>2026-04-26T11:26:52.527Z</time></trkpt><trkpt lat="43.0337867" lon="12.894765"><ele>758.0</ele><time>2026-04-26T11:26:53.526Z</time></trkpt><trkpt lat="43.0339267" lon="12.894855"><ele>758.0</ele><time>2026-04-26T11:26:54.526Z</time></trkpt><trkpt lat="43.0340733" lon="12.8949333"><ele>758.0</ele><time>2026-04-26T11:26:55.527Z</time></trkpt><trkpt lat="43.0342233" lon="12.8950133"><ele>758.0</ele><time>2026-04-26T11:26:56.526Z</time></trkpt><trkpt lat="43.0343683" lon="12.8951"><ele>757.6666666666666</ele><time>2026-04-26T11:26:57.526Z</time></trkpt><trkpt lat="43.0345183" lon="12.8951867"><ele>757.3333333333334</ele><time>2026-04-26T11:26:58.526Z</time></trkpt><trkpt lat="43.034675" lon="12.895275"><ele>757.0</ele><time>2026-04-26T11:26:59.526Z</time></trkpt><trkpt lat="43.0348333" lon="12.8953683"><ele>758.0</ele><time>2026-04-26T11:27:00.526Z</time></trkpt><trkpt lat="43.0349917" lon="12.8954667"><ele>759.0</ele><time>2026-04-26T11:27:01.526Z</time></trkpt><trkpt lat="43.03515" lon="12.89556"><ele>760.0</ele><time>2026-04-26T11:27:02.526Z</time></trkpt><trkpt lat="43.0353067" lon="12.8956567"><ele>760.0</ele><time>2026-04-26T11:27:03.526Z</time></trkpt><trkpt lat="43.0354733" lon="12.89574"><ele>760.0</ele><time>2026-04-26T11:27:04.526Z</time></trkpt><trkpt lat="43.0356333" lon="12.8958317"><ele>760.0</ele><time>2026-04-26T11:27:05.527Z</time></trkpt><trkpt lat="43.035795" lon="12.8959283"><ele>759.6666666666667</ele><time>2026-04-26T11:27:06.527Z</time></trkpt><trkpt lat="43.0359583" lon="12.8960217"><ele>759.3333333333334</ele><time>2026-04-26T11:27:07.527Z</time></trkpt><trkpt lat="43.0361283" lon="12.8961183"><ele>759.0</ele><time>2026-04-26T11:27:08.526Z</time></trkpt><trkpt lat="43.0362967" lon="12.89621"><ele>759.0</ele><time>2026-04-26T11:27:09.526Z</time></trkpt><trkpt lat="43.0364667" lon="12.8963083"><ele>759.0</ele><time>2026-04-26T11:27:10.526Z</time></trkpt><trkpt lat="43.0366333" lon="12.8964017"><ele>759.0</ele><time>2026-04-26T11:27:11.526Z</time></trkpt><trkpt lat="43.0367967" lon="12.8964983"><ele>758.6666666666666</ele><time>2026-04-26T11:27:12.527Z</time></trkpt><trkpt lat="43.036965" lon="12.896585"><ele>758.3333333333333</ele><time>2026-04-26T11:27:13.526Z</time></trkpt><trkpt lat="43.037125" lon="12.8966767"><ele>758.0</ele><time>2026-04-26T11:27:14.526Z</time></trkpt><trkpt lat="43.0372867" lon="12.8967733"><ele>758.0</ele><time>2026-04-26T11:27:15.526Z</time></trkpt><trkpt lat="43.0374583" lon="12.896865"><ele>758.0</ele><time>2026-04-26T11:27:16.526Z</time></trkpt><trkpt lat="43.0376317" lon="12.8969567"><ele>758.0</ele><time>2026-04-26T11:27:17.526Z</time></trkpt><trkpt lat="43.0378067" lon="12.8970517"><ele>758.3333333333333</ele><time>2026-04-26T11:27:18.527Z</time></trkpt><trkpt lat="43.0379833" lon="12.897135"><ele>758.6666666666666</ele><time>2026-04-26T11:27:19.527Z</time></trkpt><trkpt lat="43.0381533" lon="12.8972233"><ele>759.0</ele><time>2026-04-26T11:27:20.527Z</time></trkpt><trkpt lat="43.0383267" lon="12.8973133"><ele>759.0</ele><time>2026-04-26T11:27:21.526Z</time></trkpt><trkpt lat="43.0385017" lon="12.8974017"><ele>759.0</ele><time>2026-04-26T11:27:22.526Z</time></trkpt><trkpt lat="43.03868" lon="12.8974767"><ele>759.0</ele><time>2026-04-26T11:27:23.526Z</time></trkpt><trkpt lat="43.0388583" lon="12.897545"><ele>758.6666666666666</ele><time>2026-04-26T11:27:24.527Z</time></trkpt><trkpt lat="43.0390383" lon="12.89761"><ele>758.3333333333333</ele><time>2026-04-26T11:27:25.526Z</time></trkpt><trkpt lat="43.0392117" lon="12.89767"><ele>758.0</ele><time>2026-04-26T11:27:26.526Z</time></trkpt><trkpt lat="43.0393933" lon="12.8977283"><ele>757.3333333333333</ele><time>2026-04-26T11:27:27.526Z</time></trkpt><trkpt lat="43.0395733" lon="12.8977833"><ele>756.6666666666666</ele><time>2026-04-26T11:27:28.527Z</time></trkpt><trkpt lat="43.0397567" lon="12.8978433"><ele>756.0</ele><time>2026-04-26T11:27:29.526Z</time></trkpt><trkpt lat="43.0399317" lon="12.8978983"><ele>755.3333333333334</ele><time>2026-04-26T11:27:30.527Z</time></trkpt><trkpt lat="43.040115" lon="12.8979483"><ele>754.6666666666667</ele><time>2026-04-26T11:27:31.526Z</time></trkpt><trkpt lat="43.0403033" lon="12.8979967"><ele>754.0</ele><time>2026-04-26T11:27:32.526Z</time></trkpt><trkpt lat="43.0404883" lon="12.8980283"><ele>754.0</ele><time>2026-04-26T11:27:33.526Z</time></trkpt><trkpt lat="43.0406783" lon="12.898035"><ele>754.0</ele><time>2026-04-26T11:27:34.526Z</time></trkpt><trkpt lat="43.0408683" lon="12.8980383"><ele>754.0</ele><time>2026-04-26T11:27:35.526Z</time></trkpt><trkpt lat="43.041055" lon="12.8980367"><ele>754.0</ele><time>2026-04-26T11:27:36.526Z</time></trkpt><trkpt lat="43.0412467" lon="12.8980317"><ele>754.0</ele><time>2026-04-26T11:27:37.526Z</time></trkpt><trkpt lat="43.0414367" lon="12.89802"><ele>754.0</ele><time>2026-04-26T11:27:38.526Z</time></trkpt><trkpt lat="43.04163" lon="12.89801"><ele>754.0</ele><time>2026-04-26T11:27:39.526Z</time></trkpt><trkpt lat="43.04182" lon="12.8979983"><ele>754.0</ele><time>2026-04-26T11:27:40.527Z</time></trkpt><trkpt lat="43.0420067" lon="12.8979833"><ele>754.0</ele><time>2026-04-26T11:27:41.526Z</time></trkpt><trkpt lat="43.0421967" lon="12.8979667"><ele>754.0</ele><time>2026-04-26T11:27:42.526Z</time></trkpt><trkpt lat="43.0423817" lon="12.897955"><ele>754.0</ele><time>2026-04-26T11:27:43.526Z</time></trkpt><trkpt lat="43.0425667" lon="12.8979417"><ele>754.0</ele><time>2026-04-26T11:27:44.526Z</time></trkpt><trkpt lat="43.0427517" lon="12.897925"><ele>755.0</ele><time>2026-04-26T11:27:45.526Z</time></trkpt><trkpt lat="43.04294" lon="12.8979133"><ele>756.0</ele><time>2026-04-26T11:27:46.526Z</time></trkpt><trkpt lat="43.0431217" lon="12.8978983"><ele>757.0</ele><time>2026-04-26T11:27:47.526Z</time></trkpt><trkpt lat="43.04331" lon="12.8978867"><ele>757.0</ele><time>2026-04-26T11:27:48.526Z</time></trkpt><trkpt lat="43.0434933" lon="12.8978917"><ele>757.0</ele><time>2026-04-26T11:27:49.526Z</time></trkpt><trkpt lat="43.0436733" lon="12.8979067"><ele>757.0</ele><time>2026-04-26T11:27:50.526Z</time></trkpt><trkpt lat="43.04385" lon="12.8979267"><ele>757.0</ele><time>2026-04-26T11:27:51.526Z</time></trkpt><trkpt lat="43.044025" lon="12.89795"><ele>757.0</ele><time>2026-04-26T11:27:52.526Z</time></trkpt><trkpt lat="43.0441883" lon="12.8979817"><ele>757.0</ele><time>2026-04-26T11:27:53.526Z</time></trkpt><trkpt lat="43.0443433" lon="12.8980217"><ele>758.6666666666667</ele><time>2026-04-26T11:27:54.526Z</time></trkpt><trkpt lat="43.0444983" lon="12.8980517"><ele>760.3333333333334</ele><time>2026-04-26T11:27:55.526Z</time></trkpt><trkpt lat="43.0446517" lon="12.8980983"><ele>762.0</ele><time>2026-04-26T11:27:56.526Z</time></trkpt><trkpt lat="43.0447933" lon="12.8981783"><ele>762.0</ele><time>2026-04-26T11:27:57.527Z</time></trkpt><trkpt lat="43.0449283" lon="12.89828"><ele>762.0</ele><time>2026-04-26T11:27:58.526Z</time></trkpt><trkpt lat="43.0450583" lon="12.898395"><ele>762.0</ele><time>2026-04-26T11:27:59.526Z</time></trkpt><trkpt lat="43.0451867" lon="12.89852"><ele>758.6666666666666</ele><time>2026-04-26T11:28:00.526Z</time></trkpt><trkpt lat="43.0453083" lon="12.898665"><ele>755.3333333333333</ele><time>2026-04-26T11:28:01.526Z</time></trkpt><trkpt lat="43.04542" lon="12.8988217"><ele>752.0</ele><time>2026-04-26T11:28:02.527Z</time></trkpt><trkpt lat="43.0455167" lon="12.8989983"><ele>752.0</ele><time>2026-04-26T11:28:03.526Z</time></trkpt><trkpt lat="43.0456" lon="12.89918"><ele>752.0</ele><time>2026-04-26T11:28:04.526Z</time></trkpt><trkpt lat="43.04567" lon="12.8993833"><ele>752.0</ele><time>2026-04-26T11:28:05.527Z</time></trkpt><trkpt lat="43.0457333" lon="12.8995883"><ele>752.0</ele><time>2026-04-26T11:28:06.527Z</time></trkpt><trkpt lat="43.0457883" lon="12.8998067"><ele>752.0</ele><time>2026-04-26T11:28:07.526Z</time></trkpt><trkpt lat="43.045835" lon="12.90003"><ele>752.0</ele><time>2026-04-26T11:28:08.526Z</time></trkpt><trkpt lat="43.0458817" lon="12.9002583"><ele>752.3333333333333</ele><time>2026-04-26T11:28:09.526Z</time></trkpt><trkpt lat="43.0459183" lon="12.90049"><ele>752.6666666666666</ele><time>2026-04-26T11:28:10.526Z</time></trkpt><trkpt lat="43.0459533" lon="12.9007233"><ele>753.0</ele><time>2026-04-26T11:28:11.526Z</time></trkpt><trkpt lat="43.045985" lon="12.9009617"><ele>752.3333333333334</ele><time>2026-04-26T11:28:12.526Z</time></trkpt><trkpt lat="43.0460167" lon="12.9012017"><ele>751.6666666666667</ele><time>2026-04-26T11:28:13.526Z</time></trkpt><trkpt lat="43.0460467" lon="12.9014417"><ele>751.0</ele><time>2026-04-26T11:28:14.526Z</time></trkpt><trkpt lat="43.0460717" lon="12.90168"><ele>751.0</ele><time>2026-04-26T11:28:15.527Z</time></trkpt><trkpt lat="43.0461033" lon="12.9019133"><ele>751.0</ele><time>2026-04-26T11:28:16.526Z</time></trkpt><trkpt lat="43.0461433" lon="12.9021483"><ele>751.0</ele><time>2026-04-26T11:28:17.526Z</time></trkpt><trkpt lat="43.04619" lon="12.902385"><ele>751.0</ele><time>2026-04-26T11:28:18.526Z</time></trkpt><trkpt lat="43.0462417" lon="12.90262"><ele>751.0</ele><time>2026-04-26T11:28:19.526Z</time></trkpt><trkpt lat="43.0462983" lon="12.9028517"><ele>751.0</ele><time>2026-04-26T11:28:20.526Z</time></trkpt><trkpt lat="43.0463583" lon="12.9030883"><ele>751.0</ele><time>2026-04-26T11:28:21.526Z</time></trkpt><trkpt lat="43.0464183" lon="12.903325"><ele>751.0</ele><time>2026-04-26T11:28:22.527Z</time></trkpt><trkpt lat="43.04648" lon="12.90356"><ele>751.0</ele><time>2026-04-26T11:28:23.526Z</time></trkpt><trkpt lat="43.0465383" lon="12.90379"><ele>751.3333333333334</ele><time>2026-04-26T11:28:24.526Z</time></trkpt><trkpt lat="43.0465983" lon="12.90402"><ele>751.6666666666666</ele><time>2026-04-26T11:28:25.526Z</time></trkpt><trkpt lat="43.0466583" lon="12.9042583"><ele>752.0</ele><time>2026-04-26T11:28:26.526Z</time></trkpt><trkpt lat="43.0467183" lon="12.90449"><ele>752.0</ele><time>2026-04-26T11:28:27.526Z</time></trkpt><trkpt lat="43.0467783" lon="12.9047233"><ele>752.0</ele><time>2026-04-26T11:28:28.526Z</time></trkpt><trkpt lat="43.0468417" lon="12.9049567"><ele>752.0</ele><time>2026-04-26T11:28:29.526Z</time></trkpt><trkpt lat="43.04691" lon="12.9051867"><ele>752.0</ele><time>2026-04-26T11:28:30.527Z</time></trkpt><trkpt lat="43.0469817" lon="12.9054117"><ele>752.0</ele><time>2026-04-26T11:28:31.527Z</time></trkpt><trkpt lat="43.0470583" lon="12.90563"><ele>752.0</ele><time>2026-04-26T11:28:32.526Z</time></trkpt><trkpt lat="43.0471383" lon="12.90585"><ele>751.6666666666666</ele><time>2026-04-26T11:28:33.526Z</time></trkpt><trkpt lat="43.04722" lon="12.906065"><ele>751.3333333333334</ele><time>2026-04-26T11:28:34.527Z</time></trkpt><trkpt lat="43.047305" lon="12.9062733"><ele>751.0</ele><time>2026-04-26T11:28:35.526Z</time></trkpt><trkpt lat="43.0473917" lon="12.906485"><ele>752.0</ele><time>2026-04-26T11:28:36.526Z</time></trkpt><trkpt lat="43.0474767" lon="12.9066917"><ele>753.0</ele><time>2026-04-26T11:28:37.527Z</time></trkpt><trkpt lat="43.0475633" lon="12.9069033"><ele>754.0</ele><time>2026-04-26T11:28:38.526Z</time></trkpt><trkpt lat="43.0476433" lon="12.9071133"><ele>754.0</ele><time>2026-04-26T11:28:39.526Z</time></trkpt><trkpt lat="43.04772" lon="12.9073283"><ele>754.0</ele><time>2026-04-26T11:28:40.526Z</time></trkpt><trkpt lat="43.047795" lon="12.90754"><ele>754.0</ele><time>2026-04-26T11:28:41.527Z</time></trkpt><trkpt lat="43.04788" lon="12.9077483"><ele>753.3333333333334</ele><time>2026-04-26T11:28:42.526Z</time></trkpt><trkpt lat="43.0479633" lon="12.907955"><ele>752.6666666666666</ele><time>2026-04-26T11:28:43.526Z</time></trkpt><trkpt lat="43.048055" lon="12.9081617"><ele>752.0</ele><time>2026-04-26T11:28:44.526Z</time></trkpt><trkpt lat="43.04815" lon="12.908365"><ele>751.6666666666666</ele><time>2026-04-26T11:28:45.527Z</time></trkpt><trkpt lat="43.048245" lon="12.9085683"><ele>751.3333333333334</ele><time>2026-04-26T11:28:46.526Z</time></trkpt><trkpt lat="43.04835" lon="12.908765"><ele>751.0</ele><time>2026-04-26T11:28:47.526Z</time></trkpt><trkpt lat="43.0484483" lon="12.9089583"><ele>751.3333333333334</ele><time>2026-04-26T11:28:48.527Z</time></trkpt><trkpt lat="43.048545" lon="12.9091483"><ele>751.6666666666666</ele><time>2026-04-26T11:28:49.526Z</time></trkpt><trkpt lat="43.0486417" lon="12.9093367"><ele>752.0</ele><time>2026-04-26T11:28:50.526Z</time></trkpt><trkpt lat="43.0487333" lon="12.9095217"><ele>752.0</ele><time>2026-04-26T11:28:51.526Z</time></trkpt><trkpt lat="43.0488283" lon="12.909705"><ele>752.0</ele><time>2026-04-26T11:28:52.526Z</time></trkpt><trkpt lat="43.04893" lon="12.9098817"><ele>752.0</ele><time>2026-04-26T11:28:53.526Z</time></trkpt><trkpt lat="43.0490283" lon="12.91006"><ele>752.3333333333333</ele><time>2026-04-26T11:28:54.527Z</time></trkpt><trkpt lat="43.0491367" lon="12.9102367"><ele>752.6666666666666</ele><time>2026-04-26T11:28:55.526Z</time></trkpt><trkpt lat="43.0492417" lon="12.9104183"><ele>753.0</ele><time>2026-04-26T11:28:56.526Z</time></trkpt><trkpt lat="43.04935" lon="12.9106033"><ele>753.0</ele><time>2026-04-26T11:28:57.526Z</time></trkpt><trkpt lat="43.0494533" lon="12.910795"><ele>753.0</ele><time>2026-04-26T11:28:58.526Z</time></trkpt><trkpt lat="43.0495633" lon="12.9109783"><ele>753.0</ele><time>2026-04-26T11:28:59.526Z</time></trkpt><trkpt lat="43.0496767" lon="12.9111633"><ele>753.6666666666666</ele><time>2026-04-26T11:29:00.526Z</time></trkpt><trkpt lat="43.0497917" lon="12.911345"><ele>754.3333333333333</ele><time>2026-04-26T11:29:01.526Z</time></trkpt><trkpt lat="43.049905" lon="12.9115317"><ele>755.0</ele><time>2026-04-26T11:29:02.526Z</time></trkpt><trkpt lat="43.0500067" lon="12.91172"><ele>754.6666666666666</ele><time>2026-04-26T11:29:03.526Z</time></trkpt><trkpt lat="43.0500983" lon="12.9119033"><ele>754.3333333333334</ele><time>2026-04-26T11:29:04.526Z</time></trkpt><trkpt lat="43.0501867" lon="12.9121017"><ele>754.0</ele><time>2026-04-26T11:29:05.526Z</time></trkpt><trkpt lat="43.0502583" lon="12.9123117"><ele>754.0</ele><time>2026-04-26T11:29:06.527Z</time></trkpt><trkpt lat="43.0503267" lon="12.912525"><ele>754.0</ele><time>2026-04-26T11:29:07.526Z</time></trkpt><trkpt lat="43.0503933" lon="12.9127433"><ele>754.0</ele><time>2026-04-26T11:29:08.526Z</time></trkpt><trkpt lat="43.0504517" lon="12.9129667"><ele>753.0</ele><time>2026-04-26T11:29:09.526Z</time></trkpt><trkpt lat="43.05051" lon="12.913195"><ele>752.0</ele><time>2026-04-26T11:29:10.526Z</time></trkpt><trkpt lat="43.0505667" lon="12.9134267"><ele>751.0</ele><time>2026-04-26T11:29:11.526Z</time></trkpt><trkpt lat="43.0506283" lon="12.913655"><ele>750.6666666666667</ele><time>2026-04-26T11:29:12.527Z</time></trkpt><trkpt lat="43.05069" lon="12.913885"><ele>750.3333333333334</ele><time>2026-04-26T11:29:13.526Z</time></trkpt><trkpt lat="43.050755" lon="12.9141117"><ele>750.0</ele><time>2026-04-26T11:29:14.526Z</time></trkpt><trkpt lat="43.050825" lon="12.9143367"><ele>750.6666666666666</ele><time>2026-04-26T11:29:15.526Z</time></trkpt><trkpt lat="43.050905" lon="12.9145617"><ele>751.3333333333333</ele><time>2026-04-26T11:29:16.526Z</time></trkpt><trkpt lat="43.0509883" lon="12.9147867"><ele>752.0</ele><time>2026-04-26T11:29:17.526Z</time></trkpt><trkpt lat="43.0510767" lon="12.91501"><ele>751.6666666666666</ele><time>2026-04-26T11:29:18.526Z</time></trkpt><trkpt lat="43.0511633" lon="12.91523"><ele>751.3333333333334</ele><time>2026-04-26T11:29:19.526Z</time></trkpt><trkpt lat="43.0512533" lon="12.915445"><ele>751.0</ele><time>2026-04-26T11:29:20.526Z</time></trkpt><trkpt lat="43.0513383" lon="12.9156683"><ele>751.0</ele><time>2026-04-26T11:29:21.527Z</time></trkpt><trkpt lat="43.0514217" lon="12.915895"><ele>751.0</ele><time>2026-04-26T11:29:22.527Z</time></trkpt><trkpt lat="43.0514983" lon="12.9161283"><ele>751.0</ele><time>2026-04-26T11:29:23.526Z</time></trkpt><trkpt lat="43.0515733" lon="12.916365"><ele>751.6666666666667</ele><time>2026-04-26T11:29:24.526Z</time></trkpt><trkpt lat="43.0516433" lon="12.9166067"><ele>752.3333333333334</ele><time>2026-04-26T11:29:25.526Z</time></trkpt><trkpt lat="43.0517167" lon="12.9168433"><ele>753.0</ele><time>2026-04-26T11:29:26.526Z</time></trkpt><trkpt lat="43.05179" lon="12.91708"><ele>753.0</ele><time>2026-04-26T11:29:27.526Z</time></trkpt><trkpt lat="43.05186" lon="12.9173133"><ele>753.0</ele><time>2026-04-26T11:29:28.526Z</time></trkpt><trkpt lat="43.0519283" lon="12.91755"><ele>753.0</ele><time>2026-04-26T11:29:29.526Z</time></trkpt><trkpt lat="43.051995" lon="12.9177833"><ele>752.6666666666666</ele><time>2026-04-26T11:29:30.526Z</time></trkpt><trkpt lat="43.0520633" lon="12.91802"><ele>752.3333333333333</ele><time>2026-04-26T11:29:31.526Z</time></trkpt><trkpt lat="43.05213" lon="12.91826"><ele>752.0</ele><time>2026-04-26T11:29:32.526Z</time></trkpt><trkpt lat="43.0521983" lon="12.9184983"><ele>751.0</ele><time>2026-04-26T11:29:33.526Z</time></trkpt><trkpt lat="43.0522633" lon="12.91873"><ele>750.0</ele><time>2026-04-26T11:29:34.527Z</time></trkpt><trkpt lat="43.0523283" lon="12.9189617"><ele>749.0</ele><time>2026-04-26T11:29:35.526Z</time></trkpt><trkpt lat="43.05239" lon="12.9191983"><ele>749.3333333333333</ele><time>2026-04-26T11:29:36.526Z</time></trkpt><trkpt lat="43.0524483" lon="12.9194383"><ele>749.6666666666666</ele><time>2026-04-26T11:29:37.527Z</time></trkpt><trkpt lat="43.0524983" lon="12.9196767"><ele>750.0</ele><time>2026-04-26T11:29:38.527Z</time></trkpt><trkpt lat="43.0525333" lon="12.9199117"><ele>752.3333333333334</ele><time>2026-04-26T11:29:39.527Z</time></trkpt><trkpt lat="43.052555" lon="12.920155"><ele>754.6666666666667</ele><time>2026-04-26T11:29:40.526Z</time></trkpt><trkpt lat="43.0525667" lon="12.9203917"><ele>757.0</ele><time>2026-04-26T11:29:41.527Z</time></trkpt><trkpt lat="43.05258" lon="12.9206283"><ele>757.0</ele><time>2026-04-26T11:29:42.526Z</time></trkpt><trkpt lat="43.0526" lon="12.9208617"><ele>757.0</ele><time>2026-04-26T11:29:43.526Z</time></trkpt><trkpt lat="43.0526283" lon="12.921095"><ele>757.0</ele><time>2026-04-26T11:29:44.526Z</time></trkpt><trkpt lat="43.05265" lon="12.9213333"><ele>758.0</ele><time>2026-04-26T11:29:45.526Z</time></trkpt><trkpt lat="43.0526783" lon="12.92156"><ele>759.0</ele><time>2026-04-26T11:29:46.526Z</time></trkpt><trkpt lat="43.0526983" lon="12.9217883"><ele>760.0</ele><time>2026-04-26T11:29:47.526Z</time></trkpt><trkpt lat="43.0527017" lon="12.9220183"><ele>760.3333333333334</ele><time>2026-04-26T11:29:48.526Z</time></trkpt><trkpt lat="43.0526883" lon="12.9222367"><ele>760.6666666666666</ele><time>2026-04-26T11:29:49.526Z</time></trkpt><trkpt lat="43.0526633" lon="12.922455"><ele>761.0</ele><time>2026-04-26T11:29:50.526Z</time></trkpt><trkpt lat="43.0526233" lon="12.9226683"><ele>761.0</ele><time>2026-04-26T11:29:51.526Z</time></trkpt><trkpt lat="43.0525883" lon="12.92287"><ele>761.0</ele><time>2026-04-26T11:29:52.526Z</time></trkpt><trkpt lat="43.0525567" lon="12.923065"><ele>761.0</ele><time>2026-04-26T11:29:53.526Z</time></trkpt><trkpt lat="43.05254" lon="12.923265"><ele>761.0</ele><time>2026-04-26T11:29:54.526Z</time></trkpt><trkpt lat="43.0525383" lon="12.923465"><ele>759.0</ele><time>2026-04-26T11:29:55.526Z</time></trkpt><trkpt lat="43.0525483" lon="12.9236783"><ele>757.0</ele><time>2026-04-26T11:29:56.526Z</time></trkpt><trkpt lat="43.0525633" lon="12.9238967"><ele>755.0</ele><time>2026-04-26T11:29:57.526Z</time></trkpt><trkpt lat="43.0525883" lon="12.9241233"><ele>754.3333333333333</ele><time>2026-04-26T11:29:58.526Z</time></trkpt><trkpt lat="43.05261" lon="12.9243567"><ele>753.6666666666666</ele><time>2026-04-26T11:29:59.527Z</time></trkpt><trkpt lat="43.0526367" lon="12.92459"><ele>753.0</ele><time>2026-04-26T11:30:00.526Z</time></trkpt><trkpt lat="43.0526667" lon="12.9248233"><ele>753.0</ele><time>2026-04-26T11:30:01.526Z</time></trkpt><trkpt lat="43.052705" lon="12.925055"><ele>753.0</ele><time>2026-04-26T11:30:02.526Z</time></trkpt><trkpt lat="43.0527583" lon="12.92529"><ele>753.0</ele><time>2026-04-26T11:30:03.527Z</time></trkpt><trkpt lat="43.0528217" lon="12.92552"><ele>753.3333333333334</ele><time>2026-04-26T11:30:04.526Z</time></trkpt><trkpt lat="43.052895" lon="12.92574"><ele>753.6666666666667</ele><time>2026-04-26T11:30:05.526Z</time></trkpt><trkpt lat="43.0529783" lon="12.9259633"><ele>754.0</ele><time>2026-04-26T11:30:06.526Z</time></trkpt><trkpt lat="43.0530633" lon="12.9261783"><ele>754.0</ele><time>2026-04-26T11:30:07.526Z</time></trkpt><trkpt lat="43.0531533" lon="12.926385"><ele>754.0</ele><time>2026-04-26T11:30:08.526Z</time></trkpt><trkpt lat="43.0532417" lon="12.9265967"><ele>754.0</ele><time>2026-04-26T11:30:09.526Z</time></trkpt><trkpt lat="43.05333" lon="12.9268083"><ele>756.0</ele><time>2026-04-26T11:30:10.526Z</time></trkpt><trkpt lat="43.0534217" lon="12.927015"><ele>758.0</ele><time>2026-04-26T11:30:11.526Z</time></trkpt><trkpt lat="43.0535117" lon="12.9272183"><ele>760.0</ele><time>2026-04-26T11:30:12.526Z</time></trkpt><trkpt lat="43.05361" lon="12.927415"><ele>759.3333333333334</ele><time>2026-04-26T11:30:13.526Z</time></trkpt><trkpt lat="43.0537067" lon="12.9276133"><ele>758.6666666666666</ele><time>2026-04-26T11:30:14.526Z</time></trkpt><trkpt lat="43.05381" lon="12.9278017"><ele>758.0</ele><time>2026-04-26T11:30:15.526Z</time></trkpt><trkpt lat="43.0539167" lon="12.9279867"><ele>758.0</ele><time>2026-04-26T11:30:16.526Z</time></trkpt><trkpt lat="43.054025" lon="12.9281717"><ele>758.0</ele><time>2026-04-26T11:30:17.526Z</time></trkpt><trkpt lat="43.0541367" lon="12.92837"><ele>758.0</ele><time>2026-04-26T11:30:18.526Z</time></trkpt><trkpt lat="43.0542483" lon="12.928565"><ele>760.3333333333333</ele><time>2026-04-26T11:30:19.526Z</time></trkpt><trkpt lat="43.05436" lon="12.9287617"><ele>762.6666666666666</ele><time>2026-04-26T11:30:20.526Z</time></trkpt><trkpt lat="43.0544717" lon="12.928955"><ele>765.0</ele><time>2026-04-26T11:30:21.526Z</time></trkpt><trkpt lat="43.05459" lon="12.9291433"><ele>765.6666666666666</ele><time>2026-04-26T11:30:22.526Z</time></trkpt><trkpt lat="43.054715" lon="12.9293267"><ele>766.3333333333333</ele><time>2026-04-26T11:30:23.526Z</time></trkpt><trkpt lat="43.0548367" lon="12.9295117"><ele>767.0</ele><time>2026-04-26T11:30:24.526Z</time></trkpt><trkpt lat="43.0549567" lon="12.929705"><ele>768.3333333333333</ele><time>2026-04-26T11:30:25.526Z</time></trkpt><trkpt lat="43.055075" lon="12.9298967"><ele>769.6666666666666</ele><time>2026-04-26T11:30:26.527Z</time></trkpt><trkpt lat="43.0551933" lon="12.9300933"><ele>771.0</ele><time>2026-04-26T11:30:27.526Z</time></trkpt><trkpt lat="43.0553217" lon="12.9302817"><ele>771.0</ele><time>2026-04-26T11:30:28.526Z</time></trkpt><trkpt lat="43.0554483" lon="12.93047"><ele>771.0</ele><time>2026-04-26T11:30:29.526Z</time></trkpt><trkpt lat="43.0555767" lon="12.930655"><ele>771.0</ele><time>2026-04-26T11:30:30.527Z</time></trkpt><trkpt lat="43.0557133" lon="12.93084"><ele>768.6666666666666</ele><time>2026-04-26T11:30:31.526Z</time></trkpt><trkpt lat="43.0558467" lon="12.9310183"><ele>766.3333333333333</ele><time>2026-04-26T11:30:32.526Z</time></trkpt><trkpt lat="43.0559867" lon="12.9311867"><ele>764.0</ele><time>2026-04-26T11:30:33.526Z</time></trkpt><trkpt lat="43.0561417" lon="12.93134"><ele>764.0</ele><time>2026-04-26T11:30:34.526Z</time></trkpt><trkpt lat="43.0562983" lon="12.93149"><ele>764.0</ele><time>2026-04-26T11:30:35.526Z</time></trkpt><trkpt lat="43.0564633" lon="12.9316367"><ele>764.0</ele><time>2026-04-26T11:30:36.526Z</time></trkpt><trkpt lat="43.0566283" lon="12.9317767"><ele>761.6666666666666</ele><time>2026-04-26T11:30:37.526Z</time></trkpt><trkpt lat="43.0568" lon="12.9319333"><ele>759.3333333333334</ele><time>2026-04-26T11:30:38.527Z</time></trkpt><trkpt lat="43.0569633" lon="12.932095"><ele>757.0</ele><time>2026-04-26T11:30:39.526Z</time></trkpt><trkpt lat="43.0571183" lon="12.9322667"><ele>757.0</ele><time>2026-04-26T11:30:40.526Z</time></trkpt><trkpt lat="43.0572667" lon="12.9324367"><ele>757.0</ele><time>2026-04-26T11:30:41.526Z</time></trkpt><trkpt lat="43.057415" lon="12.932605"><ele>757.0</ele><time>2026-04-26T11:30:42.526Z</time></trkpt><trkpt lat="43.0575633" lon="12.932785"><ele>755.0</ele><time>2026-04-26T11:30:43.526Z</time></trkpt><trkpt lat="43.0577067" lon="12.9329667"><ele>753.0</ele><time>2026-04-26T11:30:44.526Z</time></trkpt><trkpt lat="43.05785" lon="12.93315"><ele>751.0</ele><time>2026-04-26T11:30:45.526Z</time></trkpt><trkpt lat="43.0579917" lon="12.9333383"><ele>751.6666666666667</ele><time>2026-04-26T11:30:46.526Z</time></trkpt><trkpt lat="43.0581433" lon="12.93353"><ele>752.3333333333334</ele><time>2026-04-26T11:30:47.526Z</time></trkpt><trkpt lat="43.0582983" lon="12.9337217"><ele>753.0</ele><time>2026-04-26T11:30:48.526Z</time></trkpt><trkpt lat="43.0584533" lon="12.9339067"><ele>753.0</ele><time>2026-04-26T11:30:49.527Z</time></trkpt><trkpt lat="43.05861" lon="12.9340817"><ele>753.0</ele><time>2026-04-26T11:30:50.526Z</time></trkpt><trkpt lat="43.0587617" lon="12.9342583"><ele>753.0</ele><time>2026-04-26T11:30:51.527Z</time></trkpt><trkpt lat="43.0589133" lon="12.93444"><ele>753.0</ele><time>2026-04-26T11:30:52.526Z</time></trkpt><trkpt lat="43.05906" lon="12.934635"><ele>753.0</ele><time>2026-04-26T11:30:53.527Z</time></trkpt><trkpt lat="43.0592067" lon="12.9348267"><ele>753.0</ele><time>2026-04-26T11:30:54.526Z</time></trkpt><trkpt lat="43.0593517" lon="12.935025"><ele>748.0</ele><time>2026-04-26T11:30:55.526Z</time></trkpt><trkpt lat="43.0594933" lon="12.935225"><ele>743.0</ele><time>2026-04-26T11:30:56.526Z</time></trkpt><trkpt lat="43.059625" lon="12.9354267"><ele>738.0</ele><time>2026-04-26T11:30:57.526Z</time></trkpt><trkpt lat="43.0597417" lon="12.93564"><ele>738.0</ele><time>2026-04-26T11:30:58.526Z</time></trkpt><trkpt lat="43.05985" lon="12.9358583"><ele>738.0</ele><time>2026-04-26T11:30:59.526Z</time></trkpt><trkpt lat="43.0599567" lon="12.936075"><ele>738.0</ele><time>2026-04-26T11:31:00.526Z</time></trkpt><trkpt lat="43.060065" lon="12.9362783"><ele>740.0</ele><time>2026-04-26T11:31:01.526Z</time></trkpt><trkpt lat="43.06018" lon="12.9364567"><ele>742.0</ele><time>2026-04-26T11:31:02.526Z</time></trkpt><trkpt lat="43.060305" lon="12.9366133"><ele>744.0</ele><time>2026-04-26T11:31:03.526Z</time></trkpt><trkpt lat="43.0604417" lon="12.9367367"><ele>741.0</ele><time>2026-04-26T11:31:04.526Z</time></trkpt><trkpt lat="43.0606" lon="12.9368383"><ele>738.0</ele><time>2026-04-26T11:31:05.526Z</time></trkpt><trkpt lat="43.0607767" lon="12.9369217"><ele>735.0</ele><time>2026-04-26T11:31:06.526Z</time></trkpt><trkpt lat="43.0609583" lon="12.9369917"><ele>735.0</ele><time>2026-04-26T11:31:07.526Z</time></trkpt><trkpt lat="43.0611483" lon="12.9370617"><ele>735.0</ele><time>2026-04-26T11:31:08.526Z</time></trkpt><trkpt lat="43.06133" lon="12.9371567"><ele>735.0</ele><time>2026-04-26T11:31:09.527Z</time></trkpt><trkpt lat="43.0615167" lon="12.93727"><ele>737.3333333333334</ele><time>2026-04-26T11:31:10.527Z</time></trkpt><trkpt lat="43.061695" lon="12.9373983"><ele>739.6666666666667</ele><time>2026-04-26T11:31:11.526Z</time></trkpt><trkpt lat="43.0618733" lon="12.9375317"><ele>742.0</ele><time>2026-04-26T11:31:12.526Z</time></trkpt><trkpt lat="43.0620317" lon="12.937675"><ele>738.3333333333334</ele><time>2026-04-26T11:31:13.526Z</time></trkpt><trkpt lat="43.0621883" lon="12.9378333"><ele>734.6666666666666</ele><time>2026-04-26T11:31:14.526Z</time></trkpt><trkpt lat="43.062335" lon="12.9380067"><ele>731.0</ele><time>2026-04-26T11:31:15.526Z</time></trkpt><trkpt lat="43.0624767" lon="12.9381967"><ele>725.6666666666666</ele><time>2026-04-26T11:31:16.526Z</time></trkpt><trkpt lat="43.0626183" lon="12.938385"><ele>720.3333333333334</ele><time>2026-04-26T11:31:17.527Z</time></trkpt><trkpt lat="43.0627617" lon="12.9385717"><ele>715.0</ele><time>2026-04-26T11:31:18.526Z</time></trkpt><trkpt lat="43.0629283" lon="12.938735"><ele>715.0</ele><time>2026-04-26T11:31:19.526Z</time></trkpt><trkpt lat="43.0631" lon="12.9388783"><ele>715.0</ele><time>2026-04-26T11:31:20.526Z</time></trkpt><trkpt lat="43.063275" lon="12.9390117"><ele>715.0</ele><time>2026-04-26T11:31:21.526Z</time></trkpt><trkpt lat="43.063455" lon="12.939135"><ele>713.6666666666667</ele><time>2026-04-26T11:31:22.526Z</time></trkpt><trkpt lat="43.0636233" lon="12.9392517"><ele>712.3333333333334</ele><time>2026-04-26T11:31:23.527Z</time></trkpt><trkpt lat="43.0637783" lon="12.9393633"><ele>711.0</ele><time>2026-04-26T11:31:24.527Z</time></trkpt><trkpt lat="43.0639083" lon="12.939465"><ele>711.0</ele><time>2026-04-26T11:31:25.526Z</time></trkpt><trkpt lat="43.06402" lon="12.9395783"><ele>711.0</ele><time>2026-04-26T11:31:26.526Z</time></trkpt><trkpt lat="43.0641083" lon="12.9397133"><ele>711.0</ele><time>2026-04-26T11:31:27.526Z</time></trkpt><trkpt lat="43.0641717" lon="12.939865"><ele>711.0</ele><time>2026-04-26T11:31:28.526Z</time></trkpt><trkpt lat="43.06422" lon="12.9400233"><ele>710.75</ele><time>2026-04-26T11:31:29.526Z</time></trkpt><trkpt lat="43.0642567" lon="12.9402"><ele>710.5</ele><time>2026-04-26T11:31:30.526Z</time></trkpt><trkpt lat="43.064305" lon="12.9403817"><ele>710.25</ele><time>2026-04-26T11:31:31.526Z</time></trkpt><trkpt lat="43.0643617" lon="12.940545"><ele>710.0</ele><time>2026-04-26T11:31:32.526Z</time></trkpt><trkpt lat="43.0644433" lon="12.9406817"><ele>710.0</ele><time>2026-04-26T11:31:33.526Z</time></trkpt><trkpt lat="43.0645417" lon="12.9407817"><ele>710.0</ele><time>2026-04-26T11:31:34.526Z</time></trkpt><trkpt lat="43.064645" lon="12.94084"><ele>710.0</ele><time>2026-04-26T11:31:35.526Z</time></trkpt><trkpt lat="43.064755" lon="12.940855"><ele>710.0</ele><time>2026-04-26T11:31:36.527Z</time></trkpt><trkpt lat="43.0648583" lon="12.9408133"><ele>708.75</ele><time>2026-04-26T11:31:37.526Z</time></trkpt><trkpt lat="43.064965" lon="12.9407133"><ele>707.5</ele><time>2026-04-26T11:31:38.526Z</time></trkpt><trkpt lat="43.0650483" lon="12.9405633"><ele>706.25</ele><time>2026-04-26T11:31:39.526Z</time></trkpt><trkpt lat="43.0651167" lon="12.9403683"><ele>705.0</ele><time>2026-04-26T11:31:40.526Z</time></trkpt><trkpt lat="43.065175" lon="12.9401583"><ele>712.6666666666666</ele><time>2026-04-26T11:31:41.527Z</time></trkpt><trkpt lat="43.0652417" lon="12.93994"><ele>720.3333333333333</ele><time>2026-04-26T11:31:42.527Z</time></trkpt><trkpt lat="43.0653167" lon="12.939735"><ele>728.0</ele><time>2026-04-26T11:31:43.526Z</time></trkpt><trkpt lat="43.0654017" lon="12.9395517"><ele>728.0</ele><time>2026-04-26T11:31:44.526Z</time></trkpt><trkpt lat="43.0655133" lon="12.93938"><ele>728.0</ele><time>2026-04-26T11:31:45.526Z</time></trkpt><trkpt lat="43.0656333" lon="12.9392283"><ele>728.0</ele><time>2026-04-26T11:31:46.526Z</time></trkpt><trkpt lat="43.0657467" lon="12.9390967"><ele>725.2</ele><time>2026-04-26T11:31:47.526Z</time></trkpt><trkpt lat="43.0658617" lon="12.9389917"><ele>722.4</ele><time>2026-04-26T11:31:48.526Z</time></trkpt><trkpt lat="43.0659633" lon="12.9388967"><ele>719.6</ele><time>2026-04-26T11:31:49.526Z</time></trkpt><trkpt lat="43.0660433" lon="12.938815"><ele>716.8000000000001</ele><time>2026-04-26T11:31:50.527Z</time></trkpt><trkpt lat="43.06612" lon="12.938785"><ele>714.0</ele><time>2026-04-26T11:31:51.526Z</time></trkpt><trkpt lat="43.0661933" lon="12.9388"><ele>714.0</ele><time>2026-04-26T11:31:52.526Z</time></trkpt><trkpt lat="43.0662767" lon="12.9389117"><ele>714.0</ele><time>2026-04-26T11:31:54.526Z</time></trkpt><trkpt lat="43.066285" lon="12.93901"><ele>714.0</ele><time>2026-04-26T11:31:55.526Z</time></trkpt><trkpt lat="43.066275" lon="12.9391333"><ele>714.0</ele><time>2026-04-26T11:31:56.526Z</time></trkpt><trkpt lat="43.0662017" lon="12.9392983"><ele>714.0</ele><time>2026-04-26T11:31:57.526Z</time></trkpt><trkpt lat="43.066105" lon="12.9394817"><ele>711.3333333333334</ele><time>2026-04-26T11:31:58.526Z</time></trkpt><trkpt lat="43.0660117" lon="12.9396783"><ele>708.6666666666667</ele><time>2026-04-26T11:31:59.526Z</time></trkpt><trkpt lat="43.0659383" lon="12.93989"><ele>706.0</ele><time>2026-04-26T11:32:00.525Z</time></trkpt><trkpt lat="43.065885" lon="12.9401183"><ele>705.6666666666667</ele><time>2026-04-26T11:32:01.525Z</time></trkpt><trkpt lat="43.06583" lon="12.940345"><ele>705.3333333333334</ele><time>2026-04-26T11:32:02.525Z</time></trkpt><trkpt lat="43.0657783" lon="12.940565"><ele>705.0</ele><time>2026-04-26T11:32:03.526Z</time></trkpt><trkpt lat="43.0657267" lon="12.9407733"><ele>701.5</ele><time>2026-04-26T11:32:04.525Z</time></trkpt><trkpt lat="43.0656833" lon="12.940975"><ele>698.0</ele><time>2026-04-26T11:32:05.525Z</time></trkpt><trkpt lat="43.06563" lon="12.9411583"><ele>694.5</ele><time>2026-04-26T11:32:06.525Z</time></trkpt><trkpt lat="43.06559" lon="12.9413467"><ele>691.0</ele><time>2026-04-26T11:32:07.525Z</time></trkpt><trkpt lat="43.06556" lon="12.94153"><ele>691.0</ele><time>2026-04-26T11:32:08.526Z</time></trkpt><trkpt lat="43.06555" lon="12.9417117"><ele>691.0</ele><time>2026-04-26T11:32:09.526Z</time></trkpt><trkpt lat="43.065555" lon="12.9418933"><ele>691.0</ele><time>2026-04-26T11:32:10.525Z</time></trkpt><trkpt lat="43.0655767" lon="12.9420767"><ele>691.0</ele><time>2026-04-26T11:32:11.525Z</time></trkpt><trkpt lat="43.065605" lon="12.9422567"><ele>689.3333333333334</ele><time>2026-04-26T11:32:12.525Z</time></trkpt><trkpt lat="43.065675" lon="12.9424383"><ele>687.6666666666666</ele><time>2026-04-26T11:32:13.525Z</time></trkpt><trkpt lat="43.06575" lon="12.9426183"><ele>686.0</ele><time>2026-04-26T11:32:14.526Z</time></trkpt><trkpt lat="43.06584" lon="12.9427867"><ele>686.0</ele><time>2026-04-26T11:32:15.525Z</time></trkpt><trkpt lat="43.0659333" lon="12.94295"><ele>686.0</ele><time>2026-04-26T11:32:16.526Z</time></trkpt><trkpt lat="43.06604" lon="12.943095"><ele>686.0</ele><time>2026-04-26T11:32:17.525Z</time></trkpt><trkpt lat="43.0661617" lon="12.9432233"><ele>686.0</ele><time>2026-04-26T11:32:18.525Z</time></trkpt><trkpt lat="43.0662983" lon="12.9433333"><ele>686.0</ele><time>2026-04-26T11:32:19.526Z</time></trkpt><trkpt lat="43.0664383" lon="12.9434567"><ele>686.0</ele><time>2026-04-26T11:32:20.525Z</time></trkpt><trkpt lat="43.0665817" lon="12.943565"><ele>684.0</ele><time>2026-04-26T11:32:21.525Z</time></trkpt><trkpt lat="43.0667083" lon="12.9436683"><ele>682.0</ele><time>2026-04-26T11:32:22.525Z</time></trkpt><trkpt lat="43.0668283" lon="12.943775"><ele>680.0</ele><time>2026-04-26T11:32:23.525Z</time></trkpt><trkpt lat="43.06694" lon="12.9438833"><ele>678.0</ele><time>2026-04-26T11:32:24.526Z</time></trkpt><trkpt lat="43.067045" lon="12.94401"><ele>678.0</ele><time>2026-04-26T11:32:25.525Z</time></trkpt><trkpt lat="43.06715" lon="12.9441567"><ele>678.0</ele><time>2026-04-26T11:32:26.525Z</time></trkpt><trkpt lat="43.06725" lon="12.944325"><ele>678.0</ele><time>2026-04-26T11:32:27.526Z</time></trkpt><trkpt lat="43.0673367" lon="12.9444917"><ele>678.0</ele><time>2026-04-26T11:32:28.525Z</time></trkpt><trkpt lat="43.06742" lon="12.944655"><ele>678.0</ele><time>2026-04-26T11:32:29.525Z</time></trkpt><trkpt lat="43.06749" lon="12.9448133"><ele>678.0</ele><time>2026-04-26T11:32:30.525Z</time></trkpt><trkpt lat="43.0675367" lon="12.9449717"><ele>678.0</ele><time>2026-04-26T11:32:31.525Z</time></trkpt><trkpt lat="43.06757" lon="12.94512"><ele>677.0</ele><time>2026-04-26T11:32:32.525Z</time></trkpt><trkpt lat="43.0675933" lon="12.94527"><ele>676.0</ele><time>2026-04-26T11:32:33.525Z</time></trkpt><trkpt lat="43.0676033" lon="12.9454317"><ele>675.0</ele><time>2026-04-26T11:32:34.525Z</time></trkpt><trkpt lat="43.067615" lon="12.945615"><ele>674.0</ele><time>2026-04-26T11:32:35.525Z</time></trkpt><trkpt lat="43.0676333" lon="12.9458083"><ele>672.0</ele><time>2026-04-26T11:32:36.525Z</time></trkpt><trkpt lat="43.0676617" lon="12.9460083"><ele>670.0</ele><time>2026-04-26T11:32:37.525Z</time></trkpt><trkpt lat="43.06772" lon="12.9461983"><ele>668.0</ele><time>2026-04-26T11:32:38.525Z</time></trkpt><trkpt lat="43.0678017" lon="12.9463717"><ele>668.0</ele><time>2026-04-26T11:32:39.526Z</time></trkpt><trkpt lat="43.0679033" lon="12.9465317"><ele>668.0</ele><time>2026-04-26T11:32:40.525Z</time></trkpt><trkpt lat="43.0680117" lon="12.946675"><ele>668.0</ele><time>2026-04-26T11:32:41.525Z</time></trkpt><trkpt lat="43.06813" lon="12.946795"><ele>668.3333333333333</ele><time>2026-04-26T11:32:42.525Z</time></trkpt><trkpt lat="43.0682733" lon="12.9468917"><ele>668.6666666666666</ele><time>2026-04-26T11:32:43.525Z</time></trkpt><trkpt lat="43.068415" lon="12.94696"><ele>669.0</ele><time>2026-04-26T11:32:44.525Z</time></trkpt><trkpt lat="43.0685717" lon="12.947005"><ele>669.0</ele><time>2026-04-26T11:32:45.525Z</time></trkpt><trkpt lat="43.0687367" lon="12.9470367"><ele>669.0</ele><time>2026-04-26T11:32:46.525Z</time></trkpt><trkpt lat="43.0689067" lon="12.94705"><ele>669.0</ele><time>2026-04-26T11:32:47.526Z</time></trkpt><trkpt lat="43.0690767" lon="12.94704"><ele>667.3333333333334</ele><time>2026-04-26T11:32:48.526Z</time></trkpt><trkpt lat="43.06924" lon="12.9470467"><ele>665.6666666666667</ele><time>2026-04-26T11:32:49.525Z</time></trkpt><trkpt lat="43.069405" lon="12.9470717"><ele>664.0</ele><time>2026-04-26T11:32:50.525Z</time></trkpt><trkpt lat="43.0695783" lon="12.9471267"><ele>664.0</ele><time>2026-04-26T11:32:51.525Z</time></trkpt><trkpt lat="43.0697333" lon="12.9472033"><ele>664.0</ele><time>2026-04-26T11:32:52.525Z</time></trkpt><trkpt lat="43.069895" lon="12.9473033"><ele>664.0</ele><time>2026-04-26T11:32:53.525Z</time></trkpt><trkpt lat="43.0700567" lon="12.9474117"><ele>663.3333333333334</ele><time>2026-04-26T11:32:54.526Z</time></trkpt><trkpt lat="43.0702167" lon="12.9475183"><ele>662.6666666666666</ele><time>2026-04-26T11:32:55.525Z</time></trkpt><trkpt lat="43.07037" lon="12.9476233"><ele>662.0</ele><time>2026-04-26T11:32:56.525Z</time></trkpt><trkpt lat="43.07052" lon="12.9477333"><ele>662.0</ele><time>2026-04-26T11:32:57.526Z</time></trkpt><trkpt lat="43.07067" lon="12.9478383"><ele>662.0</ele><time>2026-04-26T11:32:58.525Z</time></trkpt><trkpt lat="43.070815" lon="12.9479583"><ele>662.0</ele><time>2026-04-26T11:32:59.525Z</time></trkpt><trkpt lat="43.0709283" lon="12.9480983"><ele>661.6666666666666</ele><time>2026-04-26T11:33:00.525Z</time></trkpt><trkpt lat="43.07105" lon="12.94825"><ele>661.3333333333334</ele><time>2026-04-26T11:33:01.525Z</time></trkpt><trkpt lat="43.07118" lon="12.9484083"><ele>661.0</ele><time>2026-04-26T11:33:02.525Z</time></trkpt><trkpt lat="43.071315" lon="12.94857"><ele>661.0</ele><time>2026-04-26T11:33:03.525Z</time></trkpt><trkpt lat="43.0714417" lon="12.9487367"><ele>661.0</ele><time>2026-04-26T11:33:04.526Z</time></trkpt><trkpt lat="43.0715683" lon="12.9489"><ele>661.0</ele><time>2026-04-26T11:33:05.525Z</time></trkpt><trkpt lat="43.0716967" lon="12.9490683"><ele>659.3333333333334</ele><time>2026-04-26T11:33:06.525Z</time></trkpt><trkpt lat="43.0718167" lon="12.9492267"><ele>657.6666666666666</ele><time>2026-04-26T11:33:07.525Z</time></trkpt><trkpt lat="43.0719217" lon="12.949385"><ele>656.0</ele><time>2026-04-26T11:33:08.525Z</time></trkpt><trkpt lat="43.0720167" lon="12.9495517"><ele>656.0</ele><time>2026-04-26T11:33:09.525Z</time></trkpt><trkpt lat="43.0721067" lon="12.9497333"><ele>656.0</ele><time>2026-04-26T11:33:10.525Z</time></trkpt><trkpt lat="43.072185" lon="12.9499367"><ele>656.0</ele><time>2026-04-26T11:33:11.525Z</time></trkpt><trkpt lat="43.0722517" lon="12.9501533"><ele>655.0</ele><time>2026-04-26T11:33:12.525Z</time></trkpt><trkpt lat="43.0723133" lon="12.9503733"><ele>654.0</ele><time>2026-04-26T11:33:13.525Z</time></trkpt><trkpt lat="43.07236" lon="12.95061"><ele>653.0</ele><time>2026-04-26T11:33:14.526Z</time></trkpt><trkpt lat="43.0723917" lon="12.9508517"><ele>652.3333333333333</ele><time>2026-04-26T11:33:15.525Z</time></trkpt><trkpt lat="43.07241" lon="12.9511"><ele>651.6666666666666</ele><time>2026-04-26T11:33:16.525Z</time></trkpt><trkpt lat="43.0724167" lon="12.9513467"><ele>651.0</ele><time>2026-04-26T11:33:17.525Z</time></trkpt><trkpt lat="43.0724283" lon="12.95158"><ele>652.3333333333334</ele><time>2026-04-26T11:33:18.525Z</time></trkpt><trkpt lat="43.072445" lon="12.9517967"><ele>653.6666666666667</ele><time>2026-04-26T11:33:19.526Z</time></trkpt><trkpt lat="43.0724733" lon="12.9520017"><ele>655.0</ele><time>2026-04-26T11:33:20.525Z</time></trkpt><trkpt lat="43.07252" lon="12.95221"><ele>655.0</ele><time>2026-04-26T11:33:21.525Z</time></trkpt><trkpt lat="43.072595" lon="12.9524167"><ele>655.0</ele><time>2026-04-26T11:33:22.525Z</time></trkpt><trkpt lat="43.072685" lon="12.9526283"><ele>655.0</ele><time>2026-04-26T11:33:23.526Z</time></trkpt><trkpt lat="43.07278" lon="12.9528467"><ele>652.3333333333334</ele><time>2026-04-26T11:33:24.525Z</time></trkpt><trkpt lat="43.0728767" lon="12.95307"><ele>649.6666666666666</ele><time>2026-04-26T11:33:25.525Z</time></trkpt><trkpt lat="43.0729767" lon="12.9533"><ele>647.0</ele><time>2026-04-26T11:33:26.525Z</time></trkpt><trkpt lat="43.0730817" lon="12.9535317"><ele>645.6666666666666</ele><time>2026-04-26T11:33:27.526Z</time></trkpt><trkpt lat="43.07319" lon="12.9537583"><ele>644.3333333333334</ele><time>2026-04-26T11:33:28.525Z</time></trkpt><trkpt lat="43.0732917" lon="12.9539817"><ele>643.0</ele><time>2026-04-26T11:33:29.525Z</time></trkpt><trkpt lat="43.0733833" lon="12.954195"><ele>643.3333333333334</ele><time>2026-04-26T11:33:30.525Z</time></trkpt><trkpt lat="43.07348" lon="12.9544017"><ele>643.6666666666666</ele><time>2026-04-26T11:33:31.525Z</time></trkpt><trkpt lat="43.0735767" lon="12.9546033"><ele>644.0</ele><time>2026-04-26T11:33:32.525Z</time></trkpt><trkpt lat="43.0736917" lon="12.9547833"><ele>644.0</ele><time>2026-04-26T11:33:33.526Z</time></trkpt><trkpt lat="43.0738283" lon="12.9549367"><ele>644.0</ele><time>2026-04-26T11:33:34.525Z</time></trkpt><trkpt lat="43.0739733" lon="12.95508"><ele>644.0</ele><time>2026-04-26T11:33:35.525Z</time></trkpt><trkpt lat="43.0741283" lon="12.9552133"><ele>642.3333333333333</ele><time>2026-04-26T11:33:36.525Z</time></trkpt><trkpt lat="43.0742833" lon="12.9553467"><ele>640.6666666666666</ele><time>2026-04-26T11:33:37.525Z</time></trkpt><trkpt lat="43.07444" lon="12.9554817"><ele>639.0</ele><time>2026-04-26T11:33:38.525Z</time></trkpt><trkpt lat="43.074595" lon="12.9556233"><ele>639.0</ele><time>2026-04-26T11:33:39.525Z</time></trkpt><trkpt lat="43.0747467" lon="12.95578"><ele>639.0</ele><time>2026-04-26T11:33:40.526Z</time></trkpt><trkpt lat="43.0749033" lon="12.9559617"><ele>639.0</ele><time>2026-04-26T11:33:41.525Z</time></trkpt><trkpt lat="43.075045" lon="12.956145"><ele>637.6666666666666</ele><time>2026-04-26T11:33:42.525Z</time></trkpt><trkpt lat="43.0751767" lon="12.95634"><ele>636.3333333333333</ele><time>2026-04-26T11:33:43.525Z</time></trkpt><trkpt lat="43.075315" lon="12.9565467"><ele>635.0</ele><time>2026-04-26T11:33:44.526Z</time></trkpt><trkpt lat="43.0754517" lon="12.95675"><ele>636.0</ele><time>2026-04-26T11:33:45.525Z</time></trkpt><trkpt lat="43.0755833" lon="12.9569417"><ele>637.0</ele><time>2026-04-26T11:33:46.525Z</time></trkpt><trkpt lat="43.0757167" lon="12.9571183"><ele>638.0</ele><time>2026-04-26T11:33:47.525Z</time></trkpt><trkpt lat="43.07584" lon="12.95729"><ele>638.0</ele><time>2026-04-26T11:33:48.525Z</time></trkpt><trkpt lat="43.0759467" lon="12.95747"><ele>638.0</ele><time>2026-04-26T11:33:49.525Z</time></trkpt><trkpt lat="43.076025" lon="12.957645"><ele>638.0</ele><time>2026-04-26T11:33:50.525Z</time></trkpt><trkpt lat="43.0761" lon="12.957815"><ele>636.0</ele><time>2026-04-26T11:33:51.525Z</time></trkpt><trkpt lat="43.0761217" lon="12.9580033"><ele>634.0</ele><time>2026-04-26T11:33:52.525Z</time></trkpt><trkpt lat="43.0761333" lon="12.9581867"><ele>632.0</ele><time>2026-04-26T11:33:53.526Z</time></trkpt><trkpt lat="43.07612" lon="12.9583617"><ele>630.0</ele><time>2026-04-26T11:33:54.525Z</time></trkpt><trkpt lat="43.0761033" lon="12.9585267"><ele>630.0</ele><time>2026-04-26T11:33:55.525Z</time></trkpt><trkpt lat="43.076085" lon="12.9586833"><ele>630.0</ele><time>2026-04-26T11:33:56.525Z</time></trkpt><trkpt lat="43.0760633" lon="12.95884"><ele>630.0</ele><time>2026-04-26T11:33:57.525Z</time></trkpt><trkpt lat="43.0760467" lon="12.9589883"><ele>630.0</ele><time>2026-04-26T11:33:58.525Z</time></trkpt><trkpt lat="43.0760333" lon="12.9591283"><ele>630.0</ele><time>2026-04-26T11:33:59.526Z</time></trkpt><trkpt lat="43.0760183" lon="12.9592567"><ele>629.5</ele><time>2026-04-26T11:34:00.525Z</time></trkpt><trkpt lat="43.0760033" lon="12.9593717"><ele>629.0</ele><time>2026-04-26T11:34:01.525Z</time></trkpt><trkpt lat="43.0759817" lon="12.9594683"><ele>628.5</ele><time>2026-04-26T11:34:02.525Z</time></trkpt><trkpt lat="43.0759567" lon="12.9596"><ele>628.0</ele><time>2026-04-26T11:34:04.525Z</time></trkpt><trkpt lat="43.0760017" lon="12.9596733"><ele>627.5</ele><time>2026-04-26T11:34:07.526Z</time></trkpt><trkpt lat="43.0760617" lon="12.9595633"><ele>627.0</ele><time>2026-04-26T11:34:09.525Z</time></trkpt><trkpt lat="43.07608" lon="12.959435"><ele>627.0</ele><time>2026-04-26T11:34:10.526Z</time></trkpt><trkpt lat="43.076085" lon="12.9592683"><ele>627.0</ele><time>2026-04-26T11:34:11.526Z</time></trkpt><trkpt lat="43.07609" lon="12.9590633"><ele>627.0</ele><time>2026-04-26T11:34:12.525Z</time></trkpt><trkpt lat="43.076095" lon="12.9588567"><ele>627.0</ele><time>2026-04-26T11:34:13.525Z</time></trkpt><trkpt lat="43.07611" lon="12.9586817"><ele>627.4</ele><time>2026-04-26T11:34:14.525Z</time></trkpt><trkpt lat="43.076135" lon="12.9585367"><ele>627.8000000000001</ele><time>2026-04-26T11:34:15.526Z</time></trkpt><trkpt lat="43.076165" lon="12.9584083"><ele>628.2</ele><time>2026-04-26T11:34:16.525Z</time></trkpt><trkpt lat="43.07622" lon="12.9582983"><ele>628.6</ele><time>2026-04-26T11:34:17.525Z</time></trkpt><trkpt lat="43.0762867" lon="12.9582167"><ele>629.0</ele><time>2026-04-26T11:34:18.525Z</time></trkpt><trkpt lat="43.07637" lon="12.9581933"><ele>629.0</ele><time>2026-04-26T11:34:19.525Z</time></trkpt><trkpt lat="43.0764567" lon="12.958195"><ele>629.0</ele><time>2026-04-26T11:34:20.525Z</time></trkpt><trkpt lat="43.0765267" lon="12.9582433"><ele>629.0</ele><time>2026-04-26T11:34:21.525Z</time></trkpt><trkpt lat="43.0766183" lon="12.9583533"><ele>629.0</ele><time>2026-04-26T11:34:22.525Z</time></trkpt><trkpt lat="43.0767367" lon="12.958555"><ele>631.6666666666666</ele><time>2026-04-26T11:34:23.525Z</time></trkpt><trkpt lat="43.076855" lon="12.9587317"><ele>634.3333333333334</ele><time>2026-04-26T11:34:24.526Z</time></trkpt><trkpt lat="43.0769617" lon="12.9588583"><ele>637.0</ele><time>2026-04-26T11:34:25.525Z</time></trkpt><trkpt lat="43.0770867" lon="12.9589367"><ele>637.0</ele><time>2026-04-26T11:34:26.525Z</time></trkpt><trkpt lat="43.077235" lon="12.9589717"><ele>637.0</ele><time>2026-04-26T11:34:27.526Z</time></trkpt><trkpt lat="43.0774017" lon="12.9589833"><ele>637.0</ele><time>2026-04-26T11:34:28.525Z</time></trkpt><trkpt lat="43.0775817" lon="12.958975"><ele>640.6666666666667</ele><time>2026-04-26T11:34:29.525Z</time></trkpt><trkpt lat="43.0777617" lon="12.9589583"><ele>644.3333333333334</ele><time>2026-04-26T11:34:30.525Z</time></trkpt><trkpt lat="43.0779533" lon="12.9589283"><ele>648.0</ele><time>2026-04-26T11:34:31.525Z</time></trkpt><trkpt lat="43.07815" lon="12.9588817"><ele>652.6666666666666</ele><time>2026-04-26T11:34:32.525Z</time></trkpt><trkpt lat="43.0783417" lon="12.9588033"><ele>657.3333333333333</ele><time>2026-04-26T11:34:33.525Z</time></trkpt><trkpt lat="43.0785383" lon="12.9587083"><ele>662.0</ele><time>2026-04-26T11:34:34.525Z</time></trkpt><trkpt lat="43.078745" lon="12.9586083"><ele>662.0</ele><time>2026-04-26T11:34:35.526Z</time></trkpt><trkpt lat="43.078955" lon="12.95851"><ele>662.0</ele><time>2026-04-26T11:34:36.525Z</time></trkpt><trkpt lat="43.0791517" lon="12.9584067"><ele>662.0</ele><time>2026-04-26T11:34:37.525Z</time></trkpt><trkpt lat="43.0793267" lon="12.95832"><ele>659.25</ele><time>2026-04-26T11:34:38.525Z</time></trkpt><trkpt lat="43.07948" lon="12.9582717"><ele>656.5</ele><time>2026-04-26T11:34:39.525Z</time></trkpt><trkpt lat="43.0796083" lon="12.9582533"><ele>653.75</ele><time>2026-04-26T11:34:40.525Z</time></trkpt><trkpt lat="43.079745" lon="12.9582683"><ele>651.0</ele><time>2026-04-26T11:34:41.525Z</time></trkpt><trkpt lat="43.0798933" lon="12.9583117"><ele>653.0</ele><time>2026-04-26T11:34:42.525Z</time></trkpt><trkpt lat="43.0800533" lon="12.958355"><ele>655.0</ele><time>2026-04-26T11:34:43.525Z</time></trkpt><trkpt lat="43.0802217" lon="12.9584"><ele>657.0</ele><time>2026-04-26T11:34:44.525Z</time></trkpt><trkpt lat="43.0803833" lon="12.9584133"><ele>657.0</ele><time>2026-04-26T11:34:45.526Z</time></trkpt><trkpt lat="43.0805317" lon="12.9584067"><ele>657.0</ele><time>2026-04-26T11:34:46.526Z</time></trkpt><trkpt lat="43.08067" lon="12.9583667"><ele>657.0</ele><time>2026-04-26T11:34:47.525Z</time></trkpt><trkpt lat="43.08081" lon="12.9582917"><ele>657.0</ele><time>2026-04-26T11:34:48.525Z</time></trkpt><trkpt lat="43.0809533" lon="12.95818"><ele>660.6666666666666</ele><time>2026-04-26T11:34:49.526Z</time></trkpt><trkpt lat="43.0810967" lon="12.9580367"><ele>664.3333333333333</ele><time>2026-04-26T11:34:50.525Z</time></trkpt><trkpt lat="43.0812367" lon="12.957875"><ele>668.0</ele><time>2026-04-26T11:34:51.526Z</time></trkpt><trkpt lat="43.081375" lon="12.9576967"><ele>667.3333333333333</ele><time>2026-04-26T11:34:52.525Z</time></trkpt><trkpt lat="43.08151" lon="12.957515"><ele>666.6666666666666</ele><time>2026-04-26T11:34:53.525Z</time></trkpt><trkpt lat="43.08163" lon="12.9573217"><ele>666.0</ele><time>2026-04-26T11:34:54.526Z</time></trkpt><trkpt lat="43.0817267" lon="12.9570933"><ele>666.0</ele><time>2026-04-26T11:34:55.525Z</time></trkpt><trkpt lat="43.0818033" lon="12.9568367"><ele>666.0</ele><time>2026-04-26T11:34:56.525Z</time></trkpt><trkpt lat="43.081875" lon="12.956565"><ele>666.0</ele><time>2026-04-26T11:34:57.525Z</time></trkpt><trkpt lat="43.0819433" lon="12.9562933"><ele>663.6666666666666</ele><time>2026-04-26T11:34:58.526Z</time></trkpt><trkpt lat="43.082005" lon="12.9560567"><ele>661.3333333333333</ele><time>2026-04-26T11:34:59.525Z</time></trkpt><trkpt lat="43.0820633" lon="12.9558567"><ele>659.0</ele><time>2026-04-26T11:35:00.525Z</time></trkpt><trkpt lat="43.08214" lon="12.9556917"><ele>659.0</ele><time>2026-04-26T11:35:01.525Z</time></trkpt><trkpt lat="43.0822367" lon="12.9555483"><ele>659.0</ele><time>2026-04-26T11:35:02.525Z</time></trkpt><trkpt lat="43.0823533" lon="12.955445"><ele>659.0</ele><time>2026-04-26T11:35:03.526Z</time></trkpt><trkpt lat="43.0824867" lon="12.9553517"><ele>659.0</ele><time>2026-04-26T11:35:04.525Z</time></trkpt><trkpt lat="43.0826317" lon="12.9552433"><ele>662.0</ele><time>2026-04-26T11:35:05.525Z</time></trkpt><trkpt lat="43.0827867" lon="12.9551033"><ele>665.0</ele><time>2026-04-26T11:35:06.525Z</time></trkpt><trkpt lat="43.0829433" lon="12.95495"><ele>668.0</ele><time>2026-04-26T11:35:07.525Z</time></trkpt><trkpt lat="43.083105" lon="12.9548017"><ele>676.0</ele><time>2026-04-26T11:35:08.525Z</time></trkpt><trkpt lat="43.0832717" lon="12.9546367"><ele>684.0</ele><time>2026-04-26T11:35:09.525Z</time></trkpt><trkpt lat="43.083435" lon="12.9544717"><ele>692.0</ele><time>2026-04-26T11:35:10.525Z</time></trkpt><trkpt lat="43.08359" lon="12.954305"><ele>685.3333333333333</ele><time>2026-04-26T11:35:11.525Z</time></trkpt><trkpt lat="43.0837433" lon="12.9541383"><ele>678.6666666666666</ele><time>2026-04-26T11:35:12.525Z</time></trkpt><trkpt lat="43.08389" lon="12.9539783"><ele>672.0</ele><time>2026-04-26T11:35:13.525Z</time></trkpt><trkpt lat="43.0840383" lon="12.9538117"><ele>675.3333333333334</ele><time>2026-04-26T11:35:14.526Z</time></trkpt><trkpt lat="43.0841767" lon="12.95364"><ele>678.6666666666667</ele><time>2026-04-26T11:35:15.526Z</time></trkpt><trkpt lat="43.0843017" lon="12.9534433"><ele>682.0</ele><time>2026-04-26T11:35:16.525Z</time></trkpt><trkpt lat="43.0844233" lon="12.9532333"><ele>682.0</ele><time>2026-04-26T11:35:17.526Z</time></trkpt><trkpt lat="43.084525" lon="12.9530167"><ele>682.0</ele><time>2026-04-26T11:35:18.526Z</time></trkpt><trkpt lat="43.084615" lon="12.9528083"><ele>682.0</ele><time>2026-04-26T11:35:19.525Z</time></trkpt><trkpt lat="43.08468" lon="12.9525883"><ele>680.3333333333334</ele><time>2026-04-26T11:35:20.525Z</time></trkpt><trkpt lat="43.084735" lon="12.9523667"><ele>678.6666666666666</ele><time>2026-04-26T11:35:21.526Z</time></trkpt><trkpt lat="43.0847733" lon="12.9521467"><ele>677.0</ele><time>2026-04-26T11:35:22.526Z</time></trkpt><trkpt lat="43.0848067" lon="12.95195"><ele>677.0</ele><time>2026-04-26T11:35:23.525Z</time></trkpt><trkpt lat="43.0848433" lon="12.9517767"><ele>677.0</ele><time>2026-04-26T11:35:24.525Z</time></trkpt><trkpt lat="43.08489" lon="12.95161"><ele>677.0</ele><time>2026-04-26T11:35:25.525Z</time></trkpt><trkpt lat="43.0849667" lon="12.9514633"><ele>677.0</ele><time>2026-04-26T11:35:26.526Z</time></trkpt><trkpt lat="43.0850683" lon="12.951305"><ele>681.3333333333333</ele><time>2026-04-26T11:35:27.525Z</time></trkpt><trkpt lat="43.08518" lon="12.951145"><ele>685.6666666666666</ele><time>2026-04-26T11:35:28.525Z</time></trkpt><trkpt lat="43.0852933" lon="12.9509817"><ele>690.0</ele><time>2026-04-26T11:35:29.525Z</time></trkpt><trkpt lat="43.0854133" lon="12.9508017"><ele>690.0</ele><time>2026-04-26T11:35:30.525Z</time></trkpt><trkpt lat="43.085525" lon="12.9506"><ele>690.0</ele><time>2026-04-26T11:35:31.525Z</time></trkpt><trkpt lat="43.0856433" lon="12.9504"><ele>690.0</ele><time>2026-04-26T11:35:32.525Z</time></trkpt><trkpt lat="43.085755" lon="12.9502033"><ele>692.0</ele><time>2026-04-26T11:35:33.525Z</time></trkpt><trkpt lat="43.0858583" lon="12.9500133"><ele>694.0</ele><time>2026-04-26T11:35:34.526Z</time></trkpt><trkpt lat="43.0859733" lon="12.949835"><ele>696.0</ele><time>2026-04-26T11:35:35.525Z</time></trkpt><trkpt lat="43.0860967" lon="12.9496767"><ele>696.0</ele><time>2026-04-26T11:35:36.525Z</time></trkpt><trkpt lat="43.0862617" lon="12.9495333"><ele>696.0</ele><time>2026-04-26T11:35:37.526Z</time></trkpt><trkpt lat="43.0864117" lon="12.94936"><ele>696.0</ele><time>2026-04-26T11:35:38.525Z</time></trkpt><trkpt lat="43.0865533" lon="12.9491733"><ele>700.6666666666666</ele><time>2026-04-26T11:35:39.525Z</time></trkpt><trkpt lat="43.086695" lon="12.9489733"><ele>705.3333333333333</ele><time>2026-04-26T11:35:40.525Z</time></trkpt><trkpt lat="43.0868417" lon="12.9487833"><ele>710.0</ele><time>2026-04-26T11:35:41.526Z</time></trkpt><trkpt lat="43.0869883" lon="12.9485917"><ele>710.0</ele><time>2026-04-26T11:35:42.526Z</time></trkpt><trkpt lat="43.0871267" lon="12.9484117"><ele>710.0</ele><time>2026-04-26T11:35:43.525Z</time></trkpt><trkpt lat="43.087245" lon="12.948275"><ele>710.0</ele><time>2026-04-26T11:35:44.525Z</time></trkpt><trkpt lat="43.0873533" lon="12.9481517"><ele>713.25</ele><time>2026-04-26T11:35:45.525Z</time></trkpt><trkpt lat="43.0874833" lon="12.94808"><ele>716.5</ele><time>2026-04-26T11:35:46.525Z</time></trkpt><trkpt lat="43.08762" lon="12.9480267"><ele>719.75</ele><time>2026-04-26T11:35:47.525Z</time></trkpt><trkpt lat="43.08778" lon="12.9479767"><ele>723.0</ele><time>2026-04-26T11:35:48.525Z</time></trkpt><trkpt lat="43.0879533" lon="12.9479317"><ele>723.0</ele><time>2026-04-26T11:35:49.525Z</time></trkpt><trkpt lat="43.0881233" lon="12.9478617"><ele>723.0</ele><time>2026-04-26T11:35:50.525Z</time></trkpt><trkpt lat="43.08826" lon="12.94777"><ele>723.0</ele><time>2026-04-26T11:35:51.526Z</time></trkpt><trkpt lat="43.088405" lon="12.947695"><ele>729.75</ele><time>2026-04-26T11:35:52.525Z</time></trkpt><trkpt lat="43.0885533" lon="12.94765"><ele>736.5</ele><time>2026-04-26T11:35:53.525Z</time></trkpt><trkpt lat="43.0886817" lon="12.9476383"><ele>743.25</ele><time>2026-04-26T11:35:54.525Z</time></trkpt><trkpt lat="43.0888117" lon="12.9476533"><ele>750.0</ele><time>2026-04-26T11:35:55.525Z</time></trkpt><trkpt lat="43.0889517" lon="12.9477083"><ele>752.6666666666666</ele><time>2026-04-26T11:35:56.526Z</time></trkpt><trkpt lat="43.0891033" lon="12.9478117"><ele>755.3333333333333</ele><time>2026-04-26T11:35:57.526Z</time></trkpt><trkpt lat="43.089255" lon="12.9479467"><ele>758.0</ele><time>2026-04-26T11:35:58.525Z</time></trkpt><trkpt lat="43.0894167" lon="12.9480717"><ele>758.0</ele><time>2026-04-26T11:35:59.525Z</time></trkpt><trkpt lat="43.089585" lon="12.94819"><ele>758.0</ele><time>2026-04-26T11:36:00.526Z</time></trkpt><trkpt lat="43.0897383" lon="12.9483183"><ele>758.0</ele><time>2026-04-26T11:36:01.525Z</time></trkpt><trkpt lat="43.08988" lon="12.9484533"><ele>767.0</ele><time>2026-04-26T11:36:02.525Z</time></trkpt><trkpt lat="43.0900067" lon="12.9485867"><ele>776.0</ele><time>2026-04-26T11:36:03.525Z</time></trkpt><trkpt lat="43.0901367" lon="12.9486867"><ele>785.0</ele><time>2026-04-26T11:36:04.525Z</time></trkpt><trkpt lat="43.090275" lon="12.9487583"><ele>785.0</ele><time>2026-04-26T11:36:05.525Z</time></trkpt><trkpt lat="43.0904433" lon="12.9487983"><ele>785.0</ele><time>2026-04-26T11:36:06.526Z</time></trkpt><trkpt lat="43.0906017" lon="12.9488167"><ele>785.0</ele><time>2026-04-26T11:36:07.525Z</time></trkpt><trkpt lat="43.0908183" lon="12.9488083"><ele>781.0</ele><time>2026-04-26T11:36:08.525Z</time></trkpt><trkpt lat="43.0910417" lon="12.9487917"><ele>777.0</ele><time>2026-04-26T11:36:09.526Z</time></trkpt><trkpt lat="43.0912633" lon="12.9487967"><ele>773.0</ele><time>2026-04-26T11:36:10.525Z</time></trkpt><trkpt lat="43.0914867" lon="12.9488217"><ele>771.6666666666667</ele><time>2026-04-26T11:36:11.526Z</time></trkpt><trkpt lat="43.0916967" lon="12.9488583"><ele>770.3333333333333</ele><time>2026-04-26T11:36:12.525Z</time></trkpt><trkpt lat="43.0919" lon="12.948905"><ele>769.0</ele><time>2026-04-26T11:36:13.525Z</time></trkpt><trkpt lat="43.0921033" lon="12.948965"><ele>769.0</ele><time>2026-04-26T11:36:14.525Z</time></trkpt><trkpt lat="43.0922983" lon="12.9490367"><ele>769.0</ele><time>2026-04-26T11:36:15.525Z</time></trkpt><trkpt lat="43.0924983" lon="12.9491033"><ele>769.0</ele><time>2026-04-26T11:36:16.525Z</time></trkpt><trkpt lat="43.092705" lon="12.94917"><ele>775.0</ele><time>2026-04-26T11:36:17.525Z</time></trkpt><trkpt lat="43.0929167" lon="12.9492217"><ele>781.0</ele><time>2026-04-26T11:36:18.525Z</time></trkpt><trkpt lat="43.0931317" lon="12.94927"><ele>787.0</ele><time>2026-04-26T11:36:19.525Z</time></trkpt><trkpt lat="43.093345" lon="12.94932"><ele>787.0</ele><time>2026-04-26T11:36:20.525Z</time></trkpt><trkpt lat="43.09355" lon="12.949365"><ele>787.0</ele><time>2026-04-26T11:36:21.526Z</time></trkpt><trkpt lat="43.0937533" lon="12.949415"><ele>787.0</ele><time>2026-04-26T11:36:22.525Z</time></trkpt><trkpt lat="43.0939583" lon="12.9494583"><ele>784.3333333333333</ele><time>2026-04-26T11:36:23.526Z</time></trkpt><trkpt lat="43.0941633" lon="12.9494733"><ele>781.6666666666667</ele><time>2026-04-26T11:36:24.525Z</time></trkpt><trkpt lat="43.0943517" lon="12.94949"><ele>779.0</ele><time>2026-04-26T11:36:25.525Z</time></trkpt><trkpt lat="43.0945267" lon="12.9494833"><ele>779.0</ele><time>2026-04-26T11:36:26.526Z</time></trkpt><trkpt lat="43.0946867" lon="12.949485"><ele>779.0</ele><time>2026-04-26T11:36:27.526Z</time></trkpt><trkpt lat="43.0948317" lon="12.9494933"><ele>779.0</ele><time>2026-04-26T11:36:28.525Z</time></trkpt><trkpt lat="43.0949683" lon="12.9495233"><ele>779.0</ele><time>2026-04-26T11:36:29.525Z</time></trkpt><trkpt lat="43.0951117" lon="12.9495733"><ele>782.0</ele><time>2026-04-26T11:36:30.525Z</time></trkpt><trkpt lat="43.0952617" lon="12.9496317"><ele>785.0</ele><time>2026-04-26T11:36:31.525Z</time></trkpt><trkpt lat="43.0954167" lon="12.9496983"><ele>788.0</ele><time>2026-04-26T11:36:32.525Z</time></trkpt><trkpt lat="43.0955783" lon="12.9497683"><ele>788.0</ele><time>2026-04-26T11:36:33.525Z</time></trkpt><trkpt lat="43.095735" lon="12.9498433"><ele>788.0</ele><time>2026-04-26T11:36:34.526Z</time></trkpt><trkpt lat="43.0958883" lon="12.949935"><ele>788.0</ele><time>2026-04-26T11:36:35.526Z</time></trkpt><trkpt lat="43.0960167" lon="12.9500117"><ele>787.75</ele><time>2026-04-26T11:36:36.525Z</time></trkpt><trkpt lat="43.0961367" lon="12.9500683"><ele>787.5</ele><time>2026-04-26T11:36:37.526Z</time></trkpt><trkpt lat="43.0962583" lon="12.9500767"><ele>787.25</ele><time>2026-04-26T11:36:38.525Z</time></trkpt><trkpt lat="43.0963933" lon="12.9500367"><ele>787.0</ele><time>2026-04-26T11:36:39.525Z</time></trkpt><trkpt lat="43.0965467" lon="12.9499683"><ele>786.5</ele><time>2026-04-26T11:36:40.525Z</time></trkpt><trkpt lat="43.0967033" lon="12.9499017"><ele>786.0</ele><time>2026-04-26T11:36:41.525Z</time></trkpt><trkpt lat="43.096835" lon="12.9498667"><ele>785.5</ele><time>2026-04-26T11:36:42.525Z</time></trkpt><trkpt lat="43.0969533" lon="12.9498617"><ele>785.0</ele><time>2026-04-26T11:36:43.525Z</time></trkpt><trkpt lat="43.0970733" lon="12.9499033"><ele>785.0</ele><time>2026-04-26T11:36:44.526Z</time></trkpt><trkpt lat="43.0972017" lon="12.9499583"><ele>785.0</ele><time>2026-04-26T11:36:45.525Z</time></trkpt><trkpt lat="43.09733" lon="12.950015"><ele>785.0</ele><time>2026-04-26T11:36:46.526Z</time></trkpt><trkpt lat="43.09746" lon="12.9500867"><ele>785.0</ele><time>2026-04-26T11:36:47.525Z</time></trkpt><trkpt lat="43.0975967" lon="12.9501933"><ele>787.3333333333334</ele><time>2026-04-26T11:36:48.525Z</time></trkpt><trkpt lat="43.0977467" lon="12.95033"><ele>789.6666666666667</ele><time>2026-04-26T11:36:49.525Z</time></trkpt><trkpt lat="43.0978917" lon="12.9504767"><ele>792.0</ele><time>2026-04-26T11:36:50.525Z</time></trkpt><trkpt lat="43.0980483" lon="12.9506317"><ele>792.0</ele><time>2026-04-26T11:36:51.525Z</time></trkpt><trkpt lat="43.098195" lon="12.9507783"><ele>792.0</ele><time>2026-04-26T11:36:52.525Z</time></trkpt><trkpt lat="43.0983267" lon="12.95091"><ele>792.0</ele><time>2026-04-26T11:36:53.525Z</time></trkpt><trkpt lat="43.0984417" lon="12.9510417"><ele>793.0</ele><time>2026-04-26T11:36:54.525Z</time></trkpt><trkpt lat="43.0985383" lon="12.951205"><ele>794.0</ele><time>2026-04-26T11:36:55.525Z</time></trkpt><trkpt lat="43.0986167" lon="12.95141"><ele>795.0</ele><time>2026-04-26T11:36:56.525Z</time></trkpt><trkpt lat="43.098685" lon="12.9516367"><ele>797.0</ele><time>2026-04-26T11:36:57.526Z</time></trkpt><trkpt lat="43.09875" lon="12.9518817"><ele>799.0</ele><time>2026-04-26T11:36:58.526Z</time></trkpt><trkpt lat="43.0988067" lon="12.9521467"><ele>801.0</ele><time>2026-04-26T11:36:59.525Z</time></trkpt><trkpt lat="43.0988683" lon="12.9524217"><ele>803.6666666666667</ele><time>2026-04-26T11:37:00.525Z</time></trkpt><trkpt lat="43.0989383" lon="12.952695"><ele>806.3333333333334</ele><time>2026-04-26T11:37:01.525Z</time></trkpt><trkpt lat="43.099015" lon="12.9529683"><ele>809.0</ele><time>2026-04-26T11:37:02.525Z</time></trkpt><trkpt lat="43.099105" lon="12.9532367"><ele>812.5</ele><time>2026-04-26T11:37:03.525Z</time></trkpt><trkpt lat="43.0992033" lon="12.9535117"><ele>816.0</ele><time>2026-04-26T11:37:04.525Z</time></trkpt><trkpt lat="43.0993133" lon="12.953785"><ele>816.0</ele><time>2026-04-26T11:37:05.525Z</time></trkpt><trkpt lat="43.099415" lon="12.9540567"><ele>816.0</ele><time>2026-04-26T11:37:06.525Z</time></trkpt><trkpt lat="43.0995133" lon="12.9543183"><ele>816.0</ele><time>2026-04-26T11:37:07.525Z</time></trkpt><trkpt lat="43.0996133" lon="12.954575"><ele>820.0</ele><time>2026-04-26T11:37:08.525Z</time></trkpt><trkpt lat="43.0997117" lon="12.9548283"><ele>824.0</ele><time>2026-04-26T11:37:09.526Z</time></trkpt><trkpt lat="43.09981" lon="12.9550633"><ele>828.0</ele><time>2026-04-26T11:37:10.525Z</time></trkpt><trkpt lat="43.099895" lon="12.9552833"><ele>830.3333333333333</ele><time>2026-04-26T11:37:11.525Z</time></trkpt><trkpt lat="43.099995" lon="12.955485"><ele>832.6666666666666</ele><time>2026-04-26T11:37:12.525Z</time></trkpt><trkpt lat="43.10009" lon="12.9556583"><ele>835.0</ele><time>2026-04-26T11:37:13.526Z</time></trkpt><trkpt lat="43.1001783" lon="12.955805"><ele>840.4</ele><time>2026-04-26T11:37:14.525Z</time></trkpt><trkpt lat="43.1002633" lon="12.95593"><ele>845.8</ele><time>2026-04-26T11:37:15.525Z</time></trkpt><trkpt lat="43.1003267" lon="12.9560383"><ele>851.2</ele><time>2026-04-26T11:37:16.525Z</time></trkpt><trkpt lat="43.1003617" lon="12.9561383"><ele>856.6</ele><time>2026-04-26T11:37:17.526Z</time></trkpt><trkpt lat="43.100365" lon="12.9562317"><ele>862.0</ele><time>2026-04-26T11:37:18.525Z</time></trkpt><trkpt lat="43.1002983" lon="12.9563717"><ele>862.0</ele><time>2026-04-26T11:37:20.525Z</time></trkpt><trkpt lat="43.1002167" lon="12.95641"><ele>862.0</ele><time>2026-04-26T11:37:21.525Z</time></trkpt><trkpt lat="43.1001033" lon="12.9564117"><ele>862.0</ele><time>2026-04-26T11:37:22.525Z</time></trkpt><trkpt lat="43.0999417" lon="12.9563783"><ele>862.0</ele><time>2026-04-26T11:37:23.525Z</time></trkpt><trkpt lat="43.0997367" lon="12.9562983"><ele>866.6666666666666</ele><time>2026-04-26T11:37:24.525Z</time></trkpt><trkpt lat="43.09953" lon="12.9562033"><ele>871.3333333333333</ele><time>2026-04-26T11:37:25.525Z</time></trkpt><trkpt lat="43.0993167" lon="12.9561067"><ele>876.0</ele><time>2026-04-26T11:37:26.526Z</time></trkpt><trkpt lat="43.0991083" lon="12.95601"><ele>879.3333333333333</ele><time>2026-04-26T11:37:27.525Z</time></trkpt><trkpt lat="43.098905" lon="12.9559317"><ele>882.6666666666666</ele><time>2026-04-26T11:37:28.525Z</time></trkpt><trkpt lat="43.0987033" lon="12.95587"><ele>886.0</ele><time>2026-04-26T11:37:29.525Z</time></trkpt><trkpt lat="43.0984983" lon="12.95582"><ele>880.3333333333333</ele><time>2026-04-26T11:37:30.525Z</time></trkpt><trkpt lat="43.0982983" lon="12.9557667"><ele>874.6666666666667</ele><time>2026-04-26T11:37:31.525Z</time></trkpt><trkpt lat="43.09811" lon="12.95573"><ele>869.0</ele><time>2026-04-26T11:37:32.525Z</time></trkpt><trkpt lat="43.0979267" lon="12.9557217"><ele>869.0</ele><time>2026-04-26T11:37:33.525Z</time></trkpt><trkpt lat="43.0977517" lon="12.9557383"><ele>869.0</ele><time>2026-04-26T11:37:34.525Z</time></trkpt><trkpt lat="43.0975717" lon="12.9557717"><ele>869.0</ele><time>2026-04-26T11:37:35.525Z</time></trkpt><trkpt lat="43.0973917" lon="12.9558083"><ele>871.0</ele><time>2026-04-26T11:37:36.526Z</time></trkpt><trkpt lat="43.0972083" lon="12.9558567"><ele>873.0</ele><time>2026-04-26T11:37:37.525Z</time></trkpt><trkpt lat="43.0970233" lon="12.9559017"><ele>875.0</ele><time>2026-04-26T11:37:38.525Z</time></trkpt><trkpt lat="43.0968267" lon="12.9559317"><ele>882.6666666666667</ele><time>2026-04-26T11:37:39.525Z</time></trkpt><trkpt lat="43.09663" lon="12.9559567"><ele>890.3333333333333</ele><time>2026-04-26T11:37:40.525Z</time></trkpt><trkpt lat="43.09643" lon="12.955975"><ele>898.0</ele><time>2026-04-26T11:37:41.525Z</time></trkpt><trkpt lat="43.09622" lon="12.95599"><ele>898.3333333333333</ele><time>2026-04-26T11:37:42.525Z</time></trkpt><trkpt lat="43.0960067" lon="12.95598"><ele>898.6666666666667</ele><time>2026-04-26T11:37:43.525Z</time></trkpt><trkpt lat="43.0958017" lon="12.955965"><ele>899.0</ele><time>2026-04-26T11:37:44.525Z</time></trkpt><trkpt lat="43.0956133" lon="12.9559433"><ele>898.0</ele><time>2026-04-26T11:37:45.526Z</time></trkpt><trkpt lat="43.095445" lon="12.95593"><ele>897.0</ele><time>2026-04-26T11:37:46.525Z</time></trkpt><trkpt lat="43.0953" lon="12.955925"><ele>896.0</ele><time>2026-04-26T11:37:47.526Z</time></trkpt><trkpt lat="43.0951733" lon="12.9559317"><ele>895.0</ele><time>2026-04-26T11:37:48.525Z</time></trkpt><trkpt lat="43.095075" lon="12.9559417"><ele>895.0</ele><time>2026-04-26T11:37:49.525Z</time></trkpt><trkpt lat="43.095005" lon="12.955995"><ele>895.0</ele><time>2026-04-26T11:37:50.526Z</time></trkpt><trkpt lat="43.094945" lon="12.9560767"><ele>895.0</ele><time>2026-04-26T11:37:51.525Z</time></trkpt><trkpt lat="43.094895" lon="12.9561867"><ele>895.0</ele><time>2026-04-26T11:37:52.525Z</time></trkpt><trkpt lat="43.094855" lon="12.956345"><ele>895.0</ele><time>2026-04-26T11:37:53.525Z</time></trkpt><trkpt lat="43.0948167" lon="12.9565567"><ele>897.6666666666666</ele><time>2026-04-26T11:37:54.525Z</time></trkpt><trkpt lat="43.09477" lon="12.9568033"><ele>900.3333333333333</ele><time>2026-04-26T11:37:55.525Z</time></trkpt><trkpt lat="43.09472" lon="12.9570317"><ele>903.0</ele><time>2026-04-26T11:37:56.525Z</time></trkpt><trkpt lat="43.0946633" lon="12.957225"><ele>903.0</ele><time>2026-04-26T11:37:57.525Z</time></trkpt><trkpt lat="43.0946033" lon="12.9573783"><ele>903.0</ele><time>2026-04-26T11:37:58.525Z</time></trkpt><trkpt lat="43.0945417" lon="12.957495"><ele>903.0</ele><time>2026-04-26T11:37:59.525Z</time></trkpt><trkpt lat="43.0945017" lon="12.9575883"><ele>903.0</ele><time>2026-04-26T11:38:00.525Z</time></trkpt><trkpt lat="43.0945017" lon="12.9577283"><ele>903.0</ele><time>2026-04-26T11:38:02.525Z</time></trkpt><trkpt lat="43.09457" lon="12.95774"><ele>903.0</ele><time>2026-04-26T11:38:03.526Z</time></trkpt><trkpt lat="43.0946517" lon="12.9576933"><ele>903.0</ele><time>2026-04-26T11:38:04.525Z</time></trkpt><trkpt lat="43.0947333" lon="12.9575833"><ele>903.0</ele><time>2026-04-26T11:38:05.525Z</time></trkpt><trkpt lat="43.094825" lon="12.9574217"><ele>903.0</ele><time>2026-04-26T11:38:06.525Z</time></trkpt><trkpt lat="43.09492" lon="12.9572417"><ele>905.5</ele><time>2026-04-26T11:38:07.525Z</time></trkpt><trkpt lat="43.095005" lon="12.95709"><ele>908.0</ele><time>2026-04-26T11:38:08.525Z</time></trkpt><trkpt lat="43.0950933" lon="12.9569883"><ele>910.5</ele><time>2026-04-26T11:38:09.525Z</time></trkpt><trkpt lat="43.0951883" lon="12.95694"><ele>913.0</ele><time>2026-04-26T11:38:10.525Z</time></trkpt><trkpt lat="43.095295" lon="12.95693"><ele>913.0</ele><time>2026-04-26T11:38:11.526Z</time></trkpt><trkpt lat="43.0954267" lon="12.9569667"><ele>913.0</ele><time>2026-04-26T11:38:12.525Z</time></trkpt><trkpt lat="43.095575" lon="12.9570383"><ele>913.0</ele><time>2026-04-26T11:38:13.525Z</time></trkpt><trkpt lat="43.0957567" lon="12.95716"><ele>916.3333333333333</ele><time>2026-04-26T11:38:14.526Z</time></trkpt><trkpt lat="43.09595" lon="12.95729"><ele>919.6666666666667</ele><time>2026-04-26T11:38:15.526Z</time></trkpt><trkpt lat="43.0961467" lon="12.95742"><ele>923.0</ele><time>2026-04-26T11:38:16.525Z</time></trkpt><trkpt lat="43.0963417" lon="12.957525"><ele>933.3333333333334</ele><time>2026-04-26T11:38:17.526Z</time></trkpt><trkpt lat="43.096525" lon="12.957615"><ele>943.6666666666667</ele><time>2026-04-26T11:38:18.525Z</time></trkpt><trkpt lat="43.09668" lon="12.9576933"><ele>954.0</ele><time>2026-04-26T11:38:19.525Z</time></trkpt><trkpt lat="43.096805" lon="12.9577833"><ele>954.0</ele><time>2026-04-26T11:38:20.525Z</time></trkpt><trkpt lat="43.09691" lon="12.9578733"><ele>954.0000000000001</ele><time>2026-04-26T11:38:21.525Z</time></trkpt><trkpt lat="43.0969917" lon="12.957945"><ele>954.0000000000001</ele><time>2026-04-26T11:38:22.525Z</time></trkpt><trkpt lat="43.0970783" lon="12.9579817"><ele>954.0</ele><time>2026-04-26T11:38:23.526Z</time></trkpt><trkpt lat="43.097185" lon="12.9579833"><ele>954.0</ele><time>2026-04-26T11:38:24.526Z</time></trkpt><trkpt lat="43.09731" lon="12.95795"><ele>953.5</ele><time>2026-04-26T11:38:25.525Z</time></trkpt><trkpt lat="43.097445" lon="12.957895"><ele>953.0</ele><time>2026-04-26T11:38:26.526Z</time></trkpt><trkpt lat="43.09758" lon="12.9578667"><ele>952.5</ele><time>2026-04-26T11:38:27.525Z</time></trkpt><trkpt lat="43.0977167" lon="12.9578467"><ele>952.0</ele><time>2026-04-26T11:38:28.525Z</time></trkpt><trkpt lat="43.09786" lon="12.9578517"><ele>952.0</ele><time>2026-04-26T11:38:29.525Z</time></trkpt><trkpt lat="43.0980017" lon="12.9578783"><ele>952.0</ele><time>2026-04-26T11:38:30.526Z</time></trkpt><trkpt lat="43.098155" lon="12.9579183"><ele>952.0</ele><time>2026-04-26T11:38:31.526Z</time></trkpt><trkpt lat="43.0983217" lon="12.9579783"><ele>954.0</ele><time>2026-04-26T11:38:32.525Z</time></trkpt><trkpt lat="43.0984983" lon="12.958045"><ele>956.0</ele><time>2026-04-26T11:38:33.525Z</time></trkpt><trkpt lat="43.0986917" lon="12.95813"><ele>958.0</ele><time>2026-04-26T11:38:34.525Z</time></trkpt><trkpt lat="43.0988983" lon="12.95822"><ele>958.0</ele><time>2026-04-26T11:38:35.526Z</time></trkpt><trkpt lat="43.0991117" lon="12.95831"><ele>958.0</ele><time>2026-04-26T11:38:36.525Z</time></trkpt><trkpt lat="43.0993233" lon="12.9584167"><ele>958.0</ele><time>2026-04-26T11:38:37.525Z</time></trkpt><trkpt lat="43.0995483" lon="12.9585183"><ele>971.5</ele><time>2026-04-26T11:38:38.526Z</time></trkpt><trkpt lat="43.0997767" lon="12.9586233"><ele>985.0</ele><time>2026-04-26T11:38:39.526Z</time></trkpt><trkpt lat="43.1000083" lon="12.9587167"><ele>985.0</ele><time>2026-04-26T11:38:40.525Z</time></trkpt><trkpt lat="43.100235" lon="12.958815"><ele>985.0</ele><time>2026-04-26T11:38:41.526Z</time></trkpt><trkpt lat="43.100455" lon="12.9589167"><ele>985.0</ele><time>2026-04-26T11:38:42.525Z</time></trkpt><trkpt lat="43.100665" lon="12.9590317"><ele>985.0</ele><time>2026-04-26T11:38:43.525Z</time></trkpt><trkpt lat="43.1008783" lon="12.9591533"><ele>995.5</ele><time>2026-04-26T11:38:44.526Z</time></trkpt><trkpt lat="43.1010983" lon="12.9592733"><ele>1006.0</ele><time>2026-04-26T11:38:45.525Z</time></trkpt><trkpt lat="43.1013033" lon="12.9594017"><ele>1006.0</ele><time>2026-04-26T11:38:46.525Z</time></trkpt><trkpt lat="43.1015183" lon="12.9595217"><ele>1006.0</ele><time>2026-04-26T11:38:47.526Z</time></trkpt><trkpt lat="43.101735" lon="12.9596267"><ele>1002.6666666666666</ele><time>2026-04-26T11:38:48.525Z</time></trkpt><trkpt lat="43.1019533" lon="12.9597167"><ele>999.3333333333333</ele><time>2026-04-26T11:38:49.525Z</time></trkpt><trkpt lat="43.1021667" lon="12.9597867"><ele>996.0</ele><time>2026-04-26T11:38:50.525Z</time></trkpt><trkpt lat="43.102365" lon="12.9598617"><ele>995.3333333333333</ele><time>2026-04-26T11:38:51.525Z</time></trkpt><trkpt lat="43.102535" lon="12.95993"><ele>994.6666666666666</ele><time>2026-04-26T11:38:52.525Z</time></trkpt><trkpt lat="43.1026883" lon="12.9600033"><ele>994.0</ele><time>2026-04-26T11:38:53.526Z</time></trkpt><trkpt lat="43.1028333" lon="12.960095"><ele>1000.3333333333333</ele><time>2026-04-26T11:38:54.525Z</time></trkpt><trkpt lat="43.10298" lon="12.9602"><ele>1006.6666666666667</ele><time>2026-04-26T11:38:55.525Z</time></trkpt><trkpt lat="43.1031317" lon="12.9603333"><ele>1013.0</ele><time>2026-04-26T11:38:56.526Z</time></trkpt><trkpt lat="43.1032833" lon="12.96047"><ele>1013.0</ele><time>2026-04-26T11:38:57.525Z</time></trkpt><trkpt lat="43.10343" lon="12.9606067"><ele>1013.0</ele><time>2026-04-26T11:38:58.525Z</time></trkpt><trkpt lat="43.1035617" lon="12.9607383"><ele>1013.0</ele><time>2026-04-26T11:38:59.525Z</time></trkpt><trkpt lat="43.10369" lon="12.9608483"><ele>1015.0</ele><time>2026-04-26T11:39:00.524Z</time></trkpt><trkpt lat="43.1038167" lon="12.9609183"><ele>1017.0</ele><time>2026-04-26T11:39:01.524Z</time></trkpt><trkpt lat="43.1039483" lon="12.9609517"><ele>1019.0</ele><time>2026-04-26T11:39:02.524Z</time></trkpt><trkpt lat="43.104065" lon="12.9609817"><ele>1021.0</ele><time>2026-04-26T11:39:03.524Z</time></trkpt><trkpt lat="43.1041567" lon="12.9610233"><ele>1021.0</ele><time>2026-04-26T11:39:04.524Z</time></trkpt><trkpt lat="43.104225" lon="12.9610867"><ele>1020.9999999999999</ele><time>2026-04-26T11:39:05.524Z</time></trkpt><trkpt lat="43.10428" lon="12.9611833"><ele>1020.9999999999999</ele><time>2026-04-26T11:39:06.525Z</time></trkpt><trkpt lat="43.1043283" lon="12.9613"><ele>1021.0</ele><time>2026-04-26T11:39:07.524Z</time></trkpt><trkpt lat="43.1043733" lon="12.961435"><ele>1021.0</ele><time>2026-04-26T11:39:08.524Z</time></trkpt><trkpt lat="43.1044333" lon="12.9615533"><ele>1020.9999999999999</ele><time>2026-04-26T11:39:09.524Z</time></trkpt><trkpt lat="43.1044917" lon="12.961655"><ele>1021.0</ele><time>2026-04-26T11:39:10.524Z</time></trkpt><trkpt lat="43.1045467" lon="12.9617467"><ele>1021.0</ele><time>2026-04-26T11:39:11.524Z</time></trkpt><trkpt lat="43.1045967" lon="12.96183"><ele>1021.0</ele><time>2026-04-26T11:39:12.525Z</time></trkpt><trkpt lat="43.104645" lon="12.9619133"><ele>1020.9999999999999</ele><time>2026-04-26T11:39:13.524Z</time></trkpt><trkpt lat="43.1046733" lon="12.9619967"><ele>1021.0</ele><time>2026-04-26T11:39:14.525Z</time></trkpt><trkpt lat="43.104695" lon="12.9621383"><ele>1020.9999999999999</ele><time>2026-04-26T11:39:16.524Z</time></trkpt><trkpt lat="43.1046833" lon="12.9622283"><ele>1021.0</ele><time>2026-04-26T11:39:18.524Z</time></trkpt><trkpt lat="43.1047133" lon="12.9623617"><ele>1021.0</ele><time>2026-04-26T11:39:51.524Z</time></trkpt><trkpt lat="43.10476" lon="12.9624433"><ele>1021.0</ele><time>2026-04-26T11:39:53.524Z</time></trkpt><trkpt lat="43.1048417" lon="12.9624567"><ele>1020.9999999999999</ele><time>2026-04-26T11:39:55.524Z</time></trkpt><trkpt lat="43.10493" lon="12.9624133"><ele>1021.0</ele><time>2026-04-26T11:39:57.525Z</time></trkpt><trkpt lat="43.1050017" lon="12.962365"><ele>1021.0</ele><time>2026-04-26T11:39:59.524Z</time></trkpt><trkpt lat="43.1051117" lon="12.9623167"><ele>1020.9999999999999</ele><time>2026-04-26T11:40:01.524Z</time></trkpt><trkpt lat="43.1051983" lon="12.962225"><ele>1020.9999999999999</ele><time>2026-04-26T11:40:03.524Z</time></trkpt><trkpt lat="43.1052067" lon="12.9621067"><ele>1021.0</ele><time>2026-04-26T11:40:05.524Z</time></trkpt><trkpt lat="43.105155" lon="12.961955"><ele>1021.0</ele><time>2026-04-26T11:40:07.524Z</time></trkpt><trkpt lat="43.1051317" lon="12.9618717"><ele>1021.0</ele><time>2026-04-26T11:40:08.524Z</time></trkpt><trkpt lat="43.1050817" lon="12.9617183"><ele>1020.9999999999999</ele><time>2026-04-26T11:40:10.524Z</time></trkpt><trkpt lat="43.1050383" lon="12.96157"><ele>1020.9999999999999</ele><time>2026-04-26T11:40:12.524Z</time></trkpt><trkpt lat="43.1050167" lon="12.9614783"><ele>1021.0</ele><time>2026-04-26T11:40:13.524Z</time></trkpt><trkpt lat="43.1049933" lon="12.9613717"><ele>1021.0</ele><time>2026-04-26T11:40:14.525Z</time></trkpt><trkpt lat="43.10498" lon="12.961255"><ele>1021.6666666666666</ele><time>2026-04-26T11:40:15.524Z</time></trkpt><trkpt lat="43.10496" lon="12.9611367"><ele>1022.3333333333333</ele><time>2026-04-26T11:40:16.525Z</time></trkpt><trkpt lat="43.1049433" lon="12.961025"><ele>1023.0</ele><time>2026-04-26T11:40:17.524Z</time></trkpt><trkpt lat="43.1049283" lon="12.9609217"><ele>1023.6666666666667</ele><time>2026-04-26T11:40:18.524Z</time></trkpt><trkpt lat="43.104905" lon="12.9608183"><ele>1024.3333333333335</ele><time>2026-04-26T11:40:19.524Z</time></trkpt><trkpt lat="43.1048717" lon="12.96072"><ele>1025.0</ele><time>2026-04-26T11:40:20.524Z</time></trkpt><trkpt lat="43.1048183" lon="12.9605833"><ele>1021.8333333333334</ele><time>2026-04-26T11:40:22.525Z</time></trkpt><trkpt lat="43.1047817" lon="12.9604283"><ele>1018.6666666666667</ele><time>2026-04-26T11:40:24.524Z</time></trkpt><trkpt lat="43.1047617" lon="12.9603383"><ele>1015.5</ele><time>2026-04-26T11:40:25.524Z</time></trkpt><trkpt lat="43.1047467" lon="12.9602333"><ele>1012.3333333333333</ele><time>2026-04-26T11:40:26.525Z</time></trkpt><trkpt lat="43.10473" lon="12.9601333"><ele>1009.1666666666666</ele><time>2026-04-26T11:40:27.524Z</time></trkpt><trkpt lat="43.104705" lon="12.96005"><ele>1006.0</ele><time>2026-04-26T11:40:28.524Z</time></trkpt><trkpt lat="43.1046683" lon="12.95996"><ele>1005.8333333333333</ele><time>2026-04-26T11:40:29.524Z</time></trkpt><trkpt lat="43.104615" lon="12.959885"><ele>1005.6666666666666</ele><time>2026-04-26T11:40:30.524Z</time></trkpt><trkpt lat="43.1045717" lon="12.9597983"><ele>1005.5</ele><time>2026-04-26T11:40:31.524Z</time></trkpt><trkpt lat="43.1045283" lon="12.9597133"><ele>1005.3333333333333</ele><time>2026-04-26T11:40:32.524Z</time></trkpt><trkpt lat="43.1044967" lon="12.9596183"><ele>1005.1666666666666</ele><time>2026-04-26T11:40:33.524Z</time></trkpt><trkpt lat="43.1044733" lon="12.9595017"><ele>1005.0</ele><time>2026-04-26T11:40:34.524Z</time></trkpt><trkpt lat="43.104455" lon="12.9593767"><ele>1005.0</ele><time>2026-04-26T11:40:35.524Z</time></trkpt><trkpt lat="43.1044433" lon="12.9592567"><ele>1005.0</ele><time>2026-04-26T11:40:36.524Z</time></trkpt><trkpt lat="43.104425" lon="12.959135"><ele>1005.0</ele><time>2026-04-26T11:40:37.524Z</time></trkpt><trkpt lat="43.104405" lon="12.9590167"><ele>1005.0</ele><time>2026-04-26T11:40:38.524Z</time></trkpt><trkpt lat="43.10438" lon="12.9589067"><ele>1005.0</ele><time>2026-04-26T11:40:39.524Z</time></trkpt><trkpt lat="43.1043567" lon="12.9588017"><ele>1005.0</ele><time>2026-04-26T11:40:40.524Z</time></trkpt><trkpt lat="43.1043433" lon="12.958715"><ele>1006.2857142857144</ele><time>2026-04-26T11:40:41.524Z</time></trkpt><trkpt lat="43.1043196" lon="12.9585522"><ele>1007.5714285714287</ele><time>2026-04-26T11:40:43.524Z</time></trkpt><trkpt lat="43.1043148" lon="12.958465"><ele>1008.8571428571429</ele><time>2026-04-26T11:40:44.524Z</time></trkpt><trkpt lat="43.1043106" lon="12.9583741"><ele>1010.1428571428572</ele><time>2026-04-26T11:40:45.524Z</time></trkpt><trkpt lat="43.1043087" lon="12.9582843"><ele>1011.4285714285716</ele><time>2026-04-26T11:40:46.524Z</time></trkpt><trkpt lat="43.1043048" lon="12.9581935"><ele>1012.7142857142857</ele><time>2026-04-26T11:40:47.524Z</time></trkpt><trkpt lat="43.1043053" lon="12.9581062"><ele>1014.0</ele><time>2026-04-26T11:40:48.524Z</time></trkpt><trkpt lat="43.1043136" lon="12.9580152"><ele>1015.6666666666666</ele><time>2026-04-26T11:40:49.524Z</time></trkpt><trkpt lat="43.1043301" lon="12.957914"><ele>1017.3333333333333</ele><time>2026-04-26T11:40:50.524Z</time></trkpt><trkpt lat="43.1043528" lon="12.9578098"><ele>1019.0</ele><time>2026-04-26T11:40:51.524Z</time></trkpt><trkpt lat="43.1043777" lon="12.957702"><ele>1020.6666666666666</ele><time>2026-04-26T11:40:52.524Z</time></trkpt><trkpt lat="43.1043921" lon="12.9575875"><ele>1022.3333333333333</ele><time>2026-04-26T11:40:53.524Z</time></trkpt><trkpt lat="43.1043994" lon="12.9574737"><ele>1024.0</ele><time>2026-04-26T11:40:54.524Z</time></trkpt><trkpt lat="43.1043991" lon="12.9573654"><ele>1025.0</ele><time>2026-04-26T11:40:55.524Z</time></trkpt><trkpt lat="43.1043888" lon="12.9572655"><ele>1026.0</ele><time>2026-04-26T11:40:56.524Z</time></trkpt><trkpt lat="43.1043662" lon="12.9571705"><ele>1027.0</ele><time>2026-04-26T11:40:57.524Z</time></trkpt><trkpt lat="43.1043387" lon="12.9570837"><ele>1028.0</ele><time>2026-04-26T11:40:58.524Z</time></trkpt><trkpt lat="43.1043114" lon="12.9569922"><ele>1029.0</ele><time>2026-04-26T11:40:59.525Z</time></trkpt><trkpt lat="43.104279" lon="12.9568892"><ele>1030.0</ele><time>2026-04-26T11:41:00.524Z</time></trkpt><trkpt lat="43.104248" lon="12.9567798"><ele>1031.3333333333333</ele><time>2026-04-26T11:41:01.524Z</time></trkpt><trkpt lat="43.1042287" lon="12.9566812"><ele>1032.6666666666665</ele><time>2026-04-26T11:41:02.524Z</time></trkpt><trkpt lat="43.1042274" lon="12.9565795"><ele>1034.0</ele><time>2026-04-26T11:41:03.525Z</time></trkpt><trkpt lat="43.1042357" lon="12.9564656"><ele>1035.3333333333333</ele><time>2026-04-26T11:41:04.524Z</time></trkpt><trkpt lat="43.1042536" lon="12.9563359"><ele>1036.6666666666667</ele><time>2026-04-26T11:41:05.524Z</time></trkpt><trkpt lat="43.1042663" lon="12.9562078"><ele>1038.0</ele><time>2026-04-26T11:41:06.524Z</time></trkpt><trkpt lat="43.1042728" lon="12.9560897"><ele>1038.0</ele><time>2026-04-26T11:41:07.525Z</time></trkpt><trkpt lat="43.1042669" lon="12.955985"><ele>1038.0</ele><time>2026-04-26T11:41:08.524Z</time></trkpt><trkpt lat="43.1042536" lon="12.9558844"><ele>1038.0</ele><time>2026-04-26T11:41:09.524Z</time></trkpt><trkpt lat="43.1042323" lon="12.955798"><ele>1038.0</ele><time>2026-04-26T11:41:10.524Z</time></trkpt><trkpt lat="43.1042081" lon="12.95568"><ele>1038.0</ele><time>2026-04-26T11:41:12.524Z</time></trkpt><trkpt lat="43.1042397" lon="12.9555607"><ele>1038.0</ele><time>2026-04-26T11:41:15.524Z</time></trkpt><trkpt lat="43.1043159" lon="12.9554959"><ele>1039.0</ele><time>2026-04-26T11:41:17.524Z</time></trkpt><trkpt lat="43.1044267" lon="12.9554071"><ele>1040.0</ele><time>2026-04-26T11:41:19.525Z</time></trkpt><trkpt lat="43.1044829" lon="12.9553514"><ele>1041.0</ele><time>2026-04-26T11:41:20.524Z</time></trkpt><trkpt lat="43.104555" lon="12.9552967"><ele>1042.0</ele><time>2026-04-26T11:41:21.525Z</time></trkpt><trkpt lat="43.1046233" lon="12.9552433"><ele>1043.0</ele><time>2026-04-26T11:41:22.525Z</time></trkpt><trkpt lat="43.1046967" lon="12.9552"><ele>1044.0</ele><time>2026-04-26T11:41:23.525Z</time></trkpt><trkpt lat="43.1047583" lon="12.9551583"><ele>1044.0</ele><time>2026-04-26T11:41:24.524Z</time></trkpt><trkpt lat="43.1048267" lon="12.9551183"><ele>1044.0</ele><time>2026-04-26T11:41:25.525Z</time></trkpt><trkpt lat="43.104895" lon="12.9550867"><ele>1044.0</ele><time>2026-04-26T11:41:26.525Z</time></trkpt><trkpt lat="43.1049667" lon="12.9550517"><ele>1044.0</ele><time>2026-04-26T11:41:27.524Z</time></trkpt><trkpt lat="43.10504" lon="12.95502"><ele>1044.0</ele><time>2026-04-26T11:41:28.524Z</time></trkpt><trkpt lat="43.1051167" lon="12.954995"><ele>1044.0</ele><time>2026-04-26T11:41:29.524Z</time></trkpt><trkpt lat="43.10519" lon="12.95497"><ele>1044.0</ele><time>2026-04-26T11:41:30.524Z</time></trkpt><trkpt lat="43.105255" lon="12.95494"><ele>1044.0</ele><time>2026-04-26T11:41:31.525Z</time></trkpt><trkpt lat="43.1053733" lon="12.95489"><ele>1044.0</ele><time>2026-04-26T11:41:33.524Z</time></trkpt><trkpt lat="43.1055017" lon="12.9548417"><ele>1044.0</ele><time>2026-04-26T11:41:35.524Z</time></trkpt><trkpt lat="43.1056283" lon="12.9548083"><ele>1044.0</ele><time>2026-04-26T11:41:37.524Z</time></trkpt><trkpt lat="43.105695" lon="12.9547917"><ele>1044.0</ele><time>2026-04-26T11:41:38.524Z</time></trkpt><trkpt lat="43.1058217" lon="12.95475"><ele>1044.0</ele><time>2026-04-26T11:41:40.524Z</time></trkpt><trkpt lat="43.1059483" lon="12.9547083"><ele>1044.0</ele><time>2026-04-26T11:41:42.524Z</time></trkpt><trkpt lat="43.1060617" lon="12.9546817"><ele>1044.0</ele><time>2026-04-26T11:41:44.525Z</time></trkpt><trkpt lat="43.1061583" lon="12.95465"><ele>1043.3333333333333</ele><time>2026-04-26T11:41:46.525Z</time></trkpt><trkpt lat="43.1062233" lon="12.9546133"><ele>1042.6666666666667</ele><time>2026-04-26T11:41:47.524Z</time></trkpt><trkpt lat="43.1062917" lon="12.95457"><ele>1042.0</ele><time>2026-04-26T11:41:48.524Z</time></trkpt><trkpt lat="43.106365" lon="12.95453"><ele>1041.3333333333335</ele><time>2026-04-26T11:41:49.525Z</time></trkpt><trkpt lat="43.1064417" lon="12.9544833"><ele>1040.6666666666667</ele><time>2026-04-26T11:41:50.524Z</time></trkpt><trkpt lat="43.1065117" lon="12.95444"><ele>1040.0</ele><time>2026-04-26T11:41:51.524Z</time></trkpt><trkpt lat="43.1065833" lon="12.954395"><ele>1038.4285714285716</ele><time>2026-04-26T11:41:52.524Z</time></trkpt><trkpt lat="43.106655" lon="12.954345"><ele>1036.857142857143</ele><time>2026-04-26T11:41:53.524Z</time></trkpt><trkpt lat="43.1067233" lon="12.954295"><ele>1035.2857142857142</ele><time>2026-04-26T11:41:54.524Z</time></trkpt><trkpt lat="43.1067867" lon="12.9542433"><ele>1033.7142857142858</ele><time>2026-04-26T11:41:55.524Z</time></trkpt><trkpt lat="43.10685" lon="12.9541917"><ele>1032.142857142857</ele><time>2026-04-26T11:41:56.524Z</time></trkpt><trkpt lat="43.10691" lon="12.95414"><ele>1030.5714285714287</ele><time>2026-04-26T11:41:57.524Z</time></trkpt><trkpt lat="43.1069683" lon="12.9540867"><ele>1029.0</ele><time>2026-04-26T11:41:58.524Z</time></trkpt><trkpt lat="43.1070633" lon="12.9539967"><ele>1027.0</ele><time>2026-04-26T11:42:00.524Z</time></trkpt><trkpt lat="43.107165" lon="12.9539017"><ele>1025.0</ele><time>2026-04-26T11:42:02.524Z</time></trkpt><trkpt lat="43.107265" lon="12.9538217"><ele>1023.0000000000001</ele><time>2026-04-26T11:42:04.524Z</time></trkpt><trkpt lat="43.1073717" lon="12.95375"><ele>1021.0</ele><time>2026-04-26T11:42:06.524Z</time></trkpt><trkpt lat="43.1074283" lon="12.9537"><ele>1019.0</ele><time>2026-04-26T11:42:07.524Z</time></trkpt><trkpt lat="43.1074733" lon="12.9535533"><ele>1019.0</ele><time>2026-04-26T11:42:09.524Z</time></trkpt><trkpt lat="43.107455" lon="12.9534033"><ele>1019.0</ele><time>2026-04-26T11:42:11.524Z</time></trkpt><trkpt lat="43.10742" lon="12.9532433"><ele>1019.0</ele><time>2026-04-26T11:42:13.524Z</time></trkpt><trkpt lat="43.10737" lon="12.9530933"><ele>1019.0</ele><time>2026-04-26T11:42:15.524Z</time></trkpt><trkpt lat="43.1073" lon="12.9529783"><ele>1017.1666666666667</ele><time>2026-04-26T11:42:17.524Z</time></trkpt><trkpt lat="43.1071967" lon="12.95287"><ele>1015.3333333333334</ele><time>2026-04-26T11:42:19.525Z</time></trkpt><trkpt lat="43.1071367" lon="12.952825"><ele>1013.5</ele><time>2026-04-26T11:42:20.524Z</time></trkpt><trkpt lat="43.1070683" lon="12.952775"><ele>1011.6666666666667</ele><time>2026-04-26T11:42:21.524Z</time></trkpt><trkpt lat="43.1069967" lon="12.9527217"><ele>1009.8333333333334</ele><time>2026-04-26T11:42:22.524Z</time></trkpt><trkpt lat="43.1069283" lon="12.952675"><ele>1008.0</ele><time>2026-04-26T11:42:23.524Z</time></trkpt><trkpt lat="43.10687" lon="12.95262"><ele>1008.0</ele><time>2026-04-26T11:42:24.524Z</time></trkpt><trkpt lat="43.1068083" lon="12.95256"><ele>1008.0</ele><time>2026-04-26T11:42:25.525Z</time></trkpt><trkpt lat="43.1067567" lon="12.9524933"><ele>1008.0</ele><time>2026-04-26T11:42:26.524Z</time></trkpt><trkpt lat="43.1067033" lon="12.9524233"><ele>1008.0</ele><time>2026-04-26T11:42:27.524Z</time></trkpt><trkpt lat="43.1066567" lon="12.9523533"><ele>1008.0</ele><time>2026-04-26T11:42:28.525Z</time></trkpt><trkpt lat="43.1066067" lon="12.952295"><ele>1008.0</ele><time>2026-04-26T11:42:29.525Z</time></trkpt><trkpt lat="43.1065133" lon="12.9521817"><ele>1007.6666666666666</ele><time>2026-04-26T11:42:31.525Z</time></trkpt><trkpt lat="43.106425" lon="12.9520783"><ele>1007.3333333333333</ele><time>2026-04-26T11:42:33.524Z</time></trkpt><trkpt lat="43.1063783" lon="12.9520017"><ele>1007.0</ele><time>2026-04-26T11:42:34.525Z</time></trkpt><trkpt lat="43.1063317" lon="12.9519183"><ele>1006.6666666666666</ele><time>2026-04-26T11:42:35.524Z</time></trkpt><trkpt lat="43.1062833" lon="12.9518333"><ele>1006.3333333333333</ele><time>2026-04-26T11:42:36.524Z</time></trkpt><trkpt lat="43.10624" lon="12.9517417"><ele>1006.0</ele><time>2026-04-26T11:42:37.524Z</time></trkpt><trkpt lat="43.1062017" lon="12.95166"><ele>1009.4999999999999</ele><time>2026-04-26T11:42:38.525Z</time></trkpt><trkpt lat="43.1061683" lon="12.951565"><ele>1013.0</ele><time>2026-04-26T11:42:39.525Z</time></trkpt><trkpt lat="43.1061383" lon="12.9514683"><ele>1016.5</ele><time>2026-04-26T11:42:40.524Z</time></trkpt><trkpt lat="43.1061133" lon="12.9513733"><ele>1020.0</ele><time>2026-04-26T11:42:41.524Z</time></trkpt><trkpt lat="43.106085" lon="12.9512817"><ele>1023.4999999999999</ele><time>2026-04-26T11:42:42.524Z</time></trkpt><trkpt lat="43.10606" lon="12.9511867"><ele>1027.0</ele><time>2026-04-26T11:42:43.524Z</time></trkpt><trkpt lat="43.1060383" lon="12.9510367"><ele>1027.0</ele><time>2026-04-26T11:42:45.524Z</time></trkpt><trkpt lat="43.1060583" lon="12.9509"><ele>1027.0</ele><time>2026-04-26T11:42:47.524Z</time></trkpt><trkpt lat="43.106125" lon="12.9507833"><ele>1027.0</ele><time>2026-04-26T11:42:49.525Z</time></trkpt><trkpt lat="43.106185" lon="12.9507317"><ele>1027.0</ele><time>2026-04-26T11:42:50.524Z</time></trkpt><trkpt lat="43.1062533" lon="12.95069"><ele>1027.0</ele><time>2026-04-26T11:42:51.524Z</time></trkpt><trkpt lat="43.10633" lon="12.9506567"><ele>1027.0</ele><time>2026-04-26T11:42:52.524Z</time></trkpt><trkpt lat="43.1064167" lon="12.95063"><ele>1030.2</ele><time>2026-04-26T11:42:53.524Z</time></trkpt><trkpt lat="43.1065117" lon="12.9505967"><ele>1033.4</ele><time>2026-04-26T11:42:54.525Z</time></trkpt><trkpt lat="43.1066083" lon="12.9505567"><ele>1036.6</ele><time>2026-04-26T11:42:55.524Z</time></trkpt><trkpt lat="43.1067083" lon="12.950525"><ele>1039.8</ele><time>2026-04-26T11:42:56.524Z</time></trkpt><trkpt lat="43.1068133" lon="12.95049"><ele>1043.0</ele><time>2026-04-26T11:42:57.524Z</time></trkpt><trkpt lat="43.106915" lon="12.9504517"><ele>1044.8</ele><time>2026-04-26T11:42:58.524Z</time></trkpt><trkpt lat="43.10701" lon="12.9504183"><ele>1046.6</ele><time>2026-04-26T11:42:59.524Z</time></trkpt><trkpt lat="43.1070983" lon="12.95039"><ele>1048.4</ele><time>2026-04-26T11:43:00.524Z</time></trkpt><trkpt lat="43.10719" lon="12.9503633"><ele>1050.2</ele><time>2026-04-26T11:43:01.525Z</time></trkpt><trkpt lat="43.1072833" lon="12.9503317"><ele>1052.0</ele><time>2026-04-26T11:43:02.524Z</time></trkpt><trkpt lat="43.10737" lon="12.9503"><ele>1053.5</ele><time>2026-04-26T11:43:03.525Z</time></trkpt><trkpt lat="43.1074383" lon="12.95027"><ele>1055.0</ele><time>2026-04-26T11:43:04.524Z</time></trkpt><trkpt lat="43.1075317" lon="12.9502567"><ele>1056.5</ele><time>2026-04-26T11:43:06.524Z</time></trkpt><trkpt lat="43.1076033" lon="12.9503417"><ele>1058.0</ele><time>2026-04-26T11:43:08.525Z</time></trkpt><trkpt lat="43.1076417" lon="12.9504167"><ele>1059.5</ele><time>2026-04-26T11:43:09.524Z</time></trkpt><trkpt lat="43.1076933" lon="12.9505083"><ele>1061.0</ele><time>2026-04-26T11:43:10.524Z</time></trkpt><trkpt lat="43.107755" lon="12.9505983"><ele>1061.0</ele><time>2026-04-26T11:43:11.524Z</time></trkpt><trkpt lat="43.1078133" lon="12.950675"><ele>1061.0</ele><time>2026-04-26T11:43:12.525Z</time></trkpt><trkpt lat="43.10787" lon="12.9507517"><ele>1061.0</ele><time>2026-04-26T11:43:13.525Z</time></trkpt><trkpt lat="43.1079317" lon="12.9508283"><ele>1061.0</ele><time>2026-04-26T11:43:14.525Z</time></trkpt><trkpt lat="43.1079933" lon="12.950905"><ele>1061.0</ele><time>2026-04-26T11:43:15.525Z</time></trkpt><trkpt lat="43.1080567" lon="12.9509817"><ele>1061.0</ele><time>2026-04-26T11:43:16.524Z</time></trkpt><trkpt lat="43.1081267" lon="12.951065"><ele>1059.2</ele><time>2026-04-26T11:43:17.524Z</time></trkpt><trkpt lat="43.1081983" lon="12.9511517"><ele>1057.3999999999999</ele><time>2026-04-26T11:43:18.524Z</time></trkpt><trkpt lat="43.1082683" lon="12.9512383"><ele>1055.6</ele><time>2026-04-26T11:43:19.524Z</time></trkpt><trkpt lat="43.1083417" lon="12.9513167"><ele>1053.8</ele><time>2026-04-26T11:43:20.524Z</time></trkpt><trkpt lat="43.1084117" lon="12.9514017"><ele>1052.0</ele><time>2026-04-26T11:43:21.525Z</time></trkpt><trkpt lat="43.1084783" lon="12.9514817"><ele>1052.0</ele><time>2026-04-26T11:43:22.524Z</time></trkpt><trkpt lat="43.1085567" lon="12.9515683"><ele>1052.0</ele><time>2026-04-26T11:43:23.525Z</time></trkpt><trkpt lat="43.10864" lon="12.9516567"><ele>1052.0</ele><time>2026-04-26T11:43:24.524Z</time></trkpt><trkpt lat="43.10872" lon="12.9517533"><ele>1052.0</ele><time>2026-04-26T11:43:25.524Z</time></trkpt><trkpt lat="43.1088067" lon="12.9518517"><ele>1052.0</ele><time>2026-04-26T11:43:26.524Z</time></trkpt><trkpt lat="43.1088917" lon="12.9519383"><ele>1049.6</ele><time>2026-04-26T11:43:27.525Z</time></trkpt><trkpt lat="43.1089667" lon="12.9520233"><ele>1047.2</ele><time>2026-04-26T11:43:28.524Z</time></trkpt><trkpt lat="43.1090367" lon="12.9521"><ele>1044.8</ele><time>2026-04-26T11:43:29.524Z</time></trkpt><trkpt lat="43.1091133" lon="12.952175"><ele>1042.4</ele><time>2026-04-26T11:43:30.524Z</time></trkpt><trkpt lat="43.1091867" lon="12.9522467"><ele>1040.0</ele><time>2026-04-26T11:43:31.524Z</time></trkpt><trkpt lat="43.1092633" lon="12.9523217"><ele>1039.75</ele><time>2026-04-26T11:43:32.525Z</time></trkpt><trkpt lat="43.1093533" lon="12.9523917"><ele>1039.5</ele><time>2026-04-26T11:43:33.525Z</time></trkpt><trkpt lat="43.10946" lon="12.9524583"><ele>1039.25</ele><time>2026-04-26T11:43:34.524Z</time></trkpt><trkpt lat="43.1095717" lon="12.9525317"><ele>1039.0</ele><time>2026-04-26T11:43:35.524Z</time></trkpt><trkpt lat="43.1096717" lon="12.9526067"><ele>1037.25</ele><time>2026-04-26T11:43:36.525Z</time></trkpt><trkpt lat="43.109765" lon="12.9526817"><ele>1035.5</ele><time>2026-04-26T11:43:37.524Z</time></trkpt><trkpt lat="43.1098683" lon="12.9527667"><ele>1033.75</ele><time>2026-04-26T11:43:38.524Z</time></trkpt><trkpt lat="43.10997" lon="12.9528467"><ele>1032.0</ele><time>2026-04-26T11:43:39.524Z</time></trkpt><trkpt lat="43.110065" lon="12.9529317"><ele>1031.6</ele><time>2026-04-26T11:43:40.524Z</time></trkpt><trkpt lat="43.1101633" lon="12.953015"><ele>1031.2</ele><time>2026-04-26T11:43:41.524Z</time></trkpt><trkpt lat="43.1102567" lon="12.9531017"><ele>1030.8</ele><time>2026-04-26T11:43:42.524Z</time></trkpt><trkpt lat="43.110345" lon="12.9532"><ele>1030.4</ele><time>2026-04-26T11:43:43.524Z</time></trkpt><trkpt lat="43.1104133" lon="12.9532983"><ele>1030.0</ele><time>2026-04-26T11:43:44.524Z</time></trkpt><trkpt lat="43.1104833" lon="12.9533883"><ele>1030.0</ele><time>2026-04-26T11:43:45.524Z</time></trkpt><trkpt lat="43.110525" lon="12.9534833"><ele>1030.0</ele><time>2026-04-26T11:43:46.524Z</time></trkpt><trkpt lat="43.1105533" lon="12.9535917"><ele>1030.0</ele><time>2026-04-26T11:43:47.524Z</time></trkpt><trkpt lat="43.1105783" lon="12.953725"><ele>1030.0</ele><time>2026-04-26T11:43:48.524Z</time></trkpt><trkpt lat="43.11059" lon="12.9538567"><ele>1030.0</ele><time>2026-04-26T11:43:49.524Z</time></trkpt><trkpt lat="43.1105917" lon="12.9539817"><ele>1030.0</ele><time>2026-04-26T11:43:50.525Z</time></trkpt><trkpt lat="43.1105817" lon="12.9541"><ele>1030.0</ele><time>2026-04-26T11:43:51.525Z</time></trkpt><trkpt lat="43.1105633" lon="12.95422"><ele>1030.0</ele><time>2026-04-26T11:43:52.524Z</time></trkpt><trkpt lat="43.11055" lon="12.954325"><ele>1030.0</ele><time>2026-04-26T11:43:53.524Z</time></trkpt><trkpt lat="43.1105633" lon="12.9544217"><ele>1030.0</ele><time>2026-04-26T11:43:54.524Z</time></trkpt><trkpt lat="43.1106067" lon="12.9545217"><ele>1030.0</ele><time>2026-04-26T11:43:55.524Z</time></trkpt><trkpt lat="43.110685" lon="12.9546433"><ele>1028.5</ele><time>2026-04-26T11:43:56.524Z</time></trkpt><trkpt lat="43.1107717" lon="12.9547767"><ele>1027.0</ele><time>2026-04-26T11:43:57.524Z</time></trkpt><trkpt lat="43.1108483" lon="12.9549133"><ele>1025.5</ele><time>2026-04-26T11:43:58.524Z</time></trkpt><trkpt lat="43.1109283" lon="12.9550267"><ele>1024.0</ele><time>2026-04-26T11:43:59.525Z</time></trkpt><trkpt lat="43.1110133" lon="12.95511"><ele>1028.0</ele><time>2026-04-26T11:44:00.524Z</time></trkpt><trkpt lat="43.1110933" lon="12.955185"><ele>1032.0</ele><time>2026-04-26T11:44:01.524Z</time></trkpt><trkpt lat="43.1111783" lon="12.9552417"><ele>1036.0</ele><time>2026-04-26T11:44:02.524Z</time></trkpt><trkpt lat="43.111265" lon="12.9552983"><ele>1040.0</ele><time>2026-04-26T11:44:03.524Z</time></trkpt><trkpt lat="43.1113433" lon="12.9553533"><ele>1044.0</ele><time>2026-04-26T11:44:04.524Z</time></trkpt><trkpt lat="43.1114217" lon="12.9554117"><ele>1044.0</ele><time>2026-04-26T11:44:05.525Z</time></trkpt><trkpt lat="43.1115033" lon="12.9554917"><ele>1044.0</ele><time>2026-04-26T11:44:06.524Z</time></trkpt><trkpt lat="43.1115917" lon="12.9555867"><ele>1044.0</ele><time>2026-04-26T11:44:07.525Z</time></trkpt><trkpt lat="43.111675" lon="12.95568"><ele>1044.0</ele><time>2026-04-26T11:44:08.524Z</time></trkpt><trkpt lat="43.1117533" lon="12.955785"><ele>1044.0</ele><time>2026-04-26T11:44:09.524Z</time></trkpt><trkpt lat="43.1118267" lon="12.9558917"><ele>1042.5</ele><time>2026-04-26T11:44:10.524Z</time></trkpt><trkpt lat="43.1119" lon="12.955995"><ele>1041.0</ele><time>2026-04-26T11:44:11.524Z</time></trkpt><trkpt lat="43.1119683" lon="12.9560933"><ele>1039.5</ele><time>2026-04-26T11:44:12.524Z</time></trkpt><trkpt lat="43.1120217" lon="12.9561817"><ele>1038.0</ele><time>2026-04-26T11:44:13.524Z</time></trkpt><trkpt lat="43.11206" lon="12.9562717"><ele>1036.5</ele><time>2026-04-26T11:44:14.524Z</time></trkpt><trkpt lat="43.1121033" lon="12.9563517"><ele>1035.0</ele><time>2026-04-26T11:44:15.524Z</time></trkpt><trkpt lat="43.112135" lon="12.95643"><ele>1035.0</ele><time>2026-04-26T11:44:16.524Z</time></trkpt><trkpt lat="43.11213" lon="12.9565817"><ele>1035.0</ele><time>2026-04-26T11:44:18.525Z</time></trkpt><trkpt lat="43.1121033" lon="12.95666"><ele>1035.0</ele><time>2026-04-26T11:44:19.524Z</time></trkpt><trkpt lat="43.11208" lon="12.9567617"><ele>1035.0</ele><time>2026-04-26T11:44:20.525Z</time></trkpt><trkpt lat="43.1120383" lon="12.956875"><ele>1035.0</ele><time>2026-04-26T11:44:21.524Z</time></trkpt><trkpt lat="43.1119933" lon="12.956995"><ele>1035.0</ele><time>2026-04-26T11:44:22.524Z</time></trkpt><trkpt lat="43.111945" lon="12.9571317"><ele>1032.2</ele><time>2026-04-26T11:44:23.524Z</time></trkpt><trkpt lat="43.1119" lon="12.95727"><ele>1029.4</ele><time>2026-04-26T11:44:24.524Z</time></trkpt><trkpt lat="43.11185" lon="12.9574167"><ele>1026.6</ele><time>2026-04-26T11:44:25.525Z</time></trkpt><trkpt lat="43.111815" lon="12.957565"><ele>1023.8</ele><time>2026-04-26T11:44:26.524Z</time></trkpt><trkpt lat="43.1117833" lon="12.9577"><ele>1021.0</ele><time>2026-04-26T11:44:27.524Z</time></trkpt><trkpt lat="43.1117517" lon="12.957825"><ele>1017.1999999999999</ele><time>2026-04-26T11:44:28.524Z</time></trkpt><trkpt lat="43.111715" lon="12.957945"><ele>1013.3999999999999</ele><time>2026-04-26T11:44:29.525Z</time></trkpt><trkpt lat="43.1116883" lon="12.9580633"><ele>1009.6</ele><time>2026-04-26T11:44:30.524Z</time></trkpt><trkpt lat="43.1116683" lon="12.958175"><ele>1005.8</ele><time>2026-04-26T11:44:31.525Z</time></trkpt><trkpt lat="43.11164" lon="12.958295"><ele>1002.0</ele><time>2026-04-26T11:44:32.524Z</time></trkpt><trkpt lat="43.1116" lon="12.9584117"><ele>1007.4000000000001</ele><time>2026-04-26T11:44:33.524Z</time></trkpt><trkpt lat="43.11156" lon="12.9585383"><ele>1012.8000000000001</ele><time>2026-04-26T11:44:34.525Z</time></trkpt><trkpt lat="43.111515" lon="12.9586567"><ele>1018.2</ele><time>2026-04-26T11:44:35.524Z</time></trkpt><trkpt lat="43.1114733" lon="12.958775"><ele>1023.6</ele><time>2026-04-26T11:44:36.524Z</time></trkpt><trkpt lat="43.1114433" lon="12.9588967"><ele>1029.0</ele><time>2026-04-26T11:44:37.524Z</time></trkpt><trkpt lat="43.1113983" lon="12.9590183"><ele>1029.0</ele><time>2026-04-26T11:44:38.524Z</time></trkpt><trkpt lat="43.111355" lon="12.9591483"><ele>1029.0</ele><time>2026-04-26T11:44:39.524Z</time></trkpt><trkpt lat="43.11131" lon="12.95929"><ele>1029.0</ele><time>2026-04-26T11:44:40.524Z</time></trkpt><trkpt lat="43.1112617" lon="12.959425"><ele>1029.0</ele><time>2026-04-26T11:44:41.524Z</time></trkpt><trkpt lat="43.111215" lon="12.959545"><ele>1029.0</ele><time>2026-04-26T11:44:42.524Z</time></trkpt><trkpt lat="43.11117" lon="12.959655"><ele>1028.0</ele><time>2026-04-26T11:44:43.524Z</time></trkpt><trkpt lat="43.1111393" lon="12.9597626"><ele>1027.0</ele><time>2026-04-26T11:44:44.524Z</time></trkpt><trkpt lat="43.1111147" lon="12.9598647"><ele>1026.0</ele><time>2026-04-26T11:44:45.524Z</time></trkpt><trkpt lat="43.1111067" lon="12.9599619"><ele>1025.0</ele><time>2026-04-26T11:44:46.525Z</time></trkpt><trkpt lat="43.1111256" lon="12.9600495"><ele>1024.0</ele><time>2026-04-26T11:44:47.524Z</time></trkpt><trkpt lat="43.1111664" lon="12.9601217"><ele>1023.0</ele><time>2026-04-26T11:44:48.524Z</time></trkpt><trkpt lat="43.1112166" lon="12.9601836"><ele>1022.0</ele><time>2026-04-26T11:44:49.524Z</time></trkpt><trkpt lat="43.1112953" lon="12.9602311"><ele>1022.0</ele><time>2026-04-26T11:44:50.524Z</time></trkpt><trkpt lat="43.1114061" lon="12.9602597"><ele>1022.0</ele><time>2026-04-26T11:44:51.525Z</time></trkpt><trkpt lat="43.1115446" lon="12.960289"><ele>1022.0</ele><time>2026-04-26T11:44:52.525Z</time></trkpt><trkpt lat="43.1116938" lon="12.9603328"><ele>1022.0</ele><time>2026-04-26T11:44:53.524Z</time></trkpt><trkpt lat="43.1118493" lon="12.9603944"><ele>1015.6666666666667</ele><time>2026-04-26T11:44:54.524Z</time></trkpt><trkpt lat="43.112007" lon="12.9604655"><ele>1009.3333333333333</ele><time>2026-04-26T11:44:55.524Z</time></trkpt><trkpt lat="43.1121551" lon="12.960548"><ele>1003.0</ele><time>2026-04-26T11:44:56.524Z</time></trkpt><trkpt lat="43.1122945" lon="12.9606252"><ele>1006.25</ele><time>2026-04-26T11:44:57.524Z</time></trkpt><trkpt lat="43.1124273" lon="12.9607012"><ele>1009.5</ele><time>2026-04-26T11:44:58.524Z</time></trkpt><trkpt lat="43.11256" lon="12.9607689"><ele>1012.75</ele><time>2026-04-26T11:44:59.524Z</time></trkpt><trkpt lat="43.1126868" lon="12.9608348"><ele>1016.0</ele><time>2026-04-26T11:45:00.524Z</time></trkpt><trkpt lat="43.1128062" lon="12.9608975"><ele>1016.0</ele><time>2026-04-26T11:45:01.524Z</time></trkpt><trkpt lat="43.1129138" lon="12.960976"><ele>1016.0</ele><time>2026-04-26T11:45:02.524Z</time></trkpt><trkpt lat="43.1130118" lon="12.9610553"><ele>1016.0</ele><time>2026-04-26T11:45:03.524Z</time></trkpt><trkpt lat="43.1131116" lon="12.9611382"><ele>1016.0</ele><time>2026-04-26T11:45:04.525Z</time></trkpt><trkpt lat="43.1132167" lon="12.9612132"><ele>1011.0</ele><time>2026-04-26T11:45:05.525Z</time></trkpt><trkpt lat="43.1133207" lon="12.9612638"><ele>1005.9999999999999</ele><time>2026-04-26T11:45:06.524Z</time></trkpt><trkpt lat="43.1134196" lon="12.9613128"><ele>1000.9999999999999</ele><time>2026-04-26T11:45:07.524Z</time></trkpt><trkpt lat="43.1135205" lon="12.9613582"><ele>996.0</ele><time>2026-04-26T11:45:08.524Z</time></trkpt><trkpt lat="43.1136165" lon="12.9613861"><ele>991.0</ele><time>2026-04-26T11:45:09.525Z</time></trkpt><trkpt lat="43.1137164" lon="12.9614144"><ele>991.0</ele><time>2026-04-26T11:45:10.525Z</time></trkpt><trkpt lat="43.1138217" lon="12.9614408"><ele>990.9999999999999</ele><time>2026-04-26T11:45:11.525Z</time></trkpt><trkpt lat="43.1139222" lon="12.96147"><ele>990.9999999999999</ele><time>2026-04-26T11:45:12.524Z</time></trkpt><trkpt lat="43.1140232" lon="12.9614977"><ele>991.0</ele><time>2026-04-26T11:45:13.524Z</time></trkpt><trkpt lat="43.1141222" lon="12.9615209"><ele>991.0</ele><time>2026-04-26T11:45:14.525Z</time></trkpt><trkpt lat="43.1142125" lon="12.9615296"><ele>988.1999999999999</ele><time>2026-04-26T11:45:15.524Z</time></trkpt><trkpt lat="43.1143036" lon="12.9615201"><ele>985.3999999999999</ele><time>2026-04-26T11:45:16.524Z</time></trkpt><trkpt lat="43.1144017" lon="12.9614983"><ele>982.6</ele><time>2026-04-26T11:45:17.524Z</time></trkpt><trkpt lat="43.11451" lon="12.9614817"><ele>979.8</ele><time>2026-04-26T11:45:18.524Z</time></trkpt><trkpt lat="43.1146167" lon="12.9614717"><ele>977.0</ele><time>2026-04-26T11:45:19.524Z</time></trkpt><trkpt lat="43.1147283" lon="12.9614583"><ele>977.0</ele><time>2026-04-26T11:45:20.524Z</time></trkpt><trkpt lat="43.1148383" lon="12.9614417"><ele>977.0</ele><time>2026-04-26T11:45:21.524Z</time></trkpt><trkpt lat="43.114955" lon="12.9614283"><ele>977.0</ele><time>2026-04-26T11:45:22.524Z</time></trkpt><trkpt lat="43.1150783" lon="12.961415"><ele>977.0</ele><time>2026-04-26T11:45:23.525Z</time></trkpt><trkpt lat="43.1152" lon="12.9614083"><ele>975.75</ele><time>2026-04-26T11:45:24.524Z</time></trkpt><trkpt lat="43.115315" lon="12.9614033"><ele>974.5</ele><time>2026-04-26T11:45:25.524Z</time></trkpt><trkpt lat="43.115435" lon="12.9613933"><ele>973.25</ele><time>2026-04-26T11:45:26.524Z</time></trkpt><trkpt lat="43.11555" lon="12.9613817"><ele>972.0</ele><time>2026-04-26T11:45:27.524Z</time></trkpt><trkpt lat="43.1156567" lon="12.9613683"><ele>972.6</ele><time>2026-04-26T11:45:28.524Z</time></trkpt><trkpt lat="43.1157617" lon="12.9613617"><ele>973.2</ele><time>2026-04-26T11:45:29.524Z</time></trkpt><trkpt lat="43.1158633" lon="12.9613433"><ele>973.8</ele><time>2026-04-26T11:45:30.524Z</time></trkpt><trkpt lat="43.1159583" lon="12.9613233"><ele>974.4</ele><time>2026-04-26T11:45:31.524Z</time></trkpt><trkpt lat="43.1160667" lon="12.9613067"><ele>975.0</ele><time>2026-04-26T11:45:32.524Z</time></trkpt><trkpt lat="43.1161783" lon="12.961295"><ele>975.0</ele><time>2026-04-26T11:45:33.524Z</time></trkpt><trkpt lat="43.11629" lon="12.9612833"><ele>975.0</ele><time>2026-04-26T11:45:34.524Z</time></trkpt><trkpt lat="43.1164" lon="12.9612567"><ele>975.0</ele><time>2026-04-26T11:45:35.524Z</time></trkpt><trkpt lat="43.11652" lon="12.9612383"><ele>975.0</ele><time>2026-04-26T11:45:36.524Z</time></trkpt><trkpt lat="43.1166283" lon="12.9612283"><ele>974.6</ele><time>2026-04-26T11:45:37.524Z</time></trkpt><trkpt lat="43.1167417" lon="12.9612167"><ele>974.2</ele><time>2026-04-26T11:45:38.525Z</time></trkpt><trkpt lat="43.1168633" lon="12.9612083"><ele>973.8</ele><time>2026-04-26T11:45:39.524Z</time></trkpt><trkpt lat="43.116975" lon="12.9612"><ele>973.4</ele><time>2026-04-26T11:45:40.525Z</time></trkpt><trkpt lat="43.117075" lon="12.9611917"><ele>973.0</ele><time>2026-04-26T11:45:41.525Z</time></trkpt><trkpt lat="43.1171833" lon="12.9611783"><ele>973.0</ele><time>2026-04-26T11:45:42.525Z</time></trkpt><trkpt lat="43.11728" lon="12.9611667"><ele>973.0</ele><time>2026-04-26T11:45:43.524Z</time></trkpt><trkpt lat="43.1173633" lon="12.9611517"><ele>973.0</ele><time>2026-04-26T11:45:44.524Z</time></trkpt><trkpt lat="43.11746" lon="12.9611433"><ele>973.0</ele><time>2026-04-26T11:45:45.524Z</time></trkpt><trkpt lat="43.117565" lon="12.961135"><ele>973.0</ele><time>2026-04-26T11:45:46.524Z</time></trkpt><trkpt lat="43.1176617" lon="12.9611233"><ele>971.8</ele><time>2026-04-26T11:45:47.524Z</time></trkpt><trkpt lat="43.11776" lon="12.9611217"><ele>970.5999999999999</ele><time>2026-04-26T11:45:48.524Z</time></trkpt><trkpt lat="43.11786" lon="12.9611233"><ele>969.4000000000001</ele><time>2026-04-26T11:45:49.524Z</time></trkpt><trkpt lat="43.1179567" lon="12.961135"><ele>968.2</ele><time>2026-04-26T11:45:50.524Z</time></trkpt><trkpt lat="43.1180433" lon="12.9611383"><ele>967.0</ele><time>2026-04-26T11:45:51.525Z</time></trkpt><trkpt lat="43.118125" lon="12.96114"><ele>967.0</ele><time>2026-04-26T11:45:52.525Z</time></trkpt><trkpt lat="43.11821" lon="12.9611533"><ele>967.0</ele><time>2026-04-26T11:45:53.525Z</time></trkpt><trkpt lat="43.118305" lon="12.9611767"><ele>967.0</ele><time>2026-04-26T11:45:54.524Z</time></trkpt><trkpt lat="43.1183967" lon="12.9612117"><ele>967.0</ele><time>2026-04-26T11:45:55.524Z</time></trkpt><trkpt lat="43.118485" lon="12.9612583"><ele>967.0</ele><time>2026-04-26T11:45:56.524Z</time></trkpt><trkpt lat="43.1185717" lon="12.96131"><ele>965.4999999999999</ele><time>2026-04-26T11:45:57.524Z</time></trkpt><trkpt lat="43.1186517" lon="12.9613667"><ele>964.0</ele><time>2026-04-26T11:45:58.524Z</time></trkpt><trkpt lat="43.1187167" lon="12.9614283"><ele>962.5</ele><time>2026-04-26T11:45:59.524Z</time></trkpt><trkpt lat="43.1187733" lon="12.9614933"><ele>961.0</ele><time>2026-04-26T11:46:00.525Z</time></trkpt><trkpt lat="43.11882" lon="12.9615517"><ele>959.4999999999999</ele><time>2026-04-26T11:46:01.524Z</time></trkpt><trkpt lat="43.11891" lon="12.9616533"><ele>958.0</ele><time>2026-04-26T11:46:03.524Z</time></trkpt><trkpt lat="43.11897" lon="12.9617033"><ele>957.9999999999999</ele><time>2026-04-26T11:46:05.523Z</time></trkpt><trkpt lat="43.119025" lon="12.9617683"><ele>958.0</ele><time>2026-04-26T11:46:50.523Z</time></trkpt><trkpt lat="43.1190883" lon="12.961805"><ele>958.0</ele><time>2026-04-26T11:47:14.523Z</time></trkpt><trkpt lat="43.1191533" lon="12.9617067"><ele>958.0</ele><time>2026-04-26T11:47:17.523Z</time></trkpt><trkpt lat="43.11918" lon="12.9616217"><ele>957.9999999999999</ele><time>2026-04-26T11:47:18.523Z</time></trkpt><trkpt lat="43.1192183" lon="12.96152"><ele>958.0</ele><time>2026-04-26T11:47:19.523Z</time></trkpt><trkpt lat="43.1192783" lon="12.9613933"><ele>953.2</ele><time>2026-04-26T11:47:20.523Z</time></trkpt><trkpt lat="43.1193483" lon="12.9612733"><ele>948.4</ele><time>2026-04-26T11:47:21.523Z</time></trkpt><trkpt lat="43.1194167" lon="12.96116"><ele>943.6000000000001</ele><time>2026-04-26T11:47:22.523Z</time></trkpt><trkpt lat="43.1194733" lon="12.9610433"><ele>938.8000000000001</ele><time>2026-04-26T11:47:23.523Z</time></trkpt><trkpt lat="43.1195417" lon="12.9609233"><ele>934.0</ele><time>2026-04-26T11:47:24.523Z</time></trkpt><trkpt lat="43.1196267" lon="12.9607967"><ele>935.75</ele><time>2026-04-26T11:47:25.523Z</time></trkpt><trkpt lat="43.1197083" lon="12.9606767"><ele>937.5</ele><time>2026-04-26T11:47:26.524Z</time></trkpt><trkpt lat="43.1197983" lon="12.9605783"><ele>939.25</ele><time>2026-04-26T11:47:27.523Z</time></trkpt><trkpt lat="43.1198967" lon="12.960485"><ele>941.0</ele><time>2026-04-26T11:47:28.524Z</time></trkpt><trkpt lat="43.1200117" lon="12.9603983"><ele>941.0</ele><time>2026-04-26T11:47:29.523Z</time></trkpt><trkpt lat="43.1201433" lon="12.960315"><ele>941.0</ele><time>2026-04-26T11:47:30.523Z</time></trkpt><trkpt lat="43.1202883" lon="12.9602283"><ele>941.0</ele><time>2026-04-26T11:47:31.523Z</time></trkpt><trkpt lat="43.1204217" lon="12.9601217"><ele>937.6666666666667</ele><time>2026-04-26T11:47:32.523Z</time></trkpt><trkpt lat="43.1205717" lon="12.9600017"><ele>934.3333333333333</ele><time>2026-04-26T11:47:33.524Z</time></trkpt><trkpt lat="43.1207383" lon="12.9598767"><ele>931.0</ele><time>2026-04-26T11:47:34.523Z</time></trkpt><trkpt lat="43.1208917" lon="12.9597517"><ele>931.0</ele><time>2026-04-26T11:47:35.523Z</time></trkpt><trkpt lat="43.1210433" lon="12.9596383"><ele>931.0</ele><time>2026-04-26T11:47:36.524Z</time></trkpt><trkpt lat="43.1212" lon="12.95952"><ele>931.0</ele><time>2026-04-26T11:47:37.523Z</time></trkpt><trkpt lat="43.1213533" lon="12.9593883"><ele>931.0</ele><time>2026-04-26T11:47:38.523Z</time></trkpt><trkpt lat="43.121505" lon="12.959255"><ele>931.0</ele><time>2026-04-26T11:47:39.523Z</time></trkpt><trkpt lat="43.121665" lon="12.9591233"><ele>931.0</ele><time>2026-04-26T11:47:40.523Z</time></trkpt><trkpt lat="43.12184" lon="12.9590033"><ele>924.3333333333333</ele><time>2026-04-26T11:47:41.523Z</time></trkpt><trkpt lat="43.1220083" lon="12.958895"><ele>917.6666666666667</ele><time>2026-04-26T11:47:42.523Z</time></trkpt><trkpt lat="43.122165" lon="12.9587883"><ele>911.0</ele><time>2026-04-26T11:47:43.523Z</time></trkpt><trkpt lat="43.122335" lon="12.9586733"><ele>906.6666666666667</ele><time>2026-04-26T11:47:44.523Z</time></trkpt><trkpt lat="43.1224883" lon="12.9585567"><ele>902.3333333333333</ele><time>2026-04-26T11:47:45.523Z</time></trkpt><trkpt lat="43.1226433" lon="12.9584533"><ele>898.0</ele><time>2026-04-26T11:47:46.523Z</time></trkpt><trkpt lat="43.1227817" lon="12.9583533"><ele>898.0</ele><time>2026-04-26T11:47:47.523Z</time></trkpt><trkpt lat="43.1229317" lon="12.9582433"><ele>898.0</ele><time>2026-04-26T11:47:48.523Z</time></trkpt><trkpt lat="43.1230733" lon="12.958125"><ele>898.0</ele><time>2026-04-26T11:47:49.523Z</time></trkpt><trkpt lat="43.1232167" lon="12.95801"><ele>904.0</ele><time>2026-04-26T11:47:50.523Z</time></trkpt><trkpt lat="43.12337" lon="12.9578933"><ele>910.0</ele><time>2026-04-26T11:47:51.523Z</time></trkpt><trkpt lat="43.1235317" lon="12.9577583"><ele>916.0</ele><time>2026-04-26T11:47:52.524Z</time></trkpt><trkpt lat="43.1237" lon="12.957635"><ele>910.6666666666666</ele><time>2026-04-26T11:47:53.524Z</time></trkpt><trkpt lat="43.1238633" lon="12.957505"><ele>905.3333333333333</ele><time>2026-04-26T11:47:54.523Z</time></trkpt><trkpt lat="43.1240217" lon="12.9573917"><ele>900.0</ele><time>2026-04-26T11:47:55.523Z</time></trkpt><trkpt lat="43.1241733" lon="12.9572733"><ele>900.0</ele><time>2026-04-26T11:47:56.523Z</time></trkpt><trkpt lat="43.124335" lon="12.957155"><ele>900.0</ele><time>2026-04-26T11:47:57.523Z</time></trkpt><trkpt lat="43.1244867" lon="12.9570383"><ele>900.0</ele><time>2026-04-26T11:47:58.524Z</time></trkpt><trkpt lat="43.1246383" lon="12.9569333"><ele>900.0</ele><time>2026-04-26T11:47:59.523Z</time></trkpt><trkpt lat="43.1247817" lon="12.9568217"><ele>900.0</ele><time>2026-04-26T11:48:00.523Z</time></trkpt><trkpt lat="43.124925" lon="12.9567267"><ele>900.0</ele><time>2026-04-26T11:48:01.524Z</time></trkpt><trkpt lat="43.1250717" lon="12.95665"><ele>895.0</ele><time>2026-04-26T11:48:02.523Z</time></trkpt><trkpt lat="43.1252283" lon="12.956575"><ele>890.0</ele><time>2026-04-26T11:48:03.523Z</time></trkpt><trkpt lat="43.1254" lon="12.9564983"><ele>885.0</ele><time>2026-04-26T11:48:04.523Z</time></trkpt><trkpt lat="43.12558" lon="12.95644"><ele>886.6666666666667</ele><time>2026-04-26T11:48:05.523Z</time></trkpt><trkpt lat="43.1257683" lon="12.9563833"><ele>888.3333333333334</ele><time>2026-04-26T11:48:06.523Z</time></trkpt><trkpt lat="43.12596" lon="12.95632"><ele>890.0</ele><time>2026-04-26T11:48:07.523Z</time></trkpt><trkpt lat="43.1261483" lon="12.9562583"><ele>890.0</ele><time>2026-04-26T11:48:08.523Z</time></trkpt><trkpt lat="43.1263317" lon="12.9561833"><ele>890.0</ele><time>2026-04-26T11:48:09.523Z</time></trkpt><trkpt lat="43.12652" lon="12.9561017"><ele>890.0</ele><time>2026-04-26T11:48:10.524Z</time></trkpt><trkpt lat="43.1266983" lon="12.9560217"><ele>892.6666666666667</ele><time>2026-04-26T11:48:11.523Z</time></trkpt><trkpt lat="43.1268633" lon="12.9559267"><ele>895.3333333333333</ele><time>2026-04-26T11:48:12.523Z</time></trkpt><trkpt lat="43.1270233" lon="12.9558333"><ele>898.0</ele><time>2026-04-26T11:48:13.523Z</time></trkpt><trkpt lat="43.1271867" lon="12.9557533"><ele>889.3333333333333</ele><time>2026-04-26T11:48:14.523Z</time></trkpt><trkpt lat="43.1273383" lon="12.955675"><ele>880.6666666666667</ele><time>2026-04-26T11:48:15.523Z</time></trkpt><trkpt lat="43.1274883" lon="12.95561"><ele>872.0</ele><time>2026-04-26T11:48:16.523Z</time></trkpt><trkpt lat="43.1276367" lon="12.9555517"><ele>872.0</ele><time>2026-04-26T11:48:17.523Z</time></trkpt><trkpt lat="43.1277733" lon="12.9554933"><ele>872.0</ele><time>2026-04-26T11:48:18.523Z</time></trkpt><trkpt lat="43.127905" lon="12.9554517"><ele>872.0</ele><time>2026-04-26T11:48:19.524Z</time></trkpt><trkpt lat="43.1280217" lon="12.9554333"><ele>872.0</ele><time>2026-04-26T11:48:20.524Z</time></trkpt><trkpt lat="43.1281383" lon="12.9554383"><ele>870.8</ele><time>2026-04-26T11:48:21.523Z</time></trkpt><trkpt lat="43.1282433" lon="12.9554633"><ele>869.6</ele><time>2026-04-26T11:48:22.523Z</time></trkpt><trkpt lat="43.128335" lon="12.955515"><ele>868.3999999999999</ele><time>2026-04-26T11:48:23.523Z</time></trkpt><trkpt lat="43.12841" lon="12.95559"><ele>867.1999999999999</ele><time>2026-04-26T11:48:24.523Z</time></trkpt><trkpt lat="43.1284683" lon="12.9556683"><ele>866.0</ele><time>2026-04-26T11:48:25.523Z</time></trkpt><trkpt lat="43.12856" lon="12.9557483"><ele>866.0</ele><time>2026-04-26T11:48:27.523Z</time></trkpt><trkpt lat="43.12862" lon="12.9556833"><ele>865.9999999999999</ele><time>2026-04-26T11:48:29.523Z</time></trkpt><trkpt lat="43.128595" lon="12.9556"><ele>865.9999999999999</ele><time>2026-04-26T11:48:30.524Z</time></trkpt><trkpt lat="43.1285417" lon="12.9555133"><ele>866.0</ele><time>2026-04-26T11:48:31.523Z</time></trkpt><trkpt lat="43.1284567" lon="12.9554283"><ele>866.0</ele><time>2026-04-26T11:48:32.523Z</time></trkpt><trkpt lat="43.1283467" lon="12.95534"><ele>867.5</ele><time>2026-04-26T11:48:33.523Z</time></trkpt><trkpt lat="43.1282167" lon="12.9552533"><ele>869.0</ele><time>2026-04-26T11:48:34.523Z</time></trkpt><trkpt lat="43.128075" lon="12.95519"><ele>870.5</ele><time>2026-04-26T11:48:35.523Z</time></trkpt><trkpt lat="43.1279383" lon="12.9551417"><ele>872.0</ele><time>2026-04-26T11:48:36.523Z</time></trkpt><trkpt lat="43.1278083" lon="12.9551017"><ele>872.0</ele><time>2026-04-26T11:48:37.523Z</time></trkpt><trkpt lat="43.127665" lon="12.95508"><ele>872.0</ele><time>2026-04-26T11:48:38.524Z</time></trkpt><trkpt lat="43.12752" lon="12.9550683"><ele>872.0</ele><time>2026-04-26T11:48:39.523Z</time></trkpt><trkpt lat="43.1273583" lon="12.9550767"><ele>870.6666666666667</ele><time>2026-04-26T11:48:40.523Z</time></trkpt><trkpt lat="43.1271983" lon="12.9550983"><ele>869.3333333333333</ele><time>2026-04-26T11:48:41.523Z</time></trkpt><trkpt lat="43.1270217" lon="12.95512"><ele>868.0</ele><time>2026-04-26T11:48:42.523Z</time></trkpt><trkpt lat="43.126835" lon="12.9551333"><ele>868.0</ele><time>2026-04-26T11:48:43.524Z</time></trkpt><trkpt lat="43.1266533" lon="12.955155"><ele>868.0</ele><time>2026-04-26T11:48:44.523Z</time></trkpt><trkpt lat="43.12648" lon="12.9551767"><ele>868.0</ele><time>2026-04-26T11:48:45.523Z</time></trkpt><trkpt lat="43.12632" lon="12.9551717"><ele>865.6666666666666</ele><time>2026-04-26T11:48:46.523Z</time></trkpt><trkpt lat="43.1261533" lon="12.9551533"><ele>863.3333333333333</ele><time>2026-04-26T11:48:47.524Z</time></trkpt><trkpt lat="43.12598" lon="12.9551333"><ele>861.0</ele><time>2026-04-26T11:48:48.523Z</time></trkpt><trkpt lat="43.1258117" lon="12.9550917"><ele>859.3333333333333</ele><time>2026-04-26T11:48:49.523Z</time></trkpt><trkpt lat="43.125645" lon="12.95505"><ele>857.6666666666666</ele><time>2026-04-26T11:48:50.524Z</time></trkpt><trkpt lat="43.1254633" lon="12.9550217"><ele>856.0</ele><time>2026-04-26T11:48:51.524Z</time></trkpt><trkpt lat="43.1252883" lon="12.955005"><ele>846.6666666666666</ele><time>2026-04-26T11:48:52.523Z</time></trkpt><trkpt lat="43.1251067" lon="12.954995"><ele>837.3333333333333</ele><time>2026-04-26T11:48:53.523Z</time></trkpt><trkpt lat="43.1249233" lon="12.9549867"><ele>828.0</ele><time>2026-04-26T11:48:54.523Z</time></trkpt><trkpt lat="43.1247517" lon="12.9550133"><ele>825.0</ele><time>2026-04-26T11:48:55.523Z</time></trkpt><trkpt lat="43.1245883" lon="12.9550233"><ele>822.0</ele><time>2026-04-26T11:48:56.524Z</time></trkpt><trkpt lat="43.12443" lon="12.955035"><ele>819.0</ele><time>2026-04-26T11:48:57.523Z</time></trkpt><trkpt lat="43.1242817" lon="12.95507"><ele>821.6666666666667</ele><time>2026-04-26T11:48:58.524Z</time></trkpt><trkpt lat="43.1241333" lon="12.9551167"><ele>824.3333333333334</ele><time>2026-04-26T11:48:59.524Z</time></trkpt><trkpt lat="43.12398" lon="12.9551867"><ele>827.0</ele><time>2026-04-26T11:49:00.523Z</time></trkpt><trkpt lat="43.12383" lon="12.9552733"><ele>827.0</ele><time>2026-04-26T11:49:01.523Z</time></trkpt><trkpt lat="43.1236667" lon="12.9553567"><ele>827.0</ele><time>2026-04-26T11:49:02.523Z</time></trkpt><trkpt lat="43.123495" lon="12.95544"><ele>827.0</ele><time>2026-04-26T11:49:03.523Z</time></trkpt><trkpt lat="43.123315" lon="12.9555183"><ele>820.3333333333334</ele><time>2026-04-26T11:49:04.523Z</time></trkpt><trkpt lat="43.1231317" lon="12.9556"><ele>813.6666666666667</ele><time>2026-04-26T11:49:05.523Z</time></trkpt><trkpt lat="43.1229383" lon="12.9556683"><ele>807.0</ele><time>2026-04-26T11:49:06.524Z</time></trkpt><trkpt lat="43.122735" lon="12.9557417"><ele>807.0</ele><time>2026-04-26T11:49:07.523Z</time></trkpt><trkpt lat="43.1225417" lon="12.9558133"><ele>807.0</ele><time>2026-04-26T11:49:08.523Z</time></trkpt><trkpt lat="43.122355" lon="12.955875"><ele>807.0</ele><time>2026-04-26T11:49:09.523Z</time></trkpt><trkpt lat="43.1221867" lon="12.955935"><ele>811.3333333333333</ele><time>2026-04-26T11:49:10.524Z</time></trkpt><trkpt lat="43.1220217" lon="12.9560017"><ele>815.6666666666666</ele><time>2026-04-26T11:49:11.523Z</time></trkpt><trkpt lat="43.1218667" lon="12.9560833"><ele>820.0</ele><time>2026-04-26T11:49:12.523Z</time></trkpt><trkpt lat="43.121715" lon="12.9561433"><ele>820.0</ele><time>2026-04-26T11:49:13.524Z</time></trkpt><trkpt lat="43.1215733" lon="12.9561867"><ele>820.0</ele><time>2026-04-26T11:49:14.524Z</time></trkpt><trkpt lat="43.12143" lon="12.9562133"><ele>820.0</ele><time>2026-04-26T11:49:15.523Z</time></trkpt><trkpt lat="43.1212883" lon="12.9562217"><ele>820.0</ele><time>2026-04-26T11:49:16.523Z</time></trkpt><trkpt lat="43.1211567" lon="12.9562483"><ele>816.0</ele><time>2026-04-26T11:49:17.523Z</time></trkpt><trkpt lat="43.121045" lon="12.9562933"><ele>812.0</ele><time>2026-04-26T11:49:18.523Z</time></trkpt><trkpt lat="43.1209467" lon="12.9563617"><ele>808.0</ele><time>2026-04-26T11:49:19.523Z</time></trkpt><trkpt lat="43.12088" lon="12.9564483"><ele>804.0</ele><time>2026-04-26T11:49:20.524Z</time></trkpt><trkpt lat="43.1208233" lon="12.956535"><ele>800.0</ele><time>2026-04-26T11:49:21.524Z</time></trkpt><trkpt lat="43.120775" lon="12.9565983"><ele>800.0</ele><time>2026-04-26T11:49:22.523Z</time></trkpt><trkpt lat="43.1206883" lon="12.9566117"><ele>800.0</ele><time>2026-04-26T11:49:24.523Z</time></trkpt><trkpt lat="43.1206883" lon="12.9564917"><ele>800.0</ele><time>2026-04-26T11:49:26.524Z</time></trkpt><trkpt lat="43.120755" lon="12.9564"><ele>800.0</ele><time>2026-04-26T11:49:27.523Z</time></trkpt><trkpt lat="43.12086" lon="12.9562833"><ele>800.0</ele><time>2026-04-26T11:49:28.523Z</time></trkpt><trkpt lat="43.120985" lon="12.956165"><ele>800.0</ele><time>2026-04-26T11:49:29.523Z</time></trkpt><trkpt lat="43.1211133" lon="12.9560667"><ele>800.0</ele><time>2026-04-26T11:49:30.524Z</time></trkpt><trkpt lat="43.1212317" lon="12.9560117"><ele>800.0</ele><time>2026-04-26T11:49:31.524Z</time></trkpt><trkpt lat="43.12134" lon="12.9559833"><ele>800.0</ele><time>2026-04-26T11:49:32.524Z</time></trkpt><trkpt lat="43.1214483" lon="12.9559467"><ele>800.0</ele><time>2026-04-26T11:49:33.523Z</time></trkpt><trkpt lat="43.1215483" lon="12.9558783"><ele>800.0</ele><time>2026-04-26T11:49:34.523Z</time></trkpt><trkpt lat="43.1216433" lon="12.9557617"><ele>800.0</ele><time>2026-04-26T11:49:35.523Z</time></trkpt><trkpt lat="43.1217283" lon="12.9555983"><ele>800.0</ele><time>2026-04-26T11:49:36.523Z</time></trkpt><trkpt lat="43.121835" lon="12.9554467"><ele>797.0</ele><time>2026-04-26T11:49:37.523Z</time></trkpt><trkpt lat="43.12196" lon="12.9552983"><ele>794.0</ele><time>2026-04-26T11:49:38.523Z</time></trkpt><trkpt lat="43.1220817" lon="12.9551533"><ele>791.0</ele><time>2026-04-26T11:49:39.523Z</time></trkpt><trkpt lat="43.1222117" lon="12.95501"><ele>787.6666666666667</ele><time>2026-04-26T11:49:40.523Z</time></trkpt><trkpt lat="43.1223383" lon="12.9548883"><ele>784.3333333333333</ele><time>2026-04-26T11:49:41.523Z</time></trkpt><trkpt lat="43.1224833" lon="12.9547933"><ele>781.0</ele><time>2026-04-26T11:49:42.523Z</time></trkpt><trkpt lat="43.1226383" lon="12.9546967"><ele>781.0</ele><time>2026-04-26T11:49:43.523Z</time></trkpt><trkpt lat="43.12279" lon="12.9546"><ele>781.0</ele><time>2026-04-26T11:49:44.523Z</time></trkpt><trkpt lat="43.1229383" lon="12.95447"><ele>781.0</ele><time>2026-04-26T11:49:45.523Z</time></trkpt><trkpt lat="43.123075" lon="12.9543283"><ele>778.6666666666666</ele><time>2026-04-26T11:49:46.524Z</time></trkpt><trkpt lat="43.1231917" lon="12.9541883"><ele>776.3333333333333</ele><time>2026-04-26T11:49:47.523Z</time></trkpt><trkpt lat="43.1233217" lon="12.9540433"><ele>774.0</ele><time>2026-04-26T11:49:48.524Z</time></trkpt><trkpt lat="43.1234617" lon="12.953905"><ele>774.0</ele><time>2026-04-26T11:49:49.523Z</time></trkpt><trkpt lat="43.123605" lon="12.9537767"><ele>774.0</ele><time>2026-04-26T11:49:50.524Z</time></trkpt><trkpt lat="43.12376" lon="12.9536467"><ele>774.0</ele><time>2026-04-26T11:49:51.523Z</time></trkpt><trkpt lat="43.123925" lon="12.95352"><ele>771.0</ele><time>2026-04-26T11:49:52.524Z</time></trkpt><trkpt lat="43.124095" lon="12.953385"><ele>768.0</ele><time>2026-04-26T11:49:53.523Z</time></trkpt><trkpt lat="43.1242517" lon="12.9532567"><ele>765.0</ele><time>2026-04-26T11:49:54.523Z</time></trkpt><trkpt lat="43.1244133" lon="12.953135"><ele>765.0</ele><time>2026-04-26T11:49:55.523Z</time></trkpt><trkpt lat="43.124575" lon="12.9530183"><ele>765.0</ele><time>2026-04-26T11:49:56.523Z</time></trkpt><trkpt lat="43.1247283" lon="12.9529067"><ele>765.0</ele><time>2026-04-26T11:49:57.523Z</time></trkpt><trkpt lat="43.1248817" lon="12.9528117"><ele>769.0</ele><time>2026-04-26T11:49:58.523Z</time></trkpt><trkpt lat="43.12503" lon="12.95272"><ele>773.0</ele><time>2026-04-26T11:49:59.524Z</time></trkpt><trkpt lat="43.1251717" lon="12.9526367"><ele>777.0</ele><time>2026-04-26T11:50:00.523Z</time></trkpt><trkpt lat="43.12533" lon="12.952555"><ele>770.0</ele><time>2026-04-26T11:50:01.523Z</time></trkpt><trkpt lat="43.125495" lon="12.95249"><ele>763.0</ele><time>2026-04-26T11:50:02.523Z</time></trkpt><trkpt lat="43.1256733" lon="12.9524283"><ele>756.0</ele><time>2026-04-26T11:50:03.523Z</time></trkpt><trkpt lat="43.1258633" lon="12.9523767"><ele>756.0</ele><time>2026-04-26T11:50:04.523Z</time></trkpt><trkpt lat="43.1260417" lon="12.9523017"><ele>756.0</ele><time>2026-04-26T11:50:05.523Z</time></trkpt><trkpt lat="43.1262183" lon="12.9522067"><ele>756.0</ele><time>2026-04-26T11:50:06.524Z</time></trkpt><trkpt lat="43.1263883" lon="12.9520883"><ele>757.3333333333334</ele><time>2026-04-26T11:50:07.523Z</time></trkpt><trkpt lat="43.1265633" lon="12.9519767"><ele>758.6666666666667</ele><time>2026-04-26T11:50:08.523Z</time></trkpt><trkpt lat="43.1267283" lon="12.9518767"><ele>760.0</ele><time>2026-04-26T11:50:09.523Z</time></trkpt><trkpt lat="43.1268733" lon="12.9517683"><ele>753.0</ele><time>2026-04-26T11:50:10.523Z</time></trkpt><trkpt lat="43.1270233" lon="12.9516733"><ele>746.0</ele><time>2026-04-26T11:50:11.523Z</time></trkpt><trkpt lat="43.1271733" lon="12.9516017"><ele>739.0</ele><time>2026-04-26T11:50:12.523Z</time></trkpt><trkpt lat="43.127315" lon="12.9515383"><ele>739.75</ele><time>2026-04-26T11:50:13.523Z</time></trkpt><trkpt lat="43.1274567" lon="12.951485"><ele>740.5</ele><time>2026-04-26T11:50:14.523Z</time></trkpt><trkpt lat="43.1275867" lon="12.9514483"><ele>741.25</ele><time>2026-04-26T11:50:15.524Z</time></trkpt><trkpt lat="43.1277133" lon="12.9514233"><ele>742.0</ele><time>2026-04-26T11:50:16.523Z</time></trkpt><trkpt lat="43.1278383" lon="12.9514183"><ele>742.0</ele><time>2026-04-26T11:50:17.523Z</time></trkpt><trkpt lat="43.127965" lon="12.9514233"><ele>742.0</ele><time>2026-04-26T11:50:18.523Z</time></trkpt><trkpt lat="43.1280917" lon="12.9514233"><ele>742.0</ele><time>2026-04-26T11:50:19.523Z</time></trkpt><trkpt lat="43.1282067" lon="12.9514433"><ele>742.0</ele><time>2026-04-26T11:50:20.523Z</time></trkpt><trkpt lat="43.128305" lon="12.9514883"><ele>741.0</ele><time>2026-04-26T11:50:21.523Z</time></trkpt><trkpt lat="43.1283917" lon="12.9515433"><ele>740.0</ele><time>2026-04-26T11:50:22.523Z</time></trkpt><trkpt lat="43.1284617" lon="12.9515817"><ele>739.0</ele><time>2026-04-26T11:50:23.523Z</time></trkpt><trkpt lat="43.1285267" lon="12.9516017"><ele>738.0</ele><time>2026-04-26T11:50:24.523Z</time></trkpt><trkpt lat="43.1285967" lon="12.95157"><ele>737.0</ele><time>2026-04-26T11:50:26.523Z</time></trkpt><trkpt lat="43.1285483" lon="12.9514033"><ele>736.0</ele><time>2026-04-26T11:50:38.523Z</time></trkpt><trkpt lat="43.128485" lon="12.9513467"><ele>736.0</ele><time>2026-04-26T11:50:39.524Z</time></trkpt><trkpt lat="43.1284017" lon="12.9512833"><ele>736.0</ele><time>2026-04-26T11:50:40.524Z</time></trkpt><trkpt lat="43.1282983" lon="12.9512117"><ele>736.0</ele><time>2026-04-26T11:50:41.523Z</time></trkpt><trkpt lat="43.128185" lon="12.9511283"><ele>736.0</ele><time>2026-04-26T11:50:42.523Z</time></trkpt><trkpt lat="43.128045" lon="12.951025"><ele>738.0</ele><time>2026-04-26T11:50:43.523Z</time></trkpt><trkpt lat="43.1278967" lon="12.9509167"><ele>740.0</ele><time>2026-04-26T11:50:44.523Z</time></trkpt><trkpt lat="43.12775" lon="12.9508067"><ele>742.0</ele><time>2026-04-26T11:50:45.523Z</time></trkpt><trkpt lat="43.127615" lon="12.9507067"><ele>735.3333333333334</ele><time>2026-04-26T11:50:46.523Z</time></trkpt><trkpt lat="43.1274733" lon="12.9506267"><ele>728.6666666666666</ele><time>2026-04-26T11:50:47.523Z</time></trkpt><trkpt lat="43.1273233" lon="12.950585"><ele>722.0</ele><time>2026-04-26T11:50:48.523Z</time></trkpt><trkpt lat="43.1271633" lon="12.9505533"><ele>721.0</ele><time>2026-04-26T11:50:49.523Z</time></trkpt><trkpt lat="43.1269933" lon="12.9505367"><ele>720.0</ele><time>2026-04-26T11:50:50.524Z</time></trkpt><trkpt lat="43.126815" lon="12.9504967"><ele>719.0</ele><time>2026-04-26T11:50:51.524Z</time></trkpt><trkpt lat="43.1266317" lon="12.9504683"><ele>719.0</ele><time>2026-04-26T11:50:52.524Z</time></trkpt><trkpt lat="43.1264417" lon="12.950445"><ele>719.0</ele><time>2026-04-26T11:50:53.523Z</time></trkpt><trkpt lat="43.1262667" lon="12.9504217"><ele>719.0</ele><time>2026-04-26T11:50:54.523Z</time></trkpt><trkpt lat="43.1260917" lon="12.950395"><ele>719.0</ele><time>2026-04-26T11:50:55.523Z</time></trkpt><trkpt lat="43.1259367" lon="12.9503567"><ele>719.0</ele><time>2026-04-26T11:50:56.523Z</time></trkpt><trkpt lat="43.1257833" lon="12.9503133"><ele>719.0</ele><time>2026-04-26T11:50:57.524Z</time></trkpt><trkpt lat="43.125635" lon="12.9502617"><ele>717.6666666666666</ele><time>2026-04-26T11:50:58.523Z</time></trkpt><trkpt lat="43.1254817" lon="12.95021"><ele>716.3333333333334</ele><time>2026-04-26T11:50:59.523Z</time></trkpt><trkpt lat="43.1253233" lon="12.9501567"><ele>715.0</ele><time>2026-04-26T11:51:00.523Z</time></trkpt><trkpt lat="43.1251533" lon="12.9500917"><ele>710.0</ele><time>2026-04-26T11:51:01.523Z</time></trkpt><trkpt lat="43.1249883" lon="12.9500267"><ele>705.0</ele><time>2026-04-26T11:51:02.524Z</time></trkpt><trkpt lat="43.1248133" lon="12.9499567"><ele>700.0</ele><time>2026-04-26T11:51:03.523Z</time></trkpt><trkpt lat="43.1246467" lon="12.9499067"><ele>699.0</ele><time>2026-04-26T11:51:04.523Z</time></trkpt><trkpt lat="43.1244817" lon="12.9498817"><ele>698.0</ele><time>2026-04-26T11:51:05.523Z</time></trkpt><trkpt lat="43.1243067" lon="12.949865"><ele>697.0</ele><time>2026-04-26T11:51:06.523Z</time></trkpt><trkpt lat="43.12412" lon="12.9498633"><ele>694.0</ele><time>2026-04-26T11:51:07.524Z</time></trkpt><trkpt lat="43.123935" lon="12.9498817"><ele>691.0</ele><time>2026-04-26T11:51:08.523Z</time></trkpt><trkpt lat="43.123745" lon="12.9499033"><ele>688.0</ele><time>2026-04-26T11:51:09.523Z</time></trkpt><trkpt lat="43.1235533" lon="12.949925"><ele>688.0</ele><time>2026-04-26T11:51:10.523Z</time></trkpt><trkpt lat="43.1233667" lon="12.9499367"><ele>688.0</ele><time>2026-04-26T11:51:11.524Z</time></trkpt><trkpt lat="43.1231983" lon="12.9499717"><ele>688.0</ele><time>2026-04-26T11:51:12.523Z</time></trkpt><trkpt lat="43.1230333" lon="12.9500283"><ele>686.6666666666667</ele><time>2026-04-26T11:51:13.524Z</time></trkpt><trkpt lat="43.1228717" lon="12.9501067"><ele>685.3333333333334</ele><time>2026-04-26T11:51:14.523Z</time></trkpt><trkpt lat="43.1227133" lon="12.9501883"><ele>684.0</ele><time>2026-04-26T11:51:15.523Z</time></trkpt><trkpt lat="43.1225667" lon="12.9502733"><ele>684.0</ele><time>2026-04-26T11:51:16.524Z</time></trkpt><trkpt lat="43.1224267" lon="12.9503633"><ele>684.0</ele><time>2026-04-26T11:51:17.524Z</time></trkpt><trkpt lat="43.1222767" lon="12.9504467"><ele>684.0</ele><time>2026-04-26T11:51:18.524Z</time></trkpt><trkpt lat="43.12213" lon="12.9505433"><ele>680.3333333333334</ele><time>2026-04-26T11:51:19.523Z</time></trkpt><trkpt lat="43.121975" lon="12.95064"><ele>676.6666666666667</ele><time>2026-04-26T11:51:20.523Z</time></trkpt><trkpt lat="43.1218233" lon="12.95075"><ele>673.0</ele><time>2026-04-26T11:51:21.524Z</time></trkpt><trkpt lat="43.1216733" lon="12.9508583"><ele>672.25</ele><time>2026-04-26T11:51:22.524Z</time></trkpt><trkpt lat="43.1215383" lon="12.9509617"><ele>671.5</ele><time>2026-04-26T11:51:23.524Z</time></trkpt><trkpt lat="43.1214133" lon="12.95105"><ele>670.75</ele><time>2026-04-26T11:51:24.524Z</time></trkpt><trkpt lat="43.1213" lon="12.9511417"><ele>670.0</ele><time>2026-04-26T11:51:25.523Z</time></trkpt><trkpt lat="43.1212133" lon="12.9512667"><ele>670.0</ele><time>2026-04-26T11:51:26.523Z</time></trkpt><trkpt lat="43.121145" lon="12.9514133"><ele>670.0</ele><time>2026-04-26T11:51:27.523Z</time></trkpt><trkpt lat="43.12109" lon="12.9515567"><ele>670.0</ele><time>2026-04-26T11:51:28.523Z</time></trkpt><trkpt lat="43.1210467" lon="12.9516733"><ele>670.0</ele><time>2026-04-26T11:51:29.524Z</time></trkpt><trkpt lat="43.1210033" lon="12.951755"><ele>670.0</ele><time>2026-04-26T11:51:30.523Z</time></trkpt><trkpt lat="43.1209133" lon="12.951845"><ele>669.4</ele><time>2026-04-26T11:51:32.523Z</time></trkpt><trkpt lat="43.12084" lon="12.9518617"><ele>668.8</ele><time>2026-04-26T11:51:33.523Z</time></trkpt><trkpt lat="43.12074" lon="12.9518533"><ele>668.2</ele><time>2026-04-26T11:51:34.523Z</time></trkpt><trkpt lat="43.1206083" lon="12.9518183"><ele>667.6</ele><time>2026-04-26T11:51:35.523Z</time></trkpt><trkpt lat="43.1204833" lon="12.9517783"><ele>667.0</ele><time>2026-04-26T11:51:36.523Z</time></trkpt><trkpt lat="43.1203617" lon="12.9517783"><ele>667.0</ele><time>2026-04-26T11:51:37.523Z</time></trkpt><trkpt lat="43.1202583" lon="12.951845"><ele>667.0</ele><time>2026-04-26T11:51:38.524Z</time></trkpt><trkpt lat="43.1201633" lon="12.95196"><ele>667.0</ele><time>2026-04-26T11:51:39.524Z</time></trkpt><trkpt lat="43.1200517" lon="12.9520933"><ele>667.0</ele><time>2026-04-26T11:51:40.523Z</time></trkpt><trkpt lat="43.119945" lon="12.952235"><ele>665.25</ele><time>2026-04-26T11:51:41.524Z</time></trkpt><trkpt lat="43.1198267" lon="12.9523633"><ele>663.5</ele><time>2026-04-26T11:51:42.524Z</time></trkpt><trkpt lat="43.11972" lon="12.95245"><ele>661.75</ele><time>2026-04-26T11:51:43.523Z</time></trkpt><trkpt lat="43.1196117" lon="12.9524883"><ele>660.0</ele><time>2026-04-26T11:51:44.523Z</time></trkpt><trkpt lat="43.1195033" lon="12.9524867"><ele>660.0</ele><time>2026-04-26T11:51:45.523Z</time></trkpt><trkpt lat="43.1193917" lon="12.952455"><ele>660.0</ele><time>2026-04-26T11:51:46.524Z</time></trkpt><trkpt lat="43.1192883" lon="12.95239"><ele>660.0</ele><time>2026-04-26T11:51:47.523Z</time></trkpt><trkpt lat="43.1191883" lon="12.9522967"><ele>660.0</ele><time>2026-04-26T11:51:48.523Z</time></trkpt><trkpt lat="43.11909" lon="12.9521917"><ele>663.75</ele><time>2026-04-26T11:51:49.523Z</time></trkpt><trkpt lat="43.11897" lon="12.952085"><ele>667.5</ele><time>2026-04-26T11:51:50.524Z</time></trkpt><trkpt lat="43.118855" lon="12.9519917"><ele>671.25</ele><time>2026-04-26T11:51:51.523Z</time></trkpt><trkpt lat="43.1187433" lon="12.951915"><ele>675.0</ele><time>2026-04-26T11:51:52.523Z</time></trkpt><trkpt lat="43.118635" lon="12.9518267"><ele>671.0</ele><time>2026-04-26T11:51:53.523Z</time></trkpt><trkpt lat="43.1185417" lon="12.9517067"><ele>667.0</ele><time>2026-04-26T11:51:54.523Z</time></trkpt><trkpt lat="43.1184633" lon="12.951565"><ele>663.0</ele><time>2026-04-26T11:51:55.523Z</time></trkpt><trkpt lat="43.1183933" lon="12.9513933"><ele>659.0</ele><time>2026-04-26T11:51:56.523Z</time></trkpt><trkpt lat="43.118325" lon="12.9512067"><ele>659.0</ele><time>2026-04-26T11:51:57.523Z</time></trkpt><trkpt lat="43.11826" lon="12.9510333"><ele>659.0</ele><time>2026-04-26T11:51:58.524Z</time></trkpt><trkpt lat="43.1182117" lon="12.95088"><ele>659.0</ele><time>2026-04-26T11:51:59.523Z</time></trkpt><trkpt lat="43.1181533" lon="12.95076"><ele>659.0</ele><time>2026-04-26T11:52:00.523Z</time></trkpt><trkpt lat="43.11808" lon="12.9506633"><ele>658.6</ele><time>2026-04-26T11:52:01.523Z</time></trkpt><trkpt lat="43.117985" lon="12.9506083"><ele>658.2</ele><time>2026-04-26T11:52:02.523Z</time></trkpt><trkpt lat="43.1178883" lon="12.9505767"><ele>657.8000000000001</ele><time>2026-04-26T11:52:03.523Z</time></trkpt><trkpt lat="43.1178" lon="12.9505417"><ele>657.4000000000001</ele><time>2026-04-26T11:52:04.523Z</time></trkpt><trkpt lat="43.1177317" lon="12.95051"><ele>657.0</ele><time>2026-04-26T11:52:05.524Z</time></trkpt><trkpt lat="43.1176567" lon="12.9504183"><ele>657.0</ele><time>2026-04-26T11:52:07.523Z</time></trkpt><trkpt lat="43.1177033" lon="12.9503083"><ele>657.0</ele><time>2026-04-26T11:52:09.523Z</time></trkpt><trkpt lat="43.117795" lon="12.9502667"><ele>657.0</ele><time>2026-04-26T11:52:10.523Z</time></trkpt><trkpt lat="43.117915" lon="12.950235"><ele>657.0</ele><time>2026-04-26T11:52:11.524Z</time></trkpt><trkpt lat="43.1180583" lon="12.9502483"><ele>657.0</ele><time>2026-04-26T11:52:12.523Z</time></trkpt><trkpt lat="43.1182117" lon="12.9502883"><ele>657.0</ele><time>2026-04-26T11:52:13.523Z</time></trkpt><trkpt lat="43.1183533" lon="12.95035"><ele>657.0</ele><time>2026-04-26T11:52:14.523Z</time></trkpt><trkpt lat="43.1184767" lon="12.9504233"><ele>657.0</ele><time>2026-04-26T11:52:15.523Z</time></trkpt><trkpt lat="43.1185883" lon="12.9504883"><ele>653.0</ele><time>2026-04-26T11:52:16.523Z</time></trkpt><trkpt lat="43.1187033" lon="12.9505"><ele>649.0</ele><time>2026-04-26T11:52:17.523Z</time></trkpt><trkpt lat="43.11884" lon="12.950485"><ele>645.0</ele><time>2026-04-26T11:52:18.523Z</time></trkpt><trkpt lat="43.118975" lon="12.95042"><ele>641.0</ele><time>2026-04-26T11:52:19.523Z</time></trkpt><trkpt lat="43.1191183" lon="12.9503383"><ele>636.6666666666666</ele><time>2026-04-26T11:52:20.523Z</time></trkpt><trkpt lat="43.11928" lon="12.9502567"><ele>632.3333333333334</ele><time>2026-04-26T11:52:21.524Z</time></trkpt><trkpt lat="43.119435" lon="12.9501817"><ele>628.0</ele><time>2026-04-26T11:52:22.523Z</time></trkpt><trkpt lat="43.119585" lon="12.950105"><ele>628.0</ele><time>2026-04-26T11:52:23.523Z</time></trkpt><trkpt lat="43.1197133" lon="12.9500233"><ele>628.0</ele><time>2026-04-26T11:52:24.523Z</time></trkpt><trkpt lat="43.119825" lon="12.9499133"><ele>628.0</ele><time>2026-04-26T11:52:25.523Z</time></trkpt><trkpt lat="43.11991" lon="12.9497767"><ele>628.0</ele><time>2026-04-26T11:52:26.523Z</time></trkpt><trkpt lat="43.1199633" lon="12.949585"><ele>628.0</ele><time>2026-04-26T11:52:27.524Z</time></trkpt><trkpt lat="43.1199983" lon="12.9493633"><ele>628.0</ele><time>2026-04-26T11:52:28.523Z</time></trkpt><trkpt lat="43.120025" lon="12.9491333"><ele>628.0</ele><time>2026-04-26T11:52:29.523Z</time></trkpt><trkpt lat="43.120065" lon="12.9489133"><ele>625.75</ele><time>2026-04-26T11:52:30.523Z</time></trkpt><trkpt lat="43.1201033" lon="12.9487167"><ele>623.5</ele><time>2026-04-26T11:52:31.523Z</time></trkpt><trkpt lat="43.1201467" lon="12.9485517"><ele>621.25</ele><time>2026-04-26T11:52:32.523Z</time></trkpt><trkpt lat="43.1202067" lon="12.94841"><ele>619.0</ele><time>2026-04-26T11:52:33.523Z</time></trkpt><trkpt lat="43.1202933" lon="12.94828"><ele>619.0</ele><time>2026-04-26T11:52:34.523Z</time></trkpt><trkpt lat="43.1203867" lon="12.9481617"><ele>619.0</ele><time>2026-04-26T11:52:35.523Z</time></trkpt><trkpt lat="43.1205267" lon="12.94804"><ele>619.0</ele><time>2026-04-26T11:52:36.524Z</time></trkpt><trkpt lat="43.1206633" lon="12.9478983"><ele>619.6666666666667</ele><time>2026-04-26T11:52:37.524Z</time></trkpt><trkpt lat="43.1207967" lon="12.947755"><ele>620.3333333333334</ele><time>2026-04-26T11:52:38.523Z</time></trkpt><trkpt lat="43.1209267" lon="12.9476317"><ele>621.0</ele><time>2026-04-26T11:52:39.523Z</time></trkpt><trkpt lat="43.12106" lon="12.94754"><ele>619.75</ele><time>2026-04-26T11:52:40.523Z</time></trkpt><trkpt lat="43.121185" lon="12.9474667"><ele>618.5</ele><time>2026-04-26T11:52:41.523Z</time></trkpt><trkpt lat="43.12129" lon="12.9474017"><ele>617.25</ele><time>2026-04-26T11:52:42.523Z</time></trkpt><trkpt lat="43.1213633" lon="12.9472983"><ele>616.0</ele><time>2026-04-26T11:52:43.523Z</time></trkpt><trkpt lat="43.1214333" lon="12.94716"><ele>616.0</ele><time>2026-04-26T11:52:44.523Z</time></trkpt><trkpt lat="43.121465" lon="12.9469767"><ele>616.0</ele><time>2026-04-26T11:52:45.523Z</time></trkpt><trkpt lat="43.1214867" lon="12.94679"><ele>616.0</ele><time>2026-04-26T11:52:46.523Z</time></trkpt><trkpt lat="43.1215017" lon="12.9466233"><ele>616.0</ele><time>2026-04-26T11:52:47.523Z</time></trkpt><trkpt lat="43.12153" lon="12.9464783"><ele>614.6</ele><time>2026-04-26T11:52:48.523Z</time></trkpt><trkpt lat="43.1215683" lon="12.94635"><ele>613.2</ele><time>2026-04-26T11:52:49.523Z</time></trkpt><trkpt lat="43.1216317" lon="12.9462333"><ele>611.8</ele><time>2026-04-26T11:52:50.524Z</time></trkpt><trkpt lat="43.12171" lon="12.94612"><ele>610.4</ele><time>2026-04-26T11:52:51.524Z</time></trkpt><trkpt lat="43.1218" lon="12.9460067"><ele>609.0</ele><time>2026-04-26T11:52:52.523Z</time></trkpt><trkpt lat="43.1219133" lon="12.9459017"><ele>608.3333333333334</ele><time>2026-04-26T11:52:53.523Z</time></trkpt><trkpt lat="43.1220417" lon="12.945805"><ele>607.6666666666667</ele><time>2026-04-26T11:52:54.523Z</time></trkpt><trkpt lat="43.12218" lon="12.9457083"><ele>607.0</ele><time>2026-04-26T11:52:55.523Z</time></trkpt><trkpt lat="43.1223133" lon="12.9456117"><ele>605.25</ele><time>2026-04-26T11:52:56.524Z</time></trkpt><trkpt lat="43.1224267" lon="12.9455083"><ele>603.5</ele><time>2026-04-26T11:52:57.524Z</time></trkpt><trkpt lat="43.12254" lon="12.9454083"><ele>601.75</ele><time>2026-04-26T11:52:58.523Z</time></trkpt><trkpt lat="43.1226583" lon="12.945325"><ele>600.0</ele><time>2026-04-26T11:52:59.523Z</time></trkpt><trkpt lat="43.1227617" lon="12.945225"><ele>600.0</ele><time>2026-04-26T11:53:00.523Z</time></trkpt><trkpt lat="43.1228417" lon="12.9451533"><ele>600.0</ele><time>2026-04-26T11:53:01.523Z</time></trkpt><trkpt lat="43.1229233" lon="12.9451217"><ele>600.0</ele><time>2026-04-26T11:53:02.523Z</time></trkpt><trkpt lat="43.1229967" lon="12.945115"><ele>600.0</ele><time>2026-04-26T11:53:03.523Z</time></trkpt><trkpt lat="43.1230683" lon="12.9450983"><ele>600.0</ele><time>2026-04-26T11:53:04.523Z</time></trkpt><trkpt lat="43.1231667" lon="12.9450583"><ele>600.0</ele><time>2026-04-26T11:53:06.523Z</time></trkpt><trkpt lat="43.1231683" lon="12.9451717"><ele>600.0</ele><time>2026-04-26T11:53:43.522Z</time></trkpt><trkpt lat="43.1231" lon="12.9450867"><ele>600.0</ele><time>2026-04-26T11:53:47.522Z</time></trkpt><trkpt lat="43.1230383" lon="12.9449917"><ele>600.0</ele><time>2026-04-26T11:53:49.523Z</time></trkpt><trkpt lat="43.1229317" lon="12.9449083"><ele>600.0</ele><time>2026-04-26T11:53:51.522Z</time></trkpt><trkpt lat="43.1228783" lon="12.9448617"><ele>600.0</ele><time>2026-04-26T11:53:52.522Z</time></trkpt><trkpt lat="43.1227867" lon="12.9447717"><ele>595.6666666666666</ele><time>2026-04-26T11:53:54.522Z</time></trkpt><trkpt lat="43.1227067" lon="12.9446517"><ele>591.3333333333334</ele><time>2026-04-26T11:53:56.523Z</time></trkpt><trkpt lat="43.12267" lon="12.944575"><ele>587.0</ele><time>2026-04-26T11:53:57.522Z</time></trkpt><trkpt lat="43.1226317" lon="12.9445033"><ele>582.6666666666667</ele><time>2026-04-26T11:53:58.522Z</time></trkpt><trkpt lat="43.122585" lon="12.94443"><ele>578.3333333333334</ele><time>2026-04-26T11:53:59.522Z</time></trkpt><trkpt lat="43.1225217" lon="12.9443367"><ele>574.0</ele><time>2026-04-26T11:54:00.522Z</time></trkpt><trkpt lat="43.1224567" lon="12.9442267"><ele>577.8333333333334</ele><time>2026-04-26T11:54:01.522Z</time></trkpt><trkpt lat="43.1223967" lon="12.944115"><ele>581.6666666666667</ele><time>2026-04-26T11:54:02.523Z</time></trkpt><trkpt lat="43.1223383" lon="12.9440333"><ele>585.5</ele><time>2026-04-26T11:54:03.522Z</time></trkpt><trkpt lat="43.1222883" lon="12.943955"><ele>589.3333333333334</ele><time>2026-04-26T11:54:04.522Z</time></trkpt><trkpt lat="43.1222433" lon="12.9438783"><ele>593.1666666666666</ele><time>2026-04-26T11:54:05.522Z</time></trkpt><trkpt lat="43.1222017" lon="12.9438033"><ele>597.0</ele><time>2026-04-26T11:54:06.522Z</time></trkpt><trkpt lat="43.122135" lon="12.9436783"><ele>597.0</ele><time>2026-04-26T11:54:08.523Z</time></trkpt><trkpt lat="43.12212" lon="12.9435833"><ele>597.0</ele><time>2026-04-26T11:54:11.522Z</time></trkpt><trkpt lat="43.1221883" lon="12.9435617"><ele>597.0</ele><time>2026-04-26T11:54:17.522Z</time></trkpt><trkpt lat="43.1222317" lon="12.94364"><ele>597.0</ele><time>2026-04-26T11:54:19.522Z</time></trkpt><trkpt lat="43.1222783" lon="12.94376"><ele>597.0</ele><time>2026-04-26T11:54:21.522Z</time></trkpt><trkpt lat="43.1223217" lon="12.943855"><ele>597.0</ele><time>2026-04-26T11:54:23.522Z</time></trkpt><trkpt lat="43.1223817" lon="12.9439483"><ele>592.6</ele><time>2026-04-26T11:54:25.522Z</time></trkpt><trkpt lat="43.12246" lon="12.9440483"><ele>588.2</ele><time>2026-04-26T11:54:27.522Z</time></trkpt><trkpt lat="43.1225367" lon="12.944135"><ele>583.8</ele><time>2026-04-26T11:54:29.522Z</time></trkpt><trkpt lat="43.1226033" lon="12.9442533"><ele>579.4</ele><time>2026-04-26T11:54:31.522Z</time></trkpt><trkpt lat="43.1226717" lon="12.9443583"><ele>575.0</ele><time>2026-04-26T11:54:33.522Z</time></trkpt><trkpt lat="43.1227217" lon="12.9444117"><ele>575.0</ele><time>2026-04-26T11:54:35.522Z</time></trkpt><trkpt lat="43.1227467" lon="12.944315"><ele>575.0</ele><time>2026-04-26T11:54:39.522Z</time></trkpt><trkpt lat="43.1227067" lon="12.9442233"><ele>575.0</ele><time>2026-04-26T11:54:41.522Z</time></trkpt><trkpt lat="43.12264" lon="12.94413"><ele>575.0</ele><time>2026-04-26T11:54:43.522Z</time></trkpt><trkpt lat="43.1225833" lon="12.9440417"><ele>575.0</ele><time>2026-04-26T11:54:45.522Z</time></trkpt><trkpt lat="43.1225483" lon="12.9439317"><ele>575.0</ele><time>2026-04-26T11:54:47.522Z</time></trkpt><trkpt lat="43.1225317" lon="12.9437983"><ele>575.0</ele><time>2026-04-26T11:54:49.522Z</time></trkpt><trkpt lat="43.1224967" lon="12.943655"><ele>575.0</ele><time>2026-04-26T11:54:51.522Z</time></trkpt><trkpt lat="43.1224767" lon="12.94354"><ele>575.0</ele><time>2026-04-26T11:54:53.522Z</time></trkpt><trkpt lat="43.1225833" lon="12.9436017"><ele>575.0</ele><time>2026-04-26T11:54:57.522Z</time></trkpt><trkpt lat="43.1226483" lon="12.9436783"><ele>575.0</ele><time>2026-04-26T11:54:59.522Z</time></trkpt><trkpt lat="43.1227267" lon="12.9437433"><ele>575.0</ele><time>2026-04-26T11:55:01.522Z</time></trkpt><trkpt lat="43.122825" lon="12.943825"><ele>575.0</ele><time>2026-04-26T11:55:03.522Z</time></trkpt><trkpt lat="43.1229217" lon="12.9438917"><ele>575.0</ele><time>2026-04-26T11:55:05.522Z</time></trkpt><trkpt lat="43.1230333" lon="12.9439117"><ele>575.0</ele><time>2026-04-26T11:55:07.523Z</time></trkpt><trkpt lat="43.1231283" lon="12.9439117"><ele>575.0</ele><time>2026-04-26T11:55:09.522Z</time></trkpt><trkpt lat="43.1232367" lon="12.94391"><ele>577.1666666666666</ele><time>2026-04-26T11:55:11.522Z</time></trkpt><trkpt lat="43.123355" lon="12.94393"><ele>579.3333333333333</ele><time>2026-04-26T11:55:13.522Z</time></trkpt><trkpt lat="43.1234183" lon="12.943945"><ele>581.5</ele><time>2026-04-26T11:55:14.522Z</time></trkpt><trkpt lat="43.12348" lon="12.9439633"><ele>583.6666666666666</ele><time>2026-04-26T11:55:15.522Z</time></trkpt><trkpt lat="43.123545" lon="12.94397"><ele>585.8333333333334</ele><time>2026-04-26T11:55:16.522Z</time></trkpt><trkpt lat="43.1236117" lon="12.9439733"><ele>588.0</ele><time>2026-04-26T11:55:17.522Z</time></trkpt><trkpt lat="43.1236833" lon="12.94398"><ele>588.0</ele><time>2026-04-26T11:55:18.522Z</time></trkpt><trkpt lat="43.1237633" lon="12.9439917"><ele>588.0</ele><time>2026-04-26T11:55:19.522Z</time></trkpt><trkpt lat="43.1238333" lon="12.9439983"><ele>588.0</ele><time>2026-04-26T11:55:20.522Z</time></trkpt><trkpt lat="43.1239083" lon="12.9440133"><ele>588.0</ele><time>2026-04-26T11:55:21.522Z</time></trkpt><trkpt lat="43.1239867" lon="12.9440317"><ele>588.0</ele><time>2026-04-26T11:55:22.522Z</time></trkpt><trkpt lat="43.1240483" lon="12.94405"><ele>588.0</ele><time>2026-04-26T11:55:23.522Z</time></trkpt><trkpt lat="43.124115" lon="12.9440617"><ele>588.0</ele><time>2026-04-26T11:55:24.522Z</time></trkpt><trkpt lat="43.1241833" lon="12.9440733"><ele>590.6</ele><time>2026-04-26T11:55:25.522Z</time></trkpt><trkpt lat="43.124255" lon="12.9440833"><ele>593.1999999999999</ele><time>2026-04-26T11:55:26.523Z</time></trkpt><trkpt lat="43.1243233" lon="12.9440917"><ele>595.8</ele><time>2026-04-26T11:55:27.523Z</time></trkpt><trkpt lat="43.1244367" lon="12.9440867"><ele>598.4</ele><time>2026-04-26T11:55:29.522Z</time></trkpt><trkpt lat="43.1245417" lon="12.944065"><ele>601.0</ele><time>2026-04-26T11:55:31.522Z</time></trkpt><trkpt lat="43.1246567" lon="12.9440783"><ele>601.0</ele><time>2026-04-26T11:55:33.522Z</time></trkpt><trkpt lat="43.1247617" lon="12.9441483"><ele>601.0</ele><time>2026-04-26T11:55:35.522Z</time></trkpt><trkpt lat="43.1248167" lon="12.9442"><ele>601.0</ele><time>2026-04-26T11:55:36.523Z</time></trkpt><trkpt lat="43.124915" lon="12.94427"><ele>601.0</ele><time>2026-04-26T11:55:38.522Z</time></trkpt><trkpt lat="43.1250167" lon="12.9442767"><ele>601.0</ele><time>2026-04-26T11:55:40.523Z</time></trkpt><trkpt lat="43.12514" lon="12.9442667"><ele>593.5</ele><time>2026-04-26T11:55:42.523Z</time></trkpt><trkpt lat="43.1252583" lon="12.9442767"><ele>586.0</ele><time>2026-04-26T11:55:44.522Z</time></trkpt><trkpt lat="43.1253817" lon="12.944265"><ele>578.5</ele><time>2026-04-26T11:55:46.522Z</time></trkpt><trkpt lat="43.1254917" lon="12.9442617"><ele>571.0</ele><time>2026-04-26T11:55:48.522Z</time></trkpt><trkpt lat="43.1255983" lon="12.9442367"><ele>571.0</ele><time>2026-04-26T11:55:50.522Z</time></trkpt><trkpt lat="43.1257283" lon="12.9442583"><ele>571.0</ele><time>2026-04-26T11:55:52.522Z</time></trkpt><trkpt lat="43.1257967" lon="12.9442617"><ele>571.0</ele><time>2026-04-26T11:55:53.522Z</time></trkpt><trkpt lat="43.1258717" lon="12.9442617"><ele>571.0</ele><time>2026-04-26T11:55:54.522Z</time></trkpt><trkpt lat="43.1259567" lon="12.944265"><ele>571.0</ele><time>2026-04-26T11:55:55.522Z</time></trkpt><trkpt lat="43.1260367" lon="12.9442617"><ele>571.0</ele><time>2026-04-26T11:55:56.522Z</time></trkpt><trkpt lat="43.1261083" lon="12.9442517"><ele>569.8333333333334</ele><time>2026-04-26T11:55:57.522Z</time></trkpt><trkpt lat="43.1261767" lon="12.9442533"><ele>568.6666666666667</ele><time>2026-04-26T11:55:58.523Z</time></trkpt><trkpt lat="43.12625" lon="12.94426"><ele>567.5</ele><time>2026-04-26T11:55:59.522Z</time></trkpt><trkpt lat="43.1263183" lon="12.9442567"><ele>566.3333333333334</ele><time>2026-04-26T11:56:00.523Z</time></trkpt><trkpt lat="43.12642" lon="12.9442133"><ele>565.1666666666666</ele><time>2026-04-26T11:56:02.522Z</time></trkpt><trkpt lat="43.1265" lon="12.9441733"><ele>564.0</ele><time>2026-04-26T11:56:04.522Z</time></trkpt><trkpt lat="43.1266267" lon="12.9442"><ele>563.1666666666666</ele><time>2026-04-26T11:56:06.522Z</time></trkpt><trkpt lat="43.1266967" lon="12.94422"><ele>562.3333333333334</ele><time>2026-04-26T11:56:07.522Z</time></trkpt><trkpt lat="43.12676" lon="12.94424"><ele>561.5</ele><time>2026-04-26T11:56:08.522Z</time></trkpt><trkpt lat="43.1268267" lon="12.944275"><ele>560.6666666666667</ele><time>2026-04-26T11:56:09.522Z</time></trkpt><trkpt lat="43.12694" lon="12.9443117"><ele>559.8333333333334</ele><time>2026-04-26T11:56:11.523Z</time></trkpt><trkpt lat="43.1270067" lon="12.9443267"><ele>559.0</ele><time>2026-04-26T11:56:12.522Z</time></trkpt><trkpt lat="43.1270783" lon="12.9443433"><ele>559.0</ele><time>2026-04-26T11:56:13.522Z</time></trkpt><trkpt lat="43.1271467" lon="12.9443567"><ele>559.0</ele><time>2026-04-26T11:56:14.522Z</time></trkpt><trkpt lat="43.12721" lon="12.94436"><ele>559.0</ele><time>2026-04-26T11:56:15.522Z</time></trkpt><trkpt lat="43.1272733" lon="12.9443433"><ele>559.0</ele><time>2026-04-26T11:56:16.523Z</time></trkpt><trkpt lat="43.1273867" lon="12.9442717"><ele>559.0</ele><time>2026-04-26T11:56:18.522Z</time></trkpt><trkpt lat="43.127495" lon="12.944235"><ele>559.0</ele><time>2026-04-26T11:56:20.522Z</time></trkpt><trkpt lat="43.127595" lon="12.94428"><ele>559.2</ele><time>2026-04-26T11:56:22.522Z</time></trkpt><trkpt lat="43.12765" lon="12.9443517"><ele>559.4</ele><time>2026-04-26T11:56:24.522Z</time></trkpt><trkpt lat="43.1276983" lon="12.9444567"><ele>559.6</ele><time>2026-04-26T11:56:27.522Z</time></trkpt><trkpt lat="43.1277767" lon="12.9444617"><ele>559.8</ele><time>2026-04-26T11:56:29.522Z</time></trkpt><trkpt lat="43.12784" lon="12.944365"><ele>560.0</ele><time>2026-04-26T11:56:31.522Z</time></trkpt><trkpt lat="43.1279317" lon="12.94424"><ele>566.0</ele><time>2026-04-26T11:56:33.523Z</time></trkpt><trkpt lat="43.12799" lon="12.9442"><ele>572.0</ele><time>2026-04-26T11:56:35.522Z</time></trkpt><trkpt lat="43.1280717" lon="12.9441733"><ele>578.0</ele><time>2026-04-26T11:56:42.522Z</time></trkpt><trkpt lat="43.1281443" lon="12.9441165"><ele>584.0</ele><time>2026-04-26T11:56:45.522Z</time></trkpt><trkpt lat="43.1282081" lon="12.9440606"><ele>590.0</ele><time>2026-04-26T11:56:48.522Z</time></trkpt><trkpt lat="43.1282761" lon="12.9440012"><ele>596.0</ele><time>2026-04-26T11:56:52.522Z</time></trkpt><trkpt lat="43.1283363" lon="12.9440769"><ele>597.8</ele><time>2026-04-26T11:56:57.523Z</time></trkpt><trkpt lat="43.1283763" lon="12.9441542"><ele>599.6</ele><time>2026-04-26T11:56:59.523Z</time></trkpt><trkpt lat="43.1284206" lon="12.9442632"><ele>601.4</ele><time>2026-04-26T11:57:01.522Z</time></trkpt><trkpt lat="43.128449" lon="12.9444003"><ele>603.2</ele><time>2026-04-26T11:57:03.523Z</time></trkpt><trkpt lat="43.1284662" lon="12.9445729"><ele>605.0</ele><time>2026-04-26T11:57:05.522Z</time></trkpt><trkpt lat="43.1284882" lon="12.9447176"><ele>600.1666666666666</ele><time>2026-04-26T11:57:07.522Z</time></trkpt><trkpt lat="43.1285339" lon="12.9448136"><ele>595.3333333333333</ele><time>2026-04-26T11:57:09.522Z</time></trkpt><trkpt lat="43.1285999" lon="12.9448698"><ele>590.5</ele><time>2026-04-26T11:57:11.522Z</time></trkpt><trkpt lat="43.1286842" lon="12.9448763"><ele>585.6666666666666</ele><time>2026-04-26T11:57:13.522Z</time></trkpt><trkpt lat="43.1287674" lon="12.9449145"><ele>580.8333333333334</ele><time>2026-04-26T11:57:15.522Z</time></trkpt><trkpt lat="43.1288621" lon="12.9449749"><ele>576.0</ele><time>2026-04-26T11:57:17.522Z</time></trkpt><trkpt lat="43.1289224" lon="12.9450088"><ele>576.0</ele><time>2026-04-26T11:57:18.522Z</time></trkpt><trkpt lat="43.1289835" lon="12.9450399"><ele>576.0</ele><time>2026-04-26T11:57:19.522Z</time></trkpt><trkpt lat="43.1290937" lon="12.9450897"><ele>576.0</ele><time>2026-04-26T11:57:21.522Z</time></trkpt><trkpt lat="43.1291893" lon="12.9451337"><ele>576.0</ele><time>2026-04-26T11:57:23.522Z</time></trkpt><trkpt lat="43.1292781" lon="12.9452055"><ele>576.0</ele><time>2026-04-26T11:57:25.523Z</time></trkpt><trkpt lat="43.1293789" lon="12.9452498"><ele>575.0</ele><time>2026-04-26T11:57:27.522Z</time></trkpt><trkpt lat="43.1295024" lon="12.945308"><ele>574.0</ele><time>2026-04-26T11:57:29.522Z</time></trkpt><trkpt lat="43.1295693" lon="12.9453467"><ele>573.0</ele><time>2026-04-26T11:57:30.523Z</time></trkpt><trkpt lat="43.1296365" lon="12.9453877"><ele>572.0</ele><time>2026-04-26T11:57:31.523Z</time></trkpt><trkpt lat="43.1297" lon="12.9454292"><ele>571.0</ele><time>2026-04-26T11:57:32.522Z</time></trkpt><trkpt lat="43.1297928" lon="12.9454739"><ele>570.0</ele><time>2026-04-26T11:57:34.522Z</time></trkpt><trkpt lat="43.1298367" lon="12.9455367"><ele>577.8</ele><time>2026-04-26T11:57:48.522Z</time></trkpt><trkpt lat="43.1299083" lon="12.9455"><ele>585.6</ele><time>2026-04-26T11:58:03.522Z</time></trkpt><trkpt lat="43.1300217" lon="12.9455367"><ele>593.4</ele><time>2026-04-26T11:58:05.522Z</time></trkpt><trkpt lat="43.130115" lon="12.9456183"><ele>601.2</ele><time>2026-04-26T11:58:07.523Z</time></trkpt><trkpt lat="43.1301933" lon="12.9456933"><ele>609.0</ele><time>2026-04-26T11:58:09.522Z</time></trkpt><trkpt lat="43.13028" lon="12.9457633"><ele>609.0</ele><time>2026-04-26T11:58:11.522Z</time></trkpt><trkpt lat="43.13037" lon="12.9458367"><ele>609.0</ele><time>2026-04-26T11:58:13.523Z</time></trkpt><trkpt lat="43.1304267" lon="12.945915"><ele>609.0</ele><time>2026-04-26T11:58:15.522Z</time></trkpt><trkpt lat="43.1305" lon="12.9459783"><ele>609.0</ele><time>2026-04-26T11:58:17.522Z</time></trkpt><trkpt lat="43.1305833" lon="12.9460367"><ele>609.0</ele><time>2026-04-26T11:58:19.522Z</time></trkpt><trkpt lat="43.1306633" lon="12.9461"><ele>612.0</ele><time>2026-04-26T11:58:21.522Z</time></trkpt><trkpt lat="43.1307467" lon="12.94616"><ele>615.0</ele><time>2026-04-26T11:58:23.522Z</time></trkpt><trkpt lat="43.130855" lon="12.9462183"><ele>618.0</ele><time>2026-04-26T11:58:25.523Z</time></trkpt><trkpt lat="43.1309217" lon="12.9462583"><ele>621.0</ele><time>2026-04-26T11:58:27.522Z</time></trkpt><trkpt lat="43.131" lon="12.9463367"><ele>624.0</ele><time>2026-04-26T11:58:29.523Z</time></trkpt><trkpt lat="43.13107" lon="12.946435"><ele>624.0</ele><time>2026-04-26T11:58:31.523Z</time></trkpt><trkpt lat="43.13115" lon="12.9465317"><ele>624.0</ele><time>2026-04-26T11:58:33.522Z</time></trkpt><trkpt lat="43.1312233" lon="12.9465933"><ele>624.0</ele><time>2026-04-26T11:58:35.522Z</time></trkpt><trkpt lat="43.131295" lon="12.9466333"><ele>624.0</ele><time>2026-04-26T11:58:37.523Z</time></trkpt><trkpt lat="43.1313717" lon="12.9466767"><ele>624.0</ele><time>2026-04-26T11:58:40.522Z</time></trkpt><trkpt lat="43.131435" lon="12.9467117"><ele>624.0</ele><time>2026-04-26T11:58:42.522Z</time></trkpt><trkpt lat="43.131515" lon="12.9467217"><ele>624.0</ele><time>2026-04-26T11:58:44.522Z</time></trkpt><trkpt lat="43.1315833" lon="12.946705"><ele>624.0</ele><time>2026-04-26T11:58:46.522Z</time></trkpt><trkpt lat="43.13165" lon="12.9467"><ele>624.0</ele><time>2026-04-26T11:58:48.522Z</time></trkpt><trkpt lat="43.13174" lon="12.9466833"><ele>624.0</ele><time>2026-04-26T11:58:50.522Z</time></trkpt><trkpt lat="43.1318333" lon="12.9466817"><ele>624.0</ele><time>2026-04-26T11:58:52.522Z</time></trkpt><trkpt lat="43.1318917" lon="12.94672"><ele>624.0</ele><time>2026-04-26T11:58:55.522Z</time></trkpt><trkpt lat="43.1319567" lon="12.9467783"><ele>624.0</ele><time>2026-04-26T11:58:57.523Z</time></trkpt><trkpt lat="43.132065" lon="12.946825"><ele>624.0</ele><time>2026-04-26T11:58:59.522Z</time></trkpt><trkpt lat="43.132185" lon="12.94687"><ele>624.0</ele><time>2026-04-26T11:59:01.523Z</time></trkpt><trkpt lat="43.132265" lon="12.94691"><ele>624.0</ele><time>2026-04-26T11:59:03.522Z</time></trkpt><trkpt lat="43.132335" lon="12.946905"><ele>624.0</ele><time>2026-04-26T11:59:06.522Z</time></trkpt><trkpt lat="43.1324017" lon="12.9468833"><ele>625.1666666666666</ele><time>2026-04-26T11:59:11.522Z</time></trkpt><trkpt lat="43.1324683" lon="12.9468867"><ele>626.3333333333334</ele><time>2026-04-26T11:59:14.522Z</time></trkpt><trkpt lat="43.1325467" lon="12.946865"><ele>627.5</ele><time>2026-04-26T11:59:17.523Z</time></trkpt><trkpt lat="43.1326167" lon="12.946805"><ele>628.6666666666667</ele><time>2026-04-26T11:59:19.522Z</time></trkpt><trkpt lat="43.13269" lon="12.94676"><ele>629.8333333333334</ele><time>2026-04-26T11:59:21.522Z</time></trkpt><trkpt lat="43.1327733" lon="12.9467333"><ele>631.0</ele><time>2026-04-26T11:59:23.522Z</time></trkpt><trkpt lat="43.1328667" lon="12.9467267"><ele>631.0</ele><time>2026-04-26T11:59:25.522Z</time></trkpt><trkpt lat="43.1329483" lon="12.946725"><ele>631.0</ele><time>2026-04-26T11:59:27.522Z</time></trkpt><trkpt lat="43.1330283" lon="12.9467317"><ele>631.0</ele><time>2026-04-26T11:59:36.522Z</time></trkpt><trkpt lat="43.1331017" lon="12.9467683"><ele>631.0</ele><time>2026-04-26T11:59:41.522Z</time></trkpt><trkpt lat="43.1331617" lon="12.9468283"><ele>631.0</ele><time>2026-04-26T11:59:45.522Z</time></trkpt><trkpt lat="43.1331983" lon="12.9469483"><ele>631.0</ele><time>2026-04-26T11:59:48.522Z</time></trkpt><trkpt lat="43.13324" lon="12.9470417"><ele>633.6666666666667</ele><time>2026-04-26T11:59:50.522Z</time></trkpt><trkpt lat="43.1332817" lon="12.9471333"><ele>636.3333333333334</ele><time>2026-04-26T11:59:52.521Z</time></trkpt><trkpt lat="43.1333367" lon="12.94722"><ele>639.0</ele><time>2026-04-26T11:59:54.522Z</time></trkpt><trkpt lat="43.1334017" lon="12.9472933"><ele>641.6666666666666</ele><time>2026-04-26T11:59:56.521Z</time></trkpt><trkpt lat="43.13347" lon="12.9473333"><ele>644.3333333333333</ele><time>2026-04-26T11:59:58.521Z</time></trkpt><trkpt lat="43.1335467" lon="12.94736"><ele>647.0</ele><time>2026-04-26T12:00:00.522Z</time></trkpt><trkpt lat="43.1336383" lon="12.9473817"><ele>647.0</ele><time>2026-04-26T12:00:02.522Z</time></trkpt><trkpt lat="43.1337433" lon="12.9474017"><ele>647.0</ele><time>2026-04-26T12:00:04.521Z</time></trkpt><trkpt lat="43.1338483" lon="12.9474367"><ele>647.0</ele><time>2026-04-26T12:00:06.521Z</time></trkpt><trkpt lat="43.13395" lon="12.94747"><ele>647.0</ele><time>2026-04-26T12:00:08.521Z</time></trkpt><trkpt lat="43.134045" lon="12.9475283"><ele>647.0</ele><time>2026-04-26T12:00:10.521Z</time></trkpt><trkpt lat="43.13415" lon="12.9475817"><ele>645.2</ele><time>2026-04-26T12:00:12.521Z</time></trkpt><trkpt lat="43.1342583" lon="12.9476067"><ele>643.4000000000001</ele><time>2026-04-26T12:00:14.521Z</time></trkpt><trkpt lat="43.1343217" lon="12.94763"><ele>641.5999999999999</ele><time>2026-04-26T12:00:15.521Z</time></trkpt><trkpt lat="43.1343833" lon="12.9476617"><ele>639.8</ele><time>2026-04-26T12:00:16.521Z</time></trkpt><trkpt lat="43.1344883" lon="12.9477183"><ele>638.0</ele><time>2026-04-26T12:00:18.521Z</time></trkpt><trkpt lat="43.134605" lon="12.9477817"><ele>638.0</ele><time>2026-04-26T12:00:20.521Z</time></trkpt><trkpt lat="43.1347217" lon="12.9478267"><ele>638.0</ele><time>2026-04-26T12:00:22.52Z</time></trkpt><trkpt lat="43.13484" lon="12.94785"><ele>638.0</ele><time>2026-04-26T12:00:24.522Z</time></trkpt><trkpt lat="43.1349033" lon="12.9478533"><ele>638.0</ele><time>2026-04-26T12:00:25.521Z</time></trkpt><trkpt lat="43.135025" lon="12.9478617"><ele>638.0</ele><time>2026-04-26T12:00:27.521Z</time></trkpt><trkpt lat="43.1351167" lon="12.9478667"><ele>640.5</ele><time>2026-04-26T12:00:29.522Z</time></trkpt><trkpt lat="43.1351967" lon="12.94791"><ele>643.0</ele><time>2026-04-26T12:00:31.521Z</time></trkpt><trkpt lat="43.1352767" lon="12.9479333"><ele>645.5</ele><time>2026-04-26T12:00:33.521Z</time></trkpt><trkpt lat="43.135355" lon="12.947955"><ele>648.0</ele><time>2026-04-26T12:00:35.521Z</time></trkpt><trkpt lat="43.1354333" lon="12.9479933"><ele>650.5</ele><time>2026-04-26T12:00:37.521Z</time></trkpt><trkpt lat="43.135505" lon="12.9480167"><ele>653.0</ele><time>2026-04-26T12:00:39.521Z</time></trkpt><trkpt lat="43.1355717" lon="12.94805"><ele>653.0</ele><time>2026-04-26T12:00:41.521Z</time></trkpt><trkpt lat="43.135635" lon="12.9480967"><ele>653.0</ele><time>2026-04-26T12:00:43.521Z</time></trkpt><trkpt lat="43.1357167" lon="12.9481417"><ele>653.0</ele><time>2026-04-26T12:00:46.522Z</time></trkpt><trkpt lat="43.1357967" lon="12.9481533"><ele>653.0</ele><time>2026-04-26T12:00:49.521Z</time></trkpt><trkpt lat="43.1358883" lon="12.94817"><ele>653.0</ele><time>2026-04-26T12:00:52.521Z</time></trkpt><trkpt lat="43.135955" lon="12.9482"><ele>653.0</ele><time>2026-04-26T12:00:55.521Z</time></trkpt><trkpt lat="43.1360333" lon="12.948235"><ele>652.3333333333333</ele><time>2026-04-26T12:00:58.521Z</time></trkpt><trkpt lat="43.1361083" lon="12.94822"><ele>651.6666666666666</ele><time>2026-04-26T12:01:00.522Z</time></trkpt><trkpt lat="43.1362233" lon="12.9481983"><ele>651.0</ele><time>2026-04-26T12:01:02.522Z</time></trkpt><trkpt lat="43.1363217" lon="12.94818"><ele>650.3333333333334</ele><time>2026-04-26T12:01:04.521Z</time></trkpt><trkpt lat="43.1363867" lon="12.9481783"><ele>649.6666666666667</ele><time>2026-04-26T12:01:06.521Z</time></trkpt><trkpt lat="43.136445" lon="12.9482517"><ele>649.0</ele><time>2026-04-26T12:01:08.521Z</time></trkpt><trkpt lat="43.1365233" lon="12.94831"><ele>640.8000000000001</ele><time>2026-04-26T12:01:10.521Z</time></trkpt><trkpt lat="43.13663" lon="12.9483833"><ele>632.6</ele><time>2026-04-26T12:01:12.521Z</time></trkpt><trkpt lat="43.1367317" lon="12.9484317"><ele>624.4</ele><time>2026-04-26T12:01:14.522Z</time></trkpt><trkpt lat="43.1368067" lon="12.9484783"><ele>616.2</ele><time>2026-04-26T12:01:16.521Z</time></trkpt><trkpt lat="43.1368817" lon="12.9485333"><ele>608.0</ele><time>2026-04-26T12:01:18.521Z</time></trkpt><trkpt lat="43.13697" lon="12.948575"><ele>608.0</ele><time>2026-04-26T12:01:20.521Z</time></trkpt><trkpt lat="43.1370583" lon="12.9485917"><ele>608.0</ele><time>2026-04-26T12:01:22.521Z</time></trkpt><trkpt lat="43.137125" lon="12.9486267"><ele>608.0</ele><time>2026-04-26T12:01:24.521Z</time></trkpt><trkpt lat="43.1371767" lon="12.9487083"><ele>608.0</ele><time>2026-04-26T12:01:27.521Z</time></trkpt><trkpt lat="43.1372583" lon="12.9487717"><ele>608.0</ele><time>2026-04-26T12:01:30.522Z</time></trkpt><trkpt lat="43.137325" lon="12.9487983"><ele>608.0</ele><time>2026-04-26T12:01:32.522Z</time></trkpt><trkpt lat="43.1373933" lon="12.9488333"><ele>608.8571428571428</ele><time>2026-04-26T12:01:34.522Z</time></trkpt><trkpt lat="43.1374667" lon="12.94885"><ele>609.7142857142858</ele><time>2026-04-26T12:01:41.521Z</time></trkpt><trkpt lat="43.1375333" lon="12.9488433"><ele>610.5714285714286</ele><time>2026-04-26T12:01:44.521Z</time></trkpt><trkpt lat="43.1376017" lon="12.948865"><ele>611.4285714285713</ele><time>2026-04-26T12:01:48.521Z</time></trkpt><trkpt lat="43.13766" lon="12.9489067"><ele>612.2857142857142</ele><time>2026-04-26T12:01:51.521Z</time></trkpt><trkpt lat="43.137745" lon="12.94895"><ele>613.1428571428571</ele><time>2026-04-26T12:01:54.521Z</time></trkpt><trkpt lat="43.1378183" lon="12.9489417"><ele>614.0</ele><time>2026-04-26T12:01:56.521Z</time></trkpt><trkpt lat="43.1378883" lon="12.948905"><ele>614.0</ele><time>2026-04-26T12:01:58.521Z</time></trkpt><trkpt lat="43.1379683" lon="12.9488817"><ele>614.0</ele><time>2026-04-26T12:02:01.521Z</time></trkpt><trkpt lat="43.1380552" lon="12.9488802"><ele>614.0</ele><time>2026-04-26T12:02:05.521Z</time></trkpt><trkpt lat="43.1381233" lon="12.9489167"><ele>614.0</ele><time>2026-04-26T12:02:07.521Z</time></trkpt><trkpt lat="43.138195" lon="12.9489167"><ele>614.0</ele><time>2026-04-26T12:02:09.521Z</time></trkpt><trkpt lat="43.138265" lon="12.9489217"><ele>614.0</ele><time>2026-04-26T12:02:11.522Z</time></trkpt><trkpt lat="43.13833" lon="12.9489433"><ele>612.5</ele><time>2026-04-26T12:02:13.522Z</time></trkpt><trkpt lat="43.1384133" lon="12.948945"><ele>611.0</ele><time>2026-04-26T12:02:16.522Z</time></trkpt><trkpt lat="43.1384883" lon="12.94893"><ele>609.5</ele><time>2026-04-26T12:02:19.522Z</time></trkpt><trkpt lat="43.1385933" lon="12.9488833"><ele>608.0</ele><time>2026-04-26T12:02:32.521Z</time></trkpt><trkpt lat="43.1386717" lon="12.9488867"><ele>606.5</ele><time>2026-04-26T12:02:36.521Z</time></trkpt><trkpt lat="43.1387333" lon="12.9488333"><ele>605.0</ele><time>2026-04-26T12:02:39.522Z</time></trkpt><trkpt lat="43.13881" lon="12.94877"><ele>605.0</ele><time>2026-04-26T12:02:42.521Z</time></trkpt><trkpt lat="43.1388683" lon="12.94872"><ele>605.0</ele><time>2026-04-26T12:02:45.522Z</time></trkpt><trkpt lat="43.1389217" lon="12.9486633"><ele>605.0</ele><time>2026-04-26T12:02:48.522Z</time></trkpt><trkpt lat="43.1389933" lon="12.9485833"><ele>605.0</ele><time>2026-04-26T12:02:51.521Z</time></trkpt><trkpt lat="43.1390617" lon="12.9485283"><ele>605.0</ele><time>2026-04-26T12:02:53.521Z</time></trkpt><trkpt lat="43.13916" lon="12.948515"><ele>605.0</ele><time>2026-04-26T12:02:55.521Z</time></trkpt><trkpt lat="43.139255" lon="12.94852"><ele>606.4</ele><time>2026-04-26T12:02:57.521Z</time></trkpt><trkpt lat="43.1393417" lon="12.9484783"><ele>607.8</ele><time>2026-04-26T12:02:59.521Z</time></trkpt><trkpt lat="43.1394433" lon="12.948405"><ele>609.2</ele><time>2026-04-26T12:03:01.522Z</time></trkpt><trkpt lat="43.1395383" lon="12.94834"><ele>610.6</ele><time>2026-04-26T12:03:03.521Z</time></trkpt><trkpt lat="43.139635" lon="12.9482833"><ele>612.0</ele><time>2026-04-26T12:03:05.522Z</time></trkpt><trkpt lat="43.13973" lon="12.94824"><ele>612.0</ele><time>2026-04-26T12:03:07.522Z</time></trkpt><trkpt lat="43.139805" lon="12.9481967"><ele>612.0</ele><time>2026-04-26T12:03:09.522Z</time></trkpt><trkpt lat="43.1398867" lon="12.948185"><ele>612.0</ele><time>2026-04-26T12:03:11.521Z</time></trkpt><trkpt lat="43.1399783" lon="12.9481683"><ele>612.0</ele><time>2026-04-26T12:03:14.521Z</time></trkpt><trkpt lat="43.1400633" lon="12.9481483"><ele>612.0</ele><time>2026-04-26T12:03:16.521Z</time></trkpt><trkpt lat="43.1401433" lon="12.9481067"><ele>612.0</ele><time>2026-04-26T12:03:18.521Z</time></trkpt><trkpt lat="43.140215" lon="12.9480483"><ele>605.0</ele><time>2026-04-26T12:03:20.521Z</time></trkpt><trkpt lat="43.1402883" lon="12.9480133"><ele>598.0</ele><time>2026-04-26T12:03:22.521Z</time></trkpt><trkpt lat="43.140375" lon="12.9479967"><ele>591.0</ele><time>2026-04-26T12:03:24.521Z</time></trkpt><trkpt lat="43.1404883" lon="12.9479783"><ele>584.0</ele><time>2026-04-26T12:03:26.521Z</time></trkpt><trkpt lat="43.1405517" lon="12.947965"><ele>577.0</ele><time>2026-04-26T12:03:27.522Z</time></trkpt><trkpt lat="43.14066" lon="12.94792"><ele>573.5</ele><time>2026-04-26T12:03:29.521Z</time></trkpt><trkpt lat="43.140735" lon="12.94789"><ele>570.0</ele><time>2026-04-26T12:03:31.521Z</time></trkpt><trkpt lat="43.1408017" lon="12.9478617"><ele>566.5</ele><time>2026-04-26T12:03:33.522Z</time></trkpt><trkpt lat="43.14089" lon="12.9478483"><ele>563.0</ele><time>2026-04-26T12:03:35.521Z</time></trkpt><trkpt lat="43.1409867" lon="12.947885"><ele>559.5</ele><time>2026-04-26T12:03:37.521Z</time></trkpt><trkpt lat="43.141095" lon="12.9479217"><ele>556.0</ele><time>2026-04-26T12:03:39.521Z</time></trkpt><trkpt lat="43.14121" lon="12.9479717"><ele>556.0</ele><time>2026-04-26T12:03:41.521Z</time></trkpt><trkpt lat="43.1413267" lon="12.9480183"><ele>556.0</ele><time>2026-04-26T12:03:43.521Z</time></trkpt><trkpt lat="43.1414317" lon="12.9480433"><ele>556.0</ele><time>2026-04-26T12:03:45.522Z</time></trkpt><trkpt lat="43.1415067" lon="12.9481"><ele>556.0</ele><time>2026-04-26T12:03:47.521Z</time></trkpt><trkpt lat="43.1415767" lon="12.94814"><ele>556.0</ele><time>2026-04-26T12:03:49.521Z</time></trkpt><trkpt lat="43.14166" lon="12.94818"><ele>555.1666666666667</ele><time>2026-04-26T12:03:51.521Z</time></trkpt><trkpt lat="43.14174" lon="12.9482067"><ele>554.3333333333334</ele><time>2026-04-26T12:03:53.522Z</time></trkpt><trkpt lat="43.1418283" lon="12.948205"><ele>553.5</ele><time>2026-04-26T12:03:55.521Z</time></trkpt><trkpt lat="43.1419067" lon="12.9481883"><ele>552.6666666666666</ele><time>2026-04-26T12:03:57.522Z</time></trkpt><trkpt lat="43.14198" lon="12.9481583"><ele>551.8333333333333</ele><time>2026-04-26T12:03:59.521Z</time></trkpt><trkpt lat="43.14206" lon="12.9481417"><ele>551.0</ele><time>2026-04-26T12:04:01.521Z</time></trkpt><trkpt lat="43.1421417" lon="12.9481267"><ele>551.0</ele><time>2026-04-26T12:04:03.521Z</time></trkpt><trkpt lat="43.1422417" lon="12.9481233"><ele>551.0</ele><time>2026-04-26T12:04:05.521Z</time></trkpt><trkpt lat="43.1423333" lon="12.9481317"><ele>551.0</ele><time>2026-04-26T12:04:07.521Z</time></trkpt><trkpt lat="43.1424033" lon="12.9481417"><ele>551.0</ele><time>2026-04-26T12:04:10.521Z</time></trkpt><trkpt lat="43.142465" lon="12.9481733"><ele>551.0</ele><time>2026-04-26T12:04:13.521Z</time></trkpt><trkpt lat="43.1425333" lon="12.9482283"><ele>551.0</ele><time>2026-04-26T12:04:16.521Z</time></trkpt><trkpt lat="43.1425933" lon="12.948265"><ele>549.8333333333333</ele><time>2026-04-26T12:04:18.522Z</time></trkpt><trkpt lat="43.1426833" lon="12.948285"><ele>548.6666666666666</ele><time>2026-04-26T12:04:21.522Z</time></trkpt><trkpt lat="43.1427633" lon="12.9482633"><ele>547.5</ele><time>2026-04-26T12:04:23.521Z</time></trkpt><trkpt lat="43.1428183" lon="12.9482183"><ele>546.3333333333334</ele><time>2026-04-26T12:04:25.522Z</time></trkpt><trkpt lat="43.1428783" lon="12.9481717"><ele>545.1666666666667</ele><time>2026-04-26T12:04:28.521Z</time></trkpt><trkpt lat="43.14294" lon="12.9481433"><ele>544.0</ele><time>2026-04-26T12:04:30.522Z</time></trkpt><trkpt lat="43.1430183" lon="12.9481067"><ele>544.0</ele><time>2026-04-26T12:04:32.522Z</time></trkpt><trkpt lat="43.1431" lon="12.9480817"><ele>544.0</ele><time>2026-04-26T12:04:34.522Z</time></trkpt><trkpt lat="43.1431717" lon="12.9480817"><ele>544.0</ele><time>2026-04-26T12:04:36.521Z</time></trkpt><trkpt lat="43.1432517" lon="12.9480817"><ele>544.0</ele><time>2026-04-26T12:04:38.521Z</time></trkpt><trkpt lat="43.1433333" lon="12.9480683"><ele>544.0</ele><time>2026-04-26T12:04:40.522Z</time></trkpt><trkpt lat="43.1435017" lon="12.9481533"><ele>542.4285714285713</ele><time>2026-04-26T12:04:57.522Z</time></trkpt><trkpt lat="43.1435717" lon="12.9481817"><ele>540.8571428571429</ele><time>2026-04-26T12:04:59.521Z</time></trkpt><trkpt lat="43.1436333" lon="12.9482117"><ele>539.2857142857142</ele><time>2026-04-26T12:05:01.522Z</time></trkpt><trkpt lat="43.14369" lon="12.9482533"><ele>537.7142857142857</ele><time>2026-04-26T12:05:03.521Z</time></trkpt><trkpt lat="43.1437733" lon="12.948275"><ele>536.1428571428571</ele><time>2026-04-26T12:05:06.521Z</time></trkpt><trkpt lat="43.14383" lon="12.948315"><ele>534.5714285714286</ele><time>2026-04-26T12:05:08.522Z</time></trkpt><trkpt lat="43.1438983" lon="12.9483833"><ele>533.0</ele><time>2026-04-26T12:05:17.521Z</time></trkpt><trkpt lat="43.14396" lon="12.94842"><ele>529.1666666666666</ele><time>2026-04-26T12:05:20.521Z</time></trkpt><trkpt lat="43.1440367" lon="12.94848"><ele>525.3333333333333</ele><time>2026-04-26T12:05:23.521Z</time></trkpt><trkpt lat="43.1440883" lon="12.948535"><ele>521.5</ele><time>2026-04-26T12:05:25.521Z</time></trkpt><trkpt lat="43.14415" lon="12.9485617"><ele>517.6666666666666</ele><time>2026-04-26T12:05:27.521Z</time></trkpt><trkpt lat="43.1442183" lon="12.94859"><ele>513.8333333333334</ele><time>2026-04-26T12:05:29.521Z</time></trkpt><trkpt lat="43.1442917" lon="12.9486533"><ele>510.0</ele><time>2026-04-26T12:05:32.522Z</time></trkpt><trkpt lat="43.1443783" lon="12.9487167"><ele>509.8333333333333</ele><time>2026-04-26T12:05:35.521Z</time></trkpt><trkpt lat="43.1444733" lon="12.9487517"><ele>509.66666666666663</ele><time>2026-04-26T12:05:37.521Z</time></trkpt><trkpt lat="43.144565" lon="12.94879"><ele>509.5</ele><time>2026-04-26T12:05:39.521Z</time></trkpt><trkpt lat="43.144625" lon="12.9488283"><ele>509.3333333333333</ele><time>2026-04-26T12:05:41.521Z</time></trkpt><trkpt lat="43.1447" lon="12.9488833"><ele>509.16666666666663</ele><time>2026-04-26T12:05:43.521Z</time></trkpt><trkpt lat="43.1447667" lon="12.9489817"><ele>509.0</ele><time>2026-04-26T12:05:45.522Z</time></trkpt><trkpt lat="43.14485" lon="12.9490617"><ele>508.99999999999994</ele><time>2026-04-26T12:05:47.521Z</time></trkpt><trkpt lat="43.1449067" lon="12.949115"><ele>509.0</ele><time>2026-04-26T12:05:49.521Z</time></trkpt><trkpt lat="43.1448883" lon="12.94922"><ele>509.0</ele><time>2026-04-26T12:05:52.521Z</time></trkpt><trkpt lat="43.1448283" lon="12.94926"><ele>509.0</ele><time>2026-04-26T12:05:54.521Z</time></trkpt><trkpt lat="43.1447733" lon="12.9492133"><ele>508.99999999999994</ele><time>2026-04-26T12:05:56.521Z</time></trkpt><trkpt lat="43.14468" lon="12.9491567"><ele>509.0</ele><time>2026-04-26T12:05:58.521Z</time></trkpt><trkpt lat="43.1445767" lon="12.949105"><ele>508.99999999999994</ele><time>2026-04-26T12:06:00.521Z</time></trkpt><trkpt lat="43.1444633" lon="12.9490633"><ele>509.0</ele><time>2026-04-26T12:06:02.522Z</time></trkpt><trkpt lat="43.1443517" lon="12.9490333"><ele>509.0</ele><time>2026-04-26T12:06:04.521Z</time></trkpt><trkpt lat="43.1442883" lon="12.9490067"><ele>509.0</ele><time>2026-04-26T12:06:05.521Z</time></trkpt><trkpt lat="43.1442267" lon="12.9489867"><ele>508.99999999999994</ele><time>2026-04-26T12:06:06.522Z</time></trkpt><trkpt lat="43.1441467" lon="12.94898"><ele>509.0</ele><time>2026-04-26T12:06:07.522Z</time></trkpt><trkpt lat="43.1440633" lon="12.9489817"><ele>509.16666666666663</ele><time>2026-04-26T12:06:08.521Z</time></trkpt><trkpt lat="43.143975" lon="12.9490083"><ele>509.3333333333333</ele><time>2026-04-26T12:06:09.521Z</time></trkpt><trkpt lat="43.1438933" lon="12.94905"><ele>509.5</ele><time>2026-04-26T12:06:10.521Z</time></trkpt><trkpt lat="43.14382" lon="12.9490867"><ele>509.66666666666663</ele><time>2026-04-26T12:06:11.521Z</time></trkpt><trkpt lat="43.143755" lon="12.9491217"><ele>509.8333333333333</ele><time>2026-04-26T12:06:12.522Z</time></trkpt><trkpt lat="43.1436567" lon="12.9491783"><ele>510.0</ele><time>2026-04-26T12:06:14.521Z</time></trkpt><trkpt lat="43.143605" lon="12.9492283"><ele>512.3333333333334</ele><time>2026-04-26T12:06:16.521Z</time></trkpt><trkpt lat="43.143645" lon="12.9493067"><ele>514.6666666666666</ele><time>2026-04-26T12:07:47.52Z</time></trkpt><trkpt lat="43.143705" lon="12.9493333"><ele>517.0</ele><time>2026-04-26T12:07:48.521Z</time></trkpt><trkpt lat="43.14378" lon="12.9493533"><ele>519.3333333333333</ele><time>2026-04-26T12:07:49.52Z</time></trkpt><trkpt lat="43.14387" lon="12.949385"><ele>521.6666666666666</ele><time>2026-04-26T12:07:50.52Z</time></trkpt><trkpt lat="43.143965" lon="12.9494067"><ele>524.0</ele><time>2026-04-26T12:07:51.521Z</time></trkpt><trkpt lat="43.1440433" lon="12.94943"><ele>524.4</ele><time>2026-04-26T12:07:52.52Z</time></trkpt><trkpt lat="43.1441317" lon="12.94946"><ele>524.8</ele><time>2026-04-26T12:07:53.52Z</time></trkpt><trkpt lat="43.1442267" lon="12.9494867"><ele>525.2</ele><time>2026-04-26T12:07:54.52Z</time></trkpt><trkpt lat="43.14432" lon="12.9495167"><ele>525.6</ele><time>2026-04-26T12:07:55.52Z</time></trkpt><trkpt lat="43.1444167" lon="12.9495483"><ele>526.0</ele><time>2026-04-26T12:07:56.52Z</time></trkpt><trkpt lat="43.1445117" lon="12.9495767"><ele>526.0</ele><time>2026-04-26T12:07:57.521Z</time></trkpt><trkpt lat="43.1446083" lon="12.94959"><ele>526.0</ele><time>2026-04-26T12:07:58.52Z</time></trkpt><trkpt lat="43.1447" lon="12.9496167"><ele>526.0</ele><time>2026-04-26T12:07:59.52Z</time></trkpt><trkpt lat="43.1447967" lon="12.9496483"><ele>526.0</ele><time>2026-04-26T12:08:00.52Z</time></trkpt><trkpt lat="43.14489" lon="12.94968"><ele>526.0</ele><time>2026-04-26T12:08:01.52Z</time></trkpt><trkpt lat="43.1449967" lon="12.949695"><ele>525.2</ele><time>2026-04-26T12:08:02.521Z</time></trkpt><trkpt lat="43.145095" lon="12.9497017"><ele>524.4000000000001</ele><time>2026-04-26T12:08:03.52Z</time></trkpt><trkpt lat="43.145195" lon="12.9496933"><ele>523.6</ele><time>2026-04-26T12:08:04.52Z</time></trkpt><trkpt lat="43.145295" lon="12.949675"><ele>522.8000000000001</ele><time>2026-04-26T12:08:05.52Z</time></trkpt><trkpt lat="43.1454" lon="12.9496333"><ele>522.0</ele><time>2026-04-26T12:08:06.52Z</time></trkpt><trkpt lat="43.1454933" lon="12.949575"><ele>522.0</ele><time>2026-04-26T12:08:07.52Z</time></trkpt><trkpt lat="43.1456017" lon="12.9495133"><ele>522.0</ele><time>2026-04-26T12:08:08.521Z</time></trkpt><trkpt lat="43.145705" lon="12.949475"><ele>522.0</ele><time>2026-04-26T12:08:09.52Z</time></trkpt><trkpt lat="43.1457967" lon="12.9494283"><ele>522.0</ele><time>2026-04-26T12:08:10.521Z</time></trkpt><trkpt lat="43.1458867" lon="12.94941"><ele>522.0</ele><time>2026-04-26T12:08:11.52Z</time></trkpt><trkpt lat="43.1459633" lon="12.949395"><ele>522.4</ele><time>2026-04-26T12:08:12.52Z</time></trkpt><trkpt lat="43.146045" lon="12.9493733"><ele>522.8000000000001</ele><time>2026-04-26T12:08:13.52Z</time></trkpt><trkpt lat="43.14614" lon="12.9493533"><ele>523.2</ele><time>2026-04-26T12:08:14.52Z</time></trkpt><trkpt lat="43.1462517" lon="12.9493483"><ele>523.6</ele><time>2026-04-26T12:08:15.521Z</time></trkpt><trkpt lat="43.1463417" lon="12.9493783"><ele>524.0</ele><time>2026-04-26T12:08:16.52Z</time></trkpt><trkpt lat="43.1464233" lon="12.9494367"><ele>524.0</ele><time>2026-04-26T12:08:17.521Z</time></trkpt><trkpt lat="43.1465183" lon="12.9494783"><ele>524.0</ele><time>2026-04-26T12:08:18.52Z</time></trkpt><trkpt lat="43.1465933" lon="12.949515"><ele>524.0</ele><time>2026-04-26T12:08:19.52Z</time></trkpt><trkpt lat="43.1466667" lon="12.9495733"><ele>524.0</ele><time>2026-04-26T12:08:20.521Z</time></trkpt><trkpt lat="43.1467217" lon="12.94962"><ele>524.0</ele><time>2026-04-26T12:08:21.521Z</time></trkpt><trkpt lat="43.1467933" lon="12.949665"><ele>524.0</ele><time>2026-04-26T12:08:22.52Z</time></trkpt><trkpt lat="43.1468733" lon="12.949715"><ele>522.5</ele><time>2026-04-26T12:08:23.52Z</time></trkpt><trkpt lat="43.146965" lon="12.9497783"><ele>521.0</ele><time>2026-04-26T12:08:24.52Z</time></trkpt><trkpt lat="43.1470633" lon="12.9498467"><ele>519.5</ele><time>2026-04-26T12:08:25.521Z</time></trkpt><trkpt lat="43.1471617" lon="12.94994"><ele>518.0</ele><time>2026-04-26T12:08:26.52Z</time></trkpt><trkpt lat="43.1472733" lon="12.950035"><ele>517.0</ele><time>2026-04-26T12:08:27.52Z</time></trkpt><trkpt lat="43.1474" lon="12.9501283"><ele>516.0</ele><time>2026-04-26T12:08:28.521Z</time></trkpt><trkpt lat="43.1475133" lon="12.950235"><ele>515.0</ele><time>2026-04-26T12:08:29.52Z</time></trkpt><trkpt lat="43.1476283" lon="12.9503317"><ele>514.0</ele><time>2026-04-26T12:08:30.521Z</time></trkpt><trkpt lat="43.1477467" lon="12.9503967"><ele>514.0</ele><time>2026-04-26T12:08:31.521Z</time></trkpt><trkpt lat="43.14785" lon="12.950475"><ele>514.0</ele><time>2026-04-26T12:08:32.52Z</time></trkpt><trkpt lat="43.1479533" lon="12.9505367"><ele>514.0</ele><time>2026-04-26T12:08:33.52Z</time></trkpt><trkpt lat="43.14804" lon="12.9505983"><ele>514.0</ele><time>2026-04-26T12:08:34.52Z</time></trkpt><trkpt lat="43.1481117" lon="12.9506617"><ele>514.0</ele><time>2026-04-26T12:08:35.52Z</time></trkpt><trkpt lat="43.148185" lon="12.9507117"><ele>514.6</ele><time>2026-04-26T12:08:36.52Z</time></trkpt><trkpt lat="43.148255" lon="12.9507667"><ele>515.2</ele><time>2026-04-26T12:08:37.52Z</time></trkpt><trkpt lat="43.14833" lon="12.9508267"><ele>515.8000000000001</ele><time>2026-04-26T12:08:38.52Z</time></trkpt><trkpt lat="43.14841" lon="12.95089"><ele>516.4</ele><time>2026-04-26T12:08:39.52Z</time></trkpt><trkpt lat="43.148485" lon="12.9509767"><ele>517.0</ele><time>2026-04-26T12:08:40.52Z</time></trkpt><trkpt lat="43.148545" lon="12.951095"><ele>517.0</ele><time>2026-04-26T12:08:41.52Z</time></trkpt><trkpt lat="43.148605" lon="12.951225"><ele>517.0</ele><time>2026-04-26T12:08:42.52Z</time></trkpt><trkpt lat="43.148665" lon="12.9513567"><ele>517.0</ele><time>2026-04-26T12:08:43.52Z</time></trkpt><trkpt lat="43.1487367" lon="12.9515"><ele>517.0</ele><time>2026-04-26T12:08:44.52Z</time></trkpt><trkpt lat="43.1488183" lon="12.95165"><ele>515.4</ele><time>2026-04-26T12:08:45.52Z</time></trkpt><trkpt lat="43.1488767" lon="12.9517917"><ele>513.8000000000001</ele><time>2026-04-26T12:08:46.52Z</time></trkpt><trkpt lat="43.1489383" lon="12.9519167"><ele>512.2</ele><time>2026-04-26T12:08:47.52Z</time></trkpt><trkpt lat="43.1490167" lon="12.9520167"><ele>510.6</ele><time>2026-04-26T12:08:48.52Z</time></trkpt><trkpt lat="43.1490967" lon="12.9521183"><ele>509.0</ele><time>2026-04-26T12:08:49.521Z</time></trkpt><trkpt lat="43.1491883" lon="12.9522067"><ele>509.0</ele><time>2026-04-26T12:08:50.52Z</time></trkpt><trkpt lat="43.149285" lon="12.9522833"><ele>509.0</ele><time>2026-04-26T12:08:51.52Z</time></trkpt><trkpt lat="43.149375" lon="12.952365"><ele>509.0</ele><time>2026-04-26T12:08:52.52Z</time></trkpt><trkpt lat="43.149465" lon="12.9524567"><ele>509.0</ele><time>2026-04-26T12:08:53.52Z</time></trkpt><trkpt lat="43.1495417" lon="12.9525683"><ele>509.0</ele><time>2026-04-26T12:08:54.52Z</time></trkpt><trkpt lat="43.1496183" lon="12.9527017"><ele>516.0</ele><time>2026-04-26T12:08:55.52Z</time></trkpt><trkpt lat="43.1496733" lon="12.9528583"><ele>523.0</ele><time>2026-04-26T12:08:56.52Z</time></trkpt><trkpt lat="43.149715" lon="12.9530317"><ele>530.0</ele><time>2026-04-26T12:08:57.52Z</time></trkpt><trkpt lat="43.1497417" lon="12.9532183"><ele>537.0</ele><time>2026-04-26T12:08:58.521Z</time></trkpt><trkpt lat="43.1497717" lon="12.9533983"><ele>542.0</ele><time>2026-04-26T12:08:59.52Z</time></trkpt><trkpt lat="43.1498" lon="12.9535733"><ele>547.0</ele><time>2026-04-26T12:09:00.521Z</time></trkpt><trkpt lat="43.149825" lon="12.9537317"><ele>552.0</ele><time>2026-04-26T12:09:01.52Z</time></trkpt><trkpt lat="43.1498467" lon="12.953895"><ele>557.0</ele><time>2026-04-26T12:09:02.52Z</time></trkpt><trkpt lat="43.1498667" lon="12.9540533"><ele>559.0</ele><time>2026-04-26T12:09:03.52Z</time></trkpt><trkpt lat="43.1498783" lon="12.9541983"><ele>561.0</ele><time>2026-04-26T12:09:04.52Z</time></trkpt><trkpt lat="43.14988" lon="12.9543483"><ele>563.0</ele><time>2026-04-26T12:09:05.52Z</time></trkpt><trkpt lat="43.1498783" lon="12.9544917"><ele>565.0</ele><time>2026-04-26T12:09:06.521Z</time></trkpt><trkpt lat="43.1498783" lon="12.9546383"><ele>567.0</ele><time>2026-04-26T12:09:07.52Z</time></trkpt><trkpt lat="43.1498683" lon="12.9547783"><ele>567.0</ele><time>2026-04-26T12:09:08.52Z</time></trkpt><trkpt lat="43.1498633" lon="12.9549167"><ele>567.0</ele><time>2026-04-26T12:09:09.521Z</time></trkpt><trkpt lat="43.1498583" lon="12.9550633"><ele>567.0</ele><time>2026-04-26T12:09:10.52Z</time></trkpt><trkpt lat="43.1498567" lon="12.9552217"><ele>567.0</ele><time>2026-04-26T12:09:11.52Z</time></trkpt><trkpt lat="43.1498567" lon="12.955395"><ele>569.75</ele><time>2026-04-26T12:09:12.52Z</time></trkpt><trkpt lat="43.1498683" lon="12.9555683"><ele>572.5</ele><time>2026-04-26T12:09:13.521Z</time></trkpt><trkpt lat="43.149895" lon="12.9557433"><ele>575.25</ele><time>2026-04-26T12:09:14.52Z</time></trkpt><trkpt lat="43.1499383" lon="12.9559233"><ele>578.0</ele><time>2026-04-26T12:09:15.52Z</time></trkpt><trkpt lat="43.1500033" lon="12.9560933"><ele>556.6666666666666</ele><time>2026-04-26T12:09:16.52Z</time></trkpt><trkpt lat="43.1500817" lon="12.9562517"><ele>535.3333333333334</ele><time>2026-04-26T12:09:17.52Z</time></trkpt><trkpt lat="43.1501833" lon="12.9564217"><ele>514.0</ele><time>2026-04-26T12:09:18.52Z</time></trkpt><trkpt lat="43.1502967" lon="12.9565867"><ele>517.5</ele><time>2026-04-26T12:09:19.52Z</time></trkpt><trkpt lat="43.1504067" lon="12.956745"><ele>521.0</ele><time>2026-04-26T12:09:20.52Z</time></trkpt><trkpt lat="43.1505033" lon="12.9568967"><ele>524.5</ele><time>2026-04-26T12:09:21.52Z</time></trkpt><trkpt lat="43.1505867" lon="12.9570483"><ele>528.0</ele><time>2026-04-26T12:09:22.52Z</time></trkpt><trkpt lat="43.1506517" lon="12.957205"><ele>528.0</ele><time>2026-04-26T12:09:23.52Z</time></trkpt><trkpt lat="43.1506983" lon="12.9573683"><ele>528.0</ele><time>2026-04-26T12:09:24.52Z</time></trkpt><trkpt lat="43.1507183" lon="12.9575583"><ele>528.0</ele><time>2026-04-26T12:09:25.52Z</time></trkpt><trkpt lat="43.1507167" lon="12.9577617"><ele>528.0</ele><time>2026-04-26T12:09:26.52Z</time></trkpt><trkpt lat="43.1507117" lon="12.957965"><ele>516.0</ele><time>2026-04-26T12:09:27.52Z</time></trkpt><trkpt lat="43.1507083" lon="12.95818"><ele>504.0</ele><time>2026-04-26T12:09:28.521Z</time></trkpt><trkpt lat="43.150715" lon="12.958395"><ele>492.0</ele><time>2026-04-26T12:09:29.52Z</time></trkpt><trkpt lat="43.150745" lon="12.95861"><ele>492.0</ele><time>2026-04-26T12:09:30.52Z</time></trkpt><trkpt lat="43.150795" lon="12.9588183"><ele>492.0</ele><time>2026-04-26T12:09:31.52Z</time></trkpt><trkpt lat="43.1508717" lon="12.9590167"><ele>492.0</ele><time>2026-04-26T12:09:32.52Z</time></trkpt><trkpt lat="43.15097" lon="12.9592"><ele>493.33333333333337</ele><time>2026-04-26T12:09:33.52Z</time></trkpt><trkpt lat="43.1510783" lon="12.9593717"><ele>494.6666666666667</ele><time>2026-04-26T12:09:34.521Z</time></trkpt><trkpt lat="43.151175" lon="12.9595467"><ele>496.0</ele><time>2026-04-26T12:09:35.52Z</time></trkpt><trkpt lat="43.1512717" lon="12.9597267"><ele>496.0</ele><time>2026-04-26T12:09:36.52Z</time></trkpt><trkpt lat="43.15137" lon="12.9599233"><ele>496.0</ele><time>2026-04-26T12:09:37.52Z</time></trkpt><trkpt lat="43.1514467" lon="12.9601367"><ele>496.0</ele><time>2026-04-26T12:09:38.521Z</time></trkpt><trkpt lat="43.151495" lon="12.96037"><ele>495.0</ele><time>2026-04-26T12:09:39.52Z</time></trkpt><trkpt lat="43.1515367" lon="12.9606067"><ele>494.0</ele><time>2026-04-26T12:09:40.521Z</time></trkpt><trkpt lat="43.1515833" lon="12.9608417"><ele>493.0</ele><time>2026-04-26T12:09:41.52Z</time></trkpt><trkpt lat="43.1516367" lon="12.9610733"><ele>493.33333333333337</ele><time>2026-04-26T12:09:42.52Z</time></trkpt><trkpt lat="43.1516867" lon="12.9613083"><ele>493.66666666666663</ele><time>2026-04-26T12:09:43.52Z</time></trkpt><trkpt lat="43.1517467" lon="12.961535"><ele>494.0</ele><time>2026-04-26T12:09:44.52Z</time></trkpt><trkpt lat="43.1518083" lon="12.96176"><ele>494.0</ele><time>2026-04-26T12:09:45.52Z</time></trkpt><trkpt lat="43.1518683" lon="12.96198"><ele>494.0</ele><time>2026-04-26T12:09:46.521Z</time></trkpt><trkpt lat="43.1519283" lon="12.9621817"><ele>494.0</ele><time>2026-04-26T12:09:47.52Z</time></trkpt><trkpt lat="43.151995" lon="12.9623883"><ele>497.66666666666663</ele><time>2026-04-26T12:09:48.52Z</time></trkpt><trkpt lat="43.1520733" lon="12.9625967"><ele>501.33333333333337</ele><time>2026-04-26T12:09:49.521Z</time></trkpt><trkpt lat="43.1521683" lon="12.96279"><ele>505.0</ele><time>2026-04-26T12:09:50.52Z</time></trkpt><trkpt lat="43.1522633" lon="12.9629767"><ele>502.6666666666667</ele><time>2026-04-26T12:09:51.52Z</time></trkpt><trkpt lat="43.152375" lon="12.9631433"><ele>500.33333333333337</ele><time>2026-04-26T12:09:52.52Z</time></trkpt><trkpt lat="43.1525083" lon="12.9632983"><ele>498.0</ele><time>2026-04-26T12:09:53.52Z</time></trkpt><trkpt lat="43.1526367" lon="12.9634433"><ele>498.0</ele><time>2026-04-26T12:09:54.52Z</time></trkpt><trkpt lat="43.1527617" lon="12.9635933"><ele>498.0</ele><time>2026-04-26T12:09:55.52Z</time></trkpt><trkpt lat="43.15287" lon="12.9637433"><ele>498.0</ele><time>2026-04-26T12:09:56.521Z</time></trkpt><trkpt lat="43.1529783" lon="12.9638933"><ele>498.0</ele><time>2026-04-26T12:09:57.521Z</time></trkpt><trkpt lat="43.1530633" lon="12.9640717"><ele>498.0</ele><time>2026-04-26T12:09:58.52Z</time></trkpt><trkpt lat="43.1531333" lon="12.9642633"><ele>498.0</ele><time>2026-04-26T12:09:59.52Z</time></trkpt><trkpt lat="43.1532117" lon="12.9644617"><ele>493.33333333333337</ele><time>2026-04-26T12:10:00.52Z</time></trkpt><trkpt lat="43.1532933" lon="12.9646533"><ele>488.6666666666667</ele><time>2026-04-26T12:10:01.52Z</time></trkpt><trkpt lat="43.1533917" lon="12.9648333"><ele>484.0</ele><time>2026-04-26T12:10:02.52Z</time></trkpt><trkpt lat="43.1535" lon="12.9650083"><ele>493.33333333333337</ele><time>2026-04-26T12:10:03.52Z</time></trkpt><trkpt lat="43.153615" lon="12.9651917"><ele>502.66666666666663</ele><time>2026-04-26T12:10:04.521Z</time></trkpt><trkpt lat="43.1537317" lon="12.9653817"><ele>512.0</ele><time>2026-04-26T12:10:05.52Z</time></trkpt><trkpt lat="43.1538483" lon="12.965575"><ele>512.0</ele><time>2026-04-26T12:10:06.52Z</time></trkpt><trkpt lat="43.1539583" lon="12.9657433"><ele>512.0</ele><time>2026-04-26T12:10:07.52Z</time></trkpt><trkpt lat="43.1540633" lon="12.9659633"><ele>512.0</ele><time>2026-04-26T12:10:08.52Z</time></trkpt><trkpt lat="43.154175" lon="12.9661717"><ele>511.0</ele><time>2026-04-26T12:10:09.52Z</time></trkpt><trkpt lat="43.15429" lon="12.9663733"><ele>510.0</ele><time>2026-04-26T12:10:10.52Z</time></trkpt><trkpt lat="43.154415" lon="12.9665717"><ele>509.0</ele><time>2026-04-26T12:10:11.52Z</time></trkpt><trkpt lat="43.1545433" lon="12.96676"><ele>509.0</ele><time>2026-04-26T12:10:12.52Z</time></trkpt><trkpt lat="43.15467" lon="12.9669317"><ele>509.0</ele><time>2026-04-26T12:10:13.52Z</time></trkpt><trkpt lat="43.1547917" lon="12.9670817"><ele>509.0</ele><time>2026-04-26T12:10:14.52Z</time></trkpt><trkpt lat="43.15492" lon="12.9672033"><ele>505.0</ele><time>2026-04-26T12:10:15.52Z</time></trkpt><trkpt lat="43.1550567" lon="12.9673367"><ele>501.0</ele><time>2026-04-26T12:10:16.52Z</time></trkpt><trkpt lat="43.1551967" lon="12.9674667"><ele>497.0</ele><time>2026-04-26T12:10:17.52Z</time></trkpt><trkpt lat="43.155335" lon="12.9675933"><ele>497.0</ele><time>2026-04-26T12:10:18.52Z</time></trkpt><trkpt lat="43.15546" lon="12.9676983"><ele>497.0</ele><time>2026-04-26T12:10:19.52Z</time></trkpt><trkpt lat="43.155575" lon="12.9678283"><ele>497.0</ele><time>2026-04-26T12:10:20.52Z</time></trkpt><trkpt lat="43.1556767" lon="12.96795"><ele>497.0</ele><time>2026-04-26T12:10:21.52Z</time></trkpt><trkpt lat="43.155775" lon="12.968055"><ele>494.75</ele><time>2026-04-26T12:10:22.52Z</time></trkpt><trkpt lat="43.155845" lon="12.968235"><ele>492.5</ele><time>2026-04-26T12:10:23.52Z</time></trkpt><trkpt lat="43.1559133" lon="12.96841"><ele>490.25</ele><time>2026-04-26T12:10:24.521Z</time></trkpt><trkpt lat="43.155965" lon="12.9685933"><ele>488.0</ele><time>2026-04-26T12:10:25.52Z</time></trkpt><trkpt lat="43.15599" lon="12.9688117"><ele>488.0</ele><time>2026-04-26T12:10:26.52Z</time></trkpt><trkpt lat="43.156005" lon="12.9690233"><ele>488.0</ele><time>2026-04-26T12:10:27.52Z</time></trkpt><trkpt lat="43.1560233" lon="12.96924"><ele>488.0</ele><time>2026-04-26T12:10:28.521Z</time></trkpt><trkpt lat="43.156065" lon="12.9694583"><ele>490.66666666666663</ele><time>2026-04-26T12:10:29.52Z</time></trkpt><trkpt lat="43.1561233" lon="12.96968"><ele>493.33333333333337</ele><time>2026-04-26T12:10:30.52Z</time></trkpt><trkpt lat="43.1561867" lon="12.9698733"><ele>496.0</ele><time>2026-04-26T12:10:31.52Z</time></trkpt><trkpt lat="43.1562517" lon="12.9700733"><ele>496.0</ele><time>2026-04-26T12:10:32.521Z</time></trkpt><trkpt lat="43.1563333" lon="12.9702867"><ele>496.0</ele><time>2026-04-26T12:10:33.52Z</time></trkpt><trkpt lat="43.1564083" lon="12.9704833"><ele>496.0</ele><time>2026-04-26T12:10:34.52Z</time></trkpt><trkpt lat="43.156495" lon="12.9706533"><ele>491.25</ele><time>2026-04-26T12:10:35.52Z</time></trkpt><trkpt lat="43.15659" lon="12.9708183"><ele>486.5</ele><time>2026-04-26T12:10:36.521Z</time></trkpt><trkpt lat="43.1566833" lon="12.9709717"><ele>481.75</ele><time>2026-04-26T12:10:37.52Z</time></trkpt><trkpt lat="43.15679" lon="12.97109"><ele>477.0</ele><time>2026-04-26T12:10:38.52Z</time></trkpt><trkpt lat="43.1569033" lon="12.9711983"><ele>477.0</ele><time>2026-04-26T12:10:39.521Z</time></trkpt><trkpt lat="43.1570333" lon="12.9712667"><ele>477.0</ele><time>2026-04-26T12:10:40.52Z</time></trkpt><trkpt lat="43.1571767" lon="12.971315"><ele>477.0</ele><time>2026-04-26T12:10:41.521Z</time></trkpt><trkpt lat="43.1573217" lon="12.9713483"><ele>477.0</ele><time>2026-04-26T12:10:42.521Z</time></trkpt><trkpt lat="43.1574717" lon="12.9713867"><ele>477.25</ele><time>2026-04-26T12:10:43.52Z</time></trkpt><trkpt lat="43.1576183" lon="12.9714317"><ele>477.5</ele><time>2026-04-26T12:10:44.521Z</time></trkpt><trkpt lat="43.1577633" lon="12.9714617"><ele>477.75</ele><time>2026-04-26T12:10:45.521Z</time></trkpt><trkpt lat="43.1579017" lon="12.9715367"><ele>478.0</ele><time>2026-04-26T12:10:46.521Z</time></trkpt><trkpt lat="43.1580467" lon="12.971615"><ele>480.0</ele><time>2026-04-26T12:10:47.52Z</time></trkpt><trkpt lat="43.1581833" lon="12.9717433"><ele>482.0</ele><time>2026-04-26T12:10:48.52Z</time></trkpt><trkpt lat="43.15832" lon="12.9718667"><ele>484.0</ele><time>2026-04-26T12:10:49.52Z</time></trkpt><trkpt lat="43.1584633" lon="12.972005"><ele>484.0</ele><time>2026-04-26T12:10:50.52Z</time></trkpt><trkpt lat="43.1586117" lon="12.9721333"><ele>484.0</ele><time>2026-04-26T12:10:51.52Z</time></trkpt><trkpt lat="43.1587567" lon="12.9722667"><ele>484.0</ele><time>2026-04-26T12:10:52.52Z</time></trkpt><trkpt lat="43.1589117" lon="12.9723883"><ele>484.33333333333337</ele><time>2026-04-26T12:10:53.52Z</time></trkpt><trkpt lat="43.159085" lon="12.9724717"><ele>484.66666666666663</ele><time>2026-04-26T12:10:54.52Z</time></trkpt><trkpt lat="43.159265" lon="12.9725333"><ele>485.0</ele><time>2026-04-26T12:10:55.521Z</time></trkpt><trkpt lat="43.1594467" lon="12.9726017"><ele>485.0</ele><time>2026-04-26T12:10:56.52Z</time></trkpt><trkpt lat="43.1596267" lon="12.9726667"><ele>485.0</ele><time>2026-04-26T12:10:57.52Z</time></trkpt><trkpt lat="43.1598067" lon="12.9727267"><ele>485.0</ele><time>2026-04-26T12:10:58.52Z</time></trkpt><trkpt lat="43.1599867" lon="12.9727883"><ele>481.66666666666663</ele><time>2026-04-26T12:10:59.52Z</time></trkpt><trkpt lat="43.1601583" lon="12.97284"><ele>478.33333333333337</ele><time>2026-04-26T12:11:00.52Z</time></trkpt><trkpt lat="43.1603333" lon="12.9728783"><ele>475.0</ele><time>2026-04-26T12:11:01.521Z</time></trkpt><trkpt lat="43.1604967" lon="12.9729167"><ele>475.0</ele><time>2026-04-26T12:11:02.521Z</time></trkpt><trkpt lat="43.1606333" lon="12.9730183"><ele>475.0</ele><time>2026-04-26T12:11:03.52Z</time></trkpt><trkpt lat="43.1607767" lon="12.9731"><ele>475.0</ele><time>2026-04-26T12:11:04.521Z</time></trkpt><trkpt lat="43.1609167" lon="12.9731967"><ele>473.6666666666667</ele><time>2026-04-26T12:11:05.52Z</time></trkpt><trkpt lat="43.16105" lon="12.9733183"><ele>472.33333333333337</ele><time>2026-04-26T12:11:06.521Z</time></trkpt><trkpt lat="43.1611933" lon="12.9734317"><ele>471.0</ele><time>2026-04-26T12:11:07.52Z</time></trkpt><trkpt lat="43.1613483" lon="12.9735467"><ele>470.0</ele><time>2026-04-26T12:11:08.52Z</time></trkpt><trkpt lat="43.1615167" lon="12.9736467"><ele>469.0</ele><time>2026-04-26T12:11:09.52Z</time></trkpt><trkpt lat="43.161685" lon="12.9737533"><ele>468.0</ele><time>2026-04-26T12:11:10.521Z</time></trkpt><trkpt lat="43.1618617" lon="12.9738283"><ele>468.0</ele><time>2026-04-26T12:11:11.52Z</time></trkpt><trkpt lat="43.162045" lon="12.973915"><ele>468.0</ele><time>2026-04-26T12:11:12.52Z</time></trkpt><trkpt lat="43.16222" lon="12.9740267"><ele>468.0</ele><time>2026-04-26T12:11:13.52Z</time></trkpt><trkpt lat="43.162405" lon="12.9741083"><ele>477.0</ele><time>2026-04-26T12:11:14.52Z</time></trkpt><trkpt lat="43.162585" lon="12.9742067"><ele>486.0</ele><time>2026-04-26T12:11:15.52Z</time></trkpt><trkpt lat="43.16276" lon="12.9742933"><ele>495.0</ele><time>2026-04-26T12:11:16.52Z</time></trkpt><trkpt lat="43.162945" lon="12.9743567"><ele>495.0</ele><time>2026-04-26T12:11:17.52Z</time></trkpt><trkpt lat="43.1631383" lon="12.9743817"><ele>495.0</ele><time>2026-04-26T12:11:18.52Z</time></trkpt><trkpt lat="43.1633233" lon="12.9743933"><ele>495.0</ele><time>2026-04-26T12:11:19.52Z</time></trkpt><trkpt lat="43.163505" lon="12.9743933"><ele>497.66666666666663</ele><time>2026-04-26T12:11:20.521Z</time></trkpt><trkpt lat="43.16368" lon="12.97439"><ele>500.3333333333333</ele><time>2026-04-26T12:11:21.521Z</time></trkpt><trkpt lat="43.1638367" lon="12.9744"><ele>503.0</ele><time>2026-04-26T12:11:22.521Z</time></trkpt><trkpt lat="43.1639817" lon="12.9744133"><ele>499.5</ele><time>2026-04-26T12:11:23.52Z</time></trkpt><trkpt lat="43.16412" lon="12.9744367"><ele>496.0</ele><time>2026-04-26T12:11:24.52Z</time></trkpt><trkpt lat="43.16425" lon="12.97449"><ele>492.5</ele><time>2026-04-26T12:11:25.521Z</time></trkpt><trkpt lat="43.1643833" lon="12.974555"><ele>489.0</ele><time>2026-04-26T12:11:26.52Z</time></trkpt><trkpt lat="43.1645133" lon="12.97463"><ele>489.0</ele><time>2026-04-26T12:11:27.521Z</time></trkpt><trkpt lat="43.16462" lon="12.9747767"><ele>489.0</ele><time>2026-04-26T12:11:28.521Z</time></trkpt><trkpt lat="43.1647167" lon="12.97492"><ele>489.0</ele><time>2026-04-26T12:11:29.52Z</time></trkpt><trkpt lat="43.1648183" lon="12.9750633"><ele>489.0</ele><time>2026-04-26T12:11:30.52Z</time></trkpt><trkpt lat="43.1649283" lon="12.9752317"><ele>487.33333333333337</ele><time>2026-04-26T12:11:31.52Z</time></trkpt><trkpt lat="43.165045" lon="12.9754"><ele>485.6666666666667</ele><time>2026-04-26T12:11:32.52Z</time></trkpt><trkpt lat="43.16517" lon="12.9755667"><ele>484.0</ele><time>2026-04-26T12:11:33.52Z</time></trkpt><trkpt lat="43.1652967" lon="12.9757133"><ele>484.0</ele><time>2026-04-26T12:11:34.52Z</time></trkpt><trkpt lat="43.1654533" lon="12.9757983"><ele>484.0</ele><time>2026-04-26T12:11:35.521Z</time></trkpt><trkpt lat="43.1656133" lon="12.9758833"><ele>484.0</ele><time>2026-04-26T12:11:36.52Z</time></trkpt><trkpt lat="43.1657783" lon="12.9759467"><ele>490.33333333333337</ele><time>2026-04-26T12:11:37.521Z</time></trkpt><trkpt lat="43.1659483" lon="12.97599"><ele>496.66666666666663</ele><time>2026-04-26T12:11:38.52Z</time></trkpt><trkpt lat="43.1661033" lon="12.9760333"><ele>503.0</ele><time>2026-04-26T12:11:39.52Z</time></trkpt><trkpt lat="43.166245" lon="12.9760767"><ele>503.0</ele><time>2026-04-26T12:11:40.52Z</time></trkpt><trkpt lat="43.1663767" lon="12.97612"><ele>503.0</ele><time>2026-04-26T12:11:41.521Z</time></trkpt><trkpt lat="43.1664767" lon="12.9761833"><ele>503.0</ele><time>2026-04-26T12:11:42.521Z</time></trkpt><trkpt lat="43.1665733" lon="12.9762933"><ele>503.0</ele><time>2026-04-26T12:11:43.52Z</time></trkpt><trkpt lat="43.166685" lon="12.9764083"><ele>497.5</ele><time>2026-04-26T12:11:44.52Z</time></trkpt><trkpt lat="43.1668033" lon="12.976505"><ele>492.0</ele><time>2026-04-26T12:11:45.52Z</time></trkpt><trkpt lat="43.1669417" lon="12.976565"><ele>486.5</ele><time>2026-04-26T12:11:46.52Z</time></trkpt><trkpt lat="43.16707" lon="12.9766217"><ele>481.0</ele><time>2026-04-26T12:11:47.521Z</time></trkpt><trkpt lat="43.1671967" lon="12.976675"><ele>482.25</ele><time>2026-04-26T12:11:48.521Z</time></trkpt><trkpt lat="43.1673333" lon="12.9766883"><ele>483.5</ele><time>2026-04-26T12:11:49.52Z</time></trkpt><trkpt lat="43.1674517" lon="12.9767717"><ele>484.75</ele><time>2026-04-26T12:11:50.521Z</time></trkpt><trkpt lat="43.167575" lon="12.9768633"><ele>486.0</ele><time>2026-04-26T12:11:51.52Z</time></trkpt><trkpt lat="43.16769" lon="12.9770133"><ele>486.0</ele><time>2026-04-26T12:11:52.521Z</time></trkpt><trkpt lat="43.1678017" lon="12.9771583"><ele>486.0</ele><time>2026-04-26T12:11:53.521Z</time></trkpt><trkpt lat="43.1679233" lon="12.9772983"><ele>486.0</ele><time>2026-04-26T12:11:54.52Z</time></trkpt><trkpt lat="43.1680383" lon="12.977445"><ele>486.33333333333337</ele><time>2026-04-26T12:11:55.52Z</time></trkpt><trkpt lat="43.16816" lon="12.9775717"><ele>486.6666666666667</ele><time>2026-04-26T12:11:56.521Z</time></trkpt><trkpt lat="43.1683067" lon="12.9776433"><ele>487.0</ele><time>2026-04-26T12:11:57.52Z</time></trkpt><trkpt lat="43.1684533" lon="12.977725"><ele>487.0</ele><time>2026-04-26T12:11:58.521Z</time></trkpt><trkpt lat="43.1685983" lon="12.9777967"><ele>487.0</ele><time>2026-04-26T12:11:59.52Z</time></trkpt><trkpt lat="43.1687483" lon="12.9778283"><ele>487.0</ele><time>2026-04-26T12:12:00.52Z</time></trkpt><trkpt lat="43.1688717" lon="12.9778717"><ele>487.0</ele><time>2026-04-26T12:12:01.521Z</time></trkpt><trkpt lat="43.1689767" lon="12.9779467"><ele>487.0</ele><time>2026-04-26T12:12:02.52Z</time></trkpt><trkpt lat="43.1690717" lon="12.9780667"><ele>487.0</ele><time>2026-04-26T12:12:03.52Z</time></trkpt><trkpt lat="43.1691517" lon="12.9782033"><ele>487.0</ele><time>2026-04-26T12:12:04.52Z</time></trkpt><trkpt lat="43.1692167" lon="12.9784033"><ele>487.0</ele><time>2026-04-26T12:12:05.52Z</time></trkpt><trkpt lat="43.1692917" lon="12.9785833"><ele>487.0</ele><time>2026-04-26T12:12:06.52Z</time></trkpt><trkpt lat="43.16938" lon="12.9787617"><ele>487.0</ele><time>2026-04-26T12:12:07.52Z</time></trkpt><trkpt lat="43.1694783" lon="12.978965"><ele>487.0</ele><time>2026-04-26T12:12:08.52Z</time></trkpt><trkpt lat="43.1695867" lon="12.9791667"><ele>483.33333333333337</ele><time>2026-04-26T12:12:09.52Z</time></trkpt><trkpt lat="43.1697067" lon="12.9793567"><ele>479.66666666666663</ele><time>2026-04-26T12:12:10.52Z</time></trkpt><trkpt lat="43.1698183" lon="12.97953"><ele>476.0</ele><time>2026-04-26T12:12:11.52Z</time></trkpt><trkpt lat="43.169925" lon="12.9796783"><ele>476.0</ele><time>2026-04-26T12:12:12.52Z</time></trkpt><trkpt lat="43.1700583" lon="12.9797683"><ele>476.0</ele><time>2026-04-26T12:12:13.52Z</time></trkpt><trkpt lat="43.1701833" lon="12.9798817"><ele>476.0</ele><time>2026-04-26T12:12:14.52Z</time></trkpt><trkpt lat="43.1703167" lon="12.9799667"><ele>476.0</ele><time>2026-04-26T12:12:15.521Z</time></trkpt><trkpt lat="43.1704317" lon="12.9800467"><ele>481.0</ele><time>2026-04-26T12:12:16.52Z</time></trkpt><trkpt lat="43.170515" lon="12.980165"><ele>486.0</ele><time>2026-04-26T12:12:17.521Z</time></trkpt><trkpt lat="43.1705683" lon="12.9803083"><ele>491.0</ele><time>2026-04-26T12:12:18.52Z</time></trkpt><trkpt lat="43.1706017" lon="12.980455"><ele>496.0</ele><time>2026-04-26T12:12:19.52Z</time></trkpt><trkpt lat="43.170615" lon="12.98061"><ele>496.0</ele><time>2026-04-26T12:12:20.52Z</time></trkpt><trkpt lat="43.1706233" lon="12.9807783"><ele>496.0</ele><time>2026-04-26T12:12:21.52Z</time></trkpt><trkpt lat="43.170625" lon="12.9809767"><ele>496.0</ele><time>2026-04-26T12:12:22.52Z</time></trkpt><trkpt lat="43.1706283" lon="12.9811817"><ele>496.0</ele><time>2026-04-26T12:12:23.521Z</time></trkpt><trkpt lat="43.170625" lon="12.9814117"><ele>497.0</ele><time>2026-04-26T12:12:24.52Z</time></trkpt><trkpt lat="43.170625" lon="12.9816333"><ele>498.0</ele><time>2026-04-26T12:12:25.52Z</time></trkpt><trkpt lat="43.170635" lon="12.9818683"><ele>499.0</ele><time>2026-04-26T12:12:26.521Z</time></trkpt><trkpt lat="43.1706483" lon="12.982095"><ele>495.33333333333337</ele><time>2026-04-26T12:12:27.52Z</time></trkpt><trkpt lat="43.17067" lon="12.9822933"><ele>491.66666666666663</ele><time>2026-04-26T12:12:28.52Z</time></trkpt><trkpt lat="43.170685" lon="12.9825433"><ele>488.0</ele><time>2026-04-26T12:12:29.52Z</time></trkpt><trkpt lat="43.170715" lon="12.98278"><ele>488.0</ele><time>2026-04-26T12:12:30.52Z</time></trkpt><trkpt lat="43.1707767" lon="12.98301"><ele>488.0</ele><time>2026-04-26T12:12:31.52Z</time></trkpt><trkpt lat="43.170845" lon="12.98323"><ele>488.0</ele><time>2026-04-26T12:12:32.52Z</time></trkpt><trkpt lat="43.1709233" lon="12.9834283"><ele>488.0</ele><time>2026-04-26T12:12:33.52Z</time></trkpt><trkpt lat="43.1710083" lon="12.9836083"><ele>488.0</ele><time>2026-04-26T12:12:34.52Z</time></trkpt><trkpt lat="43.1711133" lon="12.9837717"><ele>488.0</ele><time>2026-04-26T12:12:35.52Z</time></trkpt><trkpt lat="43.171235" lon="12.98392"><ele>488.0</ele><time>2026-04-26T12:12:36.521Z</time></trkpt><trkpt lat="43.1713717" lon="12.984055"><ele>488.0</ele><time>2026-04-26T12:12:37.52Z</time></trkpt><trkpt lat="43.171515" lon="12.9841917"><ele>488.0</ele><time>2026-04-26T12:12:38.52Z</time></trkpt><trkpt lat="43.17166" lon="12.9843333"><ele>481.3333333333333</ele><time>2026-04-26T12:12:39.521Z</time></trkpt><trkpt lat="43.1718033" lon="12.9844583"><ele>474.66666666666663</ele><time>2026-04-26T12:12:40.52Z</time></trkpt><trkpt lat="43.1719483" lon="12.98459"><ele>468.0</ele><time>2026-04-26T12:12:41.52Z</time></trkpt><trkpt lat="43.1720967" lon="12.984705"><ele>468.0</ele><time>2026-04-26T12:12:42.521Z</time></trkpt><trkpt lat="43.1722417" lon="12.9848067"><ele>468.0</ele><time>2026-04-26T12:12:43.521Z</time></trkpt><trkpt lat="43.1723867" lon="12.9849083"><ele>468.0</ele><time>2026-04-26T12:12:44.52Z</time></trkpt><trkpt lat="43.1725233" lon="12.9850133"><ele>474.0</ele><time>2026-04-26T12:12:45.52Z</time></trkpt><trkpt lat="43.172675" lon="12.98509"><ele>480.0</ele><time>2026-04-26T12:12:46.52Z</time></trkpt><trkpt lat="43.172815" lon="12.9852067"><ele>486.0</ele><time>2026-04-26T12:12:47.52Z</time></trkpt><trkpt lat="43.17295" lon="12.985295"><ele>486.0</ele><time>2026-04-26T12:12:48.52Z</time></trkpt><trkpt lat="43.1730933" lon="12.98536"><ele>486.0</ele><time>2026-04-26T12:12:49.52Z</time></trkpt><trkpt lat="43.1732467" lon="12.98539"><ele>486.0</ele><time>2026-04-26T12:12:50.52Z</time></trkpt><trkpt lat="43.17341" lon="12.9854067"><ele>485.0</ele><time>2026-04-26T12:12:51.52Z</time></trkpt><trkpt lat="43.173585" lon="12.9854017"><ele>484.0</ele><time>2026-04-26T12:12:52.521Z</time></trkpt><trkpt lat="43.1737433" lon="12.985435"><ele>483.0</ele><time>2026-04-26T12:12:53.52Z</time></trkpt><trkpt lat="43.173905" lon="12.9854617"><ele>480.0</ele><time>2026-04-26T12:12:54.52Z</time></trkpt><trkpt lat="43.17406" lon="12.9855133"><ele>477.0</ele><time>2026-04-26T12:12:55.521Z</time></trkpt><trkpt lat="43.1742267" lon="12.9855483"><ele>474.0</ele><time>2026-04-26T12:12:56.52Z</time></trkpt><trkpt lat="43.1744033" lon="12.9855783"><ele>474.0</ele><time>2026-04-26T12:12:57.52Z</time></trkpt><trkpt lat="43.174575" lon="12.9856167"><ele>474.0</ele><time>2026-04-26T12:12:58.52Z</time></trkpt><trkpt lat="43.1747467" lon="12.9856567"><ele>474.0</ele><time>2026-04-26T12:12:59.52Z</time></trkpt><trkpt lat="43.1749167" lon="12.9856933"><ele>472.0</ele><time>2026-04-26T12:13:00.52Z</time></trkpt><trkpt lat="43.1750833" lon="12.98574"><ele>470.0</ele><time>2026-04-26T12:13:01.52Z</time></trkpt><trkpt lat="43.1752583" lon="12.9857867"><ele>468.0</ele><time>2026-04-26T12:13:02.52Z</time></trkpt><trkpt lat="43.1754267" lon="12.98583"><ele>479.0</ele><time>2026-04-26T12:13:03.521Z</time></trkpt><trkpt lat="43.1755933" lon="12.9858583"><ele>490.0</ele><time>2026-04-26T12:13:04.52Z</time></trkpt><trkpt lat="43.1757567" lon="12.9859017"><ele>501.0</ele><time>2026-04-26T12:13:05.521Z</time></trkpt><trkpt lat="43.1759117" lon="12.98594"><ele>501.0</ele><time>2026-04-26T12:13:06.52Z</time></trkpt><trkpt lat="43.1760583" lon="12.9859667"><ele>501.0</ele><time>2026-04-26T12:13:07.52Z</time></trkpt><trkpt lat="43.1761933" lon="12.9859783"><ele>501.0</ele><time>2026-04-26T12:13:08.52Z</time></trkpt><trkpt lat="43.1763117" lon="12.98601"><ele>501.0</ele><time>2026-04-26T12:13:09.52Z</time></trkpt><trkpt lat="43.17641" lon="12.9860333"><ele>501.0</ele><time>2026-04-26T12:13:10.52Z</time></trkpt><trkpt lat="43.17651" lon="12.9860367"><ele>501.0</ele><time>2026-04-26T12:13:11.521Z</time></trkpt><trkpt lat="43.176615" lon="12.9859967"><ele>501.0</ele><time>2026-04-26T12:13:12.52Z</time></trkpt><trkpt lat="43.1767283" lon="12.9859233"><ele>501.0</ele><time>2026-04-26T12:13:13.52Z</time></trkpt><trkpt lat="43.17686" lon="12.9858133"><ele>491.25</ele><time>2026-04-26T12:13:14.52Z</time></trkpt><trkpt lat="43.1769883" lon="12.9857233"><ele>481.5</ele><time>2026-04-26T12:13:15.52Z</time></trkpt><trkpt lat="43.1771167" lon="12.9856333"><ele>471.75</ele><time>2026-04-26T12:13:16.52Z</time></trkpt><trkpt lat="43.1772283" lon="12.9855433"><ele>462.0</ele><time>2026-04-26T12:13:17.52Z</time></trkpt><trkpt lat="43.1773433" lon="12.985455"><ele>460.6</ele><time>2026-04-26T12:13:18.52Z</time></trkpt><trkpt lat="43.1774567" lon="12.985385"><ele>459.20000000000005</ele><time>2026-04-26T12:13:19.52Z</time></trkpt><trkpt lat="43.1775633" lon="12.9853083"><ele>457.8</ele><time>2026-04-26T12:13:20.521Z</time></trkpt><trkpt lat="43.177695" lon="12.985295"><ele>456.4</ele><time>2026-04-26T12:13:21.52Z</time></trkpt><trkpt lat="43.177745" lon="12.9852383"><ele>455.0</ele><time>2026-04-26T12:13:22.52Z</time></trkpt><trkpt lat="43.1778417" lon="12.9851667"><ele>455.0</ele><time>2026-04-26T12:13:24.52Z</time></trkpt><trkpt lat="43.17791" lon="12.98514"><ele>455.0</ele><time>2026-04-26T12:13:27.52Z</time></trkpt><trkpt lat="43.1779883" lon="12.98506"><ele>455.0</ele><time>2026-04-26T12:13:30.52Z</time></trkpt><trkpt lat="43.178055" lon="12.9849883"><ele>455.0</ele><time>2026-04-26T12:13:31.52Z</time></trkpt><trkpt lat="43.1781517" lon="12.9848867"><ele>455.0</ele><time>2026-04-26T12:13:32.52Z</time></trkpt><trkpt lat="43.1782583" lon="12.9847917"><ele>453.66666666666663</ele><time>2026-04-26T12:13:33.52Z</time></trkpt><trkpt lat="43.1783633" lon="12.9846967"><ele>452.3333333333333</ele><time>2026-04-26T12:13:34.52Z</time></trkpt><trkpt lat="43.178445" lon="12.9846167"><ele>451.0</ele><time>2026-04-26T12:13:35.521Z</time></trkpt><trkpt lat="43.1785183" lon="12.9845767"><ele>449.66666666666663</ele><time>2026-04-26T12:13:36.521Z</time></trkpt><trkpt lat="43.1785833" lon="12.9845533"><ele>448.3333333333333</ele><time>2026-04-26T12:13:37.52Z</time></trkpt><trkpt lat="43.1786583" lon="12.98454"><ele>447.0</ele><time>2026-04-26T12:13:38.52Z</time></trkpt><trkpt lat="43.1787417" lon="12.9845283"><ele>447.0</ele><time>2026-04-26T12:13:39.52Z</time></trkpt><trkpt lat="43.1788367" lon="12.9845567"><ele>447.00000000000006</ele><time>2026-04-26T12:13:40.52Z</time></trkpt><trkpt lat="43.1789367" lon="12.9846033"><ele>447.00000000000006</ele><time>2026-04-26T12:13:41.52Z</time></trkpt><trkpt lat="43.1790317" lon="12.984625"><ele>447.0</ele><time>2026-04-26T12:13:42.521Z</time></trkpt><trkpt lat="43.17912" lon="12.9846117"><ele>447.0</ele><time>2026-04-26T12:13:43.519Z</time></trkpt><trkpt lat="43.1792067" lon="12.9845533"><ele>447.0</ele><time>2026-04-26T12:13:44.519Z</time></trkpt><trkpt lat="43.1792867" lon="12.98445"><ele>447.0</ele><time>2026-04-26T12:13:45.519Z</time></trkpt><trkpt lat="43.1793417" lon="12.9843167"><ele>447.0</ele><time>2026-04-26T12:13:46.519Z</time></trkpt><trkpt lat="43.1793833" lon="12.9841517"><ele>447.0</ele><time>2026-04-26T12:13:47.519Z</time></trkpt><trkpt lat="43.1794133" lon="12.9839533"><ele>447.0</ele><time>2026-04-26T12:13:48.52Z</time></trkpt><trkpt lat="43.1794333" lon="12.9837267"><ele>447.0</ele><time>2026-04-26T12:13:49.519Z</time></trkpt><trkpt lat="43.1794533" lon="12.983475"><ele>447.0</ele><time>2026-04-26T12:13:50.519Z</time></trkpt><trkpt lat="43.17947" lon="12.9831917"><ele>445.5</ele><time>2026-04-26T12:13:51.519Z</time></trkpt><trkpt lat="43.1794917" lon="12.982895"><ele>444.0</ele><time>2026-04-26T12:13:52.519Z</time></trkpt><trkpt lat="43.1795117" lon="12.9825767"><ele>443.5</ele><time>2026-04-26T12:13:53.519Z</time></trkpt><trkpt lat="43.17954" lon="12.9822533"><ele>443.0</ele><time>2026-04-26T12:13:54.519Z</time></trkpt><trkpt lat="43.179565" lon="12.981935"><ele>444.0</ele><time>2026-04-26T12:13:55.519Z</time></trkpt><trkpt lat="43.1795883" lon="12.9816133"><ele>445.0</ele><time>2026-04-26T12:13:56.519Z</time></trkpt><trkpt lat="43.179615" lon="12.9812983"><ele>445.0</ele><time>2026-04-26T12:13:57.519Z</time></trkpt><trkpt lat="43.1796333" lon="12.9810083"><ele>445.0</ele><time>2026-04-26T12:13:58.519Z</time></trkpt><trkpt lat="43.17966" lon="12.980715"><ele>445.0</ele><time>2026-04-26T12:13:59.519Z</time></trkpt><trkpt lat="43.1796817" lon="12.9804317"><ele>445.33333333333337</ele><time>2026-04-26T12:14:00.519Z</time></trkpt><trkpt lat="43.1797" lon="12.9801533"><ele>445.66666666666663</ele><time>2026-04-26T12:14:01.519Z</time></trkpt><trkpt lat="43.1797233" lon="12.9798783"><ele>446.0</ele><time>2026-04-26T12:14:02.519Z</time></trkpt><trkpt lat="43.1797417" lon="12.9795967"><ele>444.66666666666663</ele><time>2026-04-26T12:14:03.519Z</time></trkpt><trkpt lat="43.1797567" lon="12.9793117"><ele>443.33333333333337</ele><time>2026-04-26T12:14:04.52Z</time></trkpt><trkpt lat="43.1797683" lon="12.9790233"><ele>442.0</ele><time>2026-04-26T12:14:05.519Z</time></trkpt><trkpt lat="43.179775" lon="12.978735"><ele>442.0</ele><time>2026-04-26T12:14:06.519Z</time></trkpt><trkpt lat="43.1797967" lon="12.9784483"><ele>442.0</ele><time>2026-04-26T12:14:07.519Z</time></trkpt><trkpt lat="43.17982" lon="12.9781633"><ele>442.0</ele><time>2026-04-26T12:14:08.519Z</time></trkpt><trkpt lat="43.1798383" lon="12.9779"><ele>441.6666666666667</ele><time>2026-04-26T12:14:09.52Z</time></trkpt><trkpt lat="43.1798583" lon="12.9776417"><ele>441.33333333333337</ele><time>2026-04-26T12:14:10.52Z</time></trkpt><trkpt lat="43.1798883" lon="12.977395"><ele>441.0</ele><time>2026-04-26T12:14:11.52Z</time></trkpt><trkpt lat="43.1799267" lon="12.9771683"><ele>442.0</ele><time>2026-04-26T12:14:12.519Z</time></trkpt><trkpt lat="43.1799633" lon="12.9769417"><ele>443.0</ele><time>2026-04-26T12:14:13.52Z</time></trkpt><trkpt lat="43.1800183" lon="12.9767333"><ele>444.0</ele><time>2026-04-26T12:14:14.52Z</time></trkpt><trkpt lat="43.18008" lon="12.9765317"><ele>444.0</ele><time>2026-04-26T12:14:15.52Z</time></trkpt><trkpt lat="43.1801567" lon="12.97634"><ele>444.0</ele><time>2026-04-26T12:14:16.519Z</time></trkpt><trkpt lat="43.1802533" lon="12.9761667"><ele>444.0</ele><time>2026-04-26T12:14:17.52Z</time></trkpt><trkpt lat="43.1803617" lon="12.9760017"><ele>443.33333333333337</ele><time>2026-04-26T12:14:18.519Z</time></trkpt><trkpt lat="43.1804783" lon="12.975845"><ele>442.6666666666667</ele><time>2026-04-26T12:14:19.519Z</time></trkpt><trkpt lat="43.1806" lon="12.9756717"><ele>442.0</ele><time>2026-04-26T12:14:20.519Z</time></trkpt><trkpt lat="43.1807167" lon="12.9754883"><ele>442.6666666666667</ele><time>2026-04-26T12:14:21.52Z</time></trkpt><trkpt lat="43.1808" lon="12.9752883"><ele>443.33333333333337</ele><time>2026-04-26T12:14:22.52Z</time></trkpt><trkpt lat="43.1808617" lon="12.97507"><ele>444.0</ele><time>2026-04-26T12:14:23.519Z</time></trkpt><trkpt lat="43.1809" lon="12.9748517"><ele>444.0</ele><time>2026-04-26T12:14:24.519Z</time></trkpt><trkpt lat="43.1809333" lon="12.9746533"><ele>444.0</ele><time>2026-04-26T12:14:25.519Z</time></trkpt><trkpt lat="43.1809817" lon="12.97448"><ele>444.0</ele><time>2026-04-26T12:14:26.519Z</time></trkpt><trkpt lat="43.18105" lon="12.9743267"><ele>444.0</ele><time>2026-04-26T12:14:27.519Z</time></trkpt><trkpt lat="43.18113" lon="12.9741783"><ele>443.5</ele><time>2026-04-26T12:14:28.519Z</time></trkpt><trkpt lat="43.181225" lon="12.974035"><ele>443.0</ele><time>2026-04-26T12:14:29.519Z</time></trkpt><trkpt lat="43.1813233" lon="12.9739033"><ele>442.5</ele><time>2026-04-26T12:14:30.519Z</time></trkpt><trkpt lat="43.1814167" lon="12.9737767"><ele>442.0</ele><time>2026-04-26T12:14:31.519Z</time></trkpt><trkpt lat="43.1814983" lon="12.973645"><ele>443.5</ele><time>2026-04-26T12:14:32.519Z</time></trkpt><trkpt lat="43.1815617" lon="12.9734917"><ele>445.0</ele><time>2026-04-26T12:14:33.519Z</time></trkpt><trkpt lat="43.1816083" lon="12.9733233"><ele>446.5</ele><time>2026-04-26T12:14:34.519Z</time></trkpt><trkpt lat="43.1816383" lon="12.9731383"><ele>448.0</ele><time>2026-04-26T12:14:35.519Z</time></trkpt><trkpt lat="43.1816417" lon="12.9729433"><ele>448.0</ele><time>2026-04-26T12:14:36.52Z</time></trkpt><trkpt lat="43.181645" lon="12.9727317"><ele>448.0</ele><time>2026-04-26T12:14:37.519Z</time></trkpt><trkpt lat="43.1816317" lon="12.972505"><ele>448.0</ele><time>2026-04-26T12:14:38.519Z</time></trkpt><trkpt lat="43.1816217" lon="12.9722683"><ele>450.33333333333337</ele><time>2026-04-26T12:14:39.519Z</time></trkpt><trkpt lat="43.1816133" lon="12.972025"><ele>452.66666666666663</ele><time>2026-04-26T12:14:40.519Z</time></trkpt><trkpt lat="43.1816117" lon="12.9717783"><ele>455.0</ele><time>2026-04-26T12:14:41.519Z</time></trkpt><trkpt lat="43.18162" lon="12.97152"><ele>456.0</ele><time>2026-04-26T12:14:42.519Z</time></trkpt><trkpt lat="43.18161" lon="12.9712467"><ele>457.0</ele><time>2026-04-26T12:14:43.519Z</time></trkpt><trkpt lat="43.1816067" lon="12.9709767"><ele>458.0</ele><time>2026-04-26T12:14:44.519Z</time></trkpt><trkpt lat="43.1816033" lon="12.970695"><ele>457.3333333333333</ele><time>2026-04-26T12:14:45.519Z</time></trkpt><trkpt lat="43.181595" lon="12.9704133"><ele>456.66666666666663</ele><time>2026-04-26T12:14:46.519Z</time></trkpt><trkpt lat="43.1815783" lon="12.9701283"><ele>456.0</ele><time>2026-04-26T12:14:47.519Z</time></trkpt><trkpt lat="43.181575" lon="12.9698517"><ele>456.0</ele><time>2026-04-26T12:14:48.519Z</time></trkpt><trkpt lat="43.1815733" lon="12.9695717"><ele>456.0</ele><time>2026-04-26T12:14:49.519Z</time></trkpt><trkpt lat="43.1815733" lon="12.9692817"><ele>456.0</ele><time>2026-04-26T12:14:50.52Z</time></trkpt><trkpt lat="43.1815817" lon="12.969"><ele>456.33333333333337</ele><time>2026-04-26T12:14:51.519Z</time></trkpt><trkpt lat="43.1815917" lon="12.9687167"><ele>456.6666666666667</ele><time>2026-04-26T12:14:52.519Z</time></trkpt><trkpt lat="43.1816083" lon="12.9684267"><ele>457.0</ele><time>2026-04-26T12:14:53.519Z</time></trkpt><trkpt lat="43.18164" lon="12.9681483"><ele>455.6666666666667</ele><time>2026-04-26T12:14:54.52Z</time></trkpt><trkpt lat="43.1816783" lon="12.9678767"><ele>454.33333333333337</ele><time>2026-04-26T12:14:55.519Z</time></trkpt><trkpt lat="43.181715" lon="12.967605"><ele>453.0</ele><time>2026-04-26T12:14:56.519Z</time></trkpt><trkpt lat="43.1817567" lon="12.9673333"><ele>452.33333333333337</ele><time>2026-04-26T12:14:57.519Z</time></trkpt><trkpt lat="43.1818033" lon="12.96706"><ele>451.6666666666667</ele><time>2026-04-26T12:14:58.519Z</time></trkpt><trkpt lat="43.1818567" lon="12.9667933"><ele>451.0</ele><time>2026-04-26T12:14:59.519Z</time></trkpt><trkpt lat="43.181915" lon="12.966515"><ele>450.33333333333337</ele><time>2026-04-26T12:15:00.519Z</time></trkpt><trkpt lat="43.18198" lon="12.96624"><ele>449.66666666666663</ele><time>2026-04-26T12:15:01.519Z</time></trkpt><trkpt lat="43.182045" lon="12.96597"><ele>449.0</ele><time>2026-04-26T12:15:02.519Z</time></trkpt><trkpt lat="43.1820983" lon="12.9656867"><ele>447.66666666666663</ele><time>2026-04-26T12:15:03.519Z</time></trkpt><trkpt lat="43.1821417" lon="12.9654"><ele>446.33333333333337</ele><time>2026-04-26T12:15:04.52Z</time></trkpt><trkpt lat="43.18218" lon="12.9651183"><ele>445.0</ele><time>2026-04-26T12:15:05.519Z</time></trkpt><trkpt lat="43.1822117" lon="12.9648183"><ele>445.0</ele><time>2026-04-26T12:15:06.519Z</time></trkpt><trkpt lat="43.1822317" lon="12.9645217"><ele>445.0</ele><time>2026-04-26T12:15:07.519Z</time></trkpt><trkpt lat="43.18225" lon="12.9642283"><ele>445.0</ele><time>2026-04-26T12:15:08.52Z</time></trkpt><trkpt lat="43.1822767" lon="12.96393"><ele>444.6666666666667</ele><time>2026-04-26T12:15:09.519Z</time></trkpt><trkpt lat="43.182285" lon="12.9636283"><ele>444.33333333333337</ele><time>2026-04-26T12:15:10.519Z</time></trkpt><trkpt lat="43.1822767" lon="12.963335"><ele>444.0</ele><time>2026-04-26T12:15:11.519Z</time></trkpt><trkpt lat="43.1822717" lon="12.9630667"><ele>444.0</ele><time>2026-04-26T12:15:12.519Z</time></trkpt><trkpt lat="43.1822683" lon="12.9628183"><ele>444.0</ele><time>2026-04-26T12:15:13.519Z</time></trkpt><trkpt lat="43.182275" lon="12.9625767"><ele>444.0</ele><time>2026-04-26T12:15:14.519Z</time></trkpt><trkpt lat="43.1822917" lon="12.9623367"><ele>444.0</ele><time>2026-04-26T12:15:15.519Z</time></trkpt><trkpt lat="43.18233" lon="12.9620883"><ele>444.0</ele><time>2026-04-26T12:15:16.519Z</time></trkpt><trkpt lat="43.18238" lon="12.9618433"><ele>444.0</ele><time>2026-04-26T12:15:17.519Z</time></trkpt><trkpt lat="43.1824467" lon="12.9615983"><ele>447.0</ele><time>2026-04-26T12:15:18.52Z</time></trkpt><trkpt lat="43.1825217" lon="12.9613733"><ele>450.0</ele><time>2026-04-26T12:15:19.519Z</time></trkpt><trkpt lat="43.182605" lon="12.9611517"><ele>453.0</ele><time>2026-04-26T12:15:20.519Z</time></trkpt><trkpt lat="43.1826967" lon="12.960925"><ele>451.0</ele><time>2026-04-26T12:15:21.519Z</time></trkpt><trkpt lat="43.1828" lon="12.9606967"><ele>449.0</ele><time>2026-04-26T12:15:22.519Z</time></trkpt><trkpt lat="43.1829033" lon="12.960455"><ele>447.0</ele><time>2026-04-26T12:15:23.519Z</time></trkpt><trkpt lat="43.1830217" lon="12.9602133"><ele>447.0</ele><time>2026-04-26T12:15:24.519Z</time></trkpt><trkpt lat="43.1831383" lon="12.959965"><ele>447.0</ele><time>2026-04-26T12:15:25.52Z</time></trkpt><trkpt lat="43.1832717" lon="12.9597083"><ele>447.0</ele><time>2026-04-26T12:15:26.519Z</time></trkpt><trkpt lat="43.1833867" lon="12.9594483"><ele>448.0</ele><time>2026-04-26T12:15:27.519Z</time></trkpt><trkpt lat="43.1835" lon="12.959195"><ele>449.0</ele><time>2026-04-26T12:15:28.519Z</time></trkpt><trkpt lat="43.1836133" lon="12.9589467"><ele>450.0</ele><time>2026-04-26T12:15:29.519Z</time></trkpt><trkpt lat="43.18373" lon="12.958695"><ele>450.0</ele><time>2026-04-26T12:15:30.519Z</time></trkpt><trkpt lat="43.1838383" lon="12.958455"><ele>450.0</ele><time>2026-04-26T12:15:31.519Z</time></trkpt><trkpt lat="43.1839433" lon="12.9582233"><ele>450.0</ele><time>2026-04-26T12:15:32.519Z</time></trkpt><trkpt lat="43.184035" lon="12.9579867"><ele>449.66666666666663</ele><time>2026-04-26T12:15:33.519Z</time></trkpt><trkpt lat="43.1840867" lon="12.9577217"><ele>449.3333333333333</ele><time>2026-04-26T12:15:34.519Z</time></trkpt><trkpt lat="43.1841233" lon="12.9574583"><ele>449.0</ele><time>2026-04-26T12:15:35.519Z</time></trkpt><trkpt lat="43.1841517" lon="12.9571917"><ele>449.0</ele><time>2026-04-26T12:15:36.519Z</time></trkpt><trkpt lat="43.1841683" lon="12.9569217"><ele>449.0</ele><time>2026-04-26T12:15:37.519Z</time></trkpt><trkpt lat="43.1841817" lon="12.9566467"><ele>449.0</ele><time>2026-04-26T12:15:38.519Z</time></trkpt><trkpt lat="43.18418" lon="12.9563717"><ele>449.0</ele><time>2026-04-26T12:15:39.519Z</time></trkpt><trkpt lat="43.1841567" lon="12.956095"><ele>449.0</ele><time>2026-04-26T12:15:40.519Z</time></trkpt><trkpt lat="43.184115" lon="12.955825"><ele>449.0</ele><time>2026-04-26T12:15:41.52Z</time></trkpt><trkpt lat="43.184055" lon="12.9555567"><ele>447.66666666666663</ele><time>2026-04-26T12:15:42.519Z</time></trkpt><trkpt lat="43.183975" lon="12.955295"><ele>446.33333333333337</ele><time>2026-04-26T12:15:43.519Z</time></trkpt><trkpt lat="43.1838767" lon="12.95505"><ele>445.0</ele><time>2026-04-26T12:15:44.519Z</time></trkpt><trkpt lat="43.1837617" lon="12.9548133"><ele>445.0</ele><time>2026-04-26T12:15:45.52Z</time></trkpt><trkpt lat="43.183635" lon="12.954585"><ele>445.0</ele><time>2026-04-26T12:15:46.519Z</time></trkpt><trkpt lat="43.1834917" lon="12.9543917"><ele>445.0</ele><time>2026-04-26T12:15:47.519Z</time></trkpt><trkpt lat="43.1833333" lon="12.9542033"><ele>445.0</ele><time>2026-04-26T12:15:48.519Z</time></trkpt><trkpt lat="43.1831667" lon="12.9540267"><ele>445.0</ele><time>2026-04-26T12:15:49.519Z</time></trkpt><trkpt lat="43.183005" lon="12.9538583"><ele>445.0</ele><time>2026-04-26T12:15:50.519Z</time></trkpt><trkpt lat="43.1828333" lon="12.9536883"><ele>445.0</ele><time>2026-04-26T12:15:51.519Z</time></trkpt><trkpt lat="43.18266" lon="12.9535117"><ele>445.0</ele><time>2026-04-26T12:15:52.519Z</time></trkpt><trkpt lat="43.18249" lon="12.9533333"><ele>445.0</ele><time>2026-04-26T12:15:53.519Z</time></trkpt><trkpt lat="43.18232" lon="12.9531583"><ele>445.6666666666667</ele><time>2026-04-26T12:15:54.519Z</time></trkpt><trkpt lat="43.1821633" lon="12.9529933"><ele>446.33333333333337</ele><time>2026-04-26T12:15:55.519Z</time></trkpt><trkpt lat="43.1820083" lon="12.9528467"><ele>447.0</ele><time>2026-04-26T12:15:56.519Z</time></trkpt><trkpt lat="43.181875" lon="12.9527033"><ele>447.0</ele><time>2026-04-26T12:15:57.519Z</time></trkpt><trkpt lat="43.1817617" lon="12.952555"><ele>447.0</ele><time>2026-04-26T12:15:58.52Z</time></trkpt><trkpt lat="43.1816683" lon="12.95241"><ele>447.0</ele><time>2026-04-26T12:15:59.519Z</time></trkpt><trkpt lat="43.181595" lon="12.952255"><ele>447.0</ele><time>2026-04-26T12:16:00.52Z</time></trkpt><trkpt lat="43.1815367" lon="12.952085"><ele>446.75</ele><time>2026-04-26T12:16:01.519Z</time></trkpt><trkpt lat="43.181505" lon="12.9519033"><ele>446.5</ele><time>2026-04-26T12:16:02.52Z</time></trkpt><trkpt lat="43.1814817" lon="12.9516967"><ele>446.25</ele><time>2026-04-26T12:16:03.519Z</time></trkpt><trkpt lat="43.1814667" lon="12.9514783"><ele>446.0</ele><time>2026-04-26T12:16:04.519Z</time></trkpt><trkpt lat="43.181455" lon="12.951245"><ele>446.0</ele><time>2026-04-26T12:16:05.519Z</time></trkpt><trkpt lat="43.181455" lon="12.9510167"><ele>446.0</ele><time>2026-04-26T12:16:06.519Z</time></trkpt><trkpt lat="43.1814717" lon="12.9508083"><ele>446.0</ele><time>2026-04-26T12:16:07.519Z</time></trkpt><trkpt lat="43.1815133" lon="12.9506233"><ele>450.0</ele><time>2026-04-26T12:16:08.519Z</time></trkpt><trkpt lat="43.1815817" lon="12.9504467"><ele>454.0</ele><time>2026-04-26T12:16:09.52Z</time></trkpt><trkpt lat="43.1816767" lon="12.9502717"><ele>458.0</ele><time>2026-04-26T12:16:10.519Z</time></trkpt><trkpt lat="43.1817817" lon="12.9500917"><ele>456.3333333333333</ele><time>2026-04-26T12:16:11.519Z</time></trkpt><trkpt lat="43.1819" lon="12.94991"><ele>454.66666666666663</ele><time>2026-04-26T12:16:12.519Z</time></trkpt><trkpt lat="43.1820283" lon="12.9497217"><ele>453.0</ele><time>2026-04-26T12:16:13.519Z</time></trkpt><trkpt lat="43.1821483" lon="12.9495167"><ele>453.0</ele><time>2026-04-26T12:16:14.519Z</time></trkpt><trkpt lat="43.18228" lon="12.9493267"><ele>453.0</ele><time>2026-04-26T12:16:15.519Z</time></trkpt><trkpt lat="43.1824183" lon="12.9491383"><ele>453.0</ele><time>2026-04-26T12:16:16.519Z</time></trkpt><trkpt lat="43.182565" lon="12.94896"><ele>455.0</ele><time>2026-04-26T12:16:17.519Z</time></trkpt><trkpt lat="43.1827183" lon="12.9487983"><ele>457.0</ele><time>2026-04-26T12:16:18.519Z</time></trkpt><trkpt lat="43.1828783" lon="12.9486583"><ele>459.0</ele><time>2026-04-26T12:16:19.52Z</time></trkpt><trkpt lat="43.183035" lon="12.9485267"><ele>457.0</ele><time>2026-04-26T12:16:20.519Z</time></trkpt><trkpt lat="43.18319" lon="12.94841"><ele>455.0</ele><time>2026-04-26T12:16:21.519Z</time></trkpt><trkpt lat="43.1833333" lon="12.9483"><ele>453.0</ele><time>2026-04-26T12:16:22.519Z</time></trkpt><trkpt lat="43.1834517" lon="12.948185"><ele>453.0</ele><time>2026-04-26T12:16:23.519Z</time></trkpt><trkpt lat="43.18356" lon="12.948045"><ele>453.0</ele><time>2026-04-26T12:16:24.519Z</time></trkpt><trkpt lat="43.1836533" lon="12.9478717"><ele>453.0</ele><time>2026-04-26T12:16:25.519Z</time></trkpt><trkpt lat="43.183715" lon="12.9476533"><ele>451.33333333333337</ele><time>2026-04-26T12:16:26.519Z</time></trkpt><trkpt lat="43.1837667" lon="12.9474067"><ele>449.6666666666667</ele><time>2026-04-26T12:16:27.519Z</time></trkpt><trkpt lat="43.1837917" lon="12.9471433"><ele>448.0</ele><time>2026-04-26T12:16:28.519Z</time></trkpt><trkpt lat="43.183815" lon="12.946875"><ele>447.6666666666667</ele><time>2026-04-26T12:16:29.52Z</time></trkpt><trkpt lat="43.1838467" lon="12.9466"><ele>447.33333333333337</ele><time>2026-04-26T12:16:30.519Z</time></trkpt><trkpt lat="43.18389" lon="12.9463217"><ele>447.0</ele><time>2026-04-26T12:16:31.519Z</time></trkpt><trkpt lat="43.1839283" lon="12.9460317"><ele>446.66666666666663</ele><time>2026-04-26T12:16:32.519Z</time></trkpt><trkpt lat="43.1839667" lon="12.9457383"><ele>446.3333333333333</ele><time>2026-04-26T12:16:33.52Z</time></trkpt><trkpt lat="43.1840067" lon="12.9454367"><ele>446.0</ele><time>2026-04-26T12:16:34.519Z</time></trkpt><trkpt lat="43.184045" lon="12.9451333"><ele>446.66666666666663</ele><time>2026-04-26T12:16:35.519Z</time></trkpt><trkpt lat="43.1840833" lon="12.94484"><ele>447.33333333333337</ele><time>2026-04-26T12:16:36.519Z</time></trkpt><trkpt lat="43.1841217" lon="12.9445483"><ele>448.0</ele><time>2026-04-26T12:16:37.519Z</time></trkpt><trkpt lat="43.1841633" lon="12.9442517"><ele>447.33333333333337</ele><time>2026-04-26T12:16:38.52Z</time></trkpt><trkpt lat="43.1842033" lon="12.943955"><ele>446.66666666666663</ele><time>2026-04-26T12:16:39.519Z</time></trkpt><trkpt lat="43.184245" lon="12.9436617"><ele>446.0</ele><time>2026-04-26T12:16:40.519Z</time></trkpt><trkpt lat="43.184285" lon="12.9433717"><ele>446.0</ele><time>2026-04-26T12:16:41.52Z</time></trkpt><trkpt lat="43.184325" lon="12.9430817"><ele>446.0</ele><time>2026-04-26T12:16:42.519Z</time></trkpt><trkpt lat="43.1843617" lon="12.9427933"><ele>446.0</ele><time>2026-04-26T12:16:43.519Z</time></trkpt><trkpt lat="43.1844" lon="12.9424967"><ele>445.66666666666663</ele><time>2026-04-26T12:16:44.52Z</time></trkpt><trkpt lat="43.1844367" lon="12.9422033"><ele>445.33333333333337</ele><time>2026-04-26T12:16:45.519Z</time></trkpt><trkpt lat="43.1844683" lon="12.9419133"><ele>445.0</ele><time>2026-04-26T12:16:46.519Z</time></trkpt><trkpt lat="43.1845017" lon="12.9416183"><ele>446.0</ele><time>2026-04-26T12:16:47.52Z</time></trkpt><trkpt lat="43.184525" lon="12.9413183"><ele>447.0</ele><time>2026-04-26T12:16:48.519Z</time></trkpt><trkpt lat="43.1845533" lon="12.9410167"><ele>448.0</ele><time>2026-04-26T12:16:49.519Z</time></trkpt><trkpt lat="43.1845783" lon="12.9407183"><ele>448.33333333333337</ele><time>2026-04-26T12:16:50.519Z</time></trkpt><trkpt lat="43.1846067" lon="12.940415"><ele>448.66666666666663</ele><time>2026-04-26T12:16:51.519Z</time></trkpt><trkpt lat="43.1846317" lon="12.9401167"><ele>449.0</ele><time>2026-04-26T12:16:52.519Z</time></trkpt><trkpt lat="43.1846533" lon="12.9398217"><ele>449.0</ele><time>2026-04-26T12:16:53.519Z</time></trkpt><trkpt lat="43.1846733" lon="12.9395283"><ele>449.0</ele><time>2026-04-26T12:16:54.519Z</time></trkpt><trkpt lat="43.1846833" lon="12.93924"><ele>449.0</ele><time>2026-04-26T12:16:55.519Z</time></trkpt><trkpt lat="43.18468" lon="12.9389483"><ele>448.66666666666663</ele><time>2026-04-26T12:16:56.519Z</time></trkpt><trkpt lat="43.1846783" lon="12.9386483"><ele>448.33333333333337</ele><time>2026-04-26T12:16:57.519Z</time></trkpt><trkpt lat="43.1846683" lon="12.9383517"><ele>448.0</ele><time>2026-04-26T12:16:58.519Z</time></trkpt><trkpt lat="43.1846617" lon="12.9380533"><ele>448.0</ele><time>2026-04-26T12:16:59.52Z</time></trkpt><trkpt lat="43.1846533" lon="12.9377533"><ele>448.0</ele><time>2026-04-26T12:17:00.519Z</time></trkpt><trkpt lat="43.1846517" lon="12.9374533"><ele>448.0</ele><time>2026-04-26T12:17:01.519Z</time></trkpt><trkpt lat="43.1846583" lon="12.9371533"><ele>448.33333333333337</ele><time>2026-04-26T12:17:02.519Z</time></trkpt><trkpt lat="43.1846617" lon="12.9368533"><ele>448.66666666666663</ele><time>2026-04-26T12:17:03.519Z</time></trkpt><trkpt lat="43.1846733" lon="12.9365733"><ele>449.0</ele><time>2026-04-26T12:17:04.519Z</time></trkpt><trkpt lat="43.1846817" lon="12.9363083"><ele>449.66666666666663</ele><time>2026-04-26T12:17:05.519Z</time></trkpt><trkpt lat="43.1846967" lon="12.9360633"><ele>450.33333333333337</ele><time>2026-04-26T12:17:06.519Z</time></trkpt><trkpt lat="43.18471" lon="12.9358367"><ele>451.0</ele><time>2026-04-26T12:17:07.519Z</time></trkpt><trkpt lat="43.1847167" lon="12.9356183"><ele>451.33333333333337</ele><time>2026-04-26T12:17:08.52Z</time></trkpt><trkpt lat="43.1847283" lon="12.93541"><ele>451.66666666666663</ele><time>2026-04-26T12:17:09.519Z</time></trkpt><trkpt lat="43.18474" lon="12.9351983"><ele>452.0</ele><time>2026-04-26T12:17:10.52Z</time></trkpt><trkpt lat="43.1847567" lon="12.9349833"><ele>452.0</ele><time>2026-04-26T12:17:11.519Z</time></trkpt><trkpt lat="43.1847767" lon="12.934775"><ele>452.0</ele><time>2026-04-26T12:17:12.519Z</time></trkpt><trkpt lat="43.1847983" lon="12.93458"><ele>452.0</ele><time>2026-04-26T12:17:13.519Z</time></trkpt><trkpt lat="43.1848133" lon="12.93439"><ele>452.0</ele><time>2026-04-26T12:17:14.519Z</time></trkpt><trkpt lat="43.18483" lon="12.934215"><ele>451.40000000000003</ele><time>2026-04-26T12:17:15.519Z</time></trkpt><trkpt lat="43.1848483" lon="12.934055"><ele>450.80000000000007</ele><time>2026-04-26T12:17:16.519Z</time></trkpt><trkpt lat="43.1848683" lon="12.93391"><ele>450.2</ele><time>2026-04-26T12:17:17.519Z</time></trkpt><trkpt lat="43.1849" lon="12.93378"><ele>449.6</ele><time>2026-04-26T12:17:18.52Z</time></trkpt><trkpt lat="43.184945" lon="12.9336733"><ele>449.0</ele><time>2026-04-26T12:17:19.519Z</time></trkpt><trkpt lat="43.185005" lon="12.933585"><ele>449.0</ele><time>2026-04-26T12:17:20.519Z</time></trkpt><trkpt lat="43.1850833" lon="12.933515"><ele>449.0</ele><time>2026-04-26T12:17:21.52Z</time></trkpt><trkpt lat="43.1851833" lon="12.9334683"><ele>449.0</ele><time>2026-04-26T12:17:22.519Z</time></trkpt><trkpt lat="43.1852933" lon="12.93342"><ele>449.0</ele><time>2026-04-26T12:17:23.519Z</time></trkpt><trkpt lat="43.1854067" lon="12.9333717"><ele>449.0</ele><time>2026-04-26T12:17:24.519Z</time></trkpt><trkpt lat="43.1855217" lon="12.9333233"><ele>448.79999999999995</ele><time>2026-04-26T12:17:25.519Z</time></trkpt><trkpt lat="43.185635" lon="12.93328"><ele>448.59999999999997</ele><time>2026-04-26T12:17:26.519Z</time></trkpt><trkpt lat="43.185735" lon="12.9332383"><ele>448.4</ele><time>2026-04-26T12:17:27.519Z</time></trkpt><trkpt lat="43.18583" lon="12.9331983"><ele>448.2</ele><time>2026-04-26T12:17:28.519Z</time></trkpt><trkpt lat="43.1859217" lon="12.9331633"><ele>448.0</ele><time>2026-04-26T12:17:29.519Z</time></trkpt><trkpt lat="43.186015" lon="12.93313"><ele>448.4</ele><time>2026-04-26T12:17:30.52Z</time></trkpt><trkpt lat="43.1861217" lon="12.9330967"><ele>448.79999999999995</ele><time>2026-04-26T12:17:31.519Z</time></trkpt><trkpt lat="43.1862283" lon="12.9330583"><ele>449.2</ele><time>2026-04-26T12:17:32.519Z</time></trkpt><trkpt lat="43.18633" lon="12.9330317"><ele>449.6</ele><time>2026-04-26T12:17:33.519Z</time></trkpt><trkpt lat="43.1864367" lon="12.93301"><ele>450.0</ele><time>2026-04-26T12:17:34.52Z</time></trkpt><trkpt lat="43.1865283" lon="12.932975"><ele>450.2</ele><time>2026-04-26T12:17:35.52Z</time></trkpt><trkpt lat="43.18662" lon="12.9329433"><ele>450.4</ele><time>2026-04-26T12:17:36.519Z</time></trkpt><trkpt lat="43.18672" lon="12.9329033"><ele>450.6</ele><time>2026-04-26T12:17:37.52Z</time></trkpt><trkpt lat="43.186805" lon="12.9328667"><ele>450.8</ele><time>2026-04-26T12:17:38.52Z</time></trkpt><trkpt lat="43.18688" lon="12.932795"><ele>451.0</ele><time>2026-04-26T12:17:39.519Z</time></trkpt><trkpt lat="43.1869433" lon="12.932695"><ele>451.00000000000006</ele><time>2026-04-26T12:17:40.519Z</time></trkpt><trkpt lat="43.1869917" lon="12.93258"><ele>451.0</ele><time>2026-04-26T12:17:41.519Z</time></trkpt><trkpt lat="43.18704" lon="12.9324717"><ele>451.0</ele><time>2026-04-26T12:17:42.519Z</time></trkpt><trkpt lat="43.1870833" lon="12.9323767"><ele>451.0</ele><time>2026-04-26T12:17:43.519Z</time></trkpt><trkpt lat="43.187125" lon="12.9322833"><ele>451.00000000000006</ele><time>2026-04-26T12:17:44.519Z</time></trkpt><trkpt lat="43.187165" lon="12.932195"><ele>451.0</ele><time>2026-04-26T12:17:45.519Z</time></trkpt><trkpt lat="43.1872267" lon="12.9320833"><ele>451.00000000000006</ele><time>2026-04-26T12:17:47.519Z</time></trkpt><trkpt lat="43.1873" lon="12.932055"><ele>451.0</ele><time>2026-04-26T12:17:49.519Z</time></trkpt><trkpt lat="43.1873917" lon="12.9321017"><ele>451.0</ele><time>2026-04-26T12:17:51.519Z</time></trkpt><trkpt lat="43.18746" lon="12.9322233"><ele>451.0</ele><time>2026-04-26T12:17:53.519Z</time></trkpt><trkpt lat="43.1875283" lon="12.9323133"><ele>451.00000000000006</ele><time>2026-04-26T12:17:55.519Z</time></trkpt><trkpt lat="43.18758" lon="12.932365"><ele>451.0</ele><time>2026-04-26T12:17:57.519Z</time></trkpt><trkpt lat="43.1876317" lon="12.932445"><ele>451.33333333333337</ele><time>2026-04-26T12:17:59.519Z</time></trkpt><trkpt lat="43.1876783" lon="12.9325517"><ele>451.6666666666667</ele><time>2026-04-26T12:18:01.519Z</time></trkpt><trkpt lat="43.1876867" lon="12.9326617"><ele>452.0</ele><time>2026-04-26T12:18:03.519Z</time></trkpt><trkpt lat="43.187675" lon="12.9328067"><ele>452.33333333333337</ele><time>2026-04-26T12:18:05.519Z</time></trkpt><trkpt lat="43.1876767" lon="12.9329183"><ele>452.6666666666667</ele><time>2026-04-26T12:18:08.519Z</time></trkpt><trkpt lat="43.1877533" lon="12.9329733"><ele>453.0</ele><time>2026-04-26T12:18:10.52Z</time></trkpt><trkpt lat="43.18782" lon="12.93298"><ele>452.79999999999995</ele><time>2026-04-26T12:18:11.519Z</time></trkpt><trkpt lat="43.1879017" lon="12.93298"><ele>452.59999999999997</ele><time>2026-04-26T12:18:12.519Z</time></trkpt><trkpt lat="43.188" lon="12.9329733"><ele>452.40000000000003</ele><time>2026-04-26T12:18:13.519Z</time></trkpt><trkpt lat="43.1881033" lon="12.932965"><ele>452.20000000000005</ele><time>2026-04-26T12:18:14.519Z</time></trkpt><trkpt lat="43.1882133" lon="12.9329583"><ele>452.0</ele><time>2026-04-26T12:18:15.519Z</time></trkpt><trkpt lat="43.188325" lon="12.9329467"><ele>452.0</ele><time>2026-04-26T12:18:16.519Z</time></trkpt><trkpt lat="43.1884533" lon="12.9329417"><ele>452.0</ele><time>2026-04-26T12:18:17.519Z</time></trkpt><trkpt lat="43.188595" lon="12.9329333"><ele>452.0</ele><time>2026-04-26T12:18:18.519Z</time></trkpt><trkpt lat="43.188735" lon="12.9329317"><ele>452.0</ele><time>2026-04-26T12:18:19.52Z</time></trkpt><trkpt lat="43.1888733" lon="12.932935"><ele>452.0</ele><time>2026-04-26T12:18:20.52Z</time></trkpt><trkpt lat="43.1890183" lon="12.9329417"><ele>452.0</ele><time>2026-04-26T12:18:21.519Z</time></trkpt><trkpt lat="43.1891533" lon="12.9329483"><ele>452.0</ele><time>2026-04-26T12:18:22.52Z</time></trkpt><trkpt lat="43.189305" lon="12.9329583"><ele>452.0</ele><time>2026-04-26T12:18:23.519Z</time></trkpt><trkpt lat="43.1894483" lon="12.9329683"><ele>452.0</ele><time>2026-04-26T12:18:24.519Z</time></trkpt><trkpt lat="43.1896" lon="12.93298"><ele>452.0</ele><time>2026-04-26T12:18:25.519Z</time></trkpt><trkpt lat="43.1897383" lon="12.932985"><ele>452.0</ele><time>2026-04-26T12:18:26.519Z</time></trkpt><trkpt lat="43.18986" lon="12.9329933"><ele>452.0</ele><time>2026-04-26T12:18:27.519Z</time></trkpt><trkpt lat="43.1899733" lon="12.932995"><ele>452.16666666666663</ele><time>2026-04-26T12:18:28.519Z</time></trkpt><trkpt lat="43.1900683" lon="12.9329867"><ele>452.3333333333333</ele><time>2026-04-26T12:18:29.52Z</time></trkpt><trkpt lat="43.1901583" lon="12.932965"><ele>452.5</ele><time>2026-04-26T12:18:30.519Z</time></trkpt><trkpt lat="43.1902317" lon="12.9329083"><ele>452.66666666666663</ele><time>2026-04-26T12:18:31.519Z</time></trkpt><trkpt lat="43.1902867" lon="12.93283"><ele>452.8333333333333</ele><time>2026-04-26T12:18:32.519Z</time></trkpt><trkpt lat="43.1903317" lon="12.9327383"><ele>453.0</ele><time>2026-04-26T12:18:33.519Z</time></trkpt><trkpt lat="43.1903683" lon="12.9326667"><ele>453.0</ele><time>2026-04-26T12:18:34.519Z</time></trkpt><trkpt lat="43.19042" lon="12.932595"><ele>453.0</ele><time>2026-04-26T12:18:36.519Z</time></trkpt><trkpt lat="43.1904833" lon="12.93258"><ele>453.0</ele><time>2026-04-26T12:18:39.519Z</time></trkpt><trkpt lat="43.190545" lon="12.9326867"><ele>453.0</ele><time>2026-04-26T12:18:41.519Z</time></trkpt><trkpt lat="43.190575" lon="12.93277"><ele>453.0</ele><time>2026-04-26T12:18:42.519Z</time></trkpt><trkpt lat="43.1906083" lon="12.9328633"><ele>453.0</ele><time>2026-04-26T12:18:43.519Z</time></trkpt><trkpt lat="43.1906767" lon="12.9329817"><ele>454.0</ele><time>2026-04-26T12:18:45.519Z</time></trkpt><trkpt lat="43.1908017" lon="12.9329717"><ele>455.0</ele><time>2026-04-26T12:18:47.519Z</time></trkpt><trkpt lat="43.1908983" lon="12.9329333"><ele>456.0</ele><time>2026-04-26T12:18:48.52Z</time></trkpt><trkpt lat="43.19102" lon="12.9328833"><ele>457.0</ele><time>2026-04-26T12:18:49.519Z</time></trkpt><trkpt lat="43.1911983" lon="12.932825"><ele>457.0</ele><time>2026-04-26T12:18:50.519Z</time></trkpt><trkpt lat="43.1913867" lon="12.9327583"><ele>457.0</ele><time>2026-04-26T12:18:51.519Z</time></trkpt><trkpt lat="43.1915783" lon="12.93268"><ele>457.0</ele><time>2026-04-26T12:18:52.519Z</time></trkpt><trkpt lat="43.1917433" lon="12.93259"><ele>457.33333333333337</ele><time>2026-04-26T12:18:53.519Z</time></trkpt><trkpt lat="43.1918967" lon="12.9324817"><ele>457.66666666666663</ele><time>2026-04-26T12:18:54.519Z</time></trkpt><trkpt lat="43.192035" lon="12.9323833"><ele>458.0</ele><time>2026-04-26T12:18:55.519Z</time></trkpt><trkpt lat="43.19217" lon="12.9323033"><ele>458.0</ele><time>2026-04-26T12:18:56.519Z</time></trkpt><trkpt lat="43.1923" lon="12.9322483"><ele>458.0</ele><time>2026-04-26T12:18:57.519Z</time></trkpt><trkpt lat="43.1924283" lon="12.932245"><ele>458.0</ele><time>2026-04-26T12:18:58.519Z</time></trkpt><trkpt lat="43.192555" lon="12.93229"><ele>458.0</ele><time>2026-04-26T12:18:59.519Z</time></trkpt><trkpt lat="43.1926883" lon="12.9323633"><ele>459.0</ele><time>2026-04-26T12:19:00.519Z</time></trkpt><trkpt lat="43.1928317" lon="12.9324533"><ele>460.0</ele><time>2026-04-26T12:19:01.52Z</time></trkpt><trkpt lat="43.1929767" lon="12.9325483"><ele>461.0</ele><time>2026-04-26T12:19:02.519Z</time></trkpt><trkpt lat="43.19314" lon="12.9326317"><ele>465.66666666666663</ele><time>2026-04-26T12:19:03.519Z</time></trkpt><trkpt lat="43.1933233" lon="12.9326783"><ele>470.33333333333337</ele><time>2026-04-26T12:19:04.519Z</time></trkpt><trkpt lat="43.1935183" lon="12.9326917"><ele>475.0</ele><time>2026-04-26T12:19:05.519Z</time></trkpt><trkpt lat="43.1937217" lon="12.932685"><ele>475.0</ele><time>2026-04-26T12:19:06.519Z</time></trkpt><trkpt lat="43.193925" lon="12.9326633"><ele>475.0</ele><time>2026-04-26T12:19:07.52Z</time></trkpt><trkpt lat="43.1941317" lon="12.93264"><ele>475.0</ele><time>2026-04-26T12:19:08.519Z</time></trkpt><trkpt lat="43.1943267" lon="12.9326167"><ele>475.6666666666667</ele><time>2026-04-26T12:19:09.519Z</time></trkpt><trkpt lat="43.1945067" lon="12.932595"><ele>476.33333333333337</ele><time>2026-04-26T12:19:10.519Z</time></trkpt><trkpt lat="43.194675" lon="12.9325617"><ele>477.0</ele><time>2026-04-26T12:19:11.519Z</time></trkpt><trkpt lat="43.1948433" lon="12.93249"><ele>475.33333333333337</ele><time>2026-04-26T12:19:12.519Z</time></trkpt><trkpt lat="43.1950033" lon="12.9323917"><ele>473.6666666666667</ele><time>2026-04-26T12:19:13.519Z</time></trkpt><trkpt lat="43.1951633" lon="12.9322717"><ele>472.0</ele><time>2026-04-26T12:19:14.519Z</time></trkpt><trkpt lat="43.1953267" lon="12.9321617"><ele>472.0</ele><time>2026-04-26T12:19:15.519Z</time></trkpt><trkpt lat="43.19548" lon="12.9320767"><ele>472.0</ele><time>2026-04-26T12:19:16.519Z</time></trkpt><trkpt lat="43.1956267" lon="12.9320183"><ele>472.0</ele><time>2026-04-26T12:19:17.519Z</time></trkpt><trkpt lat="43.195785" lon="12.9319833"><ele>477.0</ele><time>2026-04-26T12:19:18.519Z</time></trkpt><trkpt lat="43.19595" lon="12.9319533"><ele>482.0</ele><time>2026-04-26T12:19:19.519Z</time></trkpt><trkpt lat="43.19612" lon="12.9319133"><ele>487.0</ele><time>2026-04-26T12:19:20.52Z</time></trkpt><trkpt lat="43.1962867" lon="12.9318483"><ele>487.0</ele><time>2026-04-26T12:19:21.519Z</time></trkpt><trkpt lat="43.1964417" lon="12.9317533"><ele>487.0</ele><time>2026-04-26T12:19:22.519Z</time></trkpt><trkpt lat="43.19659" lon="12.93165"><ele>487.0</ele><time>2026-04-26T12:19:23.519Z</time></trkpt><trkpt lat="43.19674" lon="12.93156"><ele>486.6666666666667</ele><time>2026-04-26T12:19:24.519Z</time></trkpt><trkpt lat="43.1969083" lon="12.9315"><ele>486.33333333333337</ele><time>2026-04-26T12:19:25.519Z</time></trkpt><trkpt lat="43.19709" lon="12.9314483"><ele>486.0</ele><time>2026-04-26T12:19:26.519Z</time></trkpt><trkpt lat="43.197275" lon="12.931405"><ele>491.66666666666663</ele><time>2026-04-26T12:19:27.519Z</time></trkpt><trkpt lat="43.197465" lon="12.93136"><ele>497.3333333333333</ele><time>2026-04-26T12:19:28.52Z</time></trkpt><trkpt lat="43.1976433" lon="12.9312933"><ele>503.0</ele><time>2026-04-26T12:19:29.519Z</time></trkpt><trkpt lat="43.1978117" lon="12.9312067"><ele>503.0</ele><time>2026-04-26T12:19:30.519Z</time></trkpt><trkpt lat="43.1979767" lon="12.93111"><ele>503.0</ele><time>2026-04-26T12:19:31.519Z</time></trkpt><trkpt lat="43.1981333" lon="12.931015"><ele>503.0</ele><time>2026-04-26T12:19:32.519Z</time></trkpt><trkpt lat="43.198275" lon="12.9308783"><ele>503.3333333333333</ele><time>2026-04-26T12:19:33.519Z</time></trkpt><trkpt lat="43.19839" lon="12.9307067"><ele>503.66666666666663</ele><time>2026-04-26T12:19:34.519Z</time></trkpt><trkpt lat="43.1984817" lon="12.9305117"><ele>504.0</ele><time>2026-04-26T12:19:35.519Z</time></trkpt><trkpt lat="43.1985583" lon="12.9303067"><ele>504.0</ele><time>2026-04-26T12:19:36.519Z</time></trkpt><trkpt lat="43.19866" lon="12.9301183"><ele>504.0</ele><time>2026-04-26T12:19:37.519Z</time></trkpt><trkpt lat="43.1987933" lon="12.9299517"><ele>504.0</ele><time>2026-04-26T12:19:38.519Z</time></trkpt><trkpt lat="43.1989433" lon="12.92979"><ele>503.0</ele><time>2026-04-26T12:19:39.519Z</time></trkpt><trkpt lat="43.199095" lon="12.9296333"><ele>502.0</ele><time>2026-04-26T12:19:40.519Z</time></trkpt><trkpt lat="43.1992317" lon="12.9294783"><ele>501.0</ele><time>2026-04-26T12:19:41.519Z</time></trkpt><trkpt lat="43.1993567" lon="12.929335"><ele>501.0</ele><time>2026-04-26T12:19:42.519Z</time></trkpt><trkpt lat="43.1994833" lon="12.92919"><ele>501.0</ele><time>2026-04-26T12:19:43.519Z</time></trkpt><trkpt lat="43.1995833" lon="12.9290233"><ele>501.0</ele><time>2026-04-26T12:19:44.519Z</time></trkpt><trkpt lat="43.1996767" lon="12.928835"><ele>501.0</ele><time>2026-04-26T12:19:45.52Z</time></trkpt><trkpt lat="43.1997783" lon="12.928655"><ele>501.0</ele><time>2026-04-26T12:19:46.519Z</time></trkpt><trkpt lat="43.1999033" lon="12.9284867"><ele>501.0</ele><time>2026-04-26T12:19:47.52Z</time></trkpt><trkpt lat="43.2000367" lon="12.9283483"><ele>501.75</ele><time>2026-04-26T12:19:48.519Z</time></trkpt><trkpt lat="43.2001633" lon="12.9282367"><ele>502.5</ele><time>2026-04-26T12:19:49.519Z</time></trkpt><trkpt lat="43.2002767" lon="12.9281517"><ele>503.25</ele><time>2026-04-26T12:19:50.519Z</time></trkpt><trkpt lat="43.2003983" lon="12.92811"><ele>504.0</ele><time>2026-04-26T12:19:51.519Z</time></trkpt><trkpt lat="43.20053" lon="12.92812"><ele>505.66666666666663</ele><time>2026-04-26T12:19:52.519Z</time></trkpt><trkpt lat="43.20067" lon="12.9281717"><ele>507.3333333333333</ele><time>2026-04-26T12:19:53.519Z</time></trkpt><trkpt lat="43.20082" lon="12.9282417"><ele>509.0</ele><time>2026-04-26T12:19:54.519Z</time></trkpt><trkpt lat="43.2009967" lon="12.9283233"><ele>511.0</ele><time>2026-04-26T12:19:55.52Z</time></trkpt><trkpt lat="43.20119" lon="12.9284067"><ele>513.0</ele><time>2026-04-26T12:19:56.519Z</time></trkpt><trkpt lat="43.201395" lon="12.9285"><ele>515.0</ele><time>2026-04-26T12:19:57.519Z</time></trkpt><trkpt lat="43.2016017" lon="12.92859"><ele>517.6666666666666</ele><time>2026-04-26T12:19:58.519Z</time></trkpt><trkpt lat="43.20181" lon="12.928665"><ele>520.3333333333334</ele><time>2026-04-26T12:19:59.519Z</time></trkpt><trkpt lat="43.2020233" lon="12.92872"><ele>523.0</ele><time>2026-04-26T12:20:00.52Z</time></trkpt><trkpt lat="43.2022433" lon="12.92877"><ele>524.6666666666667</ele><time>2026-04-26T12:20:01.519Z</time></trkpt><trkpt lat="43.2024683" lon="12.9288167"><ele>526.3333333333334</ele><time>2026-04-26T12:20:02.52Z</time></trkpt><trkpt lat="43.2026717" lon="12.9288567"><ele>528.0</ele><time>2026-04-26T12:20:03.519Z</time></trkpt><trkpt lat="43.2028467" lon="12.928895"><ele>528.0</ele><time>2026-04-26T12:20:04.52Z</time></trkpt><trkpt lat="43.2030033" lon="12.928925"><ele>528.0</ele><time>2026-04-26T12:20:05.52Z</time></trkpt><trkpt lat="43.20314" lon="12.92897"><ele>528.0</ele><time>2026-04-26T12:20:06.519Z</time></trkpt><trkpt lat="43.20325" lon="12.92902"><ele>528.0</ele><time>2026-04-26T12:20:07.519Z</time></trkpt><trkpt lat="43.2033433" lon="12.929105"><ele>532.0</ele><time>2026-04-26T12:20:08.519Z</time></trkpt><trkpt lat="43.2034133" lon="12.9292283"><ele>536.0</ele><time>2026-04-26T12:20:09.519Z</time></trkpt><trkpt lat="43.2034683" lon="12.9293933"><ele>540.0</ele><time>2026-04-26T12:20:10.519Z</time></trkpt><trkpt lat="43.203495" lon="12.9295883"><ele>544.0</ele><time>2026-04-26T12:20:11.52Z</time></trkpt><trkpt lat="43.2035283" lon="12.929805"><ele>544.0</ele><time>2026-04-26T12:20:12.519Z</time></trkpt><trkpt lat="43.20356" lon="12.9300317"><ele>544.0</ele><time>2026-04-26T12:20:13.519Z</time></trkpt><trkpt lat="43.2036033" lon="12.9302483"><ele>544.0</ele><time>2026-04-26T12:20:14.52Z</time></trkpt><trkpt lat="43.2036417" lon="12.9304383"><ele>546.2</ele><time>2026-04-26T12:20:15.519Z</time></trkpt><trkpt lat="43.2036767" lon="12.9306083"><ele>548.4</ele><time>2026-04-26T12:20:16.519Z</time></trkpt><trkpt lat="43.2037017" lon="12.93074"><ele>550.6</ele><time>2026-04-26T12:20:17.519Z</time></trkpt><trkpt lat="43.2037117" lon="12.9308483"><ele>552.8</ele><time>2026-04-26T12:20:18.519Z</time></trkpt><trkpt lat="43.2036833" lon="12.9309433"><ele>555.0</ele><time>2026-04-26T12:20:19.519Z</time></trkpt><trkpt lat="43.2036217" lon="12.931005"><ele>556.4</ele><time>2026-04-26T12:20:20.52Z</time></trkpt><trkpt lat="43.2035317" lon="12.9310383"><ele>557.8</ele><time>2026-04-26T12:20:21.519Z</time></trkpt><trkpt lat="43.20344" lon="12.93105"><ele>559.2</ele><time>2026-04-26T12:20:22.519Z</time></trkpt><trkpt lat="43.20334" lon="12.9310233"><ele>560.6</ele><time>2026-04-26T12:20:23.519Z</time></trkpt><trkpt lat="43.2032467" lon="12.9309583"><ele>562.0</ele><time>2026-04-26T12:20:24.52Z</time></trkpt><trkpt lat="43.203155" lon="12.9308567"><ele>562.0</ele><time>2026-04-26T12:20:25.519Z</time></trkpt><trkpt lat="43.2030617" lon="12.9307133"><ele>562.0</ele><time>2026-04-26T12:20:26.519Z</time></trkpt><trkpt lat="43.2029783" lon="12.93055"><ele>562.0</ele><time>2026-04-26T12:20:27.519Z</time></trkpt><trkpt lat="43.202895" lon="12.9304383"><ele>562.0</ele><time>2026-04-26T12:20:28.519Z</time></trkpt><trkpt lat="43.2027933" lon="12.9303783"><ele>562.0</ele><time>2026-04-26T12:20:29.519Z</time></trkpt><trkpt lat="43.202685" lon="12.9303667"><ele>562.0</ele><time>2026-04-26T12:20:30.52Z</time></trkpt><trkpt lat="43.2025467" lon="12.930385"><ele>562.0</ele><time>2026-04-26T12:20:31.519Z</time></trkpt><trkpt lat="43.202375" lon="12.9304133"><ele>562.0</ele><time>2026-04-26T12:20:32.519Z</time></trkpt><trkpt lat="43.202195" lon="12.9304367"><ele>564.0</ele><time>2026-04-26T12:20:33.52Z</time></trkpt><trkpt lat="43.2020083" lon="12.9304517"><ele>566.0</ele><time>2026-04-26T12:20:34.519Z</time></trkpt><trkpt lat="43.2018167" lon="12.93047"><ele>568.0</ele><time>2026-04-26T12:20:35.52Z</time></trkpt><trkpt lat="43.2016333" lon="12.9304933"><ele>567.0</ele><time>2026-04-26T12:20:36.519Z</time></trkpt><trkpt lat="43.20146" lon="12.9305233"><ele>566.0</ele><time>2026-04-26T12:20:37.519Z</time></trkpt><trkpt lat="43.2012933" lon="12.9305867"><ele>565.0</ele><time>2026-04-26T12:20:38.519Z</time></trkpt><trkpt lat="43.2011333" lon="12.930675"><ele>565.0</ele><time>2026-04-26T12:20:39.519Z</time></trkpt><trkpt lat="43.2009717" lon="12.9307817"><ele>565.0</ele><time>2026-04-26T12:20:40.519Z</time></trkpt><trkpt lat="43.2008067" lon="12.93088"><ele>565.0</ele><time>2026-04-26T12:20:41.52Z</time></trkpt><trkpt lat="43.20064" lon="12.9309817"><ele>569.6666666666667</ele><time>2026-04-26T12:20:42.519Z</time></trkpt><trkpt lat="43.2004917" lon="12.93111"><ele>574.3333333333334</ele><time>2026-04-26T12:20:43.519Z</time></trkpt><trkpt lat="43.200345" lon="12.9312483"><ele>579.0</ele><time>2026-04-26T12:20:44.519Z</time></trkpt><trkpt lat="43.2002017" lon="12.9313933"><ele>579.0</ele><time>2026-04-26T12:20:45.518Z</time></trkpt><trkpt lat="43.2000583" lon="12.9315483"><ele>579.0</ele><time>2026-04-26T12:20:46.518Z</time></trkpt><trkpt lat="43.1999033" lon="12.9317017"><ele>579.0</ele><time>2026-04-26T12:20:47.519Z</time></trkpt><trkpt lat="43.1997533" lon="12.931875"><ele>579.3333333333334</ele><time>2026-04-26T12:20:48.518Z</time></trkpt><trkpt lat="43.1996017" lon="12.9320517"><ele>579.6666666666667</ele><time>2026-04-26T12:20:49.518Z</time></trkpt><trkpt lat="43.1994567" lon="12.9322333"><ele>580.0</ele><time>2026-04-26T12:20:50.518Z</time></trkpt><trkpt lat="43.1993067" lon="12.9324183"><ele>581.3333333333334</ele><time>2026-04-26T12:20:51.518Z</time></trkpt><trkpt lat="43.19916" lon="12.9326083"><ele>582.6666666666666</ele><time>2026-04-26T12:20:52.518Z</time></trkpt><trkpt lat="43.199005" lon="12.932795"><ele>584.0</ele><time>2026-04-26T12:20:53.518Z</time></trkpt><trkpt lat="43.1988467" lon="12.932975"><ele>584.0</ele><time>2026-04-26T12:20:54.518Z</time></trkpt><trkpt lat="43.198695" lon="12.93315"><ele>584.0</ele><time>2026-04-26T12:20:55.518Z</time></trkpt><trkpt lat="43.198545" lon="12.9333167"><ele>584.0</ele><time>2026-04-26T12:20:56.518Z</time></trkpt><trkpt lat="43.1983867" lon="12.93348"><ele>584.0</ele><time>2026-04-26T12:20:57.518Z</time></trkpt><trkpt lat="43.1982267" lon="12.93364"><ele>584.0</ele><time>2026-04-26T12:20:58.519Z</time></trkpt><trkpt lat="43.198075" lon="12.93379"><ele>584.0</ele><time>2026-04-26T12:20:59.519Z</time></trkpt><trkpt lat="43.197935" lon="12.9339317"><ele>584.0</ele><time>2026-04-26T12:21:00.518Z</time></trkpt><trkpt lat="43.1978083" lon="12.9340467"><ele>584.0</ele><time>2026-04-26T12:21:01.519Z</time></trkpt><trkpt lat="43.1976983" lon="12.9341417"><ele>584.0</ele><time>2026-04-26T12:21:02.518Z</time></trkpt><trkpt lat="43.1976083" lon="12.9342"><ele>584.0</ele><time>2026-04-26T12:21:03.518Z</time></trkpt><trkpt lat="43.1975483" lon="12.9342483"><ele>584.0</ele><time>2026-04-26T12:21:04.518Z</time></trkpt><trkpt lat="43.19751" lon="12.9343717"><ele>584.0</ele><time>2026-04-26T12:21:06.518Z</time></trkpt><trkpt lat="43.1975867" lon="12.9344367"><ele>584.0</ele><time>2026-04-26T12:21:08.518Z</time></trkpt><trkpt lat="43.1977017" lon="12.9343567"><ele>584.0</ele><time>2026-04-26T12:21:10.518Z</time></trkpt><trkpt lat="43.197765" lon="12.934275"><ele>584.0</ele><time>2026-04-26T12:21:11.519Z</time></trkpt><trkpt lat="43.19784" lon="12.9342017"><ele>584.0</ele><time>2026-04-26T12:21:12.518Z</time></trkpt><trkpt lat="43.1979333" lon="12.9341383"><ele>584.0</ele><time>2026-04-26T12:21:13.518Z</time></trkpt><trkpt lat="43.1980367" lon="12.9340767"><ele>584.0</ele><time>2026-04-26T12:21:14.518Z</time></trkpt><trkpt lat="43.1981667" lon="12.9340233"><ele>584.0</ele><time>2026-04-26T12:21:15.518Z</time></trkpt><trkpt lat="43.1983533" lon="12.933945"><ele>600.0</ele><time>2026-04-26T12:21:16.518Z</time></trkpt><trkpt lat="43.19857" lon="12.9338567"><ele>616.0</ele><time>2026-04-26T12:21:17.518Z</time></trkpt><trkpt lat="43.1988083" lon="12.9337667"><ele>623.6666666666667</ele><time>2026-04-26T12:21:18.518Z</time></trkpt><trkpt lat="43.1990183" lon="12.9336783"><ele>631.3333333333334</ele><time>2026-04-26T12:21:19.518Z</time></trkpt><trkpt lat="43.1992133" lon="12.9335967"><ele>639.0</ele><time>2026-04-26T12:21:20.518Z</time></trkpt><trkpt lat="43.1994" lon="12.9335033"><ele>639.0</ele><time>2026-04-26T12:21:21.518Z</time></trkpt><trkpt lat="43.19958" lon="12.9334117"><ele>639.0</ele><time>2026-04-26T12:21:22.519Z</time></trkpt><trkpt lat="43.199755" lon="12.9333117"><ele>639.0</ele><time>2026-04-26T12:21:23.518Z</time></trkpt><trkpt lat="43.1999233" lon="12.9332217"><ele>636.0</ele><time>2026-04-26T12:21:24.518Z</time></trkpt><trkpt lat="43.2000883" lon="12.9331267"><ele>633.0</ele><time>2026-04-26T12:21:25.518Z</time></trkpt><trkpt lat="43.2002433" lon="12.9330367"><ele>630.0</ele><time>2026-04-26T12:21:26.518Z</time></trkpt><trkpt lat="43.20039" lon="12.932955"><ele>630.0</ele><time>2026-04-26T12:21:27.519Z</time></trkpt><trkpt lat="43.2005317" lon="12.932885"><ele>630.0</ele><time>2026-04-26T12:21:28.518Z</time></trkpt><trkpt lat="43.2006867" lon="12.93285"><ele>630.0</ele><time>2026-04-26T12:21:29.518Z</time></trkpt><trkpt lat="43.20083" lon="12.932835"><ele>633.75</ele><time>2026-04-26T12:21:30.519Z</time></trkpt><trkpt lat="43.2009683" lon="12.9328283"><ele>637.5</ele><time>2026-04-26T12:21:31.518Z</time></trkpt><trkpt lat="43.2010933" lon="12.932825"><ele>641.25</ele><time>2026-04-26T12:21:32.518Z</time></trkpt><trkpt lat="43.2012067" lon="12.932865"><ele>645.0</ele><time>2026-04-26T12:21:33.518Z</time></trkpt><trkpt lat="43.2013083" lon="12.9329567"><ele>645.0</ele><time>2026-04-26T12:21:34.518Z</time></trkpt><trkpt lat="43.2014017" lon="12.9330767"><ele>645.0</ele><time>2026-04-26T12:21:35.518Z</time></trkpt><trkpt lat="43.2015" lon="12.9331983"><ele>645.0</ele><time>2026-04-26T12:21:36.518Z</time></trkpt><trkpt lat="43.2015883" lon="12.9333283"><ele>645.0</ele><time>2026-04-26T12:21:37.518Z</time></trkpt><trkpt lat="43.20166" lon="12.9334917"><ele>647.75</ele><time>2026-04-26T12:21:38.519Z</time></trkpt><trkpt lat="43.2017217" lon="12.9336633"><ele>650.5</ele><time>2026-04-26T12:21:39.518Z</time></trkpt><trkpt lat="43.2017567" lon="12.93386"><ele>653.25</ele><time>2026-04-26T12:21:40.518Z</time></trkpt><trkpt lat="43.2017933" lon="12.934075"><ele>656.0</ele><time>2026-04-26T12:21:41.518Z</time></trkpt><trkpt lat="43.2018183" lon="12.9342683"><ele>658.0</ele><time>2026-04-26T12:21:42.518Z</time></trkpt><trkpt lat="43.2018383" lon="12.93443"><ele>660.0</ele><time>2026-04-26T12:21:43.518Z</time></trkpt><trkpt lat="43.2018483" lon="12.93457"><ele>662.0</ele><time>2026-04-26T12:21:44.518Z</time></trkpt><trkpt lat="43.20184" lon="12.934695"><ele>664.0</ele><time>2026-04-26T12:21:45.519Z</time></trkpt><trkpt lat="43.2018117" lon="12.9348233"><ele>666.0</ele><time>2026-04-26T12:21:46.518Z</time></trkpt><trkpt lat="43.20177" lon="12.9349567"><ele>667.1999999999999</ele><time>2026-04-26T12:21:47.518Z</time></trkpt><trkpt lat="43.2017233" lon="12.9350833"><ele>668.4</ele><time>2026-04-26T12:21:48.518Z</time></trkpt><trkpt lat="43.2016583" lon="12.9352017"><ele>669.6</ele><time>2026-04-26T12:21:49.518Z</time></trkpt><trkpt lat="43.2015883" lon="12.9353067"><ele>670.8</ele><time>2026-04-26T12:21:50.518Z</time></trkpt><trkpt lat="43.20153" lon="12.9354133"><ele>672.0</ele><time>2026-04-26T12:21:51.519Z</time></trkpt><trkpt lat="43.20149" lon="12.9355283"><ele>672.0</ele><time>2026-04-26T12:21:52.518Z</time></trkpt><trkpt lat="43.201485" lon="12.935665"><ele>672.0</ele><time>2026-04-26T12:21:53.518Z</time></trkpt><trkpt lat="43.2015283" lon="12.93582"><ele>672.0</ele><time>2026-04-26T12:21:54.518Z</time></trkpt><trkpt lat="43.2016067" lon="12.9359867"><ele>672.0</ele><time>2026-04-26T12:21:55.518Z</time></trkpt><trkpt lat="43.2016733" lon="12.936165"><ele>677.3333333333334</ele><time>2026-04-26T12:21:56.518Z</time></trkpt><trkpt lat="43.2017433" lon="12.9363583"><ele>682.6666666666667</ele><time>2026-04-26T12:21:57.518Z</time></trkpt><trkpt lat="43.2018167" lon="12.93655"><ele>688.0</ele><time>2026-04-26T12:21:58.518Z</time></trkpt><trkpt lat="43.2018933" lon="12.9367483"><ele>696.3333333333334</ele><time>2026-04-26T12:21:59.518Z</time></trkpt><trkpt lat="43.2019883" lon="12.9369433"><ele>704.6666666666666</ele><time>2026-04-26T12:22:00.518Z</time></trkpt><trkpt lat="43.2020933" lon="12.93714"><ele>713.0</ele><time>2026-04-26T12:22:01.518Z</time></trkpt><trkpt lat="43.2022083" lon="12.9373233"><ele>713.0</ele><time>2026-04-26T12:22:02.518Z</time></trkpt><trkpt lat="43.2023233" lon="12.9374767"><ele>713.0</ele><time>2026-04-26T12:22:03.518Z</time></trkpt><trkpt lat="43.202425" lon="12.93762"><ele>713.0</ele><time>2026-04-26T12:22:04.518Z</time></trkpt><trkpt lat="43.2025417" lon="12.93774"><ele>711.0</ele><time>2026-04-26T12:22:05.518Z</time></trkpt><trkpt lat="43.2026783" lon="12.9378467"><ele>709.0</ele><time>2026-04-26T12:22:06.519Z</time></trkpt><trkpt lat="43.2028267" lon="12.9379483"><ele>707.0</ele><time>2026-04-26T12:22:07.518Z</time></trkpt><trkpt lat="43.2029767" lon="12.9380567"><ele>707.0</ele><time>2026-04-26T12:22:08.518Z</time></trkpt><trkpt lat="43.2031317" lon="12.9381617"><ele>707.0</ele><time>2026-04-26T12:22:09.518Z</time></trkpt><trkpt lat="43.2032683" lon="12.93826"><ele>707.0</ele><time>2026-04-26T12:22:10.518Z</time></trkpt><trkpt lat="43.2033917" lon="12.9383233"><ele>703.25</ele><time>2026-04-26T12:22:11.518Z</time></trkpt><trkpt lat="43.2035083" lon="12.938345"><ele>699.5</ele><time>2026-04-26T12:22:12.518Z</time></trkpt><trkpt lat="43.20361" lon="12.938315"><ele>695.75</ele><time>2026-04-26T12:22:13.518Z</time></trkpt><trkpt lat="43.2037483" lon="12.9382567"><ele>692.0</ele><time>2026-04-26T12:22:14.519Z</time></trkpt><trkpt lat="43.20388" lon="12.9381817"><ele>696.0</ele><time>2026-04-26T12:22:15.519Z</time></trkpt><trkpt lat="43.2040033" lon="12.938075"><ele>700.0</ele><time>2026-04-26T12:22:16.518Z</time></trkpt><trkpt lat="43.20411" lon="12.9379433"><ele>704.0</ele><time>2026-04-26T12:22:17.519Z</time></trkpt><trkpt lat="43.20421" lon="12.93779"><ele>708.0</ele><time>2026-04-26T12:22:18.518Z</time></trkpt><trkpt lat="43.2043083" lon="12.9376217"><ele>701.0</ele><time>2026-04-26T12:22:19.518Z</time></trkpt><trkpt lat="43.2044217" lon="12.9374583"><ele>694.0</ele><time>2026-04-26T12:22:20.518Z</time></trkpt><trkpt lat="43.20454" lon="12.9372867"><ele>687.0</ele><time>2026-04-26T12:22:21.518Z</time></trkpt><trkpt lat="43.20467" lon="12.9371217"><ele>687.0</ele><time>2026-04-26T12:22:22.518Z</time></trkpt><trkpt lat="43.2048083" lon="12.9369817"><ele>687.0</ele><time>2026-04-26T12:22:23.518Z</time></trkpt><trkpt lat="43.20496" lon="12.936865"><ele>687.0</ele><time>2026-04-26T12:22:24.518Z</time></trkpt><trkpt lat="43.2050933" lon="12.9367567"><ele>689.5</ele><time>2026-04-26T12:22:25.518Z</time></trkpt><trkpt lat="43.2052233" lon="12.9366583"><ele>692.0</ele><time>2026-04-26T12:22:26.518Z</time></trkpt><trkpt lat="43.2053467" lon="12.93658"><ele>694.5</ele><time>2026-04-26T12:22:27.518Z</time></trkpt><trkpt lat="43.2054683" lon="12.9365433"><ele>697.0</ele><time>2026-04-26T12:22:28.518Z</time></trkpt><trkpt lat="43.205575" lon="12.9365183"><ele>701.8333333333334</ele><time>2026-04-26T12:22:29.518Z</time></trkpt><trkpt lat="43.2056733" lon="12.9365033"><ele>706.6666666666667</ele><time>2026-04-26T12:22:30.519Z</time></trkpt><trkpt lat="43.2057617" lon="12.9364933"><ele>711.5</ele><time>2026-04-26T12:22:31.518Z</time></trkpt><trkpt lat="43.205835" lon="12.9364483"><ele>716.3333333333334</ele><time>2026-04-26T12:22:32.519Z</time></trkpt><trkpt lat="43.20589" lon="12.9363633"><ele>721.1666666666666</ele><time>2026-04-26T12:22:33.518Z</time></trkpt><trkpt lat="43.205925" lon="12.9362483"><ele>726.0</ele><time>2026-04-26T12:22:34.519Z</time></trkpt><trkpt lat="43.2059383" lon="12.9361"><ele>726.0</ele><time>2026-04-26T12:22:35.518Z</time></trkpt><trkpt lat="43.2059583" lon="12.93592"><ele>726.0</ele><time>2026-04-26T12:22:36.518Z</time></trkpt><trkpt lat="43.20598" lon="12.9357733"><ele>726.0</ele><time>2026-04-26T12:22:37.518Z</time></trkpt><trkpt lat="43.2060233" lon="12.9356467"><ele>726.0</ele><time>2026-04-26T12:22:38.518Z</time></trkpt><trkpt lat="43.20611" lon="12.93555"><ele>729.75</ele><time>2026-04-26T12:22:39.518Z</time></trkpt><trkpt lat="43.2062167" lon="12.9354833"><ele>733.5</ele><time>2026-04-26T12:22:40.518Z</time></trkpt><trkpt lat="43.2063383" lon="12.9354317"><ele>737.25</ele><time>2026-04-26T12:22:41.518Z</time></trkpt><trkpt lat="43.2064633" lon="12.9353883"><ele>741.0</ele><time>2026-04-26T12:22:42.519Z</time></trkpt><trkpt lat="43.2066033" lon="12.935345"><ele>741.0</ele><time>2026-04-26T12:22:43.518Z</time></trkpt><trkpt lat="43.2067483" lon="12.9353083"><ele>741.0</ele><time>2026-04-26T12:22:44.518Z</time></trkpt><trkpt lat="43.2069083" lon="12.9352867"><ele>741.0</ele><time>2026-04-26T12:22:45.519Z</time></trkpt><trkpt lat="43.2070717" lon="12.9352667"><ele>741.0</ele><time>2026-04-26T12:22:46.518Z</time></trkpt><trkpt lat="43.2072367" lon="12.935275"><ele>741.0</ele><time>2026-04-26T12:22:47.518Z</time></trkpt><trkpt lat="43.2073967" lon="12.9352867"><ele>741.0</ele><time>2026-04-26T12:22:48.518Z</time></trkpt><trkpt lat="43.207535" lon="12.93528"><ele>742.8</ele><time>2026-04-26T12:22:49.518Z</time></trkpt><trkpt lat="43.2076533" lon="12.9352633"><ele>744.5999999999999</ele><time>2026-04-26T12:22:50.518Z</time></trkpt><trkpt lat="43.207765" lon="12.9352483"><ele>746.4</ele><time>2026-04-26T12:22:51.518Z</time></trkpt><trkpt lat="43.2078617" lon="12.93524"><ele>748.2</ele><time>2026-04-26T12:22:52.518Z</time></trkpt><trkpt lat="43.20794" lon="12.93525"><ele>750.0</ele><time>2026-04-26T12:22:53.518Z</time></trkpt><trkpt lat="43.208025" lon="12.9352617"><ele>750.0</ele><time>2026-04-26T12:22:54.518Z</time></trkpt><trkpt lat="43.2081183" lon="12.9352717"><ele>750.0</ele><time>2026-04-26T12:22:55.518Z</time></trkpt><trkpt lat="43.2082233" lon="12.93528"><ele>750.0</ele><time>2026-04-26T12:22:56.519Z</time></trkpt><trkpt lat="43.20834" lon="12.9352967"><ele>750.0</ele><time>2026-04-26T12:22:57.518Z</time></trkpt><trkpt lat="43.20847" lon="12.9353133"><ele>750.0</ele><time>2026-04-26T12:22:58.518Z</time></trkpt><trkpt lat="43.2086067" lon="12.9353267"><ele>749.6666666666666</ele><time>2026-04-26T12:22:59.518Z</time></trkpt><trkpt lat="43.2087667" lon="12.93535"><ele>749.3333333333333</ele><time>2026-04-26T12:23:00.518Z</time></trkpt><trkpt lat="43.208925" lon="12.9353867"><ele>749.0</ele><time>2026-04-26T12:23:01.518Z</time></trkpt><trkpt lat="43.2090933" lon="12.93542"><ele>746.3333333333333</ele><time>2026-04-26T12:23:02.518Z</time></trkpt><trkpt lat="43.2092617" lon="12.9354567"><ele>743.6666666666666</ele><time>2026-04-26T12:23:03.518Z</time></trkpt><trkpt lat="43.2094217" lon="12.9354983"><ele>741.0</ele><time>2026-04-26T12:23:04.519Z</time></trkpt><trkpt lat="43.2095783" lon="12.935555"><ele>741.0</ele><time>2026-04-26T12:23:05.518Z</time></trkpt><trkpt lat="43.209735" lon="12.9356367"><ele>741.0</ele><time>2026-04-26T12:23:06.518Z</time></trkpt><trkpt lat="43.209905" lon="12.93572"><ele>741.0</ele><time>2026-04-26T12:23:07.518Z</time></trkpt><trkpt lat="43.2100783" lon="12.9357883"><ele>742.6666666666666</ele><time>2026-04-26T12:23:08.518Z</time></trkpt><trkpt lat="43.210235" lon="12.9358583"><ele>744.3333333333333</ele><time>2026-04-26T12:23:09.518Z</time></trkpt><trkpt lat="43.2103917" lon="12.935935"><ele>746.0</ele><time>2026-04-26T12:23:10.518Z</time></trkpt><trkpt lat="43.21054" lon="12.93602"><ele>736.3333333333333</ele><time>2026-04-26T12:23:11.518Z</time></trkpt><trkpt lat="43.210675" lon="12.9361333"><ele>726.6666666666666</ele><time>2026-04-26T12:23:12.518Z</time></trkpt><trkpt lat="43.21081" lon="12.9362383"><ele>717.0</ele><time>2026-04-26T12:23:13.518Z</time></trkpt><trkpt lat="43.210935" lon="12.9363283"><ele>717.0</ele><time>2026-04-26T12:23:14.519Z</time></trkpt><trkpt lat="43.2110467" lon="12.9363967"><ele>717.0</ele><time>2026-04-26T12:23:15.518Z</time></trkpt><trkpt lat="43.2111433" lon="12.9364767"><ele>717.0</ele><time>2026-04-26T12:23:16.519Z</time></trkpt><trkpt lat="43.211215" lon="12.9365633"><ele>717.0</ele><time>2026-04-26T12:23:17.518Z</time></trkpt><trkpt lat="43.2112667" lon="12.9366683"><ele>717.0</ele><time>2026-04-26T12:23:18.519Z</time></trkpt><trkpt lat="43.2112883" lon="12.9367917"><ele>720.0</ele><time>2026-04-26T12:23:19.518Z</time></trkpt><trkpt lat="43.21128" lon="12.936945"><ele>723.0</ele><time>2026-04-26T12:23:20.518Z</time></trkpt><trkpt lat="43.2112667" lon="12.937125"><ele>726.0</ele><time>2026-04-26T12:23:21.518Z</time></trkpt><trkpt lat="43.2112417" lon="12.9373267"><ele>729.0</ele><time>2026-04-26T12:23:22.518Z</time></trkpt><trkpt lat="43.2112083" lon="12.93755"><ele>728.0</ele><time>2026-04-26T12:23:23.518Z</time></trkpt><trkpt lat="43.2111717" lon="12.93778"><ele>727.0</ele><time>2026-04-26T12:23:24.519Z</time></trkpt><trkpt lat="43.211145" lon="12.93802"><ele>726.0</ele><time>2026-04-26T12:23:25.518Z</time></trkpt><trkpt lat="43.2111117" lon="12.938265"><ele>724.0</ele><time>2026-04-26T12:23:26.518Z</time></trkpt><trkpt lat="43.211085" lon="12.9385167"><ele>722.0</ele><time>2026-04-26T12:23:27.518Z</time></trkpt><trkpt lat="43.2110717" lon="12.9387633"><ele>720.0</ele><time>2026-04-26T12:23:28.518Z</time></trkpt><trkpt lat="43.2110667" lon="12.9390033"><ele>719.0</ele><time>2026-04-26T12:23:29.519Z</time></trkpt><trkpt lat="43.2110583" lon="12.9392433"><ele>718.0</ele><time>2026-04-26T12:23:30.518Z</time></trkpt><trkpt lat="43.21107" lon="12.9394683"><ele>717.0</ele><time>2026-04-26T12:23:31.518Z</time></trkpt><trkpt lat="43.21109" lon="12.9396817"><ele>717.0</ele><time>2026-04-26T12:23:32.518Z</time></trkpt><trkpt lat="43.2111033" lon="12.93987"><ele>717.0</ele><time>2026-04-26T12:23:33.518Z</time></trkpt><trkpt lat="43.2111183" lon="12.940035"><ele>717.0</ele><time>2026-04-26T12:23:34.518Z</time></trkpt><trkpt lat="43.21115" lon="12.9401867"><ele>717.0</ele><time>2026-04-26T12:23:35.518Z</time></trkpt><trkpt lat="43.2112133" lon="12.9403017"><ele>718.5</ele><time>2026-04-26T12:23:36.518Z</time></trkpt><trkpt lat="43.2113017" lon="12.9403883"><ele>720.0</ele><time>2026-04-26T12:23:37.518Z</time></trkpt><trkpt lat="43.2114167" lon="12.94045"><ele>721.5</ele><time>2026-04-26T12:23:38.518Z</time></trkpt><trkpt lat="43.211545" lon="12.9404983"><ele>723.0</ele><time>2026-04-26T12:23:39.518Z</time></trkpt><trkpt lat="43.2116767" lon="12.9405317"><ele>716.0</ele><time>2026-04-26T12:23:40.518Z</time></trkpt><trkpt lat="43.2117833" lon="12.9405133"><ele>709.0</ele><time>2026-04-26T12:23:41.518Z</time></trkpt><trkpt lat="43.2118767" lon="12.9404517"><ele>702.0</ele><time>2026-04-26T12:23:42.519Z</time></trkpt><trkpt lat="43.2119367" lon="12.9403133"><ele>695.0</ele><time>2026-04-26T12:23:43.518Z</time></trkpt><trkpt lat="43.2120017" lon="12.940125"><ele>691.3333333333333</ele><time>2026-04-26T12:23:44.518Z</time></trkpt><trkpt lat="43.21206" lon="12.9399117"><ele>687.6666666666666</ele><time>2026-04-26T12:23:45.518Z</time></trkpt><trkpt lat="43.2121267" lon="12.9396767"><ele>684.0</ele><time>2026-04-26T12:23:46.518Z</time></trkpt><trkpt lat="43.2122167" lon="12.939435"><ele>684.6666666666666</ele><time>2026-04-26T12:23:47.518Z</time></trkpt><trkpt lat="43.2123183" lon="12.9391833"><ele>685.3333333333333</ele><time>2026-04-26T12:23:48.519Z</time></trkpt><trkpt lat="43.212425" lon="12.9389217"><ele>686.0</ele><time>2026-04-26T12:23:49.518Z</time></trkpt><trkpt lat="43.2125267" lon="12.9386533"><ele>680.6666666666666</ele><time>2026-04-26T12:23:50.518Z</time></trkpt><trkpt lat="43.21263" lon="12.9383817"><ele>675.3333333333334</ele><time>2026-04-26T12:23:51.518Z</time></trkpt><trkpt lat="43.2127517" lon="12.9381367"><ele>670.0</ele><time>2026-04-26T12:23:52.518Z</time></trkpt><trkpt lat="43.2128633" lon="12.9378883"><ele>670.0</ele><time>2026-04-26T12:23:53.518Z</time></trkpt><trkpt lat="43.2129767" lon="12.9376583"><ele>670.0</ele><time>2026-04-26T12:23:54.518Z</time></trkpt><trkpt lat="43.21309" lon="12.9374167"><ele>670.0</ele><time>2026-04-26T12:23:55.519Z</time></trkpt><trkpt lat="43.2131933" lon="12.9371633"><ele>672.3333333333334</ele><time>2026-04-26T12:23:56.518Z</time></trkpt><trkpt lat="43.2133017" lon="12.9369"><ele>674.6666666666666</ele><time>2026-04-26T12:23:57.518Z</time></trkpt><trkpt lat="43.2134017" lon="12.93664"><ele>677.0</ele><time>2026-04-26T12:23:58.518Z</time></trkpt><trkpt lat="43.2134917" lon="12.9364"><ele>672.25</ele><time>2026-04-26T12:23:59.518Z</time></trkpt><trkpt lat="43.21357" lon="12.93621"><ele>667.5</ele><time>2026-04-26T12:24:00.518Z</time></trkpt><trkpt lat="43.2136383" lon="12.9360483"><ele>662.75</ele><time>2026-04-26T12:24:01.518Z</time></trkpt><trkpt lat="43.2137183" lon="12.9359133"><ele>658.0</ele><time>2026-04-26T12:24:02.518Z</time></trkpt><trkpt lat="43.2138167" lon="12.9358033"><ele>657.0</ele><time>2026-04-26T12:24:03.518Z</time></trkpt><trkpt lat="43.2139267" lon="12.9357233"><ele>656.0</ele><time>2026-04-26T12:24:04.519Z</time></trkpt><trkpt lat="43.2140667" lon="12.93567"><ele>655.0</ele><time>2026-04-26T12:24:05.518Z</time></trkpt><trkpt lat="43.214225" lon="12.935635"><ele>654.0</ele><time>2026-04-26T12:24:06.519Z</time></trkpt><trkpt lat="43.2143933" lon="12.9356167"><ele>654.0</ele><time>2026-04-26T12:24:07.519Z</time></trkpt><trkpt lat="43.214575" lon="12.9356133"><ele>654.0</ele><time>2026-04-26T12:24:08.518Z</time></trkpt><trkpt lat="43.21478" lon="12.9356433"><ele>654.0</ele><time>2026-04-26T12:24:09.518Z</time></trkpt><trkpt lat="43.2149933" lon="12.9356633"><ele>653.0</ele><time>2026-04-26T12:24:10.518Z</time></trkpt><trkpt lat="43.2152033" lon="12.93567"><ele>652.0</ele><time>2026-04-26T12:24:11.518Z</time></trkpt><trkpt lat="43.2154117" lon="12.9356667"><ele>651.0</ele><time>2026-04-26T12:24:12.518Z</time></trkpt><trkpt lat="43.2156233" lon="12.9356617"><ele>648.6666666666666</ele><time>2026-04-26T12:24:13.518Z</time></trkpt><trkpt lat="43.2158317" lon="12.9356483"><ele>646.3333333333333</ele><time>2026-04-26T12:24:14.518Z</time></trkpt><trkpt lat="43.2160433" lon="12.9356417"><ele>644.0</ele><time>2026-04-26T12:24:15.518Z</time></trkpt><trkpt lat="43.216235" lon="12.9356283"><ele>644.0</ele><time>2026-04-26T12:24:16.518Z</time></trkpt><trkpt lat="43.2164083" lon="12.9356067"><ele>644.0</ele><time>2026-04-26T12:24:17.518Z</time></trkpt><trkpt lat="43.2165683" lon="12.93558"><ele>644.0</ele><time>2026-04-26T12:24:18.519Z</time></trkpt><trkpt lat="43.2167217" lon="12.93555"><ele>643.75</ele><time>2026-04-26T12:24:19.518Z</time></trkpt><trkpt lat="43.21687" lon="12.93552"><ele>643.5</ele><time>2026-04-26T12:24:20.518Z</time></trkpt><trkpt lat="43.217005" lon="12.9355117"><ele>643.25</ele><time>2026-04-26T12:24:21.519Z</time></trkpt><trkpt lat="43.21715" lon="12.935525"><ele>643.0</ele><time>2026-04-26T12:24:22.518Z</time></trkpt><trkpt lat="43.21729" lon="12.9355533"><ele>641.3333333333334</ele><time>2026-04-26T12:24:23.518Z</time></trkpt><trkpt lat="43.21744" lon="12.9355667"><ele>639.6666666666666</ele><time>2026-04-26T12:24:24.519Z</time></trkpt><trkpt lat="43.2175833" lon="12.935535"><ele>638.0</ele><time>2026-04-26T12:24:25.519Z</time></trkpt><trkpt lat="43.2177433" lon="12.9354783"><ele>638.0</ele><time>2026-04-26T12:24:26.519Z</time></trkpt><trkpt lat="43.2179183" lon="12.9353817"><ele>638.0</ele><time>2026-04-26T12:24:27.518Z</time></trkpt><trkpt lat="43.2181" lon="12.9352767"><ele>638.0</ele><time>2026-04-26T12:24:28.519Z</time></trkpt><trkpt lat="43.2182867" lon="12.935185"><ele>639.6666666666666</ele><time>2026-04-26T12:24:29.518Z</time></trkpt><trkpt lat="43.21847" lon="12.9350817"><ele>641.3333333333334</ele><time>2026-04-26T12:24:30.518Z</time></trkpt><trkpt lat="43.2186367" lon="12.9349583"><ele>643.0</ele><time>2026-04-26T12:24:31.518Z</time></trkpt><trkpt lat="43.2187883" lon="12.9348183"><ele>637.6666666666667</ele><time>2026-04-26T12:24:32.518Z</time></trkpt><trkpt lat="43.2189217" lon="12.9346533"><ele>632.3333333333334</ele><time>2026-04-26T12:24:33.518Z</time></trkpt><trkpt lat="43.2190617" lon="12.9344733"><ele>627.0</ele><time>2026-04-26T12:24:34.519Z</time></trkpt><trkpt lat="43.2192033" lon="12.934285"><ele>617.0</ele><time>2026-04-26T12:24:35.519Z</time></trkpt><trkpt lat="43.2193517" lon="12.934125"><ele>607.0</ele><time>2026-04-26T12:24:36.518Z</time></trkpt><trkpt lat="43.2194983" lon="12.933975"><ele>597.0</ele><time>2026-04-26T12:24:37.518Z</time></trkpt><trkpt lat="43.2196333" lon="12.93384"><ele>597.0</ele><time>2026-04-26T12:24:38.518Z</time></trkpt><trkpt lat="43.2197567" lon="12.93372"><ele>597.0</ele><time>2026-04-26T12:24:39.518Z</time></trkpt><trkpt lat="43.2198733" lon="12.933625"><ele>597.0</ele><time>2026-04-26T12:24:40.518Z</time></trkpt><trkpt lat="43.2199967" lon="12.9335533"><ele>597.0</ele><time>2026-04-26T12:24:41.518Z</time></trkpt><trkpt lat="43.2201083" lon="12.9334767"><ele>594.5</ele><time>2026-04-26T12:24:42.519Z</time></trkpt><trkpt lat="43.2202033" lon="12.9334"><ele>592.0</ele><time>2026-04-26T12:24:43.518Z</time></trkpt><trkpt lat="43.2202683" lon="12.93329"><ele>589.5</ele><time>2026-04-26T12:24:44.518Z</time></trkpt><trkpt lat="43.2203133" lon="12.9331317"><ele>587.0</ele><time>2026-04-26T12:24:45.518Z</time></trkpt><trkpt lat="43.2203467" lon="12.932925"><ele>587.0</ele><time>2026-04-26T12:24:46.519Z</time></trkpt><trkpt lat="43.2203733" lon="12.9327"><ele>587.0</ele><time>2026-04-26T12:24:47.519Z</time></trkpt><trkpt lat="43.2204017" lon="12.93249"><ele>587.0</ele><time>2026-04-26T12:24:48.519Z</time></trkpt><trkpt lat="43.2204233" lon="12.9323417"><ele>587.0</ele><time>2026-04-26T12:24:49.518Z</time></trkpt><trkpt lat="43.2204433" lon="12.9322"><ele>586.2</ele><time>2026-04-26T12:24:50.518Z</time></trkpt><trkpt lat="43.22048" lon="12.9320533"><ele>585.4000000000001</ele><time>2026-04-26T12:24:51.519Z</time></trkpt><trkpt lat="43.220525" lon="12.93194"><ele>584.5999999999999</ele><time>2026-04-26T12:24:52.518Z</time></trkpt><trkpt lat="43.2205783" lon="12.9318367"><ele>583.8</ele><time>2026-04-26T12:24:53.519Z</time></trkpt><trkpt lat="43.2206667" lon="12.9317317"><ele>583.0</ele><time>2026-04-26T12:24:54.518Z</time></trkpt><trkpt lat="43.2207817" lon="12.9316383"><ele>578.6666666666667</ele><time>2026-04-26T12:24:55.518Z</time></trkpt><trkpt lat="43.2209083" lon="12.9315467"><ele>574.3333333333334</ele><time>2026-04-26T12:24:56.518Z</time></trkpt><trkpt lat="43.2210533" lon="12.9314633"><ele>570.0</ele><time>2026-04-26T12:24:57.518Z</time></trkpt><trkpt lat="43.221195" lon="12.93139"><ele>570.0</ele><time>2026-04-26T12:24:58.518Z</time></trkpt><trkpt lat="43.221315" lon="12.9313233"><ele>570.0</ele><time>2026-04-26T12:24:59.519Z</time></trkpt><trkpt lat="43.2214133" lon="12.9312417"><ele>570.0</ele><time>2026-04-26T12:25:00.518Z</time></trkpt><trkpt lat="43.221515" lon="12.93113"><ele>570.0</ele><time>2026-04-26T12:25:01.518Z</time></trkpt><trkpt lat="43.221605" lon="12.9309783"><ele>567.6</ele><time>2026-04-26T12:25:02.519Z</time></trkpt><trkpt lat="43.2216717" lon="12.930825"><ele>565.2</ele><time>2026-04-26T12:25:03.518Z</time></trkpt><trkpt lat="43.221735" lon="12.9306933"><ele>562.8</ele><time>2026-04-26T12:25:04.519Z</time></trkpt><trkpt lat="43.2218067" lon="12.9305933"><ele>560.4</ele><time>2026-04-26T12:25:05.518Z</time></trkpt><trkpt lat="43.2218883" lon="12.930535"><ele>558.0</ele><time>2026-04-26T12:25:06.518Z</time></trkpt><trkpt lat="43.22198" lon="12.930515"><ele>558.0</ele><time>2026-04-26T12:25:07.518Z</time></trkpt><trkpt lat="43.22209" lon="12.9305383"><ele>558.0</ele><time>2026-04-26T12:25:08.519Z</time></trkpt><trkpt lat="43.2222" lon="12.9306067"><ele>558.0</ele><time>2026-04-26T12:25:09.519Z</time></trkpt><trkpt lat="43.2223267" lon="12.9306933"><ele>558.0</ele><time>2026-04-26T12:25:10.518Z</time></trkpt><trkpt lat="43.2224467" lon="12.9307733"><ele>557.25</ele><time>2026-04-26T12:25:11.518Z</time></trkpt><trkpt lat="43.222565" lon="12.930825"><ele>556.5</ele><time>2026-04-26T12:25:12.518Z</time></trkpt><trkpt lat="43.2226833" lon="12.93087"><ele>555.75</ele><time>2026-04-26T12:25:13.518Z</time></trkpt><trkpt lat="43.2227983" lon="12.9308733"><ele>555.0</ele><time>2026-04-26T12:25:14.518Z</time></trkpt><trkpt lat="43.2229217" lon="12.9308517"><ele>555.0</ele><time>2026-04-26T12:25:15.518Z</time></trkpt><trkpt lat="43.2230483" lon="12.9308033"><ele>555.0</ele><time>2026-04-26T12:25:16.518Z</time></trkpt><trkpt lat="43.2231783" lon="12.9307433"><ele>555.0</ele><time>2026-04-26T12:25:17.519Z</time></trkpt><trkpt lat="43.22331" lon="12.93069"><ele>555.0</ele><time>2026-04-26T12:25:18.518Z</time></trkpt><trkpt lat="43.22345" lon="12.93065"><ele>554.25</ele><time>2026-04-26T12:25:19.518Z</time></trkpt><trkpt lat="43.22359" lon="12.9306167"><ele>553.5</ele><time>2026-04-26T12:25:20.518Z</time></trkpt><trkpt lat="43.2237283" lon="12.930585"><ele>552.75</ele><time>2026-04-26T12:25:21.518Z</time></trkpt><trkpt lat="43.2238633" lon="12.93057"><ele>552.0</ele><time>2026-04-26T12:25:22.518Z</time></trkpt><trkpt lat="43.223995" lon="12.93057"><ele>550.8000000000001</ele><time>2026-04-26T12:25:23.519Z</time></trkpt><trkpt lat="43.22412" lon="12.9305817"><ele>549.6</ele><time>2026-04-26T12:25:24.519Z</time></trkpt><trkpt lat="43.2242433" lon="12.9305883"><ele>548.4000000000001</ele><time>2026-04-26T12:25:25.518Z</time></trkpt><trkpt lat="43.22435" lon="12.9306117"><ele>547.2</ele><time>2026-04-26T12:25:26.519Z</time></trkpt><trkpt lat="43.224435" lon="12.9306333"><ele>546.0</ele><time>2026-04-26T12:25:27.518Z</time></trkpt><trkpt lat="43.2244983" lon="12.9306583"><ele>546.0</ele><time>2026-04-26T12:25:28.518Z</time></trkpt><trkpt lat="43.2245683" lon="12.9306767"><ele>546.0</ele><time>2026-04-26T12:25:29.518Z</time></trkpt><trkpt lat="43.2246317" lon="12.9306917"><ele>546.0</ele><time>2026-04-26T12:25:30.518Z</time></trkpt><trkpt lat="43.2246967" lon="12.9307183"><ele>546.0</ele><time>2026-04-26T12:25:31.518Z</time></trkpt><trkpt lat="43.2247567" lon="12.9307483"><ele>546.0</ele><time>2026-04-26T12:25:32.518Z</time></trkpt><trkpt lat="43.2248233" lon="12.9307983"><ele>546.0</ele><time>2026-04-26T12:25:33.518Z</time></trkpt><trkpt lat="43.2249167" lon="12.9308533"><ele>546.0</ele><time>2026-04-26T12:25:34.518Z</time></trkpt><trkpt lat="43.225015" lon="12.930925"><ele>544.25</ele><time>2026-04-26T12:25:35.518Z</time></trkpt><trkpt lat="43.225115" lon="12.93101"><ele>542.5</ele><time>2026-04-26T12:25:36.518Z</time></trkpt><trkpt lat="43.2252017" lon="12.931115"><ele>540.75</ele><time>2026-04-26T12:25:37.519Z</time></trkpt><trkpt lat="43.22529" lon="12.9312433"><ele>539.0</ele><time>2026-04-26T12:25:38.518Z</time></trkpt><trkpt lat="43.2253767" lon="12.9313867"><ele>539.0</ele><time>2026-04-26T12:25:39.519Z</time></trkpt><trkpt lat="43.2254567" lon="12.9315517"><ele>539.0</ele><time>2026-04-26T12:25:40.518Z</time></trkpt><trkpt lat="43.2255133" lon="12.93174"><ele>539.0</ele><time>2026-04-26T12:25:41.518Z</time></trkpt><trkpt lat="43.22559" lon="12.9319217"><ele>539.0</ele><time>2026-04-26T12:25:42.518Z</time></trkpt><trkpt lat="43.2256717" lon="12.9320933"><ele>538.25</ele><time>2026-04-26T12:25:43.518Z</time></trkpt><trkpt lat="43.2257633" lon="12.93225"><ele>537.5</ele><time>2026-04-26T12:25:44.518Z</time></trkpt><trkpt lat="43.22585" lon="12.93241"><ele>536.75</ele><time>2026-04-26T12:25:45.518Z</time></trkpt><trkpt lat="43.22592" lon="12.932565"><ele>536.0</ele><time>2026-04-26T12:25:46.519Z</time></trkpt><trkpt lat="43.2259833" lon="12.9327217"><ele>536.0</ele><time>2026-04-26T12:25:47.518Z</time></trkpt><trkpt lat="43.2260533" lon="12.9328733"><ele>536.0</ele><time>2026-04-26T12:25:48.518Z</time></trkpt><trkpt lat="43.2261283" lon="12.933035"><ele>536.0</ele><time>2026-04-26T12:25:49.518Z</time></trkpt><trkpt lat="43.2262033" lon="12.9331983"><ele>536.0</ele><time>2026-04-26T12:25:50.518Z</time></trkpt><trkpt lat="43.22628" lon="12.93335"><ele>535.75</ele><time>2026-04-26T12:25:51.518Z</time></trkpt><trkpt lat="43.2263467" lon="12.9335067"><ele>535.5</ele><time>2026-04-26T12:25:52.519Z</time></trkpt><trkpt lat="43.2264067" lon="12.9336583"><ele>535.25</ele><time>2026-04-26T12:25:53.518Z</time></trkpt><trkpt lat="43.2264367" lon="12.9338167"><ele>535.0</ele><time>2026-04-26T12:25:54.518Z</time></trkpt><trkpt lat="43.2264483" lon="12.9339667"><ele>535.0</ele><time>2026-04-26T12:25:55.518Z</time></trkpt><trkpt lat="43.2264467" lon="12.934105"><ele>535.0</ele><time>2026-04-26T12:25:56.518Z</time></trkpt><trkpt lat="43.226475" lon="12.9342433"><ele>535.0</ele><time>2026-04-26T12:25:57.518Z</time></trkpt><trkpt lat="43.2265383" lon="12.934375"><ele>535.0</ele><time>2026-04-26T12:25:58.519Z</time></trkpt><trkpt lat="43.2266383" lon="12.9344783"><ele>535.0</ele><time>2026-04-26T12:25:59.518Z</time></trkpt><trkpt lat="43.2267617" lon="12.93456"><ele>534.6666666666667</ele><time>2026-04-26T12:26:00.518Z</time></trkpt><trkpt lat="43.2268983" lon="12.9346383"><ele>534.3333333333334</ele><time>2026-04-26T12:26:01.518Z</time></trkpt><trkpt lat="43.2270383" lon="12.934725"><ele>534.0</ele><time>2026-04-26T12:26:02.518Z</time></trkpt><trkpt lat="43.227185" lon="12.9348117"><ele>533.0</ele><time>2026-04-26T12:26:03.519Z</time></trkpt><trkpt lat="43.2273333" lon="12.9349117"><ele>532.0</ele><time>2026-04-26T12:26:04.518Z</time></trkpt><trkpt lat="43.2274817" lon="12.9350183"><ele>531.0</ele><time>2026-04-26T12:26:05.518Z</time></trkpt><trkpt lat="43.2276117" lon="12.93513"><ele>533.0</ele><time>2026-04-26T12:26:06.518Z</time></trkpt><trkpt lat="43.22774" lon="12.9352617"><ele>535.0</ele><time>2026-04-26T12:26:07.518Z</time></trkpt><trkpt lat="43.2278583" lon="12.935405"><ele>537.0</ele><time>2026-04-26T12:26:08.518Z</time></trkpt><trkpt lat="43.2279817" lon="12.935555"><ele>537.0</ele><time>2026-04-26T12:26:09.518Z</time></trkpt><trkpt lat="43.228095" lon="12.9357083"><ele>537.0</ele><time>2026-04-26T12:26:10.518Z</time></trkpt><trkpt lat="43.2282067" lon="12.9358733"><ele>537.0</ele><time>2026-04-26T12:26:11.518Z</time></trkpt><trkpt lat="43.228315" lon="12.9360217"><ele>537.0</ele><time>2026-04-26T12:26:12.518Z</time></trkpt><trkpt lat="43.2284317" lon="12.93616"><ele>537.0</ele><time>2026-04-26T12:26:13.519Z</time></trkpt><trkpt lat="43.2285617" lon="12.9362633"><ele>537.0</ele><time>2026-04-26T12:26:14.519Z</time></trkpt><trkpt lat="43.2287017" lon="12.9363783"><ele>537.0</ele><time>2026-04-26T12:26:15.518Z</time></trkpt><trkpt lat="43.228845" lon="12.936495"><ele>537.0</ele><time>2026-04-26T12:26:16.518Z</time></trkpt><trkpt lat="43.2289833" lon="12.9366183"><ele>537.0</ele><time>2026-04-26T12:26:17.518Z</time></trkpt><trkpt lat="43.229105" lon="12.9367333"><ele>533.3333333333334</ele><time>2026-04-26T12:26:18.518Z</time></trkpt><trkpt lat="43.22921" lon="12.93687"><ele>529.6666666666667</ele><time>2026-04-26T12:26:19.518Z</time></trkpt><trkpt lat="43.2293183" lon="12.9370317"><ele>526.0</ele><time>2026-04-26T12:26:20.518Z</time></trkpt><trkpt lat="43.2294133" lon="12.9372017"><ele>526.0</ele><time>2026-04-26T12:26:21.518Z</time></trkpt><trkpt lat="43.2294967" lon="12.9373917"><ele>526.0</ele><time>2026-04-26T12:26:22.518Z</time></trkpt><trkpt lat="43.2295833" lon="12.9375767"><ele>526.0</ele><time>2026-04-26T12:26:23.518Z</time></trkpt><trkpt lat="43.2296833" lon="12.9377667"><ele>525.0</ele><time>2026-04-26T12:26:24.519Z</time></trkpt><trkpt lat="43.2297917" lon="12.9379567"><ele>524.0</ele><time>2026-04-26T12:26:25.518Z</time></trkpt><trkpt lat="43.2298933" lon="12.9381417"><ele>523.0</ele><time>2026-04-26T12:26:26.518Z</time></trkpt><trkpt lat="43.2300083" lon="12.938335"><ele>520.6666666666667</ele><time>2026-04-26T12:26:27.518Z</time></trkpt><trkpt lat="43.2301067" lon="12.93853"><ele>518.3333333333334</ele><time>2026-04-26T12:26:28.518Z</time></trkpt><trkpt lat="43.230195" lon="12.9387283"><ele>516.0</ele><time>2026-04-26T12:26:29.518Z</time></trkpt><trkpt lat="43.2302667" lon="12.9389433"><ele>516.0</ele><time>2026-04-26T12:26:30.518Z</time></trkpt><trkpt lat="43.2303317" lon="12.9391733"><ele>516.0</ele><time>2026-04-26T12:26:31.518Z</time></trkpt><trkpt lat="43.2303867" lon="12.9394117"><ele>516.0</ele><time>2026-04-26T12:26:32.518Z</time></trkpt><trkpt lat="43.2304417" lon="12.9396483"><ele>518.3333333333334</ele><time>2026-04-26T12:26:33.518Z</time></trkpt><trkpt lat="43.2304933" lon="12.9398867"><ele>520.6666666666667</ele><time>2026-04-26T12:26:34.518Z</time></trkpt><trkpt lat="43.2305467" lon="12.9401267"><ele>523.0</ele><time>2026-04-26T12:26:35.518Z</time></trkpt><trkpt lat="43.2306" lon="12.9403733"><ele>522.6666666666667</ele><time>2026-04-26T12:26:36.518Z</time></trkpt><trkpt lat="43.2306467" lon="12.9406217"><ele>522.3333333333334</ele><time>2026-04-26T12:26:37.519Z</time></trkpt><trkpt lat="43.2306817" lon="12.9408767"><ele>522.0</ele><time>2026-04-26T12:26:38.518Z</time></trkpt><trkpt lat="43.2307167" lon="12.9411167"><ele>522.0</ele><time>2026-04-26T12:26:39.518Z</time></trkpt><trkpt lat="43.2307517" lon="12.9413367"><ele>522.0</ele><time>2026-04-26T12:26:40.518Z</time></trkpt><trkpt lat="43.230775" lon="12.9415417"><ele>522.0</ele><time>2026-04-26T12:26:41.518Z</time></trkpt><trkpt lat="43.2307983" lon="12.9417317"><ele>520.0</ele><time>2026-04-26T12:26:42.518Z</time></trkpt><trkpt lat="43.2308333" lon="12.94191"><ele>518.0</ele><time>2026-04-26T12:26:43.518Z</time></trkpt><trkpt lat="43.2308767" lon="12.9420783"><ele>516.0</ele><time>2026-04-26T12:26:44.518Z</time></trkpt><trkpt lat="43.2309533" lon="12.9422217"><ele>514.0</ele><time>2026-04-26T12:26:45.518Z</time></trkpt><trkpt lat="43.2310617" lon="12.9423367"><ele>514.0</ele><time>2026-04-26T12:26:46.519Z</time></trkpt><trkpt lat="43.2311867" lon="12.9424417"><ele>514.0</ele><time>2026-04-26T12:26:47.518Z</time></trkpt><trkpt lat="43.2313183" lon="12.9425433"><ele>514.0</ele><time>2026-04-26T12:26:48.518Z</time></trkpt><trkpt lat="43.231435" lon="12.9426667"><ele>514.0</ele><time>2026-04-26T12:26:49.518Z</time></trkpt><trkpt lat="43.2315433" lon="12.9428017"><ele>515.0</ele><time>2026-04-26T12:26:50.518Z</time></trkpt><trkpt lat="43.2316367" lon="12.94297"><ele>516.0</ele><time>2026-04-26T12:26:51.518Z</time></trkpt><trkpt lat="43.2317183" lon="12.9431617"><ele>517.0</ele><time>2026-04-26T12:26:52.519Z</time></trkpt><trkpt lat="43.2317917" lon="12.9433767"><ele>514.3333333333334</ele><time>2026-04-26T12:26:53.518Z</time></trkpt><trkpt lat="43.231865" lon="12.9435783"><ele>511.66666666666663</ele><time>2026-04-26T12:26:54.518Z</time></trkpt><trkpt lat="43.23194" lon="12.9437617"><ele>509.0</ele><time>2026-04-26T12:26:55.518Z</time></trkpt><trkpt lat="43.2320233" lon="12.94393"><ele>509.0</ele><time>2026-04-26T12:26:56.518Z</time></trkpt><trkpt lat="43.2321" lon="12.9440917"><ele>509.0</ele><time>2026-04-26T12:26:57.518Z</time></trkpt><trkpt lat="43.2321767" lon="12.9442533"><ele>509.0</ele><time>2026-04-26T12:26:58.518Z</time></trkpt><trkpt lat="43.2322617" lon="12.9444"><ele>509.0</ele><time>2026-04-26T12:26:59.518Z</time></trkpt><trkpt lat="43.2323583" lon="12.9445433"><ele>506.75</ele><time>2026-04-26T12:27:00.518Z</time></trkpt><trkpt lat="43.23248" lon="12.944655"><ele>504.5</ele><time>2026-04-26T12:27:01.518Z</time></trkpt><trkpt lat="43.2326017" lon="12.944735"><ele>502.25</ele><time>2026-04-26T12:27:02.518Z</time></trkpt><trkpt lat="43.2327133" lon="12.9448267"><ele>500.0</ele><time>2026-04-26T12:27:03.518Z</time></trkpt><trkpt lat="43.232795" lon="12.94494"><ele>498.0</ele><time>2026-04-26T12:27:04.518Z</time></trkpt><trkpt lat="43.2328467" lon="12.9450717"><ele>496.0</ele><time>2026-04-26T12:27:05.518Z</time></trkpt><trkpt lat="43.2328717" lon="12.9452517"><ele>494.0</ele><time>2026-04-26T12:27:06.518Z</time></trkpt><trkpt lat="43.2328867" lon="12.9454517"><ele>492.0</ele><time>2026-04-26T12:27:07.518Z</time></trkpt><trkpt lat="43.2329083" lon="12.94566"><ele>494.33333333333337</ele><time>2026-04-26T12:27:08.518Z</time></trkpt><trkpt lat="43.2329567" lon="12.9458867"><ele>496.6666666666667</ele><time>2026-04-26T12:27:09.518Z</time></trkpt><trkpt lat="43.233025" lon="12.9461117"><ele>499.0</ele><time>2026-04-26T12:27:10.518Z</time></trkpt><trkpt lat="43.2331067" lon="12.94635"><ele>499.33333333333337</ele><time>2026-04-26T12:27:11.518Z</time></trkpt><trkpt lat="43.23318" lon="12.9465867"><ele>499.66666666666663</ele><time>2026-04-26T12:27:12.518Z</time></trkpt><trkpt lat="43.2332483" lon="12.946815"><ele>500.0</ele><time>2026-04-26T12:27:13.518Z</time></trkpt><trkpt lat="43.2332967" lon="12.9470433"><ele>497.3333333333333</ele><time>2026-04-26T12:27:14.518Z</time></trkpt><trkpt lat="43.233345" lon="12.9472667"><ele>494.66666666666663</ele><time>2026-04-26T12:27:15.519Z</time></trkpt><trkpt lat="43.2333833" lon="12.9474967"><ele>492.0</ele><time>2026-04-26T12:27:16.518Z</time></trkpt><trkpt lat="43.2334133" lon="12.9477217"><ele>491.0</ele><time>2026-04-26T12:27:17.518Z</time></trkpt><trkpt lat="43.2334417" lon="12.9479517"><ele>490.0</ele><time>2026-04-26T12:27:18.518Z</time></trkpt><trkpt lat="43.233465" lon="12.94817"><ele>489.0</ele><time>2026-04-26T12:27:19.519Z</time></trkpt><trkpt lat="43.2335067" lon="12.9483933"><ele>488.66666666666663</ele><time>2026-04-26T12:27:20.519Z</time></trkpt><trkpt lat="43.2335683" lon="12.9486117"><ele>488.3333333333333</ele><time>2026-04-26T12:27:21.519Z</time></trkpt><trkpt lat="43.2336433" lon="12.9488283"><ele>488.0</ele><time>2026-04-26T12:27:22.518Z</time></trkpt><trkpt lat="43.233725" lon="12.9490467"><ele>489.75</ele><time>2026-04-26T12:27:23.518Z</time></trkpt><trkpt lat="43.23379" lon="12.9492433"><ele>491.5</ele><time>2026-04-26T12:27:24.518Z</time></trkpt><trkpt lat="43.2338367" lon="12.9494133"><ele>493.25</ele><time>2026-04-26T12:27:25.518Z</time></trkpt><trkpt lat="43.2338683" lon="12.9495617"><ele>495.0</ele><time>2026-04-26T12:27:26.518Z</time></trkpt><trkpt lat="43.2338767" lon="12.9496933"><ele>495.0</ele><time>2026-04-26T12:27:27.518Z</time></trkpt><trkpt lat="43.2338583" lon="12.9498283"><ele>495.0</ele><time>2026-04-26T12:27:28.518Z</time></trkpt><trkpt lat="43.2338017" lon="12.9499583"><ele>495.0</ele><time>2026-04-26T12:27:29.518Z</time></trkpt><trkpt lat="43.233725" lon="12.95007"><ele>495.0</ele><time>2026-04-26T12:27:30.518Z</time></trkpt><trkpt lat="43.2336467" lon="12.9501733"><ele>495.0</ele><time>2026-04-26T12:27:31.518Z</time></trkpt><trkpt lat="43.2335933" lon="12.9502933"><ele>496.5</ele><time>2026-04-26T12:27:32.518Z</time></trkpt><trkpt lat="43.2335767" lon="12.95042"><ele>498.0</ele><time>2026-04-26T12:27:33.519Z</time></trkpt><trkpt lat="43.2335817" lon="12.9505567"><ele>499.5</ele><time>2026-04-26T12:27:34.518Z</time></trkpt><trkpt lat="43.233635" lon="12.9507117"><ele>501.0</ele><time>2026-04-26T12:27:35.518Z</time></trkpt><trkpt lat="43.2337267" lon="12.9508833"><ele>503.33333333333337</ele><time>2026-04-26T12:27:36.518Z</time></trkpt><trkpt lat="43.2338417" lon="12.9510617"><ele>505.6666666666667</ele><time>2026-04-26T12:27:37.518Z</time></trkpt><trkpt lat="43.2339483" lon="12.951235"><ele>508.0</ele><time>2026-04-26T12:27:38.518Z</time></trkpt><trkpt lat="43.2340733" lon="12.9513717"><ele>500.25</ele><time>2026-04-26T12:27:39.518Z</time></trkpt><trkpt lat="43.2342017" lon="12.9515083"><ele>492.5</ele><time>2026-04-26T12:27:40.518Z</time></trkpt><trkpt lat="43.2343183" lon="12.9516333"><ele>484.75</ele><time>2026-04-26T12:27:41.519Z</time></trkpt><trkpt lat="43.23443" lon="12.95172"><ele>477.0</ele><time>2026-04-26T12:27:42.518Z</time></trkpt><trkpt lat="43.2345367" lon="12.9517733"><ele>477.0</ele><time>2026-04-26T12:27:43.517Z</time></trkpt><trkpt lat="43.2346517" lon="12.9517867"><ele>477.00000000000006</ele><time>2026-04-26T12:27:44.517Z</time></trkpt><trkpt lat="43.2347633" lon="12.951795"><ele>477.00000000000006</ele><time>2026-04-26T12:27:45.517Z</time></trkpt><trkpt lat="43.2348517" lon="12.9518267"><ele>477.0</ele><time>2026-04-26T12:27:46.517Z</time></trkpt><trkpt lat="43.234925" lon="12.951905"><ele>477.0</ele><time>2026-04-26T12:27:47.517Z</time></trkpt><trkpt lat="43.2349967" lon="12.9520283"><ele>476.5</ele><time>2026-04-26T12:27:48.517Z</time></trkpt><trkpt lat="43.235055" lon="12.9521833"><ele>476.0</ele><time>2026-04-26T12:27:49.517Z</time></trkpt><trkpt lat="43.2351" lon="12.9523483"><ele>475.5</ele><time>2026-04-26T12:27:50.517Z</time></trkpt><trkpt lat="43.2351267" lon="12.95253"><ele>475.0</ele><time>2026-04-26T12:27:51.518Z</time></trkpt><trkpt lat="43.23515" lon="12.9527167"><ele>472.33333333333337</ele><time>2026-04-26T12:27:52.518Z</time></trkpt><trkpt lat="43.2351733" lon="12.95291"><ele>469.66666666666663</ele><time>2026-04-26T12:27:53.517Z</time></trkpt><trkpt lat="43.23521" lon="12.95312"><ele>467.0</ele><time>2026-04-26T12:27:54.518Z</time></trkpt><trkpt lat="43.2352533" lon="12.9533317"><ele>465.0</ele><time>2026-04-26T12:27:55.518Z</time></trkpt><trkpt lat="43.2352917" lon="12.95357"><ele>463.0</ele><time>2026-04-26T12:27:56.517Z</time></trkpt><trkpt lat="43.2353217" lon="12.9537983"><ele>461.0</ele><time>2026-04-26T12:27:57.517Z</time></trkpt><trkpt lat="43.2353567" lon="12.9540333"><ele>460.0</ele><time>2026-04-26T12:27:58.517Z</time></trkpt><trkpt lat="43.23538" lon="12.9542633"><ele>459.0</ele><time>2026-04-26T12:27:59.518Z</time></trkpt><trkpt lat="43.2354067" lon="12.9545"><ele>458.0</ele><time>2026-04-26T12:28:00.518Z</time></trkpt><trkpt lat="43.2354367" lon="12.95474"><ele>458.0</ele><time>2026-04-26T12:28:01.518Z</time></trkpt><trkpt lat="43.2354717" lon="12.95498"><ele>458.0</ele><time>2026-04-26T12:28:02.518Z</time></trkpt><trkpt lat="43.2355183" lon="12.9552333"><ele>458.0</ele><time>2026-04-26T12:28:03.518Z</time></trkpt><trkpt lat="43.2355683" lon="12.955485"><ele>457.66666666666663</ele><time>2026-04-26T12:28:04.517Z</time></trkpt><trkpt lat="43.23562" lon="12.9557233"><ele>457.33333333333337</ele><time>2026-04-26T12:28:05.517Z</time></trkpt><trkpt lat="43.23566" lon="12.9559383"><ele>457.0</ele><time>2026-04-26T12:28:06.517Z</time></trkpt><trkpt lat="43.2357" lon="12.9561433"><ele>457.40000000000003</ele><time>2026-04-26T12:28:07.517Z</time></trkpt><trkpt lat="43.2357317" lon="12.9563133"><ele>457.80000000000007</ele><time>2026-04-26T12:28:08.517Z</time></trkpt><trkpt lat="43.2357567" lon="12.9564633"><ele>458.2</ele><time>2026-04-26T12:28:09.517Z</time></trkpt><trkpt lat="43.2357867" lon="12.9565717"><ele>458.6</ele><time>2026-04-26T12:28:10.517Z</time></trkpt><trkpt lat="43.23583" lon="12.956685"><ele>459.0</ele><time>2026-04-26T12:28:12.518Z</time></trkpt><trkpt lat="43.2359017" lon="12.956725"><ele>457.6</ele><time>2026-04-26T12:28:27.517Z</time></trkpt><trkpt lat="43.2359633" lon="12.956765"><ele>456.2</ele><time>2026-04-26T12:28:28.517Z</time></trkpt><trkpt lat="43.2360433" lon="12.9568117"><ele>454.80000000000007</ele><time>2026-04-26T12:28:29.517Z</time></trkpt><trkpt lat="43.2361467" lon="12.95687"><ele>453.40000000000003</ele><time>2026-04-26T12:28:30.517Z</time></trkpt><trkpt lat="43.236265" lon="12.9569367"><ele>452.0</ele><time>2026-04-26T12:28:31.518Z</time></trkpt><trkpt lat="43.2363967" lon="12.9570017"><ele>454.66666666666663</ele><time>2026-04-26T12:28:32.517Z</time></trkpt><trkpt lat="43.2365333" lon="12.95707"><ele>457.33333333333337</ele><time>2026-04-26T12:28:33.517Z</time></trkpt><trkpt lat="43.2366783" lon="12.957145"><ele>460.0</ele><time>2026-04-26T12:28:34.517Z</time></trkpt><trkpt lat="43.2368283" lon="12.9572233"><ele>460.0</ele><time>2026-04-26T12:28:35.518Z</time></trkpt><trkpt lat="43.2369567" lon="12.957305"><ele>460.0</ele><time>2026-04-26T12:28:36.517Z</time></trkpt><trkpt lat="43.23709" lon="12.9573767"><ele>460.0</ele><time>2026-04-26T12:28:37.517Z</time></trkpt><trkpt lat="43.2372217" lon="12.95746"><ele>460.0</ele><time>2026-04-26T12:28:38.517Z</time></trkpt><trkpt lat="43.2373483" lon="12.9575617"><ele>459.0</ele><time>2026-04-26T12:28:39.517Z</time></trkpt><trkpt lat="43.2374783" lon="12.9576683"><ele>458.0</ele><time>2026-04-26T12:28:40.517Z</time></trkpt><trkpt lat="43.2376083" lon="12.9577817"><ele>457.0</ele><time>2026-04-26T12:28:41.517Z</time></trkpt><trkpt lat="43.2377417" lon="12.9578933"><ele>457.0</ele><time>2026-04-26T12:28:42.517Z</time></trkpt><trkpt lat="43.2378683" lon="12.9580133"><ele>457.0</ele><time>2026-04-26T12:28:43.517Z</time></trkpt><trkpt lat="43.23799" lon="12.9581333"><ele>457.0</ele><time>2026-04-26T12:28:44.517Z</time></trkpt><trkpt lat="43.23811" lon="12.95824"><ele>457.0</ele><time>2026-04-26T12:28:45.517Z</time></trkpt><trkpt lat="43.2382417" lon="12.95834"><ele>454.6666666666667</ele><time>2026-04-26T12:28:46.518Z</time></trkpt><trkpt lat="43.2383833" lon="12.958415"><ele>452.33333333333337</ele><time>2026-04-26T12:28:47.517Z</time></trkpt><trkpt lat="43.23853" lon="12.9584783"><ele>450.0</ele><time>2026-04-26T12:28:48.517Z</time></trkpt><trkpt lat="43.2386783" lon="12.9585567"><ele>450.0</ele><time>2026-04-26T12:28:49.518Z</time></trkpt><trkpt lat="43.23882" lon="12.9586633"><ele>450.0</ele><time>2026-04-26T12:28:50.518Z</time></trkpt><trkpt lat="43.2389517" lon="12.9587717"><ele>450.0</ele><time>2026-04-26T12:28:51.517Z</time></trkpt><trkpt lat="43.2390783" lon="12.958875"><ele>449.0</ele><time>2026-04-26T12:28:52.517Z</time></trkpt><trkpt lat="43.2391867" lon="12.958965"><ele>448.0</ele><time>2026-04-26T12:28:53.518Z</time></trkpt><trkpt lat="43.2393" lon="12.9590467"><ele>447.0</ele><time>2026-04-26T12:28:54.517Z</time></trkpt><trkpt lat="43.2393983" lon="12.959125"><ele>446.0</ele><time>2026-04-26T12:28:55.517Z</time></trkpt><trkpt lat="43.239495" lon="12.959215"><ele>446.0</ele><time>2026-04-26T12:28:56.518Z</time></trkpt><trkpt lat="43.2395883" lon="12.9593067"><ele>446.0</ele><time>2026-04-26T12:28:57.518Z</time></trkpt><trkpt lat="43.2396633" lon="12.9594033"><ele>446.0</ele><time>2026-04-26T12:28:58.517Z</time></trkpt><trkpt lat="43.23973" lon="12.95951"><ele>446.0</ele><time>2026-04-26T12:28:59.517Z</time></trkpt><trkpt lat="43.2397983" lon="12.9596033"><ele>446.0</ele><time>2026-04-26T12:29:00.517Z</time></trkpt><trkpt lat="43.239855" lon="12.959695"><ele>446.16666666666663</ele><time>2026-04-26T12:29:01.517Z</time></trkpt><trkpt lat="43.23992" lon="12.9597783"><ele>446.3333333333333</ele><time>2026-04-26T12:29:02.517Z</time></trkpt><trkpt lat="43.2399833" lon="12.9598433"><ele>446.5</ele><time>2026-04-26T12:29:03.517Z</time></trkpt><trkpt lat="43.2400433" lon="12.9598933"><ele>446.66666666666663</ele><time>2026-04-26T12:29:04.517Z</time></trkpt><trkpt lat="43.2401217" lon="12.9600083"><ele>446.8333333333333</ele><time>2026-04-26T12:29:06.518Z</time></trkpt><trkpt lat="43.2401483" lon="12.9601"><ele>447.0</ele><time>2026-04-26T12:29:07.518Z</time></trkpt><trkpt lat="43.2401733" lon="12.9602017"><ele>447.0</ele><time>2026-04-26T12:29:08.517Z</time></trkpt><trkpt lat="43.2402217" lon="12.9603183"><ele>447.00000000000006</ele><time>2026-04-26T12:29:09.517Z</time></trkpt><trkpt lat="43.2402817" lon="12.9604417"><ele>447.00000000000006</ele><time>2026-04-26T12:29:10.517Z</time></trkpt><trkpt lat="43.2403517" lon="12.9605583"><ele>447.0</ele><time>2026-04-26T12:29:11.517Z</time></trkpt><trkpt lat="43.2404383" lon="12.960665"><ele>447.0</ele><time>2026-04-26T12:29:12.517Z</time></trkpt><trkpt lat="43.2405367" lon="12.9607517"><ele>446.40000000000003</ele><time>2026-04-26T12:29:13.517Z</time></trkpt><trkpt lat="43.24064" lon="12.9608333"><ele>445.80000000000007</ele><time>2026-04-26T12:29:14.517Z</time></trkpt><trkpt lat="43.2407383" lon="12.9609017"><ele>445.2</ele><time>2026-04-26T12:29:15.517Z</time></trkpt><trkpt lat="43.2408267" lon="12.9609867"><ele>444.6</ele><time>2026-04-26T12:29:16.517Z</time></trkpt><trkpt lat="43.2409117" lon="12.9610717"><ele>444.0</ele><time>2026-04-26T12:29:17.517Z</time></trkpt><trkpt lat="43.2409867" lon="12.9611517"><ele>444.0</ele><time>2026-04-26T12:29:18.517Z</time></trkpt><trkpt lat="43.2410583" lon="12.96122"><ele>444.0</ele><time>2026-04-26T12:29:19.518Z</time></trkpt><trkpt lat="43.241125" lon="12.9612833"><ele>444.0</ele><time>2026-04-26T12:29:20.517Z</time></trkpt><trkpt lat="43.2411867" lon="12.961345"><ele>444.0</ele><time>2026-04-26T12:29:21.518Z</time></trkpt><trkpt lat="43.24125" lon="12.9614033"><ele>444.0</ele><time>2026-04-26T12:29:22.518Z</time></trkpt><trkpt lat="43.2413167" lon="12.9614617"><ele>444.0</ele><time>2026-04-26T12:29:23.517Z</time></trkpt><trkpt lat="43.24139" lon="12.9615267"><ele>445.0</ele><time>2026-04-26T12:29:24.517Z</time></trkpt><trkpt lat="43.24147" lon="12.9615917"><ele>446.0</ele><time>2026-04-26T12:29:25.517Z</time></trkpt><trkpt lat="43.2415467" lon="12.9616483"><ele>447.0</ele><time>2026-04-26T12:29:26.518Z</time></trkpt><trkpt lat="43.24163" lon="12.9617217"><ele>448.0</ele><time>2026-04-26T12:29:27.517Z</time></trkpt><trkpt lat="43.2417117" lon="12.9618133"><ele>449.0</ele><time>2026-04-26T12:29:28.517Z</time></trkpt><trkpt lat="43.2417967" lon="12.96192"><ele>446.79999999999995</ele><time>2026-04-26T12:29:29.518Z</time></trkpt><trkpt lat="43.2418833" lon="12.9620233"><ele>444.59999999999997</ele><time>2026-04-26T12:29:30.517Z</time></trkpt><trkpt lat="43.2419667" lon="12.9621217"><ele>442.4</ele><time>2026-04-26T12:29:31.517Z</time></trkpt><trkpt lat="43.24205" lon="12.9622"><ele>440.2</ele><time>2026-04-26T12:29:32.517Z</time></trkpt><trkpt lat="43.2421217" lon="12.9622633"><ele>438.0</ele><time>2026-04-26T12:29:33.517Z</time></trkpt><trkpt lat="43.242205" lon="12.9622917"><ele>439.0</ele><time>2026-04-26T12:29:34.517Z</time></trkpt><trkpt lat="43.2423" lon="12.962305"><ele>439.99999999999994</ele><time>2026-04-26T12:29:35.517Z</time></trkpt><trkpt lat="43.2423933" lon="12.9623083"><ele>440.99999999999994</ele><time>2026-04-26T12:29:36.517Z</time></trkpt><trkpt lat="43.2424867" lon="12.9623017"><ele>442.0</ele><time>2026-04-26T12:29:37.518Z</time></trkpt><trkpt lat="43.2425817" lon="12.96229"><ele>443.0</ele><time>2026-04-26T12:29:38.517Z</time></trkpt><trkpt lat="43.2426833" lon="12.9622733"><ele>443.0</ele><time>2026-04-26T12:29:39.517Z</time></trkpt><trkpt lat="43.24278" lon="12.9622483"><ele>442.99999999999994</ele><time>2026-04-26T12:29:40.517Z</time></trkpt><trkpt lat="43.24288" lon="12.9622217"><ele>442.99999999999994</ele><time>2026-04-26T12:29:41.517Z</time></trkpt><trkpt lat="43.2429867" lon="12.9621833"><ele>443.0</ele><time>2026-04-26T12:29:42.518Z</time></trkpt><trkpt lat="43.2430867" lon="12.9621317"><ele>443.0</ele><time>2026-04-26T12:29:43.517Z</time></trkpt><trkpt lat="43.2431767" lon="12.9620683"><ele>444.25</ele><time>2026-04-26T12:29:44.517Z</time></trkpt><trkpt lat="43.2432567" lon="12.9619933"><ele>445.5</ele><time>2026-04-26T12:29:45.517Z</time></trkpt><trkpt lat="43.2433317" lon="12.9618867"><ele>446.75</ele><time>2026-04-26T12:29:46.517Z</time></trkpt><trkpt lat="43.2434" lon="12.9617517"><ele>448.0</ele><time>2026-04-26T12:29:47.517Z</time></trkpt><trkpt lat="43.2434667" lon="12.9616017"><ele>448.5</ele><time>2026-04-26T12:29:48.517Z</time></trkpt><trkpt lat="43.2435433" lon="12.9614433"><ele>449.0</ele><time>2026-04-26T12:29:49.517Z</time></trkpt><trkpt lat="43.2436133" lon="12.9613"><ele>449.5</ele><time>2026-04-26T12:29:50.518Z</time></trkpt><trkpt lat="43.2437" lon="12.961165"><ele>450.0</ele><time>2026-04-26T12:29:51.517Z</time></trkpt><trkpt lat="43.2437817" lon="12.9610433"><ele>450.0</ele><time>2026-04-26T12:29:52.517Z</time></trkpt><trkpt lat="43.24387" lon="12.9609267"><ele>450.0</ele><time>2026-04-26T12:29:53.517Z</time></trkpt><trkpt lat="43.24395" lon="12.9608183"><ele>450.0</ele><time>2026-04-26T12:29:54.517Z</time></trkpt><trkpt lat="43.2440367" lon="12.9607283"><ele>450.0</ele><time>2026-04-26T12:29:55.518Z</time></trkpt><trkpt lat="43.2441317" lon="12.9606633"><ele>448.4</ele><time>2026-04-26T12:29:56.517Z</time></trkpt><trkpt lat="43.244245" lon="12.9606183"><ele>446.8</ele><time>2026-04-26T12:29:57.517Z</time></trkpt><trkpt lat="43.2443483" lon="12.9605767"><ele>445.20000000000005</ele><time>2026-04-26T12:29:58.517Z</time></trkpt><trkpt lat="43.24443" lon="12.9605333"><ele>443.6</ele><time>2026-04-26T12:29:59.517Z</time></trkpt><trkpt lat="43.2445167" lon="12.9604933"><ele>442.0</ele><time>2026-04-26T12:30:00.517Z</time></trkpt><trkpt lat="43.2446167" lon="12.9604433"><ele>442.0</ele><time>2026-04-26T12:30:01.517Z</time></trkpt><trkpt lat="43.2447167" lon="12.9604033"><ele>442.00000000000006</ele><time>2026-04-26T12:30:02.517Z</time></trkpt><trkpt lat="43.2448183" lon="12.9603533"><ele>442.00000000000006</ele><time>2026-04-26T12:30:03.517Z</time></trkpt><trkpt lat="43.24492" lon="12.96029"><ele>442.0</ele><time>2026-04-26T12:30:04.517Z</time></trkpt><trkpt lat="43.24502" lon="12.9602067"><ele>442.0</ele><time>2026-04-26T12:30:05.518Z</time></trkpt><trkpt lat="43.2451233" lon="12.9601133"><ele>440.75</ele><time>2026-04-26T12:30:06.517Z</time></trkpt><trkpt lat="43.24523" lon="12.9600233"><ele>439.5</ele><time>2026-04-26T12:30:07.517Z</time></trkpt><trkpt lat="43.245325" lon="12.959925"><ele>438.25</ele><time>2026-04-26T12:30:08.517Z</time></trkpt><trkpt lat="43.2454067" lon="12.9598267"><ele>437.0</ele><time>2026-04-26T12:30:09.517Z</time></trkpt><trkpt lat="43.2454783" lon="12.9597367"><ele>437.0</ele><time>2026-04-26T12:30:10.518Z</time></trkpt><trkpt lat="43.2455317" lon="12.9596617"><ele>437.00000000000006</ele><time>2026-04-26T12:30:11.517Z</time></trkpt><trkpt lat="43.245615" lon="12.9595683"><ele>437.00000000000006</ele><time>2026-04-26T12:30:13.517Z</time></trkpt><trkpt lat="43.245715" lon="12.9596317"><ele>437.0</ele><time>2026-04-26T12:30:16.517Z</time></trkpt><trkpt lat="43.24578" lon="12.9596983"><ele>437.0</ele><time>2026-04-26T12:30:17.517Z</time></trkpt><trkpt lat="43.245865" lon="12.9597717"><ele>435.0</ele><time>2026-04-26T12:30:18.518Z</time></trkpt><trkpt lat="43.2459667" lon="12.9598717"><ele>433.0</ele><time>2026-04-26T12:30:19.517Z</time></trkpt><trkpt lat="43.2461033" lon="12.96"><ele>431.0</ele><time>2026-04-26T12:30:20.518Z</time></trkpt><trkpt lat="43.24625" lon="12.9601333"><ele>431.0</ele><time>2026-04-26T12:30:21.518Z</time></trkpt><trkpt lat="43.2464083" lon="12.9602867"><ele>431.0</ele><time>2026-04-26T12:30:22.517Z</time></trkpt><trkpt lat="43.2465733" lon="12.96045"><ele>431.0</ele><time>2026-04-26T12:30:23.517Z</time></trkpt><trkpt lat="43.2467467" lon="12.9606183"><ele>429.3333333333333</ele><time>2026-04-26T12:30:24.517Z</time></trkpt><trkpt lat="43.2469183" lon="12.9607867"><ele>427.66666666666663</ele><time>2026-04-26T12:30:25.517Z</time></trkpt><trkpt lat="43.247085" lon="12.9609533"><ele>426.0</ele><time>2026-04-26T12:30:26.517Z</time></trkpt><trkpt lat="43.247245" lon="12.9611083"><ele>425.0</ele><time>2026-04-26T12:30:27.517Z</time></trkpt><trkpt lat="43.2474017" lon="12.9612617"><ele>424.0</ele><time>2026-04-26T12:30:28.517Z</time></trkpt><trkpt lat="43.24756" lon="12.961415"><ele>423.0</ele><time>2026-04-26T12:30:29.517Z</time></trkpt><trkpt lat="43.247715" lon="12.9615667"><ele>421.33333333333337</ele><time>2026-04-26T12:30:30.517Z</time></trkpt><trkpt lat="43.24787" lon="12.9617183"><ele>419.6666666666667</ele><time>2026-04-26T12:30:31.518Z</time></trkpt><trkpt lat="43.2480283" lon="12.961875"><ele>418.0</ele><time>2026-04-26T12:30:32.517Z</time></trkpt><trkpt lat="43.2481867" lon="12.962025"><ele>418.0</ele><time>2026-04-26T12:30:33.518Z</time></trkpt><trkpt lat="43.2483383" lon="12.962185"><ele>418.0</ele><time>2026-04-26T12:30:34.517Z</time></trkpt><trkpt lat="43.2484833" lon="12.96234"><ele>418.0</ele><time>2026-04-26T12:30:35.517Z</time></trkpt><trkpt lat="43.2486133" lon="12.9624983"><ele>418.0</ele><time>2026-04-26T12:30:36.517Z</time></trkpt><trkpt lat="43.2487683" lon="12.9626783"><ele>418.0</ele><time>2026-04-26T12:30:37.517Z</time></trkpt><trkpt lat="43.2489133" lon="12.962865"><ele>418.0</ele><time>2026-04-26T12:30:38.517Z</time></trkpt><trkpt lat="43.2490633" lon="12.963065"><ele>417.6666666666667</ele><time>2026-04-26T12:30:39.517Z</time></trkpt><trkpt lat="43.2492117" lon="12.96327"><ele>417.33333333333337</ele><time>2026-04-26T12:30:40.517Z</time></trkpt><trkpt lat="43.2493483" lon="12.9634833"><ele>417.0</ele><time>2026-04-26T12:30:41.517Z</time></trkpt><trkpt lat="43.2494783" lon="12.9637067"><ele>416.33333333333337</ele><time>2026-04-26T12:30:42.518Z</time></trkpt><trkpt lat="43.2495967" lon="12.9639383"><ele>415.6666666666667</ele><time>2026-04-26T12:30:43.517Z</time></trkpt><trkpt lat="43.2497033" lon="12.96417"><ele>415.0</ele><time>2026-04-26T12:30:44.517Z</time></trkpt><trkpt lat="43.2498083" lon="12.9644167"><ele>414.6666666666667</ele><time>2026-04-26T12:30:45.517Z</time></trkpt><trkpt lat="43.2499083" lon="12.9646633"><ele>414.33333333333337</ele><time>2026-04-26T12:30:46.518Z</time></trkpt><trkpt lat="43.250005" lon="12.964915"><ele>414.0</ele><time>2026-04-26T12:30:47.517Z</time></trkpt><trkpt lat="43.2500967" lon="12.9651733"><ele>414.0</ele><time>2026-04-26T12:30:48.517Z</time></trkpt><trkpt lat="43.2501867" lon="12.9654333"><ele>414.0</ele><time>2026-04-26T12:30:49.517Z</time></trkpt><trkpt lat="43.25027" lon="12.9656967"><ele>414.0</ele><time>2026-04-26T12:30:50.517Z</time></trkpt><trkpt lat="43.25034" lon="12.9659583"><ele>412.33333333333337</ele><time>2026-04-26T12:30:51.517Z</time></trkpt><trkpt lat="43.2504083" lon="12.96622"><ele>410.6666666666667</ele><time>2026-04-26T12:30:52.517Z</time></trkpt><trkpt lat="43.250475" lon="12.9664783"><ele>409.0</ele><time>2026-04-26T12:30:53.518Z</time></trkpt><trkpt lat="43.2505417" lon="12.966735"><ele>409.33333333333337</ele><time>2026-04-26T12:30:54.517Z</time></trkpt><trkpt lat="43.2506033" lon="12.96698"><ele>409.66666666666663</ele><time>2026-04-26T12:30:55.517Z</time></trkpt><trkpt lat="43.2506583" lon="12.96721"><ele>410.0</ele><time>2026-04-26T12:30:56.517Z</time></trkpt><trkpt lat="43.2507067" lon="12.9674367"><ele>410.66666666666663</ele><time>2026-04-26T12:30:57.517Z</time></trkpt><trkpt lat="43.2507467" lon="12.9676567"><ele>411.33333333333337</ele><time>2026-04-26T12:30:58.518Z</time></trkpt><trkpt lat="43.25077" lon="12.96788"><ele>412.0</ele><time>2026-04-26T12:30:59.517Z</time></trkpt><trkpt lat="43.250775" lon="12.9681067"><ele>412.0</ele><time>2026-04-26T12:31:00.518Z</time></trkpt><trkpt lat="43.2507667" lon="12.9683467"><ele>412.0</ele><time>2026-04-26T12:31:01.518Z</time></trkpt><trkpt lat="43.250735" lon="12.9685783"><ele>412.0</ele><time>2026-04-26T12:31:02.517Z</time></trkpt><trkpt lat="43.25069" lon="12.968805"><ele>411.0</ele><time>2026-04-26T12:31:03.517Z</time></trkpt><trkpt lat="43.2506183" lon="12.96903"><ele>410.0</ele><time>2026-04-26T12:31:04.517Z</time></trkpt><trkpt lat="43.2505317" lon="12.9692533"><ele>409.0</ele><time>2026-04-26T12:31:05.517Z</time></trkpt><trkpt lat="43.2504367" lon="12.96948"><ele>408.6666666666667</ele><time>2026-04-26T12:31:06.517Z</time></trkpt><trkpt lat="43.2503417" lon="12.9697183"><ele>408.33333333333337</ele><time>2026-04-26T12:31:07.517Z</time></trkpt><trkpt lat="43.2502433" lon="12.96997"><ele>408.0</ele><time>2026-04-26T12:31:08.517Z</time></trkpt><trkpt lat="43.2501467" lon="12.97023"><ele>408.0</ele><time>2026-04-26T12:31:09.517Z</time></trkpt><trkpt lat="43.25004" lon="12.9704933"><ele>408.0</ele><time>2026-04-26T12:31:10.518Z</time></trkpt><trkpt lat="43.249935" lon="12.9707617"><ele>408.0</ele><time>2026-04-26T12:31:11.518Z</time></trkpt><trkpt lat="43.2498267" lon="12.9710333"><ele>406.0</ele><time>2026-04-26T12:31:12.517Z</time></trkpt><trkpt lat="43.24972" lon="12.9713117"><ele>404.0</ele><time>2026-04-26T12:31:13.518Z</time></trkpt><trkpt lat="43.2496083" lon="12.9715867"><ele>406.0</ele><time>2026-04-26T12:31:14.517Z</time></trkpt><trkpt lat="43.2494983" lon="12.9718683"><ele>408.0</ele><time>2026-04-26T12:31:15.517Z</time></trkpt><trkpt lat="43.2493933" lon="12.9721517"><ele>408.0</ele><time>2026-04-26T12:31:16.518Z</time></trkpt><trkpt lat="43.2492817" lon="12.9724317"><ele>408.0</ele><time>2026-04-26T12:31:17.518Z</time></trkpt><trkpt lat="43.24917" lon="12.97272"><ele>408.0</ele><time>2026-04-26T12:31:18.517Z</time></trkpt><trkpt lat="43.2490617" lon="12.9730067"><ele>408.0</ele><time>2026-04-26T12:31:19.517Z</time></trkpt><trkpt lat="43.2489533" lon="12.9733"><ele>403.0</ele><time>2026-04-26T12:31:20.517Z</time></trkpt><trkpt lat="43.2488333" lon="12.9735833"><ele>398.0</ele><time>2026-04-26T12:31:21.517Z</time></trkpt><trkpt lat="43.248715" lon="12.9738683"><ele>398.0</ele><time>2026-04-26T12:31:22.517Z</time></trkpt><trkpt lat="43.2486067" lon="12.974145"><ele>398.0</ele><time>2026-04-26T12:31:23.518Z</time></trkpt><trkpt lat="43.248505" lon="12.97441"><ele>398.0</ele><time>2026-04-26T12:31:24.517Z</time></trkpt><trkpt lat="43.2484083" lon="12.9746583"><ele>398.0</ele><time>2026-04-26T12:31:25.517Z</time></trkpt><trkpt lat="43.2483167" lon="12.9748967"><ele>398.0</ele><time>2026-04-26T12:31:26.517Z</time></trkpt><trkpt lat="43.2482217" lon="12.97512"><ele>398.0</ele><time>2026-04-26T12:31:27.517Z</time></trkpt><trkpt lat="43.2481317" lon="12.9753383"><ele>398.0</ele><time>2026-04-26T12:31:28.517Z</time></trkpt><trkpt lat="43.2480467" lon="12.9755617"><ele>398.0</ele><time>2026-04-26T12:31:29.517Z</time></trkpt><trkpt lat="43.2479583" lon="12.9757883"><ele>398.0</ele><time>2026-04-26T12:31:30.517Z</time></trkpt><trkpt lat="43.2478667" lon="12.9760083"><ele>397.66666666666663</ele><time>2026-04-26T12:31:31.517Z</time></trkpt><trkpt lat="43.2477867" lon="12.9762267"><ele>397.33333333333337</ele><time>2026-04-26T12:31:32.517Z</time></trkpt><trkpt lat="43.2477133" lon="12.9764533"><ele>397.0</ele><time>2026-04-26T12:31:33.518Z</time></trkpt><trkpt lat="43.24765" lon="12.9766933"><ele>396.33333333333337</ele><time>2026-04-26T12:31:34.518Z</time></trkpt><trkpt lat="43.24761" lon="12.97696"><ele>395.66666666666663</ele><time>2026-04-26T12:31:35.517Z</time></trkpt><trkpt lat="43.2475967" lon="12.97723"><ele>395.0</ele><time>2026-04-26T12:31:36.517Z</time></trkpt><trkpt lat="43.247605" lon="12.9775017"><ele>393.3333333333333</ele><time>2026-04-26T12:31:37.518Z</time></trkpt><trkpt lat="43.2476183" lon="12.9777933"><ele>391.66666666666663</ele><time>2026-04-26T12:31:38.517Z</time></trkpt><trkpt lat="43.2476267" lon="12.97809"><ele>390.0</ele><time>2026-04-26T12:31:39.518Z</time></trkpt><trkpt lat="43.2476367" lon="12.9783883"><ele>387.6666666666667</ele><time>2026-04-26T12:31:40.518Z</time></trkpt><trkpt lat="43.2476433" lon="12.9786817"><ele>385.33333333333337</ele><time>2026-04-26T12:31:41.517Z</time></trkpt><trkpt lat="43.2476483" lon="12.9789633"><ele>383.0</ele><time>2026-04-26T12:31:42.517Z</time></trkpt><trkpt lat="43.247655" lon="12.979235"><ele>382.6666666666667</ele><time>2026-04-26T12:31:43.517Z</time></trkpt><trkpt lat="43.24766" lon="12.979495"><ele>382.3333333333333</ele><time>2026-04-26T12:31:44.518Z</time></trkpt><trkpt lat="43.247665" lon="12.9797417"><ele>382.0</ele><time>2026-04-26T12:31:45.517Z</time></trkpt><trkpt lat="43.24767" lon="12.9799817"><ele>383.0</ele><time>2026-04-26T12:31:46.517Z</time></trkpt><trkpt lat="43.2476667" lon="12.9802033"><ele>384.0</ele><time>2026-04-26T12:31:47.517Z</time></trkpt><trkpt lat="43.24766" lon="12.9804183"><ele>385.0</ele><time>2026-04-26T12:31:48.518Z</time></trkpt><trkpt lat="43.2476283" lon="12.9806167"><ele>385.0</ele><time>2026-04-26T12:31:49.517Z</time></trkpt><trkpt lat="43.2475667" lon="12.9808"><ele>385.0</ele><time>2026-04-26T12:31:50.517Z</time></trkpt><trkpt lat="43.24749" lon="12.9809683"><ele>385.0</ele><time>2026-04-26T12:31:51.518Z</time></trkpt><trkpt lat="43.2474117" lon="12.9811467"><ele>385.0</ele><time>2026-04-26T12:31:52.517Z</time></trkpt><trkpt lat="43.2473633" lon="12.9813367"><ele>385.33333333333337</ele><time>2026-04-26T12:31:53.517Z</time></trkpt><trkpt lat="43.247335" lon="12.98154"><ele>385.66666666666663</ele><time>2026-04-26T12:31:54.517Z</time></trkpt><trkpt lat="43.2473433" lon="12.9817633"><ele>386.0</ele><time>2026-04-26T12:31:55.517Z</time></trkpt><trkpt lat="43.2473617" lon="12.982"><ele>385.0</ele><time>2026-04-26T12:31:56.518Z</time></trkpt><trkpt lat="43.247395" lon="12.9822483"><ele>384.0</ele><time>2026-04-26T12:31:57.518Z</time></trkpt><trkpt lat="43.2474167" lon="12.9825"><ele>383.0</ele><time>2026-04-26T12:31:58.517Z</time></trkpt><trkpt lat="43.2474133" lon="12.9827567"><ele>382.6666666666667</ele><time>2026-04-26T12:31:59.517Z</time></trkpt><trkpt lat="43.2473867" lon="12.98301"><ele>382.3333333333333</ele><time>2026-04-26T12:32:00.517Z</time></trkpt><trkpt lat="43.2473483" lon="12.98326"><ele>382.0</ele><time>2026-04-26T12:32:01.517Z</time></trkpt><trkpt lat="43.2473033" lon="12.9835067"><ele>380.3333333333333</ele><time>2026-04-26T12:32:02.517Z</time></trkpt><trkpt lat="43.247255" lon="12.9837367"><ele>378.6666666666667</ele><time>2026-04-26T12:32:03.517Z</time></trkpt><trkpt lat="43.2471917" lon="12.9839717"><ele>377.0</ele><time>2026-04-26T12:32:04.517Z</time></trkpt><trkpt lat="43.2471117" lon="12.9841917"><ele>377.0</ele><time>2026-04-26T12:32:05.517Z</time></trkpt><trkpt lat="43.2470133" lon="12.98441"><ele>377.0</ele><time>2026-04-26T12:32:06.518Z</time></trkpt><trkpt lat="43.2468967" lon="12.9846333"><ele>377.0</ele><time>2026-04-26T12:32:07.517Z</time></trkpt><trkpt lat="43.2467883" lon="12.9848467"><ele>376.6666666666667</ele><time>2026-04-26T12:32:08.517Z</time></trkpt><trkpt lat="43.2467017" lon="12.9850583"><ele>376.3333333333333</ele><time>2026-04-26T12:32:09.517Z</time></trkpt><trkpt lat="43.2466433" lon="12.98528"><ele>376.0</ele><time>2026-04-26T12:32:10.517Z</time></trkpt><trkpt lat="43.2466267" lon="12.9855333"><ele>376.0</ele><time>2026-04-26T12:32:11.518Z</time></trkpt><trkpt lat="43.2466383" lon="12.98581"><ele>376.0</ele><time>2026-04-26T12:32:12.517Z</time></trkpt><trkpt lat="43.2466533" lon="12.986085"><ele>376.0</ele><time>2026-04-26T12:32:13.517Z</time></trkpt><trkpt lat="43.2466567" lon="12.9863617"><ele>375.66666666666663</ele><time>2026-04-26T12:32:14.517Z</time></trkpt><trkpt lat="43.2466717" lon="12.98664"><ele>375.3333333333333</ele><time>2026-04-26T12:32:15.517Z</time></trkpt><trkpt lat="43.2466817" lon="12.9869233"><ele>375.0</ele><time>2026-04-26T12:32:16.518Z</time></trkpt><trkpt lat="43.2466867" lon="12.9871883"><ele>375.0</ele><time>2026-04-26T12:32:17.517Z</time></trkpt><trkpt lat="43.2467" lon="12.98746"><ele>375.0</ele><time>2026-04-26T12:32:18.517Z</time></trkpt><trkpt lat="43.246705" lon="12.9877133"><ele>375.0</ele><time>2026-04-26T12:32:19.518Z</time></trkpt><trkpt lat="43.24671" lon="12.987945"><ele>376.0</ele><time>2026-04-26T12:32:20.517Z</time></trkpt><trkpt lat="43.24671" lon="12.988145"><ele>377.0</ele><time>2026-04-26T12:32:21.517Z</time></trkpt><trkpt lat="43.246695" lon="12.9883283"><ele>378.0</ele><time>2026-04-26T12:32:22.518Z</time></trkpt><trkpt lat="43.2466517" lon="12.988495"><ele>379.0</ele><time>2026-04-26T12:32:23.518Z</time></trkpt><trkpt lat="43.2465767" lon="12.988645"><ele>379.0</ele><time>2026-04-26T12:32:24.518Z</time></trkpt><trkpt lat="43.24647" lon="12.9887767"><ele>379.0</ele><time>2026-04-26T12:32:25.517Z</time></trkpt><trkpt lat="43.2463517" lon="12.9888867"><ele>379.0</ele><time>2026-04-26T12:32:26.517Z</time></trkpt><trkpt lat="43.24622" lon="12.9889783"><ele>379.0</ele><time>2026-04-26T12:32:27.517Z</time></trkpt><trkpt lat="43.2460817" lon="12.9890733"><ele>380.0</ele><time>2026-04-26T12:32:28.517Z</time></trkpt><trkpt lat="43.245945" lon="12.9891733"><ele>381.0</ele><time>2026-04-26T12:32:29.517Z</time></trkpt><trkpt lat="43.2458067" lon="12.9892817"><ele>382.0</ele><time>2026-04-26T12:32:30.517Z</time></trkpt><trkpt lat="43.2456817" lon="12.9893833"><ele>382.40000000000003</ele><time>2026-04-26T12:32:31.518Z</time></trkpt><trkpt lat="43.24557" lon="12.989475"><ele>382.8</ele><time>2026-04-26T12:32:32.517Z</time></trkpt><trkpt lat="43.2454683" lon="12.9895567"><ele>383.2</ele><time>2026-04-26T12:32:33.517Z</time></trkpt><trkpt lat="43.2453817" lon="12.989625"><ele>383.6</ele><time>2026-04-26T12:32:34.517Z</time></trkpt><trkpt lat="43.24531" lon="12.9896717"><ele>384.0</ele><time>2026-04-26T12:32:35.517Z</time></trkpt><trkpt lat="43.2452467" lon="12.9896917"><ele>384.0</ele><time>2026-04-26T12:32:36.518Z</time></trkpt><trkpt lat="43.2451683" lon="12.9896883"><ele>384.0</ele><time>2026-04-26T12:32:37.517Z</time></trkpt><trkpt lat="43.2450883" lon="12.9896783"><ele>384.0</ele><time>2026-04-26T12:32:38.517Z</time></trkpt><trkpt lat="43.24501" lon="12.9896867"><ele>384.0</ele><time>2026-04-26T12:32:39.517Z</time></trkpt><trkpt lat="43.2449317" lon="12.9897283"><ele>384.0</ele><time>2026-04-26T12:32:40.517Z</time></trkpt><trkpt lat="43.2448517" lon="12.9898017"><ele>384.0</ele><time>2026-04-26T12:32:41.517Z</time></trkpt><trkpt lat="43.2447817" lon="12.9899083"><ele>383.25</ele><time>2026-04-26T12:32:42.517Z</time></trkpt><trkpt lat="43.2447317" lon="12.9900333"><ele>382.5</ele><time>2026-04-26T12:32:43.517Z</time></trkpt><trkpt lat="43.2446633" lon="12.9901483"><ele>381.75</ele><time>2026-04-26T12:32:44.517Z</time></trkpt><trkpt lat="43.2445817" lon="12.9902533"><ele>381.0</ele><time>2026-04-26T12:32:45.517Z</time></trkpt><trkpt lat="43.2444633" lon="12.9903383"><ele>381.0</ele><time>2026-04-26T12:32:46.518Z</time></trkpt><trkpt lat="43.244335" lon="12.99043"><ele>381.0</ele><time>2026-04-26T12:32:47.517Z</time></trkpt><trkpt lat="43.2442017" lon="12.9905433"><ele>381.0</ele><time>2026-04-26T12:32:48.518Z</time></trkpt><trkpt lat="43.24405" lon="12.9906633"><ele>381.6666666666667</ele><time>2026-04-26T12:32:49.517Z</time></trkpt><trkpt lat="43.2438933" lon="12.99079"><ele>382.33333333333337</ele><time>2026-04-26T12:32:50.517Z</time></trkpt><trkpt lat="43.243725" lon="12.9909183"><ele>383.0</ele><time>2026-04-26T12:32:51.517Z</time></trkpt><trkpt lat="43.24355" lon="12.99105"><ele>383.0</ele><time>2026-04-26T12:32:52.517Z</time></trkpt><trkpt lat="43.243375" lon="12.9911817"><ele>383.0</ele><time>2026-04-26T12:32:53.517Z</time></trkpt><trkpt lat="43.243195" lon="12.9913167"><ele>383.0</ele><time>2026-04-26T12:32:54.517Z</time></trkpt><trkpt lat="43.243" lon="12.991465"><ele>384.0</ele><time>2026-04-26T12:32:55.518Z</time></trkpt><trkpt lat="43.2428133" lon="12.99161"><ele>385.0</ele><time>2026-04-26T12:32:56.517Z</time></trkpt><trkpt lat="43.242625" lon="12.9917533"><ele>386.0</ele><time>2026-04-26T12:32:57.517Z</time></trkpt><trkpt lat="43.242445" lon="12.9918967"><ele>386.0</ele><time>2026-04-26T12:32:58.517Z</time></trkpt><trkpt lat="43.2422667" lon="12.9920417"><ele>386.0</ele><time>2026-04-26T12:32:59.517Z</time></trkpt><trkpt lat="43.242095" lon="12.992175"><ele>386.0</ele><time>2026-04-26T12:33:00.517Z</time></trkpt><trkpt lat="43.2419433" lon="12.9923033"><ele>386.0</ele><time>2026-04-26T12:33:01.517Z</time></trkpt><trkpt lat="43.2418167" lon="12.99243"><ele>386.0</ele><time>2026-04-26T12:33:02.517Z</time></trkpt><trkpt lat="43.2417067" lon="12.9925683"><ele>386.0</ele><time>2026-04-26T12:33:03.518Z</time></trkpt><trkpt lat="43.24162" lon="12.9927167"><ele>386.0</ele><time>2026-04-26T12:33:04.517Z</time></trkpt><trkpt lat="43.2415667" lon="12.9928633"><ele>386.8</ele><time>2026-04-26T12:33:05.518Z</time></trkpt><trkpt lat="43.2415383" lon="12.993015"><ele>387.6</ele><time>2026-04-26T12:33:06.517Z</time></trkpt><trkpt lat="43.241545" lon="12.99316"><ele>388.4</ele><time>2026-04-26T12:33:07.517Z</time></trkpt><trkpt lat="43.24159" lon="12.9932933"><ele>389.2</ele><time>2026-04-26T12:33:08.518Z</time></trkpt><trkpt lat="43.2416717" lon="12.9934083"><ele>390.0</ele><time>2026-04-26T12:33:09.517Z</time></trkpt><trkpt lat="43.2417833" lon="12.9935083"><ele>392.66666666666663</ele><time>2026-04-26T12:33:10.518Z</time></trkpt><trkpt lat="43.2419317" lon="12.9936067"><ele>395.3333333333333</ele><time>2026-04-26T12:33:11.517Z</time></trkpt><trkpt lat="43.2421033" lon="12.993705"><ele>398.0</ele><time>2026-04-26T12:33:12.517Z</time></trkpt><trkpt lat="43.2422517" lon="12.993825"><ele>393.3333333333333</ele><time>2026-04-26T12:33:13.518Z</time></trkpt><trkpt lat="43.2424033" lon="12.99396"><ele>388.66666666666663</ele><time>2026-04-26T12:33:14.517Z</time></trkpt><trkpt lat="43.2425283" lon="12.9941133"><ele>384.0</ele><time>2026-04-26T12:33:15.517Z</time></trkpt><trkpt lat="43.2426233" lon="12.99428"><ele>384.0</ele><time>2026-04-26T12:33:16.518Z</time></trkpt><trkpt lat="43.24272" lon="12.99446"><ele>384.0</ele><time>2026-04-26T12:33:17.517Z</time></trkpt><trkpt lat="43.2428117" lon="12.9946617"><ele>384.0</ele><time>2026-04-26T12:33:18.517Z</time></trkpt><trkpt lat="43.2429133" lon="12.9948767"><ele>382.6666666666667</ele><time>2026-04-26T12:33:19.518Z</time></trkpt><trkpt lat="43.24301" lon="12.9950933"><ele>381.33333333333337</ele><time>2026-04-26T12:33:20.517Z</time></trkpt><trkpt lat="43.2431083" lon="12.9953167"><ele>380.0</ele><time>2026-04-26T12:33:21.517Z</time></trkpt><trkpt lat="43.243215" lon="12.9955433"><ele>379.33333333333337</ele><time>2026-04-26T12:33:22.517Z</time></trkpt><trkpt lat="43.24332" lon="12.99578"><ele>378.6666666666667</ele><time>2026-04-26T12:33:23.517Z</time></trkpt><trkpt lat="43.2434267" lon="12.9960183"><ele>378.0</ele><time>2026-04-26T12:33:24.517Z</time></trkpt><trkpt lat="43.2435383" lon="12.9962667"><ele>377.6666666666667</ele><time>2026-04-26T12:33:25.517Z</time></trkpt><trkpt lat="43.243645" lon="12.9965217"><ele>377.33333333333337</ele><time>2026-04-26T12:33:26.517Z</time></trkpt><trkpt lat="43.2437583" lon="12.9967767"><ele>377.0</ele><time>2026-04-26T12:33:27.517Z</time></trkpt><trkpt lat="43.24387" lon="12.99703"><ele>375.6666666666667</ele><time>2026-04-26T12:33:28.517Z</time></trkpt><trkpt lat="43.2439783" lon="12.9972667"><ele>374.3333333333333</ele><time>2026-04-26T12:33:29.517Z</time></trkpt><trkpt lat="43.2440783" lon="12.997495"><ele>373.0</ele><time>2026-04-26T12:33:30.518Z</time></trkpt><trkpt lat="43.2441817" lon="12.9977217"><ele>373.0</ele><time>2026-04-26T12:33:31.517Z</time></trkpt><trkpt lat="43.2442817" lon="12.9979483"><ele>373.0</ele><time>2026-04-26T12:33:32.518Z</time></trkpt><trkpt lat="43.2443783" lon="12.99817"><ele>373.0</ele><time>2026-04-26T12:33:33.517Z</time></trkpt><trkpt lat="43.2444667" lon="12.9983783"><ele>372.66666666666663</ele><time>2026-04-26T12:33:34.517Z</time></trkpt><trkpt lat="43.24455" lon="12.9985667"><ele>372.3333333333333</ele><time>2026-04-26T12:33:35.517Z</time></trkpt><trkpt lat="43.2446317" lon="12.9987483"><ele>372.0</ele><time>2026-04-26T12:33:36.517Z</time></trkpt><trkpt lat="43.2447033" lon="12.9989133"><ele>372.0</ele><time>2026-04-26T12:33:37.517Z</time></trkpt><trkpt lat="43.244765" lon="12.9990633"><ele>372.0</ele><time>2026-04-26T12:33:38.518Z</time></trkpt><trkpt lat="43.244815" lon="12.9991967"><ele>372.0</ele><time>2026-04-26T12:33:39.517Z</time></trkpt><trkpt lat="43.24485" lon="12.9993217"><ele>372.0</ele><time>2026-04-26T12:33:40.517Z</time></trkpt><trkpt lat="43.244875" lon="12.9994283"><ele>372.0</ele><time>2026-04-26T12:33:41.517Z</time></trkpt><trkpt lat="43.2448967" lon="12.9995133"><ele>372.1666666666667</ele><time>2026-04-26T12:33:42.517Z</time></trkpt><trkpt lat="43.24493" lon="12.9995867"><ele>372.3333333333333</ele><time>2026-04-26T12:33:43.517Z</time></trkpt><trkpt lat="43.2449783" lon="12.9996467"><ele>372.5</ele><time>2026-04-26T12:33:44.517Z</time></trkpt><trkpt lat="43.245035" lon="12.9997217"><ele>372.66666666666663</ele><time>2026-04-26T12:33:45.517Z</time></trkpt><trkpt lat="43.2450917" lon="12.9998133"><ele>372.8333333333333</ele><time>2026-04-26T12:33:46.517Z</time></trkpt><trkpt lat="43.2451483" lon="12.9999283"><ele>373.0</ele><time>2026-04-26T12:33:47.517Z</time></trkpt><trkpt lat="43.2451967" lon="13.000055"><ele>373.0</ele><time>2026-04-26T12:33:48.517Z</time></trkpt><trkpt lat="43.2452533" lon="13.0001933"><ele>373.0</ele><time>2026-04-26T12:33:49.518Z</time></trkpt><trkpt lat="43.2453233" lon="13.0003383"><ele>373.0</ele><time>2026-04-26T12:33:50.517Z</time></trkpt><trkpt lat="43.2454017" lon="13.0004917"><ele>373.0</ele><time>2026-04-26T12:33:51.517Z</time></trkpt><trkpt lat="43.2454667" lon="13.0006567"><ele>372.75</ele><time>2026-04-26T12:33:52.517Z</time></trkpt><trkpt lat="43.2455367" lon="13.0008333"><ele>372.5</ele><time>2026-04-26T12:33:53.517Z</time></trkpt><trkpt lat="43.2456117" lon="13.0010083"><ele>372.25</ele><time>2026-04-26T12:33:54.517Z</time></trkpt><trkpt lat="43.24569" lon="13.0011867"><ele>372.0</ele><time>2026-04-26T12:33:55.518Z</time></trkpt><trkpt lat="43.245775" lon="13.00137"><ele>371.75</ele><time>2026-04-26T12:33:56.517Z</time></trkpt><trkpt lat="43.2458517" lon="13.0015417"><ele>371.5</ele><time>2026-04-26T12:33:57.517Z</time></trkpt><trkpt lat="43.2459267" lon="13.001705"><ele>371.25</ele><time>2026-04-26T12:33:58.517Z</time></trkpt><trkpt lat="43.2459883" lon="13.0018517"><ele>371.0</ele><time>2026-04-26T12:33:59.517Z</time></trkpt><trkpt lat="43.2460467" lon="13.0019783"><ele>370.8</ele><time>2026-04-26T12:34:00.517Z</time></trkpt><trkpt lat="43.2461033" lon="13.0020883"><ele>370.6</ele><time>2026-04-26T12:34:01.518Z</time></trkpt><trkpt lat="43.2461517" lon="13.0022067"><ele>370.4</ele><time>2026-04-26T12:34:02.517Z</time></trkpt><trkpt lat="43.2462117" lon="13.00233"><ele>370.2</ele><time>2026-04-26T12:34:03.517Z</time></trkpt><trkpt lat="43.2462717" lon="13.0024733"><ele>370.0</ele><time>2026-04-26T12:34:04.517Z</time></trkpt><trkpt lat="43.2463367" lon="13.002625"><ele>370.0</ele><time>2026-04-26T12:34:05.517Z</time></trkpt><trkpt lat="43.2464033" lon="13.002785"><ele>370.0</ele><time>2026-04-26T12:34:06.517Z</time></trkpt><trkpt lat="43.2464783" lon="13.0029633"><ele>370.0</ele><time>2026-04-26T12:34:07.517Z</time></trkpt><trkpt lat="43.2465567" lon="13.0031467"><ele>370.0</ele><time>2026-04-26T12:34:08.517Z</time></trkpt><trkpt lat="43.2466383" lon="13.0033267"><ele>369.66666666666663</ele><time>2026-04-26T12:34:09.517Z</time></trkpt><trkpt lat="43.2467133" lon="13.0035117"><ele>369.3333333333333</ele><time>2026-04-26T12:34:10.517Z</time></trkpt><trkpt lat="43.24679" lon="13.0036933"><ele>369.0</ele><time>2026-04-26T12:34:11.517Z</time></trkpt><trkpt lat="43.246865" lon="13.0038633"><ele>369.0</ele><time>2026-04-26T12:34:12.517Z</time></trkpt><trkpt lat="43.24694" lon="13.0040117"><ele>369.0</ele><time>2026-04-26T12:34:13.518Z</time></trkpt><trkpt lat="43.2470083" lon="13.00415"><ele>369.0</ele><time>2026-04-26T12:34:14.517Z</time></trkpt><trkpt lat="43.2470633" lon="13.00428"><ele>369.0</ele><time>2026-04-26T12:34:15.518Z</time></trkpt><trkpt lat="43.2471167" lon="13.004405"><ele>368.6666666666667</ele><time>2026-04-26T12:34:16.518Z</time></trkpt><trkpt lat="43.2471667" lon="13.00452"><ele>368.3333333333333</ele><time>2026-04-26T12:34:17.517Z</time></trkpt><trkpt lat="43.24719" lon="13.0046283"><ele>368.0</ele><time>2026-04-26T12:34:18.517Z</time></trkpt><trkpt lat="43.24722" lon="13.004715"><ele>367.66666666666663</ele><time>2026-04-26T12:34:19.517Z</time></trkpt><trkpt lat="43.247265" lon="13.004845"><ele>367.3333333333333</ele><time>2026-04-26T12:34:21.517Z</time></trkpt><trkpt lat="43.2473283" lon="13.0049133"><ele>367.0</ele><time>2026-04-26T12:34:23.518Z</time></trkpt><trkpt lat="43.2473933" lon="13.0049433"><ele>366.25</ele><time>2026-04-26T12:34:24.517Z</time></trkpt><trkpt lat="43.24748" lon="13.0050033"><ele>365.5</ele><time>2026-04-26T12:34:25.517Z</time></trkpt><trkpt lat="43.24758" lon="13.0051017"><ele>364.75</ele><time>2026-04-26T12:34:26.517Z</time></trkpt><trkpt lat="43.2476983" lon="13.0052333"><ele>364.0</ele><time>2026-04-26T12:34:27.517Z</time></trkpt><trkpt lat="43.2478333" lon="13.0053767"><ele>364.0</ele><time>2026-04-26T12:34:28.518Z</time></trkpt><trkpt lat="43.2479833" lon="13.00554"><ele>364.0</ele><time>2026-04-26T12:34:29.517Z</time></trkpt><trkpt lat="43.2481217" lon="13.0057"><ele>364.0</ele><time>2026-04-26T12:34:30.517Z</time></trkpt><trkpt lat="43.248265" lon="13.0058483"><ele>364.3333333333333</ele><time>2026-04-26T12:34:31.517Z</time></trkpt><trkpt lat="43.2484033" lon="13.0060017"><ele>364.6666666666667</ele><time>2026-04-26T12:34:32.517Z</time></trkpt><trkpt lat="43.2485483" lon="13.006155"><ele>365.0</ele><time>2026-04-26T12:34:33.517Z</time></trkpt><trkpt lat="43.2486867" lon="13.0062933"><ele>365.0</ele><time>2026-04-26T12:34:34.517Z</time></trkpt><trkpt lat="43.24881" lon="13.0064467"><ele>365.0</ele><time>2026-04-26T12:34:35.517Z</time></trkpt><trkpt lat="43.248935" lon="13.00659"><ele>365.0</ele><time>2026-04-26T12:34:36.517Z</time></trkpt><trkpt lat="43.2490633" lon="13.0067233"><ele>364.33333333333337</ele><time>2026-04-26T12:34:37.517Z</time></trkpt><trkpt lat="43.2491817" lon="13.0068617"><ele>363.6666666666667</ele><time>2026-04-26T12:34:38.517Z</time></trkpt><trkpt lat="43.2493083" lon="13.0069933"><ele>363.0</ele><time>2026-04-26T12:34:39.517Z</time></trkpt><trkpt lat="43.2494267" lon="13.00713"><ele>363.0</ele><time>2026-04-26T12:34:40.517Z</time></trkpt><trkpt lat="43.249555" lon="13.0072617"><ele>363.0</ele><time>2026-04-26T12:34:41.517Z</time></trkpt><trkpt lat="43.24968" lon="13.0074"><ele>363.0</ele><time>2026-04-26T12:34:42.517Z</time></trkpt><trkpt lat="43.2498133" lon="13.0075317"><ele>363.0</ele><time>2026-04-26T12:34:43.517Z</time></trkpt><trkpt lat="43.2499383" lon="13.00767"><ele>363.0</ele><time>2026-04-26T12:34:44.518Z</time></trkpt><trkpt lat="43.2500617" lon="13.007815"><ele>363.0</ele><time>2026-04-26T12:34:45.517Z</time></trkpt><trkpt lat="43.250185" lon="13.00794"><ele>363.0</ele><time>2026-04-26T12:34:46.516Z</time></trkpt><trkpt lat="43.2503033" lon="13.0080633"><ele>363.0</ele><time>2026-04-26T12:34:47.516Z</time></trkpt><trkpt lat="43.2504233" lon="13.0081933"><ele>363.0</ele><time>2026-04-26T12:34:48.517Z</time></trkpt><trkpt lat="43.2505367" lon="13.00832"><ele>363.0</ele><time>2026-04-26T12:34:49.516Z</time></trkpt><trkpt lat="43.2506367" lon="13.0084417"><ele>362.79999999999995</ele><time>2026-04-26T12:34:50.517Z</time></trkpt><trkpt lat="43.25074" lon="13.008545"><ele>362.6</ele><time>2026-04-26T12:34:51.516Z</time></trkpt><trkpt lat="43.2508283" lon="13.00864"><ele>362.4</ele><time>2026-04-26T12:34:52.516Z</time></trkpt><trkpt lat="43.250915" lon="13.0087283"><ele>362.20000000000005</ele><time>2026-04-26T12:34:53.516Z</time></trkpt><trkpt lat="43.2509917" lon="13.0088117"><ele>362.0</ele><time>2026-04-26T12:34:54.516Z</time></trkpt><trkpt lat="43.2510517" lon="13.0088817"><ele>362.0</ele><time>2026-04-26T12:34:55.516Z</time></trkpt><trkpt lat="43.2511017" lon="13.0089467"><ele>362.0</ele><time>2026-04-26T12:34:56.516Z</time></trkpt><trkpt lat="43.2511733" lon="13.00904"><ele>362.0</ele><time>2026-04-26T12:34:58.517Z</time></trkpt><trkpt lat="43.25123" lon="13.009095"><ele>362.0</ele><time>2026-04-26T12:35:00.516Z</time></trkpt><trkpt lat="43.2512833" lon="13.0091867"><ele>362.0</ele><time>2026-04-26T12:35:03.517Z</time></trkpt><trkpt lat="43.2513483" lon="13.009225"><ele>362.0</ele><time>2026-04-26T12:35:04.516Z</time></trkpt><trkpt lat="43.25144" lon="13.009255"><ele>361.0</ele><time>2026-04-26T12:35:05.517Z</time></trkpt><trkpt lat="43.2515567" lon="13.0092817"><ele>360.0</ele><time>2026-04-26T12:35:06.516Z</time></trkpt><trkpt lat="43.251695" lon="13.00929"><ele>359.0</ele><time>2026-04-26T12:35:07.516Z</time></trkpt><trkpt lat="43.2518383" lon="13.0092967"><ele>358.0</ele><time>2026-04-26T12:35:08.516Z</time></trkpt><trkpt lat="43.2519983" lon="13.0093033"><ele>358.0</ele><time>2026-04-26T12:35:09.516Z</time></trkpt><trkpt lat="43.2521683" lon="13.0093133"><ele>358.0</ele><time>2026-04-26T12:35:10.516Z</time></trkpt><trkpt lat="43.25234" lon="13.00933"><ele>358.0</ele><time>2026-04-26T12:35:11.516Z</time></trkpt><trkpt lat="43.25252" lon="13.00934"><ele>357.3333333333333</ele><time>2026-04-26T12:35:12.516Z</time></trkpt><trkpt lat="43.2527017" lon="13.0093583"><ele>356.6666666666667</ele><time>2026-04-26T12:35:13.516Z</time></trkpt><trkpt lat="43.252875" lon="13.0093933"><ele>356.0</ele><time>2026-04-26T12:35:14.516Z</time></trkpt><trkpt lat="43.253035" lon="13.00943"><ele>355.25</ele><time>2026-04-26T12:35:15.516Z</time></trkpt><trkpt lat="43.2531783" lon="13.0094717"><ele>354.5</ele><time>2026-04-26T12:35:16.516Z</time></trkpt><trkpt lat="43.2533167" lon="13.0095267"><ele>353.75</ele><time>2026-04-26T12:35:17.517Z</time></trkpt><trkpt lat="43.2534517" lon="13.0095833"><ele>353.0</ele><time>2026-04-26T12:35:18.516Z</time></trkpt><trkpt lat="43.25357" lon="13.009645"><ele>353.0</ele><time>2026-04-26T12:35:19.516Z</time></trkpt><trkpt lat="43.2536867" lon="13.00971"><ele>353.0</ele><time>2026-04-26T12:35:20.516Z</time></trkpt><trkpt lat="43.2537967" lon="13.0097633"><ele>353.0</ele><time>2026-04-26T12:35:21.516Z</time></trkpt><trkpt lat="43.2539117" lon="13.0097883"><ele>353.0</ele><time>2026-04-26T12:35:22.516Z</time></trkpt><trkpt lat="43.2540333" lon="13.0097933"><ele>353.25</ele><time>2026-04-26T12:35:23.517Z</time></trkpt><trkpt lat="43.2541483" lon="13.0097833"><ele>353.5</ele><time>2026-04-26T12:35:24.516Z</time></trkpt><trkpt lat="43.2542617" lon="13.009765"><ele>353.75</ele><time>2026-04-26T12:35:25.516Z</time></trkpt><trkpt lat="43.2543683" lon="13.0097467"><ele>354.0</ele><time>2026-04-26T12:35:26.516Z</time></trkpt><trkpt lat="43.2544833" lon="13.0097317"><ele>354.0</ele><time>2026-04-26T12:35:27.516Z</time></trkpt><trkpt lat="43.2545917" lon="13.0097167"><ele>354.0</ele><time>2026-04-26T12:35:28.516Z</time></trkpt><trkpt lat="43.254715" lon="13.009705"><ele>354.0</ele><time>2026-04-26T12:35:29.516Z</time></trkpt><trkpt lat="43.2548417" lon="13.0096967"><ele>354.0</ele><time>2026-04-26T12:35:30.517Z</time></trkpt><trkpt lat="43.25497" lon="13.0096933"><ele>354.0</ele><time>2026-04-26T12:35:31.517Z</time></trkpt><trkpt lat="43.2550917" lon="13.0096983"><ele>354.0</ele><time>2026-04-26T12:35:32.517Z</time></trkpt><trkpt lat="43.2552183" lon="13.009725"><ele>354.0</ele><time>2026-04-26T12:35:33.516Z</time></trkpt><trkpt lat="43.255345" lon="13.0097833"><ele>354.0</ele><time>2026-04-26T12:35:34.516Z</time></trkpt><trkpt lat="43.2554667" lon="13.00988"><ele>352.0</ele><time>2026-04-26T12:35:35.517Z</time></trkpt><trkpt lat="43.255595" lon="13.0099983"><ele>350.0</ele><time>2026-04-26T12:35:36.516Z</time></trkpt><trkpt lat="43.2557233" lon="13.0101317"><ele>348.0</ele><time>2026-04-26T12:35:37.517Z</time></trkpt><trkpt lat="43.255845" lon="13.010275"><ele>348.0</ele><time>2026-04-26T12:35:38.516Z</time></trkpt><trkpt lat="43.2559717" lon="13.010425"><ele>348.0</ele><time>2026-04-26T12:35:39.517Z</time></trkpt><trkpt lat="43.2560917" lon="13.0105633"><ele>348.0</ele><time>2026-04-26T12:35:40.517Z</time></trkpt><trkpt lat="43.2562083" lon="13.010705"><ele>347.0</ele><time>2026-04-26T12:35:41.517Z</time></trkpt><trkpt lat="43.256335" lon="13.0108367"><ele>346.0</ele><time>2026-04-26T12:35:42.516Z</time></trkpt><trkpt lat="43.25646" lon="13.0109783"><ele>345.0</ele><time>2026-04-26T12:35:43.516Z</time></trkpt><trkpt lat="43.2565933" lon="13.011115"><ele>345.0</ele><time>2026-04-26T12:35:44.516Z</time></trkpt><trkpt lat="43.2567233" lon="13.01125"><ele>345.0</ele><time>2026-04-26T12:35:45.516Z</time></trkpt><trkpt lat="43.2568583" lon="13.0113867"><ele>345.0</ele><time>2026-04-26T12:35:46.516Z</time></trkpt><trkpt lat="43.2569967" lon="13.0115167"><ele>345.0</ele><time>2026-04-26T12:35:47.516Z</time></trkpt><trkpt lat="43.2571283" lon="13.01162"><ele>345.0</ele><time>2026-04-26T12:35:48.516Z</time></trkpt><trkpt lat="43.2572517" lon="13.0117217"><ele>345.0</ele><time>2026-04-26T12:35:49.516Z</time></trkpt><trkpt lat="43.2573717" lon="13.0118117"><ele>345.0</ele><time>2026-04-26T12:35:50.517Z</time></trkpt><trkpt lat="43.257495" lon="13.0118833"><ele>344.0</ele><time>2026-04-26T12:35:51.516Z</time></trkpt><trkpt lat="43.2576267" lon="13.0119333"><ele>343.0</ele><time>2026-04-26T12:35:52.516Z</time></trkpt><trkpt lat="43.2577667" lon="13.0119533"><ele>342.0</ele><time>2026-04-26T12:35:53.516Z</time></trkpt><trkpt lat="43.2579133" lon="13.011945"><ele>341.0</ele><time>2026-04-26T12:35:54.516Z</time></trkpt><trkpt lat="43.2580683" lon="13.0119367"><ele>341.0</ele><time>2026-04-26T12:35:55.517Z</time></trkpt><trkpt lat="43.2582183" lon="13.0119283"><ele>341.0</ele><time>2026-04-26T12:35:56.516Z</time></trkpt><trkpt lat="43.2583867" lon="13.01191"><ele>341.0</ele><time>2026-04-26T12:35:57.516Z</time></trkpt><trkpt lat="43.2585233" lon="13.0119367"><ele>341.0</ele><time>2026-04-26T12:35:58.516Z</time></trkpt><trkpt lat="43.2586617" lon="13.0119617"><ele>341.0</ele><time>2026-04-26T12:35:59.517Z</time></trkpt><trkpt lat="43.2587983" lon="13.0120167"><ele>341.0</ele><time>2026-04-26T12:36:00.516Z</time></trkpt><trkpt lat="43.25893" lon="13.012095"><ele>341.0</ele><time>2026-04-26T12:36:01.516Z</time></trkpt><trkpt lat="43.2590667" lon="13.0121767"><ele>340.33333333333337</ele><time>2026-04-26T12:36:02.516Z</time></trkpt><trkpt lat="43.2592083" lon="13.0122717"><ele>339.6666666666667</ele><time>2026-04-26T12:36:03.516Z</time></trkpt><trkpt lat="43.259345" lon="13.012375"><ele>339.0</ele><time>2026-04-26T12:36:04.517Z</time></trkpt><trkpt lat="43.2594717" lon="13.0124617"><ele>339.0</ele><time>2026-04-26T12:36:05.517Z</time></trkpt><trkpt lat="43.25959" lon="13.01253"><ele>339.0</ele><time>2026-04-26T12:36:06.516Z</time></trkpt><trkpt lat="43.259695" lon="13.0126017"><ele>339.0</ele><time>2026-04-26T12:36:07.516Z</time></trkpt><trkpt lat="43.2597983" lon="13.01267"><ele>339.0</ele><time>2026-04-26T12:36:08.517Z</time></trkpt><trkpt lat="43.2598933" lon="13.01274"><ele>339.6</ele><time>2026-04-26T12:36:09.516Z</time></trkpt><trkpt lat="43.2599683" lon="13.01282"><ele>340.2</ele><time>2026-04-26T12:36:10.516Z</time></trkpt><trkpt lat="43.2600367" lon="13.01291"><ele>340.8</ele><time>2026-04-26T12:36:11.516Z</time></trkpt><trkpt lat="43.2600983" lon="13.0130017"><ele>341.40000000000003</ele><time>2026-04-26T12:36:12.517Z</time></trkpt><trkpt lat="43.2601483" lon="13.0131017"><ele>342.0</ele><time>2026-04-26T12:36:13.516Z</time></trkpt><trkpt lat="43.260205" lon="13.0131933"><ele>342.0</ele><time>2026-04-26T12:36:14.516Z</time></trkpt><trkpt lat="43.26027" lon="13.0132817"><ele>342.0</ele><time>2026-04-26T12:36:15.516Z</time></trkpt><trkpt lat="43.26036" lon="13.013335"><ele>342.0</ele><time>2026-04-26T12:36:16.516Z</time></trkpt><trkpt lat="43.2604683" lon="13.0133883"><ele>342.0</ele><time>2026-04-26T12:36:17.516Z</time></trkpt><trkpt lat="43.2605783" lon="13.0134433"><ele>342.0</ele><time>2026-04-26T12:36:18.516Z</time></trkpt><trkpt lat="43.2606833" lon="13.0135083"><ele>343.25</ele><time>2026-04-26T12:36:19.517Z</time></trkpt><trkpt lat="43.2607633" lon="13.013605"><ele>344.5</ele><time>2026-04-26T12:36:20.516Z</time></trkpt><trkpt lat="43.2608133" lon="13.0137433"><ele>345.75</ele><time>2026-04-26T12:36:21.516Z</time></trkpt><trkpt lat="43.26085" lon="13.0138917"><ele>347.0</ele><time>2026-04-26T12:36:22.517Z</time></trkpt><trkpt lat="43.2608867" lon="13.0140517"><ele>347.25</ele><time>2026-04-26T12:36:23.516Z</time></trkpt><trkpt lat="43.2609333" lon="13.0142067"><ele>347.5</ele><time>2026-04-26T12:36:24.516Z</time></trkpt><trkpt lat="43.2609867" lon="13.0143617"><ele>347.75</ele><time>2026-04-26T12:36:25.517Z</time></trkpt><trkpt lat="43.2610517" lon="13.0145067"><ele>348.0</ele><time>2026-04-26T12:36:26.516Z</time></trkpt><trkpt lat="43.2611117" lon="13.0146467"><ele>348.0</ele><time>2026-04-26T12:36:27.517Z</time></trkpt><trkpt lat="43.2611683" lon="13.0147833"><ele>348.0</ele><time>2026-04-26T12:36:28.516Z</time></trkpt><trkpt lat="43.2612167" lon="13.014915"><ele>348.0</ele><time>2026-04-26T12:36:29.516Z</time></trkpt><trkpt lat="43.261245" lon="13.01505"><ele>348.0</ele><time>2026-04-26T12:36:30.516Z</time></trkpt><trkpt lat="43.2612617" lon="13.015185"><ele>348.0</ele><time>2026-04-26T12:36:31.517Z</time></trkpt><trkpt lat="43.26126" lon="13.0153433"><ele>347.75</ele><time>2026-04-26T12:36:32.516Z</time></trkpt><trkpt lat="43.2612533" lon="13.0154917"><ele>347.5</ele><time>2026-04-26T12:36:33.516Z</time></trkpt><trkpt lat="43.2612367" lon="13.01566"><ele>347.25</ele><time>2026-04-26T12:36:34.517Z</time></trkpt><trkpt lat="43.2612267" lon="13.01584"><ele>347.0</ele><time>2026-04-26T12:36:35.516Z</time></trkpt><trkpt lat="43.2612233" lon="13.0160317"><ele>347.5</ele><time>2026-04-26T12:36:36.516Z</time></trkpt><trkpt lat="43.2612233" lon="13.0162267"><ele>348.0</ele><time>2026-04-26T12:36:37.516Z</time></trkpt><trkpt lat="43.2612283" lon="13.0164217"><ele>348.5</ele><time>2026-04-26T12:36:38.517Z</time></trkpt><trkpt lat="43.2612267" lon="13.0166033"><ele>349.0</ele><time>2026-04-26T12:36:39.516Z</time></trkpt><trkpt lat="43.2612217" lon="13.01676"><ele>349.79999999999995</ele><time>2026-04-26T12:36:40.516Z</time></trkpt><trkpt lat="43.2612217" lon="13.0169083"><ele>350.59999999999997</ele><time>2026-04-26T12:36:41.516Z</time></trkpt><trkpt lat="43.261225" lon="13.017045"><ele>351.4</ele><time>2026-04-26T12:36:42.516Z</time></trkpt><trkpt lat="43.2612233" lon="13.017185"><ele>352.2</ele><time>2026-04-26T12:36:43.516Z</time></trkpt><trkpt lat="43.2612217" lon="13.0173133"><ele>353.0</ele><time>2026-04-26T12:36:44.516Z</time></trkpt><trkpt lat="43.2612267" lon="13.0174417"><ele>353.0</ele><time>2026-04-26T12:36:45.517Z</time></trkpt><trkpt lat="43.2612433" lon="13.0175817"><ele>353.0</ele><time>2026-04-26T12:36:46.516Z</time></trkpt><trkpt lat="43.26125" lon="13.01772"><ele>353.0</ele><time>2026-04-26T12:36:47.516Z</time></trkpt><trkpt lat="43.261255" lon="13.0178633"><ele>353.0</ele><time>2026-04-26T12:36:48.516Z</time></trkpt><trkpt lat="43.26125" lon="13.01801"><ele>353.0</ele><time>2026-04-26T12:36:49.517Z</time></trkpt><trkpt lat="43.2612367" lon="13.0181867"><ele>353.25</ele><time>2026-04-26T12:36:50.516Z</time></trkpt><trkpt lat="43.2612167" lon="13.018365"><ele>353.5</ele><time>2026-04-26T12:36:51.516Z</time></trkpt><trkpt lat="43.261195" lon="13.0185567"><ele>353.75</ele><time>2026-04-26T12:36:52.516Z</time></trkpt><trkpt lat="43.2611567" lon="13.0187817"><ele>354.0</ele><time>2026-04-26T12:36:53.516Z</time></trkpt><trkpt lat="43.2611167" lon="13.0190233"><ele>355.3333333333333</ele><time>2026-04-26T12:36:54.516Z</time></trkpt><trkpt lat="43.261065" lon="13.0192683"><ele>356.66666666666663</ele><time>2026-04-26T12:36:55.516Z</time></trkpt><trkpt lat="43.261025" lon="13.0195233"><ele>358.0</ele><time>2026-04-26T12:36:56.517Z</time></trkpt><trkpt lat="43.2609933" lon="13.01979"><ele>359.0</ele><time>2026-04-26T12:36:57.516Z</time></trkpt><trkpt lat="43.2609717" lon="13.0200617"><ele>360.0</ele><time>2026-04-26T12:36:58.516Z</time></trkpt><trkpt lat="43.2609583" lon="13.0203367"><ele>361.0</ele><time>2026-04-26T12:36:59.516Z</time></trkpt><trkpt lat="43.260945" lon="13.0206217"><ele>361.66666666666663</ele><time>2026-04-26T12:37:00.517Z</time></trkpt><trkpt lat="43.260935" lon="13.0209083"><ele>362.3333333333333</ele><time>2026-04-26T12:37:01.516Z</time></trkpt><trkpt lat="43.260925" lon="13.021205"><ele>363.0</ele><time>2026-04-26T12:37:02.516Z</time></trkpt><trkpt lat="43.2609133" lon="13.0214983"><ele>365.3333333333333</ele><time>2026-04-26T12:37:03.517Z</time></trkpt><trkpt lat="43.2609067" lon="13.0217917"><ele>367.66666666666663</ele><time>2026-04-26T12:37:04.517Z</time></trkpt><trkpt lat="43.2608833" lon="13.0220767"><ele>370.0</ele><time>2026-04-26T12:37:05.516Z</time></trkpt><trkpt lat="43.2608567" lon="13.022335"><ele>370.0</ele><time>2026-04-26T12:37:06.516Z</time></trkpt><trkpt lat="43.2608267" lon="13.0225783"><ele>370.0</ele><time>2026-04-26T12:37:07.516Z</time></trkpt><trkpt lat="43.2608033" lon="13.0228317"><ele>370.0</ele><time>2026-04-26T12:37:08.516Z</time></trkpt><trkpt lat="43.2607717" lon="13.0230933"><ele>370.3333333333333</ele><time>2026-04-26T12:37:09.516Z</time></trkpt><trkpt lat="43.2607333" lon="13.02337"><ele>370.6666666666667</ele><time>2026-04-26T12:37:10.517Z</time></trkpt><trkpt lat="43.2606917" lon="13.02365"><ele>371.0</ele><time>2026-04-26T12:37:11.516Z</time></trkpt><trkpt lat="43.2606533" lon="13.0239383"><ele>370.0</ele><time>2026-04-26T12:37:12.516Z</time></trkpt><trkpt lat="43.260615" lon="13.0242217"><ele>369.0</ele><time>2026-04-26T12:37:13.516Z</time></trkpt><trkpt lat="43.2605767" lon="13.0245217"><ele>368.0</ele><time>2026-04-26T12:37:14.516Z</time></trkpt><trkpt lat="43.2605317" lon="13.024835"><ele>369.0</ele><time>2026-04-26T12:37:15.517Z</time></trkpt><trkpt lat="43.2604817" lon="13.02514"><ele>370.0</ele><time>2026-04-26T12:37:16.516Z</time></trkpt><trkpt lat="43.2604367" lon="13.0254517"><ele>370.0</ele><time>2026-04-26T12:37:17.516Z</time></trkpt><trkpt lat="43.2603983" lon="13.0257583"><ele>370.0</ele><time>2026-04-26T12:37:18.516Z</time></trkpt><trkpt lat="43.2603783" lon="13.0260583"><ele>370.0</ele><time>2026-04-26T12:37:19.516Z</time></trkpt><trkpt lat="43.2603667" lon="13.0263517"><ele>370.66666666666663</ele><time>2026-04-26T12:37:20.516Z</time></trkpt><trkpt lat="43.2603533" lon="13.0266217"><ele>371.3333333333333</ele><time>2026-04-26T12:37:21.516Z</time></trkpt><trkpt lat="43.2603367" lon="13.0268667"><ele>372.0</ele><time>2026-04-26T12:37:22.517Z</time></trkpt><trkpt lat="43.2603217" lon="13.027105"><ele>372.6666666666667</ele><time>2026-04-26T12:37:23.516Z</time></trkpt><trkpt lat="43.2602867" lon="13.02735"><ele>373.33333333333337</ele><time>2026-04-26T12:37:24.516Z</time></trkpt><trkpt lat="43.2602383" lon="13.0276033"><ele>374.0</ele><time>2026-04-26T12:37:25.516Z</time></trkpt><trkpt lat="43.2601883" lon="13.0278517"><ele>375.33333333333337</ele><time>2026-04-26T12:37:26.516Z</time></trkpt><trkpt lat="43.2601367" lon="13.0281267"><ele>376.6666666666667</ele><time>2026-04-26T12:37:27.517Z</time></trkpt><trkpt lat="43.2600883" lon="13.02841"><ele>378.0</ele><time>2026-04-26T12:37:28.517Z</time></trkpt><trkpt lat="43.260045" lon="13.0286967"><ele>378.3333333333333</ele><time>2026-04-26T12:37:29.516Z</time></trkpt><trkpt lat="43.26001" lon="13.0289917"><ele>378.66666666666663</ele><time>2026-04-26T12:37:30.516Z</time></trkpt><trkpt lat="43.2599833" lon="13.029285"><ele>379.0</ele><time>2026-04-26T12:37:31.516Z</time></trkpt><trkpt lat="43.2599633" lon="13.02958"><ele>380.66666666666663</ele><time>2026-04-26T12:37:32.517Z</time></trkpt><trkpt lat="43.2599417" lon="13.02988"><ele>382.3333333333333</ele><time>2026-04-26T12:37:33.516Z</time></trkpt><trkpt lat="43.2599217" lon="13.0301833"><ele>384.0</ele><time>2026-04-26T12:37:34.516Z</time></trkpt><trkpt lat="43.2599183" lon="13.030485"><ele>384.33333333333337</ele><time>2026-04-26T12:37:35.516Z</time></trkpt><trkpt lat="43.2599133" lon="13.030785"><ele>384.6666666666667</ele><time>2026-04-26T12:37:36.516Z</time></trkpt><trkpt lat="43.2599" lon="13.0310867"><ele>385.0</ele><time>2026-04-26T12:37:37.516Z</time></trkpt><trkpt lat="43.2598867" lon="13.0313767"><ele>387.6666666666667</ele><time>2026-04-26T12:37:38.516Z</time></trkpt><trkpt lat="43.2598733" lon="13.03168"><ele>390.33333333333337</ele><time>2026-04-26T12:37:39.517Z</time></trkpt><trkpt lat="43.25987" lon="13.0319667"><ele>393.0</ele><time>2026-04-26T12:37:40.516Z</time></trkpt><trkpt lat="43.2598717" lon="13.0322467"><ele>392.66666666666663</ele><time>2026-04-26T12:37:41.516Z</time></trkpt><trkpt lat="43.2598617" lon="13.0325283"><ele>392.3333333333333</ele><time>2026-04-26T12:37:42.517Z</time></trkpt><trkpt lat="43.25986" lon="13.0328017"><ele>392.0</ele><time>2026-04-26T12:37:43.516Z</time></trkpt><trkpt lat="43.2598683" lon="13.0330883"><ele>392.3333333333333</ele><time>2026-04-26T12:37:44.516Z</time></trkpt><trkpt lat="43.259885" lon="13.0333733"><ele>392.66666666666663</ele><time>2026-04-26T12:37:45.516Z</time></trkpt><trkpt lat="43.2599067" lon="13.03364"><ele>393.0</ele><time>2026-04-26T12:37:46.516Z</time></trkpt><trkpt lat="43.25993" lon="13.0338733"><ele>393.0</ele><time>2026-04-26T12:37:47.516Z</time></trkpt><trkpt lat="43.259955" lon="13.0340983"><ele>393.0</ele><time>2026-04-26T12:37:48.516Z</time></trkpt><trkpt lat="43.2599767" lon="13.034305"><ele>393.0</ele><time>2026-04-26T12:37:49.516Z</time></trkpt><trkpt lat="43.2600067" lon="13.034495"><ele>393.25</ele><time>2026-04-26T12:37:50.516Z</time></trkpt><trkpt lat="43.2600567" lon="13.0346667"><ele>393.5</ele><time>2026-04-26T12:37:51.516Z</time></trkpt><trkpt lat="43.260125" lon="13.0348267"><ele>393.75</ele><time>2026-04-26T12:37:52.516Z</time></trkpt><trkpt lat="43.2602017" lon="13.03499"><ele>394.0</ele><time>2026-04-26T12:37:53.516Z</time></trkpt><trkpt lat="43.260295" lon="13.0351633"><ele>394.0</ele><time>2026-04-26T12:37:54.516Z</time></trkpt><trkpt lat="43.2603883" lon="13.0353517"><ele>394.0</ele><time>2026-04-26T12:37:55.516Z</time></trkpt><trkpt lat="43.2604817" lon="13.0355517"><ele>394.0</ele><time>2026-04-26T12:37:56.516Z</time></trkpt><trkpt lat="43.26057" lon="13.0357733"><ele>396.0</ele><time>2026-04-26T12:37:57.516Z</time></trkpt><trkpt lat="43.26066" lon="13.036"><ele>398.0</ele><time>2026-04-26T12:37:58.517Z</time></trkpt><trkpt lat="43.2607483" lon="13.0362217"><ele>400.0</ele><time>2026-04-26T12:37:59.516Z</time></trkpt><trkpt lat="43.2608367" lon="13.03643"><ele>400.0</ele><time>2026-04-26T12:38:00.516Z</time></trkpt><trkpt lat="43.2609333" lon="13.0366183"><ele>400.0</ele><time>2026-04-26T12:38:01.516Z</time></trkpt><trkpt lat="43.2610433" lon="13.0367917"><ele>400.0</ele><time>2026-04-26T12:38:02.516Z</time></trkpt><trkpt lat="43.2611533" lon="13.0369817"><ele>399.0</ele><time>2026-04-26T12:38:03.517Z</time></trkpt><trkpt lat="43.26125" lon="13.0371767"><ele>398.0</ele><time>2026-04-26T12:38:04.516Z</time></trkpt><trkpt lat="43.26134" lon="13.0373633"><ele>397.0</ele><time>2026-04-26T12:38:05.516Z</time></trkpt><trkpt lat="43.2614167" lon="13.0375483"><ele>399.0</ele><time>2026-04-26T12:38:06.517Z</time></trkpt><trkpt lat="43.2614733" lon="13.037745"><ele>401.0</ele><time>2026-04-26T12:38:07.517Z</time></trkpt><trkpt lat="43.2615233" lon="13.03794"><ele>403.0</ele><time>2026-04-26T12:38:08.516Z</time></trkpt><trkpt lat="43.2615683" lon="13.0381217"><ele>405.0</ele><time>2026-04-26T12:38:09.517Z</time></trkpt><trkpt lat="43.2616283" lon="13.0382983"><ele>405.0</ele><time>2026-04-26T12:38:10.516Z</time></trkpt><trkpt lat="43.261715" lon="13.0384683"><ele>405.0</ele><time>2026-04-26T12:38:11.516Z</time></trkpt><trkpt lat="43.2618117" lon="13.0386367"><ele>405.0</ele><time>2026-04-26T12:38:12.517Z</time></trkpt><trkpt lat="43.2619033" lon="13.0388283"><ele>405.0</ele><time>2026-04-26T12:38:13.516Z</time></trkpt><trkpt lat="43.2619717" lon="13.03904"><ele>405.0</ele><time>2026-04-26T12:38:14.516Z</time></trkpt><trkpt lat="43.2620317" lon="13.0392617"><ele>405.0</ele><time>2026-04-26T12:38:15.517Z</time></trkpt><trkpt lat="43.26209" lon="13.0394783"><ele>404.0</ele><time>2026-04-26T12:38:16.516Z</time></trkpt><trkpt lat="43.2621617" lon="13.0396967"><ele>403.0</ele><time>2026-04-26T12:38:17.516Z</time></trkpt><trkpt lat="43.26224" lon="13.0399017"><ele>402.0</ele><time>2026-04-26T12:38:18.516Z</time></trkpt><trkpt lat="43.26231" lon="13.0401033"><ele>407.33333333333337</ele><time>2026-04-26T12:38:19.516Z</time></trkpt><trkpt lat="43.2623683" lon="13.0403233"><ele>412.6666666666667</ele><time>2026-04-26T12:38:20.516Z</time></trkpt><trkpt lat="43.2624167" lon="13.0405417"><ele>418.0</ele><time>2026-04-26T12:38:21.516Z</time></trkpt><trkpt lat="43.2624633" lon="13.04076"><ele>418.0</ele><time>2026-04-26T12:38:22.516Z</time></trkpt><trkpt lat="43.2624967" lon="13.0409717"><ele>418.0</ele><time>2026-04-26T12:38:23.516Z</time></trkpt><trkpt lat="43.26254" lon="13.0411933"><ele>418.0</ele><time>2026-04-26T12:38:24.516Z</time></trkpt><trkpt lat="43.2625833" lon="13.0414217"><ele>417.6666666666667</ele><time>2026-04-26T12:38:25.516Z</time></trkpt><trkpt lat="43.2626167" lon="13.041635"><ele>417.33333333333337</ele><time>2026-04-26T12:38:26.517Z</time></trkpt><trkpt lat="43.26265" lon="13.0418333"><ele>417.0</ele><time>2026-04-26T12:38:27.516Z</time></trkpt><trkpt lat="43.2627067" lon="13.0420167"><ele>417.0</ele><time>2026-04-26T12:38:28.516Z</time></trkpt><trkpt lat="43.2627883" lon="13.0421817"><ele>417.0</ele><time>2026-04-26T12:38:29.516Z</time></trkpt><trkpt lat="43.2628883" lon="13.04233"><ele>417.0</ele><time>2026-04-26T12:38:30.516Z</time></trkpt><trkpt lat="43.2630167" lon="13.0424683"><ele>422.66666666666663</ele><time>2026-04-26T12:38:31.516Z</time></trkpt><trkpt lat="43.2631483" lon="13.0425867"><ele>428.3333333333333</ele><time>2026-04-26T12:38:32.516Z</time></trkpt><trkpt lat="43.263285" lon="13.04273"><ele>434.0</ele><time>2026-04-26T12:38:33.516Z</time></trkpt><trkpt lat="43.263415" lon="13.0428967"><ele>434.0</ele><time>2026-04-26T12:38:34.517Z</time></trkpt><trkpt lat="43.2635333" lon="13.0430667"><ele>434.0</ele><time>2026-04-26T12:38:35.516Z</time></trkpt><trkpt lat="43.2636467" lon="13.0432267"><ele>434.0</ele><time>2026-04-26T12:38:36.516Z</time></trkpt><trkpt lat="43.2637417" lon="13.0433883"><ele>434.3333333333333</ele><time>2026-04-26T12:38:37.516Z</time></trkpt><trkpt lat="43.2638417" lon="13.0435433"><ele>434.66666666666663</ele><time>2026-04-26T12:38:38.517Z</time></trkpt><trkpt lat="43.2639533" lon="13.0436917"><ele>435.0</ele><time>2026-04-26T12:38:39.516Z</time></trkpt><trkpt lat="43.2640867" lon="13.04383"><ele>435.0</ele><time>2026-04-26T12:38:40.516Z</time></trkpt><trkpt lat="43.2642217" lon="13.0439467"><ele>435.0</ele><time>2026-04-26T12:38:41.516Z</time></trkpt><trkpt lat="43.2643717" lon="13.044045"><ele>435.0</ele><time>2026-04-26T12:38:42.516Z</time></trkpt><trkpt lat="43.26454" lon="13.0441267"><ele>433.66666666666663</ele><time>2026-04-26T12:38:43.517Z</time></trkpt><trkpt lat="43.2647133" lon="13.0441883"><ele>432.3333333333333</ele><time>2026-04-26T12:38:44.517Z</time></trkpt><trkpt lat="43.2648867" lon="13.0442233"><ele>431.0</ele><time>2026-04-26T12:38:45.516Z</time></trkpt><trkpt lat="43.2650667" lon="13.044245"><ele>431.0</ele><time>2026-04-26T12:38:46.516Z</time></trkpt><trkpt lat="43.265255" lon="13.0442483"><ele>431.0</ele><time>2026-04-26T12:38:47.516Z</time></trkpt><trkpt lat="43.2654267" lon="13.0442633"><ele>431.0</ele><time>2026-04-26T12:38:48.516Z</time></trkpt><trkpt lat="43.265605" lon="13.0443"><ele>433.3333333333333</ele><time>2026-04-26T12:38:49.517Z</time></trkpt><trkpt lat="43.2657667" lon="13.0443583"><ele>435.66666666666663</ele><time>2026-04-26T12:38:50.516Z</time></trkpt><trkpt lat="43.2659217" lon="13.04445"><ele>438.0</ele><time>2026-04-26T12:38:51.516Z</time></trkpt><trkpt lat="43.2660667" lon="13.0445633"><ele>438.0</ele><time>2026-04-26T12:38:52.516Z</time></trkpt><trkpt lat="43.266205" lon="13.0446883"><ele>438.0</ele><time>2026-04-26T12:38:53.516Z</time></trkpt><trkpt lat="43.2663417" lon="13.0448317"><ele>438.0</ele><time>2026-04-26T12:38:54.516Z</time></trkpt><trkpt lat="43.266475" lon="13.0449917"><ele>438.33333333333337</ele><time>2026-04-26T12:38:55.516Z</time></trkpt><trkpt lat="43.266605" lon="13.0451383"><ele>438.6666666666667</ele><time>2026-04-26T12:38:56.516Z</time></trkpt><trkpt lat="43.26674" lon="13.0452767"><ele>439.0</ele><time>2026-04-26T12:38:57.516Z</time></trkpt><trkpt lat="43.266875" lon="13.0453983"><ele>439.0</ele><time>2026-04-26T12:38:58.517Z</time></trkpt><trkpt lat="43.2670017" lon="13.045495"><ele>439.0</ele><time>2026-04-26T12:38:59.516Z</time></trkpt><trkpt lat="43.267125" lon="13.04557"><ele>439.0</ele><time>2026-04-26T12:39:00.516Z</time></trkpt><trkpt lat="43.2672517" lon="13.0456333"><ele>439.0</ele><time>2026-04-26T12:39:01.516Z</time></trkpt><trkpt lat="43.2673783" lon="13.045705"><ele>440.25</ele><time>2026-04-26T12:39:02.516Z</time></trkpt><trkpt lat="43.2674983" lon="13.0457633"><ele>441.5</ele><time>2026-04-26T12:39:03.516Z</time></trkpt><trkpt lat="43.2676183" lon="13.04582"><ele>442.75</ele><time>2026-04-26T12:39:04.516Z</time></trkpt><trkpt lat="43.2677367" lon="13.0458767"><ele>444.0</ele><time>2026-04-26T12:39:05.517Z</time></trkpt><trkpt lat="43.2678517" lon="13.0459317"><ele>444.0</ele><time>2026-04-26T12:39:06.516Z</time></trkpt><trkpt lat="43.267955" lon="13.0459833"><ele>444.0</ele><time>2026-04-26T12:39:07.517Z</time></trkpt><trkpt lat="43.2680517" lon="13.0460467"><ele>444.0</ele><time>2026-04-26T12:39:08.516Z</time></trkpt><trkpt lat="43.2681417" lon="13.046105"><ele>444.0</ele><time>2026-04-26T12:39:09.516Z</time></trkpt><trkpt lat="43.2682233" lon="13.0461633"><ele>444.0</ele><time>2026-04-26T12:39:10.516Z</time></trkpt><trkpt lat="43.2683033" lon="13.0462183"><ele>446.6666666666667</ele><time>2026-04-26T12:39:11.516Z</time></trkpt><trkpt lat="43.2683933" lon="13.0462833"><ele>449.33333333333337</ele><time>2026-04-26T12:39:12.517Z</time></trkpt><trkpt lat="43.2684783" lon="13.0463433"><ele>452.0</ele><time>2026-04-26T12:39:13.517Z</time></trkpt><trkpt lat="43.26855" lon="13.0464033"><ele>454.6666666666667</ele><time>2026-04-26T12:39:14.516Z</time></trkpt><trkpt lat="43.26861" lon="13.046475"><ele>457.33333333333337</ele><time>2026-04-26T12:39:15.516Z</time></trkpt><trkpt lat="43.2686617" lon="13.046545"><ele>460.0</ele><time>2026-04-26T12:39:16.516Z</time></trkpt><trkpt lat="43.2687083" lon="13.04661"><ele>462.25</ele><time>2026-04-26T12:39:17.516Z</time></trkpt><trkpt lat="43.268775" lon="13.0467433"><ele>464.5</ele><time>2026-04-26T12:39:19.516Z</time></trkpt><trkpt lat="43.268845" lon="13.0468533"><ele>466.75</ele><time>2026-04-26T12:39:21.516Z</time></trkpt><trkpt lat="43.26893" lon="13.04699"><ele>469.0</ele><time>2026-04-26T12:40:23.517Z</time></trkpt><trkpt lat="43.2690283" lon="13.0470883"><ele>469.00000000000006</ele><time>2026-04-26T12:40:25.517Z</time></trkpt><trkpt lat="43.2690917" lon="13.0471667"><ele>469.0</ele><time>2026-04-26T12:40:26.516Z</time></trkpt><trkpt lat="43.2691533" lon="13.0472417"><ele>469.0</ele><time>2026-04-26T12:40:27.517Z</time></trkpt><trkpt lat="43.2692067" lon="13.0473033"><ele>469.0</ele><time>2026-04-26T12:40:28.516Z</time></trkpt><trkpt lat="43.2692583" lon="13.047375"><ele>469.00000000000006</ele><time>2026-04-26T12:40:29.516Z</time></trkpt><trkpt lat="43.2693183" lon="13.0474533"><ele>469.0</ele><time>2026-04-26T12:40:30.516Z</time></trkpt><trkpt lat="43.2693783" lon="13.0475467"><ele>467.0</ele><time>2026-04-26T12:40:31.516Z</time></trkpt><trkpt lat="43.26943" lon="13.04764"><ele>465.0</ele><time>2026-04-26T12:40:32.516Z</time></trkpt><trkpt lat="43.2694767" lon="13.0477317"><ele>463.0</ele><time>2026-04-26T12:40:33.516Z</time></trkpt><trkpt lat="43.2695283" lon="13.0478017"><ele>461.0</ele><time>2026-04-26T12:40:34.516Z</time></trkpt><trkpt lat="43.2695783" lon="13.047865"><ele>459.0</ele><time>2026-04-26T12:40:35.516Z</time></trkpt><trkpt lat="43.2696283" lon="13.04793"><ele>457.0</ele><time>2026-04-26T12:40:36.516Z</time></trkpt><trkpt lat="43.2696683" lon="13.0480033"><ele>455.0</ele><time>2026-04-26T12:40:37.516Z</time></trkpt><trkpt lat="43.26971" lon="13.0480783"><ele>454.99999999999994</ele><time>2026-04-26T12:40:38.516Z</time></trkpt><trkpt lat="43.2697383" lon="13.0481667"><ele>455.0</ele><time>2026-04-26T12:40:39.517Z</time></trkpt><trkpt lat="43.2697783" lon="13.048285"><ele>455.0</ele><time>2026-04-26T12:40:40.516Z</time></trkpt><trkpt lat="43.269815" lon="13.0484017"><ele>455.0</ele><time>2026-04-26T12:40:41.516Z</time></trkpt><trkpt lat="43.2698517" lon="13.048525"><ele>454.99999999999994</ele><time>2026-04-26T12:40:42.516Z</time></trkpt><trkpt lat="43.2698967" lon="13.0486367"><ele>455.0</ele><time>2026-04-26T12:40:43.516Z</time></trkpt><trkpt lat="43.26993" lon="13.048735"><ele>454.8571428571429</ele><time>2026-04-26T12:40:44.516Z</time></trkpt><trkpt lat="43.26996" lon="13.0488167"><ele>454.7142857142857</ele><time>2026-04-26T12:40:45.516Z</time></trkpt><trkpt lat="43.269995" lon="13.04891"><ele>454.57142857142856</ele><time>2026-04-26T12:40:46.516Z</time></trkpt><trkpt lat="43.270025" lon="13.048995"><ele>454.42857142857144</ele><time>2026-04-26T12:40:47.516Z</time></trkpt><trkpt lat="43.2700567" lon="13.049095"><ele>454.28571428571433</ele><time>2026-04-26T12:40:48.516Z</time></trkpt><trkpt lat="43.27009" lon="13.0491833"><ele>454.14285714285717</ele><time>2026-04-26T12:40:49.516Z</time></trkpt><trkpt lat="43.2701133" lon="13.04927"><ele>454.0</ele><time>2026-04-26T12:40:50.516Z</time></trkpt><trkpt lat="43.27014" lon="13.049425"><ele>452.6</ele><time>2026-04-26T12:40:52.516Z</time></trkpt><trkpt lat="43.2701567" lon="13.0495917"><ele>451.2</ele><time>2026-04-26T12:40:54.516Z</time></trkpt><trkpt lat="43.27013" lon="13.0497"><ele>449.80000000000007</ele><time>2026-04-26T12:40:55.517Z</time></trkpt><trkpt lat="43.2700933" lon="13.0498333"><ele>448.40000000000003</ele><time>2026-04-26T12:40:56.516Z</time></trkpt><trkpt lat="43.270065" lon="13.0499667"><ele>447.0</ele><time>2026-04-26T12:40:57.516Z</time></trkpt><trkpt lat="43.27006" lon="13.0500883"><ele>446.5</ele><time>2026-04-26T12:40:58.516Z</time></trkpt><trkpt lat="43.27007" lon="13.0502033"><ele>446.0</ele><time>2026-04-26T12:40:59.516Z</time></trkpt><trkpt lat="43.2700883" lon="13.0503067"><ele>445.5</ele><time>2026-04-26T12:41:00.516Z</time></trkpt><trkpt lat="43.2701083" lon="13.0503983"><ele>445.0</ele><time>2026-04-26T12:41:01.516Z</time></trkpt><trkpt lat="43.270145" lon="13.0504917"><ele>444.5</ele><time>2026-04-26T12:41:02.516Z</time></trkpt><trkpt lat="43.270195" lon="13.050575"><ele>444.0</ele><time>2026-04-26T12:41:03.516Z</time></trkpt><trkpt lat="43.270265" lon="13.05065"><ele>444.0</ele><time>2026-04-26T12:41:04.516Z</time></trkpt><trkpt lat="43.2703517" lon="13.0507283"><ele>444.0</ele><time>2026-04-26T12:41:05.516Z</time></trkpt><trkpt lat="43.270445" lon="13.0507983"><ele>444.0</ele><time>2026-04-26T12:41:06.517Z</time></trkpt><trkpt lat="43.27056" lon="13.05085"><ele>444.0</ele><time>2026-04-26T12:41:07.517Z</time></trkpt><trkpt lat="43.27067" lon="13.0509067"><ele>444.0</ele><time>2026-04-26T12:41:08.517Z</time></trkpt><trkpt lat="43.2707817" lon="13.0509433"><ele>445.0</ele><time>2026-04-26T12:41:09.516Z</time></trkpt><trkpt lat="43.2709033" lon="13.0509767"><ele>446.0</ele><time>2026-04-26T12:41:10.516Z</time></trkpt><trkpt lat="43.2710283" lon="13.051015"><ele>447.0</ele><time>2026-04-26T12:41:11.516Z</time></trkpt><trkpt lat="43.271155" lon="13.05107"><ele>448.0</ele><time>2026-04-26T12:41:12.516Z</time></trkpt><trkpt lat="43.2712767" lon="13.05112"><ele>448.0</ele><time>2026-04-26T12:41:13.516Z</time></trkpt><trkpt lat="43.2713917" lon="13.05117"><ele>447.99999999999994</ele><time>2026-04-26T12:41:14.516Z</time></trkpt><trkpt lat="43.2714883" lon="13.0512017"><ele>447.99999999999994</ele><time>2026-04-26T12:41:15.516Z</time></trkpt><trkpt lat="43.2715833" lon="13.051235"><ele>448.0</ele><time>2026-04-26T12:41:16.516Z</time></trkpt><trkpt lat="43.2716683" lon="13.051265"><ele>448.0</ele><time>2026-04-26T12:41:17.517Z</time></trkpt><trkpt lat="43.2717433" lon="13.051295"><ele>448.79999999999995</ele><time>2026-04-26T12:41:18.516Z</time></trkpt><trkpt lat="43.27183" lon="13.0513217"><ele>449.59999999999997</ele><time>2026-04-26T12:41:19.517Z</time></trkpt><trkpt lat="43.271915" lon="13.0513767"><ele>450.40000000000003</ele><time>2026-04-26T12:41:20.516Z</time></trkpt><trkpt lat="43.2719983" lon="13.0514417"><ele>451.20000000000005</ele><time>2026-04-26T12:41:21.516Z</time></trkpt><trkpt lat="43.27209" lon="13.0515117"><ele>452.0</ele><time>2026-04-26T12:41:22.517Z</time></trkpt><trkpt lat="43.272175" lon="13.051605"><ele>452.6</ele><time>2026-04-26T12:41:23.517Z</time></trkpt><trkpt lat="43.27227" lon="13.0517083"><ele>453.20000000000005</ele><time>2026-04-26T12:41:24.516Z</time></trkpt><trkpt lat="43.27236" lon="13.0517967"><ele>453.8</ele><time>2026-04-26T12:41:25.516Z</time></trkpt><trkpt lat="43.27245" lon="13.0518717"><ele>454.4</ele><time>2026-04-26T12:41:26.517Z</time></trkpt><trkpt lat="43.2725417" lon="13.051925"><ele>455.0</ele><time>2026-04-26T12:41:27.516Z</time></trkpt><trkpt lat="43.272635" lon="13.0519533"><ele>454.99999999999994</ele><time>2026-04-26T12:41:28.516Z</time></trkpt><trkpt lat="43.2727333" lon="13.0519567"><ele>455.0</ele><time>2026-04-26T12:41:29.516Z</time></trkpt><trkpt lat="43.27282" lon="13.0519667"><ele>455.0</ele><time>2026-04-26T12:41:30.517Z</time></trkpt><trkpt lat="43.27291" lon="13.0519983"><ele>455.0</ele><time>2026-04-26T12:41:31.516Z</time></trkpt><trkpt lat="43.27299" lon="13.0520417"><ele>454.99999999999994</ele><time>2026-04-26T12:41:32.516Z</time></trkpt><trkpt lat="43.2730533" lon="13.0520933"><ele>455.0</ele><time>2026-04-26T12:41:33.516Z</time></trkpt><trkpt lat="43.273125" lon="13.05218"><ele>455.5</ele><time>2026-04-26T12:41:34.516Z</time></trkpt><trkpt lat="43.2732167" lon="13.0522717"><ele>456.0</ele><time>2026-04-26T12:41:35.516Z</time></trkpt><trkpt lat="43.2733183" lon="13.052355"><ele>456.5</ele><time>2026-04-26T12:41:36.516Z</time></trkpt><trkpt lat="43.27343" lon="13.0524333"><ele>457.0</ele><time>2026-04-26T12:41:37.516Z</time></trkpt><trkpt lat="43.2735433" lon="13.052515"><ele>458.5</ele><time>2026-04-26T12:41:38.516Z</time></trkpt><trkpt lat="43.2736517" lon="13.0525967"><ele>460.0</ele><time>2026-04-26T12:41:39.516Z</time></trkpt><trkpt lat="43.2737633" lon="13.0526683"><ele>461.5</ele><time>2026-04-26T12:41:40.516Z</time></trkpt><trkpt lat="43.2738583" lon="13.0527383"><ele>463.0</ele><time>2026-04-26T12:41:41.516Z</time></trkpt><trkpt lat="43.2739367" lon="13.052815"><ele>462.4</ele><time>2026-04-26T12:41:42.516Z</time></trkpt><trkpt lat="43.2740067" lon="13.052905"><ele>461.79999999999995</ele><time>2026-04-26T12:41:43.517Z</time></trkpt><trkpt lat="43.274075" lon="13.0530217"><ele>461.2</ele><time>2026-04-26T12:41:44.516Z</time></trkpt><trkpt lat="43.2741417" lon="13.0531467"><ele>460.6</ele><time>2026-04-26T12:41:45.516Z</time></trkpt><trkpt lat="43.2742067" lon="13.05326"><ele>460.0</ele><time>2026-04-26T12:41:46.515Z</time></trkpt><trkpt lat="43.27427" lon="13.05336"><ele>462.6</ele><time>2026-04-26T12:41:47.515Z</time></trkpt><trkpt lat="43.274335" lon="13.0534633"><ele>465.2</ele><time>2026-04-26T12:41:48.515Z</time></trkpt><trkpt lat="43.2744067" lon="13.0535633"><ele>467.79999999999995</ele><time>2026-04-26T12:41:49.515Z</time></trkpt><trkpt lat="43.2744917" lon="13.0536683"><ele>470.4</ele><time>2026-04-26T12:41:50.516Z</time></trkpt><trkpt lat="43.2745833" lon="13.05376"><ele>473.0</ele><time>2026-04-26T12:41:51.515Z</time></trkpt><trkpt lat="43.274685" lon="13.0538467"><ele>471.75</ele><time>2026-04-26T12:41:52.515Z</time></trkpt><trkpt lat="43.2747917" lon="13.0539317"><ele>470.5</ele><time>2026-04-26T12:41:53.516Z</time></trkpt><trkpt lat="43.274905" lon="13.0540183"><ele>469.25</ele><time>2026-04-26T12:41:54.515Z</time></trkpt><trkpt lat="43.2750167" lon="13.0540967"><ele>468.0</ele><time>2026-04-26T12:41:55.515Z</time></trkpt><trkpt lat="43.2751283" lon="13.0541833"><ele>471.5</ele><time>2026-04-26T12:41:56.515Z</time></trkpt><trkpt lat="43.2752367" lon="13.0542667"><ele>475.0</ele><time>2026-04-26T12:41:57.516Z</time></trkpt><trkpt lat="43.27534" lon="13.0543467"><ele>478.5</ele><time>2026-04-26T12:41:58.515Z</time></trkpt><trkpt lat="43.275435" lon="13.05444"><ele>482.0</ele><time>2026-04-26T12:41:59.515Z</time></trkpt><trkpt lat="43.2755183" lon="13.0545333"><ele>482.0</ele><time>2026-04-26T12:42:00.516Z</time></trkpt><trkpt lat="43.2755983" lon="13.0546267"><ele>482.00000000000006</ele><time>2026-04-26T12:42:01.515Z</time></trkpt><trkpt lat="43.2756783" lon="13.054705"><ele>482.00000000000006</ele><time>2026-04-26T12:42:02.515Z</time></trkpt><trkpt lat="43.2757583" lon="13.0547683"><ele>482.0</ele><time>2026-04-26T12:42:03.515Z</time></trkpt><trkpt lat="43.2758367" lon="13.0548"><ele>482.0</ele><time>2026-04-26T12:42:04.516Z</time></trkpt><trkpt lat="43.2759083" lon="13.05482"><ele>482.42857142857144</ele><time>2026-04-26T12:42:05.515Z</time></trkpt><trkpt lat="43.27598" lon="13.054855"><ele>482.8571428571429</ele><time>2026-04-26T12:42:06.515Z</time></trkpt><trkpt lat="43.2760517" lon="13.054895"><ele>483.28571428571433</ele><time>2026-04-26T12:42:07.515Z</time></trkpt><trkpt lat="43.2761167" lon="13.0549433"><ele>483.7142857142858</ele><time>2026-04-26T12:42:08.515Z</time></trkpt><trkpt lat="43.2761717" lon="13.055"><ele>484.14285714285717</ele><time>2026-04-26T12:42:09.515Z</time></trkpt><trkpt lat="43.27621" lon="13.0550717"><ele>484.57142857142867</ele><time>2026-04-26T12:42:10.515Z</time></trkpt><trkpt lat="43.2762433" lon="13.05515"><ele>485.00000000000006</ele><time>2026-04-26T12:42:11.515Z</time></trkpt><trkpt lat="43.2762733" lon="13.0552417"><ele>484.99999999999994</ele><time>2026-04-26T12:42:12.515Z</time></trkpt><trkpt lat="43.2763033" lon="13.055335"><ele>485.0</ele><time>2026-04-26T12:42:13.515Z</time></trkpt><trkpt lat="43.2763333" lon="13.0554317"><ele>485.0</ele><time>2026-04-26T12:42:14.516Z</time></trkpt><trkpt lat="43.2763733" lon="13.0555367"><ele>485.0</ele><time>2026-04-26T12:42:15.515Z</time></trkpt><trkpt lat="43.2764183" lon="13.0556517"><ele>484.99999999999994</ele><time>2026-04-26T12:42:16.515Z</time></trkpt><trkpt lat="43.2764617" lon="13.055765"><ele>485.0</ele><time>2026-04-26T12:42:17.516Z</time></trkpt><trkpt lat="43.2765117" lon="13.0558833"><ele>484.4</ele><time>2026-04-26T12:42:18.516Z</time></trkpt><trkpt lat="43.2765617" lon="13.056"><ele>483.8</ele><time>2026-04-26T12:42:19.515Z</time></trkpt><trkpt lat="43.2766133" lon="13.0561133"><ele>483.20000000000005</ele><time>2026-04-26T12:42:20.516Z</time></trkpt><trkpt lat="43.27667" lon="13.0562133"><ele>482.6</ele><time>2026-04-26T12:42:21.516Z</time></trkpt><trkpt lat="43.2767383" lon="13.0562967"><ele>482.0</ele><time>2026-04-26T12:42:22.515Z</time></trkpt><trkpt lat="43.2768233" lon="13.05638"><ele>482.0</ele><time>2026-04-26T12:42:23.515Z</time></trkpt><trkpt lat="43.2769267" lon="13.0564617"><ele>482.0</ele><time>2026-04-26T12:42:24.515Z</time></trkpt><trkpt lat="43.2770367" lon="13.0565317"><ele>482.0</ele><time>2026-04-26T12:42:25.516Z</time></trkpt><trkpt lat="43.2771417" lon="13.056605"><ele>482.0</ele><time>2026-04-26T12:42:26.515Z</time></trkpt><trkpt lat="43.2772333" lon="13.0566683"><ele>482.20000000000005</ele><time>2026-04-26T12:42:27.515Z</time></trkpt><trkpt lat="43.2773233" lon="13.0567583"><ele>482.40000000000003</ele><time>2026-04-26T12:42:28.515Z</time></trkpt><trkpt lat="43.2773983" lon="13.0568467"><ele>482.59999999999997</ele><time>2026-04-26T12:42:29.515Z</time></trkpt><trkpt lat="43.2774667" lon="13.05696"><ele>482.79999999999995</ele><time>2026-04-26T12:42:30.515Z</time></trkpt><trkpt lat="43.27753" lon="13.05707"><ele>483.0</ele><time>2026-04-26T12:42:31.515Z</time></trkpt><trkpt lat="43.2776017" lon="13.057155"><ele>483.0</ele><time>2026-04-26T12:42:32.515Z</time></trkpt><trkpt lat="43.27768" lon="13.0572167"><ele>483.0</ele><time>2026-04-26T12:42:33.515Z</time></trkpt><trkpt lat="43.2777517" lon="13.0572767"><ele>483.0</ele><time>2026-04-26T12:42:34.515Z</time></trkpt><trkpt lat="43.277805" lon="13.05735"><ele>483.0</ele><time>2026-04-26T12:42:35.516Z</time></trkpt><trkpt lat="43.27786" lon="13.0574333"><ele>483.0</ele><time>2026-04-26T12:42:36.515Z</time></trkpt><trkpt lat="43.27792" lon="13.057525"><ele>483.0</ele><time>2026-04-26T12:42:37.515Z</time></trkpt><trkpt lat="43.2779817" lon="13.0576267"><ele>483.79999999999995</ele><time>2026-04-26T12:42:38.515Z</time></trkpt><trkpt lat="43.2780433" lon="13.057735"><ele>484.59999999999997</ele><time>2026-04-26T12:42:39.516Z</time></trkpt><trkpt lat="43.2780983" lon="13.05786"><ele>485.40000000000003</ele><time>2026-04-26T12:42:40.516Z</time></trkpt><trkpt lat="43.278145" lon="13.0579833"><ele>486.20000000000005</ele><time>2026-04-26T12:42:41.515Z</time></trkpt><trkpt lat="43.27819" lon="13.0581017"><ele>487.0</ele><time>2026-04-26T12:42:42.515Z</time></trkpt><trkpt lat="43.2782367" lon="13.058225"><ele>488.00000000000006</ele><time>2026-04-26T12:42:43.515Z</time></trkpt><trkpt lat="43.278285" lon="13.0583417"><ele>489.0</ele><time>2026-04-26T12:42:44.515Z</time></trkpt><trkpt lat="43.2783317" lon="13.0584533"><ele>490.0</ele><time>2026-04-26T12:42:45.515Z</time></trkpt><trkpt lat="43.2783667" lon="13.0585467"><ele>491.0</ele><time>2026-04-26T12:42:46.515Z</time></trkpt><trkpt lat="43.2783983" lon="13.05865"><ele>492.00000000000006</ele><time>2026-04-26T12:42:47.515Z</time></trkpt><trkpt lat="43.2784217" lon="13.0587533"><ele>493.0</ele><time>2026-04-26T12:42:48.515Z</time></trkpt><trkpt lat="43.27843" lon="13.0588683"><ele>493.0</ele><time>2026-04-26T12:42:49.515Z</time></trkpt><trkpt lat="43.2784233" lon="13.0589733"><ele>492.99999999999994</ele><time>2026-04-26T12:42:50.515Z</time></trkpt><trkpt lat="43.278405" lon="13.0590983"><ele>492.99999999999994</ele><time>2026-04-26T12:42:51.516Z</time></trkpt><trkpt lat="43.2783883" lon="13.0592217"><ele>493.0</ele><time>2026-04-26T12:42:52.516Z</time></trkpt><trkpt lat="43.2783883" lon="13.0593667"><ele>493.0</ele><time>2026-04-26T12:42:53.516Z</time></trkpt><trkpt lat="43.2783967" lon="13.0595017"><ele>494.0</ele><time>2026-04-26T12:42:54.515Z</time></trkpt><trkpt lat="43.2783933" lon="13.05963"><ele>494.99999999999994</ele><time>2026-04-26T12:42:55.516Z</time></trkpt><trkpt lat="43.2783767" lon="13.059745"><ele>495.99999999999994</ele><time>2026-04-26T12:42:56.515Z</time></trkpt><trkpt lat="43.2783517" lon="13.0598583"><ele>497.0</ele><time>2026-04-26T12:42:57.515Z</time></trkpt><trkpt lat="43.2783233" lon="13.0599917"><ele>498.0</ele><time>2026-04-26T12:42:58.515Z</time></trkpt><trkpt lat="43.2782933" lon="13.06013"><ele>498.25</ele><time>2026-04-26T12:42:59.515Z</time></trkpt><trkpt lat="43.278265" lon="13.06028"><ele>498.5</ele><time>2026-04-26T12:43:00.515Z</time></trkpt><trkpt lat="43.2782267" lon="13.0604483"><ele>498.75</ele><time>2026-04-26T12:43:01.515Z</time></trkpt><trkpt lat="43.2781867" lon="13.0606167"><ele>499.0</ele><time>2026-04-26T12:43:02.515Z</time></trkpt><trkpt lat="43.2781483" lon="13.06077"><ele>502.25</ele><time>2026-04-26T12:43:03.515Z</time></trkpt><trkpt lat="43.2781083" lon="13.060925"><ele>505.5</ele><time>2026-04-26T12:43:04.516Z</time></trkpt><trkpt lat="43.278065" lon="13.0610833"><ele>508.75</ele><time>2026-04-26T12:43:05.516Z</time></trkpt><trkpt lat="43.278035" lon="13.0612333"><ele>512.0</ele><time>2026-04-26T12:43:06.516Z</time></trkpt><trkpt lat="43.2779933" lon="13.0613833"><ele>512.0</ele><time>2026-04-26T12:43:07.515Z</time></trkpt><trkpt lat="43.27795" lon="13.061525"><ele>512.0</ele><time>2026-04-26T12:43:08.515Z</time></trkpt><trkpt lat="43.2778933" lon="13.0616567"><ele>512.0</ele><time>2026-04-26T12:43:09.515Z</time></trkpt><trkpt lat="43.27783" lon="13.061785"><ele>512.0</ele><time>2026-04-26T12:43:10.516Z</time></trkpt><trkpt lat="43.2777667" lon="13.06193"><ele>512.0</ele><time>2026-04-26T12:43:11.516Z</time></trkpt><trkpt lat="43.2776967" lon="13.0620667"><ele>512.0</ele><time>2026-04-26T12:43:12.516Z</time></trkpt><trkpt lat="43.2776283" lon="13.0622017"><ele>512.0</ele><time>2026-04-26T12:43:13.516Z</time></trkpt><trkpt lat="43.2775667" lon="13.062325"><ele>512.0</ele><time>2026-04-26T12:43:14.516Z</time></trkpt><trkpt lat="43.277515" lon="13.06244"><ele>512.0</ele><time>2026-04-26T12:43:15.515Z</time></trkpt><trkpt lat="43.2774633" lon="13.06255"><ele>514.2</ele><time>2026-04-26T12:43:16.515Z</time></trkpt><trkpt lat="43.2774233" lon="13.0626717"><ele>516.4000000000001</ele><time>2026-04-26T12:43:17.515Z</time></trkpt><trkpt lat="43.2773883" lon="13.0628117"><ele>518.5999999999999</ele><time>2026-04-26T12:43:18.515Z</time></trkpt><trkpt lat="43.2773567" lon="13.0629583"><ele>520.8</ele><time>2026-04-26T12:43:19.515Z</time></trkpt><trkpt lat="43.2773217" lon="13.063105"><ele>523.0</ele><time>2026-04-26T12:43:20.515Z</time></trkpt><trkpt lat="43.2772883" lon="13.0632567"><ele>522.0</ele><time>2026-04-26T12:43:21.516Z</time></trkpt><trkpt lat="43.2772533" lon="13.063405"><ele>521.0</ele><time>2026-04-26T12:43:22.515Z</time></trkpt><trkpt lat="43.2772067" lon="13.0635683"><ele>520.0</ele><time>2026-04-26T12:43:23.515Z</time></trkpt><trkpt lat="43.277155" lon="13.0637183"><ele>519.0</ele><time>2026-04-26T12:43:24.515Z</time></trkpt><trkpt lat="43.2771133" lon="13.0638683"><ele>519.0</ele><time>2026-04-26T12:43:25.515Z</time></trkpt><trkpt lat="43.277065" lon="13.0640133"><ele>519.0</ele><time>2026-04-26T12:43:26.515Z</time></trkpt><trkpt lat="43.277005" lon="13.0641533"><ele>519.0</ele><time>2026-04-26T12:43:27.515Z</time></trkpt><trkpt lat="43.2769367" lon="13.0642883"><ele>519.0</ele><time>2026-04-26T12:43:28.515Z</time></trkpt><trkpt lat="43.276865" lon="13.064435"><ele>521.25</ele><time>2026-04-26T12:43:29.516Z</time></trkpt><trkpt lat="43.2767817" lon="13.0645817"><ele>523.5</ele><time>2026-04-26T12:43:30.515Z</time></trkpt><trkpt lat="43.2767017" lon="13.0647283"><ele>525.75</ele><time>2026-04-26T12:43:31.515Z</time></trkpt><trkpt lat="43.2766133" lon="13.06488"><ele>528.0</ele><time>2026-04-26T12:43:32.515Z</time></trkpt><trkpt lat="43.2765317" lon="13.06504"><ele>528.0</ele><time>2026-04-26T12:43:33.516Z</time></trkpt><trkpt lat="43.2764533" lon="13.0652067"><ele>528.0</ele><time>2026-04-26T12:43:34.515Z</time></trkpt><trkpt lat="43.2763717" lon="13.0653683"><ele>528.0</ele><time>2026-04-26T12:43:35.515Z</time></trkpt><trkpt lat="43.2762917" lon="13.06552"><ele>528.0</ele><time>2026-04-26T12:43:36.515Z</time></trkpt><trkpt lat="43.2762033" lon="13.0656733"><ele>532.25</ele><time>2026-04-26T12:43:37.516Z</time></trkpt><trkpt lat="43.2761183" lon="13.065815"><ele>536.5</ele><time>2026-04-26T12:43:38.515Z</time></trkpt><trkpt lat="43.2760333" lon="13.0659533"><ele>540.75</ele><time>2026-04-26T12:43:39.515Z</time></trkpt><trkpt lat="43.2759417" lon="13.0660883"><ele>545.0</ele><time>2026-04-26T12:43:40.515Z</time></trkpt><trkpt lat="43.2758533" lon="13.0662233"><ele>545.0</ele><time>2026-04-26T12:43:41.515Z</time></trkpt><trkpt lat="43.2757683" lon="13.0663467"><ele>545.0</ele><time>2026-04-26T12:43:42.515Z</time></trkpt><trkpt lat="43.2756967" lon="13.0664433"><ele>545.0</ele><time>2026-04-26T12:43:43.516Z</time></trkpt><trkpt lat="43.27563" lon="13.0665233"><ele>545.0</ele><time>2026-04-26T12:43:44.515Z</time></trkpt><trkpt lat="43.27556" lon="13.0665833"><ele>545.0</ele><time>2026-04-26T12:43:45.515Z</time></trkpt><trkpt lat="43.275485" lon="13.0666417"><ele>546.0</ele><time>2026-04-26T12:43:46.515Z</time></trkpt><trkpt lat="43.2754133" lon="13.0666817"><ele>547.0</ele><time>2026-04-26T12:43:47.515Z</time></trkpt><trkpt lat="43.27535" lon="13.066705"><ele>548.0</ele><time>2026-04-26T12:43:48.516Z</time></trkpt><trkpt lat="43.27529" lon="13.066765"><ele>549.0</ele><time>2026-04-26T12:43:50.515Z</time></trkpt><trkpt lat="43.2753167" lon="13.06685"><ele>550.0</ele><time>2026-04-26T12:43:52.515Z</time></trkpt><trkpt lat="43.2754517" lon="13.0668317"><ele>551.0</ele><time>2026-04-26T12:43:54.516Z</time></trkpt><trkpt lat="43.2755517" lon="13.0667883"><ele>549.0</ele><time>2026-04-26T12:43:55.515Z</time></trkpt><trkpt lat="43.2756833" lon="13.0667333"><ele>547.0</ele><time>2026-04-26T12:43:56.515Z</time></trkpt><trkpt lat="43.2758233" lon="13.06666"><ele>545.0</ele><time>2026-04-26T12:43:57.515Z</time></trkpt><trkpt lat="43.2759833" lon="13.0665833"><ele>545.0</ele><time>2026-04-26T12:43:58.515Z</time></trkpt><trkpt lat="43.276145" lon="13.0664917"><ele>545.0</ele><time>2026-04-26T12:43:59.515Z</time></trkpt><trkpt lat="43.276315" lon="13.0663633"><ele>545.0</ele><time>2026-04-26T12:44:00.515Z</time></trkpt><trkpt lat="43.2764783" lon="13.0662217"><ele>554.0</ele><time>2026-04-26T12:44:01.515Z</time></trkpt><trkpt lat="43.2766183" lon="13.06608"><ele>563.0</ele><time>2026-04-26T12:44:02.515Z</time></trkpt><trkpt lat="43.2767433" lon="13.0659517"><ele>572.0</ele><time>2026-04-26T12:44:03.516Z</time></trkpt><trkpt lat="43.2768633" lon="13.0658367"><ele>575.75</ele><time>2026-04-26T12:44:04.515Z</time></trkpt><trkpt lat="43.2769767" lon="13.06572"><ele>579.5</ele><time>2026-04-26T12:44:05.515Z</time></trkpt><trkpt lat="43.277085" lon="13.065575"><ele>583.25</ele><time>2026-04-26T12:44:06.516Z</time></trkpt><trkpt lat="43.2771883" lon="13.0654283"><ele>587.0</ele><time>2026-04-26T12:44:07.516Z</time></trkpt><trkpt lat="43.277295" lon="13.0652883"><ele>587.0</ele><time>2026-04-26T12:44:08.515Z</time></trkpt><trkpt lat="43.2774067" lon="13.0651367"><ele>587.0</ele><time>2026-04-26T12:44:09.516Z</time></trkpt><trkpt lat="43.2775183" lon="13.0649817"><ele>587.0</ele><time>2026-04-26T12:44:10.515Z</time></trkpt><trkpt lat="43.2776283" lon="13.0648283"><ele>579.3333333333333</ele><time>2026-04-26T12:44:11.515Z</time></trkpt><trkpt lat="43.277735" lon="13.064655"><ele>571.6666666666666</ele><time>2026-04-26T12:44:12.515Z</time></trkpt><trkpt lat="43.2778333" lon="13.0644817"><ele>564.0</ele><time>2026-04-26T12:44:13.515Z</time></trkpt><trkpt lat="43.2779183" lon="13.064295"><ele>564.0</ele><time>2026-04-26T12:44:14.515Z</time></trkpt><trkpt lat="43.2779917" lon="13.064125"><ele>564.0</ele><time>2026-04-26T12:44:15.516Z</time></trkpt><trkpt lat="43.278065" lon="13.0639867"><ele>564.0</ele><time>2026-04-26T12:44:16.515Z</time></trkpt><trkpt lat="43.2781383" lon="13.06385"><ele>564.0</ele><time>2026-04-26T12:44:17.515Z</time></trkpt><trkpt lat="43.2782183" lon="13.06371"><ele>564.0</ele><time>2026-04-26T12:44:18.515Z</time></trkpt><trkpt lat="43.2783083" lon="13.0635883"><ele>564.0</ele><time>2026-04-26T12:44:19.515Z</time></trkpt><trkpt lat="43.2784083" lon="13.0634733"><ele>564.0</ele><time>2026-04-26T12:44:20.515Z</time></trkpt><trkpt lat="43.2785067" lon="13.063345"><ele>564.0</ele><time>2026-04-26T12:44:21.515Z</time></trkpt><trkpt lat="43.2786183" lon="13.0632117"><ele>564.0</ele><time>2026-04-26T12:44:22.515Z</time></trkpt><trkpt lat="43.2787217" lon="13.0630817"><ele>564.0</ele><time>2026-04-26T12:44:23.515Z</time></trkpt><trkpt lat="43.2788183" lon="13.0629617"><ele>564.0</ele><time>2026-04-26T12:44:24.515Z</time></trkpt><trkpt lat="43.2788967" lon="13.0628533"><ele>564.0</ele><time>2026-04-26T12:44:25.515Z</time></trkpt><trkpt lat="43.2789717" lon="13.0627667"><ele>570.2</ele><time>2026-04-26T12:44:26.515Z</time></trkpt><trkpt lat="43.2790317" lon="13.0626967"><ele>576.4</ele><time>2026-04-26T12:44:27.515Z</time></trkpt><trkpt lat="43.2791117" lon="13.0626117"><ele>582.6</ele><time>2026-04-26T12:44:29.515Z</time></trkpt><trkpt lat="43.2791867" lon="13.0626283"><ele>588.8</ele><time>2026-04-26T12:44:31.515Z</time></trkpt><trkpt lat="43.279265" lon="13.0627617"><ele>595.0</ele><time>2026-04-26T12:44:33.515Z</time></trkpt><trkpt lat="43.2793072" lon="13.0628634"><ele>595.0</ele><time>2026-04-26T12:44:34.515Z</time></trkpt><trkpt lat="43.2793668" lon="13.0629988"><ele>595.0</ele><time>2026-04-26T12:44:35.515Z</time></trkpt><trkpt lat="43.2794529" lon="13.063171"><ele>595.0</ele><time>2026-04-26T12:44:36.515Z</time></trkpt><trkpt lat="43.279553" lon="13.063351"><ele>595.0</ele><time>2026-04-26T12:44:37.515Z</time></trkpt><trkpt lat="43.2796427" lon="13.0635154"><ele>595.75</ele><time>2026-04-26T12:44:38.515Z</time></trkpt><trkpt lat="43.2797179" lon="13.0636699"><ele>596.5</ele><time>2026-04-26T12:44:39.515Z</time></trkpt><trkpt lat="43.2797989" lon="13.0638227"><ele>597.25</ele><time>2026-04-26T12:44:40.516Z</time></trkpt><trkpt lat="43.2798789" lon="13.063982"><ele>598.0</ele><time>2026-04-26T12:44:41.515Z</time></trkpt><trkpt lat="43.2799574" lon="13.0641367"><ele>605.25</ele><time>2026-04-26T12:44:42.515Z</time></trkpt><trkpt lat="43.2800234" lon="13.0642905"><ele>612.5</ele><time>2026-04-26T12:44:43.515Z</time></trkpt><trkpt lat="43.2800762" lon="13.0644469"><ele>619.75</ele><time>2026-04-26T12:44:44.515Z</time></trkpt><trkpt lat="43.2801317" lon="13.0646078"><ele>627.0</ele><time>2026-04-26T12:44:45.515Z</time></trkpt><trkpt lat="43.2801972" lon="13.0647675"><ele>627.0</ele><time>2026-04-26T12:44:46.515Z</time></trkpt><trkpt lat="43.2802694" lon="13.0649092"><ele>627.0</ele><time>2026-04-26T12:44:47.515Z</time></trkpt><trkpt lat="43.2803405" lon="13.0650273"><ele>627.0</ele><time>2026-04-26T12:44:48.515Z</time></trkpt><trkpt lat="43.2804245" lon="13.0651382"><ele>627.0</ele><time>2026-04-26T12:44:49.515Z</time></trkpt><trkpt lat="43.2805024" lon="13.0652388"><ele>628.0</ele><time>2026-04-26T12:44:50.515Z</time></trkpt><trkpt lat="43.2805879" lon="13.0653122"><ele>629.0</ele><time>2026-04-26T12:44:51.515Z</time></trkpt><trkpt lat="43.2806599" lon="13.0653638"><ele>630.0</ele><time>2026-04-26T12:44:52.515Z</time></trkpt><trkpt lat="43.2807385" lon="13.0653964"><ele>631.0</ele><time>2026-04-26T12:44:53.516Z</time></trkpt><trkpt lat="43.2808225" lon="13.0653945"><ele>632.0</ele><time>2026-04-26T12:44:54.516Z</time></trkpt><trkpt lat="43.2809168" lon="13.0653582"><ele>633.0</ele><time>2026-04-26T12:44:55.516Z</time></trkpt><trkpt lat="43.2810005" lon="13.0653077"><ele>633.0</ele><time>2026-04-26T12:44:56.515Z</time></trkpt><trkpt lat="43.2810706" lon="13.06528"><ele>633.0</ele><time>2026-04-26T12:44:57.516Z</time></trkpt><trkpt lat="43.2811975" lon="13.0653137"><ele>633.0</ele><time>2026-04-26T12:44:59.515Z</time></trkpt><trkpt lat="43.281284" lon="13.0653772"><ele>633.0</ele><time>2026-04-26T12:45:00.515Z</time></trkpt><trkpt lat="43.281376" lon="13.0654469"><ele>633.0</ele><time>2026-04-26T12:45:01.515Z</time></trkpt><trkpt lat="43.2814787" lon="13.0654974"><ele>630.4</ele><time>2026-04-26T12:45:02.516Z</time></trkpt><trkpt lat="43.281587" lon="13.0655266"><ele>627.8</ele><time>2026-04-26T12:45:03.515Z</time></trkpt><trkpt lat="43.2816776" lon="13.0655488"><ele>625.2</ele><time>2026-04-26T12:45:04.515Z</time></trkpt><trkpt lat="43.2817692" lon="13.0655876"><ele>622.6</ele><time>2026-04-26T12:45:05.515Z</time></trkpt><trkpt lat="43.28187" lon="13.0656633"><ele>620.0</ele><time>2026-04-26T12:45:06.515Z</time></trkpt><trkpt lat="43.281985" lon="13.0657617"><ele>623.8</ele><time>2026-04-26T12:45:07.515Z</time></trkpt><trkpt lat="43.282115" lon="13.0658467"><ele>627.6</ele><time>2026-04-26T12:45:08.515Z</time></trkpt><trkpt lat="43.2822333" lon="13.0658967"><ele>631.4</ele><time>2026-04-26T12:45:09.515Z</time></trkpt><trkpt lat="43.282325" lon="13.0659317"><ele>635.2</ele><time>2026-04-26T12:45:10.516Z</time></trkpt><trkpt lat="43.2823967" lon="13.0659717"><ele>639.0</ele><time>2026-04-26T12:45:11.515Z</time></trkpt><trkpt lat="43.282455" lon="13.06602"><ele>639.0</ele><time>2026-04-26T12:45:12.515Z</time></trkpt><trkpt lat="43.2825133" lon="13.0660817"><ele>639.0</ele><time>2026-04-26T12:45:13.515Z</time></trkpt><trkpt lat="43.2825683" lon="13.0661667"><ele>639.0</ele><time>2026-04-26T12:45:14.516Z</time></trkpt><trkpt lat="43.2826233" lon="13.06626"><ele>639.0</ele><time>2026-04-26T12:45:15.516Z</time></trkpt><trkpt lat="43.282675" lon="13.0663583"><ele>639.0</ele><time>2026-04-26T12:45:16.515Z</time></trkpt><trkpt lat="43.282725" lon="13.0664533"><ele>639.0</ele><time>2026-04-26T12:45:17.515Z</time></trkpt><trkpt lat="43.28277" lon="13.0665717"><ele>647.0</ele><time>2026-04-26T12:45:18.515Z</time></trkpt><trkpt lat="43.2827983" lon="13.0667033"><ele>655.0</ele><time>2026-04-26T12:45:19.515Z</time></trkpt><trkpt lat="43.282835" lon="13.0668567"><ele>663.0</ele><time>2026-04-26T12:45:20.515Z</time></trkpt><trkpt lat="43.2828567" lon="13.067015"><ele>671.0</ele><time>2026-04-26T12:45:21.515Z</time></trkpt><trkpt lat="43.282875" lon="13.0671783"><ele>671.0</ele><time>2026-04-26T12:45:22.515Z</time></trkpt><trkpt lat="43.2828917" lon="13.0673333"><ele>671.0</ele><time>2026-04-26T12:45:23.515Z</time></trkpt><trkpt lat="43.2829233" lon="13.067495"><ele>671.0</ele><time>2026-04-26T12:45:24.515Z</time></trkpt><trkpt lat="43.2829483" lon="13.067645"><ele>671.0</ele><time>2026-04-26T12:45:25.515Z</time></trkpt><trkpt lat="43.282985" lon="13.0678017"><ele>670.5999999999999</ele><time>2026-04-26T12:45:26.515Z</time></trkpt><trkpt lat="43.283" lon="13.0679483"><ele>670.2</ele><time>2026-04-26T12:45:27.515Z</time></trkpt><trkpt lat="43.28302" lon="13.0681083"><ele>669.8</ele><time>2026-04-26T12:45:28.515Z</time></trkpt><trkpt lat="43.28305" lon="13.06826"><ele>669.4000000000001</ele><time>2026-04-26T12:45:29.515Z</time></trkpt><trkpt lat="43.2830783" lon="13.0683933"><ele>669.0</ele><time>2026-04-26T12:45:30.515Z</time></trkpt><trkpt lat="43.283115" lon="13.0685017"><ele>669.0</ele><time>2026-04-26T12:45:31.516Z</time></trkpt><trkpt lat="43.28317" lon="13.0686017"><ele>669.0</ele><time>2026-04-26T12:45:32.515Z</time></trkpt><trkpt lat="43.2832433" lon="13.0686783"><ele>669.0</ele><time>2026-04-26T12:45:33.516Z</time></trkpt><trkpt lat="43.2833283" lon="13.06875"><ele>669.0</ele><time>2026-04-26T12:45:34.515Z</time></trkpt><trkpt lat="43.2834233" lon="13.068825"><ele>669.0</ele><time>2026-04-26T12:45:35.515Z</time></trkpt><trkpt lat="43.2835217" lon="13.068895"><ele>669.0</ele><time>2026-04-26T12:45:36.515Z</time></trkpt><trkpt lat="43.2836233" lon="13.0689767"><ele>669.0</ele><time>2026-04-26T12:45:37.516Z</time></trkpt><trkpt lat="43.283705" lon="13.0690333"><ele>669.0</ele><time>2026-04-26T12:45:38.516Z</time></trkpt><trkpt lat="43.2837733" lon="13.0690833"><ele>669.0</ele><time>2026-04-26T12:45:39.515Z</time></trkpt><trkpt lat="43.2838317" lon="13.069145"><ele>669.0</ele><time>2026-04-26T12:45:40.516Z</time></trkpt><trkpt lat="43.28387" lon="13.06922"><ele>669.0</ele><time>2026-04-26T12:45:41.515Z</time></trkpt><trkpt lat="43.2839283" lon="13.0693483"><ele>670.6</ele><time>2026-04-26T12:45:43.516Z</time></trkpt><trkpt lat="43.283945" lon="13.0694633"><ele>672.2</ele><time>2026-04-26T12:45:45.516Z</time></trkpt><trkpt lat="43.2838717" lon="13.06954"><ele>673.8000000000001</ele><time>2026-04-26T12:45:47.515Z</time></trkpt><trkpt lat="43.2837517" lon="13.0696117"><ele>675.4000000000001</ele><time>2026-04-26T12:45:49.515Z</time></trkpt><trkpt lat="43.283695" lon="13.069755"><ele>677.0</ele><time>2026-04-26T12:45:51.515Z</time></trkpt><trkpt lat="43.28369" lon="13.069855"><ele>682.8333333333333</ele><time>2026-04-26T12:45:52.515Z</time></trkpt><trkpt lat="43.2836817" lon="13.069965"><ele>688.6666666666666</ele><time>2026-04-26T12:45:53.516Z</time></trkpt><trkpt lat="43.2836683" lon="13.0700617"><ele>694.5</ele><time>2026-04-26T12:45:54.515Z</time></trkpt><trkpt lat="43.2836567" lon="13.0701617"><ele>700.3333333333334</ele><time>2026-04-26T12:45:55.515Z</time></trkpt><trkpt lat="43.2836467" lon="13.0702733"><ele>706.1666666666667</ele><time>2026-04-26T12:45:56.515Z</time></trkpt><trkpt lat="43.2836367" lon="13.0703883"><ele>712.0</ele><time>2026-04-26T12:45:57.515Z</time></trkpt><trkpt lat="43.2836167" lon="13.0705217"><ele>712.0</ele><time>2026-04-26T12:45:58.515Z</time></trkpt><trkpt lat="43.2836" lon="13.0706617"><ele>712.0</ele><time>2026-04-26T12:45:59.515Z</time></trkpt><trkpt lat="43.2835933" lon="13.070785"><ele>712.0</ele><time>2026-04-26T12:46:00.515Z</time></trkpt><trkpt lat="43.283595" lon="13.0708967"><ele>712.0</ele><time>2026-04-26T12:46:01.515Z</time></trkpt><trkpt lat="43.2835983" lon="13.07101"><ele>712.0</ele><time>2026-04-26T12:46:02.515Z</time></trkpt><trkpt lat="43.2836017" lon="13.0711183"><ele>712.0</ele><time>2026-04-26T12:46:03.515Z</time></trkpt><trkpt lat="43.2836067" lon="13.07123"><ele>714.1666666666667</ele><time>2026-04-26T12:46:04.515Z</time></trkpt><trkpt lat="43.28361" lon="13.071355"><ele>716.3333333333334</ele><time>2026-04-26T12:46:05.515Z</time></trkpt><trkpt lat="43.2836183" lon="13.07148"><ele>718.5</ele><time>2026-04-26T12:46:06.515Z</time></trkpt><trkpt lat="43.2836333" lon="13.0716017"><ele>720.6666666666666</ele><time>2026-04-26T12:46:07.515Z</time></trkpt><trkpt lat="43.2836433" lon="13.0717183"><ele>722.8333333333333</ele><time>2026-04-26T12:46:08.515Z</time></trkpt><trkpt lat="43.2836683" lon="13.0718283"><ele>725.0</ele><time>2026-04-26T12:46:09.515Z</time></trkpt><trkpt lat="43.2836983" lon="13.0719433"><ele>727.2</ele><time>2026-04-26T12:46:10.515Z</time></trkpt><trkpt lat="43.2837367" lon="13.0720567"><ele>729.4</ele><time>2026-04-26T12:46:11.515Z</time></trkpt><trkpt lat="43.2837783" lon="13.0721717"><ele>731.5999999999999</ele><time>2026-04-26T12:46:12.516Z</time></trkpt><trkpt lat="43.2838167" lon="13.0723"><ele>733.8</ele><time>2026-04-26T12:46:13.515Z</time></trkpt><trkpt lat="43.2838633" lon="13.072435"><ele>736.0</ele><time>2026-04-26T12:46:14.515Z</time></trkpt><trkpt lat="43.28392" lon="13.072585"><ele>733.0</ele><time>2026-04-26T12:46:15.515Z</time></trkpt><trkpt lat="43.2839733" lon="13.07273"><ele>730.0</ele><time>2026-04-26T12:46:16.515Z</time></trkpt><trkpt lat="43.28402" lon="13.0728817"><ele>727.0</ele><time>2026-04-26T12:46:17.515Z</time></trkpt><trkpt lat="43.2840683" lon="13.07303"><ele>724.0</ele><time>2026-04-26T12:46:18.515Z</time></trkpt><trkpt lat="43.284115" lon="13.07317"><ele>726.4000000000001</ele><time>2026-04-26T12:46:19.515Z</time></trkpt><trkpt lat="43.2841583" lon="13.0733233"><ele>728.8</ele><time>2026-04-26T12:46:20.515Z</time></trkpt><trkpt lat="43.2842" lon="13.0734633"><ele>731.2</ele><time>2026-04-26T12:46:21.515Z</time></trkpt><trkpt lat="43.2842367" lon="13.0736"><ele>733.5999999999999</ele><time>2026-04-26T12:46:22.515Z</time></trkpt><trkpt lat="43.2842667" lon="13.0737233"><ele>736.0</ele><time>2026-04-26T12:46:23.515Z</time></trkpt><trkpt lat="43.2843067" lon="13.07383"><ele>736.0</ele><time>2026-04-26T12:46:24.515Z</time></trkpt><trkpt lat="43.2843383" lon="13.07395"><ele>736.0</ele><time>2026-04-26T12:46:25.515Z</time></trkpt><trkpt lat="43.284365" lon="13.0740717"><ele>736.0</ele><time>2026-04-26T12:46:26.515Z</time></trkpt><trkpt lat="43.2843933" lon="13.074185"><ele>736.0</ele><time>2026-04-26T12:46:27.515Z</time></trkpt><trkpt lat="43.2844117" lon="13.0742917"><ele>736.0</ele><time>2026-04-26T12:46:28.515Z</time></trkpt><trkpt lat="43.28444" lon="13.074385"><ele>736.0</ele><time>2026-04-26T12:46:29.515Z</time></trkpt><trkpt lat="43.2844617" lon="13.0745183"><ele>739.4</ele><time>2026-04-26T12:46:31.515Z</time></trkpt><trkpt lat="43.2845133" lon="13.0745917"><ele>742.8</ele><time>2026-04-26T12:46:34.515Z</time></trkpt><trkpt lat="43.28461" lon="13.0747083"><ele>746.1999999999999</ele><time>2026-04-26T12:46:36.515Z</time></trkpt><trkpt lat="43.2846583" lon="13.0748"><ele>749.5999999999999</ele><time>2026-04-26T12:46:37.516Z</time></trkpt><trkpt lat="43.2846983" lon="13.074905"><ele>753.0</ele><time>2026-04-26T12:46:38.515Z</time></trkpt><trkpt lat="43.2847333" lon="13.0750083"><ele>751.0</ele><time>2026-04-26T12:46:39.515Z</time></trkpt><trkpt lat="43.2847683" lon="13.07512"><ele>749.0</ele><time>2026-04-26T12:46:40.516Z</time></trkpt><trkpt lat="43.2848" lon="13.0752217"><ele>747.0</ele><time>2026-04-26T12:46:41.515Z</time></trkpt><trkpt lat="43.28484" lon="13.075325"><ele>745.0</ele><time>2026-04-26T12:46:42.515Z</time></trkpt><trkpt lat="43.28488" lon="13.075445"><ele>743.0</ele><time>2026-04-26T12:46:43.515Z</time></trkpt><trkpt lat="43.28492" lon="13.075545"><ele>741.0</ele><time>2026-04-26T12:46:44.516Z</time></trkpt><trkpt lat="43.2849646" lon="13.0756384"><ele>741.0</ele><time>2026-04-26T12:46:45.516Z</time></trkpt><trkpt lat="43.2850131" lon="13.0757352"><ele>741.0</ele><time>2026-04-26T12:46:46.516Z</time></trkpt><trkpt lat="43.285058" lon="13.0758408"><ele>741.0</ele><time>2026-04-26T12:46:47.516Z</time></trkpt><trkpt lat="43.2850988" lon="13.0759547"><ele>741.0</ele><time>2026-04-26T12:46:48.516Z</time></trkpt><trkpt lat="43.2851382" lon="13.0760654"><ele>741.0</ele><time>2026-04-26T12:46:49.515Z</time></trkpt><trkpt lat="43.2851752" lon="13.0761741"><ele>741.0</ele><time>2026-04-26T12:46:50.515Z</time></trkpt><trkpt lat="43.2852164" lon="13.0762879"><ele>743.0</ele><time>2026-04-26T12:46:51.516Z</time></trkpt><trkpt lat="43.2852647" lon="13.0764106"><ele>745.0</ele><time>2026-04-26T12:46:52.515Z</time></trkpt><trkpt lat="43.2853171" lon="13.076541"><ele>747.0</ele><time>2026-04-26T12:46:53.515Z</time></trkpt><trkpt lat="43.2853639" lon="13.0766675"><ele>749.0</ele><time>2026-04-26T12:46:54.516Z</time></trkpt><trkpt lat="43.2854059" lon="13.0767918"><ele>751.0</ele><time>2026-04-26T12:46:55.515Z</time></trkpt><trkpt lat="43.2854467" lon="13.0769142"><ele>750.4</ele><time>2026-04-26T12:46:56.515Z</time></trkpt><trkpt lat="43.2854788" lon="13.0770282"><ele>749.8</ele><time>2026-04-26T12:46:57.515Z</time></trkpt><trkpt lat="43.2855125" lon="13.0771527"><ele>749.1999999999999</ele><time>2026-04-26T12:46:58.515Z</time></trkpt><trkpt lat="43.2855474" lon="13.0772784"><ele>748.5999999999999</ele><time>2026-04-26T12:46:59.516Z</time></trkpt><trkpt lat="43.2855951" lon="13.0773988"><ele>748.0</ele><time>2026-04-26T12:47:00.515Z</time></trkpt><trkpt lat="43.2856462" lon="13.0775204"><ele>748.0</ele><time>2026-04-26T12:47:01.515Z</time></trkpt><trkpt lat="43.2857014" lon="13.0776355"><ele>748.0</ele><time>2026-04-26T12:47:02.515Z</time></trkpt><trkpt lat="43.2857586" lon="13.0777402"><ele>748.0</ele><time>2026-04-26T12:47:03.515Z</time></trkpt><trkpt lat="43.2858041" lon="13.0778482"><ele>748.0</ele><time>2026-04-26T12:47:04.515Z</time></trkpt><trkpt lat="43.2858462" lon="13.0779545"><ele>748.0</ele><time>2026-04-26T12:47:05.515Z</time></trkpt><trkpt lat="43.2858885" lon="13.0780572"><ele>748.0</ele><time>2026-04-26T12:47:06.515Z</time></trkpt><trkpt lat="43.2859312" lon="13.0781472"><ele>748.0</ele><time>2026-04-26T12:47:07.516Z</time></trkpt><trkpt lat="43.285973" lon="13.0782242"><ele>748.0</ele><time>2026-04-26T12:47:08.515Z</time></trkpt><trkpt lat="43.2860349" lon="13.0783633"><ele>748.0</ele><time>2026-04-26T12:47:10.515Z</time></trkpt><trkpt lat="43.2860595" lon="13.0784982"><ele>748.0</ele><time>2026-04-26T12:47:12.515Z</time></trkpt><trkpt lat="43.2860483" lon="13.0786218"><ele>750.2</ele><time>2026-04-26T12:47:14.515Z</time></trkpt><trkpt lat="43.2860552" lon="13.0787358"><ele>752.4</ele><time>2026-04-26T12:47:16.515Z</time></trkpt><trkpt lat="43.2861185" lon="13.0788686"><ele>754.6</ele><time>2026-04-26T12:47:18.515Z</time></trkpt><trkpt lat="43.2862037" lon="13.0789743"><ele>756.8000000000001</ele><time>2026-04-26T12:47:20.516Z</time></trkpt><trkpt lat="43.2863077" lon="13.0790284"><ele>759.0</ele><time>2026-04-26T12:47:22.515Z</time></trkpt><trkpt lat="43.2864007" lon="13.0790562"><ele>758.3333333333334</ele><time>2026-04-26T12:47:24.516Z</time></trkpt><trkpt lat="43.2864817" lon="13.0790884"><ele>757.6666666666666</ele><time>2026-04-26T12:47:26.515Z</time></trkpt><trkpt lat="43.286564" lon="13.0791226"><ele>757.0</ele><time>2026-04-26T12:47:28.515Z</time></trkpt><trkpt lat="43.2866428" lon="13.0791292"><ele>756.3333333333333</ele><time>2026-04-26T12:47:30.515Z</time></trkpt><trkpt lat="43.2867112" lon="13.0791324"><ele>755.6666666666666</ele><time>2026-04-26T12:47:34.515Z</time></trkpt><trkpt lat="43.2867967" lon="13.0791223"><ele>755.0</ele><time>2026-04-26T12:47:37.515Z</time></trkpt><trkpt lat="43.2868923" lon="13.0791703"><ele>755.0</ele><time>2026-04-26T12:47:39.515Z</time></trkpt><trkpt lat="43.2869884" lon="13.07925"><ele>755.0</ele><time>2026-04-26T12:47:41.516Z</time></trkpt><trkpt lat="43.2870763" lon="13.0793555"><ele>755.0</ele><time>2026-04-26T12:47:43.515Z</time></trkpt><trkpt lat="43.2871205" lon="13.0794202"><ele>755.0</ele><time>2026-04-26T12:47:44.516Z</time></trkpt><trkpt lat="43.287165" lon="13.0794899"><ele>755.0</ele><time>2026-04-26T12:47:45.515Z</time></trkpt><trkpt lat="43.2872098" lon="13.0795537"><ele>755.0</ele><time>2026-04-26T12:47:46.515Z</time></trkpt><trkpt lat="43.2872586" lon="13.0796146"><ele>755.4285714285714</ele><time>2026-04-26T12:47:47.515Z</time></trkpt><trkpt lat="43.2873102" lon="13.0796712"><ele>755.8571428571429</ele><time>2026-04-26T12:47:48.515Z</time></trkpt><trkpt lat="43.287357" lon="13.0797347"><ele>756.2857142857143</ele><time>2026-04-26T12:47:49.515Z</time></trkpt><trkpt lat="43.2874035" lon="13.0798112"><ele>756.7142857142858</ele><time>2026-04-26T12:47:50.515Z</time></trkpt><trkpt lat="43.2874488" lon="13.0798818"><ele>757.1428571428571</ele><time>2026-04-26T12:47:51.515Z</time></trkpt><trkpt lat="43.2874968" lon="13.079952"><ele>757.5714285714287</ele><time>2026-04-26T12:47:52.515Z</time></trkpt><trkpt lat="43.2875418" lon="13.0800223"><ele>758.0</ele><time>2026-04-26T12:47:53.515Z</time></trkpt><trkpt lat="43.2875849" lon="13.0800858"><ele>758.0</ele><time>2026-04-26T12:47:54.515Z</time></trkpt><trkpt lat="43.2876695" lon="13.0802071"><ele>758.0</ele><time>2026-04-26T12:47:56.516Z</time></trkpt><trkpt lat="43.2877621" lon="13.0803194"><ele>758.0</ele><time>2026-04-26T12:47:58.516Z</time></trkpt><trkpt lat="43.2878113" lon="13.0803736"><ele>758.0</ele><time>2026-04-26T12:47:59.516Z</time></trkpt><trkpt lat="43.287864" lon="13.0804245"><ele>758.0</ele><time>2026-04-26T12:48:00.515Z</time></trkpt><trkpt lat="43.2879238" lon="13.0804785"><ele>758.0</ele><time>2026-04-26T12:48:01.515Z</time></trkpt><trkpt lat="43.2879764" lon="13.0805452"><ele>758.0</ele><time>2026-04-26T12:48:02.515Z</time></trkpt><trkpt lat="43.2880377" lon="13.0806077"><ele>758.0</ele><time>2026-04-26T12:48:03.516Z</time></trkpt><trkpt lat="43.2880964" lon="13.0806717"><ele>758.0</ele><time>2026-04-26T12:48:04.515Z</time></trkpt><trkpt lat="43.2881526" lon="13.0807489"><ele>758.0</ele><time>2026-04-26T12:48:05.516Z</time></trkpt><trkpt lat="43.28821" lon="13.0808282"><ele>758.0</ele><time>2026-04-26T12:48:06.515Z</time></trkpt><trkpt lat="43.2882602" lon="13.0809057"><ele>758.0</ele><time>2026-04-26T12:48:07.515Z</time></trkpt><trkpt lat="43.2883041" lon="13.0809785"><ele>758.1428571428572</ele><time>2026-04-26T12:48:08.515Z</time></trkpt><trkpt lat="43.2883461" lon="13.0810524"><ele>758.2857142857143</ele><time>2026-04-26T12:48:09.515Z</time></trkpt><trkpt lat="43.2883821" lon="13.0811269"><ele>758.4285714285714</ele><time>2026-04-26T12:48:10.515Z</time></trkpt><trkpt lat="43.2884198" lon="13.0811991"><ele>758.5714285714287</ele><time>2026-04-26T12:48:11.515Z</time></trkpt><trkpt lat="43.2884558" lon="13.0812773"><ele>758.7142857142857</ele><time>2026-04-26T12:48:12.515Z</time></trkpt><trkpt lat="43.2884954" lon="13.0813604"><ele>758.8571428571429</ele><time>2026-04-26T12:48:13.515Z</time></trkpt><trkpt lat="43.2885339" lon="13.0814443"><ele>759.0</ele><time>2026-04-26T12:48:14.515Z</time></trkpt><trkpt lat="43.2885764" lon="13.0815352"><ele>762.5</ele><time>2026-04-26T12:48:15.515Z</time></trkpt><trkpt lat="43.2886161" lon="13.0816172"><ele>766.0</ele><time>2026-04-26T12:48:16.515Z</time></trkpt><trkpt lat="43.2886781" lon="13.0817506"><ele>769.5</ele><time>2026-04-26T12:48:18.515Z</time></trkpt><trkpt lat="43.2887217" lon="13.0818367"><ele>773.0</ele><time>2026-04-26T12:48:20.515Z</time></trkpt><trkpt lat="43.28874" lon="13.08193"><ele>776.5</ele><time>2026-04-26T12:48:22.515Z</time></trkpt><trkpt lat="43.2887617" lon="13.0820417"><ele>780.0</ele><time>2026-04-26T12:48:24.515Z</time></trkpt><trkpt lat="43.288765" lon="13.0821983"><ele>780.0</ele><time>2026-04-26T12:48:26.515Z</time></trkpt><trkpt lat="43.2887633" lon="13.0822917"><ele>780.0</ele><time>2026-04-26T12:48:27.515Z</time></trkpt><trkpt lat="43.2887617" lon="13.0823783"><ele>780.0</ele><time>2026-04-26T12:48:28.515Z</time></trkpt><trkpt lat="43.28876" lon="13.08255"><ele>780.0</ele><time>2026-04-26T12:48:30.515Z</time></trkpt><trkpt lat="43.2887617" lon="13.0826383"><ele>780.0</ele><time>2026-04-26T12:48:31.515Z</time></trkpt><trkpt lat="43.288765" lon="13.0827283"><ele>780.0</ele><time>2026-04-26T12:48:32.515Z</time></trkpt><trkpt lat="43.2887733" lon="13.0828767"><ele>780.8333333333334</ele><time>2026-04-26T12:48:34.515Z</time></trkpt><trkpt lat="43.28879" lon="13.08303"><ele>781.6666666666667</ele><time>2026-04-26T12:48:36.516Z</time></trkpt><trkpt lat="43.288835" lon="13.0831417"><ele>782.5</ele><time>2026-04-26T12:48:38.516Z</time></trkpt><trkpt lat="43.2888983" lon="13.08317"><ele>783.3333333333334</ele><time>2026-04-26T12:48:40.515Z</time></trkpt><trkpt lat="43.2889817" lon="13.0831433"><ele>784.1666666666667</ele><time>2026-04-26T12:48:42.515Z</time></trkpt><trkpt lat="43.289045" lon="13.0831833"><ele>785.0</ele><time>2026-04-26T12:48:44.516Z</time></trkpt><trkpt lat="43.2890683" lon="13.0832917"><ele>787.6666666666667</ele><time>2026-04-26T12:48:46.514Z</time></trkpt><trkpt lat="43.2890283" lon="13.08345"><ele>790.3333333333334</ele><time>2026-04-26T12:48:48.514Z</time></trkpt><trkpt lat="43.288995" lon="13.0835283"><ele>793.0</ele><time>2026-04-26T12:48:49.514Z</time></trkpt><trkpt lat="43.2889733" lon="13.0836117"><ele>795.6666666666667</ele><time>2026-04-26T12:48:50.514Z</time></trkpt><trkpt lat="43.288945" lon="13.0837067"><ele>798.3333333333334</ele><time>2026-04-26T12:48:51.514Z</time></trkpt><trkpt lat="43.2889283" lon="13.083805"><ele>801.0</ele><time>2026-04-26T12:48:52.515Z</time></trkpt><trkpt lat="43.2888867" lon="13.0839667"><ele>803.0</ele><time>2026-04-26T12:48:54.514Z</time></trkpt><trkpt lat="43.288845" lon="13.0840417"><ele>805.0</ele><time>2026-04-26T12:48:55.514Z</time></trkpt><trkpt lat="43.2888067" lon="13.084125"><ele>807.0</ele><time>2026-04-26T12:48:56.514Z</time></trkpt><trkpt lat="43.288775" lon="13.0842083"><ele>809.0</ele><time>2026-04-26T12:48:57.514Z</time></trkpt><trkpt lat="43.288755" lon="13.0842933"><ele>811.0</ele><time>2026-04-26T12:48:58.515Z</time></trkpt><trkpt lat="43.28873" lon="13.0843767"><ele>813.0</ele><time>2026-04-26T12:48:59.514Z</time></trkpt><trkpt lat="43.2886717" lon="13.0845367"><ele>814.3333333333334</ele><time>2026-04-26T12:49:01.514Z</time></trkpt><trkpt lat="43.2886367" lon="13.0846267"><ele>815.6666666666667</ele><time>2026-04-26T12:49:02.514Z</time></trkpt><trkpt lat="43.2886033" lon="13.084725"><ele>817.0</ele><time>2026-04-26T12:49:03.514Z</time></trkpt><trkpt lat="43.2885783" lon="13.0848233"><ele>818.3333333333334</ele><time>2026-04-26T12:49:04.514Z</time></trkpt><trkpt lat="43.2885817" lon="13.0849283"><ele>819.6666666666667</ele><time>2026-04-26T12:49:05.514Z</time></trkpt><trkpt lat="43.2885883" lon="13.0850383"><ele>821.0</ele><time>2026-04-26T12:49:06.515Z</time></trkpt><trkpt lat="43.2885983" lon="13.0851533"><ele>821.0</ele><time>2026-04-26T12:49:07.515Z</time></trkpt><trkpt lat="43.2886067" lon="13.0852783"><ele>821.0</ele><time>2026-04-26T12:49:08.514Z</time></trkpt><trkpt lat="43.2886017" lon="13.0854033"><ele>821.0</ele><time>2026-04-26T12:49:09.515Z</time></trkpt><trkpt lat="43.288585" lon="13.08554"><ele>821.0</ele><time>2026-04-26T12:49:10.514Z</time></trkpt><trkpt lat="43.2885633" lon="13.085685"><ele>821.0</ele><time>2026-04-26T12:49:11.514Z</time></trkpt><trkpt lat="43.28855" lon="13.0858267"><ele>821.0</ele><time>2026-04-26T12:49:12.514Z</time></trkpt><trkpt lat="43.2885317" lon="13.085975"><ele>821.0</ele><time>2026-04-26T12:49:13.514Z</time></trkpt><trkpt lat="43.2885133" lon="13.0861283"><ele>821.0</ele><time>2026-04-26T12:49:14.514Z</time></trkpt><trkpt lat="43.2884917" lon="13.08627"><ele>821.0</ele><time>2026-04-26T12:49:15.515Z</time></trkpt><trkpt lat="43.2884717" lon="13.08641"><ele>821.0</ele><time>2026-04-26T12:49:16.514Z</time></trkpt><trkpt lat="43.2884533" lon="13.0865533"><ele>819.8</ele><time>2026-04-26T12:49:17.514Z</time></trkpt><trkpt lat="43.288435" lon="13.0866867"><ele>818.5999999999999</ele><time>2026-04-26T12:49:18.514Z</time></trkpt><trkpt lat="43.28842" lon="13.0868117"><ele>817.4</ele><time>2026-04-26T12:49:19.514Z</time></trkpt><trkpt lat="43.2884083" lon="13.08693"><ele>816.2</ele><time>2026-04-26T12:49:20.515Z</time></trkpt><trkpt lat="43.2883933" lon="13.0870517"><ele>815.0</ele><time>2026-04-26T12:49:21.514Z</time></trkpt><trkpt lat="43.2883833" lon="13.0871633"><ele>815.0000000000001</ele><time>2026-04-26T12:49:22.514Z</time></trkpt><trkpt lat="43.28838" lon="13.087275"><ele>815.0</ele><time>2026-04-26T12:49:23.514Z</time></trkpt><trkpt lat="43.28838" lon="13.087385"><ele>815.0</ele><time>2026-04-26T12:49:24.514Z</time></trkpt><trkpt lat="43.28838" lon="13.087495"><ele>815.0</ele><time>2026-04-26T12:49:25.514Z</time></trkpt><trkpt lat="43.28838" lon="13.0876017"><ele>815.0000000000001</ele><time>2026-04-26T12:49:26.514Z</time></trkpt><trkpt lat="43.28838" lon="13.0877167"><ele>815.0</ele><time>2026-04-26T12:49:27.514Z</time></trkpt><trkpt lat="43.2883733" lon="13.0878233"><ele>815.1666666666667</ele><time>2026-04-26T12:49:28.514Z</time></trkpt><trkpt lat="43.2883717" lon="13.0879283"><ele>815.3333333333334</ele><time>2026-04-26T12:49:29.515Z</time></trkpt><trkpt lat="43.2883783" lon="13.0880283"><ele>815.5</ele><time>2026-04-26T12:49:30.514Z</time></trkpt><trkpt lat="43.2883917" lon="13.0881317"><ele>815.6666666666667</ele><time>2026-04-26T12:49:31.514Z</time></trkpt><trkpt lat="43.2884033" lon="13.0882467"><ele>815.8333333333334</ele><time>2026-04-26T12:49:32.514Z</time></trkpt><trkpt lat="43.2884117" lon="13.0883667"><ele>816.0</ele><time>2026-04-26T12:49:33.514Z</time></trkpt><trkpt lat="43.2884167" lon="13.0884867"><ele>814.4</ele><time>2026-04-26T12:49:34.514Z</time></trkpt><trkpt lat="43.288415" lon="13.0885967"><ele>812.8</ele><time>2026-04-26T12:49:35.514Z</time></trkpt><trkpt lat="43.28841" lon="13.088695"><ele>811.1999999999999</ele><time>2026-04-26T12:49:36.514Z</time></trkpt><trkpt lat="43.288395" lon="13.0888383"><ele>809.5999999999999</ele><time>2026-04-26T12:49:38.514Z</time></trkpt><trkpt lat="43.28838" lon="13.088935"><ele>808.0</ele><time>2026-04-26T12:49:40.514Z</time></trkpt><trkpt lat="43.288315" lon="13.0890783"><ele>806.5999999999999</ele><time>2026-04-26T12:49:55.514Z</time></trkpt><trkpt lat="43.2882283" lon="13.0891533"><ele>805.1999999999999</ele><time>2026-04-26T12:54:07.514Z</time></trkpt><trkpt lat="43.288195" lon="13.089265"><ele>803.8</ele><time>2026-04-26T12:54:10.515Z</time></trkpt><trkpt lat="43.288175" lon="13.0893867"><ele>802.4</ele><time>2026-04-26T12:54:12.514Z</time></trkpt><trkpt lat="43.28816" lon="13.0895417"><ele>801.0</ele><time>2026-04-26T12:54:14.514Z</time></trkpt><trkpt lat="43.28815" lon="13.08968"><ele>801.0</ele><time>2026-04-26T12:54:16.514Z</time></trkpt><trkpt lat="43.2881383" lon="13.089815"><ele>801.0</ele><time>2026-04-26T12:54:18.514Z</time></trkpt><trkpt lat="43.2881167" lon="13.0899467"><ele>801.0</ele><time>2026-04-26T12:54:20.514Z</time></trkpt><trkpt lat="43.2880867" lon="13.0900683"><ele>801.0</ele><time>2026-04-26T12:54:22.515Z</time></trkpt><trkpt lat="43.2880533" lon="13.0902367"><ele>801.0</ele><time>2026-04-26T12:54:24.514Z</time></trkpt><trkpt lat="43.2880483" lon="13.0904133"><ele>800.8333333333334</ele><time>2026-04-26T12:54:26.514Z</time></trkpt><trkpt lat="43.2880567" lon="13.0905783"><ele>800.6666666666667</ele><time>2026-04-26T12:54:28.514Z</time></trkpt><trkpt lat="43.2880567" lon="13.09067"><ele>800.5</ele><time>2026-04-26T12:54:29.514Z</time></trkpt><trkpt lat="43.2880483" lon="13.0907633"><ele>800.3333333333334</ele><time>2026-04-26T12:54:30.514Z</time></trkpt><trkpt lat="43.2880367" lon="13.090855"><ele>800.1666666666667</ele><time>2026-04-26T12:54:31.515Z</time></trkpt><trkpt lat="43.288025" lon="13.0909467"><ele>800.0</ele><time>2026-04-26T12:54:32.514Z</time></trkpt><trkpt lat="43.2880033" lon="13.0911017"><ele>800.0</ele><time>2026-04-26T12:54:34.514Z</time></trkpt><trkpt lat="43.2879833" lon="13.09126"><ele>800.0</ele><time>2026-04-26T12:54:36.514Z</time></trkpt><trkpt lat="43.2879617" lon="13.0914317"><ele>800.0</ele><time>2026-04-26T12:54:38.514Z</time></trkpt><trkpt lat="43.2879433" lon="13.0915317"><ele>800.0</ele><time>2026-04-26T12:54:39.515Z</time></trkpt><trkpt lat="43.2879183" lon="13.09162"><ele>800.0</ele><time>2026-04-26T12:54:40.514Z</time></trkpt><trkpt lat="43.2878983" lon="13.0917033"><ele>797.7142857142858</ele><time>2026-04-26T12:54:41.514Z</time></trkpt><trkpt lat="43.2878833" lon="13.09179"><ele>795.4285714285714</ele><time>2026-04-26T12:54:42.514Z</time></trkpt><trkpt lat="43.28786" lon="13.0918733"><ele>793.1428571428571</ele><time>2026-04-26T12:54:43.514Z</time></trkpt><trkpt lat="43.28784" lon="13.09196"><ele>790.8571428571429</ele><time>2026-04-26T12:54:44.514Z</time></trkpt><trkpt lat="43.2878167" lon="13.0920467"><ele>788.5714285714286</ele><time>2026-04-26T12:54:45.514Z</time></trkpt><trkpt lat="43.287785" lon="13.0921317"><ele>786.2857142857143</ele><time>2026-04-26T12:54:46.514Z</time></trkpt><trkpt lat="43.28775" lon="13.0922133"><ele>784.0</ele><time>2026-04-26T12:54:47.514Z</time></trkpt><trkpt lat="43.2877133" lon="13.0923017"><ele>783.9999999999999</ele><time>2026-04-26T12:54:48.515Z</time></trkpt><trkpt lat="43.2876717" lon="13.0923867"><ele>784.0</ele><time>2026-04-26T12:54:49.515Z</time></trkpt><trkpt lat="43.2876333" lon="13.09246"><ele>784.0</ele><time>2026-04-26T12:54:50.514Z</time></trkpt><trkpt lat="43.2876" lon="13.0925483"><ele>784.0</ele><time>2026-04-26T12:54:51.514Z</time></trkpt><trkpt lat="43.287565" lon="13.0927217"><ele>783.9999999999999</ele><time>2026-04-26T12:54:53.514Z</time></trkpt><trkpt lat="43.2875667" lon="13.0928183"><ele>784.0</ele><time>2026-04-26T12:54:54.514Z</time></trkpt><trkpt lat="43.2875767" lon="13.0929067"><ele>779.8000000000001</ele><time>2026-04-26T12:54:55.514Z</time></trkpt><trkpt lat="43.2875967" lon="13.0930033"><ele>775.6</ele><time>2026-04-26T12:54:56.515Z</time></trkpt><trkpt lat="43.28765" lon="13.093135"><ele>771.4</ele><time>2026-04-26T12:54:58.514Z</time></trkpt><trkpt lat="43.287685" lon="13.0932733"><ele>767.2</ele><time>2026-04-26T12:55:00.514Z</time></trkpt><trkpt lat="43.2876717" lon="13.093395"><ele>763.0</ele><time>2026-04-26T12:55:02.515Z</time></trkpt><trkpt lat="43.287655" lon="13.0935517"><ele>760.3333333333334</ele><time>2026-04-26T12:55:04.514Z</time></trkpt><trkpt lat="43.2876167" lon="13.093715"><ele>757.6666666666667</ele><time>2026-04-26T12:55:06.515Z</time></trkpt><trkpt lat="43.2875967" lon="13.0938"><ele>755.0</ele><time>2026-04-26T12:55:07.515Z</time></trkpt><trkpt lat="43.287565" lon="13.093895"><ele>752.3333333333334</ele><time>2026-04-26T12:55:08.514Z</time></trkpt><trkpt lat="43.2875217" lon="13.0939883"><ele>749.6666666666666</ele><time>2026-04-26T12:55:09.515Z</time></trkpt><trkpt lat="43.287475" lon="13.0940767"><ele>747.0</ele><time>2026-04-26T12:55:10.514Z</time></trkpt><trkpt lat="43.2874267" lon="13.09416"><ele>744.3333333333334</ele><time>2026-04-26T12:55:11.515Z</time></trkpt><trkpt lat="43.287375" lon="13.0942433"><ele>741.6666666666666</ele><time>2026-04-26T12:55:12.515Z</time></trkpt><trkpt lat="43.2873267" lon="13.0943267"><ele>739.0</ele><time>2026-04-26T12:55:13.514Z</time></trkpt><trkpt lat="43.2872817" lon="13.094405"><ele>736.3333333333333</ele><time>2026-04-26T12:55:14.514Z</time></trkpt><trkpt lat="43.2872467" lon="13.0945633"><ele>733.6666666666666</ele><time>2026-04-26T12:55:16.514Z</time></trkpt><trkpt lat="43.287255" lon="13.0946567"><ele>731.0</ele><time>2026-04-26T12:55:17.514Z</time></trkpt><trkpt lat="43.2872633" lon="13.0947517"><ele>731.0</ele><time>2026-04-26T12:55:18.515Z</time></trkpt><trkpt lat="43.2872717" lon="13.0948583"><ele>731.0</ele><time>2026-04-26T12:55:19.514Z</time></trkpt><trkpt lat="43.28728" lon="13.094975"><ele>731.0</ele><time>2026-04-26T12:55:20.514Z</time></trkpt><trkpt lat="43.2872667" lon="13.0950883"><ele>731.0</ele><time>2026-04-26T12:55:21.514Z</time></trkpt><trkpt lat="43.2872467" lon="13.095215"><ele>731.0</ele><time>2026-04-26T12:55:22.514Z</time></trkpt><trkpt lat="43.287215" lon="13.0953533"><ele>731.0</ele><time>2026-04-26T12:55:23.514Z</time></trkpt><trkpt lat="43.2871767" lon="13.09548"><ele>734.4</ele><time>2026-04-26T12:55:24.514Z</time></trkpt><trkpt lat="43.2871283" lon="13.0955917"><ele>737.8</ele><time>2026-04-26T12:55:25.514Z</time></trkpt><trkpt lat="43.2870833" lon="13.0956967"><ele>741.1999999999999</ele><time>2026-04-26T12:55:26.514Z</time></trkpt><trkpt lat="43.2870333" lon="13.0958117"><ele>744.5999999999999</ele><time>2026-04-26T12:55:27.514Z</time></trkpt><trkpt lat="43.2869833" lon="13.09592"><ele>748.0</ele><time>2026-04-26T12:55:28.514Z</time></trkpt><trkpt lat="43.2869367" lon="13.0960267"><ele>748.0</ele><time>2026-04-26T12:55:29.514Z</time></trkpt><trkpt lat="43.286885" lon="13.09612"><ele>748.0</ele><time>2026-04-26T12:55:30.514Z</time></trkpt><trkpt lat="43.286825" lon="13.0961967"><ele>748.0</ele><time>2026-04-26T12:55:31.514Z</time></trkpt><trkpt lat="43.2867617" lon="13.0962733"><ele>748.0</ele><time>2026-04-26T12:55:32.514Z</time></trkpt><trkpt lat="43.286685" lon="13.09634"><ele>748.0</ele><time>2026-04-26T12:55:33.514Z</time></trkpt><trkpt lat="43.2865967" lon="13.0963883"><ele>748.0</ele><time>2026-04-26T12:55:34.514Z</time></trkpt><trkpt lat="43.286505" lon="13.0964283"><ele>749.8</ele><time>2026-04-26T12:55:35.514Z</time></trkpt><trkpt lat="43.286405" lon="13.096455"><ele>751.5999999999999</ele><time>2026-04-26T12:55:36.514Z</time></trkpt><trkpt lat="43.2863033" lon="13.0964617"><ele>753.4000000000001</ele><time>2026-04-26T12:55:37.513Z</time></trkpt><trkpt lat="43.2862083" lon="13.0964433"><ele>755.2</ele><time>2026-04-26T12:55:38.513Z</time></trkpt><trkpt lat="43.286125" lon="13.09641"><ele>757.0</ele><time>2026-04-26T12:55:39.514Z</time></trkpt><trkpt lat="43.28604" lon="13.0963583"><ele>757.0</ele><time>2026-04-26T12:55:40.513Z</time></trkpt><trkpt lat="43.2859583" lon="13.096295"><ele>757.0</ele><time>2026-04-26T12:55:41.514Z</time></trkpt><trkpt lat="43.2858733" lon="13.0962317"><ele>757.0</ele><time>2026-04-26T12:55:42.514Z</time></trkpt><trkpt lat="43.2857967" lon="13.0961517"><ele>757.0</ele><time>2026-04-26T12:55:43.513Z</time></trkpt><trkpt lat="43.2857133" lon="13.09607"><ele>757.0</ele><time>2026-04-26T12:55:44.514Z</time></trkpt><trkpt lat="43.2856317" lon="13.0959883"><ele>753.4000000000001</ele><time>2026-04-26T12:55:45.513Z</time></trkpt><trkpt lat="43.2855483" lon="13.095895"><ele>749.8000000000001</ele><time>2026-04-26T12:55:46.513Z</time></trkpt><trkpt lat="43.2854733" lon="13.0957983"><ele>746.2</ele><time>2026-04-26T12:55:47.513Z</time></trkpt><trkpt lat="43.2853867" lon="13.095715"><ele>742.6</ele><time>2026-04-26T12:55:48.514Z</time></trkpt><trkpt lat="43.2853033" lon="13.0956383"><ele>739.0</ele><time>2026-04-26T12:55:49.513Z</time></trkpt><trkpt lat="43.2852267" lon="13.095555"><ele>746.8000000000001</ele><time>2026-04-26T12:55:50.514Z</time></trkpt><trkpt lat="43.2851483" lon="13.09546"><ele>754.6</ele><time>2026-04-26T12:55:51.513Z</time></trkpt><trkpt lat="43.2850667" lon="13.0953783"><ele>762.4</ele><time>2026-04-26T12:55:52.513Z</time></trkpt><trkpt lat="43.2849867" lon="13.0953017"><ele>770.2</ele><time>2026-04-26T12:55:53.514Z</time></trkpt><trkpt lat="43.2849017" lon="13.0952283"><ele>778.0</ele><time>2026-04-26T12:55:54.513Z</time></trkpt><trkpt lat="43.28481" lon="13.095155"><ele>777.4999999999999</ele><time>2026-04-26T12:55:55.513Z</time></trkpt><trkpt lat="43.28472" lon="13.0951"><ele>777.0</ele><time>2026-04-26T12:55:56.513Z</time></trkpt><trkpt lat="43.2846417" lon="13.0950583"><ele>776.5</ele><time>2026-04-26T12:55:57.513Z</time></trkpt><trkpt lat="43.28456" lon="13.0950417"><ele>776.0</ele><time>2026-04-26T12:55:58.513Z</time></trkpt><trkpt lat="43.2844783" lon="13.0950517"><ele>775.4999999999999</ele><time>2026-04-26T12:55:59.514Z</time></trkpt><trkpt lat="43.2843983" lon="13.0950633"><ele>775.0</ele><time>2026-04-26T12:56:00.514Z</time></trkpt><trkpt lat="43.2843167" lon="13.0950867"><ele>774.9999999999999</ele><time>2026-04-26T12:56:01.513Z</time></trkpt><trkpt lat="43.2842333" lon="13.095125"><ele>775.0</ele><time>2026-04-26T12:56:02.513Z</time></trkpt><trkpt lat="43.2841483" lon="13.0951433"><ele>775.0</ele><time>2026-04-26T12:56:03.513Z</time></trkpt><trkpt lat="43.2840733" lon="13.0951467"><ele>775.0</ele><time>2026-04-26T12:56:04.514Z</time></trkpt><trkpt lat="43.2840067" lon="13.09515"><ele>774.9999999999999</ele><time>2026-04-26T12:56:05.513Z</time></trkpt><trkpt lat="43.28393" lon="13.09515"><ele>775.0</ele><time>2026-04-26T12:56:06.513Z</time></trkpt><trkpt lat="43.2838467" lon="13.095145"><ele>774.8</ele><time>2026-04-26T12:56:07.513Z</time></trkpt><trkpt lat="43.283765" lon="13.0951267"><ele>774.6</ele><time>2026-04-26T12:56:08.513Z</time></trkpt><trkpt lat="43.2836783" lon="13.0950983"><ele>774.4000000000001</ele><time>2026-04-26T12:56:09.513Z</time></trkpt><trkpt lat="43.283595" lon="13.0950617"><ele>774.2</ele><time>2026-04-26T12:56:10.513Z</time></trkpt><trkpt lat="43.2835067" lon="13.095005"><ele>774.0</ele><time>2026-04-26T12:56:11.513Z</time></trkpt><trkpt lat="43.2834267" lon="13.0949267"><ele>775.4000000000001</ele><time>2026-04-26T12:56:12.514Z</time></trkpt><trkpt lat="43.28335" lon="13.094845"><ele>776.8</ele><time>2026-04-26T12:56:13.513Z</time></trkpt><trkpt lat="43.283275" lon="13.0947533"><ele>778.2</ele><time>2026-04-26T12:56:14.513Z</time></trkpt><trkpt lat="43.2832017" lon="13.09467"><ele>779.5999999999999</ele><time>2026-04-26T12:56:15.513Z</time></trkpt><trkpt lat="43.2831283" lon="13.0945917"><ele>781.0</ele><time>2026-04-26T12:56:16.513Z</time></trkpt><trkpt lat="43.2830517" lon="13.0945033"><ele>781.0</ele><time>2026-04-26T12:56:17.513Z</time></trkpt><trkpt lat="43.282975" lon="13.0944083"><ele>781.0</ele><time>2026-04-26T12:56:18.514Z</time></trkpt><trkpt lat="43.2829" lon="13.0943117"><ele>781.0</ele><time>2026-04-26T12:56:19.513Z</time></trkpt><trkpt lat="43.2828183" lon="13.094225"><ele>781.0</ele><time>2026-04-26T12:56:20.513Z</time></trkpt><trkpt lat="43.2827367" lon="13.09413"><ele>781.0</ele><time>2026-04-26T12:56:21.513Z</time></trkpt><trkpt lat="43.28266" lon="13.0940367"><ele>786.0</ele><time>2026-04-26T12:56:22.513Z</time></trkpt><trkpt lat="43.2825917" lon="13.0939517"><ele>791.0</ele><time>2026-04-26T12:56:23.513Z</time></trkpt><trkpt lat="43.2825383" lon="13.0938783"><ele>796.0</ele><time>2026-04-26T12:56:24.513Z</time></trkpt><trkpt lat="43.28248" lon="13.0937583"><ele>801.0</ele><time>2026-04-26T12:56:26.514Z</time></trkpt><trkpt lat="43.282455" lon="13.0936417"><ele>806.0</ele><time>2026-04-26T12:56:28.513Z</time></trkpt><trkpt lat="43.282425" lon="13.0935167"><ele>806.0000000000001</ele><time>2026-04-26T12:56:30.513Z</time></trkpt><trkpt lat="43.2823383" lon="13.0934383"><ele>806.0</ele><time>2026-04-26T12:56:32.513Z</time></trkpt><trkpt lat="43.2822783" lon="13.0933967"><ele>806.0</ele><time>2026-04-26T12:56:33.514Z</time></trkpt><trkpt lat="43.2822067" lon="13.0933533"><ele>806.0</ele><time>2026-04-26T12:56:34.513Z</time></trkpt><trkpt lat="43.2821383" lon="13.0933083"><ele>806.0000000000001</ele><time>2026-04-26T12:56:35.513Z</time></trkpt><trkpt lat="43.2820767" lon="13.09324"><ele>806.0</ele><time>2026-04-26T12:56:36.514Z</time></trkpt><trkpt lat="43.28202" lon="13.093165"><ele>804.8333333333334</ele><time>2026-04-26T12:56:37.513Z</time></trkpt><trkpt lat="43.2819733" lon="13.093085"><ele>803.6666666666667</ele><time>2026-04-26T12:56:38.513Z</time></trkpt><trkpt lat="43.2819417" lon="13.0929883"><ele>802.5</ele><time>2026-04-26T12:56:39.513Z</time></trkpt><trkpt lat="43.2819267" lon="13.092885"><ele>801.3333333333333</ele><time>2026-04-26T12:56:40.514Z</time></trkpt><trkpt lat="43.2819133" lon="13.0927733"><ele>800.1666666666666</ele><time>2026-04-26T12:56:41.513Z</time></trkpt><trkpt lat="43.2819033" lon="13.09265"><ele>799.0</ele><time>2026-04-26T12:56:42.513Z</time></trkpt><trkpt lat="43.281885" lon="13.0925483"><ele>798.9999999999999</ele><time>2026-04-26T12:56:43.513Z</time></trkpt><trkpt lat="43.2818583" lon="13.0924567"><ele>799.0</ele><time>2026-04-26T12:56:44.513Z</time></trkpt><trkpt lat="43.2818183" lon="13.0923817"><ele>799.0</ele><time>2026-04-26T12:56:45.513Z</time></trkpt><trkpt lat="43.2817683" lon="13.0923083"><ele>799.0</ele><time>2026-04-26T12:56:46.513Z</time></trkpt><trkpt lat="43.28172" lon="13.0922333"><ele>798.9999999999999</ele><time>2026-04-26T12:56:47.513Z</time></trkpt><trkpt lat="43.281675" lon="13.09213"><ele>799.0</ele><time>2026-04-26T12:56:48.513Z</time></trkpt><trkpt lat="43.2816367" lon="13.0920117"><ele>804.0</ele><time>2026-04-26T12:56:49.514Z</time></trkpt><trkpt lat="43.2816033" lon="13.0918833"><ele>809.0</ele><time>2026-04-26T12:56:50.513Z</time></trkpt><trkpt lat="43.2815717" lon="13.0917517"><ele>814.0</ele><time>2026-04-26T12:56:51.513Z</time></trkpt><trkpt lat="43.2815433" lon="13.0916117"><ele>819.0</ele><time>2026-04-26T12:56:52.513Z</time></trkpt><trkpt lat="43.2815117" lon="13.0914567"><ele>824.0</ele><time>2026-04-26T12:56:53.513Z</time></trkpt><trkpt lat="43.281495" lon="13.0913133"><ele>822.2</ele><time>2026-04-26T12:56:54.513Z</time></trkpt><trkpt lat="43.281475" lon="13.0911817"><ele>820.4000000000001</ele><time>2026-04-26T12:56:55.513Z</time></trkpt><trkpt lat="43.2814567" lon="13.0910467"><ele>818.6</ele><time>2026-04-26T12:56:56.514Z</time></trkpt><trkpt lat="43.2814367" lon="13.0909067"><ele>816.8</ele><time>2026-04-26T12:56:57.514Z</time></trkpt><trkpt lat="43.2814167" lon="13.0907767"><ele>815.0</ele><time>2026-04-26T12:56:58.513Z</time></trkpt><trkpt lat="43.281385" lon="13.0906533"><ele>815.0</ele><time>2026-04-26T12:56:59.513Z</time></trkpt><trkpt lat="43.2813317" lon="13.090525"><ele>815.0</ele><time>2026-04-26T12:57:00.513Z</time></trkpt><trkpt lat="43.28128" lon="13.0904"><ele>815.0</ele><time>2026-04-26T12:57:01.513Z</time></trkpt><trkpt lat="43.2812367" lon="13.0902783"><ele>815.0</ele><time>2026-04-26T12:57:02.513Z</time></trkpt><trkpt lat="43.281195" lon="13.0901283"><ele>815.0</ele><time>2026-04-26T12:57:03.513Z</time></trkpt><trkpt lat="43.2811617" lon="13.0899683"><ele>818.8</ele><time>2026-04-26T12:57:04.513Z</time></trkpt><trkpt lat="43.28112" lon="13.0898183"><ele>822.6</ele><time>2026-04-26T12:57:05.513Z</time></trkpt><trkpt lat="43.2810833" lon="13.0896783"><ele>826.4000000000001</ele><time>2026-04-26T12:57:06.513Z</time></trkpt><trkpt lat="43.2810417" lon="13.08954"><ele>830.2</ele><time>2026-04-26T12:57:07.513Z</time></trkpt><trkpt lat="43.2809867" lon="13.0894117"><ele>834.0</ele><time>2026-04-26T12:57:08.513Z</time></trkpt><trkpt lat="43.2809367" lon="13.08929"><ele>834.0</ele><time>2026-04-26T12:57:09.513Z</time></trkpt><trkpt lat="43.2808833" lon="13.089165"><ele>834.0</ele><time>2026-04-26T12:57:10.513Z</time></trkpt><trkpt lat="43.2808283" lon="13.0890483"><ele>834.0</ele><time>2026-04-26T12:57:11.513Z</time></trkpt><trkpt lat="43.2807667" lon="13.0889267"><ele>834.0</ele><time>2026-04-26T12:57:12.513Z</time></trkpt><trkpt lat="43.2806933" lon="13.0888067"><ele>834.0</ele><time>2026-04-26T12:57:13.513Z</time></trkpt><trkpt lat="43.2806083" lon="13.088685"><ele>832.75</ele><time>2026-04-26T12:57:14.513Z</time></trkpt><trkpt lat="43.2805117" lon="13.088575"><ele>831.5</ele><time>2026-04-26T12:57:15.513Z</time></trkpt><trkpt lat="43.2804033" lon="13.0884733"><ele>830.25</ele><time>2026-04-26T12:57:16.513Z</time></trkpt><trkpt lat="43.2803067" lon="13.0883767"><ele>829.0</ele><time>2026-04-26T12:57:17.513Z</time></trkpt><trkpt lat="43.2802133" lon="13.088295"><ele>833.25</ele><time>2026-04-26T12:57:18.513Z</time></trkpt><trkpt lat="43.2801067" lon="13.0882167"><ele>837.5</ele><time>2026-04-26T12:57:19.513Z</time></trkpt><trkpt lat="43.2800033" lon="13.088155"><ele>841.75</ele><time>2026-04-26T12:57:20.513Z</time></trkpt><trkpt lat="43.2798983" lon="13.0881"><ele>846.0</ele><time>2026-04-26T12:57:21.513Z</time></trkpt><trkpt lat="43.2798017" lon="13.088015"><ele>843.5</ele><time>2026-04-26T12:57:22.513Z</time></trkpt><trkpt lat="43.2797117" lon="13.0879133"><ele>841.0</ele><time>2026-04-26T12:57:23.513Z</time></trkpt><trkpt lat="43.27962" lon="13.0877983"><ele>838.5</ele><time>2026-04-26T12:57:24.513Z</time></trkpt><trkpt lat="43.2795333" lon="13.0876783"><ele>836.0</ele><time>2026-04-26T12:57:25.513Z</time></trkpt><trkpt lat="43.2794417" lon="13.08756"><ele>836.0</ele><time>2026-04-26T12:57:26.514Z</time></trkpt><trkpt lat="43.2793483" lon="13.0874417"><ele>836.0</ele><time>2026-04-26T12:57:27.513Z</time></trkpt><trkpt lat="43.2792583" lon="13.0873383"><ele>836.0</ele><time>2026-04-26T12:57:28.513Z</time></trkpt><trkpt lat="43.2791667" lon="13.087235"><ele>836.0</ele><time>2026-04-26T12:57:29.513Z</time></trkpt><trkpt lat="43.2790783" lon="13.0871217"><ele>838.75</ele><time>2026-04-26T12:57:30.513Z</time></trkpt><trkpt lat="43.27899" lon="13.087005"><ele>841.5</ele><time>2026-04-26T12:57:31.513Z</time></trkpt><trkpt lat="43.2789067" lon="13.0868917"><ele>844.25</ele><time>2026-04-26T12:57:32.513Z</time></trkpt><trkpt lat="43.2788217" lon="13.0867883"><ele>847.0</ele><time>2026-04-26T12:57:33.513Z</time></trkpt><trkpt lat="43.2787417" lon="13.086675"><ele>849.0</ele><time>2026-04-26T12:57:34.513Z</time></trkpt><trkpt lat="43.2786617" lon="13.0865667"><ele>851.0</ele><time>2026-04-26T12:57:35.513Z</time></trkpt><trkpt lat="43.278585" lon="13.0864633"><ele>853.0</ele><time>2026-04-26T12:57:36.513Z</time></trkpt><trkpt lat="43.27852" lon="13.0863567"><ele>855.0</ele><time>2026-04-26T12:57:37.513Z</time></trkpt><trkpt lat="43.2784517" lon="13.0862467"><ele>857.0</ele><time>2026-04-26T12:57:38.513Z</time></trkpt><trkpt lat="43.2784067" lon="13.0861167"><ele>857.0</ele><time>2026-04-26T12:57:39.514Z</time></trkpt><trkpt lat="43.2783717" lon="13.08598"><ele>857.0</ele><time>2026-04-26T12:57:40.513Z</time></trkpt><trkpt lat="43.278345" lon="13.085845"><ele>857.0</ele><time>2026-04-26T12:57:41.513Z</time></trkpt><trkpt lat="43.278315" lon="13.0857033"><ele>857.0</ele><time>2026-04-26T12:57:42.513Z</time></trkpt><trkpt lat="43.2782833" lon="13.0855617"><ele>857.0</ele><time>2026-04-26T12:57:43.513Z</time></trkpt><trkpt lat="43.2782333" lon="13.0854133"><ele>859.75</ele><time>2026-04-26T12:57:44.513Z</time></trkpt><trkpt lat="43.278185" lon="13.085265"><ele>862.5</ele><time>2026-04-26T12:57:45.513Z</time></trkpt><trkpt lat="43.278135" lon="13.0851117"><ele>865.25</ele><time>2026-04-26T12:57:46.513Z</time></trkpt><trkpt lat="43.2780933" lon="13.0849667"><ele>868.0</ele><time>2026-04-26T12:57:47.513Z</time></trkpt><trkpt lat="43.2780467" lon="13.08482"><ele>869.4</ele><time>2026-04-26T12:57:48.513Z</time></trkpt><trkpt lat="43.277985" lon="13.0846883"><ele>870.8</ele><time>2026-04-26T12:57:49.513Z</time></trkpt><trkpt lat="43.2779233" lon="13.08457"><ele>872.2</ele><time>2026-04-26T12:57:50.514Z</time></trkpt><trkpt lat="43.27787" lon="13.0844383"><ele>873.6</ele><time>2026-04-26T12:57:51.513Z</time></trkpt><trkpt lat="43.277815" lon="13.0843117"><ele>875.0</ele><time>2026-04-26T12:57:52.513Z</time></trkpt><trkpt lat="43.2777467" lon="13.0841817"><ele>876.25</ele><time>2026-04-26T12:57:53.513Z</time></trkpt><trkpt lat="43.27768" lon="13.0840467"><ele>877.5</ele><time>2026-04-26T12:57:54.514Z</time></trkpt><trkpt lat="43.2776133" lon="13.0839183"><ele>878.75</ele><time>2026-04-26T12:57:55.513Z</time></trkpt><trkpt lat="43.2775467" lon="13.0837933"><ele>880.0</ele><time>2026-04-26T12:57:56.513Z</time></trkpt><trkpt lat="43.2774817" lon="13.0836633"><ele>880.0</ele><time>2026-04-26T12:57:57.513Z</time></trkpt><trkpt lat="43.2774217" lon="13.0835167"><ele>880.0</ele><time>2026-04-26T12:57:58.513Z</time></trkpt><trkpt lat="43.2773633" lon="13.08337"><ele>880.0</ele><time>2026-04-26T12:57:59.513Z</time></trkpt><trkpt lat="43.2772967" lon="13.0832117"><ele>880.0</ele><time>2026-04-26T12:58:00.513Z</time></trkpt><trkpt lat="43.2772367" lon="13.083055"><ele>882.5</ele><time>2026-04-26T12:58:01.513Z</time></trkpt><trkpt lat="43.2771683" lon="13.0828933"><ele>885.0</ele><time>2026-04-26T12:58:02.513Z</time></trkpt><trkpt lat="43.2771033" lon="13.0827283"><ele>887.5</ele><time>2026-04-26T12:58:03.513Z</time></trkpt><trkpt lat="43.2770367" lon="13.0825633"><ele>890.0</ele><time>2026-04-26T12:58:04.513Z</time></trkpt><trkpt lat="43.27697" lon="13.0823983"><ele>890.0</ele><time>2026-04-26T12:58:05.514Z</time></trkpt><trkpt lat="43.27691" lon="13.0822383"><ele>890.0</ele><time>2026-04-26T12:58:06.513Z</time></trkpt><trkpt lat="43.27685" lon="13.0820783"><ele>890.0</ele><time>2026-04-26T12:58:07.513Z</time></trkpt><trkpt lat="43.2767867" lon="13.0819167"><ele>890.0</ele><time>2026-04-26T12:58:08.513Z</time></trkpt><trkpt lat="43.27673" lon="13.08176"><ele>891.5</ele><time>2026-04-26T12:58:09.513Z</time></trkpt><trkpt lat="43.2766733" lon="13.0815933"><ele>893.0</ele><time>2026-04-26T12:58:10.513Z</time></trkpt><trkpt lat="43.2766133" lon="13.0814333"><ele>894.5</ele><time>2026-04-26T12:58:11.513Z</time></trkpt><trkpt lat="43.2765583" lon="13.0812833"><ele>896.0</ele><time>2026-04-26T12:58:12.514Z</time></trkpt><trkpt lat="43.2765083" lon="13.081135"><ele>896.0</ele><time>2026-04-26T12:58:13.513Z</time></trkpt><trkpt lat="43.2764533" lon="13.0809867"><ele>896.0</ele><time>2026-04-26T12:58:14.514Z</time></trkpt><trkpt lat="43.2763917" lon="13.080845"><ele>896.0</ele><time>2026-04-26T12:58:15.513Z</time></trkpt><trkpt lat="43.2763333" lon="13.080705"><ele>896.0</ele><time>2026-04-26T12:58:16.513Z</time></trkpt><trkpt lat="43.2762633" lon="13.0805683"><ele>895.1999999999999</ele><time>2026-04-26T12:58:17.514Z</time></trkpt><trkpt lat="43.2761917" lon="13.0804383"><ele>894.3999999999999</ele><time>2026-04-26T12:58:18.513Z</time></trkpt><trkpt lat="43.2761283" lon="13.08031"><ele>893.6</ele><time>2026-04-26T12:58:19.513Z</time></trkpt><trkpt lat="43.276075" lon="13.0801983"><ele>892.8</ele><time>2026-04-26T12:58:20.513Z</time></trkpt><trkpt lat="43.276025" lon="13.0801067"><ele>892.0</ele><time>2026-04-26T12:58:21.514Z</time></trkpt><trkpt lat="43.2759683" lon="13.0800417"><ele>891.9999999999999</ele><time>2026-04-26T12:58:22.513Z</time></trkpt><trkpt lat="43.275905" lon="13.0800083"><ele>892.0</ele><time>2026-04-26T12:58:23.513Z</time></trkpt><trkpt lat="43.2757933" lon="13.080015"><ele>892.0</ele><time>2026-04-26T12:58:25.513Z</time></trkpt><trkpt lat="43.275745" lon="13.080085"><ele>892.0</ele><time>2026-04-26T12:58:26.513Z</time></trkpt><trkpt lat="43.2757" lon="13.0801767"><ele>891.9999999999999</ele><time>2026-04-26T12:58:27.513Z</time></trkpt><trkpt lat="43.27567" lon="13.0802983"><ele>892.0</ele><time>2026-04-26T12:58:28.513Z</time></trkpt><trkpt lat="43.2756533" lon="13.0804383"><ele>892.0</ele><time>2026-04-26T12:58:29.513Z</time></trkpt><trkpt lat="43.275635" lon="13.0805933"><ele>892.0</ele><time>2026-04-26T12:58:30.513Z</time></trkpt><trkpt lat="43.2756133" lon="13.0807583"><ele>892.0</ele><time>2026-04-26T12:58:31.514Z</time></trkpt><trkpt lat="43.2755833" lon="13.0809167"><ele>892.0</ele><time>2026-04-26T12:58:32.513Z</time></trkpt><trkpt lat="43.2755533" lon="13.081075"><ele>891.0</ele><time>2026-04-26T12:58:33.514Z</time></trkpt><trkpt lat="43.2755283" lon="13.081235"><ele>890.0</ele><time>2026-04-26T12:58:34.514Z</time></trkpt><trkpt lat="43.2755" lon="13.0813867"><ele>889.0</ele><time>2026-04-26T12:58:35.514Z</time></trkpt><trkpt lat="43.2754683" lon="13.0815383"><ele>888.0</ele><time>2026-04-26T12:58:36.513Z</time></trkpt><trkpt lat="43.275435" lon="13.0816733"><ele>891.8</ele><time>2026-04-26T12:58:37.514Z</time></trkpt><trkpt lat="43.2754083" lon="13.081795"><ele>895.5999999999999</ele><time>2026-04-26T12:58:38.513Z</time></trkpt><trkpt lat="43.2753817" lon="13.0819217"><ele>899.4000000000001</ele><time>2026-04-26T12:58:39.513Z</time></trkpt><trkpt lat="43.2753533" lon="13.0820567"><ele>903.2</ele><time>2026-04-26T12:58:40.514Z</time></trkpt><trkpt lat="43.275335" lon="13.0821917"><ele>907.0</ele><time>2026-04-26T12:58:41.513Z</time></trkpt><trkpt lat="43.2753217" lon="13.0823183"><ele>910.2</ele><time>2026-04-26T12:58:42.513Z</time></trkpt><trkpt lat="43.2753167" lon="13.0824367"><ele>913.4000000000001</ele><time>2026-04-26T12:58:43.513Z</time></trkpt><trkpt lat="43.2753067" lon="13.0825533"><ele>916.5999999999999</ele><time>2026-04-26T12:58:44.513Z</time></trkpt><trkpt lat="43.2752983" lon="13.08268"><ele>919.8</ele><time>2026-04-26T12:58:45.513Z</time></trkpt><trkpt lat="43.2752933" lon="13.0828183"><ele>923.0</ele><time>2026-04-26T12:58:46.513Z</time></trkpt><trkpt lat="43.2752783" lon="13.0829683"><ele>923.0</ele><time>2026-04-26T12:58:47.514Z</time></trkpt><trkpt lat="43.2752417" lon="13.0831233"><ele>923.0</ele><time>2026-04-26T12:58:48.514Z</time></trkpt><trkpt lat="43.2751883" lon="13.0832717"><ele>923.0</ele><time>2026-04-26T12:58:49.513Z</time></trkpt><trkpt lat="43.2751317" lon="13.0834117"><ele>923.0</ele><time>2026-04-26T12:58:50.513Z</time></trkpt><trkpt lat="43.2750717" lon="13.083545"><ele>924.8</ele><time>2026-04-26T12:58:51.513Z</time></trkpt><trkpt lat="43.2750033" lon="13.0836617"><ele>926.5999999999999</ele><time>2026-04-26T12:58:52.513Z</time></trkpt><trkpt lat="43.27493" lon="13.083765"><ele>928.4000000000001</ele><time>2026-04-26T12:58:53.513Z</time></trkpt><trkpt lat="43.2748383" lon="13.0838633"><ele>930.2</ele><time>2026-04-26T12:58:54.513Z</time></trkpt><trkpt lat="43.274745" lon="13.0839633"><ele>932.0</ele><time>2026-04-26T12:58:55.513Z</time></trkpt><trkpt lat="43.2746517" lon="13.0840567"><ele>934.5</ele><time>2026-04-26T12:58:56.514Z</time></trkpt><trkpt lat="43.2745533" lon="13.0841533"><ele>937.0</ele><time>2026-04-26T12:58:57.514Z</time></trkpt><trkpt lat="43.27446" lon="13.0842333"><ele>939.5</ele><time>2026-04-26T12:58:58.514Z</time></trkpt><trkpt lat="43.2743633" lon="13.0842983"><ele>942.0</ele><time>2026-04-26T12:58:59.513Z</time></trkpt><trkpt lat="43.2742583" lon="13.0843583"><ele>942.0</ele><time>2026-04-26T12:59:00.513Z</time></trkpt><trkpt lat="43.2741533" lon="13.0843967"><ele>942.0</ele><time>2026-04-26T12:59:01.513Z</time></trkpt><trkpt lat="43.2740367" lon="13.08443"><ele>942.0</ele><time>2026-04-26T12:59:02.513Z</time></trkpt><trkpt lat="43.2739183" lon="13.0844633"><ele>942.0</ele><time>2026-04-26T12:59:03.513Z</time></trkpt><trkpt lat="43.2737933" lon="13.0844967"><ele>943.2</ele><time>2026-04-26T12:59:04.513Z</time></trkpt><trkpt lat="43.2736783" lon="13.0845283"><ele>944.4000000000001</ele><time>2026-04-26T12:59:05.514Z</time></trkpt><trkpt lat="43.273585" lon="13.08456"><ele>945.5999999999999</ele><time>2026-04-26T12:59:06.513Z</time></trkpt><trkpt lat="43.2735083" lon="13.08459"><ele>946.8</ele><time>2026-04-26T12:59:07.513Z</time></trkpt><trkpt lat="43.273445" lon="13.0846233"><ele>948.0</ele><time>2026-04-26T12:59:08.513Z</time></trkpt><trkpt lat="43.2733833" lon="13.08473"><ele>948.0</ele><time>2026-04-26T12:59:10.513Z</time></trkpt><trkpt lat="43.2733733" lon="13.08484"><ele>948.0</ele><time>2026-04-26T12:59:12.513Z</time></trkpt><trkpt lat="43.2733283" lon="13.0849867"><ele>948.0</ele><time>2026-04-26T12:59:14.513Z</time></trkpt><trkpt lat="43.2732667" lon="13.08508"><ele>948.0</ele><time>2026-04-26T12:59:15.513Z</time></trkpt><trkpt lat="43.2731867" lon="13.0851833"><ele>948.0</ele><time>2026-04-26T12:59:16.513Z</time></trkpt><trkpt lat="43.2730867" lon="13.0853017"><ele>949.6666666666667</ele><time>2026-04-26T12:59:17.513Z</time></trkpt><trkpt lat="43.2729633" lon="13.0854317"><ele>951.3333333333334</ele><time>2026-04-26T12:59:18.513Z</time></trkpt><trkpt lat="43.27285" lon="13.085565"><ele>953.0</ele><time>2026-04-26T12:59:19.513Z</time></trkpt><trkpt lat="43.272735" lon="13.0857083"><ele>952.3333333333334</ele><time>2026-04-26T12:59:20.513Z</time></trkpt><trkpt lat="43.2726183" lon="13.085855"><ele>951.6666666666667</ele><time>2026-04-26T12:59:21.513Z</time></trkpt><trkpt lat="43.2725017" lon="13.0860083"><ele>951.0</ele><time>2026-04-26T12:59:22.514Z</time></trkpt><trkpt lat="43.2723783" lon="13.0861483"><ele>952.3333333333333</ele><time>2026-04-26T12:59:23.513Z</time></trkpt><trkpt lat="43.2722483" lon="13.0862783"><ele>953.6666666666666</ele><time>2026-04-26T12:59:24.513Z</time></trkpt><trkpt lat="43.2721133" lon="13.08638"><ele>955.0</ele><time>2026-04-26T12:59:25.513Z</time></trkpt><trkpt lat="43.2719767" lon="13.0864817"><ele>955.0</ele><time>2026-04-26T12:59:26.513Z</time></trkpt><trkpt lat="43.271835" lon="13.0865767"><ele>955.0</ele><time>2026-04-26T12:59:27.513Z</time></trkpt><trkpt lat="43.2716967" lon="13.0866683"><ele>955.0</ele><time>2026-04-26T12:59:28.513Z</time></trkpt><trkpt lat="43.27157" lon="13.08675"><ele>955.0</ele><time>2026-04-26T12:59:29.513Z</time></trkpt><trkpt lat="43.2714583" lon="13.0868217"><ele>955.0</ele><time>2026-04-26T12:59:30.514Z</time></trkpt><trkpt lat="43.2713483" lon="13.0868867"><ele>955.0</ele><time>2026-04-26T12:59:31.513Z</time></trkpt><trkpt lat="43.2712433" lon="13.0869433"><ele>955.0</ele><time>2026-04-26T12:59:32.513Z</time></trkpt><trkpt lat="43.2711433" lon="13.0869917"><ele>955.6666666666666</ele><time>2026-04-26T12:59:33.513Z</time></trkpt><trkpt lat="43.2710517" lon="13.0870367"><ele>956.3333333333333</ele><time>2026-04-26T12:59:34.513Z</time></trkpt><trkpt lat="43.2709717" lon="13.087075"><ele>957.0</ele><time>2026-04-26T12:59:35.513Z</time></trkpt><trkpt lat="43.2709" lon="13.0871167"><ele>957.6666666666667</ele><time>2026-04-26T12:59:36.514Z</time></trkpt><trkpt lat="43.270835" lon="13.0871433"><ele>958.3333333333334</ele><time>2026-04-26T12:59:37.513Z</time></trkpt><trkpt lat="43.2707233" lon="13.087155"><ele>959.0</ele><time>2026-04-26T12:59:39.513Z</time></trkpt><trkpt lat="43.2706333" lon="13.0871417"><ele>959.0</ele><time>2026-04-26T12:59:41.514Z</time></trkpt><trkpt lat="43.2705183" lon="13.0871483"><ele>959.0000000000001</ele><time>2026-04-26T13:01:00.513Z</time></trkpt><trkpt lat="43.2704267" lon="13.0871467"><ele>959.0000000000001</ele><time>2026-04-26T13:01:01.513Z</time></trkpt><trkpt lat="43.27033" lon="13.0871367"><ele>959.0</ele><time>2026-04-26T13:01:02.513Z</time></trkpt><trkpt lat="43.2702233" lon="13.0871183"><ele>959.0</ele><time>2026-04-26T13:01:03.513Z</time></trkpt><trkpt lat="43.2701017" lon="13.087095"><ele>959.0</ele><time>2026-04-26T13:01:04.514Z</time></trkpt><trkpt lat="43.2699717" lon="13.0870667"><ele>959.0</ele><time>2026-04-26T13:01:05.513Z</time></trkpt><trkpt lat="43.269845" lon="13.0870283"><ele>959.0</ele><time>2026-04-26T13:01:06.514Z</time></trkpt><trkpt lat="43.2697333" lon="13.0869867"><ele>959.0</ele><time>2026-04-26T13:01:07.513Z</time></trkpt><trkpt lat="43.269625" lon="13.0869367"><ele>959.0</ele><time>2026-04-26T13:01:08.513Z</time></trkpt><trkpt lat="43.2695217" lon="13.08691"><ele>959.0000000000001</ele><time>2026-04-26T13:01:09.513Z</time></trkpt><trkpt lat="43.26942" lon="13.0868933"><ele>959.0000000000001</ele><time>2026-04-26T13:01:10.513Z</time></trkpt><trkpt lat="43.2693267" lon="13.0868783"><ele>959.0</ele><time>2026-04-26T13:01:11.513Z</time></trkpt><trkpt lat="43.2692333" lon="13.0868717"><ele>959.0</ele><time>2026-04-26T13:01:12.513Z</time></trkpt><trkpt lat="43.26914" lon="13.0868667"><ele>959.0</ele><time>2026-04-26T13:01:13.513Z</time></trkpt><trkpt lat="43.2690533" lon="13.0868717"><ele>959.0000000000001</ele><time>2026-04-26T13:01:14.514Z</time></trkpt><trkpt lat="43.2689667" lon="13.0868833"><ele>959.0000000000001</ele><time>2026-04-26T13:01:15.514Z</time></trkpt><trkpt lat="43.26888" lon="13.0869"><ele>959.0</ele><time>2026-04-26T13:01:16.513Z</time></trkpt><trkpt lat="43.26879" lon="13.0869283"><ele>959.0</ele><time>2026-04-26T13:01:17.513Z</time></trkpt><trkpt lat="43.26869" lon="13.0869567"><ele>956.5</ele><time>2026-04-26T13:01:18.513Z</time></trkpt><trkpt lat="43.2685833" lon="13.08698"><ele>954.0</ele><time>2026-04-26T13:01:19.513Z</time></trkpt><trkpt lat="43.2684633" lon="13.087015"><ele>951.5</ele><time>2026-04-26T13:01:20.514Z</time></trkpt><trkpt lat="43.2683483" lon="13.0870533"><ele>949.0</ele><time>2026-04-26T13:01:21.513Z</time></trkpt><trkpt lat="43.268245" lon="13.0870967"><ele>949.0</ele><time>2026-04-26T13:01:22.513Z</time></trkpt><trkpt lat="43.2681433" lon="13.0871333"><ele>949.0000000000001</ele><time>2026-04-26T13:01:23.513Z</time></trkpt><trkpt lat="43.2680383" lon="13.0871533"><ele>949.0000000000001</ele><time>2026-04-26T13:01:24.514Z</time></trkpt><trkpt lat="43.267935" lon="13.0871583"><ele>949.0</ele><time>2026-04-26T13:01:25.514Z</time></trkpt><trkpt lat="43.2678217" lon="13.0871417"><ele>949.0</ele><time>2026-04-26T13:01:26.513Z</time></trkpt><trkpt lat="43.2677033" lon="13.0871083"><ele>948.0</ele><time>2026-04-26T13:01:27.513Z</time></trkpt><trkpt lat="43.2675867" lon="13.087065"><ele>947.0</ele><time>2026-04-26T13:01:28.513Z</time></trkpt><trkpt lat="43.2674717" lon="13.08701"><ele>946.0</ele><time>2026-04-26T13:01:29.513Z</time></trkpt><trkpt lat="43.26735" lon="13.0869517"><ele>945.0</ele><time>2026-04-26T13:01:30.514Z</time></trkpt><trkpt lat="43.26723" lon="13.0868883"><ele>942.25</ele><time>2026-04-26T13:01:31.513Z</time></trkpt><trkpt lat="43.2671083" lon="13.0868283"><ele>939.5</ele><time>2026-04-26T13:01:32.513Z</time></trkpt><trkpt lat="43.2669867" lon="13.08678"><ele>936.75</ele><time>2026-04-26T13:01:33.514Z</time></trkpt><trkpt lat="43.2668583" lon="13.0867367"><ele>934.0</ele><time>2026-04-26T13:01:34.513Z</time></trkpt><trkpt lat="43.2667217" lon="13.0866917"><ele>934.0</ele><time>2026-04-26T13:01:35.514Z</time></trkpt><trkpt lat="43.2665833" lon="13.086655"><ele>934.0</ele><time>2026-04-26T13:01:36.513Z</time></trkpt><trkpt lat="43.2664433" lon="13.0866117"><ele>934.0</ele><time>2026-04-26T13:01:37.513Z</time></trkpt><trkpt lat="43.2663083" lon="13.08657"><ele>934.0</ele><time>2026-04-26T13:01:38.513Z</time></trkpt><trkpt lat="43.2661833" lon="13.086535"><ele>932.4000000000001</ele><time>2026-04-26T13:01:39.513Z</time></trkpt><trkpt lat="43.266075" lon="13.086495"><ele>930.8000000000001</ele><time>2026-04-26T13:01:40.513Z</time></trkpt><trkpt lat="43.2659817" lon="13.0864433"><ele>929.1999999999999</ele><time>2026-04-26T13:01:41.513Z</time></trkpt><trkpt lat="43.2658983" lon="13.086375"><ele>927.5999999999999</ele><time>2026-04-26T13:01:42.513Z</time></trkpt><trkpt lat="43.26582" lon="13.086275"><ele>926.0</ele><time>2026-04-26T13:01:43.513Z</time></trkpt><trkpt lat="43.2657333" lon="13.086155"><ele>926.0</ele><time>2026-04-26T13:01:44.513Z</time></trkpt><trkpt lat="43.265645" lon="13.0860383"><ele>926.0</ele><time>2026-04-26T13:01:45.513Z</time></trkpt><trkpt lat="43.265545" lon="13.0859167"><ele>926.0</ele><time>2026-04-26T13:01:46.514Z</time></trkpt><trkpt lat="43.2654383" lon="13.0857917"><ele>926.0</ele><time>2026-04-26T13:01:47.513Z</time></trkpt><trkpt lat="43.2653333" lon="13.0856767"><ele>923.5</ele><time>2026-04-26T13:01:48.514Z</time></trkpt><trkpt lat="43.2652233" lon="13.085575"><ele>921.0</ele><time>2026-04-26T13:01:49.513Z</time></trkpt><trkpt lat="43.265115" lon="13.08548"><ele>918.5</ele><time>2026-04-26T13:01:50.513Z</time></trkpt><trkpt lat="43.26501" lon="13.0853833"><ele>916.0</ele><time>2026-04-26T13:01:51.513Z</time></trkpt><trkpt lat="43.2649017" lon="13.0852683"><ele>916.0</ele><time>2026-04-26T13:01:52.514Z</time></trkpt><trkpt lat="43.2647883" lon="13.0851483"><ele>916.0</ele><time>2026-04-26T13:01:53.513Z</time></trkpt><trkpt lat="43.2646733" lon="13.0850333"><ele>916.0</ele><time>2026-04-26T13:01:54.513Z</time></trkpt><trkpt lat="43.2645617" lon="13.0849317"><ele>916.0</ele><time>2026-04-26T13:01:55.513Z</time></trkpt><trkpt lat="43.2644467" lon="13.0848367"><ele>912.5</ele><time>2026-04-26T13:01:56.513Z</time></trkpt><trkpt lat="43.2643267" lon="13.08476"><ele>909.0</ele><time>2026-04-26T13:01:57.513Z</time></trkpt><trkpt lat="43.2641933" lon="13.0847117"><ele>905.5</ele><time>2026-04-26T13:01:58.513Z</time></trkpt><trkpt lat="43.2640567" lon="13.0846767"><ele>902.0</ele><time>2026-04-26T13:01:59.514Z</time></trkpt><trkpt lat="43.263915" lon="13.08464"><ele>901.25</ele><time>2026-04-26T13:02:00.513Z</time></trkpt><trkpt lat="43.2637767" lon="13.0845983"><ele>900.5</ele><time>2026-04-26T13:02:01.514Z</time></trkpt><trkpt lat="43.2636567" lon="13.084565"><ele>899.75</ele><time>2026-04-26T13:02:02.513Z</time></trkpt><trkpt lat="43.2635367" lon="13.0845367"><ele>899.0</ele><time>2026-04-26T13:02:03.513Z</time></trkpt><trkpt lat="43.2634267" lon="13.0845183"><ele>899.0</ele><time>2026-04-26T13:02:04.513Z</time></trkpt><trkpt lat="43.26332" lon="13.084495"><ele>899.0000000000001</ele><time>2026-04-26T13:02:05.513Z</time></trkpt><trkpt lat="43.2632233" lon="13.0844533"><ele>899.0000000000001</ele><time>2026-04-26T13:02:06.513Z</time></trkpt><trkpt lat="43.2631383" lon="13.084385"><ele>899.0</ele><time>2026-04-26T13:02:07.513Z</time></trkpt><trkpt lat="43.2630683" lon="13.0842967"><ele>899.0</ele><time>2026-04-26T13:02:08.513Z</time></trkpt><trkpt lat="43.2630083" lon="13.0841833"><ele>898.0</ele><time>2026-04-26T13:02:09.514Z</time></trkpt><trkpt lat="43.262945" lon="13.0840417"><ele>897.0</ele><time>2026-04-26T13:02:10.513Z</time></trkpt><trkpt lat="43.262865" lon="13.0839"><ele>896.0</ele><time>2026-04-26T13:02:11.513Z</time></trkpt><trkpt lat="43.2627717" lon="13.0837617"><ele>895.0</ele><time>2026-04-26T13:02:12.513Z</time></trkpt><trkpt lat="43.2626717" lon="13.0836383"><ele>895.0</ele><time>2026-04-26T13:02:13.513Z</time></trkpt><trkpt lat="43.2625733" lon="13.0835233"><ele>895.0</ele><time>2026-04-26T13:02:14.514Z</time></trkpt><trkpt lat="43.2624617" lon="13.0834067"><ele>895.0</ele><time>2026-04-26T13:02:15.514Z</time></trkpt><trkpt lat="43.2623433" lon="13.0832967"><ele>895.0</ele><time>2026-04-26T13:02:16.513Z</time></trkpt><trkpt lat="43.26222" lon="13.083195"><ele>892.0</ele><time>2026-04-26T13:02:17.513Z</time></trkpt><trkpt lat="43.262095" lon="13.0830933"><ele>889.0</ele><time>2026-04-26T13:02:18.513Z</time></trkpt><trkpt lat="43.2619667" lon="13.0829967"><ele>886.0</ele><time>2026-04-26T13:02:19.513Z</time></trkpt><trkpt lat="43.2618417" lon="13.0829"><ele>883.0</ele><time>2026-04-26T13:02:20.513Z</time></trkpt><trkpt lat="43.2617133" lon="13.0827917"><ele>883.0</ele><time>2026-04-26T13:02:21.513Z</time></trkpt><trkpt lat="43.2615817" lon="13.0826917"><ele>883.0</ele><time>2026-04-26T13:02:22.514Z</time></trkpt><trkpt lat="43.26145" lon="13.0825917"><ele>883.0</ele><time>2026-04-26T13:02:23.514Z</time></trkpt><trkpt lat="43.2613183" lon="13.0824817"><ele>878.6666666666666</ele><time>2026-04-26T13:02:24.513Z</time></trkpt><trkpt lat="43.2611883" lon="13.0823883"><ele>874.3333333333333</ele><time>2026-04-26T13:02:25.513Z</time></trkpt><trkpt lat="43.2610483" lon="13.0822917"><ele>870.0</ele><time>2026-04-26T13:02:26.513Z</time></trkpt><trkpt lat="43.2609133" lon="13.0822017"><ele>870.0</ele><time>2026-04-26T13:02:27.514Z</time></trkpt><trkpt lat="43.2607783" lon="13.082115"><ele>870.0</ele><time>2026-04-26T13:02:28.513Z</time></trkpt><trkpt lat="43.260635" lon="13.0820383"><ele>870.0</ele><time>2026-04-26T13:02:29.513Z</time></trkpt><trkpt lat="43.2604917" lon="13.0819683"><ele>871.6666666666667</ele><time>2026-04-26T13:02:30.513Z</time></trkpt><trkpt lat="43.260345" lon="13.0819067"><ele>873.3333333333334</ele><time>2026-04-26T13:02:31.513Z</time></trkpt><trkpt lat="43.2602017" lon="13.081835"><ele>875.0</ele><time>2026-04-26T13:02:32.514Z</time></trkpt><trkpt lat="43.260065" lon="13.0817717"><ele>875.0</ele><time>2026-04-26T13:02:33.513Z</time></trkpt><trkpt lat="43.2599367" lon="13.0817067"><ele>875.0</ele><time>2026-04-26T13:02:34.513Z</time></trkpt><trkpt lat="43.25981" lon="13.08163"><ele>875.0</ele><time>2026-04-26T13:02:35.513Z</time></trkpt><trkpt lat="43.25969" lon="13.081565"><ele>875.0</ele><time>2026-04-26T13:02:36.513Z</time></trkpt><trkpt lat="43.25958" lon="13.0815017"><ele>872.6</ele><time>2026-04-26T13:02:37.513Z</time></trkpt><trkpt lat="43.25947" lon="13.0814383"><ele>870.2</ele><time>2026-04-26T13:02:38.513Z</time></trkpt><trkpt lat="43.259365" lon="13.0813833"><ele>867.8</ele><time>2026-04-26T13:02:39.513Z</time></trkpt><trkpt lat="43.2592633" lon="13.0813233"><ele>865.4</ele><time>2026-04-26T13:02:40.513Z</time></trkpt><trkpt lat="43.2591667" lon="13.0812667"><ele>863.0</ele><time>2026-04-26T13:02:41.513Z</time></trkpt><trkpt lat="43.259075" lon="13.0812083"><ele>863.0000000000001</ele><time>2026-04-26T13:02:42.513Z</time></trkpt><trkpt lat="43.25899" lon="13.0811583"><ele>863.0</ele><time>2026-04-26T13:02:43.514Z</time></trkpt><trkpt lat="43.258915" lon="13.0811283"><ele>863.0</ele><time>2026-04-26T13:02:44.513Z</time></trkpt><trkpt lat="43.25885" lon="13.0811033"><ele>863.0</ele><time>2026-04-26T13:02:45.513Z</time></trkpt><trkpt lat="43.2587567" lon="13.0810733"><ele>863.0000000000001</ele><time>2026-04-26T13:02:47.512Z</time></trkpt><trkpt lat="43.2586767" lon="13.0810567"><ele>863.0</ele><time>2026-04-26T13:02:50.512Z</time></trkpt><trkpt lat="43.258565" lon="13.08106"><ele>863.3333333333334</ele><time>2026-04-26T13:03:45.512Z</time></trkpt><trkpt lat="43.2585" lon="13.0810583"><ele>863.6666666666667</ele><time>2026-04-26T13:03:47.512Z</time></trkpt><trkpt lat="43.2584083" lon="13.0810617"><ele>864.0</ele><time>2026-04-26T13:03:49.512Z</time></trkpt><trkpt lat="43.258325" lon="13.0810733"><ele>864.3333333333333</ele><time>2026-04-26T13:03:51.513Z</time></trkpt><trkpt lat="43.2582333" lon="13.0810767"><ele>864.6666666666666</ele><time>2026-04-26T13:03:53.512Z</time></trkpt><trkpt lat="43.258145" lon="13.0810817"><ele>865.0</ele><time>2026-04-26T13:03:55.512Z</time></trkpt><trkpt lat="43.25806" lon="13.0810983"><ele>863.6</ele><time>2026-04-26T13:03:57.512Z</time></trkpt><trkpt lat="43.2579583" lon="13.0811133"><ele>862.2</ele><time>2026-04-26T13:03:59.512Z</time></trkpt><trkpt lat="43.257845" lon="13.081115"><ele>860.8</ele><time>2026-04-26T13:04:01.512Z</time></trkpt><trkpt lat="43.2577467" lon="13.081115"><ele>859.4</ele><time>2026-04-26T13:04:03.512Z</time></trkpt><trkpt lat="43.257665" lon="13.0811183"><ele>858.0</ele><time>2026-04-26T13:04:05.512Z</time></trkpt><trkpt lat="43.2575883" lon="13.0811267"><ele>858.0</ele><time>2026-04-26T13:04:07.512Z</time></trkpt><trkpt lat="43.2575167" lon="13.08113"><ele>858.0</ele><time>2026-04-26T13:04:09.512Z</time></trkpt><trkpt lat="43.257395" lon="13.08113"><ele>858.0</ele><time>2026-04-26T13:05:18.512Z</time></trkpt><trkpt lat="43.2573183" lon="13.0811433"><ele>858.0</ele><time>2026-04-26T13:05:19.513Z</time></trkpt><trkpt lat="43.2572317" lon="13.0811533"><ele>858.0</ele><time>2026-04-26T13:05:20.512Z</time></trkpt><trkpt lat="43.25714" lon="13.0811583"><ele>858.0</ele><time>2026-04-26T13:05:21.513Z</time></trkpt><trkpt lat="43.2570467" lon="13.0811683"><ele>856.5</ele><time>2026-04-26T13:05:22.512Z</time></trkpt><trkpt lat="43.2569617" lon="13.081185"><ele>855.0</ele><time>2026-04-26T13:05:23.512Z</time></trkpt><trkpt lat="43.25689" lon="13.0812033"><ele>853.5</ele><time>2026-04-26T13:05:24.512Z</time></trkpt><trkpt lat="43.2567817" lon="13.0812167"><ele>852.0</ele><time>2026-04-26T13:05:26.512Z</time></trkpt><trkpt lat="43.2567283" lon="13.0811467"><ele>850.5</ele><time>2026-04-26T13:05:28.512Z</time></trkpt><trkpt lat="43.2567267" lon="13.08101"><ele>849.0</ele><time>2026-04-26T13:05:30.512Z</time></trkpt><trkpt lat="43.2567583" lon="13.0809333"><ele>849.0</ele><time>2026-04-26T13:05:31.512Z</time></trkpt><trkpt lat="43.256815" lon="13.0808517"><ele>849.0</ele><time>2026-04-26T13:05:32.513Z</time></trkpt><trkpt lat="43.2568833" lon="13.080765"><ele>849.0</ele><time>2026-04-26T13:05:33.513Z</time></trkpt><trkpt lat="43.256965" lon="13.0806717"><ele>849.0</ele><time>2026-04-26T13:05:34.512Z</time></trkpt><trkpt lat="43.2570517" lon="13.0805683"><ele>849.0</ele><time>2026-04-26T13:05:35.512Z</time></trkpt><trkpt lat="43.257145" lon="13.0804583"><ele>847.75</ele><time>2026-04-26T13:05:36.512Z</time></trkpt><trkpt lat="43.2572433" lon="13.0803517"><ele>846.5</ele><time>2026-04-26T13:05:37.512Z</time></trkpt><trkpt lat="43.25734" lon="13.08026"><ele>845.25</ele><time>2026-04-26T13:05:38.512Z</time></trkpt><trkpt lat="43.257435" lon="13.08018"><ele>844.0</ele><time>2026-04-26T13:05:39.513Z</time></trkpt><trkpt lat="43.2575383" lon="13.0801183"><ele>844.0</ele><time>2026-04-26T13:05:40.512Z</time></trkpt><trkpt lat="43.257635" lon="13.080055"><ele>844.0</ele><time>2026-04-26T13:05:41.512Z</time></trkpt><trkpt lat="43.2577267" lon="13.07999"><ele>844.0</ele><time>2026-04-26T13:05:42.512Z</time></trkpt><trkpt lat="43.2578033" lon="13.0799033"><ele>844.0</ele><time>2026-04-26T13:05:43.513Z</time></trkpt><trkpt lat="43.257875" lon="13.0798017"><ele>844.0</ele><time>2026-04-26T13:05:44.512Z</time></trkpt><trkpt lat="43.257945" lon="13.0796967"><ele>840.0</ele><time>2026-04-26T13:05:45.512Z</time></trkpt><trkpt lat="43.258025" lon="13.0796183"><ele>836.0</ele><time>2026-04-26T13:05:46.512Z</time></trkpt><trkpt lat="43.258125" lon="13.0795533"><ele>832.0</ele><time>2026-04-26T13:05:47.512Z</time></trkpt><trkpt lat="43.2582367" lon="13.079495"><ele>828.0</ele><time>2026-04-26T13:05:48.512Z</time></trkpt><trkpt lat="43.2583667" lon="13.0794317"><ele>828.0</ele><time>2026-04-26T13:05:49.512Z</time></trkpt><trkpt lat="43.258505" lon="13.0793617"><ele>828.0</ele><time>2026-04-26T13:05:50.512Z</time></trkpt><trkpt lat="43.25864" lon="13.0792883"><ele>828.0</ele><time>2026-04-26T13:05:51.512Z</time></trkpt><trkpt lat="43.2587883" lon="13.07921"><ele>828.0</ele><time>2026-04-26T13:05:52.512Z</time></trkpt><trkpt lat="43.2589233" lon="13.0791333"><ele>828.0</ele><time>2026-04-26T13:05:53.513Z</time></trkpt><trkpt lat="43.259055" lon="13.079055"><ele>828.0</ele><time>2026-04-26T13:05:54.512Z</time></trkpt><trkpt lat="43.2591817" lon="13.0789767"><ele>828.0</ele><time>2026-04-26T13:05:55.512Z</time></trkpt><trkpt lat="43.2593033" lon="13.0789133"><ele>824.25</ele><time>2026-04-26T13:05:56.513Z</time></trkpt><trkpt lat="43.2594283" lon="13.0788683"><ele>820.5</ele><time>2026-04-26T13:05:57.513Z</time></trkpt><trkpt lat="43.2595667" lon="13.07882"><ele>816.75</ele><time>2026-04-26T13:05:58.512Z</time></trkpt><trkpt lat="43.2597" lon="13.078765"><ele>813.0</ele><time>2026-04-26T13:05:59.512Z</time></trkpt><trkpt lat="43.2598383" lon="13.07871"><ele>813.0</ele><time>2026-04-26T13:06:00.512Z</time></trkpt><trkpt lat="43.259965" lon="13.0786617"><ele>813.0</ele><time>2026-04-26T13:06:01.512Z</time></trkpt><trkpt lat="43.2600867" lon="13.0786083"><ele>813.0</ele><time>2026-04-26T13:06:02.512Z</time></trkpt><trkpt lat="43.2602067" lon="13.078555"><ele>813.0</ele><time>2026-04-26T13:06:03.512Z</time></trkpt><trkpt lat="43.260315" lon="13.078485"><ele>813.0</ele><time>2026-04-26T13:06:04.512Z</time></trkpt><trkpt lat="43.260415" lon="13.0784067"><ele>813.0</ele><time>2026-04-26T13:06:05.512Z</time></trkpt><trkpt lat="43.2605133" lon="13.0783333"><ele>813.0</ele><time>2026-04-26T13:06:06.512Z</time></trkpt><trkpt lat="43.2606033" lon="13.07827"><ele>813.0</ele><time>2026-04-26T13:06:07.512Z</time></trkpt><trkpt lat="43.260675" lon="13.07821"><ele>813.0</ele><time>2026-04-26T13:06:08.512Z</time></trkpt><trkpt lat="43.2607367" lon="13.07816"><ele>811.0</ele><time>2026-04-26T13:06:09.513Z</time></trkpt><trkpt lat="43.2607833" lon="13.078095"><ele>809.0</ele><time>2026-04-26T13:06:10.512Z</time></trkpt><trkpt lat="43.260805" lon="13.07801"><ele>807.0</ele><time>2026-04-26T13:06:11.512Z</time></trkpt><trkpt lat="43.2607867" lon="13.0779183"><ele>805.0</ele><time>2026-04-26T13:06:12.513Z</time></trkpt><trkpt lat="43.2607367" lon="13.07785"><ele>803.0</ele><time>2026-04-26T13:06:13.512Z</time></trkpt><trkpt lat="43.2606567" lon="13.0778017"><ele>801.0</ele><time>2026-04-26T13:06:14.512Z</time></trkpt><trkpt lat="43.26055" lon="13.07776"><ele>800.0</ele><time>2026-04-26T13:06:15.513Z</time></trkpt><trkpt lat="43.2604183" lon="13.077725"><ele>799.0</ele><time>2026-04-26T13:06:16.512Z</time></trkpt><trkpt lat="43.26027" lon="13.0776983"><ele>798.0</ele><time>2026-04-26T13:06:17.512Z</time></trkpt><trkpt lat="43.2601417" lon="13.0776933"><ele>797.0</ele><time>2026-04-26T13:06:18.512Z</time></trkpt><trkpt lat="43.2600133" lon="13.07771"><ele>797.0</ele><time>2026-04-26T13:06:19.512Z</time></trkpt><trkpt lat="43.2598983" lon="13.0777417"><ele>797.0</ele><time>2026-04-26T13:06:20.512Z</time></trkpt><trkpt lat="43.25978" lon="13.0777717"><ele>797.0</ele><time>2026-04-26T13:06:21.512Z</time></trkpt><trkpt lat="43.2596683" lon="13.0778"><ele>797.0</ele><time>2026-04-26T13:06:22.512Z</time></trkpt><trkpt lat="43.2595683" lon="13.0778533"><ele>796.4000000000001</ele><time>2026-04-26T13:06:23.512Z</time></trkpt><trkpt lat="43.25947" lon="13.0779167"><ele>795.8000000000001</ele><time>2026-04-26T13:06:24.512Z</time></trkpt><trkpt lat="43.259375" lon="13.077955"><ele>795.2</ele><time>2026-04-26T13:06:25.512Z</time></trkpt><trkpt lat="43.259285" lon="13.07796"><ele>794.6</ele><time>2026-04-26T13:06:26.512Z</time></trkpt><trkpt lat="43.2592083" lon="13.0779317"><ele>794.0</ele><time>2026-04-26T13:06:27.511Z</time></trkpt><trkpt lat="43.2591283" lon="13.0778667"><ele>794.0</ele><time>2026-04-26T13:06:28.512Z</time></trkpt><trkpt lat="43.2590483" lon="13.0777733"><ele>794.0</ele><time>2026-04-26T13:06:29.512Z</time></trkpt><trkpt lat="43.2589567" lon="13.0776667"><ele>794.0</ele><time>2026-04-26T13:06:30.512Z</time></trkpt><trkpt lat="43.2588483" lon="13.0775583"><ele>794.0</ele><time>2026-04-26T13:06:31.512Z</time></trkpt><trkpt lat="43.2587283" lon="13.0774617"><ele>790.5</ele><time>2026-04-26T13:06:32.512Z</time></trkpt><trkpt lat="43.2586067" lon="13.0773717"><ele>787.0</ele><time>2026-04-26T13:06:33.512Z</time></trkpt><trkpt lat="43.2584833" lon="13.0773017"><ele>783.5</ele><time>2026-04-26T13:06:34.513Z</time></trkpt><trkpt lat="43.2583617" lon="13.077245"><ele>780.0</ele><time>2026-04-26T13:06:35.513Z</time></trkpt><trkpt lat="43.2582333" lon="13.0772117"><ele>779.5</ele><time>2026-04-26T13:06:36.512Z</time></trkpt><trkpt lat="43.2581" lon="13.077185"><ele>779.0</ele><time>2026-04-26T13:06:37.512Z</time></trkpt><trkpt lat="43.2579583" lon="13.0771417"><ele>778.5</ele><time>2026-04-26T13:06:38.512Z</time></trkpt><trkpt lat="43.2578117" lon="13.0770733"><ele>778.0</ele><time>2026-04-26T13:06:39.512Z</time></trkpt><trkpt lat="43.2576767" lon="13.0770133"><ele>778.0</ele><time>2026-04-26T13:06:40.512Z</time></trkpt><trkpt lat="43.2575417" lon="13.076955"><ele>778.0</ele><time>2026-04-26T13:06:41.512Z</time></trkpt><trkpt lat="43.2574133" lon="13.0769067"><ele>778.0</ele><time>2026-04-26T13:06:42.512Z</time></trkpt><trkpt lat="43.2572767" lon="13.0768633"><ele>778.0</ele><time>2026-04-26T13:06:43.512Z</time></trkpt><trkpt lat="43.2571417" lon="13.0768317"><ele>777.0</ele><time>2026-04-26T13:06:44.512Z</time></trkpt><trkpt lat="43.2570033" lon="13.076815"><ele>776.0</ele><time>2026-04-26T13:06:45.512Z</time></trkpt><trkpt lat="43.2568633" lon="13.0768083"><ele>775.0</ele><time>2026-04-26T13:06:46.513Z</time></trkpt><trkpt lat="43.2567267" lon="13.0767983"><ele>774.0</ele><time>2026-04-26T13:06:47.512Z</time></trkpt><trkpt lat="43.25659" lon="13.07678"><ele>774.0</ele><time>2026-04-26T13:06:48.512Z</time></trkpt><trkpt lat="43.25646" lon="13.0767633"><ele>774.0</ele><time>2026-04-26T13:06:49.512Z</time></trkpt><trkpt lat="43.256335" lon="13.0767433"><ele>774.0</ele><time>2026-04-26T13:06:50.512Z</time></trkpt><trkpt lat="43.2562083" lon="13.076725"><ele>774.0</ele><time>2026-04-26T13:06:51.512Z</time></trkpt><trkpt lat="43.25608" lon="13.0767"><ele>772.0</ele><time>2026-04-26T13:06:52.512Z</time></trkpt><trkpt lat="43.255955" lon="13.07668"><ele>770.0</ele><time>2026-04-26T13:06:53.512Z</time></trkpt><trkpt lat="43.2558367" lon="13.07665"><ele>768.0</ele><time>2026-04-26T13:06:54.512Z</time></trkpt><trkpt lat="43.2557217" lon="13.0766117"><ele>766.0</ele><time>2026-04-26T13:06:55.513Z</time></trkpt><trkpt lat="43.2556133" lon="13.076565"><ele>761.5</ele><time>2026-04-26T13:06:56.512Z</time></trkpt><trkpt lat="43.2555032" lon="13.076511"><ele>757.0</ele><time>2026-04-26T13:06:57.512Z</time></trkpt><trkpt lat="43.2553934" lon="13.0764643"><ele>752.5</ele><time>2026-04-26T13:06:58.512Z</time></trkpt><trkpt lat="43.2552814" lon="13.07644"><ele>748.0</ele><time>2026-04-26T13:06:59.513Z</time></trkpt><trkpt lat="43.2551662" lon="13.0764423"><ele>748.0</ele><time>2026-04-26T13:07:00.513Z</time></trkpt><trkpt lat="43.255052" lon="13.0764732"><ele>748.0</ele><time>2026-04-26T13:07:01.512Z</time></trkpt><trkpt lat="43.2549467" lon="13.0765224"><ele>748.0</ele><time>2026-04-26T13:07:02.512Z</time></trkpt><trkpt lat="43.2548573" lon="13.0765924"><ele>748.0</ele><time>2026-04-26T13:07:03.512Z</time></trkpt><trkpt lat="43.2547766" lon="13.0766695"><ele>748.0</ele><time>2026-04-26T13:07:04.513Z</time></trkpt><trkpt lat="43.2547022" lon="13.0767447"><ele>748.5</ele><time>2026-04-26T13:07:05.513Z</time></trkpt><trkpt lat="43.2546298" lon="13.0768189"><ele>749.0</ele><time>2026-04-26T13:07:06.512Z</time></trkpt><trkpt lat="43.2545588" lon="13.0768888"><ele>749.5</ele><time>2026-04-26T13:07:07.512Z</time></trkpt><trkpt lat="43.2544919" lon="13.0769625"><ele>750.0</ele><time>2026-04-26T13:07:08.512Z</time></trkpt><trkpt lat="43.2544198" lon="13.0770303"><ele>750.5</ele><time>2026-04-26T13:07:09.512Z</time></trkpt><trkpt lat="43.2543452" lon="13.0770903"><ele>751.0</ele><time>2026-04-26T13:07:10.512Z</time></trkpt><trkpt lat="43.2542676" lon="13.0771541"><ele>751.0</ele><time>2026-04-26T13:07:11.512Z</time></trkpt><trkpt lat="43.254185" lon="13.0772311"><ele>751.0</ele><time>2026-04-26T13:07:12.512Z</time></trkpt><trkpt lat="43.2540995" lon="13.077317"><ele>751.0</ele><time>2026-04-26T13:07:13.512Z</time></trkpt><trkpt lat="43.254015" lon="13.0774135"><ele>751.0</ele><time>2026-04-26T13:07:14.513Z</time></trkpt><trkpt lat="43.2539276" lon="13.0775013"><ele>751.0</ele><time>2026-04-26T13:07:15.512Z</time></trkpt><trkpt lat="43.253835" lon="13.0775752"><ele>750.1999999999999</ele><time>2026-04-26T13:07:16.512Z</time></trkpt><trkpt lat="43.253742" lon="13.0776376"><ele>749.4</ele><time>2026-04-26T13:07:17.512Z</time></trkpt><trkpt lat="43.2536472" lon="13.0776942"><ele>748.6</ele><time>2026-04-26T13:07:18.512Z</time></trkpt><trkpt lat="43.2535481" lon="13.0777354"><ele>747.8</ele><time>2026-04-26T13:07:19.512Z</time></trkpt><trkpt lat="43.2534434" lon="13.07776"><ele>747.0</ele><time>2026-04-26T13:07:20.512Z</time></trkpt><trkpt lat="43.2533335" lon="13.0777674"><ele>747.0</ele><time>2026-04-26T13:07:21.512Z</time></trkpt><trkpt lat="43.2532185" lon="13.0777619"><ele>747.0</ele><time>2026-04-26T13:07:22.512Z</time></trkpt><trkpt lat="43.2530934" lon="13.0777534"><ele>747.0</ele><time>2026-04-26T13:07:23.512Z</time></trkpt><trkpt lat="43.2529696" lon="13.077747"><ele>747.0</ele><time>2026-04-26T13:07:24.513Z</time></trkpt><trkpt lat="43.2528556" lon="13.0777382"><ele>746.4000000000001</ele><time>2026-04-26T13:07:25.512Z</time></trkpt><trkpt lat="43.2527526" lon="13.0777286"><ele>745.8000000000001</ele><time>2026-04-26T13:07:26.512Z</time></trkpt><trkpt lat="43.2526532" lon="13.077718"><ele>745.2</ele><time>2026-04-26T13:07:27.512Z</time></trkpt><trkpt lat="43.2525619" lon="13.0777201"><ele>744.6</ele><time>2026-04-26T13:07:28.513Z</time></trkpt><trkpt lat="43.2524694" lon="13.0777507"><ele>744.0</ele><time>2026-04-26T13:07:29.512Z</time></trkpt><trkpt lat="43.2523733" lon="13.0777818"><ele>742.8333333333334</ele><time>2026-04-26T13:07:30.512Z</time></trkpt><trkpt lat="43.2522725" lon="13.0777941"><ele>741.6666666666666</ele><time>2026-04-26T13:07:31.513Z</time></trkpt><trkpt lat="43.252178" lon="13.07779"><ele>740.5</ele><time>2026-04-26T13:07:32.512Z</time></trkpt><trkpt lat="43.2520932" lon="13.077794"><ele>739.3333333333333</ele><time>2026-04-26T13:07:33.512Z</time></trkpt><trkpt lat="43.2520204" lon="13.0778277"><ele>738.1666666666666</ele><time>2026-04-26T13:07:34.512Z</time></trkpt><trkpt lat="43.2519564" lon="13.0779052"><ele>737.0</ele><time>2026-04-26T13:07:35.512Z</time></trkpt><trkpt lat="43.2519089" lon="13.0780191"><ele>737.0</ele><time>2026-04-26T13:07:36.512Z</time></trkpt><trkpt lat="43.2518942" lon="13.0781643"><ele>737.0</ele><time>2026-04-26T13:07:37.512Z</time></trkpt><trkpt lat="43.2519087" lon="13.0783292"><ele>737.0</ele><time>2026-04-26T13:07:38.512Z</time></trkpt><trkpt lat="43.2519467" lon="13.0784867"><ele>737.0</ele><time>2026-04-26T13:07:39.512Z</time></trkpt><trkpt lat="43.2520254" lon="13.0786438"><ele>737.25</ele><time>2026-04-26T13:07:40.512Z</time></trkpt><trkpt lat="43.2521319" lon="13.0787904"><ele>737.5</ele><time>2026-04-26T13:07:41.513Z</time></trkpt><trkpt lat="43.2522423" lon="13.0789359"><ele>737.75</ele><time>2026-04-26T13:07:42.513Z</time></trkpt><trkpt lat="43.2523413" lon="13.0790767"><ele>738.0</ele><time>2026-04-26T13:07:43.512Z</time></trkpt><trkpt lat="43.2524192" lon="13.0792125"><ele>739.8</ele><time>2026-04-26T13:07:44.512Z</time></trkpt><trkpt lat="43.2524816" lon="13.0793376"><ele>741.5999999999999</ele><time>2026-04-26T13:07:45.512Z</time></trkpt><trkpt lat="43.2525362" lon="13.0794485"><ele>743.4000000000001</ele><time>2026-04-26T13:07:46.512Z</time></trkpt><trkpt lat="43.2525988" lon="13.0795392"><ele>745.2</ele><time>2026-04-26T13:07:47.513Z</time></trkpt><trkpt lat="43.2526723" lon="13.079611"><ele>747.0</ele><time>2026-04-26T13:07:48.512Z</time></trkpt><trkpt lat="43.2527544" lon="13.0796578"><ele>747.0</ele><time>2026-04-26T13:07:49.512Z</time></trkpt><trkpt lat="43.2528481" lon="13.0796825"><ele>747.0</ele><time>2026-04-26T13:07:50.512Z</time></trkpt><trkpt lat="43.2529587" lon="13.0796864"><ele>747.0</ele><time>2026-04-26T13:07:51.513Z</time></trkpt><trkpt lat="43.2530746" lon="13.0796776"><ele>747.0</ele><time>2026-04-26T13:07:52.512Z</time></trkpt><trkpt lat="43.2531814" lon="13.0796761"><ele>747.0</ele><time>2026-04-26T13:07:53.512Z</time></trkpt><trkpt lat="43.2532738" lon="13.0796877"><ele>747.0</ele><time>2026-04-26T13:07:54.513Z</time></trkpt><trkpt lat="43.2533523" lon="13.0797089"><ele>747.0</ele><time>2026-04-26T13:07:55.512Z</time></trkpt><trkpt lat="43.2534148" lon="13.079763"><ele>747.0</ele><time>2026-04-26T13:07:56.513Z</time></trkpt><trkpt lat="43.2534478" lon="13.079855"><ele>747.0</ele><time>2026-04-26T13:07:57.512Z</time></trkpt><trkpt lat="43.253448" lon="13.0799768"><ele>747.0</ele><time>2026-04-26T13:07:58.512Z</time></trkpt><trkpt lat="43.2534343" lon="13.0801142"><ele>747.0</ele><time>2026-04-26T13:07:59.512Z</time></trkpt><trkpt lat="43.2534015" lon="13.080268"><ele>747.0</ele><time>2026-04-26T13:08:00.512Z</time></trkpt><trkpt lat="43.2533394" lon="13.0804299"><ele>747.0</ele><time>2026-04-26T13:08:01.512Z</time></trkpt><trkpt lat="43.2532611" lon="13.0805904"><ele>747.0</ele><time>2026-04-26T13:08:02.512Z</time></trkpt><trkpt lat="43.2531733" lon="13.0807533"><ele>747.0</ele><time>2026-04-26T13:08:03.512Z</time></trkpt><trkpt lat="43.2531233" lon="13.0808983"><ele>736.75</ele><time>2026-04-26T13:08:04.513Z</time></trkpt><trkpt lat="43.2530933" lon="13.0810483"><ele>726.5</ele><time>2026-04-26T13:08:05.512Z</time></trkpt><trkpt lat="43.2530767" lon="13.08121"><ele>716.25</ele><time>2026-04-26T13:08:06.512Z</time></trkpt><trkpt lat="43.2530683" lon="13.081385"><ele>706.0</ele><time>2026-04-26T13:08:07.512Z</time></trkpt><trkpt lat="43.253065" lon="13.0815467"><ele>708.0</ele><time>2026-04-26T13:08:08.512Z</time></trkpt><trkpt lat="43.2530533" lon="13.081705"><ele>710.0</ele><time>2026-04-26T13:08:09.512Z</time></trkpt><trkpt lat="43.25303" lon="13.08185"><ele>712.0</ele><time>2026-04-26T13:08:10.512Z</time></trkpt><trkpt lat="43.252995" lon="13.08197"><ele>714.0</ele><time>2026-04-26T13:08:11.512Z</time></trkpt><trkpt lat="43.2529433" lon="13.0820783"><ele>716.0</ele><time>2026-04-26T13:08:12.512Z</time></trkpt><trkpt lat="43.252885" lon="13.0821633"><ele>716.0</ele><time>2026-04-26T13:08:13.512Z</time></trkpt><trkpt lat="43.252815" lon="13.0822217"><ele>716.0</ele><time>2026-04-26T13:08:14.512Z</time></trkpt><trkpt lat="43.2527317" lon="13.0822733"><ele>716.0</ele><time>2026-04-26T13:08:15.512Z</time></trkpt><trkpt lat="43.25264" lon="13.082325"><ele>716.0</ele><time>2026-04-26T13:08:16.512Z</time></trkpt><trkpt lat="43.2525617" lon="13.0824033"><ele>716.0</ele><time>2026-04-26T13:08:17.512Z</time></trkpt><trkpt lat="43.2525167" lon="13.0825367"><ele>718.5</ele><time>2026-04-26T13:08:18.512Z</time></trkpt><trkpt lat="43.25251" lon="13.0827083"><ele>721.0</ele><time>2026-04-26T13:08:19.512Z</time></trkpt><trkpt lat="43.2525233" lon="13.0828833"><ele>723.5</ele><time>2026-04-26T13:08:20.513Z</time></trkpt><trkpt lat="43.2525567" lon="13.0830667"><ele>726.0</ele><time>2026-04-26T13:08:21.512Z</time></trkpt><trkpt lat="43.2525933" lon="13.083245"><ele>726.0</ele><time>2026-04-26T13:08:22.512Z</time></trkpt><trkpt lat="43.2526367" lon="13.0834233"><ele>726.0</ele><time>2026-04-26T13:08:23.512Z</time></trkpt><trkpt lat="43.2526767" lon="13.0836117"><ele>726.0</ele><time>2026-04-26T13:08:24.512Z</time></trkpt><trkpt lat="43.252725" lon="13.0838017"><ele>726.0</ele><time>2026-04-26T13:08:25.512Z</time></trkpt><trkpt lat="43.2527767" lon="13.0839867"><ele>723.75</ele><time>2026-04-26T13:08:26.512Z</time></trkpt><trkpt lat="43.2528167" lon="13.084165"><ele>721.5</ele><time>2026-04-26T13:08:27.512Z</time></trkpt><trkpt lat="43.2528467" lon="13.0843517"><ele>719.25</ele><time>2026-04-26T13:08:28.512Z</time></trkpt><trkpt lat="43.252885" lon="13.0845283"><ele>717.0</ele><time>2026-04-26T13:08:29.512Z</time></trkpt><trkpt lat="43.2529233" lon="13.0847217"><ele>717.0</ele><time>2026-04-26T13:08:30.512Z</time></trkpt><trkpt lat="43.25296" lon="13.08492"><ele>717.0</ele><time>2026-04-26T13:08:31.512Z</time></trkpt><trkpt lat="43.2529917" lon="13.085125"><ele>717.0</ele><time>2026-04-26T13:08:32.512Z</time></trkpt><trkpt lat="43.2530233" lon="13.0853233"><ele>717.0</ele><time>2026-04-26T13:08:33.513Z</time></trkpt><trkpt lat="43.253045" lon="13.0855317"><ele>717.5</ele><time>2026-04-26T13:08:34.512Z</time></trkpt><trkpt lat="43.2530683" lon="13.0857333"><ele>718.0</ele><time>2026-04-26T13:08:35.512Z</time></trkpt><trkpt lat="43.25309" lon="13.0859233"><ele>718.5</ele><time>2026-04-26T13:08:36.512Z</time></trkpt><trkpt lat="43.253105" lon="13.0861167"><ele>719.0</ele><time>2026-04-26T13:08:37.512Z</time></trkpt><trkpt lat="43.2531133" lon="13.0863167"><ele>729.4000000000001</ele><time>2026-04-26T13:08:38.512Z</time></trkpt><trkpt lat="43.2531283" lon="13.0864983"><ele>739.8</ele><time>2026-04-26T13:08:39.512Z</time></trkpt><trkpt lat="43.2531483" lon="13.0866567"><ele>750.2</ele><time>2026-04-26T13:08:40.512Z</time></trkpt><trkpt lat="43.2531683" lon="13.0868017"><ele>760.5999999999999</ele><time>2026-04-26T13:08:41.512Z</time></trkpt><trkpt lat="43.2531767" lon="13.0869233"><ele>771.0</ele><time>2026-04-26T13:08:42.513Z</time></trkpt><trkpt lat="43.253155" lon="13.0870383"><ele>767.4</ele><time>2026-04-26T13:08:43.512Z</time></trkpt><trkpt lat="43.2531217" lon="13.08716"><ele>763.8</ele><time>2026-04-26T13:08:44.512Z</time></trkpt><trkpt lat="43.25307" lon="13.0872917"><ele>760.1999999999999</ele><time>2026-04-26T13:08:45.513Z</time></trkpt><trkpt lat="43.2530267" lon="13.0874417"><ele>756.5999999999999</ele><time>2026-04-26T13:08:46.512Z</time></trkpt><trkpt lat="43.252995" lon="13.0875817"><ele>753.0</ele><time>2026-04-26T13:08:47.513Z</time></trkpt><trkpt lat="43.252965" lon="13.0877133"><ele>753.0</ele><time>2026-04-26T13:08:48.512Z</time></trkpt><trkpt lat="43.2529217" lon="13.087825"><ele>753.0</ele><time>2026-04-26T13:08:49.513Z</time></trkpt><trkpt lat="43.2528717" lon="13.0879183"><ele>753.0</ele><time>2026-04-26T13:08:50.512Z</time></trkpt><trkpt lat="43.2528033" lon="13.087995"><ele>753.0</ele><time>2026-04-26T13:08:51.513Z</time></trkpt><trkpt lat="43.2527233" lon="13.0880317"><ele>753.0</ele><time>2026-04-26T13:08:52.512Z</time></trkpt><trkpt lat="43.2526317" lon="13.0880583"><ele>753.0</ele><time>2026-04-26T13:08:53.513Z</time></trkpt><trkpt lat="43.25254" lon="13.0880967"><ele>753.0</ele><time>2026-04-26T13:08:54.512Z</time></trkpt><trkpt lat="43.252455" lon="13.0881583"><ele>753.0</ele><time>2026-04-26T13:08:55.512Z</time></trkpt><trkpt lat="43.252375" lon="13.0882417"><ele>753.0</ele><time>2026-04-26T13:08:56.512Z</time></trkpt><trkpt lat="43.2522967" lon="13.0883433"><ele>753.0</ele><time>2026-04-26T13:08:57.513Z</time></trkpt><trkpt lat="43.25224" lon="13.088455"><ele>753.0</ele><time>2026-04-26T13:08:58.512Z</time></trkpt><trkpt lat="43.2521717" lon="13.0885717"><ele>754.1666666666666</ele><time>2026-04-26T13:08:59.512Z</time></trkpt><trkpt lat="43.2521033" lon="13.0886733"><ele>755.3333333333334</ele><time>2026-04-26T13:09:00.512Z</time></trkpt><trkpt lat="43.252035" lon="13.0887467"><ele>756.5</ele><time>2026-04-26T13:09:01.512Z</time></trkpt><trkpt lat="43.251975" lon="13.0888217"><ele>757.6666666666667</ele><time>2026-04-26T13:09:02.513Z</time></trkpt><trkpt lat="43.2519433" lon="13.08892"><ele>758.8333333333334</ele><time>2026-04-26T13:09:03.512Z</time></trkpt><trkpt lat="43.2519417" lon="13.0890467"><ele>760.0</ele><time>2026-04-26T13:09:04.512Z</time></trkpt><trkpt lat="43.2519533" lon="13.08917"><ele>765.5</ele><time>2026-04-26T13:09:05.512Z</time></trkpt><trkpt lat="43.2519483" lon="13.08927"><ele>771.0</ele><time>2026-04-26T13:09:06.512Z</time></trkpt><trkpt lat="43.25187" lon="13.0893933"><ele>776.5</ele><time>2026-04-26T13:09:08.513Z</time></trkpt><trkpt lat="43.2517217" lon="13.0893817"><ele>782.0</ele><time>2026-04-26T13:09:10.512Z</time></trkpt><trkpt lat="43.2516083" lon="13.08931"><ele>782.0</ele><time>2026-04-26T13:09:11.512Z</time></trkpt><trkpt lat="43.2514667" lon="13.0892067"><ele>782.0</ele><time>2026-04-26T13:09:12.512Z</time></trkpt><trkpt lat="43.2513283" lon="13.0891083"><ele>782.0</ele><time>2026-04-26T13:09:13.512Z</time></trkpt><trkpt lat="43.2512133" lon="13.0890367"><ele>782.0</ele><time>2026-04-26T13:09:14.512Z</time></trkpt><trkpt lat="43.2511117" lon="13.089"><ele>782.1666666666667</ele><time>2026-04-26T13:09:15.512Z</time></trkpt><trkpt lat="43.25103" lon="13.0889833"><ele>782.3333333333334</ele><time>2026-04-26T13:09:16.513Z</time></trkpt><trkpt lat="43.25095" lon="13.0889867"><ele>782.5</ele><time>2026-04-26T13:09:17.512Z</time></trkpt><trkpt lat="43.25088" lon="13.0890133"><ele>782.6666666666667</ele><time>2026-04-26T13:09:18.513Z</time></trkpt><trkpt lat="43.25083" lon="13.089075"><ele>782.8333333333334</ele><time>2026-04-26T13:09:19.512Z</time></trkpt><trkpt lat="43.2507983" lon="13.0891683"><ele>783.0</ele><time>2026-04-26T13:09:20.512Z</time></trkpt><trkpt lat="43.2507967" lon="13.0892833"><ele>783.0</ele><time>2026-04-26T13:09:21.512Z</time></trkpt><trkpt lat="43.25082" lon="13.0894233"><ele>783.0</ele><time>2026-04-26T13:09:22.512Z</time></trkpt><trkpt lat="43.2508583" lon="13.08958"><ele>783.0</ele><time>2026-04-26T13:09:23.512Z</time></trkpt><trkpt lat="43.2509083" lon="13.0897417"><ele>783.0</ele><time>2026-04-26T13:09:24.513Z</time></trkpt><trkpt lat="43.25097" lon="13.0899017"><ele>787.3333333333333</ele><time>2026-04-26T13:09:25.512Z</time></trkpt><trkpt lat="43.25106" lon="13.090065"><ele>791.6666666666666</ele><time>2026-04-26T13:09:26.512Z</time></trkpt><trkpt lat="43.2511617" lon="13.0902283"><ele>796.0</ele><time>2026-04-26T13:09:27.512Z</time></trkpt><trkpt lat="43.251255" lon="13.0903867"><ele>796.0</ele><time>2026-04-26T13:09:28.512Z</time></trkpt><trkpt lat="43.2513233" lon="13.0905433"><ele>796.0</ele><time>2026-04-26T13:09:29.513Z</time></trkpt><trkpt lat="43.25137" lon="13.0907183"><ele>796.0</ele><time>2026-04-26T13:09:30.512Z</time></trkpt><trkpt lat="43.2514017" lon="13.0909"><ele>796.0</ele><time>2026-04-26T13:09:31.512Z</time></trkpt><trkpt lat="43.2514267" lon="13.0910933"><ele>799.0</ele><time>2026-04-26T13:09:32.512Z</time></trkpt><trkpt lat="43.2514517" lon="13.0912767"><ele>802.0</ele><time>2026-04-26T13:09:33.512Z</time></trkpt><trkpt lat="43.2514833" lon="13.0914583"><ele>805.0</ele><time>2026-04-26T13:09:34.512Z</time></trkpt><trkpt lat="43.2515317" lon="13.091635"><ele>808.0</ele><time>2026-04-26T13:09:35.513Z</time></trkpt><trkpt lat="43.2515883" lon="13.0918067"><ele>810.0</ele><time>2026-04-26T13:09:36.513Z</time></trkpt><trkpt lat="43.2516483" lon="13.0919767"><ele>812.0</ele><time>2026-04-26T13:09:37.512Z</time></trkpt><trkpt lat="43.251695" lon="13.0921483"><ele>814.0</ele><time>2026-04-26T13:09:38.512Z</time></trkpt><trkpt lat="43.25173" lon="13.09233"><ele>816.0</ele><time>2026-04-26T13:09:39.512Z</time></trkpt><trkpt lat="43.251765" lon="13.0925117"><ele>817.0</ele><time>2026-04-26T13:09:40.513Z</time></trkpt><trkpt lat="43.25181" lon="13.0926833"><ele>818.0</ele><time>2026-04-26T13:09:41.512Z</time></trkpt><trkpt lat="43.2518683" lon="13.09285"><ele>819.0</ele><time>2026-04-26T13:09:42.512Z</time></trkpt><trkpt lat="43.2519433" lon="13.093005"><ele>820.0</ele><time>2026-04-26T13:09:43.512Z</time></trkpt><trkpt lat="43.2520317" lon="13.093155"><ele>818.0</ele><time>2026-04-26T13:09:44.512Z</time></trkpt><trkpt lat="43.252115" lon="13.0933033"><ele>816.0</ele><time>2026-04-26T13:09:45.512Z</time></trkpt><trkpt lat="43.2521867" lon="13.0934567"><ele>814.0</ele><time>2026-04-26T13:09:46.512Z</time></trkpt><trkpt lat="43.25225" lon="13.0936"><ele>812.0</ele><time>2026-04-26T13:09:47.512Z</time></trkpt><trkpt lat="43.25232" lon="13.0937"><ele>816.25</ele><time>2026-04-26T13:09:48.513Z</time></trkpt><trkpt lat="43.2524133" lon="13.0937633"><ele>820.5</ele><time>2026-04-26T13:09:49.513Z</time></trkpt><trkpt lat="43.2525217" lon="13.09382"><ele>824.75</ele><time>2026-04-26T13:09:50.512Z</time></trkpt><trkpt lat="43.2526283" lon="13.0938933"><ele>829.0</ele><time>2026-04-26T13:09:51.512Z</time></trkpt><trkpt lat="43.25273" lon="13.0939833"><ele>826.25</ele><time>2026-04-26T13:09:52.512Z</time></trkpt><trkpt lat="43.252835" lon="13.09409"><ele>823.5</ele><time>2026-04-26T13:09:53.512Z</time></trkpt><trkpt lat="43.25293" lon="13.0942233"><ele>820.75</ele><time>2026-04-26T13:09:54.512Z</time></trkpt><trkpt lat="43.25303" lon="13.0943583"><ele>818.0</ele><time>2026-04-26T13:09:55.513Z</time></trkpt><trkpt lat="43.25312" lon="13.0945067"><ele>823.0</ele><time>2026-04-26T13:09:56.512Z</time></trkpt><trkpt lat="43.2532017" lon="13.0946733"><ele>828.0</ele><time>2026-04-26T13:09:57.512Z</time></trkpt><trkpt lat="43.2532817" lon="13.094845"><ele>833.0</ele><time>2026-04-26T13:09:58.512Z</time></trkpt><trkpt lat="43.2533583" lon="13.095035"><ele>833.0</ele><time>2026-04-26T13:09:59.512Z</time></trkpt><trkpt lat="43.2534317" lon="13.09522"><ele>833.0</ele><time>2026-04-26T13:10:00.512Z</time></trkpt><trkpt lat="43.2535167" lon="13.0954167"><ele>833.0</ele><time>2026-04-26T13:10:01.512Z</time></trkpt><trkpt lat="43.2535983" lon="13.0956117"><ele>829.0</ele><time>2026-04-26T13:10:02.512Z</time></trkpt><trkpt lat="43.25368" lon="13.0957967"><ele>825.0</ele><time>2026-04-26T13:10:03.512Z</time></trkpt><trkpt lat="43.253765" lon="13.0959683"><ele>821.0</ele><time>2026-04-26T13:10:04.512Z</time></trkpt><trkpt lat="43.2538417" lon="13.0961283"><ele>817.0</ele><time>2026-04-26T13:10:05.512Z</time></trkpt><trkpt lat="43.2539183" lon="13.09629"><ele>820.25</ele><time>2026-04-26T13:10:06.513Z</time></trkpt><trkpt lat="43.2539867" lon="13.0964433"><ele>823.5</ele><time>2026-04-26T13:10:07.512Z</time></trkpt><trkpt lat="43.2540533" lon="13.0965933"><ele>826.75</ele><time>2026-04-26T13:10:08.512Z</time></trkpt><trkpt lat="43.2541083" lon="13.09673"><ele>830.0</ele><time>2026-04-26T13:10:09.512Z</time></trkpt><trkpt lat="43.2541717" lon="13.096865"><ele>830.0</ele><time>2026-04-26T13:10:10.512Z</time></trkpt><trkpt lat="43.254245" lon="13.0969917"><ele>830.0</ele><time>2026-04-26T13:10:11.512Z</time></trkpt><trkpt lat="43.2543233" lon="13.0971217"><ele>830.0</ele><time>2026-04-26T13:10:12.511Z</time></trkpt><trkpt lat="43.254395" lon="13.0972433"><ele>830.0</ele><time>2026-04-26T13:10:13.511Z</time></trkpt><trkpt lat="43.2544683" lon="13.0973733"><ele>824.4</ele><time>2026-04-26T13:10:14.511Z</time></trkpt><trkpt lat="43.254535" lon="13.0974967"><ele>818.8</ele><time>2026-04-26T13:10:15.511Z</time></trkpt><trkpt lat="43.2546" lon="13.0976117"><ele>813.2</ele><time>2026-04-26T13:10:16.512Z</time></trkpt><trkpt lat="43.2546567" lon="13.097745"><ele>807.6</ele><time>2026-04-26T13:10:17.511Z</time></trkpt><trkpt lat="43.2547067" lon="13.0978733"><ele>802.0</ele><time>2026-04-26T13:10:18.511Z</time></trkpt><trkpt lat="43.2547517" lon="13.0980117"><ele>803.5</ele><time>2026-04-26T13:10:19.511Z</time></trkpt><trkpt lat="43.254795" lon="13.09814"><ele>805.0</ele><time>2026-04-26T13:10:20.511Z</time></trkpt><trkpt lat="43.2548717" lon="13.0982483"><ele>806.5</ele><time>2026-04-26T13:10:21.511Z</time></trkpt><trkpt lat="43.2549683" lon="13.098345"><ele>808.0</ele><time>2026-04-26T13:10:22.511Z</time></trkpt><trkpt lat="43.255075" lon="13.098425"><ele>808.0</ele><time>2026-04-26T13:10:23.511Z</time></trkpt><trkpt lat="43.2551833" lon="13.0984917"><ele>808.0</ele><time>2026-04-26T13:10:24.512Z</time></trkpt><trkpt lat="43.2552883" lon="13.0985583"><ele>808.0</ele><time>2026-04-26T13:10:25.511Z</time></trkpt><trkpt lat="43.2553817" lon="13.0986267"><ele>808.0</ele><time>2026-04-26T13:10:26.512Z</time></trkpt><trkpt lat="43.255465" lon="13.098705"><ele>808.0</ele><time>2026-04-26T13:10:27.511Z</time></trkpt><trkpt lat="43.2555383" lon="13.0987917"><ele>807.9999999999999</ele><time>2026-04-26T13:10:28.511Z</time></trkpt><trkpt lat="43.2556067" lon="13.0988833"><ele>808.0</ele><time>2026-04-26T13:10:29.511Z</time></trkpt><trkpt lat="43.255665" lon="13.0989667"><ele>808.0</ele><time>2026-04-26T13:10:30.511Z</time></trkpt><trkpt lat="43.2557183" lon="13.0990533"><ele>808.0</ele><time>2026-04-26T13:10:31.511Z</time></trkpt><trkpt lat="43.25574" lon="13.0991417"><ele>807.9999999999999</ele><time>2026-04-26T13:10:32.511Z</time></trkpt><trkpt lat="43.2557317" lon="13.0992467"><ele>808.0</ele><time>2026-04-26T13:10:33.511Z</time></trkpt><trkpt lat="43.2556933" lon="13.09936"><ele>809.0</ele><time>2026-04-26T13:10:34.511Z</time></trkpt><trkpt lat="43.25563" lon="13.0994967"><ele>810.0</ele><time>2026-04-26T13:10:35.511Z</time></trkpt><trkpt lat="43.2555617" lon="13.0996533"><ele>811.0</ele><time>2026-04-26T13:10:36.511Z</time></trkpt><trkpt lat="43.2554983" lon="13.0998067"><ele>812.0</ele><time>2026-04-26T13:10:37.511Z</time></trkpt><trkpt lat="43.2554233" lon="13.0999583"><ele>803.25</ele><time>2026-04-26T13:10:38.511Z</time></trkpt><trkpt lat="43.25535" lon="13.10009"><ele>794.5</ele><time>2026-04-26T13:10:39.511Z</time></trkpt><trkpt lat="43.2552717" lon="13.1002083"><ele>785.75</ele><time>2026-04-26T13:10:40.511Z</time></trkpt><trkpt lat="43.2551817" lon="13.1003167"><ele>777.0</ele><time>2026-04-26T13:10:41.511Z</time></trkpt><trkpt lat="43.2550833" lon="13.1004267"><ele>777.0</ele><time>2026-04-26T13:10:42.511Z</time></trkpt><trkpt lat="43.2549917" lon="13.1005333"><ele>777.0</ele><time>2026-04-26T13:10:43.512Z</time></trkpt><trkpt lat="43.2549083" lon="13.1006367"><ele>777.0</ele><time>2026-04-26T13:10:44.511Z</time></trkpt><trkpt lat="43.2548233" lon="13.1007533"><ele>777.0</ele><time>2026-04-26T13:10:45.511Z</time></trkpt><trkpt lat="43.2547317" lon="13.1008467"><ele>774.2</ele><time>2026-04-26T13:10:46.511Z</time></trkpt><trkpt lat="43.2546367" lon="13.100935"><ele>771.4000000000001</ele><time>2026-04-26T13:10:47.511Z</time></trkpt><trkpt lat="43.2545467" lon="13.1010233"><ele>768.5999999999999</ele><time>2026-04-26T13:10:48.511Z</time></trkpt><trkpt lat="43.2544633" lon="13.1011167"><ele>765.8</ele><time>2026-04-26T13:10:49.512Z</time></trkpt><trkpt lat="43.254385" lon="13.101225"><ele>763.0</ele><time>2026-04-26T13:10:50.512Z</time></trkpt><trkpt lat="43.25431" lon="13.1013417"><ele>763.0</ele><time>2026-04-26T13:10:51.511Z</time></trkpt><trkpt lat="43.25425" lon="13.1014483"><ele>763.0</ele><time>2026-04-26T13:10:52.512Z</time></trkpt><trkpt lat="43.2542" lon="13.1015433"><ele>763.0</ele><time>2026-04-26T13:10:53.511Z</time></trkpt><trkpt lat="43.254175" lon="13.101635"><ele>763.0</ele><time>2026-04-26T13:10:54.512Z</time></trkpt><trkpt lat="43.2541567" lon="13.1017683"><ele>763.0</ele><time>2026-04-26T13:10:56.511Z</time></trkpt><trkpt lat="43.25409" lon="13.1018567"><ele>763.0</ele><time>2026-04-26T13:12:05.511Z</time></trkpt><trkpt lat="43.2540367" lon="13.1019183"><ele>763.2</ele><time>2026-04-26T13:12:06.511Z</time></trkpt><trkpt lat="43.2539717" lon="13.1019817"><ele>763.4</ele><time>2026-04-26T13:12:07.511Z</time></trkpt><trkpt lat="43.2538917" lon="13.1020367"><ele>763.6</ele><time>2026-04-26T13:12:08.511Z</time></trkpt><trkpt lat="43.2538267" lon="13.1020733"><ele>763.8000000000001</ele><time>2026-04-26T13:12:09.511Z</time></trkpt><trkpt lat="43.25372" lon="13.102075"><ele>764.0</ele><time>2026-04-26T13:12:11.511Z</time></trkpt><trkpt lat="43.2536167" lon="13.101945"><ele>764.0</ele><time>2026-04-26T13:12:13.511Z</time></trkpt><trkpt lat="43.2535717" lon="13.1018267"><ele>764.0</ele><time>2026-04-26T13:12:14.511Z</time></trkpt><trkpt lat="43.2535233" lon="13.10169"><ele>764.0</ele><time>2026-04-26T13:12:15.511Z</time></trkpt><trkpt lat="43.253465" lon="13.1015567"><ele>764.0</ele><time>2026-04-26T13:12:16.512Z</time></trkpt><trkpt lat="43.2533983" lon="13.1014283"><ele>764.0</ele><time>2026-04-26T13:12:17.511Z</time></trkpt><trkpt lat="43.253325" lon="13.1013017"><ele>764.5</ele><time>2026-04-26T13:12:18.511Z</time></trkpt><trkpt lat="43.25325" lon="13.1011667"><ele>765.0</ele><time>2026-04-26T13:12:19.511Z</time></trkpt><trkpt lat="43.2531733" lon="13.1010333"><ele>765.5</ele><time>2026-04-26T13:12:20.511Z</time></trkpt><trkpt lat="43.2531" lon="13.1008983"><ele>766.0</ele><time>2026-04-26T13:12:21.511Z</time></trkpt><trkpt lat="43.2530267" lon="13.10076"><ele>768.25</ele><time>2026-04-26T13:12:22.511Z</time></trkpt><trkpt lat="43.252955" lon="13.1006283"><ele>770.5</ele><time>2026-04-26T13:12:23.511Z</time></trkpt><trkpt lat="43.2528833" lon="13.1004867"><ele>772.75</ele><time>2026-04-26T13:12:24.511Z</time></trkpt><trkpt lat="43.2528083" lon="13.100345"><ele>775.0</ele><time>2026-04-26T13:12:25.512Z</time></trkpt><trkpt lat="43.2527417" lon="13.1002233"><ele>775.0</ele><time>2026-04-26T13:12:26.511Z</time></trkpt><trkpt lat="43.2526683" lon="13.1001033"><ele>775.0</ele><time>2026-04-26T13:12:27.511Z</time></trkpt><trkpt lat="43.2525983" lon="13.1"><ele>775.0</ele><time>2026-04-26T13:12:28.512Z</time></trkpt><trkpt lat="43.252515" lon="13.0999067"><ele>775.0</ele><time>2026-04-26T13:12:29.511Z</time></trkpt><trkpt lat="43.25242" lon="13.0998233"><ele>775.0</ele><time>2026-04-26T13:12:30.511Z</time></trkpt><trkpt lat="43.2523183" lon="13.0997317"><ele>773.8333333333333</ele><time>2026-04-26T13:12:31.511Z</time></trkpt><trkpt lat="43.2522283" lon="13.0996367"><ele>772.6666666666666</ele><time>2026-04-26T13:12:32.512Z</time></trkpt><trkpt lat="43.252145" lon="13.099565"><ele>771.5</ele><time>2026-04-26T13:12:33.511Z</time></trkpt><trkpt lat="43.2520667" lon="13.0995283"><ele>770.3333333333333</ele><time>2026-04-26T13:12:34.511Z</time></trkpt><trkpt lat="43.2519883" lon="13.0995333"><ele>769.1666666666666</ele><time>2026-04-26T13:12:35.511Z</time></trkpt><trkpt lat="43.251925" lon="13.0995867"><ele>768.0</ele><time>2026-04-26T13:12:36.512Z</time></trkpt><trkpt lat="43.2518733" lon="13.0996783"><ele>768.0</ele><time>2026-04-26T13:12:37.511Z</time></trkpt><trkpt lat="43.251855" lon="13.0997967"><ele>768.0</ele><time>2026-04-26T13:12:38.511Z</time></trkpt><trkpt lat="43.2518533" lon="13.0999333"><ele>768.0</ele><time>2026-04-26T13:12:39.512Z</time></trkpt><trkpt lat="43.251855" lon="13.1000717"><ele>768.0</ele><time>2026-04-26T13:12:40.512Z</time></trkpt><trkpt lat="43.2518417" lon="13.1001967"><ele>768.0</ele><time>2026-04-26T13:12:41.511Z</time></trkpt><trkpt lat="43.2518117" lon="13.1003017"><ele>773.0</ele><time>2026-04-26T13:12:42.511Z</time></trkpt><trkpt lat="43.25176" lon="13.1003883"><ele>778.0</ele><time>2026-04-26T13:12:43.511Z</time></trkpt><trkpt lat="43.2516817" lon="13.1004533"><ele>783.0</ele><time>2026-04-26T13:12:44.511Z</time></trkpt><trkpt lat="43.2515883" lon="13.1005033"><ele>788.0</ele><time>2026-04-26T13:12:45.511Z</time></trkpt><trkpt lat="43.2514917" lon="13.10055"><ele>793.0</ele><time>2026-04-26T13:12:46.512Z</time></trkpt><trkpt lat="43.25141" lon="13.1005483"><ele>796.4</ele><time>2026-04-26T13:12:47.511Z</time></trkpt><trkpt lat="43.251335" lon="13.10053"><ele>799.8</ele><time>2026-04-26T13:12:48.511Z</time></trkpt><trkpt lat="43.251265" lon="13.10047"><ele>803.2</ele><time>2026-04-26T13:12:49.511Z</time></trkpt><trkpt lat="43.2512083" lon="13.1003817"><ele>806.6</ele><time>2026-04-26T13:12:50.511Z</time></trkpt><trkpt lat="43.2511533" lon="13.1002483"><ele>810.0</ele><time>2026-04-26T13:12:51.511Z</time></trkpt><trkpt lat="43.2511017" lon="13.1000917"><ele>806.5</ele><time>2026-04-26T13:12:52.511Z</time></trkpt><trkpt lat="43.2510717" lon="13.0999167"><ele>803.0</ele><time>2026-04-26T13:12:53.511Z</time></trkpt><trkpt lat="43.2510467" lon="13.0997433"><ele>799.5</ele><time>2026-04-26T13:12:54.512Z</time></trkpt><trkpt lat="43.2510083" lon="13.0995767"><ele>796.0</ele><time>2026-04-26T13:12:55.511Z</time></trkpt><trkpt lat="43.2509617" lon="13.0994317"><ele>796.0</ele><time>2026-04-26T13:12:56.511Z</time></trkpt><trkpt lat="43.2509133" lon="13.0992983"><ele>796.0</ele><time>2026-04-26T13:12:57.511Z</time></trkpt><trkpt lat="43.2508517" lon="13.0991883"><ele>796.0</ele><time>2026-04-26T13:12:58.511Z</time></trkpt><trkpt lat="43.250785" lon="13.099105"><ele>796.0</ele><time>2026-04-26T13:12:59.511Z</time></trkpt><trkpt lat="43.250705" lon="13.09905"><ele>796.0</ele><time>2026-04-26T13:13:00.511Z</time></trkpt><trkpt lat="43.250615" lon="13.0990233"><ele>796.4</ele><time>2026-04-26T13:13:01.511Z</time></trkpt><trkpt lat="43.25051" lon="13.0990167"><ele>796.8</ele><time>2026-04-26T13:13:02.511Z</time></trkpt><trkpt lat="43.2504083" lon="13.0990167"><ele>797.1999999999999</ele><time>2026-04-26T13:13:03.511Z</time></trkpt><trkpt lat="43.2503217" lon="13.0989983"><ele>797.5999999999999</ele><time>2026-04-26T13:13:04.511Z</time></trkpt><trkpt lat="43.2502383" lon="13.098945"><ele>798.0</ele><time>2026-04-26T13:13:05.511Z</time></trkpt><trkpt lat="43.2501633" lon="13.0988617"><ele>798.0</ele><time>2026-04-26T13:13:06.511Z</time></trkpt><trkpt lat="43.250095" lon="13.0987767"><ele>798.0</ele><time>2026-04-26T13:13:07.511Z</time></trkpt><trkpt lat="43.2500317" lon="13.0986967"><ele>798.0</ele><time>2026-04-26T13:13:08.511Z</time></trkpt><trkpt lat="43.2499817" lon="13.09863"><ele>798.0</ele><time>2026-04-26T13:13:09.511Z</time></trkpt><trkpt lat="43.24989" lon="13.09859"><ele>798.0</ele><time>2026-04-26T13:13:11.512Z</time></trkpt><trkpt lat="43.2498" lon="13.09865"><ele>798.0</ele><time>2026-04-26T13:13:13.511Z</time></trkpt><trkpt lat="43.24969" lon="13.0987267"><ele>800.1666666666666</ele><time>2026-04-26T13:13:15.511Z</time></trkpt><trkpt lat="43.249625" lon="13.0987617"><ele>802.3333333333333</ele><time>2026-04-26T13:13:16.512Z</time></trkpt><trkpt lat="43.2495633" lon="13.098795"><ele>804.5</ele><time>2026-04-26T13:13:17.511Z</time></trkpt><trkpt lat="43.2494867" lon="13.0988417"><ele>806.6666666666666</ele><time>2026-04-26T13:13:19.511Z</time></trkpt><trkpt lat="43.2494217" lon="13.098765"><ele>808.8333333333333</ele><time>2026-04-26T13:19:35.51Z</time></trkpt><trkpt lat="43.24934" lon="13.0987333"><ele>811.0</ele><time>2026-04-26T13:19:37.51Z</time></trkpt><trkpt lat="43.2492333" lon="13.09876"><ele>811.0</ele><time>2026-04-26T13:19:39.511Z</time></trkpt><trkpt lat="43.2491317" lon="13.0987917"><ele>811.0</ele><time>2026-04-26T13:19:41.51Z</time></trkpt><trkpt lat="43.24906" lon="13.098865"><ele>811.0</ele><time>2026-04-26T13:19:44.511Z</time></trkpt><trkpt lat="43.2490383" lon="13.099015"><ele>811.0</ele><time>2026-04-26T13:19:46.511Z</time></trkpt><trkpt lat="43.2490283" lon="13.0991317"><ele>811.0</ele><time>2026-04-26T13:19:47.51Z</time></trkpt><trkpt lat="43.2490117" lon="13.0992667"><ele>810.0</ele><time>2026-04-26T13:19:48.51Z</time></trkpt><trkpt lat="43.248985" lon="13.099405"><ele>809.0</ele><time>2026-04-26T13:19:49.51Z</time></trkpt><trkpt lat="43.248945" lon="13.0995333"><ele>808.0</ele><time>2026-04-26T13:19:50.51Z</time></trkpt><trkpt lat="43.2489017" lon="13.0996667"><ele>807.0</ele><time>2026-04-26T13:19:51.51Z</time></trkpt><trkpt lat="43.24885" lon="13.099805"><ele>806.0</ele><time>2026-04-26T13:19:52.51Z</time></trkpt><trkpt lat="43.2488" lon="13.09994"><ele>806.0</ele><time>2026-04-26T13:19:53.51Z</time></trkpt><trkpt lat="43.2487583" lon="13.10007"><ele>806.0</ele><time>2026-04-26T13:19:54.51Z</time></trkpt><trkpt lat="43.24873" lon="13.1002017"><ele>806.0</ele><time>2026-04-26T13:19:55.51Z</time></trkpt><trkpt lat="43.248725" lon="13.1003367"><ele>806.0</ele><time>2026-04-26T13:19:56.51Z</time></trkpt><trkpt lat="43.2487317" lon="13.1004867"><ele>806.0</ele><time>2026-04-26T13:19:57.51Z</time></trkpt><trkpt lat="43.2487433" lon="13.1006383"><ele>807.5</ele><time>2026-04-26T13:19:58.51Z</time></trkpt><trkpt lat="43.2487467" lon="13.1007967"><ele>809.0</ele><time>2026-04-26T13:19:59.51Z</time></trkpt><trkpt lat="43.2487517" lon="13.1009633"><ele>810.5</ele><time>2026-04-26T13:20:00.51Z</time></trkpt><trkpt lat="43.2487467" lon="13.1011283"><ele>812.0</ele><time>2026-04-26T13:20:01.511Z</time></trkpt><trkpt lat="43.24873" lon="13.1013067"><ele>812.0</ele><time>2026-04-26T13:20:02.51Z</time></trkpt><trkpt lat="43.2487067" lon="13.101485"><ele>812.0</ele><time>2026-04-26T13:20:03.511Z</time></trkpt><trkpt lat="43.2486783" lon="13.1016583"><ele>812.0</ele><time>2026-04-26T13:20:04.51Z</time></trkpt><trkpt lat="43.2486383" lon="13.1018383"><ele>812.0</ele><time>2026-04-26T13:20:05.511Z</time></trkpt><trkpt lat="43.248595" lon="13.1020167"><ele>813.5</ele><time>2026-04-26T13:20:06.51Z</time></trkpt><trkpt lat="43.248545" lon="13.1021983"><ele>815.0</ele><time>2026-04-26T13:20:07.51Z</time></trkpt><trkpt lat="43.2484983" lon="13.1023783"><ele>816.5</ele><time>2026-04-26T13:20:08.511Z</time></trkpt><trkpt lat="43.248465" lon="13.102565"><ele>818.0</ele><time>2026-04-26T13:20:09.51Z</time></trkpt><trkpt lat="43.248425" lon="13.102755"><ele>820.5</ele><time>2026-04-26T13:20:10.51Z</time></trkpt><trkpt lat="43.24839" lon="13.1029367"><ele>823.0</ele><time>2026-04-26T13:20:11.51Z</time></trkpt><trkpt lat="43.2483467" lon="13.1031233"><ele>825.5</ele><time>2026-04-26T13:20:12.51Z</time></trkpt><trkpt lat="43.2483033" lon="13.1033067"><ele>828.0</ele><time>2026-04-26T13:20:13.51Z</time></trkpt><trkpt lat="43.2482733" lon="13.1034917"><ele>830.0</ele><time>2026-04-26T13:20:14.511Z</time></trkpt><trkpt lat="43.248235" lon="13.1036667"><ele>832.0</ele><time>2026-04-26T13:20:15.51Z</time></trkpt><trkpt lat="43.248195" lon="13.1038467"><ele>834.0</ele><time>2026-04-26T13:20:16.51Z</time></trkpt><trkpt lat="43.2481633" lon="13.1040267"><ele>836.0</ele><time>2026-04-26T13:20:17.51Z</time></trkpt><trkpt lat="43.2481317" lon="13.104205"><ele>837.25</ele><time>2026-04-26T13:20:18.511Z</time></trkpt><trkpt lat="43.24809" lon="13.1043833"><ele>838.5</ele><time>2026-04-26T13:20:19.51Z</time></trkpt><trkpt lat="43.2480383" lon="13.1045667"><ele>839.75</ele><time>2026-04-26T13:20:20.51Z</time></trkpt><trkpt lat="43.247985" lon="13.104725"><ele>841.0</ele><time>2026-04-26T13:20:21.511Z</time></trkpt><trkpt lat="43.2479367" lon="13.104875"><ele>841.0</ele><time>2026-04-26T13:20:22.51Z</time></trkpt><trkpt lat="43.247885" lon="13.10501"><ele>841.0</ele><time>2026-04-26T13:20:23.51Z</time></trkpt><trkpt lat="43.2478383" lon="13.1051433"><ele>841.0</ele><time>2026-04-26T13:20:24.51Z</time></trkpt><trkpt lat="43.2477917" lon="13.1052567"><ele>841.0</ele><time>2026-04-26T13:20:25.51Z</time></trkpt><trkpt lat="43.24776" lon="13.1053483"><ele>841.0</ele><time>2026-04-26T13:20:26.51Z</time></trkpt><trkpt lat="43.2476533" lon="13.10544"><ele>840.9999999999999</ele><time>2026-04-26T13:20:28.51Z</time></trkpt><trkpt lat="43.2475783" lon="13.105455"><ele>841.0</ele><time>2026-04-26T13:20:29.51Z</time></trkpt><trkpt lat="43.24749" lon="13.1054633"><ele>841.0</ele><time>2026-04-26T13:20:30.51Z</time></trkpt><trkpt lat="43.247405" lon="13.1054633"><ele>841.0</ele><time>2026-04-26T13:20:31.51Z</time></trkpt><trkpt lat="43.2473317" lon="13.1054667"><ele>840.9999999999999</ele><time>2026-04-26T13:20:32.51Z</time></trkpt><trkpt lat="43.2472483" lon="13.1055433"><ele>841.0</ele><time>2026-04-26T13:20:34.51Z</time></trkpt><trkpt lat="43.2472333" lon="13.1056333"><ele>839.8333333333333</ele><time>2026-04-26T13:20:35.51Z</time></trkpt><trkpt lat="43.24726" lon="13.1057333"><ele>838.6666666666666</ele><time>2026-04-26T13:20:36.51Z</time></trkpt><trkpt lat="43.2473117" lon="13.1058483"><ele>837.5</ele><time>2026-04-26T13:20:37.51Z</time></trkpt><trkpt lat="43.2473617" lon="13.1059633"><ele>836.3333333333333</ele><time>2026-04-26T13:20:38.51Z</time></trkpt><trkpt lat="43.2474" lon="13.10606"><ele>835.1666666666666</ele><time>2026-04-26T13:20:39.51Z</time></trkpt><trkpt lat="43.2474133" lon="13.1061717"><ele>834.0</ele><time>2026-04-26T13:20:41.51Z</time></trkpt><trkpt lat="43.2473417" lon="13.1061633"><ele>832.2</ele><time>2026-04-26T13:20:43.51Z</time></trkpt><trkpt lat="43.2472567" lon="13.10606"><ele>830.4000000000001</ele><time>2026-04-26T13:20:45.511Z</time></trkpt><trkpt lat="43.2472067" lon="13.1059683"><ele>828.6</ele><time>2026-04-26T13:20:46.511Z</time></trkpt><trkpt lat="43.2471417" lon="13.1058633"><ele>826.8</ele><time>2026-04-26T13:20:47.51Z</time></trkpt><trkpt lat="43.247065" lon="13.1057333"><ele>825.0</ele><time>2026-04-26T13:20:48.51Z</time></trkpt><trkpt lat="43.24699" lon="13.1056"><ele>825.0</ele><time>2026-04-26T13:20:49.51Z</time></trkpt><trkpt lat="43.2469367" lon="13.105495"><ele>825.0</ele><time>2026-04-26T13:20:50.511Z</time></trkpt><trkpt lat="43.2468883" lon="13.1053967"><ele>825.0</ele><time>2026-04-26T13:20:51.51Z</time></trkpt><trkpt lat="43.24685" lon="13.10532"><ele>825.0</ele><time>2026-04-26T13:20:52.51Z</time></trkpt><trkpt lat="43.2467833" lon="13.1052817"><ele>825.0</ele><time>2026-04-26T13:20:54.51Z</time></trkpt><trkpt lat="43.24673" lon="13.1053667"><ele>825.0</ele><time>2026-04-26T13:20:56.511Z</time></trkpt><trkpt lat="43.2467383" lon="13.1055483"><ele>825.0</ele><time>2026-04-26T13:20:58.511Z</time></trkpt><trkpt lat="43.2467667" lon="13.1056717"><ele>825.0</ele><time>2026-04-26T13:20:59.51Z</time></trkpt><trkpt lat="43.2467967" lon="13.105825"><ele>825.0</ele><time>2026-04-26T13:21:00.511Z</time></trkpt><trkpt lat="43.2468267" lon="13.1059783"><ele>825.0</ele><time>2026-04-26T13:21:01.51Z</time></trkpt><trkpt lat="43.24685" lon="13.1061317"><ele>825.0</ele><time>2026-04-26T13:21:02.51Z</time></trkpt><trkpt lat="43.2468683" lon="13.1062667"><ele>823.1666666666666</ele><time>2026-04-26T13:21:03.51Z</time></trkpt><trkpt lat="43.2468817" lon="13.106375"><ele>821.3333333333333</ele><time>2026-04-26T13:21:04.51Z</time></trkpt><trkpt lat="43.2468817" lon="13.1064633"><ele>819.5</ele><time>2026-04-26T13:21:05.51Z</time></trkpt><trkpt lat="43.2468517" lon="13.10655"><ele>817.6666666666666</ele><time>2026-04-26T13:21:06.51Z</time></trkpt><trkpt lat="43.2468083" lon="13.1066267"><ele>815.8333333333333</ele><time>2026-04-26T13:21:07.511Z</time></trkpt><trkpt lat="43.2467383" lon="13.1066783"><ele>814.0</ele><time>2026-04-26T13:21:08.51Z</time></trkpt><trkpt lat="43.2466583" lon="13.10673"><ele>812.25</ele><time>2026-04-26T13:21:09.511Z</time></trkpt><trkpt lat="43.246555" lon="13.106785"><ele>810.5</ele><time>2026-04-26T13:21:10.51Z</time></trkpt><trkpt lat="43.2464283" lon="13.1068567"><ele>808.75</ele><time>2026-04-26T13:21:11.51Z</time></trkpt><trkpt lat="43.2462983" lon="13.106945"><ele>807.0</ele><time>2026-04-26T13:21:12.51Z</time></trkpt><trkpt lat="43.2461717" lon="13.1070417"><ele>805.75</ele><time>2026-04-26T13:21:13.51Z</time></trkpt><trkpt lat="43.24604" lon="13.107145"><ele>804.5</ele><time>2026-04-26T13:21:14.511Z</time></trkpt><trkpt lat="43.24591" lon="13.1072467"><ele>803.25</ele><time>2026-04-26T13:21:15.51Z</time></trkpt><trkpt lat="43.2457867" lon="13.10734"><ele>802.0</ele><time>2026-04-26T13:21:16.511Z</time></trkpt><trkpt lat="43.2456683" lon="13.1074267"><ele>801.8</ele><time>2026-04-26T13:21:17.51Z</time></trkpt><trkpt lat="43.2455467" lon="13.10749"><ele>801.6</ele><time>2026-04-26T13:21:18.51Z</time></trkpt><trkpt lat="43.2454367" lon="13.1075367"><ele>801.4</ele><time>2026-04-26T13:21:19.51Z</time></trkpt><trkpt lat="43.2453383" lon="13.1075717"><ele>801.1999999999999</ele><time>2026-04-26T13:21:20.51Z</time></trkpt><trkpt lat="43.2452567" lon="13.10761"><ele>801.0</ele><time>2026-04-26T13:21:21.51Z</time></trkpt><trkpt lat="43.245195" lon="13.1076583"><ele>801.0</ele><time>2026-04-26T13:21:22.51Z</time></trkpt><trkpt lat="43.2451433" lon="13.10773"><ele>801.0</ele><time>2026-04-26T13:21:23.51Z</time></trkpt><trkpt lat="43.2450883" lon="13.1078433"><ele>801.0</ele><time>2026-04-26T13:21:24.51Z</time></trkpt><trkpt lat="43.24503" lon="13.1079683"><ele>801.0</ele><time>2026-04-26T13:21:25.51Z</time></trkpt><trkpt lat="43.2449617" lon="13.1080883"><ele>801.0</ele><time>2026-04-26T13:21:26.51Z</time></trkpt><trkpt lat="43.24488" lon="13.1082083"><ele>803.25</ele><time>2026-04-26T13:21:27.51Z</time></trkpt><trkpt lat="43.2447883" lon="13.1083183"><ele>805.5</ele><time>2026-04-26T13:21:28.51Z</time></trkpt><trkpt lat="43.244695" lon="13.1084233"><ele>807.75</ele><time>2026-04-26T13:21:29.51Z</time></trkpt><trkpt lat="43.2445967" lon="13.1085417"><ele>810.0</ele><time>2026-04-26T13:21:30.51Z</time></trkpt><trkpt lat="43.2445083" lon="13.10867"><ele>810.0</ele><time>2026-04-26T13:21:31.51Z</time></trkpt><trkpt lat="43.24443" lon="13.1088117"><ele>810.0</ele><time>2026-04-26T13:21:32.51Z</time></trkpt><trkpt lat="43.2443633" lon="13.1089533"><ele>810.0</ele><time>2026-04-26T13:21:33.51Z</time></trkpt><trkpt lat="43.2443017" lon="13.1090967"><ele>810.0</ele><time>2026-04-26T13:21:34.511Z</time></trkpt><trkpt lat="43.2442383" lon="13.1092267"><ele>808.75</ele><time>2026-04-26T13:21:35.51Z</time></trkpt><trkpt lat="43.2441733" lon="13.10936"><ele>807.5</ele><time>2026-04-26T13:21:36.51Z</time></trkpt><trkpt lat="43.2441067" lon="13.10949"><ele>806.25</ele><time>2026-04-26T13:21:37.51Z</time></trkpt><trkpt lat="43.244025" lon="13.1096233"><ele>805.0</ele><time>2026-04-26T13:21:38.51Z</time></trkpt><trkpt lat="43.2439333" lon="13.1097583"><ele>806.4</ele><time>2026-04-26T13:21:39.51Z</time></trkpt><trkpt lat="43.2438383" lon="13.1098917"><ele>807.8</ele><time>2026-04-26T13:21:40.51Z</time></trkpt><trkpt lat="43.2437533" lon="13.1100183"><ele>809.2</ele><time>2026-04-26T13:21:41.51Z</time></trkpt><trkpt lat="43.243685" lon="13.11012"><ele>810.6</ele><time>2026-04-26T13:21:42.511Z</time></trkpt><trkpt lat="43.2436333" lon="13.1102033"><ele>812.0</ele><time>2026-04-26T13:21:43.51Z</time></trkpt><trkpt lat="43.2435867" lon="13.11027"><ele>812.0</ele><time>2026-04-26T13:21:44.51Z</time></trkpt><trkpt lat="43.2435317" lon="13.110315"><ele>812.0</ele><time>2026-04-26T13:21:45.51Z</time></trkpt><trkpt lat="43.24343" lon="13.11043"><ele>812.0</ele><time>2026-04-26T13:21:47.51Z</time></trkpt><trkpt lat="43.24338" lon="13.1104967"><ele>812.0</ele><time>2026-04-26T13:21:48.51Z</time></trkpt><trkpt lat="43.243315" lon="13.1105583"><ele>812.0</ele><time>2026-04-26T13:21:49.51Z</time></trkpt><trkpt lat="43.24322" lon="13.1106283"><ele>813.25</ele><time>2026-04-26T13:21:50.511Z</time></trkpt><trkpt lat="43.24311" lon="13.1107067"><ele>814.5</ele><time>2026-04-26T13:21:51.51Z</time></trkpt><trkpt lat="43.2430017" lon="13.11079"><ele>815.75</ele><time>2026-04-26T13:21:52.511Z</time></trkpt><trkpt lat="43.242885" lon="13.1108567"><ele>817.0</ele><time>2026-04-26T13:21:53.511Z</time></trkpt><trkpt lat="43.24277" lon="13.1108983"><ele>814.5</ele><time>2026-04-26T13:21:54.51Z</time></trkpt><trkpt lat="43.24265" lon="13.110935"><ele>812.0</ele><time>2026-04-26T13:21:55.51Z</time></trkpt><trkpt lat="43.242525" lon="13.1109417"><ele>809.5</ele><time>2026-04-26T13:21:56.51Z</time></trkpt><trkpt lat="43.2424067" lon="13.1109433"><ele>807.0</ele><time>2026-04-26T13:21:57.51Z</time></trkpt><trkpt lat="43.2423" lon="13.11093"><ele>805.5</ele><time>2026-04-26T13:21:58.511Z</time></trkpt><trkpt lat="43.2421967" lon="13.1109183"><ele>804.0</ele><time>2026-04-26T13:21:59.51Z</time></trkpt><trkpt lat="43.242105" lon="13.1109167"><ele>802.5</ele><time>2026-04-26T13:22:00.511Z</time></trkpt><trkpt lat="43.24202" lon="13.1109117"><ele>801.0</ele><time>2026-04-26T13:22:01.51Z</time></trkpt><trkpt lat="43.241945" lon="13.11091"><ele>799.5</ele><time>2026-04-26T13:22:02.51Z</time></trkpt><trkpt lat="43.24187" lon="13.1109033"><ele>798.0</ele><time>2026-04-26T13:22:03.51Z</time></trkpt><trkpt lat="43.2418" lon="13.110905"><ele>798.0</ele><time>2026-04-26T13:22:04.51Z</time></trkpt><trkpt lat="43.2417233" lon="13.1108883"><ele>798.0</ele><time>2026-04-26T13:22:05.511Z</time></trkpt><trkpt lat="43.2416433" lon="13.1108567"><ele>798.0</ele><time>2026-04-26T13:22:06.51Z</time></trkpt><trkpt lat="43.2415533" lon="13.1108467"><ele>798.0</ele><time>2026-04-26T13:22:07.51Z</time></trkpt><trkpt lat="43.2414617" lon="13.1108333"><ele>798.0</ele><time>2026-04-26T13:22:08.51Z</time></trkpt><trkpt lat="43.2413767" lon="13.1108233"><ele>798.0</ele><time>2026-04-26T13:22:09.51Z</time></trkpt><trkpt lat="43.2412883" lon="13.110815"><ele>798.2</ele><time>2026-04-26T13:22:10.51Z</time></trkpt><trkpt lat="43.2412" lon="13.1107917"><ele>798.4</ele><time>2026-04-26T13:22:11.51Z</time></trkpt><trkpt lat="43.24111" lon="13.1107533"><ele>798.6</ele><time>2026-04-26T13:22:12.51Z</time></trkpt><trkpt lat="43.24102" lon="13.110705"><ele>798.8000000000001</ele><time>2026-04-26T13:22:13.51Z</time></trkpt><trkpt lat="43.2409283" lon="13.110655"><ele>799.0</ele><time>2026-04-26T13:22:14.51Z</time></trkpt><trkpt lat="43.2408283" lon="13.1106117"><ele>799.0</ele><time>2026-04-26T13:22:15.51Z</time></trkpt><trkpt lat="43.240735" lon="13.11057"><ele>799.0</ele><time>2026-04-26T13:22:16.511Z</time></trkpt><trkpt lat="43.24065" lon="13.1105233"><ele>799.0</ele><time>2026-04-26T13:22:17.51Z</time></trkpt><trkpt lat="43.240555" lon="13.1104983"><ele>799.0</ele><time>2026-04-26T13:22:18.511Z</time></trkpt><trkpt lat="43.2404633" lon="13.1104867"><ele>799.0</ele><time>2026-04-26T13:22:19.51Z</time></trkpt><trkpt lat="43.24037" lon="13.1104867"><ele>796.4000000000001</ele><time>2026-04-26T13:22:20.51Z</time></trkpt><trkpt lat="43.2402783" lon="13.1104933"><ele>793.8</ele><time>2026-04-26T13:22:21.51Z</time></trkpt><trkpt lat="43.240185" lon="13.1105267"><ele>791.2</ele><time>2026-04-26T13:22:22.51Z</time></trkpt><trkpt lat="43.2400833" lon="13.1105567"><ele>788.5999999999999</ele><time>2026-04-26T13:22:23.51Z</time></trkpt><trkpt lat="43.2399767" lon="13.1105833"><ele>786.0</ele><time>2026-04-26T13:22:24.511Z</time></trkpt><trkpt lat="43.23987" lon="13.1106117"><ele>784.0</ele><time>2026-04-26T13:22:25.511Z</time></trkpt><trkpt lat="43.23977" lon="13.110655"><ele>782.0</ele><time>2026-04-26T13:22:26.51Z</time></trkpt><trkpt lat="43.2396733" lon="13.110705"><ele>780.0</ele><time>2026-04-26T13:22:27.511Z</time></trkpt><trkpt lat="43.2395817" lon="13.1107667"><ele>778.0</ele><time>2026-04-26T13:22:28.51Z</time></trkpt><trkpt lat="43.23951" lon="13.1108283"><ele>776.0</ele><time>2026-04-26T13:22:29.51Z</time></trkpt><trkpt lat="43.2394517" lon="13.1109083"><ele>776.0</ele><time>2026-04-26T13:22:30.511Z</time></trkpt><trkpt lat="43.2394033" lon="13.1110033"><ele>776.0</ele><time>2026-04-26T13:22:31.51Z</time></trkpt><trkpt lat="43.2393767" lon="13.1111067"><ele>776.0</ele><time>2026-04-26T13:22:32.511Z</time></trkpt><trkpt lat="43.2393583" lon="13.1112383"><ele>776.0</ele><time>2026-04-26T13:22:33.51Z</time></trkpt><trkpt lat="43.2393383" lon="13.111385"><ele>776.0</ele><time>2026-04-26T13:22:34.511Z</time></trkpt><trkpt lat="43.2393217" lon="13.1115617"><ele>775.5</ele><time>2026-04-26T13:22:35.51Z</time></trkpt><trkpt lat="43.2393067" lon="13.11175"><ele>775.0</ele><time>2026-04-26T13:22:36.51Z</time></trkpt><trkpt lat="43.23929" lon="13.1119467"><ele>774.5</ele><time>2026-04-26T13:22:37.51Z</time></trkpt><trkpt lat="43.2392733" lon="13.11213"><ele>774.0</ele><time>2026-04-26T13:22:38.51Z</time></trkpt><trkpt lat="43.2392567" lon="13.1123267"><ele>774.5</ele><time>2026-04-26T13:22:39.51Z</time></trkpt><trkpt lat="43.23924" lon="13.11253"><ele>775.0</ele><time>2026-04-26T13:22:40.511Z</time></trkpt><trkpt lat="43.239225" lon="13.1127283"><ele>775.5</ele><time>2026-04-26T13:22:41.51Z</time></trkpt><trkpt lat="43.23921" lon="13.112925"><ele>776.0</ele><time>2026-04-26T13:22:42.51Z</time></trkpt><trkpt lat="43.239195" lon="13.1131283"><ele>776.0</ele><time>2026-04-26T13:22:43.51Z</time></trkpt><trkpt lat="43.2391817" lon="13.113325"><ele>776.0</ele><time>2026-04-26T13:22:44.51Z</time></trkpt><trkpt lat="43.239165" lon="13.113525"><ele>776.0</ele><time>2026-04-26T13:22:45.51Z</time></trkpt><trkpt lat="43.2391467" lon="13.1137217"><ele>776.0</ele><time>2026-04-26T13:22:46.51Z</time></trkpt><trkpt lat="43.23913" lon="13.1139067"><ele>776.0</ele><time>2026-04-26T13:22:47.51Z</time></trkpt><trkpt lat="43.2391183" lon="13.1140883"><ele>776.0</ele><time>2026-04-26T13:22:48.51Z</time></trkpt><trkpt lat="43.239095" lon="13.1142617"><ele>776.0</ele><time>2026-04-26T13:22:49.51Z</time></trkpt><trkpt lat="43.2390667" lon="13.1144433"><ele>776.0</ele><time>2026-04-26T13:22:50.511Z</time></trkpt><trkpt lat="43.2390367" lon="13.1146333"><ele>776.0</ele><time>2026-04-26T13:22:51.51Z</time></trkpt><trkpt lat="43.2390067" lon="13.114825"><ele>776.0</ele><time>2026-04-26T13:22:52.51Z</time></trkpt><trkpt lat="43.23898" lon="13.1150067"><ele>776.0</ele><time>2026-04-26T13:22:53.51Z</time></trkpt><trkpt lat="43.2389533" lon="13.11518"><ele>776.0</ele><time>2026-04-26T13:22:54.511Z</time></trkpt><trkpt lat="43.2389267" lon="13.1153433"><ele>775.5999999999999</ele><time>2026-04-26T13:22:55.51Z</time></trkpt><trkpt lat="43.238895" lon="13.1154983"><ele>775.2</ele><time>2026-04-26T13:22:56.51Z</time></trkpt><trkpt lat="43.238865" lon="13.1156467"><ele>774.8</ele><time>2026-04-26T13:22:57.51Z</time></trkpt><trkpt lat="43.238835" lon="13.1157917"><ele>774.4000000000001</ele><time>2026-04-26T13:22:58.51Z</time></trkpt><trkpt lat="43.2388017" lon="13.11593"><ele>774.0</ele><time>2026-04-26T13:22:59.51Z</time></trkpt><trkpt lat="43.2387633" lon="13.1160667"><ele>773.6</ele><time>2026-04-26T13:23:00.51Z</time></trkpt><trkpt lat="43.2387133" lon="13.11619"><ele>773.2</ele><time>2026-04-26T13:23:01.51Z</time></trkpt><trkpt lat="43.23866" lon="13.1163133"><ele>772.8000000000001</ele><time>2026-04-26T13:23:02.51Z</time></trkpt><trkpt lat="43.2386233" lon="13.1164467"><ele>772.4000000000001</ele><time>2026-04-26T13:23:03.51Z</time></trkpt><trkpt lat="43.2386133" lon="13.1165983"><ele>772.0</ele><time>2026-04-26T13:23:04.51Z</time></trkpt><trkpt lat="43.238605" lon="13.1167583"><ele>771.4000000000001</ele><time>2026-04-26T13:23:05.51Z</time></trkpt><trkpt lat="43.2385933" lon="13.11691"><ele>770.8000000000001</ele><time>2026-04-26T13:23:06.511Z</time></trkpt><trkpt lat="43.2385717" lon="13.1170583"><ele>770.2</ele><time>2026-04-26T13:23:07.51Z</time></trkpt><trkpt lat="43.2385617" lon="13.1171983"><ele>769.6</ele><time>2026-04-26T13:23:08.51Z</time></trkpt><trkpt lat="43.23855" lon="13.1173467"><ele>769.0</ele><time>2026-04-26T13:23:09.51Z</time></trkpt><trkpt lat="43.2385417" lon="13.117505"><ele>768.0</ele><time>2026-04-26T13:23:10.51Z</time></trkpt><trkpt lat="43.2385233" lon="13.117655"><ele>767.0</ele><time>2026-04-26T13:23:11.51Z</time></trkpt><trkpt lat="43.2385017" lon="13.1178067"><ele>766.0</ele><time>2026-04-26T13:23:12.51Z</time></trkpt><trkpt lat="43.238485" lon="13.1179633"><ele>765.0</ele><time>2026-04-26T13:23:13.51Z</time></trkpt><trkpt lat="43.238475" lon="13.11812"><ele>762.75</ele><time>2026-04-26T13:23:14.51Z</time></trkpt><trkpt lat="43.238455" lon="13.118285"><ele>760.5</ele><time>2026-04-26T13:23:15.51Z</time></trkpt><trkpt lat="43.2384317" lon="13.118445"><ele>758.25</ele><time>2026-04-26T13:23:16.51Z</time></trkpt><trkpt lat="43.2384133" lon="13.1186017"><ele>756.0</ele><time>2026-04-26T13:23:17.51Z</time></trkpt><trkpt lat="43.238405" lon="13.1187567"><ele>756.0</ele><time>2026-04-26T13:23:18.51Z</time></trkpt><trkpt lat="43.2383967" lon="13.11891"><ele>756.0</ele><time>2026-04-26T13:23:19.511Z</time></trkpt><trkpt lat="43.2383817" lon="13.1190733"><ele>756.0</ele><time>2026-04-26T13:23:20.51Z</time></trkpt><trkpt lat="43.2383633" lon="13.119235"><ele>756.0</ele><time>2026-04-26T13:23:21.51Z</time></trkpt><trkpt lat="43.2383467" lon="13.119395"><ele>753.75</ele><time>2026-04-26T13:23:22.51Z</time></trkpt><trkpt lat="43.23833" lon="13.11957"><ele>751.5</ele><time>2026-04-26T13:23:23.51Z</time></trkpt><trkpt lat="43.238315" lon="13.1197333"><ele>749.25</ele><time>2026-04-26T13:23:24.51Z</time></trkpt><trkpt lat="43.2383" lon="13.1198867"><ele>747.0</ele><time>2026-04-26T13:23:25.51Z</time></trkpt><trkpt lat="43.23828" lon="13.1200483"><ele>746.0</ele><time>2026-04-26T13:23:26.511Z</time></trkpt><trkpt lat="43.2382683" lon="13.1202117"><ele>745.0</ele><time>2026-04-26T13:23:27.51Z</time></trkpt><trkpt lat="43.2382617" lon="13.1203667"><ele>744.0</ele><time>2026-04-26T13:23:28.511Z</time></trkpt><trkpt lat="43.2382494" lon="13.1205043"><ele>743.0</ele><time>2026-04-26T13:23:29.51Z</time></trkpt><trkpt lat="43.2382466" lon="13.1206371"><ele>742.0</ele><time>2026-04-26T13:23:30.511Z</time></trkpt><trkpt lat="43.2382542" lon="13.1207725"><ele>740.5</ele><time>2026-04-26T13:23:31.511Z</time></trkpt><trkpt lat="43.2382657" lon="13.1209273"><ele>739.0</ele><time>2026-04-26T13:23:32.51Z</time></trkpt><trkpt lat="43.2382804" lon="13.1210924"><ele>737.5</ele><time>2026-04-26T13:23:33.511Z</time></trkpt><trkpt lat="43.2382839" lon="13.1212568"><ele>736.0</ele><time>2026-04-26T13:23:34.51Z</time></trkpt><trkpt lat="43.238286" lon="13.1214115"><ele>736.0</ele><time>2026-04-26T13:23:35.51Z</time></trkpt><trkpt lat="43.2382876" lon="13.1215572"><ele>736.0</ele><time>2026-04-26T13:23:36.51Z</time></trkpt><trkpt lat="43.2382851" lon="13.121684"><ele>736.0</ele><time>2026-04-26T13:23:37.51Z</time></trkpt><trkpt lat="43.2382825" lon="13.121794"><ele>736.0</ele><time>2026-04-26T13:23:38.51Z</time></trkpt><trkpt lat="43.2382819" lon="13.1218934"><ele>736.0</ele><time>2026-04-26T13:23:39.51Z</time></trkpt><trkpt lat="43.2382654" lon="13.1219769"><ele>736.0</ele><time>2026-04-26T13:23:40.51Z</time></trkpt><trkpt lat="43.2382345" lon="13.1220614"><ele>734.8</ele><time>2026-04-26T13:23:41.51Z</time></trkpt><trkpt lat="43.2381936" lon="13.1221499"><ele>733.5999999999999</ele><time>2026-04-26T13:23:42.51Z</time></trkpt><trkpt lat="43.238141" lon="13.122253"><ele>732.4</ele><time>2026-04-26T13:23:43.51Z</time></trkpt><trkpt lat="43.2380784" lon="13.122366"><ele>731.2</ele><time>2026-04-26T13:23:44.51Z</time></trkpt><trkpt lat="43.2380022" lon="13.1224763"><ele>730.0</ele><time>2026-04-26T13:23:45.51Z</time></trkpt><trkpt lat="43.2379146" lon="13.1225935"><ele>729.0</ele><time>2026-04-26T13:23:46.51Z</time></trkpt><trkpt lat="43.2378168" lon="13.1227126"><ele>728.0</ele><time>2026-04-26T13:23:47.51Z</time></trkpt><trkpt lat="43.2377131" lon="13.1228444"><ele>727.0</ele><time>2026-04-26T13:23:48.511Z</time></trkpt><trkpt lat="43.237607" lon="13.1229847"><ele>726.0</ele><time>2026-04-26T13:23:49.511Z</time></trkpt><trkpt lat="43.2375013" lon="13.1231219"><ele>723.0</ele><time>2026-04-26T13:23:50.51Z</time></trkpt><trkpt lat="43.2373915" lon="13.1232483"><ele>720.0</ele><time>2026-04-26T13:23:51.51Z</time></trkpt><trkpt lat="43.2372905" lon="13.1233629"><ele>717.0</ele><time>2026-04-26T13:23:52.51Z</time></trkpt><trkpt lat="43.2371996" lon="13.1234668"><ele>714.0</ele><time>2026-04-26T13:23:53.51Z</time></trkpt><trkpt lat="43.2371149" lon="13.1235466"><ele>713.2</ele><time>2026-04-26T13:23:54.51Z</time></trkpt><trkpt lat="43.2370275" lon="13.123625"><ele>712.4000000000001</ele><time>2026-04-26T13:23:55.51Z</time></trkpt><trkpt lat="43.2369342" lon="13.1236644"><ele>711.6</ele><time>2026-04-26T13:23:56.51Z</time></trkpt><trkpt lat="43.2368249" lon="13.1236879"><ele>710.8</ele><time>2026-04-26T13:23:57.51Z</time></trkpt><trkpt lat="43.2367006" lon="13.1236892"><ele>710.0</ele><time>2026-04-26T13:23:58.511Z</time></trkpt><trkpt lat="43.2365656" lon="13.1236802"><ele>707.75</ele><time>2026-04-26T13:23:59.511Z</time></trkpt><trkpt lat="43.2364266" lon="13.1236709"><ele>705.5</ele><time>2026-04-26T13:24:00.51Z</time></trkpt><trkpt lat="43.2362853" lon="13.1236882"><ele>703.25</ele><time>2026-04-26T13:24:01.51Z</time></trkpt><trkpt lat="43.2361539" lon="13.1237252"><ele>701.0</ele><time>2026-04-26T13:24:02.511Z</time></trkpt><trkpt lat="43.2360381" lon="13.1237675"><ele>701.0</ele><time>2026-04-26T13:24:03.511Z</time></trkpt><trkpt lat="43.235933" lon="13.1238195"><ele>701.0</ele><time>2026-04-26T13:24:04.511Z</time></trkpt><trkpt lat="43.2358471" lon="13.1238823"><ele>701.0</ele><time>2026-04-26T13:24:05.511Z</time></trkpt><trkpt lat="43.2357803" lon="13.1239544"><ele>701.0</ele><time>2026-04-26T13:24:06.51Z</time></trkpt><trkpt lat="43.2357263" lon="13.1240463"><ele>701.0</ele><time>2026-04-26T13:24:07.51Z</time></trkpt><trkpt lat="43.2356961" lon="13.1241695"><ele>703.5999999999999</ele><time>2026-04-26T13:24:08.51Z</time></trkpt><trkpt lat="43.2356832" lon="13.1243105"><ele>706.2</ele><time>2026-04-26T13:24:09.51Z</time></trkpt><trkpt lat="43.2356847" lon="13.1244618"><ele>708.8</ele><time>2026-04-26T13:24:10.51Z</time></trkpt><trkpt lat="43.2356895" lon="13.1246099"><ele>711.4000000000001</ele><time>2026-04-26T13:24:11.51Z</time></trkpt><trkpt lat="43.235698" lon="13.1247543"><ele>714.0</ele><time>2026-04-26T13:24:12.51Z</time></trkpt><trkpt lat="43.2357076" lon="13.1248939"><ele>713.0</ele><time>2026-04-26T13:24:13.51Z</time></trkpt><trkpt lat="43.2357219" lon="13.1250301"><ele>712.0</ele><time>2026-04-26T13:24:14.509Z</time></trkpt><trkpt lat="43.2357377" lon="13.1251711"><ele>711.0</ele><time>2026-04-26T13:24:15.509Z</time></trkpt><trkpt lat="43.2357566" lon="13.1253154"><ele>710.0</ele><time>2026-04-26T13:24:16.509Z</time></trkpt><trkpt lat="43.2357764" lon="13.1254551"><ele>709.0</ele><time>2026-04-26T13:24:17.509Z</time></trkpt><trkpt lat="43.2357996" lon="13.1255978"><ele>706.25</ele><time>2026-04-26T13:24:18.509Z</time></trkpt><trkpt lat="43.2358288" lon="13.1257489"><ele>703.5</ele><time>2026-04-26T13:24:19.509Z</time></trkpt><trkpt lat="43.2358592" lon="13.1259034"><ele>700.75</ele><time>2026-04-26T13:24:20.509Z</time></trkpt><trkpt lat="43.2358898" lon="13.1260591"><ele>698.0</ele><time>2026-04-26T13:24:21.509Z</time></trkpt><trkpt lat="43.2359259" lon="13.1262169"><ele>698.0</ele><time>2026-04-26T13:24:22.509Z</time></trkpt><trkpt lat="43.2359583" lon="13.1263769"><ele>698.0</ele><time>2026-04-26T13:24:23.509Z</time></trkpt><trkpt lat="43.2359836" lon="13.1265466"><ele>698.0</ele><time>2026-04-26T13:24:24.509Z</time></trkpt><trkpt lat="43.2360148" lon="13.1267205"><ele>698.0</ele><time>2026-04-26T13:24:25.509Z</time></trkpt><trkpt lat="43.2360482" lon="13.1269035"><ele>695.25</ele><time>2026-04-26T13:24:26.509Z</time></trkpt><trkpt lat="43.2360791" lon="13.1270896"><ele>692.5</ele><time>2026-04-26T13:24:27.509Z</time></trkpt><trkpt lat="43.2361034" lon="13.1272623"><ele>689.75</ele><time>2026-04-26T13:24:28.51Z</time></trkpt><trkpt lat="43.2361193" lon="13.1274396"><ele>687.0</ele><time>2026-04-26T13:24:29.51Z</time></trkpt><trkpt lat="43.2361278" lon="13.1276205"><ele>685.25</ele><time>2026-04-26T13:24:30.509Z</time></trkpt><trkpt lat="43.2361335" lon="13.1277983"><ele>683.5</ele><time>2026-04-26T13:24:31.509Z</time></trkpt><trkpt lat="43.2361285" lon="13.1279915"><ele>681.75</ele><time>2026-04-26T13:24:32.509Z</time></trkpt><trkpt lat="43.2361199" lon="13.1281845"><ele>680.0</ele><time>2026-04-26T13:24:33.509Z</time></trkpt><trkpt lat="43.2361116" lon="13.1283756"><ele>679.5</ele><time>2026-04-26T13:24:34.509Z</time></trkpt><trkpt lat="43.2361123" lon="13.1285712"><ele>679.0</ele><time>2026-04-26T13:24:35.51Z</time></trkpt><trkpt lat="43.2361129" lon="13.1287714"><ele>678.5</ele><time>2026-04-26T13:24:36.509Z</time></trkpt><trkpt lat="43.2361153" lon="13.1289673"><ele>678.0</ele><time>2026-04-26T13:24:37.51Z</time></trkpt><trkpt lat="43.2361126" lon="13.1291504"><ele>677.25</ele><time>2026-04-26T13:24:38.51Z</time></trkpt><trkpt lat="43.2361161" lon="13.1293257"><ele>676.5</ele><time>2026-04-26T13:24:39.509Z</time></trkpt><trkpt lat="43.2361319" lon="13.1295131"><ele>675.75</ele><time>2026-04-26T13:24:40.51Z</time></trkpt><trkpt lat="43.236159" lon="13.1297139"><ele>675.0</ele><time>2026-04-26T13:24:41.509Z</time></trkpt><trkpt lat="43.2361872" lon="13.129917"><ele>674.25</ele><time>2026-04-26T13:24:42.509Z</time></trkpt><trkpt lat="43.2362148" lon="13.1301115"><ele>673.5</ele><time>2026-04-26T13:24:43.509Z</time></trkpt><trkpt lat="43.2362398" lon="13.1302965"><ele>672.75</ele><time>2026-04-26T13:24:44.509Z</time></trkpt><trkpt lat="43.2362579" lon="13.1304839"><ele>672.0</ele><time>2026-04-26T13:24:45.509Z</time></trkpt><trkpt lat="43.2362763" lon="13.130668"><ele>672.0</ele><time>2026-04-26T13:24:46.51Z</time></trkpt><trkpt lat="43.2362939" lon="13.1308468"><ele>672.0</ele><time>2026-04-26T13:24:47.509Z</time></trkpt><trkpt lat="43.236312" lon="13.1310272"><ele>672.0</ele><time>2026-04-26T13:24:48.509Z</time></trkpt><trkpt lat="43.2363394" lon="13.1312096"><ele>672.0</ele><time>2026-04-26T13:24:49.509Z</time></trkpt><trkpt lat="43.2363616" lon="13.1313932"><ele>671.0</ele><time>2026-04-26T13:24:50.509Z</time></trkpt><trkpt lat="43.236388" lon="13.1315841"><ele>670.0</ele><time>2026-04-26T13:24:51.509Z</time></trkpt><trkpt lat="43.2364103" lon="13.1317702"><ele>669.0</ele><time>2026-04-26T13:24:52.509Z</time></trkpt><trkpt lat="43.2364296" lon="13.1319388"><ele>668.0</ele><time>2026-04-26T13:24:53.509Z</time></trkpt><trkpt lat="43.2364502" lon="13.1320959"><ele>666.4</ele><time>2026-04-26T13:24:54.509Z</time></trkpt><trkpt lat="43.2364743" lon="13.1322491"><ele>664.8</ele><time>2026-04-26T13:24:55.51Z</time></trkpt><trkpt lat="43.2365021" lon="13.1323889"><ele>663.2</ele><time>2026-04-26T13:24:56.509Z</time></trkpt><trkpt lat="43.2365264" lon="13.1325267"><ele>661.6</ele><time>2026-04-26T13:24:57.509Z</time></trkpt><trkpt lat="43.2365482" lon="13.1326659"><ele>660.0</ele><time>2026-04-26T13:24:58.509Z</time></trkpt><trkpt lat="43.2365603" lon="13.1328149"><ele>658.0</ele><time>2026-04-26T13:24:59.509Z</time></trkpt><trkpt lat="43.2365581" lon="13.132985"><ele>656.0</ele><time>2026-04-26T13:25:00.509Z</time></trkpt><trkpt lat="43.2365498" lon="13.1331636"><ele>654.0</ele><time>2026-04-26T13:25:01.509Z</time></trkpt><trkpt lat="43.2365366" lon="13.1333581"><ele>652.0</ele><time>2026-04-26T13:25:02.51Z</time></trkpt><trkpt lat="43.2365313" lon="13.1335579"><ele>649.5</ele><time>2026-04-26T13:25:03.509Z</time></trkpt><trkpt lat="43.2365378" lon="13.1337513"><ele>647.0</ele><time>2026-04-26T13:25:04.509Z</time></trkpt><trkpt lat="43.236565" lon="13.1339408"><ele>644.5</ele><time>2026-04-26T13:25:05.509Z</time></trkpt><trkpt lat="43.2366021" lon="13.1341318"><ele>642.0</ele><time>2026-04-26T13:25:06.51Z</time></trkpt><trkpt lat="43.236644" lon="13.1343153"><ele>642.0</ele><time>2026-04-26T13:25:07.51Z</time></trkpt><trkpt lat="43.2366893" lon="13.1344976"><ele>642.0</ele><time>2026-04-26T13:25:08.509Z</time></trkpt><trkpt lat="43.23674" lon="13.1346867"><ele>642.0</ele><time>2026-04-26T13:25:09.509Z</time></trkpt><trkpt lat="43.2368033" lon="13.1348683"><ele>642.0</ele><time>2026-04-26T13:25:10.509Z</time></trkpt><trkpt lat="43.23687" lon="13.13506"><ele>643.3333333333334</ele><time>2026-04-26T13:25:11.509Z</time></trkpt><trkpt lat="43.2369367" lon="13.135255"><ele>644.6666666666667</ele><time>2026-04-26T13:25:12.509Z</time></trkpt><trkpt lat="43.2370083" lon="13.13546"><ele>646.0</ele><time>2026-04-26T13:25:13.509Z</time></trkpt><trkpt lat="43.2370817" lon="13.1356667"><ele>647.3333333333334</ele><time>2026-04-26T13:25:14.51Z</time></trkpt><trkpt lat="43.2371533" lon="13.1358733"><ele>648.6666666666666</ele><time>2026-04-26T13:25:15.509Z</time></trkpt><trkpt lat="43.2372183" lon="13.1360967"><ele>650.0</ele><time>2026-04-26T13:25:16.509Z</time></trkpt><trkpt lat="43.2372867" lon="13.1363217"><ele>642.6666666666666</ele><time>2026-04-26T13:25:17.509Z</time></trkpt><trkpt lat="43.237355" lon="13.13654"><ele>635.3333333333334</ele><time>2026-04-26T13:25:18.509Z</time></trkpt><trkpt lat="43.2374167" lon="13.1367517"><ele>628.0</ele><time>2026-04-26T13:25:19.509Z</time></trkpt><trkpt lat="43.2374917" lon="13.136955"><ele>628.0</ele><time>2026-04-26T13:25:20.509Z</time></trkpt><trkpt lat="43.2375683" lon="13.1371417"><ele>628.0</ele><time>2026-04-26T13:25:21.51Z</time></trkpt><trkpt lat="43.2376383" lon="13.13734"><ele>628.0</ele><time>2026-04-26T13:25:22.509Z</time></trkpt><trkpt lat="43.2377183" lon="13.1375383"><ele>631.6666666666667</ele><time>2026-04-26T13:25:23.509Z</time></trkpt><trkpt lat="43.237785" lon="13.137745"><ele>635.3333333333334</ele><time>2026-04-26T13:25:24.51Z</time></trkpt><trkpt lat="43.237865" lon="13.13794"><ele>639.0</ele><time>2026-04-26T13:25:25.51Z</time></trkpt><trkpt lat="43.2379417" lon="13.138135"><ele>641.6666666666666</ele><time>2026-04-26T13:25:26.509Z</time></trkpt><trkpt lat="43.2380117" lon="13.1383333"><ele>644.3333333333333</ele><time>2026-04-26T13:25:27.509Z</time></trkpt><trkpt lat="43.238085" lon="13.1385233"><ele>647.0</ele><time>2026-04-26T13:25:28.51Z</time></trkpt><trkpt lat="43.2381483" lon="13.1387017"><ele>642.25</ele><time>2026-04-26T13:25:29.509Z</time></trkpt><trkpt lat="43.2382133" lon="13.1388583"><ele>637.5</ele><time>2026-04-26T13:25:30.509Z</time></trkpt><trkpt lat="43.2382683" lon="13.13901"><ele>632.75</ele><time>2026-04-26T13:25:31.509Z</time></trkpt><trkpt lat="43.2383167" lon="13.1391617"><ele>628.0</ele><time>2026-04-26T13:25:32.509Z</time></trkpt><trkpt lat="43.23836" lon="13.1393133"><ele>628.0</ele><time>2026-04-26T13:25:33.509Z</time></trkpt><trkpt lat="43.2383983" lon="13.139455"><ele>628.0</ele><time>2026-04-26T13:25:34.509Z</time></trkpt><trkpt lat="43.2384283" lon="13.139595"><ele>628.0</ele><time>2026-04-26T13:25:35.509Z</time></trkpt><trkpt lat="43.2384517" lon="13.13973"><ele>628.0</ele><time>2026-04-26T13:25:36.509Z</time></trkpt><trkpt lat="43.2384717" lon="13.139865"><ele>628.0</ele><time>2026-04-26T13:25:37.509Z</time></trkpt><trkpt lat="43.2384783" lon="13.1399983"><ele>628.75</ele><time>2026-04-26T13:25:38.509Z</time></trkpt><trkpt lat="43.2384733" lon="13.1401467"><ele>629.5</ele><time>2026-04-26T13:25:39.509Z</time></trkpt><trkpt lat="43.238455" lon="13.1403133"><ele>630.25</ele><time>2026-04-26T13:25:40.51Z</time></trkpt><trkpt lat="43.2384317" lon="13.14049"><ele>631.0</ele><time>2026-04-26T13:25:41.509Z</time></trkpt><trkpt lat="43.2384117" lon="13.140675"><ele>628.6666666666667</ele><time>2026-04-26T13:25:42.51Z</time></trkpt><trkpt lat="43.238385" lon="13.1408733"><ele>626.3333333333334</ele><time>2026-04-26T13:25:43.51Z</time></trkpt><trkpt lat="43.238355" lon="13.1410817"><ele>624.0</ele><time>2026-04-26T13:25:44.509Z</time></trkpt><trkpt lat="43.2383267" lon="13.1412983"><ele>624.0</ele><time>2026-04-26T13:25:45.509Z</time></trkpt><trkpt lat="43.2383033" lon="13.14151"><ele>624.0</ele><time>2026-04-26T13:25:46.509Z</time></trkpt><trkpt lat="43.2382783" lon="13.1417117"><ele>624.0</ele><time>2026-04-26T13:25:47.509Z</time></trkpt><trkpt lat="43.2382533" lon="13.1419067"><ele>624.0</ele><time>2026-04-26T13:25:48.509Z</time></trkpt><trkpt lat="43.2382167" lon="13.1420867"><ele>624.8</ele><time>2026-04-26T13:25:49.509Z</time></trkpt><trkpt lat="43.2381833" lon="13.1422417"><ele>625.5999999999999</ele><time>2026-04-26T13:25:50.509Z</time></trkpt><trkpt lat="43.2381467" lon="13.1423817"><ele>626.4</ele><time>2026-04-26T13:25:51.509Z</time></trkpt><trkpt lat="43.2380983" lon="13.142505"><ele>627.1999999999999</ele><time>2026-04-26T13:25:52.509Z</time></trkpt><trkpt lat="43.2380417" lon="13.14262"><ele>628.0</ele><time>2026-04-26T13:25:53.51Z</time></trkpt><trkpt lat="43.2379867" lon="13.142725"><ele>628.0</ele><time>2026-04-26T13:25:54.509Z</time></trkpt><trkpt lat="43.2379317" lon="13.14284"><ele>628.0</ele><time>2026-04-26T13:25:55.509Z</time></trkpt><trkpt lat="43.2378733" lon="13.1429717"><ele>628.0</ele><time>2026-04-26T13:25:56.51Z</time></trkpt><trkpt lat="43.2378217" lon="13.1431217"><ele>628.0</ele><time>2026-04-26T13:25:57.509Z</time></trkpt><trkpt lat="43.2377733" lon="13.1432833"><ele>624.5</ele><time>2026-04-26T13:25:58.509Z</time></trkpt><trkpt lat="43.2377267" lon="13.143435"><ele>621.0</ele><time>2026-04-26T13:25:59.509Z</time></trkpt><trkpt lat="43.2376733" lon="13.14359"><ele>617.5</ele><time>2026-04-26T13:26:00.51Z</time></trkpt><trkpt lat="43.2376117" lon="13.1437567"><ele>614.0</ele><time>2026-04-26T13:26:01.509Z</time></trkpt><trkpt lat="43.2375583" lon="13.1439167"><ele>611.5</ele><time>2026-04-26T13:26:02.509Z</time></trkpt><trkpt lat="43.2374983" lon="13.1440717"><ele>609.0</ele><time>2026-04-26T13:26:03.509Z</time></trkpt><trkpt lat="43.2374383" lon="13.144225"><ele>606.5</ele><time>2026-04-26T13:26:04.509Z</time></trkpt><trkpt lat="43.2373767" lon="13.144375"><ele>604.0</ele><time>2026-04-26T13:26:05.509Z</time></trkpt><trkpt lat="43.2373083" lon="13.144545"><ele>604.25</ele><time>2026-04-26T13:26:06.509Z</time></trkpt><trkpt lat="43.237245" lon="13.1447083"><ele>604.5</ele><time>2026-04-26T13:26:07.509Z</time></trkpt><trkpt lat="43.23718" lon="13.144875"><ele>604.75</ele><time>2026-04-26T13:26:08.509Z</time></trkpt><trkpt lat="43.2371167" lon="13.145045"><ele>605.0</ele><time>2026-04-26T13:26:09.509Z</time></trkpt><trkpt lat="43.23705" lon="13.145225"><ele>605.0</ele><time>2026-04-26T13:26:10.509Z</time></trkpt><trkpt lat="43.2369933" lon="13.14539"><ele>605.0</ele><time>2026-04-26T13:26:11.509Z</time></trkpt><trkpt lat="43.236925" lon="13.1455433"><ele>605.0</ele><time>2026-04-26T13:26:12.51Z</time></trkpt><trkpt lat="43.2368617" lon="13.1456783"><ele>605.0</ele><time>2026-04-26T13:26:13.509Z</time></trkpt><trkpt lat="43.2368083" lon="13.1457967"><ele>603.2</ele><time>2026-04-26T13:26:14.509Z</time></trkpt><trkpt lat="43.2367533" lon="13.1459117"><ele>601.4</ele><time>2026-04-26T13:26:15.509Z</time></trkpt><trkpt lat="43.2367083" lon="13.1460033"><ele>599.6</ele><time>2026-04-26T13:26:16.509Z</time></trkpt><trkpt lat="43.2366733" lon="13.1461033"><ele>597.8</ele><time>2026-04-26T13:26:17.509Z</time></trkpt><trkpt lat="43.23666" lon="13.1462317"><ele>596.0</ele><time>2026-04-26T13:26:18.51Z</time></trkpt><trkpt lat="43.2366767" lon="13.146375"><ele>596.0</ele><time>2026-04-26T13:26:19.509Z</time></trkpt><trkpt lat="43.2367" lon="13.1465017"><ele>596.0</ele><time>2026-04-26T13:26:20.51Z</time></trkpt><trkpt lat="43.2367017" lon="13.146625"><ele>596.0</ele><time>2026-04-26T13:26:21.509Z</time></trkpt><trkpt lat="43.2366883" lon="13.1467367"><ele>596.0</ele><time>2026-04-26T13:26:22.509Z</time></trkpt><trkpt lat="43.2366683" lon="13.146855"><ele>596.0</ele><time>2026-04-26T13:26:23.509Z</time></trkpt><trkpt lat="43.2366383" lon="13.1469417"><ele>596.0</ele><time>2026-04-26T13:26:24.509Z</time></trkpt><trkpt lat="43.2365917" lon="13.1470633"><ele>594.6</ele><time>2026-04-26T13:26:26.51Z</time></trkpt><trkpt lat="43.2365483" lon="13.1471417"><ele>593.2</ele><time>2026-04-26T13:26:28.509Z</time></trkpt><trkpt lat="43.2365467" lon="13.1472683"><ele>591.8</ele><time>2026-04-26T13:26:58.509Z</time></trkpt><trkpt lat="43.236505" lon="13.1474483"><ele>590.4</ele><time>2026-04-26T13:27:00.509Z</time></trkpt><trkpt lat="43.2364783" lon="13.1475767"><ele>589.0</ele><time>2026-04-26T13:27:01.509Z</time></trkpt><trkpt lat="43.2364483" lon="13.147725"><ele>586.75</ele><time>2026-04-26T13:27:02.51Z</time></trkpt><trkpt lat="43.2364083" lon="13.1478933"><ele>584.5</ele><time>2026-04-26T13:27:03.509Z</time></trkpt><trkpt lat="43.2363667" lon="13.1480517"><ele>582.25</ele><time>2026-04-26T13:27:04.509Z</time></trkpt><trkpt lat="43.2363417" lon="13.1482167"><ele>580.0</ele><time>2026-04-26T13:27:05.509Z</time></trkpt><trkpt lat="43.23631" lon="13.1483667"><ele>578.4</ele><time>2026-04-26T13:27:06.509Z</time></trkpt><trkpt lat="43.236275" lon="13.1485117"><ele>576.8</ele><time>2026-04-26T13:27:07.51Z</time></trkpt><trkpt lat="43.23625" lon="13.1486467"><ele>575.2</ele><time>2026-04-26T13:27:08.509Z</time></trkpt><trkpt lat="43.2362333" lon="13.1487617"><ele>573.6</ele><time>2026-04-26T13:27:09.509Z</time></trkpt><trkpt lat="43.2362367" lon="13.1488617"><ele>572.0</ele><time>2026-04-26T13:27:10.51Z</time></trkpt><trkpt lat="43.23625" lon="13.148975"><ele>569.4</ele><time>2026-04-26T13:27:11.509Z</time></trkpt><trkpt lat="43.236285" lon="13.1490883"><ele>566.8000000000001</ele><time>2026-04-26T13:27:12.509Z</time></trkpt><trkpt lat="43.236345" lon="13.149215"><ele>564.2</ele><time>2026-04-26T13:27:13.509Z</time></trkpt><trkpt lat="43.2364067" lon="13.14934"><ele>561.6</ele><time>2026-04-26T13:27:14.509Z</time></trkpt><trkpt lat="43.23645" lon="13.149455"><ele>559.0</ele><time>2026-04-26T13:27:15.509Z</time></trkpt><trkpt lat="43.2364617" lon="13.149585"><ele>559.0</ele><time>2026-04-26T13:27:16.509Z</time></trkpt><trkpt lat="43.236465" lon="13.149705"><ele>559.0</ele><time>2026-04-26T13:27:17.509Z</time></trkpt><trkpt lat="43.2364717" lon="13.14981"><ele>559.0</ele><time>2026-04-26T13:27:18.509Z</time></trkpt><trkpt lat="43.2365083" lon="13.1498983"><ele>559.0</ele><time>2026-04-26T13:27:19.509Z</time></trkpt><trkpt lat="43.2365783" lon="13.1499817"><ele>559.0</ele><time>2026-04-26T13:27:20.509Z</time></trkpt><trkpt lat="43.23668" lon="13.1500583"><ele>559.0</ele><time>2026-04-26T13:27:21.509Z</time></trkpt><trkpt lat="43.2368083" lon="13.1501233"><ele>555.25</ele><time>2026-04-26T13:27:22.509Z</time></trkpt><trkpt lat="43.23695" lon="13.1501833"><ele>551.5</ele><time>2026-04-26T13:27:23.509Z</time></trkpt><trkpt lat="43.2370933" lon="13.1502517"><ele>547.75</ele><time>2026-04-26T13:27:24.509Z</time></trkpt><trkpt lat="43.2372317" lon="13.15032"><ele>544.0</ele><time>2026-04-26T13:27:25.509Z</time></trkpt><trkpt lat="43.237385" lon="13.150395"><ele>541.75</ele><time>2026-04-26T13:27:26.509Z</time></trkpt><trkpt lat="43.237525" lon="13.1504667"><ele>539.5</ele><time>2026-04-26T13:27:27.509Z</time></trkpt><trkpt lat="43.23766" lon="13.1505217"><ele>537.25</ele><time>2026-04-26T13:27:28.509Z</time></trkpt><trkpt lat="43.2377817" lon="13.15058"><ele>535.0</ele><time>2026-04-26T13:27:29.509Z</time></trkpt><trkpt lat="43.2378767" lon="13.15063"><ele>535.0</ele><time>2026-04-26T13:27:30.509Z</time></trkpt><trkpt lat="43.237945" lon="13.150685"><ele>535.0</ele><time>2026-04-26T13:27:31.51Z</time></trkpt><trkpt lat="43.238" lon="13.1507317"><ele>535.0</ele><time>2026-04-26T13:27:32.509Z</time></trkpt><trkpt lat="43.2380383" lon="13.1508117"><ele>535.0</ele><time>2026-04-26T13:27:34.509Z</time></trkpt><trkpt lat="43.2380067" lon="13.1509017"><ele>535.0</ele><time>2026-04-26T13:27:36.509Z</time></trkpt><trkpt lat="43.2378883" lon="13.1510033"><ele>535.0</ele><time>2026-04-26T13:27:38.51Z</time></trkpt><trkpt lat="43.2378" lon="13.1510733"><ele>532.25</ele><time>2026-04-26T13:27:39.509Z</time></trkpt><trkpt lat="43.237695" lon="13.151155"><ele>529.5</ele><time>2026-04-26T13:27:40.509Z</time></trkpt><trkpt lat="43.2375667" lon="13.1512583"><ele>526.75</ele><time>2026-04-26T13:27:41.509Z</time></trkpt><trkpt lat="43.2374267" lon="13.1513633"><ele>524.0</ele><time>2026-04-26T13:27:42.509Z</time></trkpt><trkpt lat="43.2373033" lon="13.1514717"><ele>519.6666666666666</ele><time>2026-04-26T13:27:43.51Z</time></trkpt><trkpt lat="43.2371683" lon="13.1515867"><ele>515.3333333333334</ele><time>2026-04-26T13:27:44.509Z</time></trkpt><trkpt lat="43.2370483" lon="13.1517017"><ele>511.0</ele><time>2026-04-26T13:27:45.509Z</time></trkpt><trkpt lat="43.2369233" lon="13.15181"><ele>511.0</ele><time>2026-04-26T13:27:46.509Z</time></trkpt><trkpt lat="43.23681" lon="13.15191"><ele>511.0</ele><time>2026-04-26T13:27:47.509Z</time></trkpt><trkpt lat="43.23671" lon="13.1519933"><ele>511.0</ele><time>2026-04-26T13:27:48.509Z</time></trkpt><trkpt lat="43.2366033" lon="13.152065"><ele>511.0</ele><time>2026-04-26T13:27:49.51Z</time></trkpt><trkpt lat="43.236515" lon="13.15213"><ele>511.75</ele><time>2026-04-26T13:27:50.509Z</time></trkpt><trkpt lat="43.2364467" lon="13.1521883"><ele>512.5</ele><time>2026-04-26T13:27:51.51Z</time></trkpt><trkpt lat="43.23635" lon="13.1522633"><ele>513.25</ele><time>2026-04-26T13:27:53.51Z</time></trkpt><trkpt lat="43.2362033" lon="13.1523383"><ele>514.0</ele><time>2026-04-26T13:27:55.509Z</time></trkpt><trkpt lat="43.2360917" lon="13.152415"><ele>511.5</ele><time>2026-04-26T13:27:56.509Z</time></trkpt><trkpt lat="43.2359633" lon="13.15251"><ele>509.0</ele><time>2026-04-26T13:27:57.509Z</time></trkpt><trkpt lat="43.23583" lon="13.1525967"><ele>506.5</ele><time>2026-04-26T13:27:58.51Z</time></trkpt><trkpt lat="43.2357067" lon="13.1526633"><ele>504.0</ele><time>2026-04-26T13:27:59.51Z</time></trkpt><trkpt lat="43.235585" lon="13.1527283"><ele>504.0</ele><time>2026-04-26T13:28:00.51Z</time></trkpt><trkpt lat="43.2354633" lon="13.152775"><ele>504.0</ele><time>2026-04-26T13:28:01.509Z</time></trkpt><trkpt lat="43.2353633" lon="13.1528167"><ele>504.0</ele><time>2026-04-26T13:28:02.509Z</time></trkpt><trkpt lat="43.2352767" lon="13.1528617"><ele>504.0</ele><time>2026-04-26T13:28:03.509Z</time></trkpt><trkpt lat="43.2352067" lon="13.1529267"><ele>504.0</ele><time>2026-04-26T13:28:04.51Z</time></trkpt><trkpt lat="43.2351667" lon="13.1530233"><ele>504.0</ele><time>2026-04-26T13:28:05.509Z</time></trkpt><trkpt lat="43.2351383" lon="13.15315"><ele>504.0</ele><time>2026-04-26T13:28:06.509Z</time></trkpt><trkpt lat="43.235115" lon="13.1533017"><ele>504.0</ele><time>2026-04-26T13:28:07.509Z</time></trkpt><trkpt lat="43.2350817" lon="13.153465"><ele>504.0</ele><time>2026-04-26T13:28:08.509Z</time></trkpt><trkpt lat="43.2350433" lon="13.153635"><ele>500.75</ele><time>2026-04-26T13:28:09.509Z</time></trkpt><trkpt lat="43.23498" lon="13.1538"><ele>497.5</ele><time>2026-04-26T13:28:10.509Z</time></trkpt><trkpt lat="43.23492" lon="13.153975"><ele>494.25</ele><time>2026-04-26T13:28:11.51Z</time></trkpt><trkpt lat="43.2348467" lon="13.1541283"><ele>491.0</ele><time>2026-04-26T13:28:12.509Z</time></trkpt><trkpt lat="43.2347733" lon="13.154285"><ele>491.0</ele><time>2026-04-26T13:28:13.509Z</time></trkpt><trkpt lat="43.234705" lon="13.1544333"><ele>491.0</ele><time>2026-04-26T13:28:14.509Z</time></trkpt><trkpt lat="43.2346167" lon="13.1545567"><ele>491.0</ele><time>2026-04-26T13:28:15.509Z</time></trkpt><trkpt lat="43.2345117" lon="13.1546683"><ele>491.0</ele><time>2026-04-26T13:28:16.51Z</time></trkpt><trkpt lat="43.2343883" lon="13.1547617"><ele>491.0</ele><time>2026-04-26T13:28:17.51Z</time></trkpt><trkpt lat="43.2342583" lon="13.154835"><ele>491.0</ele><time>2026-04-26T13:28:18.51Z</time></trkpt><trkpt lat="43.23414" lon="13.1549117"><ele>491.0</ele><time>2026-04-26T13:28:19.509Z</time></trkpt><trkpt lat="43.2340533" lon="13.1549883"><ele>491.0</ele><time>2026-04-26T13:28:20.509Z</time></trkpt><trkpt lat="43.2339867" lon="13.1550567"><ele>489.16666666666663</ele><time>2026-04-26T13:28:21.509Z</time></trkpt><trkpt lat="43.23394" lon="13.1551433"><ele>487.3333333333333</ele><time>2026-04-26T13:28:22.509Z</time></trkpt><trkpt lat="43.2339317" lon="13.15525"><ele>485.5</ele><time>2026-04-26T13:28:23.509Z</time></trkpt><trkpt lat="43.2339533" lon="13.1553667"><ele>483.66666666666663</ele><time>2026-04-26T13:28:24.51Z</time></trkpt><trkpt lat="43.2340017" lon="13.15546"><ele>481.8333333333333</ele><time>2026-04-26T13:28:25.509Z</time></trkpt><trkpt lat="43.2340767" lon="13.15554"><ele>480.0</ele><time>2026-04-26T13:28:26.509Z</time></trkpt><trkpt lat="43.234175" lon="13.155605"><ele>480.0</ele><time>2026-04-26T13:28:27.509Z</time></trkpt><trkpt lat="43.2342917" lon="13.1556317"><ele>480.0</ele><time>2026-04-26T13:28:28.51Z</time></trkpt><trkpt lat="43.2344067" lon="13.155625"><ele>480.0</ele><time>2026-04-26T13:28:29.509Z</time></trkpt><trkpt lat="43.2345183" lon="13.1555867"><ele>480.0</ele><time>2026-04-26T13:28:30.509Z</time></trkpt><trkpt lat="43.23463" lon="13.1555117"><ele>480.0</ele><time>2026-04-26T13:28:31.509Z</time></trkpt><trkpt lat="43.2347333" lon="13.155405"><ele>480.0</ele><time>2026-04-26T13:28:32.51Z</time></trkpt><trkpt lat="43.2348433" lon="13.1553117"><ele>480.0</ele><time>2026-04-26T13:28:33.51Z</time></trkpt><trkpt lat="43.2349467" lon="13.15525"><ele>480.0</ele><time>2026-04-26T13:28:34.509Z</time></trkpt><trkpt lat="43.2350333" lon="13.1552033"><ele>478.6</ele><time>2026-04-26T13:28:35.509Z</time></trkpt><trkpt lat="43.2351" lon="13.1551733"><ele>477.2</ele><time>2026-04-26T13:28:36.509Z</time></trkpt><trkpt lat="43.2352" lon="13.1551433"><ele>475.79999999999995</ele><time>2026-04-26T13:28:38.509Z</time></trkpt><trkpt lat="43.235285" lon="13.1552783"><ele>474.4</ele><time>2026-04-26T13:28:40.509Z</time></trkpt><trkpt lat="43.235305" lon="13.1554117"><ele>473.0</ele><time>2026-04-26T13:28:41.509Z</time></trkpt><trkpt lat="43.2353167" lon="13.15555"><ele>473.0</ele><time>2026-04-26T13:28:42.509Z</time></trkpt><trkpt lat="43.23532" lon="13.1556917"><ele>473.0</ele><time>2026-04-26T13:28:43.51Z</time></trkpt><trkpt lat="43.2352883" lon="13.1558333"><ele>473.0</ele><time>2026-04-26T13:28:44.51Z</time></trkpt><trkpt lat="43.23523" lon="13.1560017"><ele>473.0</ele><time>2026-04-26T13:28:45.509Z</time></trkpt><trkpt lat="43.2351617" lon="13.1561733"><ele>470.0</ele><time>2026-04-26T13:28:46.509Z</time></trkpt><trkpt lat="43.2350933" lon="13.1563233"><ele>467.0</ele><time>2026-04-26T13:28:47.509Z</time></trkpt><trkpt lat="43.2350133" lon="13.15648"><ele>464.0</ele><time>2026-04-26T13:28:48.509Z</time></trkpt><trkpt lat="43.23494" lon="13.15662"><ele>461.0</ele><time>2026-04-26T13:28:49.509Z</time></trkpt><trkpt lat="43.2348517" lon="13.1567333"><ele>459.75</ele><time>2026-04-26T13:28:50.51Z</time></trkpt><trkpt lat="43.23475" lon="13.15683"><ele>458.5</ele><time>2026-04-26T13:28:51.509Z</time></trkpt><trkpt lat="43.2346383" lon="13.1569217"><ele>457.25</ele><time>2026-04-26T13:28:52.509Z</time></trkpt><trkpt lat="43.2345283" lon="13.1570167"><ele>456.0</ele><time>2026-04-26T13:28:53.509Z</time></trkpt><trkpt lat="43.2344317" lon="13.1571"><ele>456.0</ele><time>2026-04-26T13:28:54.51Z</time></trkpt><trkpt lat="43.2343517" lon="13.1571883"><ele>456.0</ele><time>2026-04-26T13:28:55.509Z</time></trkpt><trkpt lat="43.2342883" lon="13.1573017"><ele>456.0</ele><time>2026-04-26T13:28:56.51Z</time></trkpt><trkpt lat="43.2342383" lon="13.15744"><ele>456.0</ele><time>2026-04-26T13:28:57.509Z</time></trkpt><trkpt lat="43.2342" lon="13.157615"><ele>453.20000000000005</ele><time>2026-04-26T13:28:58.51Z</time></trkpt><trkpt lat="43.23416" lon="13.1578"><ele>450.40000000000003</ele><time>2026-04-26T13:28:59.509Z</time></trkpt><trkpt lat="43.234125" lon="13.157965"><ele>447.6</ele><time>2026-04-26T13:29:00.509Z</time></trkpt><trkpt lat="43.2340867" lon="13.1580967"><ele>444.8</ele><time>2026-04-26T13:29:01.509Z</time></trkpt><trkpt lat="43.23407" lon="13.1582033"><ele>442.0</ele><time>2026-04-26T13:29:02.509Z</time></trkpt><trkpt lat="43.2340833" lon="13.1583317"><ele>442.0</ele><time>2026-04-26T13:29:04.51Z</time></trkpt><trkpt lat="43.2342067" lon="13.15831"><ele>442.0</ele><time>2026-04-26T13:29:06.51Z</time></trkpt><trkpt lat="43.2343083" lon="13.1582417"><ele>442.0</ele><time>2026-04-26T13:29:07.509Z</time></trkpt><trkpt lat="43.2344217" lon="13.1581583"><ele>442.0</ele><time>2026-04-26T13:29:08.51Z</time></trkpt><trkpt lat="43.2345417" lon="13.1580767"><ele>442.0</ele><time>2026-04-26T13:29:09.509Z</time></trkpt><trkpt lat="43.23464" lon="13.1580217"><ele>442.00000000000006</ele><time>2026-04-26T13:29:10.51Z</time></trkpt><trkpt lat="43.234715" lon="13.1579867"><ele>442.00000000000006</ele><time>2026-04-26T13:29:11.509Z</time></trkpt><trkpt lat="43.234825" lon="13.158025"><ele>442.0</ele><time>2026-04-26T13:29:13.509Z</time></trkpt><trkpt lat="43.23486" lon="13.1581"><ele>442.0</ele><time>2026-04-26T13:29:14.509Z</time></trkpt><trkpt lat="43.23487" lon="13.158235"><ele>434.75</ele><time>2026-04-26T13:29:15.509Z</time></trkpt><trkpt lat="43.2348767" lon="13.1584083"><ele>427.5</ele><time>2026-04-26T13:29:16.509Z</time></trkpt><trkpt lat="43.2348717" lon="13.1586117"><ele>420.25</ele><time>2026-04-26T13:29:17.509Z</time></trkpt><trkpt lat="43.2348783" lon="13.1588367"><ele>413.0</ele><time>2026-04-26T13:29:18.509Z</time></trkpt><trkpt lat="43.2348717" lon="13.1590233"><ele>410.5</ele><time>2026-04-26T13:29:19.509Z</time></trkpt><trkpt lat="43.234845" lon="13.159215"><ele>408.0</ele><time>2026-04-26T13:29:20.509Z</time></trkpt><trkpt lat="43.2348183" lon="13.1593967"><ele>405.5</ele><time>2026-04-26T13:29:21.509Z</time></trkpt><trkpt lat="43.2348067" lon="13.1595633"><ele>403.0</ele><time>2026-04-26T13:29:22.509Z</time></trkpt><trkpt lat="43.2348083" lon="13.1597217"><ele>401.59999999999997</ele><time>2026-04-26T13:29:23.509Z</time></trkpt><trkpt lat="43.23482" lon="13.1598867"><ele>400.2</ele><time>2026-04-26T13:29:24.51Z</time></trkpt><trkpt lat="43.234845" lon="13.16004"><ele>398.8</ele><time>2026-04-26T13:29:25.509Z</time></trkpt><trkpt lat="43.234885" lon="13.1601717"><ele>397.4</ele><time>2026-04-26T13:29:26.51Z</time></trkpt><trkpt lat="43.2349417" lon="13.1602933"><ele>396.0</ele><time>2026-04-26T13:29:27.509Z</time></trkpt><trkpt lat="43.2350133" lon="13.16041"><ele>396.0</ele><time>2026-04-26T13:29:28.509Z</time></trkpt><trkpt lat="43.2351017" lon="13.1605117"><ele>396.0</ele><time>2026-04-26T13:29:29.509Z</time></trkpt><trkpt lat="43.2351933" lon="13.1606183"><ele>396.0</ele><time>2026-04-26T13:29:30.509Z</time></trkpt><trkpt lat="43.2352767" lon="13.1607317"><ele>396.0</ele><time>2026-04-26T13:29:31.509Z</time></trkpt><trkpt lat="43.2353483" lon="13.160865"><ele>394.0</ele><time>2026-04-26T13:29:32.509Z</time></trkpt><trkpt lat="43.2354067" lon="13.16101"><ele>392.0</ele><time>2026-04-26T13:29:33.509Z</time></trkpt><trkpt lat="43.2354583" lon="13.1611783"><ele>390.0</ele><time>2026-04-26T13:29:34.509Z</time></trkpt><trkpt lat="43.2354933" lon="13.1613433"><ele>388.0</ele><time>2026-04-26T13:29:35.509Z</time></trkpt><trkpt lat="43.2354983" lon="13.1615233"><ele>384.25</ele><time>2026-04-26T13:29:36.509Z</time></trkpt><trkpt lat="43.235495" lon="13.161705"><ele>380.5</ele><time>2026-04-26T13:29:37.51Z</time></trkpt><trkpt lat="43.235465" lon="13.1618667"><ele>376.75</ele><time>2026-04-26T13:29:38.51Z</time></trkpt><trkpt lat="43.2354217" lon="13.1620367"><ele>373.0</ele><time>2026-04-26T13:29:39.509Z</time></trkpt><trkpt lat="43.235375" lon="13.1621983"><ele>373.0</ele><time>2026-04-26T13:29:40.509Z</time></trkpt><trkpt lat="43.2353267" lon="13.1623517"><ele>373.0</ele><time>2026-04-26T13:29:41.509Z</time></trkpt><trkpt lat="43.2352833" lon="13.16249"><ele>373.0</ele><time>2026-04-26T13:29:42.509Z</time></trkpt><trkpt lat="43.2352267" lon="13.1626283"><ele>373.0</ele><time>2026-04-26T13:29:43.51Z</time></trkpt><trkpt lat="43.2351533" lon="13.16277"><ele>369.5</ele><time>2026-04-26T13:29:44.509Z</time></trkpt><trkpt lat="43.2350617" lon="13.1629017"><ele>366.0</ele><time>2026-04-26T13:29:45.509Z</time></trkpt><trkpt lat="43.23497" lon="13.1630233"><ele>362.5</ele><time>2026-04-26T13:29:46.509Z</time></trkpt><trkpt lat="43.2348833" lon="13.1631233"><ele>359.0</ele><time>2026-04-26T13:29:47.51Z</time></trkpt><trkpt lat="43.2347917" lon="13.1632167"><ele>355.79999999999995</ele><time>2026-04-26T13:29:48.509Z</time></trkpt><trkpt lat="43.234705" lon="13.1632967"><ele>352.59999999999997</ele><time>2026-04-26T13:29:49.51Z</time></trkpt><trkpt lat="43.234625" lon="13.1633667"><ele>349.4</ele><time>2026-04-26T13:29:50.509Z</time></trkpt><trkpt lat="43.23456" lon="13.1634267"><ele>346.2</ele><time>2026-04-26T13:29:51.51Z</time></trkpt><trkpt lat="43.2345183" lon="13.1635067"><ele>343.0</ele><time>2026-04-26T13:29:52.509Z</time></trkpt><trkpt lat="43.23453" lon="13.163675"><ele>343.0</ele><time>2026-04-26T13:29:54.51Z</time></trkpt><trkpt lat="43.234595" lon="13.1637583"><ele>343.0</ele><time>2026-04-26T13:29:55.509Z</time></trkpt><trkpt lat="43.23468" lon="13.1638133"><ele>343.0</ele><time>2026-04-26T13:29:56.509Z</time></trkpt><trkpt lat="43.2347533" lon="13.1638567"><ele>343.0</ele><time>2026-04-26T13:29:57.509Z</time></trkpt><trkpt lat="43.2348217" lon="13.1639667"><ele>343.0</ele><time>2026-04-26T13:29:59.51Z</time></trkpt><trkpt lat="43.23475" lon="13.1640833"><ele>343.0</ele><time>2026-04-26T13:30:01.509Z</time></trkpt><trkpt lat="43.2346667" lon="13.1641083"><ele>343.0</ele><time>2026-04-26T13:30:02.509Z</time></trkpt><trkpt lat="43.2345567" lon="13.1640967"><ele>343.0</ele><time>2026-04-26T13:30:03.51Z</time></trkpt><trkpt lat="43.2344267" lon="13.1640667"><ele>343.0</ele><time>2026-04-26T13:30:04.509Z</time></trkpt><trkpt lat="43.2342883" lon="13.1640283"><ele>343.0</ele><time>2026-04-26T13:30:05.509Z</time></trkpt><trkpt lat="43.2341417" lon="13.16402"><ele>343.0</ele><time>2026-04-26T13:30:06.509Z</time></trkpt><trkpt lat="43.2340083" lon="13.164055"><ele>343.0</ele><time>2026-04-26T13:30:07.51Z</time></trkpt><trkpt lat="43.2338867" lon="13.1641267"><ele>343.0</ele><time>2026-04-26T13:30:08.509Z</time></trkpt><trkpt lat="43.2337717" lon="13.1641933"><ele>334.75</ele><time>2026-04-26T13:30:09.509Z</time></trkpt><trkpt lat="43.2336617" lon="13.164235"><ele>326.5</ele><time>2026-04-26T13:30:10.509Z</time></trkpt><trkpt lat="43.2335483" lon="13.1642133"><ele>318.25</ele><time>2026-04-26T13:30:11.509Z</time></trkpt><trkpt lat="43.233435" lon="13.16416"><ele>310.0</ele><time>2026-04-26T13:30:12.51Z</time></trkpt><trkpt lat="43.2333283" lon="13.1640883"><ele>309.25</ele><time>2026-04-26T13:30:13.509Z</time></trkpt><trkpt lat="43.2332217" lon="13.1639933"><ele>308.5</ele><time>2026-04-26T13:30:14.509Z</time></trkpt><trkpt lat="43.2331067" lon="13.16389"><ele>307.75</ele><time>2026-04-26T13:30:15.509Z</time></trkpt><trkpt lat="43.2329917" lon="13.1637867"><ele>307.0</ele><time>2026-04-26T13:30:16.509Z</time></trkpt><trkpt lat="43.2328767" lon="13.1637067"><ele>307.0</ele><time>2026-04-26T13:30:17.51Z</time></trkpt><trkpt lat="43.2327667" lon="13.16362"><ele>307.0</ele><time>2026-04-26T13:30:18.509Z</time></trkpt><trkpt lat="43.2326767" lon="13.163545"><ele>307.0</ele><time>2026-04-26T13:30:19.51Z</time></trkpt><trkpt lat="43.2325933" lon="13.1634917"><ele>307.0</ele><time>2026-04-26T13:30:20.509Z</time></trkpt><trkpt lat="43.2325333" lon="13.1634583"><ele>307.0</ele><time>2026-04-26T13:30:21.509Z</time></trkpt><trkpt lat="43.2324517" lon="13.1634867"><ele>307.0</ele><time>2026-04-26T13:30:23.509Z</time></trkpt><trkpt lat="43.2324683" lon="13.1636417"><ele>307.0</ele><time>2026-04-26T13:30:25.51Z</time></trkpt><trkpt lat="43.2324917" lon="13.163735"><ele>307.0</ele><time>2026-04-26T13:30:26.51Z</time></trkpt><trkpt lat="43.2324583" lon="13.163865"><ele>307.0</ele><time>2026-04-26T13:30:28.51Z</time></trkpt><trkpt lat="43.232395" lon="13.1638883"><ele>307.0</ele><time>2026-04-26T13:30:29.509Z</time></trkpt><trkpt lat="43.2322983" lon="13.163915"><ele>305.25</ele><time>2026-04-26T13:30:30.509Z</time></trkpt><trkpt lat="43.2321867" lon="13.1639683"><ele>303.5</ele><time>2026-04-26T13:30:31.509Z</time></trkpt><trkpt lat="43.2320733" lon="13.164055"><ele>301.75</ele><time>2026-04-26T13:30:32.509Z</time></trkpt><trkpt lat="43.2319467" lon="13.1641683"><ele>300.0</ele><time>2026-04-26T13:30:33.509Z</time></trkpt><trkpt lat="43.2318433" lon="13.1642617"><ele>297.3333333333333</ele><time>2026-04-26T13:30:34.509Z</time></trkpt><trkpt lat="43.23177" lon="13.1643433"><ele>294.6666666666667</ele><time>2026-04-26T13:30:35.509Z</time></trkpt><trkpt lat="43.2317167" lon="13.1644083"><ele>292.0</ele><time>2026-04-26T13:30:36.51Z</time></trkpt><trkpt lat="43.2317133" lon="13.1645617"><ele>289.33333333333337</ele><time>2026-04-26T13:30:38.509Z</time></trkpt><trkpt lat="43.231765" lon="13.1646117"><ele>286.6666666666667</ele><time>2026-04-26T13:30:39.509Z</time></trkpt><trkpt lat="43.231845" lon="13.164625"><ele>284.0</ele><time>2026-04-26T13:30:40.509Z</time></trkpt><trkpt lat="43.2319333" lon="13.164605"><ele>284.0</ele><time>2026-04-26T13:30:41.509Z</time></trkpt><trkpt lat="43.2320233" lon="13.16461"><ele>284.0</ele><time>2026-04-26T13:30:42.51Z</time></trkpt><trkpt lat="43.23211" lon="13.1646567"><ele>284.0</ele><time>2026-04-26T13:30:43.509Z</time></trkpt><trkpt lat="43.2321867" lon="13.1647533"><ele>284.0</ele><time>2026-04-26T13:30:44.509Z</time></trkpt><trkpt lat="43.2322633" lon="13.1648917"><ele>284.0</ele><time>2026-04-26T13:30:45.509Z</time></trkpt><trkpt lat="43.2323533" lon="13.1650583"><ele>281.6666666666667</ele><time>2026-04-26T13:30:46.509Z</time></trkpt><trkpt lat="43.2324567" lon="13.1652617"><ele>279.3333333333333</ele><time>2026-04-26T13:30:47.509Z</time></trkpt><trkpt lat="43.2325567" lon="13.1654633"><ele>277.0</ele><time>2026-04-26T13:30:48.509Z</time></trkpt><trkpt lat="43.23265" lon="13.1656433"><ele>272.0</ele><time>2026-04-26T13:30:49.509Z</time></trkpt><trkpt lat="43.2327433" lon="13.1658067"><ele>267.0</ele><time>2026-04-26T13:30:50.51Z</time></trkpt><trkpt lat="43.2328267" lon="13.1659783"><ele>262.0</ele><time>2026-04-26T13:30:51.509Z</time></trkpt><trkpt lat="43.2329083" lon="13.1661533"><ele>262.0</ele><time>2026-04-26T13:30:52.509Z</time></trkpt><trkpt lat="43.2329817" lon="13.1663283"><ele>262.0</ele><time>2026-04-26T13:30:53.509Z</time></trkpt><trkpt lat="43.2330367" lon="13.1665"><ele>262.0</ele><time>2026-04-26T13:30:54.51Z</time></trkpt><trkpt lat="43.23307" lon="13.1666467"><ele>262.0</ele><time>2026-04-26T13:30:55.509Z</time></trkpt><trkpt lat="43.2330783" lon="13.1667667"><ele>260.0</ele><time>2026-04-26T13:30:56.51Z</time></trkpt><trkpt lat="43.2330717" lon="13.166885"><ele>258.0</ele><time>2026-04-26T13:30:57.509Z</time></trkpt><trkpt lat="43.23303" lon="13.1669933"><ele>256.0</ele><time>2026-04-26T13:30:58.509Z</time></trkpt><trkpt lat="43.2329633" lon="13.16709"><ele>254.0</ele><time>2026-04-26T13:30:59.509Z</time></trkpt><trkpt lat="43.2328567" lon="13.1671733"><ele>252.0</ele><time>2026-04-26T13:31:00.509Z</time></trkpt><trkpt lat="43.2327283" lon="13.1672483"><ele>252.0</ele><time>2026-04-26T13:31:01.509Z</time></trkpt><trkpt lat="43.232585" lon="13.1673067"><ele>252.0</ele><time>2026-04-26T13:31:02.509Z</time></trkpt><trkpt lat="43.2324617" lon="13.167355"><ele>252.0</ele><time>2026-04-26T13:31:03.509Z</time></trkpt><trkpt lat="43.232335" lon="13.16741"><ele>252.0</ele><time>2026-04-26T13:31:04.509Z</time></trkpt><trkpt lat="43.2321583" lon="13.167515"><ele>248.5</ele><time>2026-04-26T13:31:05.51Z</time></trkpt><trkpt lat="43.2320267" lon="13.1676"><ele>245.0</ele><time>2026-04-26T13:31:06.509Z</time></trkpt><trkpt lat="43.2319" lon="13.1676433"><ele>241.5</ele><time>2026-04-26T13:31:07.509Z</time></trkpt><trkpt lat="43.2317733" lon="13.16763"><ele>238.0</ele><time>2026-04-26T13:31:08.509Z</time></trkpt><trkpt lat="43.23166" lon="13.1676567"><ele>238.0</ele><time>2026-04-26T13:31:09.509Z</time></trkpt><trkpt lat="43.2315483" lon="13.167695"><ele>238.0</ele><time>2026-04-26T13:31:10.509Z</time></trkpt><trkpt lat="43.231445" lon="13.1677233"><ele>238.0</ele><time>2026-04-26T13:31:11.509Z</time></trkpt><trkpt lat="43.23135" lon="13.1677417"><ele>238.0</ele><time>2026-04-26T13:31:12.509Z</time></trkpt><trkpt lat="43.231265" lon="13.1677433"><ele>238.0</ele><time>2026-04-26T13:31:13.509Z</time></trkpt><trkpt lat="43.2311883" lon="13.1677267"><ele>237.2</ele><time>2026-04-26T13:31:14.509Z</time></trkpt><trkpt lat="43.2311233" lon="13.1676667"><ele>236.4</ele><time>2026-04-26T13:31:15.509Z</time></trkpt><trkpt lat="43.23107" lon="13.1675667"><ele>235.59999999999997</ele><time>2026-04-26T13:31:16.509Z</time></trkpt><trkpt lat="43.2310267" lon="13.16741"><ele>234.79999999999998</ele><time>2026-04-26T13:31:17.509Z</time></trkpt><trkpt lat="43.2309967" lon="13.1671967"><ele>234.0</ele><time>2026-04-26T13:31:18.509Z</time></trkpt><trkpt lat="43.230965" lon="13.16695"><ele>234.0</ele><time>2026-04-26T13:31:19.509Z</time></trkpt><trkpt lat="43.2309167" lon="13.1666883"><ele>234.0</ele><time>2026-04-26T13:31:20.51Z</time></trkpt><trkpt lat="43.23085" lon="13.1664283"><ele>234.0</ele><time>2026-04-26T13:31:21.51Z</time></trkpt><trkpt lat="43.230775" lon="13.166185"><ele>233.33333333333331</ele><time>2026-04-26T13:31:22.509Z</time></trkpt><trkpt lat="43.230695" lon="13.1659533"><ele>232.66666666666666</ele><time>2026-04-26T13:31:23.509Z</time></trkpt><trkpt lat="43.2306267" lon="13.165755"><ele>232.0</ele><time>2026-04-26T13:31:24.508Z</time></trkpt><trkpt lat="43.2305583" lon="13.1655667"><ele>232.8</ele><time>2026-04-26T13:31:25.508Z</time></trkpt><trkpt lat="43.2305067" lon="13.1654117"><ele>233.6</ele><time>2026-04-26T13:31:26.508Z</time></trkpt><trkpt lat="43.230465" lon="13.165305"><ele>234.40000000000003</ele><time>2026-04-26T13:31:27.508Z</time></trkpt><trkpt lat="43.2304383" lon="13.1652217"><ele>235.20000000000002</ele><time>2026-04-26T13:31:28.508Z</time></trkpt><trkpt lat="43.230385" lon="13.16517"><ele>236.0</ele><time>2026-04-26T13:31:30.508Z</time></trkpt><trkpt lat="43.2302983" lon="13.165265"><ele>236.0</ele><time>2026-04-26T13:31:32.508Z</time></trkpt><trkpt lat="43.2302267" lon="13.1653633"><ele>236.00000000000003</ele><time>2026-04-26T13:31:33.508Z</time></trkpt><trkpt lat="43.2301533" lon="13.16545"><ele>236.00000000000003</ele><time>2026-04-26T13:31:34.508Z</time></trkpt><trkpt lat="43.230075" lon="13.165505"><ele>236.0</ele><time>2026-04-26T13:31:35.508Z</time></trkpt><trkpt lat="43.2299817" lon="13.1655367"><ele>236.0</ele><time>2026-04-26T13:31:36.508Z</time></trkpt><trkpt lat="43.2298767" lon="13.165535"><ele>235.83333333333334</ele><time>2026-04-26T13:31:37.509Z</time></trkpt><trkpt lat="43.2297783" lon="13.165535"><ele>235.66666666666669</ele><time>2026-04-26T13:31:38.508Z</time></trkpt><trkpt lat="43.2296967" lon="13.165555"><ele>235.5</ele><time>2026-04-26T13:31:39.508Z</time></trkpt><trkpt lat="43.2296367" lon="13.165605"><ele>235.33333333333331</ele><time>2026-04-26T13:31:40.508Z</time></trkpt><trkpt lat="43.2296017" lon="13.1656833"><ele>235.16666666666666</ele><time>2026-04-26T13:31:41.508Z</time></trkpt><trkpt lat="43.229585" lon="13.1657833"><ele>235.0</ele><time>2026-04-26T13:31:42.509Z</time></trkpt><trkpt lat="43.229595" lon="13.16592"><ele>236.0</ele><time>2026-04-26T13:31:43.508Z</time></trkpt><trkpt lat="43.2296367" lon="13.1660883"><ele>237.0</ele><time>2026-04-26T13:31:44.509Z</time></trkpt><trkpt lat="43.2296917" lon="13.166285"><ele>238.0</ele><time>2026-04-26T13:31:45.508Z</time></trkpt><trkpt lat="43.229745" lon="13.1664883"><ele>239.0</ele><time>2026-04-26T13:31:46.508Z</time></trkpt><trkpt lat="43.2297767" lon="13.1666717"><ele>239.0</ele><time>2026-04-26T13:31:47.508Z</time></trkpt><trkpt lat="43.2297917" lon="13.1668383"><ele>238.99999999999997</ele><time>2026-04-26T13:31:48.508Z</time></trkpt><trkpt lat="43.2297833" lon="13.1669833"><ele>238.99999999999997</ele><time>2026-04-26T13:31:49.508Z</time></trkpt><trkpt lat="43.2297433" lon="13.16711"><ele>239.0</ele><time>2026-04-26T13:31:50.508Z</time></trkpt><trkpt lat="43.2296783" lon="13.16724"><ele>239.0</ele><time>2026-04-26T13:31:51.508Z</time></trkpt><trkpt lat="43.229585" lon="13.167375"><ele>238.0</ele><time>2026-04-26T13:31:52.508Z</time></trkpt><trkpt lat="43.229475" lon="13.1675217"><ele>237.0</ele><time>2026-04-26T13:31:53.508Z</time></trkpt><trkpt lat="43.2293633" lon="13.1676533"><ele>236.0</ele><time>2026-04-26T13:31:54.508Z</time></trkpt><trkpt lat="43.2292667" lon="13.1677917"><ele>235.0</ele><time>2026-04-26T13:31:55.508Z</time></trkpt><trkpt lat="43.2291883" lon="13.1679083"><ele>235.0</ele><time>2026-04-26T13:31:56.508Z</time></trkpt><trkpt lat="43.2291167" lon="13.1679867"><ele>235.0</ele><time>2026-04-26T13:31:57.508Z</time></trkpt><trkpt lat="43.2290383" lon="13.1680283"><ele>235.0</ele><time>2026-04-26T13:31:58.508Z</time></trkpt><trkpt lat="43.2289517" lon="13.1680383"><ele>235.0</ele><time>2026-04-26T13:31:59.509Z</time></trkpt><trkpt lat="43.2288467" lon="13.1680267"><ele>235.0</ele><time>2026-04-26T13:32:00.508Z</time></trkpt><trkpt lat="43.2287383" lon="13.1680167"><ele>237.0</ele><time>2026-04-26T13:32:01.508Z</time></trkpt><trkpt lat="43.22864" lon="13.16802"><ele>239.0</ele><time>2026-04-26T13:32:02.508Z</time></trkpt><trkpt lat="43.2285583" lon="13.1680717"><ele>241.0</ele><time>2026-04-26T13:32:03.508Z</time></trkpt><trkpt lat="43.2285" lon="13.1681617"><ele>243.0</ele><time>2026-04-26T13:32:04.509Z</time></trkpt><trkpt lat="43.2284583" lon="13.1682917"><ele>245.0</ele><time>2026-04-26T13:32:05.509Z</time></trkpt><trkpt lat="43.2284267" lon="13.16847"><ele>245.0</ele><time>2026-04-26T13:32:06.508Z</time></trkpt><trkpt lat="43.2283917" lon="13.168675"><ele>245.0</ele><time>2026-04-26T13:32:07.508Z</time></trkpt><trkpt lat="43.2283517" lon="13.1688717"><ele>245.0</ele><time>2026-04-26T13:32:08.508Z</time></trkpt><trkpt lat="43.2283117" lon="13.1690767"><ele>244.66666666666669</ele><time>2026-04-26T13:32:09.508Z</time></trkpt><trkpt lat="43.228265" lon="13.1692833"><ele>244.33333333333331</ele><time>2026-04-26T13:32:10.508Z</time></trkpt><trkpt lat="43.2282183" lon="13.169495"><ele>244.0</ele><time>2026-04-26T13:32:11.509Z</time></trkpt><trkpt lat="43.22818" lon="13.1697017"><ele>247.66666666666666</ele><time>2026-04-26T13:32:12.509Z</time></trkpt><trkpt lat="43.2281417" lon="13.1699217"><ele>251.33333333333331</ele><time>2026-04-26T13:32:13.508Z</time></trkpt><trkpt lat="43.2281233" lon="13.1701633"><ele>255.0</ele><time>2026-04-26T13:32:14.508Z</time></trkpt><trkpt lat="43.2281033" lon="13.1704067"><ele>255.0</ele><time>2026-04-26T13:32:15.509Z</time></trkpt><trkpt lat="43.2280917" lon="13.17065"><ele>255.0</ele><time>2026-04-26T13:32:16.508Z</time></trkpt><trkpt lat="43.2280783" lon="13.1708867"><ele>255.0</ele><time>2026-04-26T13:32:17.508Z</time></trkpt><trkpt lat="43.2280733" lon="13.171115"><ele>254.75</ele><time>2026-04-26T13:32:18.509Z</time></trkpt><trkpt lat="43.2280633" lon="13.17131"><ele>254.5</ele><time>2026-04-26T13:32:19.508Z</time></trkpt><trkpt lat="43.22806" lon="13.1714917"><ele>254.25</ele><time>2026-04-26T13:32:20.509Z</time></trkpt><trkpt lat="43.2280583" lon="13.171645"><ele>254.0</ele><time>2026-04-26T13:32:21.508Z</time></trkpt><trkpt lat="43.2280433" lon="13.1717583"><ele>254.0</ele><time>2026-04-26T13:32:22.508Z</time></trkpt><trkpt lat="43.22803" lon="13.1718467"><ele>253.99999999999997</ele><time>2026-04-26T13:32:23.508Z</time></trkpt><trkpt lat="43.22799" lon="13.1719417"><ele>253.99999999999997</ele><time>2026-04-26T13:32:26.508Z</time></trkpt><trkpt lat="43.22786" lon="13.1719167"><ele>254.0</ele><time>2026-04-26T13:32:28.508Z</time></trkpt><trkpt lat="43.2277667" lon="13.1718783"><ele>254.0</ele><time>2026-04-26T13:32:29.508Z</time></trkpt><trkpt lat="43.2276533" lon="13.1718433"><ele>254.0</ele><time>2026-04-26T13:32:30.509Z</time></trkpt><trkpt lat="43.227515" lon="13.17182"><ele>254.0</ele><time>2026-04-26T13:32:31.508Z</time></trkpt><trkpt lat="43.2273667" lon="13.1717917"><ele>254.0</ele><time>2026-04-26T13:32:32.509Z</time></trkpt><trkpt lat="43.2272" lon="13.1717967"><ele>256.0</ele><time>2026-04-26T13:32:33.508Z</time></trkpt><trkpt lat="43.2270483" lon="13.1718283"><ele>258.0</ele><time>2026-04-26T13:32:34.509Z</time></trkpt><trkpt lat="43.226895" lon="13.171895"><ele>260.0</ele><time>2026-04-26T13:32:35.508Z</time></trkpt><trkpt lat="43.226725" lon="13.1719817"><ele>260.0</ele><time>2026-04-26T13:32:36.508Z</time></trkpt><trkpt lat="43.2265517" lon="13.1720883"><ele>260.0</ele><time>2026-04-26T13:32:37.509Z</time></trkpt><trkpt lat="43.2263783" lon="13.1722017"><ele>260.0</ele><time>2026-04-26T13:32:38.508Z</time></trkpt><trkpt lat="43.2262067" lon="13.1723133"><ele>264.0</ele><time>2026-04-26T13:32:39.509Z</time></trkpt><trkpt lat="43.22604" lon="13.1724267"><ele>268.0</ele><time>2026-04-26T13:32:40.509Z</time></trkpt><trkpt lat="43.2258967" lon="13.17254"><ele>272.0</ele><time>2026-04-26T13:32:41.509Z</time></trkpt><trkpt lat="43.22575" lon="13.1726383"><ele>272.0</ele><time>2026-04-26T13:32:42.508Z</time></trkpt><trkpt lat="43.2256183" lon="13.1727417"><ele>272.0</ele><time>2026-04-26T13:32:43.508Z</time></trkpt><trkpt lat="43.2254817" lon="13.1728583"><ele>272.0</ele><time>2026-04-26T13:32:44.508Z</time></trkpt><trkpt lat="43.225355" lon="13.172975"><ele>272.0</ele><time>2026-04-26T13:32:45.508Z</time></trkpt><trkpt lat="43.225245" lon="13.1730883"><ele>272.0</ele><time>2026-04-26T13:32:46.508Z</time></trkpt><trkpt lat="43.2251417" lon="13.1732"><ele>272.0</ele><time>2026-04-26T13:32:47.508Z</time></trkpt><trkpt lat="43.2250617" lon="13.1733083"><ele>272.0</ele><time>2026-04-26T13:32:48.509Z</time></trkpt><trkpt lat="43.224985" lon="13.17343"><ele>273.25</ele><time>2026-04-26T13:32:49.509Z</time></trkpt><trkpt lat="43.2249167" lon="13.173565"><ele>274.5</ele><time>2026-04-26T13:32:50.508Z</time></trkpt><trkpt lat="43.2248533" lon="13.1737167"><ele>275.75</ele><time>2026-04-26T13:32:51.508Z</time></trkpt><trkpt lat="43.2248083" lon="13.1738717"><ele>277.0</ele><time>2026-04-26T13:32:52.508Z</time></trkpt><trkpt lat="43.2247717" lon="13.174025"><ele>278.0</ele><time>2026-04-26T13:32:53.509Z</time></trkpt><trkpt lat="43.224725" lon="13.174155"><ele>279.0</ele><time>2026-04-26T13:32:54.508Z</time></trkpt><trkpt lat="43.2246583" lon="13.174265"><ele>280.0</ele><time>2026-04-26T13:32:55.508Z</time></trkpt><trkpt lat="43.2245633" lon="13.1743417"><ele>281.0</ele><time>2026-04-26T13:32:56.508Z</time></trkpt><trkpt lat="43.2244633" lon="13.1744167"><ele>282.0</ele><time>2026-04-26T13:32:57.508Z</time></trkpt><trkpt lat="43.224345" lon="13.1744833"><ele>282.0</ele><time>2026-04-26T13:32:58.508Z</time></trkpt><trkpt lat="43.22421" lon="13.1745667"><ele>282.0</ele><time>2026-04-26T13:32:59.508Z</time></trkpt><trkpt lat="43.2240783" lon="13.17467"><ele>282.0</ele><time>2026-04-26T13:33:00.508Z</time></trkpt><trkpt lat="43.2239417" lon="13.1748017"><ele>284.3333333333333</ele><time>2026-04-26T13:33:01.508Z</time></trkpt><trkpt lat="43.223805" lon="13.1749583"><ele>286.66666666666663</ele><time>2026-04-26T13:33:02.508Z</time></trkpt><trkpt lat="43.2236667" lon="13.17513"><ele>289.0</ele><time>2026-04-26T13:33:03.508Z</time></trkpt><trkpt lat="43.223525" lon="13.1753167"><ele>289.0</ele><time>2026-04-26T13:33:04.509Z</time></trkpt><trkpt lat="43.2234" lon="13.1754817"><ele>289.0</ele><time>2026-04-26T13:33:05.508Z</time></trkpt><trkpt lat="43.223285" lon="13.1756217"><ele>289.0</ele><time>2026-04-26T13:33:06.508Z</time></trkpt><trkpt lat="43.22316" lon="13.1757167"><ele>291.0</ele><time>2026-04-26T13:33:07.508Z</time></trkpt><trkpt lat="43.22304" lon="13.1757817"><ele>293.0</ele><time>2026-04-26T13:33:08.508Z</time></trkpt><trkpt lat="43.2229033" lon="13.1758067"><ele>295.0</ele><time>2026-04-26T13:33:09.508Z</time></trkpt><trkpt lat="43.22275" lon="13.17582"><ele>297.0</ele><time>2026-04-26T13:33:10.508Z</time></trkpt><trkpt lat="43.222575" lon="13.175805"><ele>297.0</ele><time>2026-04-26T13:33:11.508Z</time></trkpt><trkpt lat="43.2224033" lon="13.1757867"><ele>297.0</ele><time>2026-04-26T13:33:12.509Z</time></trkpt><trkpt lat="43.22224" lon="13.1757383"><ele>297.0</ele><time>2026-04-26T13:33:13.508Z</time></trkpt><trkpt lat="43.22208" lon="13.1757017"><ele>297.0</ele><time>2026-04-26T13:33:14.508Z</time></trkpt><trkpt lat="43.2219367" lon="13.175675"><ele>297.0</ele><time>2026-04-26T13:33:15.508Z</time></trkpt><trkpt lat="43.2217867" lon="13.175675"><ele>297.0</ele><time>2026-04-26T13:33:16.508Z</time></trkpt><trkpt lat="43.2216367" lon="13.1757117"><ele>297.0</ele><time>2026-04-26T13:33:17.508Z</time></trkpt><trkpt lat="43.22148" lon="13.17579"><ele>299.6666666666667</ele><time>2026-04-26T13:33:18.508Z</time></trkpt><trkpt lat="43.2213183" lon="13.1759083"><ele>302.33333333333337</ele><time>2026-04-26T13:33:19.508Z</time></trkpt><trkpt lat="43.2211733" lon="13.1760617"><ele>305.0</ele><time>2026-04-26T13:33:20.508Z</time></trkpt><trkpt lat="43.2210367" lon="13.17621"><ele>305.0</ele><time>2026-04-26T13:33:21.509Z</time></trkpt><trkpt lat="43.2208933" lon="13.176335"><ele>305.0</ele><time>2026-04-26T13:33:22.508Z</time></trkpt><trkpt lat="43.2207567" lon="13.1764333"><ele>305.0</ele><time>2026-04-26T13:33:23.508Z</time></trkpt><trkpt lat="43.2206133" lon="13.1764967"><ele>307.0</ele><time>2026-04-26T13:33:24.508Z</time></trkpt><trkpt lat="43.2204667" lon="13.176515"><ele>309.0</ele><time>2026-04-26T13:33:25.508Z</time></trkpt><trkpt lat="43.220325" lon="13.1765133"><ele>311.0</ele><time>2026-04-26T13:33:26.508Z</time></trkpt><trkpt lat="43.22018" lon="13.17649"><ele>313.0</ele><time>2026-04-26T13:33:27.509Z</time></trkpt><trkpt lat="43.2200317" lon="13.1764967"><ele>313.66666666666663</ele><time>2026-04-26T13:33:28.508Z</time></trkpt><trkpt lat="43.2198833" lon="13.176535"><ele>314.3333333333333</ele><time>2026-04-26T13:33:29.508Z</time></trkpt><trkpt lat="43.2197183" lon="13.176605"><ele>315.0</ele><time>2026-04-26T13:33:30.508Z</time></trkpt><trkpt lat="43.2195417" lon="13.17671"><ele>317.0</ele><time>2026-04-26T13:33:31.509Z</time></trkpt><trkpt lat="43.2193533" lon="13.1768233"><ele>319.0</ele><time>2026-04-26T13:33:32.508Z</time></trkpt><trkpt lat="43.2191567" lon="13.17694"><ele>321.0</ele><time>2026-04-26T13:33:33.508Z</time></trkpt><trkpt lat="43.21897" lon="13.17705"><ele>323.25</ele><time>2026-04-26T13:33:34.508Z</time></trkpt><trkpt lat="43.2188067" lon="13.17714"><ele>325.5</ele><time>2026-04-26T13:33:35.508Z</time></trkpt><trkpt lat="43.2186733" lon="13.1772133"><ele>327.75</ele><time>2026-04-26T13:33:36.509Z</time></trkpt><trkpt lat="43.218555" lon="13.177245"><ele>330.0</ele><time>2026-04-26T13:33:37.508Z</time></trkpt><trkpt lat="43.2184517" lon="13.1772317"><ele>330.0</ele><time>2026-04-26T13:33:38.509Z</time></trkpt><trkpt lat="43.218345" lon="13.17718"><ele>330.0</ele><time>2026-04-26T13:33:39.509Z</time></trkpt><trkpt lat="43.2182317" lon="13.1770983"><ele>330.0</ele><time>2026-04-26T13:33:40.508Z</time></trkpt><trkpt lat="43.21811" lon="13.17699"><ele>330.0</ele><time>2026-04-26T13:33:41.509Z</time></trkpt><trkpt lat="43.2179867" lon="13.176865"><ele>333.5</ele><time>2026-04-26T13:33:42.508Z</time></trkpt><trkpt lat="43.2178683" lon="13.1767417"><ele>337.0</ele><time>2026-04-26T13:33:43.508Z</time></trkpt><trkpt lat="43.2177617" lon="13.1766283"><ele>340.5</ele><time>2026-04-26T13:33:44.508Z</time></trkpt><trkpt lat="43.2176833" lon="13.1765083"><ele>344.0</ele><time>2026-04-26T13:33:45.508Z</time></trkpt><trkpt lat="43.21763" lon="13.17637"><ele>344.0</ele><time>2026-04-26T13:33:46.508Z</time></trkpt><trkpt lat="43.2176183" lon="13.1762233"><ele>344.0</ele><time>2026-04-26T13:33:47.508Z</time></trkpt><trkpt lat="43.2176433" lon="13.1760717"><ele>344.0</ele><time>2026-04-26T13:33:48.508Z</time></trkpt><trkpt lat="43.2176883" lon="13.17593"><ele>344.0</ele><time>2026-04-26T13:33:49.508Z</time></trkpt><trkpt lat="43.2177533" lon="13.1758133"><ele>344.0</ele><time>2026-04-26T13:33:50.508Z</time></trkpt><trkpt lat="43.21785" lon="13.1757333"><ele>348.0</ele><time>2026-04-26T13:33:51.508Z</time></trkpt><trkpt lat="43.2179683" lon="13.1756833"><ele>352.0</ele><time>2026-04-26T13:33:52.508Z</time></trkpt><trkpt lat="43.2181167" lon="13.1756517"><ele>356.0</ele><time>2026-04-26T13:33:53.508Z</time></trkpt><trkpt lat="43.2182683" lon="13.1756517"><ele>360.0</ele><time>2026-04-26T13:33:54.508Z</time></trkpt><trkpt lat="43.21841" lon="13.1756767"><ele>361.0</ele><time>2026-04-26T13:33:55.509Z</time></trkpt><trkpt lat="43.2185233" lon="13.175695"><ele>362.0</ele><time>2026-04-26T13:33:56.508Z</time></trkpt><trkpt lat="43.218625" lon="13.1756683"><ele>363.0</ele><time>2026-04-26T13:33:57.508Z</time></trkpt><trkpt lat="43.2187233" lon="13.1756083"><ele>364.0</ele><time>2026-04-26T13:33:58.508Z</time></trkpt><trkpt lat="43.21882" lon="13.1754983"><ele>364.0</ele><time>2026-04-26T13:33:59.509Z</time></trkpt><trkpt lat="43.2189033" lon="13.17539"><ele>364.0</ele><time>2026-04-26T13:34:00.508Z</time></trkpt><trkpt lat="43.2189633" lon="13.1752817"><ele>364.0</ele><time>2026-04-26T13:34:01.508Z</time></trkpt><trkpt lat="43.2189933" lon="13.1751733"><ele>364.0</ele><time>2026-04-26T13:34:02.508Z</time></trkpt><trkpt lat="43.2189883" lon="13.1750617"><ele>364.0</ele><time>2026-04-26T13:34:03.508Z</time></trkpt><trkpt lat="43.2189567" lon="13.1749283"><ele>366.75</ele><time>2026-04-26T13:34:04.508Z</time></trkpt><trkpt lat="43.2188867" lon="13.1747967"><ele>369.5</ele><time>2026-04-26T13:34:05.508Z</time></trkpt><trkpt lat="43.2187733" lon="13.1746783"><ele>372.25</ele><time>2026-04-26T13:34:06.508Z</time></trkpt><trkpt lat="43.21865" lon="13.174585"><ele>375.0</ele><time>2026-04-26T13:34:07.508Z</time></trkpt><trkpt lat="43.21852" lon="13.174515"><ele>375.0</ele><time>2026-04-26T13:34:08.508Z</time></trkpt><trkpt lat="43.2184117" lon="13.1744467"><ele>375.0</ele><time>2026-04-26T13:34:09.508Z</time></trkpt><trkpt lat="43.218335" lon="13.1743833"><ele>375.0</ele><time>2026-04-26T13:34:10.508Z</time></trkpt><trkpt lat="43.2182967" lon="13.1742967"><ele>375.0</ele><time>2026-04-26T13:34:11.508Z</time></trkpt><trkpt lat="43.2182833" lon="13.1741817"><ele>375.0</ele><time>2026-04-26T13:34:12.508Z</time></trkpt><trkpt lat="43.218285" lon="13.17404"><ele>375.75</ele><time>2026-04-26T13:34:13.508Z</time></trkpt><trkpt lat="43.2182983" lon="13.1738617"><ele>376.5</ele><time>2026-04-26T13:34:14.509Z</time></trkpt><trkpt lat="43.2182983" lon="13.173655"><ele>377.25</ele><time>2026-04-26T13:34:15.508Z</time></trkpt><trkpt lat="43.21827" lon="13.1734667"><ele>378.0</ele><time>2026-04-26T13:34:16.508Z</time></trkpt><trkpt lat="43.218235" lon="13.173315"><ele>378.5</ele><time>2026-04-26T13:34:17.508Z</time></trkpt><trkpt lat="43.218155" lon="13.173185"><ele>379.0</ele><time>2026-04-26T13:34:18.508Z</time></trkpt><trkpt lat="43.2180433" lon="13.173055"><ele>379.5</ele><time>2026-04-26T13:34:19.508Z</time></trkpt><trkpt lat="43.2179233" lon="13.17292"><ele>380.0</ele><time>2026-04-26T13:34:20.508Z</time></trkpt><trkpt lat="43.2178367" lon="13.17278"><ele>390.0</ele><time>2026-04-26T13:34:21.509Z</time></trkpt><trkpt lat="43.2177933" lon="13.1726233"><ele>400.0</ele><time>2026-04-26T13:34:22.509Z</time></trkpt><trkpt lat="43.2177767" lon="13.172465"><ele>410.0</ele><time>2026-04-26T13:34:23.508Z</time></trkpt><trkpt lat="43.2177983" lon="13.172315"><ele>420.0</ele><time>2026-04-26T13:34:24.508Z</time></trkpt><trkpt lat="43.2178383" lon="13.1721717"><ele>424.0</ele><time>2026-04-26T13:34:25.508Z</time></trkpt><trkpt lat="43.2179067" lon="13.172055"><ele>428.0</ele><time>2026-04-26T13:34:26.508Z</time></trkpt><trkpt lat="43.2180083" lon="13.1719667"><ele>432.0</ele><time>2026-04-26T13:34:27.508Z</time></trkpt><trkpt lat="43.2181067" lon="13.1718667"><ele>436.0</ele><time>2026-04-26T13:34:28.508Z</time></trkpt><trkpt lat="43.2181767" lon="13.1717517"><ele>426.6666666666667</ele><time>2026-04-26T13:34:29.508Z</time></trkpt><trkpt lat="43.2182167" lon="13.1715983"><ele>417.33333333333337</ele><time>2026-04-26T13:34:30.508Z</time></trkpt><trkpt lat="43.2182333" lon="13.1713917"><ele>408.0</ele><time>2026-04-26T13:34:31.509Z</time></trkpt><trkpt lat="43.2182233" lon="13.1711367"><ele>408.0</ele><time>2026-04-26T13:34:32.508Z</time></trkpt><trkpt lat="43.21821" lon="13.1708467"><ele>408.0</ele><time>2026-04-26T13:34:33.509Z</time></trkpt><trkpt lat="43.2181967" lon="13.1705417"><ele>408.0</ele><time>2026-04-26T13:34:34.508Z</time></trkpt><trkpt lat="43.21819" lon="13.1702567"><ele>411.66666666666663</ele><time>2026-04-26T13:34:35.508Z</time></trkpt><trkpt lat="43.21821" lon="13.1700167"><ele>415.3333333333333</ele><time>2026-04-26T13:34:36.508Z</time></trkpt><trkpt lat="43.218245" lon="13.1698217"><ele>419.0</ele><time>2026-04-26T13:34:37.509Z</time></trkpt><trkpt lat="43.2183033" lon="13.1696633"><ele>424.5</ele><time>2026-04-26T13:34:38.508Z</time></trkpt><trkpt lat="43.2183967" lon="13.1695333"><ele>430.0</ele><time>2026-04-26T13:34:39.509Z</time></trkpt><trkpt lat="43.2185167" lon="13.1694483"><ele>435.5</ele><time>2026-04-26T13:34:40.508Z</time></trkpt><trkpt lat="43.2186583" lon="13.1693633"><ele>441.0</ele><time>2026-04-26T13:34:41.509Z</time></trkpt><trkpt lat="43.2188267" lon="13.1692833"><ele>436.0</ele><time>2026-04-26T13:34:42.508Z</time></trkpt><trkpt lat="43.21902" lon="13.169205"><ele>431.0</ele><time>2026-04-26T13:34:43.508Z</time></trkpt><trkpt lat="43.2192417" lon="13.16915"><ele>426.0</ele><time>2026-04-26T13:34:44.508Z</time></trkpt><trkpt lat="43.219465" lon="13.169105"><ele>426.0</ele><time>2026-04-26T13:34:45.508Z</time></trkpt><trkpt lat="43.219675" lon="13.1690717"><ele>426.0</ele><time>2026-04-26T13:34:46.509Z</time></trkpt><trkpt lat="43.2198433" lon="13.169045"><ele>426.0</ele><time>2026-04-26T13:34:47.509Z</time></trkpt><trkpt lat="43.2199867" lon="13.169015"><ele>430.0</ele><time>2026-04-26T13:34:48.509Z</time></trkpt><trkpt lat="43.2201083" lon="13.1689567"><ele>434.0</ele><time>2026-04-26T13:34:49.508Z</time></trkpt><trkpt lat="43.2202183" lon="13.16885"><ele>438.0</ele><time>2026-04-26T13:34:50.508Z</time></trkpt><trkpt lat="43.22031" lon="13.1687217"><ele>442.0</ele><time>2026-04-26T13:34:51.508Z</time></trkpt><trkpt lat="43.22037" lon="13.1685567"><ele>442.0</ele><time>2026-04-26T13:34:52.508Z</time></trkpt><trkpt lat="43.2204117" lon="13.1683367"><ele>442.0</ele><time>2026-04-26T13:34:53.509Z</time></trkpt><trkpt lat="43.2204317" lon="13.1680767"><ele>442.0</ele><time>2026-04-26T13:34:54.508Z</time></trkpt><trkpt lat="43.2204533" lon="13.1677867"><ele>448.0</ele><time>2026-04-26T13:34:55.508Z</time></trkpt><trkpt lat="43.2204717" lon="13.1674733"><ele>454.0</ele><time>2026-04-26T13:34:56.508Z</time></trkpt><trkpt lat="43.22049" lon="13.1671433"><ele>453.6666666666667</ele><time>2026-04-26T13:34:57.509Z</time></trkpt><trkpt lat="43.220495" lon="13.1668417"><ele>453.33333333333337</ele><time>2026-04-26T13:34:58.508Z</time></trkpt><trkpt lat="43.2204867" lon="13.1665817"><ele>453.0</ele><time>2026-04-26T13:34:59.508Z</time></trkpt><trkpt lat="43.2204617" lon="13.1663567"><ele>453.0</ele><time>2026-04-26T13:35:00.508Z</time></trkpt><trkpt lat="43.220425" lon="13.1661433"><ele>453.0</ele><time>2026-04-26T13:35:01.508Z</time></trkpt><trkpt lat="43.2203767" lon="13.1659667"><ele>453.0</ele><time>2026-04-26T13:35:02.508Z</time></trkpt><trkpt lat="43.2203267" lon="13.1658333"><ele>453.0</ele><time>2026-04-26T13:35:03.508Z</time></trkpt><trkpt lat="43.2202767" lon="13.165745"><ele>453.0</ele><time>2026-04-26T13:35:04.508Z</time></trkpt><trkpt lat="43.2201817" lon="13.165745"><ele>452.99999999999994</ele><time>2026-04-26T13:35:06.508Z</time></trkpt><trkpt lat="43.220135" lon="13.1658367"><ele>452.99999999999994</ele><time>2026-04-26T13:35:07.508Z</time></trkpt><trkpt lat="43.2200883" lon="13.1659733"><ele>453.0</ele><time>2026-04-26T13:35:08.508Z</time></trkpt><trkpt lat="43.2200333" lon="13.1661433"><ele>453.0</ele><time>2026-04-26T13:35:09.509Z</time></trkpt><trkpt lat="43.219965" lon="13.1663717"><ele>454.66666666666663</ele><time>2026-04-26T13:35:10.508Z</time></trkpt><trkpt lat="43.2199083" lon="13.16662"><ele>456.3333333333333</ele><time>2026-04-26T13:35:11.508Z</time></trkpt><trkpt lat="43.219835" lon="13.1668567"><ele>458.0</ele><time>2026-04-26T13:35:12.509Z</time></trkpt><trkpt lat="43.219755" lon="13.167035"><ele>460.0</ele><time>2026-04-26T13:35:13.508Z</time></trkpt><trkpt lat="43.21967" lon="13.1671683"><ele>462.0</ele><time>2026-04-26T13:35:14.508Z</time></trkpt><trkpt lat="43.2195617" lon="13.1672633"><ele>464.0</ele><time>2026-04-26T13:35:15.508Z</time></trkpt><trkpt lat="43.219425" lon="13.16736"><ele>466.0</ele><time>2026-04-26T13:35:16.509Z</time></trkpt><trkpt lat="43.219265" lon="13.1674467"><ele>466.0</ele><time>2026-04-26T13:35:17.508Z</time></trkpt><trkpt lat="43.219095" lon="13.1675267"><ele>466.0</ele><time>2026-04-26T13:35:18.508Z</time></trkpt><trkpt lat="43.2189183" lon="13.1676033"><ele>466.0</ele><time>2026-04-26T13:35:19.508Z</time></trkpt><trkpt lat="43.2187183" lon="13.16768"><ele>471.0</ele><time>2026-04-26T13:35:20.508Z</time></trkpt><trkpt lat="43.2185217" lon="13.1677433"><ele>476.0</ele><time>2026-04-26T13:35:21.508Z</time></trkpt><trkpt lat="43.2183383" lon="13.167795"><ele>481.0</ele><time>2026-04-26T13:35:22.508Z</time></trkpt><trkpt lat="43.2181783" lon="13.16784"><ele>485.0</ele><time>2026-04-26T13:35:23.509Z</time></trkpt><trkpt lat="43.21803" lon="13.167855"><ele>489.0</ele><time>2026-04-26T13:35:24.508Z</time></trkpt><trkpt lat="43.2178783" lon="13.167855"><ele>493.0</ele><time>2026-04-26T13:35:25.508Z</time></trkpt><trkpt lat="43.21771" lon="13.1678317"><ele>493.0</ele><time>2026-04-26T13:35:26.508Z</time></trkpt><trkpt lat="43.21753" lon="13.1677983"><ele>493.0</ele><time>2026-04-26T13:35:27.508Z</time></trkpt><trkpt lat="43.2173367" lon="13.1677817"><ele>493.0</ele><time>2026-04-26T13:35:28.508Z</time></trkpt><trkpt lat="43.2171383" lon="13.1677733"><ele>498.0</ele><time>2026-04-26T13:35:29.509Z</time></trkpt><trkpt lat="43.21696" lon="13.167775"><ele>503.0</ele><time>2026-04-26T13:35:30.508Z</time></trkpt><trkpt lat="43.2168183" lon="13.167765"><ele>508.0</ele><time>2026-04-26T13:35:31.509Z</time></trkpt><trkpt lat="43.2167083" lon="13.167755"><ele>513.0</ele><time>2026-04-26T13:35:32.509Z</time></trkpt><trkpt lat="43.2166233" lon="13.1677767"><ele>513.0</ele><time>2026-04-26T13:35:33.509Z</time></trkpt><trkpt lat="43.2165483" lon="13.1678483"><ele>513.0</ele><time>2026-04-26T13:35:34.508Z</time></trkpt><trkpt lat="43.2164667" lon="13.167975"><ele>513.0</ele><time>2026-04-26T13:35:35.508Z</time></trkpt><trkpt lat="43.2164083" lon="13.168105"><ele>513.0</ele><time>2026-04-26T13:35:36.508Z</time></trkpt><trkpt lat="43.2163617" lon="13.16817"><ele>513.0</ele><time>2026-04-26T13:35:37.508Z</time></trkpt><trkpt lat="43.2162983" lon="13.1682083"><ele>517.0</ele><time>2026-04-26T13:36:28.508Z</time></trkpt><trkpt lat="43.2162267" lon="13.1683267"><ele>521.0</ele><time>2026-04-26T13:36:30.508Z</time></trkpt><trkpt lat="43.2161817" lon="13.16845"><ele>525.0</ele><time>2026-04-26T13:36:32.508Z</time></trkpt><trkpt lat="43.2162567" lon="13.1683283"><ele>529.0</ele><time>2026-04-26T14:04:21.508Z</time></trkpt><trkpt lat="43.216315" lon="13.1682367"><ele>533.0</ele><time>2026-04-26T14:04:22.508Z</time></trkpt><trkpt lat="43.2164067" lon="13.1681317"><ele>529.0</ele><time>2026-04-26T14:04:23.507Z</time></trkpt><trkpt lat="43.216505" lon="13.1680133"><ele>525.0</ele><time>2026-04-26T14:04:24.508Z</time></trkpt><trkpt lat="43.2165783" lon="13.167905"><ele>521.0</ele><time>2026-04-26T14:04:25.507Z</time></trkpt><trkpt lat="43.216645" lon="13.167835"><ele>517.0</ele><time>2026-04-26T14:04:26.507Z</time></trkpt><trkpt lat="43.21676" lon="13.1677783"><ele>513.0</ele><time>2026-04-26T14:04:28.507Z</time></trkpt><trkpt lat="43.2168517" lon="13.167785"><ele>513.0</ele><time>2026-04-26T14:04:29.507Z</time></trkpt><trkpt lat="43.2169667" lon="13.1678017"><ele>513.0</ele><time>2026-04-26T14:04:30.507Z</time></trkpt><trkpt lat="43.2170983" lon="13.1678083"><ele>513.0</ele><time>2026-04-26T14:04:31.507Z</time></trkpt><trkpt lat="43.2172533" lon="13.1678117"><ele>513.0</ele><time>2026-04-26T14:04:32.507Z</time></trkpt><trkpt lat="43.2174017" lon="13.1678133"><ele>508.0</ele><time>2026-04-26T14:04:33.507Z</time></trkpt><trkpt lat="43.2175367" lon="13.16781"><ele>503.0</ele><time>2026-04-26T14:04:34.507Z</time></trkpt><trkpt lat="43.2176717" lon="13.167825"><ele>498.0</ele><time>2026-04-26T14:04:35.507Z</time></trkpt><trkpt lat="43.217795" lon="13.1678467"><ele>493.0</ele><time>2026-04-26T14:04:36.507Z</time></trkpt><trkpt lat="43.217905" lon="13.1678717"><ele>493.0</ele><time>2026-04-26T14:04:37.507Z</time></trkpt><trkpt lat="43.2180067" lon="13.1678717"><ele>492.99999999999994</ele><time>2026-04-26T14:04:38.507Z</time></trkpt><trkpt lat="43.21811" lon="13.16787"><ele>492.99999999999994</ele><time>2026-04-26T14:04:39.507Z</time></trkpt><trkpt lat="43.21822" lon="13.167855"><ele>493.0</ele><time>2026-04-26T14:04:40.508Z</time></trkpt><trkpt lat="43.21832" lon="13.1678217"><ele>493.0</ele><time>2026-04-26T14:04:41.508Z</time></trkpt><trkpt lat="43.21842" lon="13.1677817"><ele>490.59999999999997</ele><time>2026-04-26T14:04:42.507Z</time></trkpt><trkpt lat="43.2185217" lon="13.1677417"><ele>488.19999999999993</ele><time>2026-04-26T14:04:43.507Z</time></trkpt><trkpt lat="43.2186267" lon="13.1677217"><ele>485.8</ele><time>2026-04-26T14:04:44.508Z</time></trkpt><trkpt lat="43.2187267" lon="13.1677017"><ele>483.4</ele><time>2026-04-26T14:04:45.507Z</time></trkpt><trkpt lat="43.218825" lon="13.1676817"><ele>481.0</ele><time>2026-04-26T14:04:46.508Z</time></trkpt><trkpt lat="43.21892" lon="13.1676483"><ele>477.25</ele><time>2026-04-26T14:04:47.507Z</time></trkpt><trkpt lat="43.2190183" lon="13.167605"><ele>473.5</ele><time>2026-04-26T14:04:48.507Z</time></trkpt><trkpt lat="43.2191267" lon="13.1675517"><ele>469.75</ele><time>2026-04-26T14:04:49.507Z</time></trkpt><trkpt lat="43.2192367" lon="13.1674983"><ele>466.0</ele><time>2026-04-26T14:04:50.507Z</time></trkpt><trkpt lat="43.219345" lon="13.1674433"><ele>466.0</ele><time>2026-04-26T14:04:51.507Z</time></trkpt><trkpt lat="43.2194517" lon="13.1674"><ele>466.0</ele><time>2026-04-26T14:04:52.507Z</time></trkpt><trkpt lat="43.2195467" lon="13.1673433"><ele>466.0</ele><time>2026-04-26T14:04:53.508Z</time></trkpt><trkpt lat="43.219635" lon="13.1672733"><ele>466.0</ele><time>2026-04-26T14:04:54.507Z</time></trkpt><trkpt lat="43.2197133" lon="13.16719"><ele>466.0</ele><time>2026-04-26T14:04:55.508Z</time></trkpt><trkpt lat="43.21979" lon="13.1670817"><ele>464.0</ele><time>2026-04-26T14:04:56.507Z</time></trkpt><trkpt lat="43.219855" lon="13.1669433"><ele>462.0</ele><time>2026-04-26T14:04:57.507Z</time></trkpt><trkpt lat="43.2199117" lon="13.16678"><ele>460.0</ele><time>2026-04-26T14:04:58.508Z</time></trkpt><trkpt lat="43.2199617" lon="13.1665967"><ele>458.0</ele><time>2026-04-26T14:04:59.508Z</time></trkpt><trkpt lat="43.2200083" lon="13.1664217"><ele>457.0</ele><time>2026-04-26T14:05:00.507Z</time></trkpt><trkpt lat="43.2200567" lon="13.1662583"><ele>455.99999999999994</ele><time>2026-04-26T14:05:01.508Z</time></trkpt><trkpt lat="43.2200983" lon="13.166115"><ele>454.99999999999994</ele><time>2026-04-26T14:05:02.507Z</time></trkpt><trkpt lat="43.2201367" lon="13.165995"><ele>454.0</ele><time>2026-04-26T14:05:03.507Z</time></trkpt><trkpt lat="43.22017" lon="13.1658967"><ele>453.0</ele><time>2026-04-26T14:05:04.507Z</time></trkpt><trkpt lat="43.2202317" lon="13.16578"><ele>453.0</ele><time>2026-04-26T14:05:06.507Z</time></trkpt><trkpt lat="43.220325" lon="13.1658133"><ele>452.99999999999994</ele><time>2026-04-26T14:05:08.507Z</time></trkpt><trkpt lat="43.2203667" lon="13.1659017"><ele>452.99999999999994</ele><time>2026-04-26T14:05:09.507Z</time></trkpt><trkpt lat="43.2204" lon="13.1660283"><ele>453.0</ele><time>2026-04-26T14:05:10.508Z</time></trkpt><trkpt lat="43.22043" lon="13.1661983"><ele>453.0</ele><time>2026-04-26T14:05:11.508Z</time></trkpt><trkpt lat="43.2204583" lon="13.1663867"><ele>454.66666666666663</ele><time>2026-04-26T14:05:12.508Z</time></trkpt><trkpt lat="43.220475" lon="13.1665983"><ele>456.3333333333333</ele><time>2026-04-26T14:05:13.507Z</time></trkpt><trkpt lat="43.2204917" lon="13.166805"><ele>458.0</ele><time>2026-04-26T14:05:14.507Z</time></trkpt><trkpt lat="43.2204883" lon="13.1670133"><ele>458.0</ele><time>2026-04-26T14:05:15.507Z</time></trkpt><trkpt lat="43.22048" lon="13.16722"><ele>458.0</ele><time>2026-04-26T14:05:16.507Z</time></trkpt><trkpt lat="43.220465" lon="13.167435"><ele>458.0</ele><time>2026-04-26T14:05:17.507Z</time></trkpt><trkpt lat="43.2204467" lon="13.16766"><ele>457.0</ele><time>2026-04-26T14:05:18.507Z</time></trkpt><trkpt lat="43.22043" lon="13.1678717"><ele>456.0</ele><time>2026-04-26T14:05:19.507Z</time></trkpt><trkpt lat="43.220415" lon="13.1680767"><ele>455.0</ele><time>2026-04-26T14:05:20.507Z</time></trkpt><trkpt lat="43.2203983" lon="13.1682667"><ele>454.0</ele><time>2026-04-26T14:05:21.508Z</time></trkpt><trkpt lat="43.220375" lon="13.1684333"><ele>451.0</ele><time>2026-04-26T14:05:22.507Z</time></trkpt><trkpt lat="43.2203383" lon="13.1685817"><ele>448.0</ele><time>2026-04-26T14:05:23.507Z</time></trkpt><trkpt lat="43.2202833" lon="13.1687267"><ele>445.0</ele><time>2026-04-26T14:05:24.507Z</time></trkpt><trkpt lat="43.2202067" lon="13.168845"><ele>442.0</ele><time>2026-04-26T14:05:25.507Z</time></trkpt><trkpt lat="43.22011" lon="13.1689317"><ele>442.0</ele><time>2026-04-26T14:05:26.508Z</time></trkpt><trkpt lat="43.2200067" lon="13.16899"><ele>442.0</ele><time>2026-04-26T14:05:27.508Z</time></trkpt><trkpt lat="43.21988" lon="13.1690367"><ele>442.0</ele><time>2026-04-26T14:05:28.508Z</time></trkpt><trkpt lat="43.2197367" lon="13.1690517"><ele>442.0</ele><time>2026-04-26T14:05:29.508Z</time></trkpt><trkpt lat="43.2195767" lon="13.1690667"><ele>436.6666666666667</ele><time>2026-04-26T14:05:30.507Z</time></trkpt><trkpt lat="43.2194083" lon="13.1690933"><ele>431.33333333333337</ele><time>2026-04-26T14:05:31.507Z</time></trkpt><trkpt lat="43.2192367" lon="13.1691167"><ele>426.0</ele><time>2026-04-26T14:05:32.507Z</time></trkpt><trkpt lat="43.2190767" lon="13.1691567"><ele>431.0</ele><time>2026-04-26T14:05:33.508Z</time></trkpt><trkpt lat="43.21893" lon="13.1692167"><ele>436.0</ele><time>2026-04-26T14:05:34.507Z</time></trkpt><trkpt lat="43.2187867" lon="13.1692867"><ele>441.0</ele><time>2026-04-26T14:05:35.508Z</time></trkpt><trkpt lat="43.2186467" lon="13.1693633"><ele>441.0</ele><time>2026-04-26T14:05:36.507Z</time></trkpt><trkpt lat="43.2185167" lon="13.1694317"><ele>441.0</ele><time>2026-04-26T14:05:37.507Z</time></trkpt><trkpt lat="43.2183983" lon="13.1695033"><ele>441.0</ele><time>2026-04-26T14:05:38.507Z</time></trkpt><trkpt lat="43.218295" lon="13.16961"><ele>441.0</ele><time>2026-04-26T14:05:39.507Z</time></trkpt><trkpt lat="43.2182217" lon="13.169755"><ele>433.66666666666663</ele><time>2026-04-26T14:05:40.507Z</time></trkpt><trkpt lat="43.21818" lon="13.1699367"><ele>426.3333333333333</ele><time>2026-04-26T14:05:41.507Z</time></trkpt><trkpt lat="43.2181533" lon="13.170145"><ele>419.0</ele><time>2026-04-26T14:05:42.508Z</time></trkpt><trkpt lat="43.21815" lon="13.17036"><ele>415.3333333333333</ele><time>2026-04-26T14:05:43.507Z</time></trkpt><trkpt lat="43.21815" lon="13.1705833"><ele>411.66666666666663</ele><time>2026-04-26T14:05:44.507Z</time></trkpt><trkpt lat="43.2181617" lon="13.1708083"><ele>408.0</ele><time>2026-04-26T14:05:45.507Z</time></trkpt><trkpt lat="43.2181717" lon="13.1710167"><ele>408.0</ele><time>2026-04-26T14:05:46.508Z</time></trkpt><trkpt lat="43.2181833" lon="13.1712183"><ele>408.0</ele><time>2026-04-26T14:05:47.507Z</time></trkpt><trkpt lat="43.218185" lon="13.17139"><ele>408.0</ele><time>2026-04-26T14:05:48.508Z</time></trkpt><trkpt lat="43.218175" lon="13.17154"><ele>408.0</ele><time>2026-04-26T14:05:49.508Z</time></trkpt><trkpt lat="43.218155" lon="13.17167"><ele>413.59999999999997</ele><time>2026-04-26T14:05:50.507Z</time></trkpt><trkpt lat="43.2181217" lon="13.1717917"><ele>419.2</ele><time>2026-04-26T14:05:51.507Z</time></trkpt><trkpt lat="43.2180567" lon="13.171895"><ele>424.8</ele><time>2026-04-26T14:05:52.507Z</time></trkpt><trkpt lat="43.2179733" lon="13.1719767"><ele>430.4</ele><time>2026-04-26T14:05:53.507Z</time></trkpt><trkpt lat="43.2178867" lon="13.17205"><ele>436.0</ele><time>2026-04-26T14:05:54.507Z</time></trkpt><trkpt lat="43.2178183" lon="13.172155"><ele>436.0</ele><time>2026-04-26T14:05:55.508Z</time></trkpt><trkpt lat="43.2177683" lon="13.17227"><ele>436.0</ele><time>2026-04-26T14:05:56.507Z</time></trkpt><trkpt lat="43.2177467" lon="13.1724083"><ele>436.0</ele><time>2026-04-26T14:05:57.507Z</time></trkpt><trkpt lat="43.2177433" lon="13.1725583"><ele>436.0</ele><time>2026-04-26T14:05:58.507Z</time></trkpt><trkpt lat="43.2177617" lon="13.1727083"><ele>436.0</ele><time>2026-04-26T14:05:59.508Z</time></trkpt><trkpt lat="43.2178083" lon="13.17285"><ele>432.0</ele><time>2026-04-26T14:06:00.507Z</time></trkpt><trkpt lat="43.2178883" lon="13.1729817"><ele>428.0</ele><time>2026-04-26T14:06:01.508Z</time></trkpt><trkpt lat="43.2179833" lon="13.173105"><ele>424.0</ele><time>2026-04-26T14:06:02.507Z</time></trkpt><trkpt lat="43.2180867" lon="13.1732233"><ele>420.0</ele><time>2026-04-26T14:06:03.507Z</time></trkpt><trkpt lat="43.2181833" lon="13.1733317"><ele>409.5</ele><time>2026-04-26T14:06:04.507Z</time></trkpt><trkpt lat="43.2182567" lon="13.1734567"><ele>399.0</ele><time>2026-04-26T14:06:05.507Z</time></trkpt><trkpt lat="43.2183133" lon="13.1736"><ele>388.5</ele><time>2026-04-26T14:06:06.508Z</time></trkpt><trkpt lat="43.2183467" lon="13.173745"><ele>378.0</ele><time>2026-04-26T14:06:07.507Z</time></trkpt><trkpt lat="43.2183667" lon="13.1738983"><ele>377.5</ele><time>2026-04-26T14:06:08.507Z</time></trkpt><trkpt lat="43.2183683" lon="13.1740333"><ele>377.0</ele><time>2026-04-26T14:06:09.507Z</time></trkpt><trkpt lat="43.218355" lon="13.1741567"><ele>376.5</ele><time>2026-04-26T14:06:10.507Z</time></trkpt><trkpt lat="43.2183433" lon="13.1742633"><ele>376.0</ele><time>2026-04-26T14:06:11.507Z</time></trkpt><trkpt lat="43.21833" lon="13.1743617"><ele>375.5</ele><time>2026-04-26T14:06:12.507Z</time></trkpt><trkpt lat="43.2183433" lon="13.17445"><ele>375.0</ele><time>2026-04-26T14:06:13.508Z</time></trkpt><trkpt lat="43.2184117" lon="13.17452"><ele>375.0</ele><time>2026-04-26T14:06:14.507Z</time></trkpt><trkpt lat="43.21851" lon="13.1745783"><ele>375.0</ele><time>2026-04-26T14:06:15.507Z</time></trkpt><trkpt lat="43.218615" lon="13.1746417"><ele>375.0</ele><time>2026-04-26T14:06:16.508Z</time></trkpt><trkpt lat="43.21872" lon="13.17471"><ele>375.0</ele><time>2026-04-26T14:06:17.507Z</time></trkpt><trkpt lat="43.2188083" lon="13.17479"><ele>375.0</ele><time>2026-04-26T14:06:18.507Z</time></trkpt><trkpt lat="43.2188717" lon="13.174875"><ele>373.1666666666667</ele><time>2026-04-26T14:06:19.507Z</time></trkpt><trkpt lat="43.2189167" lon="13.1749833"><ele>371.3333333333333</ele><time>2026-04-26T14:06:20.507Z</time></trkpt><trkpt lat="43.2189467" lon="13.1750983"><ele>369.5</ele><time>2026-04-26T14:06:21.507Z</time></trkpt><trkpt lat="43.218965" lon="13.1751967"><ele>367.66666666666663</ele><time>2026-04-26T14:06:22.507Z</time></trkpt><trkpt lat="43.2189583" lon="13.1752933"><ele>365.8333333333333</ele><time>2026-04-26T14:06:23.507Z</time></trkpt><trkpt lat="43.2189117" lon="13.1753967"><ele>364.0</ele><time>2026-04-26T14:06:24.508Z</time></trkpt><trkpt lat="43.21884" lon="13.1754917"><ele>364.0</ele><time>2026-04-26T14:06:25.507Z</time></trkpt><trkpt lat="43.21876" lon="13.1755833"><ele>364.0</ele><time>2026-04-26T14:06:26.507Z</time></trkpt><trkpt lat="43.21866" lon="13.175655"><ele>364.0</ele><time>2026-04-26T14:06:27.507Z</time></trkpt><trkpt lat="43.2185517" lon="13.1756933"><ele>364.0</ele><time>2026-04-26T14:06:28.507Z</time></trkpt><trkpt lat="43.2184367" lon="13.1756983"><ele>364.0</ele><time>2026-04-26T14:06:29.507Z</time></trkpt><trkpt lat="43.21831" lon="13.1756833"><ele>364.0</ele><time>2026-04-26T14:06:30.507Z</time></trkpt><trkpt lat="43.2181867" lon="13.175675"><ele>364.0</ele><time>2026-04-26T14:06:31.507Z</time></trkpt><trkpt lat="43.2180683" lon="13.1756683"><ele>364.0</ele><time>2026-04-26T14:06:32.508Z</time></trkpt><trkpt lat="43.2179517" lon="13.1756733"><ele>364.0</ele><time>2026-04-26T14:06:33.507Z</time></trkpt><trkpt lat="43.2178467" lon="13.17572"><ele>360.0</ele><time>2026-04-26T14:06:34.507Z</time></trkpt><trkpt lat="43.217755" lon="13.1758117"><ele>356.0</ele><time>2026-04-26T14:06:35.507Z</time></trkpt><trkpt lat="43.21769" lon="13.175925"><ele>352.0</ele><time>2026-04-26T14:06:36.507Z</time></trkpt><trkpt lat="43.2176567" lon="13.1760617"><ele>348.0</ele><time>2026-04-26T14:06:37.507Z</time></trkpt><trkpt lat="43.2176567" lon="13.1762217"><ele>344.0</ele><time>2026-04-26T14:06:38.508Z</time></trkpt><trkpt lat="43.21768" lon="13.1763933"><ele>344.75</ele><time>2026-04-26T14:06:39.507Z</time></trkpt><trkpt lat="43.2177383" lon="13.1765467"><ele>345.5</ele><time>2026-04-26T14:06:40.508Z</time></trkpt><trkpt lat="43.2178267" lon="13.1766833"><ele>346.25</ele><time>2026-04-26T14:06:41.507Z</time></trkpt><trkpt lat="43.2179383" lon="13.17681"><ele>347.0</ele><time>2026-04-26T14:06:42.507Z</time></trkpt><trkpt lat="43.2180467" lon="13.1769317"><ele>342.75</ele><time>2026-04-26T14:06:43.508Z</time></trkpt><trkpt lat="43.2181567" lon="13.1770517"><ele>338.5</ele><time>2026-04-26T14:06:44.508Z</time></trkpt><trkpt lat="43.2182667" lon="13.177145"><ele>334.25</ele><time>2026-04-26T14:06:45.507Z</time></trkpt><trkpt lat="43.2183767" lon="13.1772283"><ele>330.0</ele><time>2026-04-26T14:06:46.507Z</time></trkpt><trkpt lat="43.2185" lon="13.1772667"><ele>330.0</ele><time>2026-04-26T14:06:47.507Z</time></trkpt><trkpt lat="43.2186283" lon="13.1772617"><ele>330.0</ele><time>2026-04-26T14:06:48.508Z</time></trkpt><trkpt lat="43.2187733" lon="13.17721"><ele>330.0</ele><time>2026-04-26T14:06:49.507Z</time></trkpt><trkpt lat="43.2189183" lon="13.177135"><ele>330.0</ele><time>2026-04-26T14:06:50.507Z</time></trkpt><trkpt lat="43.2190767" lon="13.177045"><ele>327.0</ele><time>2026-04-26T14:06:51.507Z</time></trkpt><trkpt lat="43.2192433" lon="13.1769567"><ele>324.0</ele><time>2026-04-26T14:06:52.507Z</time></trkpt><trkpt lat="43.2194033" lon="13.1768667"><ele>321.0</ele><time>2026-04-26T14:06:53.508Z</time></trkpt><trkpt lat="43.2195483" lon="13.176775"><ele>321.0</ele><time>2026-04-26T14:06:54.508Z</time></trkpt><trkpt lat="43.2196867" lon="13.1766967"><ele>321.0</ele><time>2026-04-26T14:06:55.507Z</time></trkpt><trkpt lat="43.2198133" lon="13.1766283"><ele>321.0</ele><time>2026-04-26T14:06:56.507Z</time></trkpt><trkpt lat="43.219935" lon="13.17657"><ele>321.0</ele><time>2026-04-26T14:06:57.508Z</time></trkpt><trkpt lat="43.220055" lon="13.17654"><ele>319.5</ele><time>2026-04-26T14:06:58.507Z</time></trkpt><trkpt lat="43.2201833" lon="13.1765333"><ele>318.0</ele><time>2026-04-26T14:06:59.507Z</time></trkpt><trkpt lat="43.22032" lon="13.1765317"><ele>316.5</ele><time>2026-04-26T14:07:00.507Z</time></trkpt><trkpt lat="43.220455" lon="13.176545"><ele>315.0</ele><time>2026-04-26T14:07:01.507Z</time></trkpt><trkpt lat="43.2205867" lon="13.1765433"><ele>314.5</ele><time>2026-04-26T14:07:02.507Z</time></trkpt><trkpt lat="43.2207233" lon="13.17652"><ele>314.0</ele><time>2026-04-26T14:07:03.507Z</time></trkpt><trkpt lat="43.2208517" lon="13.1764533"><ele>313.5</ele><time>2026-04-26T14:07:04.507Z</time></trkpt><trkpt lat="43.2209883" lon="13.176345"><ele>313.0</ele><time>2026-04-26T14:07:05.507Z</time></trkpt><trkpt lat="43.2211233" lon="13.176215"><ele>310.3333333333333</ele><time>2026-04-26T14:07:06.507Z</time></trkpt><trkpt lat="43.2212517" lon="13.1760833"><ele>307.6666666666667</ele><time>2026-04-26T14:07:07.507Z</time></trkpt><trkpt lat="43.2213717" lon="13.17597"><ele>305.0</ele><time>2026-04-26T14:07:08.508Z</time></trkpt><trkpt lat="43.221495" lon="13.1758483"><ele>304.25</ele><time>2026-04-26T14:07:09.507Z</time></trkpt><trkpt lat="43.2216167" lon="13.1757533"><ele>303.5</ele><time>2026-04-26T14:07:10.508Z</time></trkpt><trkpt lat="43.221745" lon="13.175695"><ele>302.75</ele><time>2026-04-26T14:07:11.508Z</time></trkpt><trkpt lat="43.221865" lon="13.1756767"><ele>302.0</ele><time>2026-04-26T14:07:12.507Z</time></trkpt><trkpt lat="43.2219883" lon="13.17571"><ele>302.0</ele><time>2026-04-26T14:07:13.507Z</time></trkpt><trkpt lat="43.2221233" lon="13.175735"><ele>302.0</ele><time>2026-04-26T14:07:14.508Z</time></trkpt><trkpt lat="43.22227" lon="13.1757683"><ele>302.0</ele><time>2026-04-26T14:07:15.508Z</time></trkpt><trkpt lat="43.22243" lon="13.1758217"><ele>300.33333333333337</ele><time>2026-04-26T14:07:16.507Z</time></trkpt><trkpt lat="43.2225933" lon="13.175855"><ele>298.6666666666667</ele><time>2026-04-26T14:07:17.508Z</time></trkpt><trkpt lat="43.2227467" lon="13.1758633"><ele>297.0</ele><time>2026-04-26T14:07:18.507Z</time></trkpt><trkpt lat="43.22289" lon="13.1758617"><ele>297.0</ele><time>2026-04-26T14:07:19.507Z</time></trkpt><trkpt lat="43.2230183" lon="13.1758383"><ele>297.0</ele><time>2026-04-26T14:07:20.507Z</time></trkpt><trkpt lat="43.2231483" lon="13.175805"><ele>297.0</ele><time>2026-04-26T14:07:21.508Z</time></trkpt><trkpt lat="43.2232617" lon="13.17574"><ele>297.0</ele><time>2026-04-26T14:07:22.508Z</time></trkpt><trkpt lat="43.2233783" lon="13.1756233"><ele>294.3333333333333</ele><time>2026-04-26T14:07:23.507Z</time></trkpt><trkpt lat="43.2234983" lon="13.1754817"><ele>291.66666666666663</ele><time>2026-04-26T14:07:24.507Z</time></trkpt><trkpt lat="43.2236167" lon="13.17534"><ele>289.0</ele><time>2026-04-26T14:07:25.508Z</time></trkpt><trkpt lat="43.2237383" lon="13.1751867"><ele>289.0</ele><time>2026-04-26T14:07:26.507Z</time></trkpt><trkpt lat="43.22386" lon="13.1750383"><ele>289.0</ele><time>2026-04-26T14:07:27.507Z</time></trkpt><trkpt lat="43.2239667" lon="13.17492"><ele>289.0</ele><time>2026-04-26T14:07:28.507Z</time></trkpt><trkpt lat="43.224065" lon="13.174815"><ele>289.0</ele><time>2026-04-26T14:07:29.507Z</time></trkpt><trkpt lat="43.224175" lon="13.1747067"><ele>287.25</ele><time>2026-04-26T14:07:30.507Z</time></trkpt><trkpt lat="43.2242833" lon="13.1746133"><ele>285.5</ele><time>2026-04-26T14:07:31.507Z</time></trkpt><trkpt lat="43.2243883" lon="13.1745567"><ele>283.75</ele><time>2026-04-26T14:07:32.507Z</time></trkpt><trkpt lat="43.2245067" lon="13.17449"><ele>282.0</ele><time>2026-04-26T14:07:33.507Z</time></trkpt><trkpt lat="43.2246117" lon="13.1744083"><ele>282.0</ele><time>2026-04-26T14:07:34.508Z</time></trkpt><trkpt lat="43.2247033" lon="13.1743067"><ele>282.0</ele><time>2026-04-26T14:07:35.507Z</time></trkpt><trkpt lat="43.2247867" lon="13.17418"><ele>282.0</ele><time>2026-04-26T14:07:36.507Z</time></trkpt><trkpt lat="43.2248517" lon="13.174025"><ele>282.0</ele><time>2026-04-26T14:07:37.507Z</time></trkpt><trkpt lat="43.2249017" lon="13.1738667"><ele>281.4</ele><time>2026-04-26T14:07:38.507Z</time></trkpt><trkpt lat="43.2249533" lon="13.1737233"><ele>280.79999999999995</ele><time>2026-04-26T14:07:39.507Z</time></trkpt><trkpt lat="43.2249917" lon="13.173585"><ele>280.2</ele><time>2026-04-26T14:07:40.507Z</time></trkpt><trkpt lat="43.2250367" lon="13.1734733"><ele>279.59999999999997</ele><time>2026-04-26T14:07:41.507Z</time></trkpt><trkpt lat="43.2250933" lon="13.1733667"><ele>279.0</ele><time>2026-04-26T14:07:42.507Z</time></trkpt><trkpt lat="43.225175" lon="13.173255"><ele>277.25</ele><time>2026-04-26T14:07:43.507Z</time></trkpt><trkpt lat="43.2252733" lon="13.1731383"><ele>275.5</ele><time>2026-04-26T14:07:44.507Z</time></trkpt><trkpt lat="43.2253817" lon="13.173025"><ele>273.75</ele><time>2026-04-26T14:07:45.508Z</time></trkpt><trkpt lat="43.2254917" lon="13.1729183"><ele>272.0</ele><time>2026-04-26T14:07:46.507Z</time></trkpt><trkpt lat="43.225615" lon="13.1728033"><ele>272.0</ele><time>2026-04-26T14:07:47.508Z</time></trkpt><trkpt lat="43.2257417" lon="13.1726817"><ele>272.0</ele><time>2026-04-26T14:07:48.507Z</time></trkpt><trkpt lat="43.2258817" lon="13.1725883"><ele>272.0</ele><time>2026-04-26T14:07:49.507Z</time></trkpt><trkpt lat="43.226025" lon="13.1724867"><ele>272.0</ele><time>2026-04-26T14:07:50.507Z</time></trkpt><trkpt lat="43.2261683" lon="13.1723817"><ele>272.0</ele><time>2026-04-26T14:07:51.507Z</time></trkpt><trkpt lat="43.2263033" lon="13.172285"><ele>272.0</ele><time>2026-04-26T14:07:52.508Z</time></trkpt><trkpt lat="43.2264283" lon="13.172185"><ele>269.0</ele><time>2026-04-26T14:07:53.507Z</time></trkpt><trkpt lat="43.2265483" lon="13.17209"><ele>266.0</ele><time>2026-04-26T14:07:54.507Z</time></trkpt><trkpt lat="43.2266767" lon="13.172005"><ele>263.0</ele><time>2026-04-26T14:07:55.507Z</time></trkpt><trkpt lat="43.2268033" lon="13.1719233"><ele>260.0</ele><time>2026-04-26T14:07:56.507Z</time></trkpt><trkpt lat="43.226925" lon="13.171865"><ele>260.0</ele><time>2026-04-26T14:07:57.507Z</time></trkpt><trkpt lat="43.22705" lon="13.1718267"><ele>260.0</ele><time>2026-04-26T14:07:58.508Z</time></trkpt><trkpt lat="43.2271767" lon="13.1718117"><ele>260.0</ele><time>2026-04-26T14:07:59.507Z</time></trkpt><trkpt lat="43.227305" lon="13.1718033"><ele>260.0</ele><time>2026-04-26T14:08:00.507Z</time></trkpt><trkpt lat="43.2274267" lon="13.1717917"><ele>258.8</ele><time>2026-04-26T14:08:01.507Z</time></trkpt><trkpt lat="43.2275467" lon="13.1718033"><ele>257.6</ele><time>2026-04-26T14:08:02.507Z</time></trkpt><trkpt lat="43.2276583" lon="13.171835"><ele>256.4</ele><time>2026-04-26T14:08:03.507Z</time></trkpt><trkpt lat="43.2277633" lon="13.17186"><ele>255.2</ele><time>2026-04-26T14:08:04.508Z</time></trkpt><trkpt lat="43.2278617" lon="13.1718917"><ele>254.0</ele><time>2026-04-26T14:08:05.508Z</time></trkpt><trkpt lat="43.2279567" lon="13.1719267"><ele>254.00000000000003</ele><time>2026-04-26T14:08:06.507Z</time></trkpt><trkpt lat="43.228035" lon="13.1719467"><ele>254.0</ele><time>2026-04-26T14:08:07.507Z</time></trkpt><trkpt lat="43.2281167" lon="13.17197"><ele>254.0</ele><time>2026-04-26T14:08:08.508Z</time></trkpt><trkpt lat="43.2282017" lon="13.1719917"><ele>254.0</ele><time>2026-04-26T14:08:09.507Z</time></trkpt><trkpt lat="43.2282833" lon="13.17203"><ele>254.00000000000003</ele><time>2026-04-26T14:08:10.507Z</time></trkpt><trkpt lat="43.2283567" lon="13.172075"><ele>254.0</ele><time>2026-04-26T14:08:11.507Z</time></trkpt><trkpt lat="43.22841" lon="13.172155"><ele>251.79999999999998</ele><time>2026-04-26T14:08:12.507Z</time></trkpt><trkpt lat="43.22846" lon="13.1722583"><ele>249.59999999999997</ele><time>2026-04-26T14:08:13.507Z</time></trkpt><trkpt lat="43.2284867" lon="13.17241"><ele>247.4</ele><time>2026-04-26T14:08:14.507Z</time></trkpt><trkpt lat="43.2284917" lon="13.1725783"><ele>245.2</ele><time>2026-04-26T14:08:15.508Z</time></trkpt><trkpt lat="43.2284983" lon="13.1727317"><ele>243.0</ele><time>2026-04-26T14:08:16.507Z</time></trkpt><trkpt lat="43.2285083" lon="13.1728733"><ele>243.0</ele><time>2026-04-26T14:08:17.507Z</time></trkpt><trkpt lat="43.2285167" lon="13.173005"><ele>243.0</ele><time>2026-04-26T14:08:18.507Z</time></trkpt><trkpt lat="43.2285283" lon="13.1731267"><ele>243.0</ele><time>2026-04-26T14:08:19.507Z</time></trkpt><trkpt lat="43.2285367" lon="13.1732533"><ele>243.0</ele><time>2026-04-26T14:08:20.507Z</time></trkpt><trkpt lat="43.22855" lon="13.17337"><ele>243.0</ele><time>2026-04-26T14:08:21.507Z</time></trkpt><trkpt lat="43.2285633" lon="13.1734883"><ele>243.2</ele><time>2026-04-26T14:08:22.508Z</time></trkpt><trkpt lat="43.2285867" lon="13.1735883"><ele>243.4</ele><time>2026-04-26T14:08:23.507Z</time></trkpt><trkpt lat="43.22862" lon="13.1737067"><ele>243.59999999999997</ele><time>2026-04-26T14:08:24.507Z</time></trkpt><trkpt lat="43.22866" lon="13.1738467"><ele>243.79999999999998</ele><time>2026-04-26T14:08:25.507Z</time></trkpt><trkpt lat="43.2287017" lon="13.1740117"><ele>244.0</ele><time>2026-04-26T14:08:26.507Z</time></trkpt><trkpt lat="43.2287483" lon="13.1742"><ele>244.66666666666666</ele><time>2026-04-26T14:08:27.508Z</time></trkpt><trkpt lat="43.2288183" lon="13.1743833"><ele>245.33333333333331</ele><time>2026-04-26T14:08:28.507Z</time></trkpt><trkpt lat="43.2289017" lon="13.1745617"><ele>246.0</ele><time>2026-04-26T14:08:29.507Z</time></trkpt><trkpt lat="43.2290033" lon="13.1747267"><ele>243.25</ele><time>2026-04-26T14:08:30.507Z</time></trkpt><trkpt lat="43.229095" lon="13.1748967"><ele>240.5</ele><time>2026-04-26T14:08:31.507Z</time></trkpt><trkpt lat="43.229195" lon="13.175045"><ele>237.75</ele><time>2026-04-26T14:08:32.507Z</time></trkpt><trkpt lat="43.229285" lon="13.175185"><ele>235.0</ele><time>2026-04-26T14:08:33.508Z</time></trkpt><trkpt lat="43.229365" lon="13.175325"><ele>235.0</ele><time>2026-04-26T14:08:34.507Z</time></trkpt><trkpt lat="43.22944" lon="13.175475"><ele>235.0</ele><time>2026-04-26T14:08:35.508Z</time></trkpt><trkpt lat="43.2295033" lon="13.17562"><ele>235.0</ele><time>2026-04-26T14:08:36.507Z</time></trkpt><trkpt lat="43.22956" lon="13.1757433"><ele>235.0</ele><time>2026-04-26T14:08:37.507Z</time></trkpt><trkpt lat="43.22961" lon="13.175885"><ele>236.0</ele><time>2026-04-26T14:08:38.507Z</time></trkpt><trkpt lat="43.229645" lon="13.17604"><ele>237.0</ele><time>2026-04-26T14:08:39.507Z</time></trkpt><trkpt lat="43.2296867" lon="13.1762033"><ele>238.0</ele><time>2026-04-26T14:08:40.507Z</time></trkpt><trkpt lat="43.2297117" lon="13.1763867"><ele>239.0</ele><time>2026-04-26T14:08:41.507Z</time></trkpt><trkpt lat="43.2297333" lon="13.1765817"><ele>239.0</ele><time>2026-04-26T14:08:42.507Z</time></trkpt><trkpt lat="43.2297567" lon="13.1767867"><ele>239.0</ele><time>2026-04-26T14:08:43.508Z</time></trkpt><trkpt lat="43.2297733" lon="13.176985"><ele>239.0</ele><time>2026-04-26T14:08:44.508Z</time></trkpt><trkpt lat="43.2297933" lon="13.1771733"><ele>239.0</ele><time>2026-04-26T14:08:45.507Z</time></trkpt><trkpt lat="43.229815" lon="13.1773483"><ele>236.25</ele><time>2026-04-26T14:08:46.507Z</time></trkpt><trkpt lat="43.22982" lon="13.1775183"><ele>233.5</ele><time>2026-04-26T14:08:47.507Z</time></trkpt><trkpt lat="43.22983" lon="13.1776883"><ele>230.75</ele><time>2026-04-26T14:08:48.507Z</time></trkpt><trkpt lat="43.2298367" lon="13.1778783"><ele>228.0</ele><time>2026-04-26T14:08:49.507Z</time></trkpt><trkpt lat="43.2298367" lon="13.1780517"><ele>228.75</ele><time>2026-04-26T14:08:50.507Z</time></trkpt><trkpt lat="43.2298367" lon="13.17824"><ele>229.5</ele><time>2026-04-26T14:08:51.507Z</time></trkpt><trkpt lat="43.2298433" lon="13.17844"><ele>230.25</ele><time>2026-04-26T14:08:52.507Z</time></trkpt><trkpt lat="43.229855" lon="13.1786333"><ele>231.0</ele><time>2026-04-26T14:08:53.508Z</time></trkpt><trkpt lat="43.22986" lon="13.17883"><ele>231.25</ele><time>2026-04-26T14:08:54.508Z</time></trkpt><trkpt lat="43.2298783" lon="13.17902"><ele>231.5</ele><time>2026-04-26T14:08:55.507Z</time></trkpt><trkpt lat="43.229895" lon="13.1792017"><ele>231.75</ele><time>2026-04-26T14:08:56.507Z</time></trkpt><trkpt lat="43.229905" lon="13.1793917"><ele>232.0</ele><time>2026-04-26T14:08:57.507Z</time></trkpt><trkpt lat="43.229915" lon="13.1795633"><ele>232.0</ele><time>2026-04-26T14:08:58.507Z</time></trkpt><trkpt lat="43.2299233" lon="13.179725"><ele>232.0</ele><time>2026-04-26T14:08:59.507Z</time></trkpt><trkpt lat="43.2299283" lon="13.1798633"><ele>232.0</ele><time>2026-04-26T14:09:00.507Z</time></trkpt><trkpt lat="43.2299333" lon="13.1799667"><ele>232.0</ele><time>2026-04-26T14:09:01.508Z</time></trkpt><trkpt lat="43.2299633" lon="13.180115"><ele>232.0</ele><time>2026-04-26T14:09:03.508Z</time></trkpt><trkpt lat="43.2300733" lon="13.18018"><ele>232.6</ele><time>2026-04-26T14:09:05.507Z</time></trkpt><trkpt lat="43.2301483" lon="13.1801917"><ele>233.2</ele><time>2026-04-26T14:09:06.507Z</time></trkpt><trkpt lat="43.2302383" lon="13.180195"><ele>233.8</ele><time>2026-04-26T14:09:07.507Z</time></trkpt><trkpt lat="43.23033" lon="13.180195"><ele>234.4</ele><time>2026-04-26T14:09:08.507Z</time></trkpt><trkpt lat="43.2304317" lon="13.1801817"><ele>235.0</ele><time>2026-04-26T14:09:09.507Z</time></trkpt><trkpt lat="43.2305483" lon="13.1802083"><ele>234.5</ele><time>2026-04-26T14:09:10.507Z</time></trkpt><trkpt lat="43.2306783" lon="13.1802283"><ele>234.0</ele><time>2026-04-26T14:09:11.508Z</time></trkpt><trkpt lat="43.2308083" lon="13.1802483"><ele>233.5</ele><time>2026-04-26T14:09:12.507Z</time></trkpt><trkpt lat="43.230945" lon="13.18028"><ele>233.0</ele><time>2026-04-26T14:09:13.508Z</time></trkpt><trkpt lat="43.2310783" lon="13.1802967"><ele>233.0</ele><time>2026-04-26T14:09:14.507Z</time></trkpt><trkpt lat="43.2311983" lon="13.1803267"><ele>233.0</ele><time>2026-04-26T14:09:15.508Z</time></trkpt><trkpt lat="43.2313083" lon="13.1803533"><ele>233.0</ele><time>2026-04-26T14:09:16.507Z</time></trkpt><trkpt lat="43.231405" lon="13.1803667"><ele>233.0</ele><time>2026-04-26T14:09:17.508Z</time></trkpt><trkpt lat="43.231495" lon="13.18039"><ele>233.0</ele><time>2026-04-26T14:09:18.507Z</time></trkpt><trkpt lat="43.2315967" lon="13.180445"><ele>233.60000000000002</ele><time>2026-04-26T14:09:19.508Z</time></trkpt><trkpt lat="43.2316833" lon="13.1804717"><ele>234.20000000000002</ele><time>2026-04-26T14:09:20.507Z</time></trkpt><trkpt lat="43.2317683" lon="13.1805167"><ele>234.8</ele><time>2026-04-26T14:09:21.507Z</time></trkpt><trkpt lat="43.23185" lon="13.180545"><ele>235.4</ele><time>2026-04-26T14:09:22.507Z</time></trkpt><trkpt lat="43.2319517" lon="13.1805683"><ele>236.0</ele><time>2026-04-26T14:09:23.507Z</time></trkpt><trkpt lat="43.232065" lon="13.1805867"><ele>236.0</ele><time>2026-04-26T14:09:24.508Z</time></trkpt><trkpt lat="43.2321833" lon="13.180585"><ele>236.0</ele><time>2026-04-26T14:09:25.508Z</time></trkpt><trkpt lat="43.232315" lon="13.1805833"><ele>236.0</ele><time>2026-04-26T14:09:26.508Z</time></trkpt><trkpt lat="43.2324817" lon="13.1806133"><ele>236.0</ele><time>2026-04-26T14:09:27.507Z</time></trkpt><trkpt lat="43.2326433" lon="13.180665"><ele>234.75</ele><time>2026-04-26T14:09:28.507Z</time></trkpt><trkpt lat="43.2327767" lon="13.18071"><ele>233.5</ele><time>2026-04-26T14:09:29.507Z</time></trkpt><trkpt lat="43.232895" lon="13.1807483"><ele>232.25</ele><time>2026-04-26T14:09:30.508Z</time></trkpt><trkpt lat="43.2330067" lon="13.1807867"><ele>231.0</ele><time>2026-04-26T14:09:31.507Z</time></trkpt><trkpt lat="43.233115" lon="13.1808467"><ele>232.0</ele><time>2026-04-26T14:09:32.508Z</time></trkpt><trkpt lat="43.2332067" lon="13.18091"><ele>233.00000000000003</ele><time>2026-04-26T14:09:33.508Z</time></trkpt><trkpt lat="43.2332883" lon="13.1810083"><ele>234.00000000000003</ele><time>2026-04-26T14:09:34.508Z</time></trkpt><trkpt lat="43.2333567" lon="13.1811283"><ele>235.0</ele><time>2026-04-26T14:09:35.507Z</time></trkpt><trkpt lat="43.2334183" lon="13.18127"><ele>236.0</ele><time>2026-04-26T14:09:36.507Z</time></trkpt><trkpt lat="43.2334683" lon="13.1814217"><ele>235.4</ele><time>2026-04-26T14:09:37.507Z</time></trkpt><trkpt lat="43.2335117" lon="13.1815667"><ele>234.8</ele><time>2026-04-26T14:09:38.507Z</time></trkpt><trkpt lat="43.2335533" lon="13.1817083"><ele>234.20000000000002</ele><time>2026-04-26T14:09:39.507Z</time></trkpt><trkpt lat="43.2336033" lon="13.1818383"><ele>233.60000000000002</ele><time>2026-04-26T14:09:40.507Z</time></trkpt><trkpt lat="43.2336517" lon="13.1819833"><ele>233.0</ele><time>2026-04-26T14:09:41.507Z</time></trkpt><trkpt lat="43.2337017" lon="13.18215"><ele>233.0</ele><time>2026-04-26T14:09:42.507Z</time></trkpt><trkpt lat="43.2337517" lon="13.18231"><ele>233.0</ele><time>2026-04-26T14:09:43.507Z</time></trkpt><trkpt lat="43.233795" lon="13.1824733"><ele>233.0</ele><time>2026-04-26T14:09:44.507Z</time></trkpt><trkpt lat="43.23385" lon="13.1826333"><ele>233.0</ele><time>2026-04-26T14:09:45.507Z</time></trkpt><trkpt lat="43.23389" lon="13.1827933"><ele>233.0</ele><time>2026-04-26T14:09:46.507Z</time></trkpt><trkpt lat="43.233925" lon="13.1829583"><ele>233.0</ele><time>2026-04-26T14:09:47.507Z</time></trkpt><trkpt lat="43.2339583" lon="13.1831233"><ele>233.0</ele><time>2026-04-26T14:09:48.508Z</time></trkpt><trkpt lat="43.233985" lon="13.1832917"><ele>233.0</ele><time>2026-04-26T14:09:49.507Z</time></trkpt><trkpt lat="43.234035" lon="13.1834533"><ele>233.25</ele><time>2026-04-26T14:09:50.507Z</time></trkpt><trkpt lat="43.23407" lon="13.183615"><ele>233.5</ele><time>2026-04-26T14:09:51.507Z</time></trkpt><trkpt lat="43.2341" lon="13.1837733"><ele>233.75</ele><time>2026-04-26T14:09:52.507Z</time></trkpt><trkpt lat="43.234135" lon="13.1839317"><ele>234.0</ele><time>2026-04-26T14:09:53.507Z</time></trkpt><trkpt lat="43.23416" lon="13.1840683"><ele>234.0</ele><time>2026-04-26T14:09:54.507Z</time></trkpt><trkpt lat="43.2341817" lon="13.1841967"><ele>234.0</ele><time>2026-04-26T14:09:55.507Z</time></trkpt><trkpt lat="43.2342033" lon="13.1843133"><ele>234.0</ele><time>2026-04-26T14:09:56.507Z</time></trkpt><trkpt lat="43.2342233" lon="13.1844083"><ele>234.0</ele><time>2026-04-26T14:09:57.507Z</time></trkpt><trkpt lat="43.2342417" lon="13.18452"><ele>234.0</ele><time>2026-04-26T14:09:58.507Z</time></trkpt><trkpt lat="43.2342583" lon="13.1846417"><ele>234.0</ele><time>2026-04-26T14:09:59.507Z</time></trkpt><trkpt lat="43.2342883" lon="13.18479"><ele>233.79999999999998</ele><time>2026-04-26T14:10:00.507Z</time></trkpt><trkpt lat="43.2343233" lon="13.1849483"><ele>233.59999999999997</ele><time>2026-04-26T14:10:01.507Z</time></trkpt><trkpt lat="43.2343467" lon="13.1850967"><ele>233.4</ele><time>2026-04-26T14:10:02.507Z</time></trkpt><trkpt lat="43.2343683" lon="13.1852267"><ele>233.2</ele><time>2026-04-26T14:10:03.508Z</time></trkpt><trkpt lat="43.23438" lon="13.1853433"><ele>233.0</ele><time>2026-04-26T14:10:04.506Z</time></trkpt><trkpt lat="43.2343767" lon="13.1854433"><ele>233.0</ele><time>2026-04-26T14:10:05.506Z</time></trkpt><trkpt lat="43.2343117" lon="13.1855917"><ele>233.0</ele><time>2026-04-26T14:10:07.507Z</time></trkpt><trkpt lat="43.2342683" lon="13.1857217"><ele>233.0</ele><time>2026-04-26T14:10:09.506Z</time></trkpt><trkpt lat="43.2343233" lon="13.1858283"><ele>233.0</ele><time>2026-04-26T14:10:11.506Z</time></trkpt><trkpt lat="43.2344417" lon="13.1858067"><ele>233.0</ele><time>2026-04-26T14:10:13.507Z</time></trkpt><trkpt lat="43.2345067" lon="13.1857333"><ele>233.0</ele><time>2026-04-26T14:10:14.506Z</time></trkpt><trkpt lat="43.234575" lon="13.1856767"><ele>233.0</ele><time>2026-04-26T14:10:15.506Z</time></trkpt><trkpt lat="43.2346717" lon="13.185655"><ele>233.0</ele><time>2026-04-26T14:10:16.506Z</time></trkpt><trkpt lat="43.2347867" lon="13.1856633"><ele>233.0</ele><time>2026-04-26T14:10:17.506Z</time></trkpt><trkpt lat="43.23494" lon="13.1857033"><ele>233.0</ele><time>2026-04-26T14:10:18.506Z</time></trkpt><trkpt lat="43.2351217" lon="13.1857383"><ele>233.5</ele><time>2026-04-26T14:10:19.506Z</time></trkpt><trkpt lat="43.23535" lon="13.1857867"><ele>234.0</ele><time>2026-04-26T14:10:20.506Z</time></trkpt><trkpt lat="43.2355867" lon="13.1858333"><ele>238.0</ele><time>2026-04-26T14:10:21.506Z</time></trkpt><trkpt lat="43.23583" lon="13.1858717"><ele>242.0</ele><time>2026-04-26T14:10:22.507Z</time></trkpt><trkpt lat="43.236055" lon="13.1859133"><ele>242.0</ele><time>2026-04-26T14:10:23.506Z</time></trkpt><trkpt lat="43.2362383" lon="13.1859683"><ele>242.0</ele><time>2026-04-26T14:10:24.506Z</time></trkpt><trkpt lat="43.2364133" lon="13.18601"><ele>242.0</ele><time>2026-04-26T14:10:25.506Z</time></trkpt><trkpt lat="43.2365733" lon="13.1860567"><ele>245.0</ele><time>2026-04-26T14:10:26.506Z</time></trkpt><trkpt lat="43.2367233" lon="13.1861317"><ele>248.0</ele><time>2026-04-26T14:10:27.507Z</time></trkpt><trkpt lat="43.2368683" lon="13.1862283"><ele>251.0</ele><time>2026-04-26T14:10:28.506Z</time></trkpt><trkpt lat="43.2370083" lon="13.186335"><ele>251.0</ele><time>2026-04-26T14:10:29.506Z</time></trkpt><trkpt lat="43.2371483" lon="13.1864233"><ele>251.0</ele><time>2026-04-26T14:10:30.506Z</time></trkpt><trkpt lat="43.237285" lon="13.1864517"><ele>251.0</ele><time>2026-04-26T14:10:31.506Z</time></trkpt><trkpt lat="43.2374233" lon="13.18642"><ele>251.0</ele><time>2026-04-26T14:10:32.506Z</time></trkpt><trkpt lat="43.2375617" lon="13.18634"><ele>250.33333333333334</ele><time>2026-04-26T14:10:33.507Z</time></trkpt><trkpt lat="43.2377167" lon="13.18621"><ele>249.66666666666669</ele><time>2026-04-26T14:10:34.506Z</time></trkpt><trkpt lat="43.2378817" lon="13.186065"><ele>249.0</ele><time>2026-04-26T14:10:35.506Z</time></trkpt><trkpt lat="43.23806" lon="13.1858967"><ele>248.5</ele><time>2026-04-26T14:10:36.507Z</time></trkpt><trkpt lat="43.2382483" lon="13.1857183"><ele>248.0</ele><time>2026-04-26T14:10:37.506Z</time></trkpt><trkpt lat="43.23844" lon="13.1855567"><ele>248.0</ele><time>2026-04-26T14:10:38.506Z</time></trkpt><trkpt lat="43.2385983" lon="13.185415"><ele>248.0</ele><time>2026-04-26T14:10:39.506Z</time></trkpt><trkpt lat="43.2387233" lon="13.1852983"><ele>248.0</ele><time>2026-04-26T14:10:40.507Z</time></trkpt><trkpt lat="43.2388467" lon="13.1852233"><ele>249.0</ele><time>2026-04-26T14:10:41.506Z</time></trkpt><trkpt lat="43.2389767" lon="13.1851933"><ele>250.0</ele><time>2026-04-26T14:10:42.506Z</time></trkpt><trkpt lat="43.23912" lon="13.1851967"><ele>251.0</ele><time>2026-04-26T14:10:43.507Z</time></trkpt><trkpt lat="43.2392783" lon="13.1852233"><ele>252.0</ele><time>2026-04-26T14:10:44.506Z</time></trkpt><trkpt lat="43.2394583" lon="13.18528"><ele>252.0</ele><time>2026-04-26T14:10:45.506Z</time></trkpt><trkpt lat="43.2396583" lon="13.18533"><ele>252.0</ele><time>2026-04-26T14:10:46.506Z</time></trkpt><trkpt lat="43.2398617" lon="13.1853883"><ele>252.0</ele><time>2026-04-26T14:10:47.506Z</time></trkpt><trkpt lat="43.2400483" lon="13.18545"><ele>253.5</ele><time>2026-04-26T14:10:48.506Z</time></trkpt><trkpt lat="43.2402083" lon="13.1855067"><ele>255.0</ele><time>2026-04-26T14:10:49.506Z</time></trkpt><trkpt lat="43.240345" lon="13.1855517"><ele>256.5</ele><time>2026-04-26T14:10:50.506Z</time></trkpt><trkpt lat="43.2404567" lon="13.1855867"><ele>258.0</ele><time>2026-04-26T14:10:51.506Z</time></trkpt><trkpt lat="43.2405417" lon="13.1856133"><ele>258.0</ele><time>2026-04-26T14:10:52.506Z</time></trkpt><trkpt lat="43.2406133" lon="13.1856167"><ele>258.0</ele><time>2026-04-26T14:10:53.506Z</time></trkpt><trkpt lat="43.2406733" lon="13.1855867"><ele>258.0</ele><time>2026-04-26T14:10:54.507Z</time></trkpt><trkpt lat="43.2407367" lon="13.1854633"><ele>258.0</ele><time>2026-04-26T14:10:56.506Z</time></trkpt><trkpt lat="43.240765" lon="13.1853683"><ele>258.0</ele><time>2026-04-26T14:10:58.506Z</time></trkpt><trkpt lat="43.240795" lon="13.18524"><ele>258.0</ele><time>2026-04-26T14:11:00.506Z</time></trkpt><trkpt lat="43.2408467" lon="13.18511"><ele>258.4</ele><time>2026-04-26T14:11:02.506Z</time></trkpt><trkpt lat="43.240895" lon="13.1849383"><ele>258.8</ele><time>2026-04-26T14:11:04.506Z</time></trkpt><trkpt lat="43.2409167" lon="13.1848533"><ele>259.2</ele><time>2026-04-26T14:11:05.506Z</time></trkpt><trkpt lat="43.2409383" lon="13.1847717"><ele>259.6</ele><time>2026-04-26T14:11:06.506Z</time></trkpt><trkpt lat="43.2409917" lon="13.1846167"><ele>260.0</ele><time>2026-04-26T14:11:08.506Z</time></trkpt><trkpt lat="43.2410217" lon="13.184535"><ele>260.0</ele><time>2026-04-26T14:11:09.507Z</time></trkpt><trkpt lat="43.24105" lon="13.1844567"><ele>260.0</ele><time>2026-04-26T14:11:10.507Z</time></trkpt><trkpt lat="43.241085" lon="13.1843817"><ele>260.0</ele><time>2026-04-26T14:11:11.507Z</time></trkpt><trkpt lat="43.2411317" lon="13.1843167"><ele>260.0</ele><time>2026-04-26T14:11:12.506Z</time></trkpt><trkpt lat="43.2412367" lon="13.18425"><ele>260.0</ele><time>2026-04-26T14:11:14.506Z</time></trkpt><trkpt lat="43.2413583" lon="13.1841917"><ele>260.0</ele><time>2026-04-26T14:11:16.506Z</time></trkpt><trkpt lat="43.2414283" lon="13.1841583"><ele>260.0</ele><time>2026-04-26T14:11:17.507Z</time></trkpt><trkpt lat="43.24151" lon="13.1841233"><ele>260.0</ele><time>2026-04-26T14:11:18.506Z</time></trkpt><trkpt lat="43.2415833" lon="13.1840817"><ele>260.0</ele><time>2026-04-26T14:11:19.506Z</time></trkpt><trkpt lat="43.241645" lon="13.1840367"><ele>260.0</ele><time>2026-04-26T14:11:20.507Z</time></trkpt><trkpt lat="43.241705" lon="13.18401"><ele>260.0</ele><time>2026-04-26T14:11:21.506Z</time></trkpt><trkpt lat="43.2418167" lon="13.1839783"><ele>260.0</ele><time>2026-04-26T14:11:23.506Z</time></trkpt><trkpt lat="43.2419367" lon="13.183965"><ele>260.0</ele><time>2026-04-26T14:11:25.506Z</time></trkpt><trkpt lat="43.2420517" lon="13.1839633"><ele>260.0</ele><time>2026-04-26T14:11:27.506Z</time></trkpt><trkpt lat="43.2421733" lon="13.1839983"><ele>260.0</ele><time>2026-04-26T14:11:29.507Z</time></trkpt><trkpt lat="43.24224" lon="13.1840083"><ele>260.0</ele><time>2026-04-26T14:11:30.507Z</time></trkpt><trkpt lat="43.2423617" lon="13.184015"><ele>260.0</ele><time>2026-04-26T14:11:32.507Z</time></trkpt><trkpt lat="43.2424783" lon="13.1840117"><ele>261.2</ele><time>2026-04-26T14:11:34.506Z</time></trkpt><trkpt lat="43.242595" lon="13.1840083"><ele>262.4</ele><time>2026-04-26T14:11:36.506Z</time></trkpt><trkpt lat="43.2427067" lon="13.184025"><ele>263.6</ele><time>2026-04-26T14:11:38.507Z</time></trkpt><trkpt lat="43.2428" lon="13.1840717"><ele>264.8</ele><time>2026-04-26T14:11:40.506Z</time></trkpt><trkpt lat="43.2428833" lon="13.1841433"><ele>266.0</ele><time>2026-04-26T14:11:42.506Z</time></trkpt><trkpt lat="43.2429417" lon="13.1842"><ele>267.6666666666667</ele><time>2026-04-26T14:11:43.507Z</time></trkpt><trkpt lat="43.243" lon="13.184275"><ele>269.33333333333337</ele><time>2026-04-26T14:11:44.506Z</time></trkpt><trkpt lat="43.2430733" lon="13.1843567"><ele>271.0</ele><time>2026-04-26T14:11:45.506Z</time></trkpt><trkpt lat="43.243145" lon="13.18444"><ele>272.6666666666667</ele><time>2026-04-26T14:11:46.506Z</time></trkpt><trkpt lat="43.2432233" lon="13.184505"><ele>274.3333333333333</ele><time>2026-04-26T14:11:47.506Z</time></trkpt><trkpt lat="43.2433017" lon="13.1845533"><ele>276.0</ele><time>2026-04-26T14:11:48.506Z</time></trkpt><trkpt lat="43.24338" lon="13.1845867"><ele>276.8333333333333</ele><time>2026-04-26T14:11:49.506Z</time></trkpt><trkpt lat="43.24345" lon="13.184625"><ele>277.6666666666667</ele><time>2026-04-26T14:11:50.506Z</time></trkpt><trkpt lat="43.2435217" lon="13.1846617"><ele>278.5</ele><time>2026-04-26T14:11:51.506Z</time></trkpt><trkpt lat="43.2435933" lon="13.1846767"><ele>279.33333333333337</ele><time>2026-04-26T14:11:52.506Z</time></trkpt><trkpt lat="43.2437117" lon="13.1846417"><ele>280.1666666666667</ele><time>2026-04-26T14:11:54.506Z</time></trkpt><trkpt lat="43.2437617" lon="13.1845833"><ele>281.0</ele><time>2026-04-26T14:11:55.507Z</time></trkpt><trkpt lat="43.24381" lon="13.1845083"><ele>281.0</ele><time>2026-04-26T14:11:56.507Z</time></trkpt><trkpt lat="43.2438467" lon="13.18442"><ele>281.0</ele><time>2026-04-26T14:11:57.506Z</time></trkpt><trkpt lat="43.2439367" lon="13.1843083"><ele>281.0</ele><time>2026-04-26T14:11:59.507Z</time></trkpt><trkpt lat="43.2439967" lon="13.184275"><ele>281.0</ele><time>2026-04-26T14:12:00.507Z</time></trkpt><trkpt lat="43.2441033" lon="13.1842417"><ele>281.0</ele><time>2026-04-26T14:12:02.507Z</time></trkpt><trkpt lat="43.2442183" lon="13.1842717"><ele>282.5</ele><time>2026-04-26T14:12:04.506Z</time></trkpt><trkpt lat="43.2442767" lon="13.184305"><ele>284.0</ele><time>2026-04-26T14:12:05.506Z</time></trkpt><trkpt lat="43.2443367" lon="13.1843533"><ele>285.5</ele><time>2026-04-26T14:12:06.506Z</time></trkpt><trkpt lat="43.2443983" lon="13.1843933"><ele>287.0</ele><time>2026-04-26T14:12:07.506Z</time></trkpt><trkpt lat="43.2444933" lon="13.184475"><ele>288.5</ele><time>2026-04-26T14:12:09.506Z</time></trkpt><trkpt lat="43.244585" lon="13.184555"><ele>290.0</ele><time>2026-04-26T14:12:11.506Z</time></trkpt><trkpt lat="43.2446817" lon="13.1845917"><ele>290.0</ele><time>2026-04-26T14:12:13.507Z</time></trkpt><trkpt lat="43.2447533" lon="13.184635"><ele>290.0</ele><time>2026-04-26T14:12:15.506Z</time></trkpt><trkpt lat="43.24478" lon="13.1847183"><ele>290.0</ele><time>2026-04-26T14:12:17.507Z</time></trkpt><trkpt lat="43.2447383" lon="13.1848133"><ele>290.0</ele><time>2026-04-26T14:12:20.506Z</time></trkpt><trkpt lat="43.2447133" lon="13.18493"><ele>290.0</ele><time>2026-04-26T14:12:34.506Z</time></trkpt><trkpt lat="43.2446767" lon="13.1851017"><ele>290.0</ele><time>2026-04-26T14:12:36.506Z</time></trkpt><trkpt lat="43.2446567" lon="13.1852217"><ele>291.0</ele><time>2026-04-26T14:12:37.506Z</time></trkpt><trkpt lat="43.244635" lon="13.1853367"><ele>292.0</ele><time>2026-04-26T14:12:38.506Z</time></trkpt><trkpt lat="43.2446283" lon="13.18543"><ele>293.0</ele><time>2026-04-26T14:12:39.506Z</time></trkpt><trkpt lat="43.2447033" lon="13.1855667"><ele>294.0</ele><time>2026-04-26T14:12:41.506Z</time></trkpt><trkpt lat="43.24477" lon="13.1856217"><ele>295.0</ele><time>2026-04-26T14:12:42.506Z</time></trkpt><trkpt lat="43.2448467" lon="13.1856717"><ele>296.0</ele><time>2026-04-26T14:12:43.506Z</time></trkpt><trkpt lat="43.2449483" lon="13.1857217"><ele>298.5</ele><time>2026-04-26T14:12:45.506Z</time></trkpt><trkpt lat="43.2450333" lon="13.185755"><ele>301.0</ele><time>2026-04-26T14:12:47.506Z</time></trkpt><trkpt lat="43.2451267" lon="13.1857733"><ele>303.5</ele><time>2026-04-26T14:12:49.506Z</time></trkpt><trkpt lat="43.2452183" lon="13.18579"><ele>306.0</ele><time>2026-04-26T14:12:51.506Z</time></trkpt><trkpt lat="43.2453267" lon="13.1857967"><ele>308.5</ele><time>2026-04-26T14:12:53.506Z</time></trkpt><trkpt lat="43.24539" lon="13.1858017"><ele>311.0</ele><time>2026-04-26T14:12:54.507Z</time></trkpt><trkpt lat="43.2454983" lon="13.18581"><ele>311.0</ele><time>2026-04-26T14:12:56.506Z</time></trkpt><trkpt lat="43.245605" lon="13.1858133"><ele>311.0</ele><time>2026-04-26T14:12:58.506Z</time></trkpt><trkpt lat="43.2457067" lon="13.1858183"><ele>311.0</ele><time>2026-04-26T14:13:00.506Z</time></trkpt><trkpt lat="43.2458083" lon="13.185795"><ele>311.0</ele><time>2026-04-26T14:13:02.506Z</time></trkpt><trkpt lat="43.2459033" lon="13.1857367"><ele>311.0</ele><time>2026-04-26T14:13:04.506Z</time></trkpt><trkpt lat="43.2459933" lon="13.1856683"><ele>312.0</ele><time>2026-04-26T14:13:06.507Z</time></trkpt><trkpt lat="43.24607" lon="13.1856083"><ele>313.0</ele><time>2026-04-26T14:13:08.506Z</time></trkpt><trkpt lat="43.2461483" lon="13.1855533"><ele>314.0</ele><time>2026-04-26T14:13:10.506Z</time></trkpt><trkpt lat="43.246235" lon="13.1855217"><ele>315.0</ele><time>2026-04-26T14:13:12.506Z</time></trkpt><trkpt lat="43.2463467" lon="13.1855233"><ele>316.0</ele><time>2026-04-26T14:13:14.506Z</time></trkpt><trkpt lat="43.2464483" lon="13.1855417"><ele>317.20000000000005</ele><time>2026-04-26T14:13:16.506Z</time></trkpt><trkpt lat="43.2465333" lon="13.1855917"><ele>318.40000000000003</ele><time>2026-04-26T14:13:18.506Z</time></trkpt><trkpt lat="43.2466267" lon="13.18564"><ele>319.6</ele><time>2026-04-26T14:13:20.506Z</time></trkpt><trkpt lat="43.2467233" lon="13.1856617"><ele>320.8</ele><time>2026-04-26T14:13:22.506Z</time></trkpt><trkpt lat="43.246815" lon="13.1856867"><ele>322.0</ele><time>2026-04-26T14:13:24.506Z</time></trkpt><trkpt lat="43.246925" lon="13.18567"><ele>322.0</ele><time>2026-04-26T14:13:26.506Z</time></trkpt><trkpt lat="43.2470317" lon="13.1856517"><ele>322.0</ele><time>2026-04-26T14:13:28.507Z</time></trkpt><trkpt lat="43.24714" lon="13.18565"><ele>322.0</ele><time>2026-04-26T14:13:30.506Z</time></trkpt><trkpt lat="43.247245" lon="13.1856467"><ele>322.0</ele><time>2026-04-26T14:13:32.506Z</time></trkpt><trkpt lat="43.2473433" lon="13.185645"><ele>322.0</ele><time>2026-04-26T14:13:34.506Z</time></trkpt><trkpt lat="43.247435" lon="13.1856417"><ele>323.75</ele><time>2026-04-26T14:13:36.506Z</time></trkpt><trkpt lat="43.2475283" lon="13.185635"><ele>325.5</ele><time>2026-04-26T14:13:38.507Z</time></trkpt><trkpt lat="43.2476683" lon="13.185635"><ele>327.25</ele><time>2026-04-26T14:13:40.507Z</time></trkpt><trkpt lat="43.24777" lon="13.1856433"><ele>329.0</ele><time>2026-04-26T14:13:41.506Z</time></trkpt><trkpt lat="43.2479067" lon="13.18567"><ele>329.0</ele><time>2026-04-26T14:13:42.507Z</time></trkpt><trkpt lat="43.2480633" lon="13.1856967"><ele>329.0</ele><time>2026-04-26T14:13:43.506Z</time></trkpt><trkpt lat="43.248235" lon="13.185725"><ele>329.0</ele><time>2026-04-26T14:13:44.507Z</time></trkpt><trkpt lat="43.2484033" lon="13.1857533"><ele>330.0</ele><time>2026-04-26T14:13:45.507Z</time></trkpt><trkpt lat="43.248555" lon="13.18578"><ele>331.0</ele><time>2026-04-26T14:13:46.506Z</time></trkpt><trkpt lat="43.2486883" lon="13.1857683"><ele>332.0</ele><time>2026-04-26T14:13:47.506Z</time></trkpt><trkpt lat="43.248825" lon="13.18575"><ele>333.0</ele><time>2026-04-26T14:13:48.506Z</time></trkpt><trkpt lat="43.24896" lon="13.1857467"><ele>335.0</ele><time>2026-04-26T14:13:49.506Z</time></trkpt><trkpt lat="43.2490967" lon="13.18577"><ele>337.0</ele><time>2026-04-26T14:13:50.506Z</time></trkpt><trkpt lat="43.2492483" lon="13.185805"><ele>339.0</ele><time>2026-04-26T14:13:51.506Z</time></trkpt><trkpt lat="43.2494083" lon="13.1858367"><ele>339.0</ele><time>2026-04-26T14:13:52.507Z</time></trkpt><trkpt lat="43.2495667" lon="13.1858583"><ele>339.0</ele><time>2026-04-26T14:13:53.506Z</time></trkpt><trkpt lat="43.2497283" lon="13.1858783"><ele>339.0</ele><time>2026-04-26T14:13:54.507Z</time></trkpt><trkpt lat="43.2498867" lon="13.185895"><ele>341.75</ele><time>2026-04-26T14:13:55.506Z</time></trkpt><trkpt lat="43.2500333" lon="13.18591"><ele>344.5</ele><time>2026-04-26T14:13:56.507Z</time></trkpt><trkpt lat="43.250175" lon="13.1859333"><ele>347.25</ele><time>2026-04-26T14:13:57.506Z</time></trkpt><trkpt lat="43.25031" lon="13.1859567"><ele>350.0</ele><time>2026-04-26T14:13:58.506Z</time></trkpt><trkpt lat="43.2504467" lon="13.1859783"><ele>350.0</ele><time>2026-04-26T14:13:59.506Z</time></trkpt><trkpt lat="43.2505833" lon="13.18601"><ele>350.0</ele><time>2026-04-26T14:14:00.506Z</time></trkpt><trkpt lat="43.2507183" lon="13.1860417"><ele>350.0</ele><time>2026-04-26T14:14:01.506Z</time></trkpt><trkpt lat="43.2508483" lon="13.1860533"><ele>350.0</ele><time>2026-04-26T14:14:02.507Z</time></trkpt><trkpt lat="43.2509733" lon="13.1860433"><ele>349.75</ele><time>2026-04-26T14:14:03.506Z</time></trkpt><trkpt lat="43.2510983" lon="13.186"><ele>349.5</ele><time>2026-04-26T14:14:04.506Z</time></trkpt><trkpt lat="43.251225" lon="13.1859333"><ele>349.25</ele><time>2026-04-26T14:14:05.506Z</time></trkpt><trkpt lat="43.25135" lon="13.18584"><ele>349.0</ele><time>2026-04-26T14:14:06.506Z</time></trkpt><trkpt lat="43.25147" lon="13.1857433"><ele>348.5</ele><time>2026-04-26T14:14:07.506Z</time></trkpt><trkpt lat="43.2515967" lon="13.18567"><ele>348.0</ele><time>2026-04-26T14:14:08.506Z</time></trkpt><trkpt lat="43.2517267" lon="13.1856233"><ele>347.5</ele><time>2026-04-26T14:14:09.507Z</time></trkpt><trkpt lat="43.2518633" lon="13.1855933"><ele>347.0</ele><time>2026-04-26T14:14:10.506Z</time></trkpt><trkpt lat="43.2520133" lon="13.1855783"><ele>347.0</ele><time>2026-04-26T14:14:11.506Z</time></trkpt><trkpt lat="43.252175" lon="13.185555"><ele>347.0</ele><time>2026-04-26T14:14:12.506Z</time></trkpt><trkpt lat="43.2523367" lon="13.185545"><ele>347.0</ele><time>2026-04-26T14:14:13.506Z</time></trkpt><trkpt lat="43.2524983" lon="13.185535"><ele>347.5</ele><time>2026-04-26T14:14:14.506Z</time></trkpt><trkpt lat="43.2526483" lon="13.1855267"><ele>348.0</ele><time>2026-04-26T14:14:15.506Z</time></trkpt><trkpt lat="43.2527917" lon="13.1855433"><ele>348.5</ele><time>2026-04-26T14:14:16.506Z</time></trkpt><trkpt lat="43.2529433" lon="13.1855583"><ele>349.0</ele><time>2026-04-26T14:14:17.507Z</time></trkpt><trkpt lat="43.2530967" lon="13.185545"><ele>348.66666666666663</ele><time>2026-04-26T14:14:18.506Z</time></trkpt><trkpt lat="43.2532583" lon="13.1855217"><ele>348.3333333333333</ele><time>2026-04-26T14:14:19.506Z</time></trkpt><trkpt lat="43.2534183" lon="13.1855083"><ele>348.0</ele><time>2026-04-26T14:14:20.506Z</time></trkpt><trkpt lat="43.253585" lon="13.1855"><ele>348.0</ele><time>2026-04-26T14:14:21.506Z</time></trkpt><trkpt lat="43.25376" lon="13.185485"><ele>348.0</ele><time>2026-04-26T14:14:22.506Z</time></trkpt><trkpt lat="43.25393" lon="13.185485"><ele>348.0</ele><time>2026-04-26T14:14:23.506Z</time></trkpt><trkpt lat="43.254095" lon="13.185485"><ele>347.3333333333333</ele><time>2026-04-26T14:14:24.506Z</time></trkpt><trkpt lat="43.25426" lon="13.185505"><ele>346.66666666666663</ele><time>2026-04-26T14:14:25.507Z</time></trkpt><trkpt lat="43.25442" lon="13.18551"><ele>346.0</ele><time>2026-04-26T14:14:26.506Z</time></trkpt><trkpt lat="43.254565" lon="13.1855267"><ele>346.0</ele><time>2026-04-26T14:14:27.506Z</time></trkpt><trkpt lat="43.25471" lon="13.1855533"><ele>346.0</ele><time>2026-04-26T14:14:28.506Z</time></trkpt><trkpt lat="43.2548667" lon="13.1855967"><ele>346.0</ele><time>2026-04-26T14:14:29.506Z</time></trkpt><trkpt lat="43.2550183" lon="13.1856467"><ele>344.0</ele><time>2026-04-26T14:14:30.506Z</time></trkpt><trkpt lat="43.2551733" lon="13.1856883"><ele>342.0</ele><time>2026-04-26T14:14:31.506Z</time></trkpt><trkpt lat="43.2553217" lon="13.1857283"><ele>340.0</ele><time>2026-04-26T14:14:32.507Z</time></trkpt><trkpt lat="43.2554633" lon="13.1857783"><ele>340.0</ele><time>2026-04-26T14:14:33.506Z</time></trkpt><trkpt lat="43.2555917" lon="13.1858417"><ele>340.0</ele><time>2026-04-26T14:14:34.506Z</time></trkpt><trkpt lat="43.2557283" lon="13.1859233"><ele>340.0</ele><time>2026-04-26T14:14:35.506Z</time></trkpt><trkpt lat="43.2558717" lon="13.1860017"><ele>340.0</ele><time>2026-04-26T14:14:36.506Z</time></trkpt><trkpt lat="43.2560267" lon="13.1860833"><ele>343.3333333333333</ele><time>2026-04-26T14:14:37.506Z</time></trkpt><trkpt lat="43.25618" lon="13.1861467"><ele>346.6666666666667</ele><time>2026-04-26T14:14:38.506Z</time></trkpt><trkpt lat="43.2563233" lon="13.1862367"><ele>350.0</ele><time>2026-04-26T14:14:39.506Z</time></trkpt><trkpt lat="43.25644" lon="13.18634"><ele>349.0</ele><time>2026-04-26T14:14:40.506Z</time></trkpt><trkpt lat="43.256565" lon="13.18643"><ele>348.0</ele><time>2026-04-26T14:14:41.506Z</time></trkpt><trkpt lat="43.2566767" lon="13.1864917"><ele>347.0</ele><time>2026-04-26T14:14:42.506Z</time></trkpt><trkpt lat="43.256775" lon="13.1865333"><ele>346.0</ele><time>2026-04-26T14:14:43.507Z</time></trkpt><trkpt lat="43.2568567" lon="13.1865517"><ele>345.0</ele><time>2026-04-26T14:14:44.506Z</time></trkpt><trkpt lat="43.2569383" lon="13.186545"><ele>346.8</ele><time>2026-04-26T14:14:45.506Z</time></trkpt><trkpt lat="43.25702" lon="13.1864867"><ele>348.6</ele><time>2026-04-26T14:14:46.506Z</time></trkpt><trkpt lat="43.2570933" lon="13.1864033"><ele>350.4</ele><time>2026-04-26T14:14:47.507Z</time></trkpt><trkpt lat="43.25716" lon="13.18632"><ele>352.2</ele><time>2026-04-26T14:14:48.506Z</time></trkpt><trkpt lat="43.2572483" lon="13.1862617"><ele>354.0</ele><time>2026-04-26T14:14:49.506Z</time></trkpt><trkpt lat="43.2573517" lon="13.1862267"><ele>354.0</ele><time>2026-04-26T14:14:50.506Z</time></trkpt><trkpt lat="43.2574683" lon="13.186195"><ele>354.0</ele><time>2026-04-26T14:14:51.506Z</time></trkpt><trkpt lat="43.257585" lon="13.18613"><ele>354.0</ele><time>2026-04-26T14:14:52.506Z</time></trkpt><trkpt lat="43.25771" lon="13.1860433"><ele>354.0</ele><time>2026-04-26T14:14:53.507Z</time></trkpt><trkpt lat="43.2578317" lon="13.18595"><ele>354.0</ele><time>2026-04-26T14:14:54.506Z</time></trkpt><trkpt lat="43.2579367" lon="13.1858817"><ele>354.0</ele><time>2026-04-26T14:14:55.506Z</time></trkpt><trkpt lat="43.2580283" lon="13.18584"><ele>354.0</ele><time>2026-04-26T14:14:56.507Z</time></trkpt><trkpt lat="43.258115" lon="13.18583"><ele>354.0</ele><time>2026-04-26T14:14:57.506Z</time></trkpt><trkpt lat="43.2582017" lon="13.1858583"><ele>354.0</ele><time>2026-04-26T14:14:58.506Z</time></trkpt><trkpt lat="43.2582767" lon="13.1859133"><ele>353.2</ele><time>2026-04-26T14:14:59.507Z</time></trkpt><trkpt lat="43.2583367" lon="13.1859617"><ele>352.4</ele><time>2026-04-26T14:15:00.506Z</time></trkpt><trkpt lat="43.2584317" lon="13.1859567"><ele>351.6</ele><time>2026-04-26T14:15:02.506Z</time></trkpt><trkpt lat="43.25851" lon="13.1859083"><ele>350.8</ele><time>2026-04-26T14:15:03.506Z</time></trkpt><trkpt lat="43.2585917" lon="13.1858333"><ele>350.0</ele><time>2026-04-26T14:15:04.507Z</time></trkpt><trkpt lat="43.2586767" lon="13.1857583"><ele>348.8</ele><time>2026-04-26T14:15:05.506Z</time></trkpt><trkpt lat="43.2587317" lon="13.18567"><ele>347.6</ele><time>2026-04-26T14:15:06.507Z</time></trkpt><trkpt lat="43.25877" lon="13.1855683"><ele>346.4</ele><time>2026-04-26T14:15:07.506Z</time></trkpt><trkpt lat="43.2587783" lon="13.18545"><ele>345.2</ele><time>2026-04-26T14:15:08.506Z</time></trkpt><trkpt lat="43.258765" lon="13.185325"><ele>344.0</ele><time>2026-04-26T14:15:09.506Z</time></trkpt><trkpt lat="43.25872" lon="13.18518"><ele>344.0</ele><time>2026-04-26T14:15:10.506Z</time></trkpt><trkpt lat="43.25865" lon="13.18501"><ele>344.0</ele><time>2026-04-26T14:15:11.506Z</time></trkpt><trkpt lat="43.258575" lon="13.18481"><ele>344.0</ele><time>2026-04-26T14:15:12.506Z</time></trkpt><trkpt lat="43.2585083" lon="13.184585"><ele>343.6666666666667</ele><time>2026-04-26T14:15:13.507Z</time></trkpt><trkpt lat="43.2584433" lon="13.1843417"><ele>343.3333333333333</ele><time>2026-04-26T14:15:14.506Z</time></trkpt><trkpt lat="43.2583767" lon="13.1841067"><ele>343.0</ele><time>2026-04-26T14:15:15.506Z</time></trkpt><trkpt lat="43.2583083" lon="13.1838933"><ele>342.66666666666663</ele><time>2026-04-26T14:15:16.507Z</time></trkpt><trkpt lat="43.258255" lon="13.1836967"><ele>342.3333333333333</ele><time>2026-04-26T14:15:17.506Z</time></trkpt><trkpt lat="43.2582117" lon="13.183495"><ele>342.0</ele><time>2026-04-26T14:15:18.506Z</time></trkpt><trkpt lat="43.2581717" lon="13.1832817"><ele>342.0</ele><time>2026-04-26T14:15:19.506Z</time></trkpt><trkpt lat="43.2581417" lon="13.1830567"><ele>342.0</ele><time>2026-04-26T14:15:20.506Z</time></trkpt><trkpt lat="43.25813" lon="13.182815"><ele>342.0</ele><time>2026-04-26T14:15:21.506Z</time></trkpt><trkpt lat="43.25813" lon="13.182575"><ele>343.3333333333333</ele><time>2026-04-26T14:15:22.506Z</time></trkpt><trkpt lat="43.2581333" lon="13.1823267"><ele>344.66666666666663</ele><time>2026-04-26T14:15:23.507Z</time></trkpt><trkpt lat="43.2581517" lon="13.1820767"><ele>346.0</ele><time>2026-04-26T14:15:24.507Z</time></trkpt><trkpt lat="43.2581867" lon="13.181835"><ele>346.0</ele><time>2026-04-26T14:15:25.506Z</time></trkpt><trkpt lat="43.2582467" lon="13.1815933"><ele>346.0</ele><time>2026-04-26T14:15:26.506Z</time></trkpt><trkpt lat="43.2583183" lon="13.18134"><ele>346.0</ele><time>2026-04-26T14:15:27.506Z</time></trkpt><trkpt lat="43.2583917" lon="13.1810783"><ele>347.3333333333333</ele><time>2026-04-26T14:15:28.506Z</time></trkpt><trkpt lat="43.258465" lon="13.1808217"><ele>348.6666666666667</ele><time>2026-04-26T14:15:29.506Z</time></trkpt><trkpt lat="43.2585333" lon="13.1805717"><ele>350.0</ele><time>2026-04-26T14:15:30.506Z</time></trkpt><trkpt lat="43.2586017" lon="13.1803417"><ele>350.75</ele><time>2026-04-26T14:15:31.506Z</time></trkpt><trkpt lat="43.25866" lon="13.1801433"><ele>351.5</ele><time>2026-04-26T14:15:32.506Z</time></trkpt><trkpt lat="43.25872" lon="13.1799717"><ele>352.25</ele><time>2026-04-26T14:15:33.506Z</time></trkpt><trkpt lat="43.25877" lon="13.1798167"><ele>353.0</ele><time>2026-04-26T14:15:34.506Z</time></trkpt><trkpt lat="43.25881" lon="13.1796983"><ele>354.25</ele><time>2026-04-26T14:15:35.506Z</time></trkpt><trkpt lat="43.2588667" lon="13.1795633"><ele>355.5</ele><time>2026-04-26T14:15:37.507Z</time></trkpt><trkpt lat="43.2589867" lon="13.17951"><ele>356.75</ele><time>2026-04-26T14:15:39.506Z</time></trkpt><trkpt lat="43.2590883" lon="13.1794867"><ele>358.0</ele><time>2026-04-26T14:15:40.506Z</time></trkpt><trkpt lat="43.25922" lon="13.179435"><ele>361.66666666666663</ele><time>2026-04-26T14:15:41.506Z</time></trkpt><trkpt lat="43.259365" lon="13.1793633"><ele>365.3333333333333</ele><time>2026-04-26T14:15:42.506Z</time></trkpt><trkpt lat="43.2595167" lon="13.1792917"><ele>369.0</ele><time>2026-04-26T14:15:43.506Z</time></trkpt><trkpt lat="43.25965" lon="13.1792233"><ele>369.0</ele><time>2026-04-26T14:15:44.507Z</time></trkpt><trkpt lat="43.25977" lon="13.179155"><ele>369.0</ele><time>2026-04-26T14:15:45.506Z</time></trkpt><trkpt lat="43.2598583" lon="13.1791033"><ele>369.0</ele><time>2026-04-26T14:15:46.506Z</time></trkpt><trkpt lat="43.259925" lon="13.1790767"><ele>369.0</ele><time>2026-04-26T14:15:47.506Z</time></trkpt><trkpt lat="43.2600083" lon="13.1790683"><ele>369.0</ele><time>2026-04-26T14:15:49.506Z</time></trkpt><trkpt lat="43.2601183" lon="13.1790367"><ele>370.75</ele><time>2026-04-26T14:15:51.506Z</time></trkpt><trkpt lat="43.2601883" lon="13.1789633"><ele>372.5</ele><time>2026-04-26T14:15:52.506Z</time></trkpt><trkpt lat="43.2602667" lon="13.1788633"><ele>374.25</ele><time>2026-04-26T14:15:53.506Z</time></trkpt><trkpt lat="43.260365" lon="13.1787517"><ele>376.0</ele><time>2026-04-26T14:15:54.506Z</time></trkpt><trkpt lat="43.2604717" lon="13.1786417"><ele>376.0</ele><time>2026-04-26T14:15:55.506Z</time></trkpt><trkpt lat="43.2605683" lon="13.1785283"><ele>376.0</ele><time>2026-04-26T14:15:56.506Z</time></trkpt><trkpt lat="43.2606533" lon="13.17843"><ele>376.0</ele><time>2026-04-26T14:15:57.506Z</time></trkpt><trkpt lat="43.2607367" lon="13.178335"><ele>376.0</ele><time>2026-04-26T14:15:58.507Z</time></trkpt><trkpt lat="43.2608133" lon="13.1782417"><ele>376.0</ele><time>2026-04-26T14:15:59.507Z</time></trkpt><trkpt lat="43.2608833" lon="13.1781567"><ele>376.4</ele><time>2026-04-26T14:16:00.507Z</time></trkpt><trkpt lat="43.2609367" lon="13.1780733"><ele>376.8</ele><time>2026-04-26T14:16:01.506Z</time></trkpt><trkpt lat="43.2609883" lon="13.178005"><ele>377.2</ele><time>2026-04-26T14:16:02.506Z</time></trkpt><trkpt lat="43.2610567" lon="13.1779567"><ele>377.59999999999997</ele><time>2026-04-26T14:16:03.506Z</time></trkpt><trkpt lat="43.2611567" lon="13.177915"><ele>378.0</ele><time>2026-04-26T14:16:04.506Z</time></trkpt><trkpt lat="43.2612817" lon="13.17788"><ele>378.0</ele><time>2026-04-26T14:16:05.507Z</time></trkpt><trkpt lat="43.261425" lon="13.1778383"><ele>378.0</ele><time>2026-04-26T14:16:06.506Z</time></trkpt><trkpt lat="43.261575" lon="13.1777933"><ele>378.0</ele><time>2026-04-26T14:16:07.506Z</time></trkpt><trkpt lat="43.2617167" lon="13.1777567"><ele>378.0</ele><time>2026-04-26T14:16:08.506Z</time></trkpt><trkpt lat="43.2618617" lon="13.1777133"><ele>376.5</ele><time>2026-04-26T14:16:09.506Z</time></trkpt><trkpt lat="43.2620117" lon="13.1776683"><ele>375.0</ele><time>2026-04-26T14:16:10.506Z</time></trkpt><trkpt lat="43.262155" lon="13.177625"><ele>373.5</ele><time>2026-04-26T14:16:11.506Z</time></trkpt><trkpt lat="43.2622983" lon="13.17759"><ele>372.0</ele><time>2026-04-26T14:16:12.506Z</time></trkpt><trkpt lat="43.2624367" lon="13.1775583"><ele>368.75</ele><time>2026-04-26T14:16:13.506Z</time></trkpt><trkpt lat="43.2625733" lon="13.17753"><ele>365.5</ele><time>2026-04-26T14:16:14.507Z</time></trkpt><trkpt lat="43.2627167" lon="13.1775033"><ele>362.25</ele><time>2026-04-26T14:16:15.506Z</time></trkpt><trkpt lat="43.262855" lon="13.17748"><ele>359.0</ele><time>2026-04-26T14:16:16.506Z</time></trkpt><trkpt lat="43.2629933" lon="13.1774517"><ele>357.25</ele><time>2026-04-26T14:16:17.506Z</time></trkpt><trkpt lat="43.2631267" lon="13.177425"><ele>355.5</ele><time>2026-04-26T14:16:18.506Z</time></trkpt><trkpt lat="43.2632567" lon="13.1773867"><ele>353.75</ele><time>2026-04-26T14:16:19.506Z</time></trkpt><trkpt lat="43.2633783" lon="13.17735"><ele>352.0</ele><time>2026-04-26T14:16:20.506Z</time></trkpt><trkpt lat="43.2634867" lon="13.1773217"><ele>352.0</ele><time>2026-04-26T14:16:21.506Z</time></trkpt><trkpt lat="43.2635967" lon="13.1773117"><ele>352.0</ele><time>2026-04-26T14:16:22.506Z</time></trkpt><trkpt lat="43.2637183" lon="13.1773083"><ele>352.0</ele><time>2026-04-26T14:16:23.507Z</time></trkpt><trkpt lat="43.26384" lon="13.1773367"><ele>352.0</ele><time>2026-04-26T14:16:24.506Z</time></trkpt><trkpt lat="43.263955" lon="13.1773767"><ele>349.0</ele><time>2026-04-26T14:16:25.506Z</time></trkpt><trkpt lat="43.264065" lon="13.1774217"><ele>346.0</ele><time>2026-04-26T14:16:26.506Z</time></trkpt><trkpt lat="43.26416" lon="13.1774717"><ele>343.0</ele><time>2026-04-26T14:16:27.507Z</time></trkpt><trkpt lat="43.2642567" lon="13.1775283"><ele>340.0</ele><time>2026-04-26T14:16:28.506Z</time></trkpt><trkpt lat="43.2643633" lon="13.17759"><ele>337.0</ele><time>2026-04-26T14:16:29.506Z</time></trkpt><trkpt lat="43.2644733" lon="13.1776883"><ele>337.0</ele><time>2026-04-26T14:16:30.507Z</time></trkpt><trkpt lat="43.2645883" lon="13.1778033"><ele>337.0</ele><time>2026-04-26T14:16:31.506Z</time></trkpt><trkpt lat="43.2647" lon="13.1779067"><ele>337.0</ele><time>2026-04-26T14:16:32.506Z</time></trkpt><trkpt lat="43.26481" lon="13.1780033"><ele>337.0</ele><time>2026-04-26T14:16:33.506Z</time></trkpt><trkpt lat="43.2649217" lon="13.1781"><ele>330.75</ele><time>2026-04-26T14:16:34.507Z</time></trkpt><trkpt lat="43.2650367" lon="13.178195"><ele>324.5</ele><time>2026-04-26T14:16:35.506Z</time></trkpt><trkpt lat="43.2651483" lon="13.1782833"><ele>318.25</ele><time>2026-04-26T14:16:36.507Z</time></trkpt><trkpt lat="43.26526" lon="13.17836"><ele>312.0</ele><time>2026-04-26T14:16:37.506Z</time></trkpt><trkpt lat="43.26536" lon="13.1784317"><ele>312.0</ele><time>2026-04-26T14:16:38.506Z</time></trkpt><trkpt lat="43.2654533" lon="13.1785033"><ele>312.0</ele><time>2026-04-26T14:16:39.507Z</time></trkpt><trkpt lat="43.2655383" lon="13.1785683"><ele>312.0</ele><time>2026-04-26T14:16:40.506Z</time></trkpt><trkpt lat="43.2656083" lon="13.1786217"><ele>312.0</ele><time>2026-04-26T14:16:41.507Z</time></trkpt><trkpt lat="43.2656633" lon="13.178675"><ele>312.0</ele><time>2026-04-26T14:16:42.506Z</time></trkpt><trkpt lat="43.2657133" lon="13.1788083"><ele>311.0</ele><time>2026-04-26T14:16:44.506Z</time></trkpt><trkpt lat="43.2657083" lon="13.1788967"><ele>310.0</ele><time>2026-04-26T14:16:45.507Z</time></trkpt><trkpt lat="43.2656733" lon="13.1790117"><ele>309.0</ele><time>2026-04-26T14:16:46.506Z</time></trkpt><trkpt lat="43.2656217" lon="13.1791567"><ele>308.0</ele><time>2026-04-26T14:16:47.507Z</time></trkpt><trkpt lat="43.2655683" lon="13.1793067"><ele>307.0</ele><time>2026-04-26T14:16:48.506Z</time></trkpt><trkpt lat="43.2655083" lon="13.1794467"><ele>307.0</ele><time>2026-04-26T14:16:49.506Z</time></trkpt><trkpt lat="43.26547" lon="13.1795683"><ele>307.0</ele><time>2026-04-26T14:16:50.506Z</time></trkpt><trkpt lat="43.2654633" lon="13.1797067"><ele>307.0</ele><time>2026-04-26T14:16:51.506Z</time></trkpt><trkpt lat="43.2654883" lon="13.1798533"><ele>307.0</ele><time>2026-04-26T14:16:52.506Z</time></trkpt><trkpt lat="43.2655433" lon="13.1800283"><ele>307.0</ele><time>2026-04-26T14:16:53.506Z</time></trkpt><trkpt lat="43.2656067" lon="13.1802183"><ele>302.25</ele><time>2026-04-26T14:16:54.507Z</time></trkpt><trkpt lat="43.2656717" lon="13.18043"><ele>297.5</ele><time>2026-04-26T14:16:55.506Z</time></trkpt><trkpt lat="43.265735" lon="13.1806133"><ele>292.75</ele><time>2026-04-26T14:16:56.506Z</time></trkpt><trkpt lat="43.2657883" lon="13.1807617"><ele>288.0</ele><time>2026-04-26T14:16:57.506Z</time></trkpt><trkpt lat="43.2658317" lon="13.1808817"><ele>288.0</ele><time>2026-04-26T14:16:58.506Z</time></trkpt><trkpt lat="43.265875" lon="13.180975"><ele>288.0</ele><time>2026-04-26T14:16:59.506Z</time></trkpt><trkpt lat="43.2659633" lon="13.181075"><ele>288.0</ele><time>2026-04-26T14:17:01.507Z</time></trkpt><trkpt lat="43.2661017" lon="13.1809783"><ele>288.0</ele><time>2026-04-26T14:17:03.505Z</time></trkpt><trkpt lat="43.2661917" lon="13.180855"><ele>288.0</ele><time>2026-04-26T14:17:04.505Z</time></trkpt><trkpt lat="43.2662767" lon="13.1807083"><ele>288.0</ele><time>2026-04-26T14:17:05.505Z</time></trkpt><trkpt lat="43.2663533" lon="13.1805567"><ele>288.0</ele><time>2026-04-26T14:17:06.505Z</time></trkpt><trkpt lat="43.266405" lon="13.1803817"><ele>288.0</ele><time>2026-04-26T14:17:07.505Z</time></trkpt><trkpt lat="43.2664333" lon="13.1801933"><ele>288.0</ele><time>2026-04-26T14:17:08.506Z</time></trkpt><trkpt lat="43.2664633" lon="13.1800233"><ele>288.0</ele><time>2026-04-26T14:17:09.505Z</time></trkpt><trkpt lat="43.266515" lon="13.17988"><ele>288.0</ele><time>2026-04-26T14:17:10.505Z</time></trkpt><trkpt lat="43.2665883" lon="13.1797783"><ele>288.0</ele><time>2026-04-26T14:17:11.505Z</time></trkpt><trkpt lat="43.2666733" lon="13.17971"><ele>288.0</ele><time>2026-04-26T14:17:12.505Z</time></trkpt><trkpt lat="43.2667583" lon="13.1796783"><ele>288.0</ele><time>2026-04-26T14:17:13.505Z</time></trkpt><trkpt lat="43.2668433" lon="13.1796783"><ele>288.0</ele><time>2026-04-26T14:17:14.506Z</time></trkpt><trkpt lat="43.266945" lon="13.1797067"><ele>288.0</ele><time>2026-04-26T14:17:15.505Z</time></trkpt><trkpt lat="43.2670567" lon="13.1797817"><ele>288.0</ele><time>2026-04-26T14:17:16.505Z</time></trkpt><trkpt lat="43.2671583" lon="13.1798883"><ele>288.0</ele><time>2026-04-26T14:17:17.505Z</time></trkpt><trkpt lat="43.2672383" lon="13.1799883"><ele>291.4</ele><time>2026-04-26T14:17:18.505Z</time></trkpt><trkpt lat="43.2673117" lon="13.1800867"><ele>294.8</ele><time>2026-04-26T14:17:19.505Z</time></trkpt><trkpt lat="43.2673767" lon="13.1801867"><ele>298.2</ele><time>2026-04-26T14:17:20.506Z</time></trkpt><trkpt lat="43.2674417" lon="13.1802933"><ele>301.6</ele><time>2026-04-26T14:17:21.505Z</time></trkpt><trkpt lat="43.2675083" lon="13.180435"><ele>305.0</ele><time>2026-04-26T14:17:22.505Z</time></trkpt><trkpt lat="43.2675483" lon="13.1806167"><ele>303.25</ele><time>2026-04-26T14:17:23.506Z</time></trkpt><trkpt lat="43.2675783" lon="13.1808017"><ele>301.5</ele><time>2026-04-26T14:17:24.505Z</time></trkpt><trkpt lat="43.2676083" lon="13.180955"><ele>299.75</ele><time>2026-04-26T14:17:25.505Z</time></trkpt><trkpt lat="43.2676633" lon="13.1810967"><ele>298.0</ele><time>2026-04-26T14:17:26.505Z</time></trkpt><trkpt lat="43.2677617" lon="13.1812283"><ele>298.0</ele><time>2026-04-26T14:17:27.505Z</time></trkpt><trkpt lat="43.26789" lon="13.1813733"><ele>298.0</ele><time>2026-04-26T14:17:28.505Z</time></trkpt><trkpt lat="43.2680433" lon="13.1815233"><ele>298.0</ele><time>2026-04-26T14:17:29.505Z</time></trkpt><trkpt lat="43.268215" lon="13.181685"><ele>303.3333333333333</ele><time>2026-04-26T14:17:30.505Z</time></trkpt><trkpt lat="43.268385" lon="13.1818317"><ele>308.6666666666667</ele><time>2026-04-26T14:17:31.505Z</time></trkpt><trkpt lat="43.2685633" lon="13.1819633"><ele>314.0</ele><time>2026-04-26T14:17:32.505Z</time></trkpt><trkpt lat="43.268725" lon="13.182095"><ele>314.0</ele><time>2026-04-26T14:17:33.505Z</time></trkpt><trkpt lat="43.2688667" lon="13.1822083"><ele>314.0</ele><time>2026-04-26T14:17:34.505Z</time></trkpt><trkpt lat="43.269" lon="13.1823267"><ele>314.0</ele><time>2026-04-26T14:17:35.505Z</time></trkpt><trkpt lat="43.269125" lon="13.182435"><ele>315.0</ele><time>2026-04-26T14:17:36.505Z</time></trkpt><trkpt lat="43.2692483" lon="13.18256"><ele>316.0</ele><time>2026-04-26T14:17:37.505Z</time></trkpt><trkpt lat="43.269355" lon="13.182675"><ele>317.0</ele><time>2026-04-26T14:17:38.505Z</time></trkpt><trkpt lat="43.2694317" lon="13.1828017"><ele>318.0</ele><time>2026-04-26T14:17:39.505Z</time></trkpt><trkpt lat="43.2695183" lon="13.1828983"><ele>318.0</ele><time>2026-04-26T14:17:40.505Z</time></trkpt><trkpt lat="43.2695883" lon="13.1829783"><ele>318.0</ele><time>2026-04-26T14:17:41.505Z</time></trkpt><trkpt lat="43.2696383" lon="13.1830433"><ele>318.0</ele><time>2026-04-26T14:17:42.505Z</time></trkpt><trkpt lat="43.2697067" lon="13.1831467"><ele>318.0</ele><time>2026-04-26T14:17:44.506Z</time></trkpt><trkpt lat="43.2696917" lon="13.1832383"><ele>318.0</ele><time>2026-04-26T14:17:46.506Z</time></trkpt><trkpt lat="43.2696383" lon="13.1832967"><ele>318.0</ele><time>2026-04-26T14:17:47.505Z</time></trkpt><trkpt lat="43.2695683" lon="13.1833783"><ele>318.25</ele><time>2026-04-26T14:17:48.505Z</time></trkpt><trkpt lat="43.2694733" lon="13.1834833"><ele>318.5</ele><time>2026-04-26T14:17:49.506Z</time></trkpt><trkpt lat="43.26937" lon="13.1836067"><ele>318.75</ele><time>2026-04-26T14:17:50.505Z</time></trkpt><trkpt lat="43.2692783" lon="13.18373"><ele>319.0</ele><time>2026-04-26T14:17:51.505Z</time></trkpt><trkpt lat="43.2692" lon="13.1838517"><ele>319.0</ele><time>2026-04-26T14:17:52.506Z</time></trkpt><trkpt lat="43.2691483" lon="13.18397"><ele>319.0</ele><time>2026-04-26T14:17:53.505Z</time></trkpt><trkpt lat="43.269125" lon="13.184065"><ele>319.0</ele><time>2026-04-26T14:17:54.506Z</time></trkpt><trkpt lat="43.2691533" lon="13.1841917"><ele>319.0</ele><time>2026-04-26T14:17:56.505Z</time></trkpt><trkpt lat="43.2692117" lon="13.1842367"><ele>319.0</ele><time>2026-04-26T14:17:57.506Z</time></trkpt><trkpt lat="43.2692867" lon="13.1842533"><ele>319.0</ele><time>2026-04-26T14:17:58.506Z</time></trkpt><trkpt lat="43.269395" lon="13.1842517"><ele>318.66666666666663</ele><time>2026-04-26T14:17:59.505Z</time></trkpt><trkpt lat="43.2695383" lon="13.18422"><ele>318.3333333333333</ele><time>2026-04-26T14:18:00.505Z</time></trkpt><trkpt lat="43.2697017" lon="13.184155"><ele>318.0</ele><time>2026-04-26T14:18:01.505Z</time></trkpt><trkpt lat="43.2698767" lon="13.1840783"><ele>318.3333333333333</ele><time>2026-04-26T14:18:02.505Z</time></trkpt><trkpt lat="43.27005" lon="13.1840033"><ele>318.66666666666663</ele><time>2026-04-26T14:18:03.505Z</time></trkpt><trkpt lat="43.2702083" lon="13.1839467"><ele>319.0</ele><time>2026-04-26T14:18:04.506Z</time></trkpt><trkpt lat="43.2703683" lon="13.1839133"><ele>319.0</ele><time>2026-04-26T14:18:05.505Z</time></trkpt><trkpt lat="43.2705367" lon="13.1839017"><ele>319.0</ele><time>2026-04-26T14:18:06.505Z</time></trkpt><trkpt lat="43.270705" lon="13.183895"><ele>319.0</ele><time>2026-04-26T14:18:07.505Z</time></trkpt><trkpt lat="43.27088" lon="13.1839"><ele>319.0</ele><time>2026-04-26T14:18:08.505Z</time></trkpt><trkpt lat="43.2710583" lon="13.1838967"><ele>319.0</ele><time>2026-04-26T14:18:09.505Z</time></trkpt><trkpt lat="43.271235" lon="13.1839"><ele>319.0</ele><time>2026-04-26T14:18:10.505Z</time></trkpt><trkpt lat="43.2714117" lon="13.1839117"><ele>319.0</ele><time>2026-04-26T14:18:11.505Z</time></trkpt><trkpt lat="43.271595" lon="13.18392"><ele>319.0</ele><time>2026-04-26T14:18:12.505Z</time></trkpt><trkpt lat="43.2717767" lon="13.183925"><ele>319.0</ele><time>2026-04-26T14:18:13.505Z</time></trkpt><trkpt lat="43.2719467" lon="13.1839383"><ele>319.0</ele><time>2026-04-26T14:18:14.505Z</time></trkpt><trkpt lat="43.2721" lon="13.1839567"><ele>319.0</ele><time>2026-04-26T14:18:15.506Z</time></trkpt><trkpt lat="43.2722433" lon="13.1839933"><ele>319.0</ele><time>2026-04-26T14:18:16.505Z</time></trkpt><trkpt lat="43.2723883" lon="13.1840433"><ele>319.0</ele><time>2026-04-26T14:18:17.505Z</time></trkpt><trkpt lat="43.2725517" lon="13.184085"><ele>318.66666666666663</ele><time>2026-04-26T14:18:18.505Z</time></trkpt><trkpt lat="43.2727167" lon="13.1841133"><ele>318.3333333333333</ele><time>2026-04-26T14:18:19.505Z</time></trkpt><trkpt lat="43.2728733" lon="13.1841217"><ele>318.0</ele><time>2026-04-26T14:18:20.505Z</time></trkpt><trkpt lat="43.27304" lon="13.1841167"><ele>317.0</ele><time>2026-04-26T14:18:21.505Z</time></trkpt><trkpt lat="43.2732067" lon="13.1840933"><ele>316.0</ele><time>2026-04-26T14:18:22.505Z</time></trkpt><trkpt lat="43.27338" lon="13.1840383"><ele>315.0</ele><time>2026-04-26T14:18:23.505Z</time></trkpt><trkpt lat="43.2735417" lon="13.1839717"><ele>313.5</ele><time>2026-04-26T14:18:24.506Z</time></trkpt><trkpt lat="43.2736933" lon="13.1839183"><ele>312.0</ele><time>2026-04-26T14:18:25.505Z</time></trkpt><trkpt lat="43.2738217" lon="13.1838883"><ele>310.5</ele><time>2026-04-26T14:18:26.505Z</time></trkpt><trkpt lat="43.2739533" lon="13.1838817"><ele>309.0</ele><time>2026-04-26T14:18:27.505Z</time></trkpt><trkpt lat="43.2740683" lon="13.1838967"><ele>308.59999999999997</ele><time>2026-04-26T14:18:28.506Z</time></trkpt><trkpt lat="43.2741617" lon="13.1839333"><ele>308.2</ele><time>2026-04-26T14:18:29.505Z</time></trkpt><trkpt lat="43.27424" lon="13.1839917"><ele>307.79999999999995</ele><time>2026-04-26T14:18:30.505Z</time></trkpt><trkpt lat="43.274295" lon="13.18408"><ele>307.4</ele><time>2026-04-26T14:18:31.505Z</time></trkpt><trkpt lat="43.2743517" lon="13.1841917"><ele>307.0</ele><time>2026-04-26T14:18:32.505Z</time></trkpt><trkpt lat="43.2744067" lon="13.1843117"><ele>307.0</ele><time>2026-04-26T14:18:33.505Z</time></trkpt><trkpt lat="43.27445" lon="13.184465"><ele>307.0</ele><time>2026-04-26T14:18:34.505Z</time></trkpt><trkpt lat="43.2744983" lon="13.1846233"><ele>307.0</ele><time>2026-04-26T14:18:35.505Z</time></trkpt><trkpt lat="43.2745583" lon="13.1847817"><ele>307.0</ele><time>2026-04-26T14:18:36.505Z</time></trkpt><trkpt lat="43.274625" lon="13.1849233"><ele>306.5</ele><time>2026-04-26T14:18:37.505Z</time></trkpt><trkpt lat="43.2746867" lon="13.1850467"><ele>306.0</ele><time>2026-04-26T14:18:38.505Z</time></trkpt><trkpt lat="43.274745" lon="13.1851367"><ele>305.5</ele><time>2026-04-26T14:18:39.506Z</time></trkpt><trkpt lat="43.274785" lon="13.18521"><ele>305.0</ele><time>2026-04-26T14:18:40.505Z</time></trkpt><trkpt lat="43.2748317" lon="13.1853017"><ele>304.5</ele><time>2026-04-26T14:18:42.505Z</time></trkpt><trkpt lat="43.2749083" lon="13.18528"><ele>304.0</ele><time>2026-04-26T14:18:47.505Z</time></trkpt><trkpt lat="43.2749867" lon="13.1852167"><ele>304.0</ele><time>2026-04-26T14:18:48.505Z</time></trkpt><trkpt lat="43.2750967" lon="13.1851233"><ele>304.0</ele><time>2026-04-26T14:18:49.505Z</time></trkpt><trkpt lat="43.2752183" lon="13.1850117"><ele>304.0</ele><time>2026-04-26T14:18:50.505Z</time></trkpt><trkpt lat="43.2753517" lon="13.1849033"><ele>304.0</ele><time>2026-04-26T14:18:51.506Z</time></trkpt><trkpt lat="43.2754883" lon="13.1847833"><ele>304.5</ele><time>2026-04-26T14:18:52.505Z</time></trkpt><trkpt lat="43.2756283" lon="13.18466"><ele>305.0</ele><time>2026-04-26T14:18:53.506Z</time></trkpt><trkpt lat="43.2757583" lon="13.18457"><ele>305.5</ele><time>2026-04-26T14:18:54.505Z</time></trkpt><trkpt lat="43.275875" lon="13.1845133"><ele>306.0</ele><time>2026-04-26T14:18:55.505Z</time></trkpt><trkpt lat="43.27599" lon="13.18451"><ele>306.0</ele><time>2026-04-26T14:18:56.506Z</time></trkpt><trkpt lat="43.2761217" lon="13.1845433"><ele>306.0</ele><time>2026-04-26T14:18:57.505Z</time></trkpt><trkpt lat="43.27626" lon="13.1846167"><ele>306.0</ele><time>2026-04-26T14:18:58.505Z</time></trkpt><trkpt lat="43.2764167" lon="13.1846883"><ele>306.0</ele><time>2026-04-26T14:18:59.505Z</time></trkpt><trkpt lat="43.2765833" lon="13.18477"><ele>306.6666666666667</ele><time>2026-04-26T14:19:00.505Z</time></trkpt><trkpt lat="43.2767633" lon="13.184845"><ele>307.33333333333337</ele><time>2026-04-26T14:19:01.505Z</time></trkpt><trkpt lat="43.2769533" lon="13.18491"><ele>308.0</ele><time>2026-04-26T14:19:02.505Z</time></trkpt><trkpt lat="43.2771417" lon="13.184965"><ele>306.0</ele><time>2026-04-26T14:19:03.505Z</time></trkpt><trkpt lat="43.2773367" lon="13.1850083"><ele>304.0</ele><time>2026-04-26T14:19:04.505Z</time></trkpt><trkpt lat="43.2775183" lon="13.18503"><ele>302.0</ele><time>2026-04-26T14:19:05.505Z</time></trkpt><trkpt lat="43.277695" lon="13.18503"><ele>302.0</ele><time>2026-04-26T14:19:06.505Z</time></trkpt><trkpt lat="43.27787" lon="13.1850283"><ele>302.0</ele><time>2026-04-26T14:19:07.506Z</time></trkpt><trkpt lat="43.2780517" lon="13.1850217"><ele>302.0</ele><time>2026-04-26T14:19:08.505Z</time></trkpt><trkpt lat="43.2782233" lon="13.1849967"><ele>300.0</ele><time>2026-04-26T14:19:09.505Z</time></trkpt><trkpt lat="43.278395" lon="13.1849483"><ele>298.0</ele><time>2026-04-26T14:19:10.506Z</time></trkpt><trkpt lat="43.2785533" lon="13.184875"><ele>296.0</ele><time>2026-04-26T14:19:11.505Z</time></trkpt><trkpt lat="43.2787133" lon="13.184805"><ele>298.0</ele><time>2026-04-26T14:19:12.505Z</time></trkpt><trkpt lat="43.278865" lon="13.1847267"><ele>300.0</ele><time>2026-04-26T14:19:13.505Z</time></trkpt><trkpt lat="43.2790167" lon="13.1846583"><ele>302.0</ele><time>2026-04-26T14:19:14.505Z</time></trkpt><trkpt lat="43.2791433" lon="13.1845883"><ele>302.0</ele><time>2026-04-26T14:19:15.505Z</time></trkpt><trkpt lat="43.2792567" lon="13.1845517"><ele>302.0</ele><time>2026-04-26T14:19:16.505Z</time></trkpt><trkpt lat="43.2793667" lon="13.1845633"><ele>302.0</ele><time>2026-04-26T14:19:17.505Z</time></trkpt><trkpt lat="43.2794833" lon="13.1846133"><ele>302.0</ele><time>2026-04-26T14:19:18.505Z</time></trkpt><trkpt lat="43.27959" lon="13.184685"><ele>302.0</ele><time>2026-04-26T14:19:19.506Z</time></trkpt><trkpt lat="43.2796833" lon="13.1847433"><ele>302.0</ele><time>2026-04-26T14:19:20.506Z</time></trkpt><trkpt lat="43.27975" lon="13.1848033"><ele>302.0</ele><time>2026-04-26T14:19:21.505Z</time></trkpt><trkpt lat="43.2797833" lon="13.18488"><ele>302.0</ele><time>2026-04-26T14:19:22.506Z</time></trkpt><trkpt lat="43.279795" lon="13.1849683"><ele>302.0</ele><time>2026-04-26T14:19:23.505Z</time></trkpt><trkpt lat="43.27979" lon="13.1850767"><ele>302.0</ele><time>2026-04-26T14:19:24.505Z</time></trkpt><trkpt lat="43.2797767" lon="13.1852"><ele>299.4</ele><time>2026-04-26T14:19:25.505Z</time></trkpt><trkpt lat="43.2797683" lon="13.18532"><ele>296.79999999999995</ele><time>2026-04-26T14:19:26.505Z</time></trkpt><trkpt lat="43.279765" lon="13.18543"><ele>294.2</ele><time>2026-04-26T14:19:27.505Z</time></trkpt><trkpt lat="43.2798083" lon="13.18553"><ele>291.59999999999997</ele><time>2026-04-26T14:19:28.505Z</time></trkpt><trkpt lat="43.2798917" lon="13.1856133"><ele>289.0</ele><time>2026-04-26T14:19:29.505Z</time></trkpt><trkpt lat="43.2799883" lon="13.1856717"><ele>287.75</ele><time>2026-04-26T14:19:30.506Z</time></trkpt><trkpt lat="43.2800833" lon="13.185745"><ele>286.5</ele><time>2026-04-26T14:19:31.505Z</time></trkpt><trkpt lat="43.2801617" lon="13.185845"><ele>285.25</ele><time>2026-04-26T14:19:32.505Z</time></trkpt><trkpt lat="43.2802367" lon="13.185985"><ele>284.0</ele><time>2026-04-26T14:19:33.505Z</time></trkpt><trkpt lat="43.28031" lon="13.186135"><ele>284.0</ele><time>2026-04-26T14:19:34.505Z</time></trkpt><trkpt lat="43.2804067" lon="13.1862833"><ele>284.0</ele><time>2026-04-26T14:19:35.505Z</time></trkpt><trkpt lat="43.2805167" lon="13.186415"><ele>284.0</ele><time>2026-04-26T14:19:36.505Z</time></trkpt><trkpt lat="43.2806483" lon="13.1865117"><ele>284.0</ele><time>2026-04-26T14:19:37.505Z</time></trkpt><trkpt lat="43.2807833" lon="13.1865783"><ele>285.75</ele><time>2026-04-26T14:19:38.505Z</time></trkpt><trkpt lat="43.2809133" lon="13.186625"><ele>287.5</ele><time>2026-04-26T14:19:39.505Z</time></trkpt><trkpt lat="43.2810383" lon="13.18667"><ele>289.25</ele><time>2026-04-26T14:19:40.505Z</time></trkpt><trkpt lat="43.2811567" lon="13.1867317"><ele>291.0</ele><time>2026-04-26T14:19:41.505Z</time></trkpt><trkpt lat="43.2812683" lon="13.1868017"><ele>291.0</ele><time>2026-04-26T14:19:42.506Z</time></trkpt><trkpt lat="43.2813917" lon="13.1868933"><ele>291.0</ele><time>2026-04-26T14:19:43.505Z</time></trkpt><trkpt lat="43.2815117" lon="13.186995"><ele>291.0</ele><time>2026-04-26T14:19:44.505Z</time></trkpt><trkpt lat="43.2816467" lon="13.1871033"><ele>291.0</ele><time>2026-04-26T14:19:45.505Z</time></trkpt><trkpt lat="43.28177" lon="13.1872217"><ele>291.0</ele><time>2026-04-26T14:19:46.505Z</time></trkpt><trkpt lat="43.2818817" lon="13.1873167"><ele>291.0</ele><time>2026-04-26T14:19:47.505Z</time></trkpt><trkpt lat="43.28198" lon="13.1874"><ele>291.0</ele><time>2026-04-26T14:19:48.506Z</time></trkpt><trkpt lat="43.28208" lon="13.187475"><ele>291.0</ele><time>2026-04-26T14:19:49.505Z</time></trkpt><trkpt lat="43.28218" lon="13.1875383"><ele>295.8</ele><time>2026-04-26T14:19:50.505Z</time></trkpt><trkpt lat="43.2822833" lon="13.1875717"><ele>300.6</ele><time>2026-04-26T14:19:51.506Z</time></trkpt><trkpt lat="43.2823817" lon="13.187585"><ele>305.4</ele><time>2026-04-26T14:19:52.506Z</time></trkpt><trkpt lat="43.2824817" lon="13.1875583"><ele>310.2</ele><time>2026-04-26T14:19:53.505Z</time></trkpt><trkpt lat="43.282595" lon="13.1875033"><ele>315.0</ele><time>2026-04-26T14:19:54.505Z</time></trkpt><trkpt lat="43.2826917" lon="13.187435"><ele>315.0</ele><time>2026-04-26T14:19:55.505Z</time></trkpt><trkpt lat="43.2827833" lon="13.1874067"><ele>315.0</ele><time>2026-04-26T14:19:56.505Z</time></trkpt><trkpt lat="43.28289" lon="13.187415"><ele>315.0</ele><time>2026-04-26T14:19:57.506Z</time></trkpt><trkpt lat="43.283005" lon="13.187435"><ele>315.0</ele><time>2026-04-26T14:19:58.505Z</time></trkpt><trkpt lat="43.2831133" lon="13.1874767"><ele>315.0</ele><time>2026-04-26T14:19:59.505Z</time></trkpt><trkpt lat="43.283225" lon="13.187535"><ele>318.25</ele><time>2026-04-26T14:20:00.506Z</time></trkpt><trkpt lat="43.2833333" lon="13.1876167"><ele>321.5</ele><time>2026-04-26T14:20:01.505Z</time></trkpt><trkpt lat="43.2834383" lon="13.1877033"><ele>324.75</ele><time>2026-04-26T14:20:02.506Z</time></trkpt><trkpt lat="43.28354" lon="13.187755"><ele>328.0</ele><time>2026-04-26T14:20:03.505Z</time></trkpt><trkpt lat="43.28364" lon="13.1877883"><ele>328.0</ele><time>2026-04-26T14:20:04.505Z</time></trkpt><trkpt lat="43.2837467" lon="13.18777"><ele>328.0</ele><time>2026-04-26T14:20:05.505Z</time></trkpt><trkpt lat="43.2838733" lon="13.1877167"><ele>328.0</ele><time>2026-04-26T14:20:06.505Z</time></trkpt><trkpt lat="43.284015" lon="13.1876433"><ele>328.0</ele><time>2026-04-26T14:20:07.506Z</time></trkpt><trkpt lat="43.2841517" lon="13.1875667"><ele>328.2</ele><time>2026-04-26T14:20:08.505Z</time></trkpt><trkpt lat="43.284255" lon="13.1875067"><ele>328.4</ele><time>2026-04-26T14:20:09.505Z</time></trkpt><trkpt lat="43.2843383" lon="13.1874417"><ele>328.59999999999997</ele><time>2026-04-26T14:20:10.505Z</time></trkpt><trkpt lat="43.2843933" lon="13.1873767"><ele>328.79999999999995</ele><time>2026-04-26T14:20:11.506Z</time></trkpt><trkpt lat="43.28444" lon="13.187275"><ele>329.0</ele><time>2026-04-26T14:20:12.505Z</time></trkpt><trkpt lat="43.2844783" lon="13.1871433"><ele>329.0</ele><time>2026-04-26T14:20:13.505Z</time></trkpt><trkpt lat="43.2845317" lon="13.1870233"><ele>329.0</ele><time>2026-04-26T14:20:14.506Z</time></trkpt><trkpt lat="43.28461" lon="13.1869517"><ele>329.0</ele><time>2026-04-26T14:20:15.505Z</time></trkpt><trkpt lat="43.284695" lon="13.1869217"><ele>329.0</ele><time>2026-04-26T14:20:16.505Z</time></trkpt><trkpt lat="43.2847983" lon="13.1869217"><ele>329.0</ele><time>2026-04-26T14:20:17.505Z</time></trkpt><trkpt lat="43.2849083" lon="13.1869583"><ele>333.25</ele><time>2026-04-26T14:20:18.505Z</time></trkpt><trkpt lat="43.28502" lon="13.1870417"><ele>337.5</ele><time>2026-04-26T14:20:19.506Z</time></trkpt><trkpt lat="43.2851317" lon="13.1871333"><ele>341.75</ele><time>2026-04-26T14:20:20.505Z</time></trkpt><trkpt lat="43.2852283" lon="13.1872533"><ele>346.0</ele><time>2026-04-26T14:20:21.505Z</time></trkpt><trkpt lat="43.2853233" lon="13.1874067"><ele>349.0</ele><time>2026-04-26T14:20:22.505Z</time></trkpt><trkpt lat="43.2854" lon="13.187605"><ele>352.0</ele><time>2026-04-26T14:20:23.506Z</time></trkpt><trkpt lat="43.2854583" lon="13.1878083"><ele>355.0</ele><time>2026-04-26T14:20:24.506Z</time></trkpt><trkpt lat="43.2855117" lon="13.1880317"><ele>356.0</ele><time>2026-04-26T14:20:25.506Z</time></trkpt><trkpt lat="43.2855633" lon="13.1882317"><ele>357.0</ele><time>2026-04-26T14:20:26.505Z</time></trkpt><trkpt lat="43.2856217" lon="13.1884133"><ele>358.0</ele><time>2026-04-26T14:20:27.505Z</time></trkpt><trkpt lat="43.28569" lon="13.1885833"><ele>359.0</ele><time>2026-04-26T14:20:28.505Z</time></trkpt><trkpt lat="43.2857517" lon="13.1887483"><ele>363.0</ele><time>2026-04-26T14:20:29.506Z</time></trkpt><trkpt lat="43.2858233" lon="13.1888917"><ele>367.0</ele><time>2026-04-26T14:20:30.505Z</time></trkpt><trkpt lat="43.2859033" lon="13.18903"><ele>371.0</ele><time>2026-04-26T14:20:31.505Z</time></trkpt><trkpt lat="43.2860067" lon="13.1891617"><ele>375.0</ele><time>2026-04-26T14:20:32.505Z</time></trkpt><trkpt lat="43.28612" lon="13.18929"><ele>377.5</ele><time>2026-04-26T14:20:33.505Z</time></trkpt><trkpt lat="43.2862183" lon="13.189415"><ele>380.0</ele><time>2026-04-26T14:20:34.505Z</time></trkpt><trkpt lat="43.2863133" lon="13.1895317"><ele>382.5</ele><time>2026-04-26T14:20:35.505Z</time></trkpt><trkpt lat="43.2863983" lon="13.1896967"><ele>385.0</ele><time>2026-04-26T14:20:36.505Z</time></trkpt><trkpt lat="43.286485" lon="13.189875"><ele>390.0</ele><time>2026-04-26T14:20:37.505Z</time></trkpt><trkpt lat="43.2865667" lon="13.190055"><ele>395.0</ele><time>2026-04-26T14:20:38.505Z</time></trkpt><trkpt lat="43.286645" lon="13.1902433"><ele>400.0</ele><time>2026-04-26T14:20:39.505Z</time></trkpt><trkpt lat="43.2867267" lon="13.1904267"><ele>400.0</ele><time>2026-04-26T14:20:40.506Z</time></trkpt><trkpt lat="43.2868" lon="13.1906017"><ele>400.0</ele><time>2026-04-26T14:20:41.505Z</time></trkpt><trkpt lat="43.2868783" lon="13.1907783"><ele>400.0</ele><time>2026-04-26T14:20:42.505Z</time></trkpt><trkpt lat="43.2869683" lon="13.1909383"><ele>400.0</ele><time>2026-04-26T14:20:43.505Z</time></trkpt><trkpt lat="43.2870733" lon="13.1910767"><ele>400.25</ele><time>2026-04-26T14:20:44.505Z</time></trkpt><trkpt lat="43.2871933" lon="13.1912083"><ele>400.5</ele><time>2026-04-26T14:20:45.505Z</time></trkpt><trkpt lat="43.2873" lon="13.191325"><ele>400.75</ele><time>2026-04-26T14:20:46.505Z</time></trkpt><trkpt lat="43.2873833" lon="13.1914267"><ele>401.0</ele><time>2026-04-26T14:20:47.505Z</time></trkpt><trkpt lat="43.2874533" lon="13.19151"><ele>403.20000000000005</ele><time>2026-04-26T14:20:48.505Z</time></trkpt><trkpt lat="43.2874983" lon="13.19159"><ele>405.40000000000003</ele><time>2026-04-26T14:20:49.506Z</time></trkpt><trkpt lat="43.2875292" lon="13.1917714"><ele>407.6</ele><time>2026-04-26T14:20:51.506Z</time></trkpt><trkpt lat="43.2875208" lon="13.1918799"><ele>409.8</ele><time>2026-04-26T14:20:52.506Z</time></trkpt><trkpt lat="43.2874876" lon="13.1920086"><ele>412.0</ele><time>2026-04-26T14:20:53.505Z</time></trkpt><trkpt lat="43.2874094" lon="13.1921497"><ele>412.0</ele><time>2026-04-26T14:20:54.505Z</time></trkpt><trkpt lat="43.2873022" lon="13.1922813"><ele>412.0</ele><time>2026-04-26T14:20:55.505Z</time></trkpt><trkpt lat="43.2871969" lon="13.1924159"><ele>412.0</ele><time>2026-04-26T14:20:56.505Z</time></trkpt><trkpt lat="43.2870999" lon="13.1925621"><ele>412.0</ele><time>2026-04-26T14:20:57.506Z</time></trkpt><trkpt lat="43.2870148" lon="13.1927094"><ele>412.25</ele><time>2026-04-26T14:20:58.505Z</time></trkpt><trkpt lat="43.2869399" lon="13.1928469"><ele>412.5</ele><time>2026-04-26T14:20:59.505Z</time></trkpt><trkpt lat="43.286881" lon="13.1929799"><ele>412.75</ele><time>2026-04-26T14:21:00.506Z</time></trkpt><trkpt lat="43.2868313" lon="13.1931211"><ele>413.0</ele><time>2026-04-26T14:21:01.505Z</time></trkpt><trkpt lat="43.2867885" lon="13.193271"><ele>413.4</ele><time>2026-04-26T14:21:02.505Z</time></trkpt><trkpt lat="43.286756" lon="13.1934371"><ele>413.79999999999995</ele><time>2026-04-26T14:21:03.506Z</time></trkpt><trkpt lat="43.2867326" lon="13.1936073"><ele>414.2</ele><time>2026-04-26T14:21:04.506Z</time></trkpt><trkpt lat="43.2867224" lon="13.1937549"><ele>414.6</ele><time>2026-04-26T14:21:05.505Z</time></trkpt><trkpt lat="43.2867168" lon="13.1938785"><ele>415.0</ele><time>2026-04-26T14:21:06.505Z</time></trkpt><trkpt lat="43.2867223" lon="13.1939878"><ele>415.0</ele><time>2026-04-26T14:21:07.505Z</time></trkpt><trkpt lat="43.2867481" lon="13.194087"><ele>415.0</ele><time>2026-04-26T14:21:08.505Z</time></trkpt><trkpt lat="43.2867956" lon="13.1941826"><ele>415.0</ele><time>2026-04-26T14:21:09.505Z</time></trkpt><trkpt lat="43.2868543" lon="13.1942824"><ele>415.0</ele><time>2026-04-26T14:21:10.505Z</time></trkpt><trkpt lat="43.2869086" lon="13.1943921"><ele>415.0</ele><time>2026-04-26T14:21:11.505Z</time></trkpt><trkpt lat="43.2869578" lon="13.1945149"><ele>415.0</ele><time>2026-04-26T14:21:12.505Z</time></trkpt><trkpt lat="43.2869939" lon="13.1946499"><ele>415.0</ele><time>2026-04-26T14:21:13.506Z</time></trkpt><trkpt lat="43.2870177" lon="13.1947949"><ele>415.0</ele><time>2026-04-26T14:21:14.505Z</time></trkpt><trkpt lat="43.2870347" lon="13.1949406"><ele>415.0</ele><time>2026-04-26T14:21:15.505Z</time></trkpt><trkpt lat="43.2870513" lon="13.1950811"><ele>415.0</ele><time>2026-04-26T14:21:16.505Z</time></trkpt><trkpt lat="43.2870647" lon="13.1952036"><ele>415.00000000000006</ele><time>2026-04-26T14:21:17.506Z</time></trkpt><trkpt lat="43.2870859" lon="13.1952995"><ele>415.0</ele><time>2026-04-26T14:21:18.505Z</time></trkpt><trkpt lat="43.28712" lon="13.1953867"><ele>415.0</ele><time>2026-04-26T14:21:19.505Z</time></trkpt><trkpt lat="43.2871833" lon="13.19549"><ele>415.0</ele><time>2026-04-26T14:21:20.505Z</time></trkpt><trkpt lat="43.287255" lon="13.19559"><ele>415.00000000000006</ele><time>2026-04-26T14:21:21.505Z</time></trkpt><trkpt lat="43.2873267" lon="13.1956833"><ele>415.0</ele><time>2026-04-26T14:21:22.505Z</time></trkpt><trkpt lat="43.2873933" lon="13.19578"><ele>415.0</ele><time>2026-04-26T14:21:23.505Z</time></trkpt><trkpt lat="43.2874433" lon="13.19587"><ele>415.0</ele><time>2026-04-26T14:21:24.505Z</time></trkpt><trkpt lat="43.2874767" lon="13.1959533"><ele>415.0</ele><time>2026-04-26T14:21:25.505Z</time></trkpt><trkpt lat="43.287545" lon="13.1960783"><ele>415.0</ele><time>2026-04-26T14:21:27.506Z</time></trkpt><trkpt lat="43.2876067" lon="13.1961567"><ele>415.0</ele><time>2026-04-26T14:21:28.505Z</time></trkpt><trkpt lat="43.2876833" lon="13.1962617"><ele>415.0</ele><time>2026-04-26T14:21:29.505Z</time></trkpt><trkpt lat="43.287785" lon="13.1963833"><ele>415.0</ele><time>2026-04-26T14:21:30.505Z</time></trkpt><trkpt lat="43.2878867" lon="13.1965367"><ele>415.0</ele><time>2026-04-26T14:21:31.505Z</time></trkpt><trkpt lat="43.2880017" lon="13.19669"><ele>415.0</ele><time>2026-04-26T14:21:32.505Z</time></trkpt><trkpt lat="43.288105" lon="13.19682"><ele>415.25</ele><time>2026-04-26T14:21:33.505Z</time></trkpt><trkpt lat="43.28821" lon="13.1969267"><ele>415.5</ele><time>2026-04-26T14:21:34.505Z</time></trkpt><trkpt lat="43.2883067" lon="13.1970383"><ele>415.75</ele><time>2026-04-26T14:21:35.506Z</time></trkpt><trkpt lat="43.2884117" lon="13.1971533"><ele>416.0</ele><time>2026-04-26T14:21:36.505Z</time></trkpt><trkpt lat="43.2885133" lon="13.1973033"><ele>413.75</ele><time>2026-04-26T14:21:37.505Z</time></trkpt><trkpt lat="43.2886183" lon="13.1974467"><ele>411.5</ele><time>2026-04-26T14:21:38.505Z</time></trkpt><trkpt lat="43.2887117" lon="13.1975767"><ele>409.25</ele><time>2026-04-26T14:21:39.505Z</time></trkpt><trkpt lat="43.2887817" lon="13.1977183"><ele>407.0</ele><time>2026-04-26T14:21:40.505Z</time></trkpt><trkpt lat="43.288845" lon="13.1978783"><ele>407.0</ele><time>2026-04-26T14:21:41.505Z</time></trkpt><trkpt lat="43.288885" lon="13.1980433"><ele>407.0</ele><time>2026-04-26T14:21:42.505Z</time></trkpt><trkpt lat="43.2889167" lon="13.1982183"><ele>407.0</ele><time>2026-04-26T14:21:43.505Z</time></trkpt><trkpt lat="43.2889383" lon="13.198375"><ele>407.0</ele><time>2026-04-26T14:21:44.505Z</time></trkpt><trkpt lat="43.2889633" lon="13.1984983"><ele>409.8</ele><time>2026-04-26T14:21:45.506Z</time></trkpt><trkpt lat="43.2889867" lon="13.1986017"><ele>412.6</ele><time>2026-04-26T14:21:46.506Z</time></trkpt><trkpt lat="43.28909" lon="13.1986883"><ele>415.40000000000003</ele><time>2026-04-26T14:21:48.505Z</time></trkpt><trkpt lat="43.28917" lon="13.1987"><ele>418.20000000000005</ele><time>2026-04-26T14:21:49.506Z</time></trkpt><trkpt lat="43.2892767" lon="13.1986883"><ele>421.0</ele><time>2026-04-26T14:21:50.505Z</time></trkpt><trkpt lat="43.289395" lon="13.1986683"><ele>421.0</ele><time>2026-04-26T14:21:51.505Z</time></trkpt><trkpt lat="43.2895083" lon="13.198645"><ele>421.0</ele><time>2026-04-26T14:21:52.505Z</time></trkpt><trkpt lat="43.2896267" lon="13.1986167"><ele>421.0</ele><time>2026-04-26T14:21:53.505Z</time></trkpt><trkpt lat="43.2897367" lon="13.198575"><ele>421.0</ele><time>2026-04-26T14:21:54.505Z</time></trkpt><trkpt lat="43.2898283" lon="13.198525"><ele>421.0</ele><time>2026-04-26T14:21:55.505Z</time></trkpt><trkpt lat="43.289925" lon="13.198455"><ele>423.5</ele><time>2026-04-26T14:21:56.505Z</time></trkpt><trkpt lat="43.2900183" lon="13.1983933"><ele>426.0</ele><time>2026-04-26T14:21:57.505Z</time></trkpt><trkpt lat="43.29012" lon="13.198345"><ele>428.5</ele><time>2026-04-26T14:21:58.505Z</time></trkpt><trkpt lat="43.2902467" lon="13.1983267"><ele>431.0</ele><time>2026-04-26T14:21:59.506Z</time></trkpt><trkpt lat="43.2903783" lon="13.198345"><ele>431.0</ele><time>2026-04-26T14:22:00.505Z</time></trkpt><trkpt lat="43.290505" lon="13.1983783"><ele>431.0</ele><time>2026-04-26T14:22:01.505Z</time></trkpt><trkpt lat="43.2906167" lon="13.1984283"><ele>431.0</ele><time>2026-04-26T14:22:02.505Z</time></trkpt><trkpt lat="43.2907233" lon="13.1984933"><ele>431.0</ele><time>2026-04-26T14:22:03.505Z</time></trkpt><trkpt lat="43.2908283" lon="13.19854"><ele>431.25</ele><time>2026-04-26T14:22:04.505Z</time></trkpt><trkpt lat="43.2909417" lon="13.1985967"><ele>431.5</ele><time>2026-04-26T14:22:05.505Z</time></trkpt><trkpt lat="43.29106" lon="13.19864"><ele>431.75</ele><time>2026-04-26T14:22:06.505Z</time></trkpt><trkpt lat="43.29119" lon="13.1986717"><ele>432.0</ele><time>2026-04-26T14:22:07.506Z</time></trkpt><trkpt lat="43.2913317" lon="13.19869"><ele>431.5</ele><time>2026-04-26T14:22:08.505Z</time></trkpt><trkpt lat="43.2914717" lon="13.1987117"><ele>431.0</ele><time>2026-04-26T14:22:09.505Z</time></trkpt><trkpt lat="43.2915983" lon="13.1987333"><ele>430.5</ele><time>2026-04-26T14:22:10.505Z</time></trkpt><trkpt lat="43.2917217" lon="13.1987583"><ele>430.0</ele><time>2026-04-26T14:22:11.505Z</time></trkpt><trkpt lat="43.2918433" lon="13.1988033"><ele>430.0</ele><time>2026-04-26T14:22:12.505Z</time></trkpt><trkpt lat="43.2919467" lon="13.1988283"><ele>430.0</ele><time>2026-04-26T14:22:13.506Z</time></trkpt><trkpt lat="43.292055" lon="13.1988267"><ele>430.0</ele><time>2026-04-26T14:22:14.505Z</time></trkpt><trkpt lat="43.2921717" lon="13.198805"><ele>430.0</ele><time>2026-04-26T14:22:15.505Z</time></trkpt><trkpt lat="43.2923017" lon="13.1987767"><ele>427.75</ele><time>2026-04-26T14:22:16.505Z</time></trkpt><trkpt lat="43.292445" lon="13.198735"><ele>425.5</ele><time>2026-04-26T14:22:17.505Z</time></trkpt><trkpt lat="43.2925967" lon="13.1987117"><ele>423.25</ele><time>2026-04-26T14:22:18.505Z</time></trkpt><trkpt lat="43.2927467" lon="13.1986983"><ele>421.0</ele><time>2026-04-26T14:22:19.505Z</time></trkpt><trkpt lat="43.292895" lon="13.1986983"><ele>421.0</ele><time>2026-04-26T14:22:20.505Z</time></trkpt><trkpt lat="43.2930167" lon="13.1986983"><ele>421.0</ele><time>2026-04-26T14:22:21.505Z</time></trkpt><trkpt lat="43.2931383" lon="13.19871"><ele>421.0</ele><time>2026-04-26T14:22:22.505Z</time></trkpt><trkpt lat="43.2932583" lon="13.19873"><ele>421.0</ele><time>2026-04-26T14:22:23.505Z</time></trkpt><trkpt lat="43.2933783" lon="13.198805"><ele>422.25</ele><time>2026-04-26T14:22:24.506Z</time></trkpt><trkpt lat="43.293495" lon="13.1988967"><ele>423.5</ele><time>2026-04-26T14:22:25.505Z</time></trkpt><trkpt lat="43.2935983" lon="13.1990033"><ele>424.75</ele><time>2026-04-26T14:22:26.506Z</time></trkpt><trkpt lat="43.2936867" lon="13.1991133"><ele>426.0</ele><time>2026-04-26T14:22:27.505Z</time></trkpt><trkpt lat="43.2937883" lon="13.199195"><ele>425.25</ele><time>2026-04-26T14:22:28.505Z</time></trkpt><trkpt lat="43.2939017" lon="13.1992567"><ele>424.5</ele><time>2026-04-26T14:22:29.505Z</time></trkpt><trkpt lat="43.29401" lon="13.19932"><ele>423.75</ele><time>2026-04-26T14:22:30.505Z</time></trkpt><trkpt lat="43.2941" lon="13.1993933"><ele>423.0</ele><time>2026-04-26T14:22:31.506Z</time></trkpt><trkpt lat="43.29418" lon="13.199505"><ele>423.0</ele><time>2026-04-26T14:22:32.506Z</time></trkpt><trkpt lat="43.294255" lon="13.1996233"><ele>423.0</ele><time>2026-04-26T14:22:33.506Z</time></trkpt><trkpt lat="43.2943117" lon="13.19975"><ele>423.0</ele><time>2026-04-26T14:22:34.505Z</time></trkpt><trkpt lat="43.2943533" lon="13.1998817"><ele>423.0</ele><time>2026-04-26T14:22:35.505Z</time></trkpt><trkpt lat="43.2943717" lon="13.2000283"><ele>423.0</ele><time>2026-04-26T14:22:36.505Z</time></trkpt><trkpt lat="43.2943833" lon="13.2001483"><ele>423.2</ele><time>2026-04-26T14:22:37.506Z</time></trkpt><trkpt lat="43.2944533" lon="13.2002783"><ele>423.4</ele><time>2026-04-26T14:22:39.505Z</time></trkpt><trkpt lat="43.2945183" lon="13.20032"><ele>423.59999999999997</ele><time>2026-04-26T14:22:40.505Z</time></trkpt><trkpt lat="43.2946167" lon="13.2003567"><ele>423.79999999999995</ele><time>2026-04-26T14:22:41.506Z</time></trkpt><trkpt lat="43.294745" lon="13.2003683"><ele>424.0</ele><time>2026-04-26T14:22:42.505Z</time></trkpt><trkpt lat="43.2948983" lon="13.2003883"><ele>424.0</ele><time>2026-04-26T14:22:43.505Z</time></trkpt><trkpt lat="43.29504" lon="13.2004233"><ele>424.0</ele><time>2026-04-26T14:22:44.505Z</time></trkpt><trkpt lat="43.29517" lon="13.2004717"><ele>424.0</ele><time>2026-04-26T14:22:45.505Z</time></trkpt><trkpt lat="43.2952867" lon="13.2005417"><ele>424.0</ele><time>2026-04-26T14:22:46.505Z</time></trkpt><trkpt lat="43.2953833" lon="13.2005967"><ele>422.00000000000006</ele><time>2026-04-26T14:22:47.505Z</time></trkpt><trkpt lat="43.2954583" lon="13.20067"><ele>420.0</ele><time>2026-04-26T14:22:48.505Z</time></trkpt><trkpt lat="43.2955067" lon="13.200735"><ele>418.0</ele><time>2026-04-26T14:22:49.505Z</time></trkpt><trkpt lat="43.2955367" lon="13.2008267"><ele>416.0</ele><time>2026-04-26T14:22:50.506Z</time></trkpt><trkpt lat="43.2955433" lon="13.20092"><ele>414.00000000000006</ele><time>2026-04-26T14:22:51.505Z</time></trkpt><trkpt lat="43.2955183" lon="13.2010283"><ele>412.0</ele><time>2026-04-26T14:22:52.505Z</time></trkpt><trkpt lat="43.2954583" lon="13.2011433"><ele>412.0</ele><time>2026-04-26T14:22:53.505Z</time></trkpt><trkpt lat="43.2953717" lon="13.2012483"><ele>412.0</ele><time>2026-04-26T14:22:54.505Z</time></trkpt><trkpt lat="43.29528" lon="13.20133"><ele>412.0</ele><time>2026-04-26T14:22:55.505Z</time></trkpt><trkpt lat="43.2951933" lon="13.2013917"><ele>412.0</ele><time>2026-04-26T14:22:56.505Z</time></trkpt><trkpt lat="43.2950783" lon="13.2014433"><ele>412.0</ele><time>2026-04-26T14:22:57.506Z</time></trkpt><trkpt lat="43.2949567" lon="13.2014733"><ele>412.0</ele><time>2026-04-26T14:22:58.505Z</time></trkpt><trkpt lat="43.2948517" lon="13.2014967"><ele>412.0</ele><time>2026-04-26T14:22:59.505Z</time></trkpt><trkpt lat="43.294765" lon="13.2015317"><ele>412.0</ele><time>2026-04-26T14:23:00.505Z</time></trkpt><trkpt lat="43.2946867" lon="13.201575"><ele>412.0</ele><time>2026-04-26T14:23:01.505Z</time></trkpt><trkpt lat="43.29462" lon="13.2016517"><ele>412.0</ele><time>2026-04-26T14:23:02.505Z</time></trkpt><trkpt lat="43.294555" lon="13.2017683"><ele>409.0</ele><time>2026-04-26T14:23:03.505Z</time></trkpt><trkpt lat="43.29447" lon="13.201885"><ele>406.0</ele><time>2026-04-26T14:23:04.505Z</time></trkpt><trkpt lat="43.2943483" lon="13.202015"><ele>403.0</ele><time>2026-04-26T14:23:05.505Z</time></trkpt><trkpt lat="43.294215" lon="13.2021333"><ele>400.0</ele><time>2026-04-26T14:23:06.506Z</time></trkpt><trkpt lat="43.2940817" lon="13.2022417"><ele>402.33333333333337</ele><time>2026-04-26T14:23:07.506Z</time></trkpt><trkpt lat="43.2939567" lon="13.202365"><ele>404.66666666666663</ele><time>2026-04-26T14:23:08.505Z</time></trkpt><trkpt lat="43.2938183" lon="13.2024633"><ele>407.0</ele><time>2026-04-26T14:23:09.505Z</time></trkpt><trkpt lat="43.2936817" lon="13.2025483"><ele>407.0</ele><time>2026-04-26T14:23:10.505Z</time></trkpt><trkpt lat="43.293535" lon="13.2026217"><ele>407.0</ele><time>2026-04-26T14:23:11.505Z</time></trkpt><trkpt lat="43.2933867" lon="13.2026667"><ele>407.0</ele><time>2026-04-26T14:23:12.505Z</time></trkpt><trkpt lat="43.2932383" lon="13.2026867"><ele>407.0</ele><time>2026-04-26T14:23:13.506Z</time></trkpt><trkpt lat="43.2930967" lon="13.202685"><ele>407.0</ele><time>2026-04-26T14:23:14.505Z</time></trkpt><trkpt lat="43.2929683" lon="13.2026833"><ele>407.0</ele><time>2026-04-26T14:23:15.505Z</time></trkpt><trkpt lat="43.292845" lon="13.2027117"><ele>407.0</ele><time>2026-04-26T14:23:16.505Z</time></trkpt><trkpt lat="43.2927283" lon="13.20277"><ele>406.0</ele><time>2026-04-26T14:23:17.505Z</time></trkpt><trkpt lat="43.292615" lon="13.2028367"><ele>405.0</ele><time>2026-04-26T14:23:18.505Z</time></trkpt><trkpt lat="43.2925117" lon="13.20293"><ele>404.0</ele><time>2026-04-26T14:23:19.505Z</time></trkpt><trkpt lat="43.2924033" lon="13.2030433"><ele>403.0</ele><time>2026-04-26T14:23:20.505Z</time></trkpt><trkpt lat="43.2922983" lon="13.2031667"><ele>405.25</ele><time>2026-04-26T14:23:21.505Z</time></trkpt><trkpt lat="43.2921933" lon="13.2032967"><ele>407.5</ele><time>2026-04-26T14:23:22.506Z</time></trkpt><trkpt lat="43.292085" lon="13.2034283"><ele>409.75</ele><time>2026-04-26T14:23:23.506Z</time></trkpt><trkpt lat="43.2919783" lon="13.2035633"><ele>412.0</ele><time>2026-04-26T14:23:24.505Z</time></trkpt><trkpt lat="43.291885" lon="13.2037133"><ele>412.0</ele><time>2026-04-26T14:23:25.505Z</time></trkpt><trkpt lat="43.2917967" lon="13.2038733"><ele>412.0</ele><time>2026-04-26T14:23:26.505Z</time></trkpt><trkpt lat="43.29171" lon="13.2040483"><ele>412.0</ele><time>2026-04-26T14:23:27.505Z</time></trkpt><trkpt lat="43.2916233" lon="13.2042317"><ele>414.0</ele><time>2026-04-26T14:23:28.505Z</time></trkpt><trkpt lat="43.2915567" lon="13.204415"><ele>416.0</ele><time>2026-04-26T14:23:29.505Z</time></trkpt><trkpt lat="43.2914917" lon="13.20457"><ele>418.0</ele><time>2026-04-26T14:23:30.505Z</time></trkpt><trkpt lat="43.2914417" lon="13.2047117"><ele>420.0</ele><time>2026-04-26T14:23:31.505Z</time></trkpt><trkpt lat="43.2914117" lon="13.2048383"><ele>421.0</ele><time>2026-04-26T14:23:32.505Z</time></trkpt><trkpt lat="43.2913983" lon="13.2049867"><ele>422.0</ele><time>2026-04-26T14:23:33.505Z</time></trkpt><trkpt lat="43.2913867" lon="13.2051433"><ele>423.0</ele><time>2026-04-26T14:23:34.505Z</time></trkpt><trkpt lat="43.291355" lon="13.2052833"><ele>424.0</ele><time>2026-04-26T14:23:35.505Z</time></trkpt><trkpt lat="43.29131" lon="13.2053917"><ele>425.0</ele><time>2026-04-26T14:23:36.505Z</time></trkpt><trkpt lat="43.2912517" lon="13.2054683"><ele>424.99999999999994</ele><time>2026-04-26T14:23:37.505Z</time></trkpt><trkpt lat="43.29119" lon="13.20553"><ele>425.0</ele><time>2026-04-26T14:23:38.505Z</time></trkpt><trkpt lat="43.2911267" lon="13.2055667"><ele>425.0</ele><time>2026-04-26T14:23:39.505Z</time></trkpt><trkpt lat="43.291055" lon="13.205575"><ele>425.0</ele><time>2026-04-26T14:23:40.505Z</time></trkpt><trkpt lat="43.2909617" lon="13.2055483"><ele>424.99999999999994</ele><time>2026-04-26T14:23:41.506Z</time></trkpt><trkpt lat="43.2908633" lon="13.2055233"><ele>425.0</ele><time>2026-04-26T14:23:42.505Z</time></trkpt><trkpt lat="43.2907583" lon="13.20553"><ele>425.0</ele><time>2026-04-26T14:23:43.505Z</time></trkpt><trkpt lat="43.29063" lon="13.2055667"><ele>425.0</ele><time>2026-04-26T14:23:44.505Z</time></trkpt><trkpt lat="43.2905083" lon="13.2056183"><ele>425.0</ele><time>2026-04-26T14:23:45.505Z</time></trkpt><trkpt lat="43.2904" lon="13.2056467"><ele>425.0</ele><time>2026-04-26T14:23:46.506Z</time></trkpt><trkpt lat="43.2902983" lon="13.2056567"><ele>425.6</ele><time>2026-04-26T14:23:47.505Z</time></trkpt><trkpt lat="43.2901917" lon="13.2056517"><ele>426.2</ele><time>2026-04-26T14:23:48.506Z</time></trkpt><trkpt lat="43.2900883" lon="13.20564"><ele>426.79999999999995</ele><time>2026-04-26T14:23:49.505Z</time></trkpt><trkpt lat="43.289995" lon="13.2056117"><ele>427.4</ele><time>2026-04-26T14:23:50.505Z</time></trkpt><trkpt lat="43.2899133" lon="13.2055517"><ele>428.0</ele><time>2026-04-26T14:23:51.505Z</time></trkpt><trkpt lat="43.2898367" lon="13.2054783"><ele>428.0</ele><time>2026-04-26T14:23:52.505Z</time></trkpt><trkpt lat="43.2897717" lon="13.20539"><ele>427.99999999999994</ele><time>2026-04-26T14:23:53.506Z</time></trkpt><trkpt lat="43.2897233" lon="13.205315"><ele>427.99999999999994</ele><time>2026-04-26T14:23:54.505Z</time></trkpt><trkpt lat="43.289635" lon="13.2052033"><ele>428.0</ele><time>2026-04-26T14:23:56.505Z</time></trkpt><trkpt lat="43.2895767" lon="13.2051383"><ele>428.0</ele><time>2026-04-26T14:23:57.505Z</time></trkpt><trkpt lat="43.2895117" lon="13.2050517"><ele>429.5</ele><time>2026-04-26T14:23:58.505Z</time></trkpt><trkpt lat="43.28943" lon="13.2049383"><ele>431.0</ele><time>2026-04-26T14:23:59.505Z</time></trkpt><trkpt lat="43.2893483" lon="13.204815"><ele>432.5</ele><time>2026-04-26T14:24:00.505Z</time></trkpt><trkpt lat="43.2892867" lon="13.20468"><ele>434.0</ele><time>2026-04-26T14:24:01.505Z</time></trkpt><trkpt lat="43.2892367" lon="13.2045117"><ele>430.75</ele><time>2026-04-26T14:24:02.506Z</time></trkpt><trkpt lat="43.2891933" lon="13.2043333"><ele>427.5</ele><time>2026-04-26T14:24:03.505Z</time></trkpt><trkpt lat="43.28916" lon="13.20417"><ele>424.25</ele><time>2026-04-26T14:24:04.505Z</time></trkpt><trkpt lat="43.289125" lon="13.2040267"><ele>421.0</ele><time>2026-04-26T14:24:05.505Z</time></trkpt><trkpt lat="43.289085" lon="13.20391"><ele>418.83333333333337</ele><time>2026-04-26T14:24:06.505Z</time></trkpt><trkpt lat="43.289035" lon="13.2038"><ele>416.6666666666667</ele><time>2026-04-26T14:24:07.505Z</time></trkpt><trkpt lat="43.288985" lon="13.2037367"><ele>414.5</ele><time>2026-04-26T14:24:08.505Z</time></trkpt><trkpt lat="43.288925" lon="13.2037033"><ele>412.33333333333337</ele><time>2026-04-26T14:24:09.506Z</time></trkpt><trkpt lat="43.28885" lon="13.203715"><ele>410.1666666666667</ele><time>2026-04-26T14:24:10.505Z</time></trkpt><trkpt lat="43.2887417" lon="13.20377"><ele>408.0</ele><time>2026-04-26T14:24:11.506Z</time></trkpt><trkpt lat="43.288625" lon="13.20384"><ele>407.4</ele><time>2026-04-26T14:24:12.506Z</time></trkpt><trkpt lat="43.2885233" lon="13.20391"><ele>406.79999999999995</ele><time>2026-04-26T14:24:13.505Z</time></trkpt><trkpt lat="43.2884367" lon="13.20399"><ele>406.2</ele><time>2026-04-26T14:24:14.505Z</time></trkpt><trkpt lat="43.28836" lon="13.2040867"><ele>405.6</ele><time>2026-04-26T14:24:15.506Z</time></trkpt><trkpt lat="43.2882967" lon="13.2042117"><ele>405.0</ele><time>2026-04-26T14:24:16.504Z</time></trkpt><trkpt lat="43.28824" lon="13.2043617"><ele>405.75</ele><time>2026-04-26T14:24:17.504Z</time></trkpt><trkpt lat="43.2881733" lon="13.2045383"><ele>406.5</ele><time>2026-04-26T14:24:18.504Z</time></trkpt><trkpt lat="43.2881067" lon="13.2047067"><ele>407.25</ele><time>2026-04-26T14:24:19.505Z</time></trkpt><trkpt lat="43.2880467" lon="13.2048733"><ele>408.0</ele><time>2026-04-26T14:24:20.504Z</time></trkpt><trkpt lat="43.2879817" lon="13.2050133"><ele>408.0</ele><time>2026-04-26T14:24:21.504Z</time></trkpt><trkpt lat="43.2878967" lon="13.20513"><ele>408.0</ele><time>2026-04-26T14:24:22.504Z</time></trkpt><trkpt lat="43.2878" lon="13.20523"><ele>408.0</ele><time>2026-04-26T14:24:23.504Z</time></trkpt><trkpt lat="43.2876767" lon="13.2053167"><ele>408.0</ele><time>2026-04-26T14:24:24.504Z</time></trkpt><trkpt lat="43.2875583" lon="13.2054067"><ele>408.0</ele><time>2026-04-26T14:24:25.504Z</time></trkpt><trkpt lat="43.2874567" lon="13.2054967"><ele>408.0</ele><time>2026-04-26T14:24:26.504Z</time></trkpt><trkpt lat="43.2873667" lon="13.205595"><ele>408.0</ele><time>2026-04-26T14:24:27.504Z</time></trkpt><trkpt lat="43.2872633" lon="13.2056767"><ele>408.0</ele><time>2026-04-26T14:24:28.504Z</time></trkpt><trkpt lat="43.2871433" lon="13.20576"><ele>409.0</ele><time>2026-04-26T14:24:29.504Z</time></trkpt><trkpt lat="43.2870067" lon="13.2058333"><ele>410.0</ele><time>2026-04-26T14:24:30.504Z</time></trkpt><trkpt lat="43.28688" lon="13.2059067"><ele>411.0</ele><time>2026-04-26T14:24:31.505Z</time></trkpt><trkpt lat="43.2867633" lon="13.205965"><ele>412.0</ele><time>2026-04-26T14:24:32.504Z</time></trkpt><trkpt lat="43.2866717" lon="13.2060167"><ele>412.0</ele><time>2026-04-26T14:24:33.504Z</time></trkpt><trkpt lat="43.2865983" lon="13.206095"><ele>412.0</ele><time>2026-04-26T14:24:34.505Z</time></trkpt><trkpt lat="43.286535" lon="13.2062033"><ele>412.0</ele><time>2026-04-26T14:24:35.504Z</time></trkpt><trkpt lat="43.28648" lon="13.20634"><ele>412.0</ele><time>2026-04-26T14:24:36.504Z</time></trkpt><trkpt lat="43.2864283" lon="13.2064983"><ele>412.0</ele><time>2026-04-26T14:24:37.504Z</time></trkpt><trkpt lat="43.2863633" lon="13.20664"><ele>413.25</ele><time>2026-04-26T14:24:38.504Z</time></trkpt><trkpt lat="43.2862817" lon="13.2067583"><ele>414.5</ele><time>2026-04-26T14:24:39.504Z</time></trkpt><trkpt lat="43.2861783" lon="13.2068517"><ele>415.75</ele><time>2026-04-26T14:24:40.504Z</time></trkpt><trkpt lat="43.2860617" lon="13.20693"><ele>417.0</ele><time>2026-04-26T14:24:41.505Z</time></trkpt><trkpt lat="43.285925" lon="13.2069917"><ele>417.0</ele><time>2026-04-26T14:24:42.504Z</time></trkpt><trkpt lat="43.285785" lon="13.2070567"><ele>417.0</ele><time>2026-04-26T14:24:43.504Z</time></trkpt><trkpt lat="43.2856383" lon="13.2071133"><ele>417.0</ele><time>2026-04-26T14:24:44.504Z</time></trkpt><trkpt lat="43.2854933" lon="13.2071733"><ele>419.0</ele><time>2026-04-26T14:24:45.505Z</time></trkpt><trkpt lat="43.2853617" lon="13.2072167"><ele>421.0</ele><time>2026-04-26T14:24:46.504Z</time></trkpt><trkpt lat="43.2852333" lon="13.2072317"><ele>423.0</ele><time>2026-04-26T14:24:47.504Z</time></trkpt><trkpt lat="43.2851167" lon="13.2072433"><ele>425.0</ele><time>2026-04-26T14:24:48.504Z</time></trkpt><trkpt lat="43.2850117" lon="13.20724"><ele>425.0</ele><time>2026-04-26T14:24:49.504Z</time></trkpt><trkpt lat="43.2849083" lon="13.20723"><ele>425.0</ele><time>2026-04-26T14:24:50.504Z</time></trkpt><trkpt lat="43.2848067" lon="13.2072067"><ele>425.0</ele><time>2026-04-26T14:24:51.504Z</time></trkpt><trkpt lat="43.2847017" lon="13.2071783"><ele>425.0</ele><time>2026-04-26T14:24:52.504Z</time></trkpt><trkpt lat="43.2846167" lon="13.207145"><ele>425.0</ele><time>2026-04-26T14:24:53.504Z</time></trkpt><trkpt lat="43.28455" lon="13.20713"><ele>425.8</ele><time>2026-04-26T14:24:54.504Z</time></trkpt><trkpt lat="43.284475" lon="13.20715"><ele>426.6</ele><time>2026-04-26T14:24:55.504Z</time></trkpt><trkpt lat="43.2844" lon="13.2072017"><ele>427.4</ele><time>2026-04-26T14:24:56.504Z</time></trkpt><trkpt lat="43.284295" lon="13.2072817"><ele>428.2</ele><time>2026-04-26T14:24:57.505Z</time></trkpt><trkpt lat="43.284175" lon="13.20737"><ele>429.0</ele><time>2026-04-26T14:24:58.504Z</time></trkpt><trkpt lat="43.284055" lon="13.2074467"><ele>429.2</ele><time>2026-04-26T14:24:59.504Z</time></trkpt><trkpt lat="43.2839467" lon="13.2075133"><ele>429.4</ele><time>2026-04-26T14:25:00.505Z</time></trkpt><trkpt lat="43.2838583" lon="13.2075883"><ele>429.6</ele><time>2026-04-26T14:25:01.505Z</time></trkpt><trkpt lat="43.2837883" lon="13.2076583"><ele>429.8</ele><time>2026-04-26T14:25:02.504Z</time></trkpt><trkpt lat="43.2837417" lon="13.207745"><ele>430.0</ele><time>2026-04-26T14:25:03.504Z</time></trkpt><trkpt lat="43.2837283" lon="13.2078517"><ele>430.0</ele><time>2026-04-26T14:25:04.505Z</time></trkpt><trkpt lat="43.2837383" lon="13.2079883"><ele>430.0</ele><time>2026-04-26T14:25:05.504Z</time></trkpt><trkpt lat="43.2837633" lon="13.2081467"><ele>430.0</ele><time>2026-04-26T14:25:06.505Z</time></trkpt><trkpt lat="43.2837883" lon="13.2082983"><ele>430.0</ele><time>2026-04-26T14:25:07.504Z</time></trkpt><trkpt lat="43.283805" lon="13.208435"><ele>430.0</ele><time>2026-04-26T14:25:08.504Z</time></trkpt><trkpt lat="43.28381" lon="13.208545"><ele>429.83333333333337</ele><time>2026-04-26T14:25:09.504Z</time></trkpt><trkpt lat="43.2838233" lon="13.2086667"><ele>429.6666666666667</ele><time>2026-04-26T14:25:11.505Z</time></trkpt><trkpt lat="43.2839033" lon="13.2087117"><ele>429.5</ele><time>2026-04-26T14:25:13.505Z</time></trkpt><trkpt lat="43.28397" lon="13.2087167"><ele>429.33333333333337</ele><time>2026-04-26T14:25:14.505Z</time></trkpt><trkpt lat="43.2840617" lon="13.208725"><ele>429.1666666666667</ele><time>2026-04-26T14:25:15.504Z</time></trkpt><trkpt lat="43.284175" lon="13.2087117"><ele>429.0</ele><time>2026-04-26T14:25:16.504Z</time></trkpt><trkpt lat="43.28432" lon="13.208705"><ele>430.66666666666663</ele><time>2026-04-26T14:25:17.505Z</time></trkpt><trkpt lat="43.284495" lon="13.2086933"><ele>432.3333333333333</ele><time>2026-04-26T14:25:18.504Z</time></trkpt><trkpt lat="43.2846817" lon="13.2086667"><ele>434.0</ele><time>2026-04-26T14:25:19.504Z</time></trkpt><trkpt lat="43.2848567" lon="13.2086233"><ele>434.75</ele><time>2026-04-26T14:25:20.504Z</time></trkpt><trkpt lat="43.2850117" lon="13.2085833"><ele>435.5</ele><time>2026-04-26T14:25:21.504Z</time></trkpt><trkpt lat="43.2851483" lon="13.20854"><ele>436.25</ele><time>2026-04-26T14:25:22.504Z</time></trkpt><trkpt lat="43.2852667" lon="13.208505"><ele>437.0</ele><time>2026-04-26T14:25:23.504Z</time></trkpt><trkpt lat="43.2853883" lon="13.2084933"><ele>437.0</ele><time>2026-04-26T14:25:24.504Z</time></trkpt><trkpt lat="43.28553" lon="13.2085033"><ele>437.0</ele><time>2026-04-26T14:25:25.505Z</time></trkpt><trkpt lat="43.2856867" lon="13.20853"><ele>437.0</ele><time>2026-04-26T14:25:26.504Z</time></trkpt><trkpt lat="43.2858467" lon="13.2085483"><ele>438.0</ele><time>2026-04-26T14:25:27.504Z</time></trkpt><trkpt lat="43.286015" lon="13.208565"><ele>439.0</ele><time>2026-04-26T14:25:28.504Z</time></trkpt><trkpt lat="43.2861817" lon="13.2085717"><ele>440.0</ele><time>2026-04-26T14:25:29.504Z</time></trkpt><trkpt lat="43.2863417" lon="13.2085883"><ele>441.5</ele><time>2026-04-26T14:25:30.504Z</time></trkpt><trkpt lat="43.2864783" lon="13.2085983"><ele>443.0</ele><time>2026-04-26T14:25:31.504Z</time></trkpt><trkpt lat="43.286595" lon="13.20862"><ele>444.5</ele><time>2026-04-26T14:25:32.504Z</time></trkpt><trkpt lat="43.2867033" lon="13.2086567"><ele>446.0</ele><time>2026-04-26T14:25:33.505Z</time></trkpt><trkpt lat="43.28681" lon="13.208725"><ele>446.0</ele><time>2026-04-26T14:25:34.504Z</time></trkpt><trkpt lat="43.286915" lon="13.2088217"><ele>446.0</ele><time>2026-04-26T14:25:35.504Z</time></trkpt><trkpt lat="43.28703" lon="13.2089433"><ele>446.0</ele><time>2026-04-26T14:25:36.504Z</time></trkpt><trkpt lat="43.2871517" lon="13.209085"><ele>446.0</ele><time>2026-04-26T14:25:37.504Z</time></trkpt><trkpt lat="43.287285" lon="13.2092617"><ele>451.0</ele><time>2026-04-26T14:25:38.504Z</time></trkpt><trkpt lat="43.2874367" lon="13.20944"><ele>456.0</ele><time>2026-04-26T14:25:39.504Z</time></trkpt><trkpt lat="43.2875933" lon="13.20961"><ele>461.0</ele><time>2026-04-26T14:25:40.504Z</time></trkpt><trkpt lat="43.2877417" lon="13.20975"><ele>462.0</ele><time>2026-04-26T14:25:41.504Z</time></trkpt><trkpt lat="43.2878767" lon="13.2098867"><ele>463.0</ele><time>2026-04-26T14:25:42.504Z</time></trkpt><trkpt lat="43.2879967" lon="13.2100083"><ele>464.0</ele><time>2026-04-26T14:25:43.504Z</time></trkpt><trkpt lat="43.2881033" lon="13.2101067"><ele>465.0</ele><time>2026-04-26T14:25:44.504Z</time></trkpt><trkpt lat="43.288215" lon="13.2101767"><ele>467.0</ele><time>2026-04-26T14:25:45.504Z</time></trkpt><trkpt lat="43.288335" lon="13.2102267"><ele>469.0</ele><time>2026-04-26T14:25:46.505Z</time></trkpt><trkpt lat="43.288455" lon="13.210255"><ele>471.0</ele><time>2026-04-26T14:25:47.504Z</time></trkpt><trkpt lat="43.2885617" lon="13.210255"><ele>473.0</ele><time>2026-04-26T14:25:48.505Z</time></trkpt><trkpt lat="43.2886567" lon="13.21022"><ele>473.0</ele><time>2026-04-26T14:25:49.504Z</time></trkpt><trkpt lat="43.28875" lon="13.2101417"><ele>473.0</ele><time>2026-04-26T14:25:50.504Z</time></trkpt><trkpt lat="43.2888633" lon="13.2100217"><ele>473.0</ele><time>2026-04-26T14:25:51.505Z</time></trkpt><trkpt lat="43.2889867" lon="13.2099083"><ele>473.0</ele><time>2026-04-26T14:25:52.504Z</time></trkpt><trkpt lat="43.2891183" lon="13.209835"><ele>474.5</ele><time>2026-04-26T14:25:53.504Z</time></trkpt><trkpt lat="43.2892533" lon="13.209795"><ele>476.0</ele><time>2026-04-26T14:25:54.505Z</time></trkpt><trkpt lat="43.28939" lon="13.2097967"><ele>477.5</ele><time>2026-04-26T14:25:55.504Z</time></trkpt><trkpt lat="43.2895517" lon="13.20982"><ele>479.0</ele><time>2026-04-26T14:25:56.504Z</time></trkpt><trkpt lat="43.2897267" lon="13.2098333"><ele>480.0</ele><time>2026-04-26T14:25:57.504Z</time></trkpt><trkpt lat="43.2899183" lon="13.209855"><ele>481.0</ele><time>2026-04-26T14:25:58.504Z</time></trkpt><trkpt lat="43.290115" lon="13.2098933"><ele>482.0</ele><time>2026-04-26T14:25:59.505Z</time></trkpt><trkpt lat="43.2903133" lon="13.2099383"><ele>482.0</ele><time>2026-04-26T14:26:00.504Z</time></trkpt><trkpt lat="43.2905033" lon="13.2099617"><ele>482.0</ele><time>2026-04-26T14:26:01.505Z</time></trkpt><trkpt lat="43.2906867" lon="13.20995"><ele>482.0</ele><time>2026-04-26T14:26:02.504Z</time></trkpt><trkpt lat="43.2908817" lon="13.209915"><ele>483.0</ele><time>2026-04-26T14:26:03.504Z</time></trkpt><trkpt lat="43.2910717" lon="13.2098767"><ele>484.0</ele><time>2026-04-26T14:26:04.504Z</time></trkpt><trkpt lat="43.2912583" lon="13.20984"><ele>485.0</ele><time>2026-04-26T14:26:05.505Z</time></trkpt><trkpt lat="43.2914367" lon="13.20981"><ele>485.0</ele><time>2026-04-26T14:26:06.504Z</time></trkpt><trkpt lat="43.2916133" lon="13.2098033"><ele>485.0</ele><time>2026-04-26T14:26:07.504Z</time></trkpt><trkpt lat="43.2917933" lon="13.2098033"><ele>485.0</ele><time>2026-04-26T14:26:08.504Z</time></trkpt><trkpt lat="43.29196" lon="13.2097917"><ele>485.0</ele><time>2026-04-26T14:26:09.505Z</time></trkpt><trkpt lat="43.2921217" lon="13.2097467"><ele>485.0</ele><time>2026-04-26T14:26:10.504Z</time></trkpt><trkpt lat="43.2922867" lon="13.2096633"><ele>485.0</ele><time>2026-04-26T14:26:11.504Z</time></trkpt><trkpt lat="43.2924633" lon="13.20955"><ele>488.66666666666663</ele><time>2026-04-26T14:26:12.504Z</time></trkpt><trkpt lat="43.292635" lon="13.2094217"><ele>492.33333333333337</ele><time>2026-04-26T14:26:13.504Z</time></trkpt><trkpt lat="43.2927817" lon="13.2093083"><ele>496.0</ele><time>2026-04-26T14:26:14.504Z</time></trkpt><trkpt lat="43.29291" lon="13.209205"><ele>496.0</ele><time>2026-04-26T14:26:15.505Z</time></trkpt><trkpt lat="43.293015" lon="13.20913"><ele>496.0</ele><time>2026-04-26T14:26:16.504Z</time></trkpt><trkpt lat="43.2931233" lon="13.2090783"><ele>496.0</ele><time>2026-04-26T14:26:17.504Z</time></trkpt><trkpt lat="43.29323" lon="13.2090667"><ele>496.0</ele><time>2026-04-26T14:26:18.504Z</time></trkpt><trkpt lat="43.29334" lon="13.2090833"><ele>500.0</ele><time>2026-04-26T14:26:19.504Z</time></trkpt><trkpt lat="43.2934767" lon="13.2091217"><ele>504.0</ele><time>2026-04-26T14:26:20.505Z</time></trkpt><trkpt lat="43.2936317" lon="13.2091767"><ele>508.0</ele><time>2026-04-26T14:26:21.504Z</time></trkpt><trkpt lat="43.2938133" lon="13.2092483"><ele>510.6666666666667</ele><time>2026-04-26T14:26:22.504Z</time></trkpt><trkpt lat="43.294" lon="13.2093117"><ele>513.3333333333334</ele><time>2026-04-26T14:26:23.504Z</time></trkpt><trkpt lat="43.2941667" lon="13.2093433"><ele>516.0</ele><time>2026-04-26T14:26:24.504Z</time></trkpt><trkpt lat="43.29432" lon="13.2093483"><ele>516.0</ele><time>2026-04-26T14:26:25.504Z</time></trkpt><trkpt lat="43.294465" lon="13.2093233"><ele>516.0</ele><time>2026-04-26T14:26:26.504Z</time></trkpt><trkpt lat="43.2946133" lon="13.2092833"><ele>516.0</ele><time>2026-04-26T14:26:27.504Z</time></trkpt><trkpt lat="43.29475" lon="13.2092533"><ele>516.0</ele><time>2026-04-26T14:26:28.504Z</time></trkpt><trkpt lat="43.2948733" lon="13.2092517"><ele>517.25</ele><time>2026-04-26T14:26:29.504Z</time></trkpt><trkpt lat="43.2950033" lon="13.2092817"><ele>518.5</ele><time>2026-04-26T14:26:30.504Z</time></trkpt><trkpt lat="43.2951317" lon="13.2093667"><ele>519.75</ele><time>2026-04-26T14:26:31.504Z</time></trkpt><trkpt lat="43.2952583" lon="13.209485"><ele>521.0</ele><time>2026-04-26T14:26:32.504Z</time></trkpt><trkpt lat="43.2953817" lon="13.2096033"><ele>521.0</ele><time>2026-04-26T14:26:33.504Z</time></trkpt><trkpt lat="43.2955" lon="13.2097017"><ele>521.0</ele><time>2026-04-26T14:26:34.504Z</time></trkpt><trkpt lat="43.295625" lon="13.2097767"><ele>521.0</ele><time>2026-04-26T14:26:35.504Z</time></trkpt><trkpt lat="43.2957683" lon="13.209825"><ele>521.0</ele><time>2026-04-26T14:26:36.504Z</time></trkpt><trkpt lat="43.2959333" lon="13.20986"><ele>522.3333333333333</ele><time>2026-04-26T14:26:37.504Z</time></trkpt><trkpt lat="43.29609" lon="13.2098817"><ele>523.6666666666666</ele><time>2026-04-26T14:26:38.504Z</time></trkpt><trkpt lat="43.296235" lon="13.2098967"><ele>525.0</ele><time>2026-04-26T14:26:39.504Z</time></trkpt><trkpt lat="43.2963883" lon="13.20991"><ele>526.0</ele><time>2026-04-26T14:26:40.504Z</time></trkpt><trkpt lat="43.2965383" lon="13.2099433"><ele>527.0</ele><time>2026-04-26T14:26:41.504Z</time></trkpt><trkpt lat="43.2966917" lon="13.2100067"><ele>528.0</ele><time>2026-04-26T14:26:42.505Z</time></trkpt><trkpt lat="43.29685" lon="13.2101067"><ele>528.0</ele><time>2026-04-26T14:26:43.504Z</time></trkpt><trkpt lat="43.297015" lon="13.2102367"><ele>528.0</ele><time>2026-04-26T14:26:44.504Z</time></trkpt><trkpt lat="43.2971667" lon="13.2103833"><ele>528.0</ele><time>2026-04-26T14:26:45.504Z</time></trkpt><trkpt lat="43.2973067" lon="13.2105333"><ele>529.6666666666666</ele><time>2026-04-26T14:26:46.504Z</time></trkpt><trkpt lat="43.2974467" lon="13.21067"><ele>531.3333333333333</ele><time>2026-04-26T14:26:47.505Z</time></trkpt><trkpt lat="43.2976067" lon="13.2107833"><ele>533.0</ele><time>2026-04-26T14:26:48.504Z</time></trkpt><trkpt lat="43.2977867" lon="13.2108817"><ele>533.0</ele><time>2026-04-26T14:26:49.504Z</time></trkpt><trkpt lat="43.2979767" lon="13.2109733"><ele>533.0</ele><time>2026-04-26T14:26:50.504Z</time></trkpt><trkpt lat="43.2981817" lon="13.2110267"><ele>533.0</ele><time>2026-04-26T14:26:51.504Z</time></trkpt><trkpt lat="43.2983833" lon="13.21106"><ele>535.0</ele><time>2026-04-26T14:26:52.505Z</time></trkpt><trkpt lat="43.298585" lon="13.211075"><ele>537.0</ele><time>2026-04-26T14:26:53.505Z</time></trkpt><trkpt lat="43.29878" lon="13.2110717"><ele>539.0</ele><time>2026-04-26T14:26:54.504Z</time></trkpt><trkpt lat="43.2989667" lon="13.21107"><ele>543.3333333333333</ele><time>2026-04-26T14:26:55.504Z</time></trkpt><trkpt lat="43.29913" lon="13.2110817"><ele>547.6666666666666</ele><time>2026-04-26T14:26:56.505Z</time></trkpt><trkpt lat="43.299285" lon="13.2110983"><ele>552.0</ele><time>2026-04-26T14:26:57.504Z</time></trkpt><trkpt lat="43.2994433" lon="13.2111233"><ele>552.0</ele><time>2026-04-26T14:26:58.504Z</time></trkpt><trkpt lat="43.2995933" lon="13.211165"><ele>552.0</ele><time>2026-04-26T14:26:59.505Z</time></trkpt><trkpt lat="43.2997517" lon="13.2112467"><ele>552.0</ele><time>2026-04-26T14:27:00.504Z</time></trkpt><trkpt lat="43.2999083" lon="13.21136"><ele>555.0</ele><time>2026-04-26T14:27:01.504Z</time></trkpt><trkpt lat="43.300045" lon="13.2114683"><ele>558.0</ele><time>2026-04-26T14:27:02.505Z</time></trkpt><trkpt lat="43.300165" lon="13.2115667"><ele>561.0</ele><time>2026-04-26T14:27:03.504Z</time></trkpt><trkpt lat="43.3002733" lon="13.2116583"><ele>564.0</ele><time>2026-04-26T14:27:04.504Z</time></trkpt><trkpt lat="43.30038" lon="13.21173"><ele>565.0</ele><time>2026-04-26T14:27:05.504Z</time></trkpt><trkpt lat="43.3004883" lon="13.211785"><ele>566.0</ele><time>2026-04-26T14:27:06.504Z</time></trkpt><trkpt lat="43.3006183" lon="13.2118233"><ele>567.0</ele><time>2026-04-26T14:27:07.504Z</time></trkpt><trkpt lat="43.30077" lon="13.2118467"><ele>568.0</ele><time>2026-04-26T14:27:08.504Z</time></trkpt><trkpt lat="43.3009417" lon="13.211875"><ele>571.3333333333334</ele><time>2026-04-26T14:27:09.504Z</time></trkpt><trkpt lat="43.3011283" lon="13.2118983"><ele>574.6666666666666</ele><time>2026-04-26T14:27:10.504Z</time></trkpt><trkpt lat="43.3013083" lon="13.21192"><ele>578.0</ele><time>2026-04-26T14:27:11.505Z</time></trkpt><trkpt lat="43.301475" lon="13.2119433"><ele>580.75</ele><time>2026-04-26T14:27:12.504Z</time></trkpt><trkpt lat="43.3016033" lon="13.211955"><ele>583.5</ele><time>2026-04-26T14:27:13.505Z</time></trkpt><trkpt lat="43.3017083" lon="13.2119383"><ele>586.25</ele><time>2026-04-26T14:27:14.505Z</time></trkpt><trkpt lat="43.30182" lon="13.2118967"><ele>589.0</ele><time>2026-04-26T14:27:15.504Z</time></trkpt><trkpt lat="43.3019233" lon="13.21181"><ele>589.0</ele><time>2026-04-26T14:27:16.504Z</time></trkpt><trkpt lat="43.302035" lon="13.2116867"><ele>589.0</ele><time>2026-04-26T14:27:17.504Z</time></trkpt><trkpt lat="43.3021417" lon="13.2115683"><ele>589.0</ele><time>2026-04-26T14:27:18.504Z</time></trkpt><trkpt lat="43.30224" lon="13.2114617"><ele>589.0</ele><time>2026-04-26T14:27:19.504Z</time></trkpt><trkpt lat="43.3023383" lon="13.2113817"><ele>589.6</ele><time>2026-04-26T14:27:20.504Z</time></trkpt><trkpt lat="43.3024317" lon="13.2113367"><ele>590.2</ele><time>2026-04-26T14:27:21.504Z</time></trkpt><trkpt lat="43.302535" lon="13.2113083"><ele>590.8000000000001</ele><time>2026-04-26T14:27:22.505Z</time></trkpt><trkpt lat="43.302645" lon="13.2113117"><ele>591.4</ele><time>2026-04-26T14:27:23.505Z</time></trkpt><trkpt lat="43.3027667" lon="13.2113517"><ele>592.0</ele><time>2026-04-26T14:27:24.504Z</time></trkpt><trkpt lat="43.3029067" lon="13.2114117"><ele>594.3333333333334</ele><time>2026-04-26T14:27:25.505Z</time></trkpt><trkpt lat="43.3030633" lon="13.2115033"><ele>596.6666666666666</ele><time>2026-04-26T14:27:26.504Z</time></trkpt><trkpt lat="43.3032183" lon="13.2115983"><ele>599.0</ele><time>2026-04-26T14:27:27.504Z</time></trkpt><trkpt lat="43.3033533" lon="13.2116833"><ele>600.25</ele><time>2026-04-26T14:27:28.504Z</time></trkpt><trkpt lat="43.3034633" lon="13.211765"><ele>601.5</ele><time>2026-04-26T14:27:29.505Z</time></trkpt><trkpt lat="43.303565" lon="13.211835"><ele>602.75</ele><time>2026-04-26T14:27:30.504Z</time></trkpt><trkpt lat="43.3036867" lon="13.21188"><ele>604.0</ele><time>2026-04-26T14:27:31.505Z</time></trkpt><trkpt lat="43.3038367" lon="13.21192"><ele>606.0</ele><time>2026-04-26T14:27:32.505Z</time></trkpt><trkpt lat="43.3040183" lon="13.2119367"><ele>608.0</ele><time>2026-04-26T14:27:33.504Z</time></trkpt><trkpt lat="43.3042133" lon="13.2119533"><ele>610.0</ele><time>2026-04-26T14:27:34.504Z</time></trkpt><trkpt lat="43.3044283" lon="13.21197"><ele>610.0</ele><time>2026-04-26T14:27:35.504Z</time></trkpt><trkpt lat="43.3046517" lon="13.2119967"><ele>610.0</ele><time>2026-04-26T14:27:36.504Z</time></trkpt><trkpt lat="43.30486" lon="13.2120417"><ele>610.0</ele><time>2026-04-26T14:27:37.504Z</time></trkpt><trkpt lat="43.3050467" lon="13.2120817"><ele>612.6666666666667</ele><time>2026-04-26T14:27:38.504Z</time></trkpt><trkpt lat="43.3052183" lon="13.21212"><ele>615.3333333333334</ele><time>2026-04-26T14:27:39.504Z</time></trkpt><trkpt lat="43.305375" lon="13.212135"><ele>618.0</ele><time>2026-04-26T14:27:40.504Z</time></trkpt><trkpt lat="43.305545" lon="13.21213"><ele>621.0</ele><time>2026-04-26T14:27:41.504Z</time></trkpt><trkpt lat="43.30571" lon="13.2121367"><ele>624.0</ele><time>2026-04-26T14:27:42.504Z</time></trkpt><trkpt lat="43.305875" lon="13.2121717"><ele>627.0</ele><time>2026-04-26T14:27:43.504Z</time></trkpt><trkpt lat="43.3060417" lon="13.2122217"><ele>627.0</ele><time>2026-04-26T14:27:44.504Z</time></trkpt><trkpt lat="43.3062033" lon="13.2122517"><ele>627.0</ele><time>2026-04-26T14:27:45.504Z</time></trkpt><trkpt lat="43.306375" lon="13.21225"><ele>627.0</ele><time>2026-04-26T14:27:46.505Z</time></trkpt><trkpt lat="43.306555" lon="13.2122583"><ele>630.0</ele><time>2026-04-26T14:27:47.504Z</time></trkpt><trkpt lat="43.3067433" lon="13.2122817"><ele>633.0</ele><time>2026-04-26T14:27:48.504Z</time></trkpt><trkpt lat="43.3069283" lon="13.2123383"><ele>636.0</ele><time>2026-04-26T14:27:49.504Z</time></trkpt><trkpt lat="43.3071067" lon="13.21241"><ele>643.0</ele><time>2026-04-26T14:27:50.504Z</time></trkpt><trkpt lat="43.3072783" lon="13.212505"><ele>650.0</ele><time>2026-04-26T14:27:51.504Z</time></trkpt><trkpt lat="43.3074267" lon="13.2125767"><ele>657.0</ele><time>2026-04-26T14:27:52.504Z</time></trkpt><trkpt lat="43.3075683" lon="13.212645"><ele>657.0</ele><time>2026-04-26T14:27:53.504Z</time></trkpt><trkpt lat="43.3077083" lon="13.2127"><ele>657.0</ele><time>2026-04-26T14:27:54.504Z</time></trkpt><trkpt lat="43.3078417" lon="13.212745"><ele>657.0</ele><time>2026-04-26T14:27:55.504Z</time></trkpt><trkpt lat="43.3079733" lon="13.2127883"><ele>657.0</ele><time>2026-04-26T14:27:56.504Z</time></trkpt><trkpt lat="43.3080833" lon="13.2128217"><ele>658.6</ele><time>2026-04-26T14:27:57.504Z</time></trkpt><trkpt lat="43.3081667" lon="13.2128567"><ele>660.2</ele><time>2026-04-26T14:27:58.504Z</time></trkpt><trkpt lat="43.3082417" lon="13.2128917"><ele>661.8</ele><time>2026-04-26T14:27:59.504Z</time></trkpt><trkpt lat="43.30837" lon="13.2129517"><ele>663.4</ele><time>2026-04-26T14:28:01.504Z</time></trkpt><trkpt lat="43.3084583" lon="13.2130083"><ele>665.0</ele><time>2026-04-26T14:28:02.504Z</time></trkpt><trkpt lat="43.3085667" lon="13.2130783"><ele>666.6666666666666</ele><time>2026-04-26T14:28:03.504Z</time></trkpt><trkpt lat="43.3087" lon="13.21316"><ele>668.3333333333334</ele><time>2026-04-26T14:28:04.504Z</time></trkpt><trkpt lat="43.308855" lon="13.2132467"><ele>670.0</ele><time>2026-04-26T14:28:05.504Z</time></trkpt><trkpt lat="43.309015" lon="13.213325"><ele>674.3333333333334</ele><time>2026-04-26T14:28:06.504Z</time></trkpt><trkpt lat="43.309195" lon="13.2134033"><ele>678.6666666666666</ele><time>2026-04-26T14:28:07.504Z</time></trkpt><trkpt lat="43.309365" lon="13.2134767"><ele>683.0</ele><time>2026-04-26T14:28:08.504Z</time></trkpt><trkpt lat="43.3095233" lon="13.2135467"><ele>683.0</ele><time>2026-04-26T14:28:09.504Z</time></trkpt><trkpt lat="43.3096733" lon="13.2135817"><ele>683.0</ele><time>2026-04-26T14:28:10.505Z</time></trkpt><trkpt lat="43.3098367" lon="13.2135983"><ele>683.0</ele><time>2026-04-26T14:28:11.504Z</time></trkpt><trkpt lat="43.31" lon="13.21363"><ele>684.3333333333333</ele><time>2026-04-26T14:28:12.504Z</time></trkpt><trkpt lat="43.3101533" lon="13.2136867"><ele>685.6666666666666</ele><time>2026-04-26T14:28:13.504Z</time></trkpt><trkpt lat="43.3103067" lon="13.2137633"><ele>687.0</ele><time>2026-04-26T14:28:14.504Z</time></trkpt><trkpt lat="43.3104267" lon="13.2138517"><ele>687.0</ele><time>2026-04-26T14:28:15.504Z</time></trkpt><trkpt lat="43.3105117" lon="13.213915"><ele>687.0</ele><time>2026-04-26T14:28:16.505Z</time></trkpt><trkpt lat="43.31055" lon="13.21399"><ele>687.0</ele><time>2026-04-26T14:28:17.504Z</time></trkpt><trkpt lat="43.3105483" lon="13.21412"><ele>687.0</ele><time>2026-04-26T14:28:19.504Z</time></trkpt><trkpt lat="43.3104467" lon="13.2141517"><ele>687.0</ele><time>2026-04-26T14:28:20.504Z</time></trkpt><trkpt lat="43.3103267" lon="13.2141733"><ele>690.75</ele><time>2026-04-26T14:28:21.504Z</time></trkpt><trkpt lat="43.3102083" lon="13.2142"><ele>694.5</ele><time>2026-04-26T14:28:22.504Z</time></trkpt><trkpt lat="43.310085" lon="13.2142767"><ele>698.25</ele><time>2026-04-26T14:28:23.504Z</time></trkpt><trkpt lat="43.309975" lon="13.2143967"><ele>702.0</ele><time>2026-04-26T14:28:24.504Z</time></trkpt><trkpt lat="43.30987" lon="13.2145617"><ele>702.0</ele><time>2026-04-26T14:28:25.504Z</time></trkpt><trkpt lat="43.3097667" lon="13.2147533"><ele>702.0</ele><time>2026-04-26T14:28:26.504Z</time></trkpt><trkpt lat="43.3096733" lon="13.2149283"><ele>702.0</ele><time>2026-04-26T14:28:27.505Z</time></trkpt><trkpt lat="43.3096167" lon="13.2150833"><ele>702.75</ele><time>2026-04-26T14:28:28.504Z</time></trkpt><trkpt lat="43.30959" lon="13.2152283"><ele>703.5</ele><time>2026-04-26T14:28:29.504Z</time></trkpt><trkpt lat="43.3095967" lon="13.2153883"><ele>704.25</ele><time>2026-04-26T14:28:30.504Z</time></trkpt><trkpt lat="43.3096367" lon="13.21558"><ele>705.0</ele><time>2026-04-26T14:28:31.504Z</time></trkpt><trkpt lat="43.3096917" lon="13.2158033"><ele>708.3333333333334</ele><time>2026-04-26T14:28:32.505Z</time></trkpt><trkpt lat="43.309725" lon="13.2160583"><ele>711.6666666666667</ele><time>2026-04-26T14:28:33.504Z</time></trkpt><trkpt lat="43.3097517" lon="13.216315"><ele>715.0</ele><time>2026-04-26T14:28:34.504Z</time></trkpt><trkpt lat="43.3097767" lon="13.216525"><ele>718.6</ele><time>2026-04-26T14:28:35.504Z</time></trkpt><trkpt lat="43.3097933" lon="13.2166783"><ele>722.2</ele><time>2026-04-26T14:28:36.504Z</time></trkpt><trkpt lat="43.3097783" lon="13.216795"><ele>725.8</ele><time>2026-04-26T14:28:37.504Z</time></trkpt><trkpt lat="43.3097183" lon="13.2169233"><ele>729.4</ele><time>2026-04-26T14:28:38.504Z</time></trkpt><trkpt lat="43.309635" lon="13.2170667"><ele>733.0</ele><time>2026-04-26T14:28:39.504Z</time></trkpt><trkpt lat="43.309545" lon="13.2171767"><ele>733.0</ele><time>2026-04-26T14:28:40.504Z</time></trkpt><trkpt lat="43.3094333" lon="13.217225"><ele>733.0</ele><time>2026-04-26T14:28:41.504Z</time></trkpt><trkpt lat="43.3093133" lon="13.2172217"><ele>733.0</ele><time>2026-04-26T14:28:42.505Z</time></trkpt><trkpt lat="43.3091967" lon="13.2172233"><ele>733.0</ele><time>2026-04-26T14:28:43.504Z</time></trkpt><trkpt lat="43.3090817" lon="13.2172533"><ele>735.3333333333334</ele><time>2026-04-26T14:28:44.504Z</time></trkpt><trkpt lat="43.3089683" lon="13.2173633"><ele>737.6666666666666</ele><time>2026-04-26T14:28:45.504Z</time></trkpt><trkpt lat="43.308855" lon="13.2175033"><ele>740.0</ele><time>2026-04-26T14:28:46.504Z</time></trkpt><trkpt lat="43.3087367" lon="13.2176833"><ele>740.0</ele><time>2026-04-26T14:28:47.504Z</time></trkpt><trkpt lat="43.3086133" lon="13.217885"><ele>740.0</ele><time>2026-04-26T14:28:48.504Z</time></trkpt><trkpt lat="43.3084717" lon="13.2181117"><ele>740.0</ele><time>2026-04-26T14:28:49.505Z</time></trkpt><trkpt lat="43.3083367" lon="13.218355"><ele>741.0</ele><time>2026-04-26T14:28:50.504Z</time></trkpt><trkpt lat="43.3082217" lon="13.2185733"><ele>742.0</ele><time>2026-04-26T14:28:51.505Z</time></trkpt><trkpt lat="43.30811" lon="13.2187833"><ele>743.0</ele><time>2026-04-26T14:28:52.504Z</time></trkpt><trkpt lat="43.3080133" lon="13.2189717"><ele>740.25</ele><time>2026-04-26T14:28:53.504Z</time></trkpt><trkpt lat="43.3079667" lon="13.2191433"><ele>737.5</ele><time>2026-04-26T14:28:54.505Z</time></trkpt><trkpt lat="43.30795" lon="13.219325"><ele>734.75</ele><time>2026-04-26T14:28:55.504Z</time></trkpt><trkpt lat="43.3079667" lon="13.2195317"><ele>732.0</ele><time>2026-04-26T14:28:56.505Z</time></trkpt><trkpt lat="43.3080133" lon="13.2197467"><ele>737.0</ele><time>2026-04-26T14:28:57.504Z</time></trkpt><trkpt lat="43.3080833" lon="13.2199817"><ele>742.0</ele><time>2026-04-26T14:28:58.504Z</time></trkpt><trkpt lat="43.308165" lon="13.2202283"><ele>747.0</ele><time>2026-04-26T14:28:59.504Z</time></trkpt><trkpt lat="43.3082417" lon="13.2204633"><ele>747.6666666666666</ele><time>2026-04-26T14:29:00.504Z</time></trkpt><trkpt lat="43.3083067" lon="13.2206683"><ele>748.3333333333333</ele><time>2026-04-26T14:29:01.505Z</time></trkpt><trkpt lat="43.308365" lon="13.2208683"><ele>749.0</ele><time>2026-04-26T14:29:02.504Z</time></trkpt><trkpt lat="43.3084033" lon="13.2210583"><ele>749.0</ele><time>2026-04-26T14:29:03.504Z</time></trkpt><trkpt lat="43.3084117" lon="13.2212633"><ele>749.0</ele><time>2026-04-26T14:29:04.504Z</time></trkpt><trkpt lat="43.3083933" lon="13.2214633"><ele>749.0</ele><time>2026-04-26T14:29:05.504Z</time></trkpt><trkpt lat="43.3083567" lon="13.22164"><ele>749.0</ele><time>2026-04-26T14:29:06.505Z</time></trkpt><trkpt lat="43.3082767" lon="13.2217817"><ele>748.75</ele><time>2026-04-26T14:29:07.504Z</time></trkpt><trkpt lat="43.3081817" lon="13.22191"><ele>748.5</ele><time>2026-04-26T14:29:08.505Z</time></trkpt><trkpt lat="43.308105" lon="13.2220517"><ele>748.25</ele><time>2026-04-26T14:29:09.504Z</time></trkpt><trkpt lat="43.3080483" lon="13.2222233"><ele>748.0</ele><time>2026-04-26T14:29:10.504Z</time></trkpt><trkpt lat="43.3080117" lon="13.2224"><ele>748.0</ele><time>2026-04-26T14:29:11.504Z</time></trkpt><trkpt lat="43.3080083" lon="13.2225933"><ele>748.0</ele><time>2026-04-26T14:29:12.504Z</time></trkpt><trkpt lat="43.30803" lon="13.2228"><ele>748.0</ele><time>2026-04-26T14:29:13.504Z</time></trkpt><trkpt lat="43.30807" lon="13.2230083"><ele>748.0</ele><time>2026-04-26T14:29:14.504Z</time></trkpt><trkpt lat="43.3081183" lon="13.2231933"><ele>752.6666666666667</ele><time>2026-04-26T14:29:15.505Z</time></trkpt><trkpt lat="43.3081933" lon="13.2233533"><ele>757.3333333333334</ele><time>2026-04-26T14:29:16.504Z</time></trkpt><trkpt lat="43.3083" lon="13.2235133"><ele>762.0</ele><time>2026-04-26T14:29:17.505Z</time></trkpt><trkpt lat="43.3084233" lon="13.22367"><ele>762.0</ele><time>2026-04-26T14:29:18.504Z</time></trkpt><trkpt lat="43.3085617" lon="13.2238267"><ele>762.0</ele><time>2026-04-26T14:29:19.504Z</time></trkpt><trkpt lat="43.308705" lon="13.2239783"><ele>762.0</ele><time>2026-04-26T14:29:20.504Z</time></trkpt><trkpt lat="43.3088567" lon="13.2241083"><ele>764.0</ele><time>2026-04-26T14:29:21.505Z</time></trkpt><trkpt lat="43.3090067" lon="13.22421"><ele>766.0</ele><time>2026-04-26T14:29:22.504Z</time></trkpt><trkpt lat="43.3091517" lon="13.224295"><ele>768.0</ele><time>2026-04-26T14:29:23.504Z</time></trkpt><trkpt lat="43.3093033" lon="13.2243733"><ele>768.0</ele><time>2026-04-26T14:29:24.505Z</time></trkpt><trkpt lat="43.3094583" lon="13.2244533"><ele>768.0</ele><time>2026-04-26T14:29:25.504Z</time></trkpt><trkpt lat="43.3096" lon="13.2245183"><ele>768.0</ele><time>2026-04-26T14:29:26.504Z</time></trkpt><trkpt lat="43.3097333" lon="13.2245617"><ele>768.75</ele><time>2026-04-26T14:29:27.505Z</time></trkpt><trkpt lat="43.3098683" lon="13.2245783"><ele>769.5</ele><time>2026-04-26T14:29:28.504Z</time></trkpt><trkpt lat="43.31001" lon="13.22458"><ele>770.25</ele><time>2026-04-26T14:29:29.504Z</time></trkpt><trkpt lat="43.31015" lon="13.2245767"><ele>771.0</ele><time>2026-04-26T14:29:30.504Z</time></trkpt><trkpt lat="43.310295" lon="13.2245767"><ele>771.0</ele><time>2026-04-26T14:29:31.504Z</time></trkpt><trkpt lat="43.3104433" lon="13.2245833"><ele>771.0</ele><time>2026-04-26T14:29:32.504Z</time></trkpt><trkpt lat="43.3105917" lon="13.2245917"><ele>771.0</ele><time>2026-04-26T14:29:33.505Z</time></trkpt><trkpt lat="43.3107433" lon="13.2245933"><ele>771.0</ele><time>2026-04-26T14:29:34.504Z</time></trkpt><trkpt lat="43.3108967" lon="13.2245983"><ele>772.0</ele><time>2026-04-26T14:29:35.504Z</time></trkpt><trkpt lat="43.31105" lon="13.2246083"><ele>773.0</ele><time>2026-04-26T14:29:36.504Z</time></trkpt><trkpt lat="43.311205" lon="13.2246283"><ele>774.0</ele><time>2026-04-26T14:29:37.504Z</time></trkpt><trkpt lat="43.311355" lon="13.2246483"><ele>774.25</ele><time>2026-04-26T14:29:38.504Z</time></trkpt><trkpt lat="43.3115017" lon="13.22467"><ele>774.5</ele><time>2026-04-26T14:29:39.505Z</time></trkpt><trkpt lat="43.3116467" lon="13.2246967"><ele>774.75</ele><time>2026-04-26T14:29:40.504Z</time></trkpt><trkpt lat="43.3117917" lon="13.224715"><ele>775.0</ele><time>2026-04-26T14:29:41.504Z</time></trkpt><trkpt lat="43.3119417" lon="13.224715"><ele>775.0</ele><time>2026-04-26T14:29:42.505Z</time></trkpt><trkpt lat="43.3120917" lon="13.2246983"><ele>775.0</ele><time>2026-04-26T14:29:43.504Z</time></trkpt><trkpt lat="43.3122367" lon="13.2246683"><ele>775.0</ele><time>2026-04-26T14:29:44.504Z</time></trkpt><trkpt lat="43.31238" lon="13.2246083"><ele>775.0</ele><time>2026-04-26T14:29:45.504Z</time></trkpt><trkpt lat="43.3125117" lon="13.22454"><ele>772.25</ele><time>2026-04-26T14:29:46.504Z</time></trkpt><trkpt lat="43.312645" lon="13.2244617"><ele>769.5</ele><time>2026-04-26T14:29:47.504Z</time></trkpt><trkpt lat="43.3127833" lon="13.2244017"><ele>766.75</ele><time>2026-04-26T14:29:48.504Z</time></trkpt><trkpt lat="43.31292" lon="13.2243783"><ele>764.0</ele><time>2026-04-26T14:29:49.504Z</time></trkpt><trkpt lat="43.313065" lon="13.2243833"><ele>761.5</ele><time>2026-04-26T14:29:50.504Z</time></trkpt><trkpt lat="43.313205" lon="13.2244117"><ele>759.0</ele><time>2026-04-26T14:29:51.504Z</time></trkpt><trkpt lat="43.313335" lon="13.2244767"><ele>756.5</ele><time>2026-04-26T14:29:52.504Z</time></trkpt><trkpt lat="43.3134517" lon="13.2245667"><ele>754.0</ele><time>2026-04-26T14:29:53.505Z</time></trkpt><trkpt lat="43.3135633" lon="13.2247017"><ele>750.0</ele><time>2026-04-26T14:29:54.504Z</time></trkpt><trkpt lat="43.3136617" lon="13.22487"><ele>746.0</ele><time>2026-04-26T14:29:55.504Z</time></trkpt><trkpt lat="43.31376" lon="13.2250633"><ele>742.0</ele><time>2026-04-26T14:29:56.504Z</time></trkpt><trkpt lat="43.31386" lon="13.2252767"><ele>743.0</ele><time>2026-04-26T14:29:57.504Z</time></trkpt><trkpt lat="43.3139617" lon="13.2254933"><ele>744.0</ele><time>2026-04-26T14:29:58.504Z</time></trkpt><trkpt lat="43.3140567" lon="13.225715"><ele>745.0</ele><time>2026-04-26T14:29:59.505Z</time></trkpt><trkpt lat="43.314155" lon="13.2259317"><ele>740.3333333333334</ele><time>2026-04-26T14:30:00.504Z</time></trkpt><trkpt lat="43.3142383" lon="13.226155"><ele>735.6666666666666</ele><time>2026-04-26T14:30:01.505Z</time></trkpt><trkpt lat="43.314315" lon="13.2263667"><ele>731.0</ele><time>2026-04-26T14:30:02.504Z</time></trkpt><trkpt lat="43.31439" lon="13.2265917"><ele>725.6666666666666</ele><time>2026-04-26T14:30:03.504Z</time></trkpt><trkpt lat="43.3144567" lon="13.2268317"><ele>720.3333333333334</ele><time>2026-04-26T14:30:04.504Z</time></trkpt><trkpt lat="43.314525" lon="13.22707"><ele>715.0</ele><time>2026-04-26T14:30:05.505Z</time></trkpt><trkpt lat="43.3145967" lon="13.2273"><ele>716.0</ele><time>2026-04-26T14:30:06.504Z</time></trkpt><trkpt lat="43.31467" lon="13.22753"><ele>717.0</ele><time>2026-04-26T14:30:07.504Z</time></trkpt><trkpt lat="43.3147467" lon="13.227755"><ele>718.0</ele><time>2026-04-26T14:30:08.505Z</time></trkpt><trkpt lat="43.314825" lon="13.2279683"><ele>712.0</ele><time>2026-04-26T14:30:09.504Z</time></trkpt><trkpt lat="43.3148933" lon="13.2281567"><ele>706.0</ele><time>2026-04-26T14:30:10.504Z</time></trkpt><trkpt lat="43.314985" lon="13.2283283"><ele>700.0</ele><time>2026-04-26T14:30:11.504Z</time></trkpt><trkpt lat="43.315105" lon="13.2284983"><ele>700.0</ele><time>2026-04-26T14:30:12.504Z</time></trkpt><trkpt lat="43.31524" lon="13.2286583"><ele>700.0</ele><time>2026-04-26T14:30:13.504Z</time></trkpt><trkpt lat="43.3153717" lon="13.2288233"><ele>700.0</ele><time>2026-04-26T14:30:14.504Z</time></trkpt><trkpt lat="43.3154933" lon="13.2289967"><ele>699.6666666666667</ele><time>2026-04-26T14:30:15.504Z</time></trkpt><trkpt lat="43.31561" lon="13.2291683"><ele>699.3333333333334</ele><time>2026-04-26T14:30:16.504Z</time></trkpt><trkpt lat="43.315725" lon="13.2293217"><ele>699.0</ele><time>2026-04-26T14:30:17.504Z</time></trkpt><trkpt lat="43.3158433" lon="13.2294583"><ele>699.0</ele><time>2026-04-26T14:30:18.504Z</time></trkpt><trkpt lat="43.3159633" lon="13.2295817"><ele>699.0</ele><time>2026-04-26T14:30:19.504Z</time></trkpt><trkpt lat="43.316075" lon="13.229695"><ele>699.0</ele><time>2026-04-26T14:30:20.505Z</time></trkpt><trkpt lat="43.316155" lon="13.2298167"><ele>699.0</ele><time>2026-04-26T14:30:21.504Z</time></trkpt><trkpt lat="43.3162083" lon="13.229975"><ele>689.0</ele><time>2026-04-26T14:30:22.504Z</time></trkpt><trkpt lat="43.3162517" lon="13.2301733"><ele>679.0</ele><time>2026-04-26T14:30:23.505Z</time></trkpt><trkpt lat="43.3163" lon="13.2304033"><ele>669.0</ele><time>2026-04-26T14:30:24.505Z</time></trkpt><trkpt lat="43.3163533" lon="13.23066"><ele>670.3333333333334</ele><time>2026-04-26T14:30:25.504Z</time></trkpt><trkpt lat="43.31641" lon="13.2309267"><ele>671.6666666666667</ele><time>2026-04-26T14:30:26.504Z</time></trkpt><trkpt lat="43.3164683" lon="13.231195"><ele>673.0</ele><time>2026-04-26T14:30:27.504Z</time></trkpt><trkpt lat="43.31653" lon="13.2314717"><ele>670.0</ele><time>2026-04-26T14:30:28.504Z</time></trkpt><trkpt lat="43.3165917" lon="13.2317517"><ele>667.0</ele><time>2026-04-26T14:30:29.504Z</time></trkpt><trkpt lat="43.3166483" lon="13.23202"><ele>664.0</ele><time>2026-04-26T14:30:30.505Z</time></trkpt><trkpt lat="43.3166983" lon="13.2322833"><ele>661.0</ele><time>2026-04-26T14:30:31.505Z</time></trkpt><trkpt lat="43.3167483" lon="13.23254"><ele>658.0</ele><time>2026-04-26T14:30:32.504Z</time></trkpt><trkpt lat="43.3168" lon="13.2327917"><ele>655.0</ele><time>2026-04-26T14:30:33.505Z</time></trkpt><trkpt lat="43.3168517" lon="13.2330083"><ele>652.75</ele><time>2026-04-26T14:30:34.504Z</time></trkpt><trkpt lat="43.316895" lon="13.2332133"><ele>650.5</ele><time>2026-04-26T14:30:35.504Z</time></trkpt><trkpt lat="43.31693" lon="13.2334067"><ele>648.25</ele><time>2026-04-26T14:30:36.504Z</time></trkpt><trkpt lat="43.31696" lon="13.2335783"><ele>646.0</ele><time>2026-04-26T14:30:37.504Z</time></trkpt><trkpt lat="43.3169583" lon="13.2337383"><ele>646.0</ele><time>2026-04-26T14:30:38.505Z</time></trkpt><trkpt lat="43.3169267" lon="13.2338733"><ele>646.0</ele><time>2026-04-26T14:30:39.505Z</time></trkpt><trkpt lat="43.3168867" lon="13.2339817"><ele>646.0</ele><time>2026-04-26T14:30:40.504Z</time></trkpt><trkpt lat="43.3168383" lon="13.2340533"><ele>646.0</ele><time>2026-04-26T14:30:41.505Z</time></trkpt><trkpt lat="43.3167633" lon="13.2340867"><ele>646.0</ele><time>2026-04-26T14:30:42.504Z</time></trkpt><trkpt lat="43.3166667" lon="13.234065"><ele>646.0</ele><time>2026-04-26T14:30:43.504Z</time></trkpt><trkpt lat="43.3165617" lon="13.23397"><ele>646.0</ele><time>2026-04-26T14:30:44.504Z</time></trkpt><trkpt lat="43.3164467" lon="13.2338167"><ele>646.0</ele><time>2026-04-26T14:30:45.504Z</time></trkpt><trkpt lat="43.31632" lon="13.2336417"><ele>646.0</ele><time>2026-04-26T14:30:46.504Z</time></trkpt><trkpt lat="43.3162017" lon="13.2335033"><ele>643.75</ele><time>2026-04-26T14:30:47.504Z</time></trkpt><trkpt lat="43.3161133" lon="13.2333567"><ele>641.5</ele><time>2026-04-26T14:30:48.505Z</time></trkpt><trkpt lat="43.3160583" lon="13.233185"><ele>639.25</ele><time>2026-04-26T14:30:49.504Z</time></trkpt><trkpt lat="43.31602" lon="13.2329967"><ele>637.0</ele><time>2026-04-26T14:30:50.504Z</time></trkpt><trkpt lat="43.3159883" lon="13.2328383"><ele>637.0</ele><time>2026-04-26T14:30:51.504Z</time></trkpt><trkpt lat="43.315945" lon="13.2327067"><ele>637.0</ele><time>2026-04-26T14:30:52.504Z</time></trkpt><trkpt lat="43.31592" lon="13.2325983"><ele>637.0</ele><time>2026-04-26T14:30:53.505Z</time></trkpt><trkpt lat="43.315875" lon="13.23253"><ele>637.0</ele><time>2026-04-26T14:30:54.505Z</time></trkpt><trkpt lat="43.3158117" lon="13.2325"><ele>637.0</ele><time>2026-04-26T14:30:55.504Z</time></trkpt><trkpt lat="43.3157083" lon="13.2325883"><ele>637.0</ele><time>2026-04-26T14:30:57.504Z</time></trkpt><trkpt lat="43.3156817" lon="13.2327083"><ele>637.0</ele><time>2026-04-26T14:30:58.504Z</time></trkpt><trkpt lat="43.315685" lon="13.2328783"><ele>637.0</ele><time>2026-04-26T14:30:59.504Z</time></trkpt><trkpt lat="43.3157233" lon="13.2330917"><ele>637.0</ele><time>2026-04-26T14:31:00.504Z</time></trkpt><trkpt lat="43.3157883" lon="13.2333333"><ele>634.0</ele><time>2026-04-26T14:31:01.505Z</time></trkpt><trkpt lat="43.3158333" lon="13.2335583"><ele>631.0</ele><time>2026-04-26T14:31:02.504Z</time></trkpt><trkpt lat="43.3158383" lon="13.2337733"><ele>628.0</ele><time>2026-04-26T14:31:03.504Z</time></trkpt><trkpt lat="43.31581" lon="13.2339983"><ele>626.3333333333334</ele><time>2026-04-26T14:31:04.504Z</time></trkpt><trkpt lat="43.3157533" lon="13.2342017"><ele>624.6666666666666</ele><time>2026-04-26T14:31:05.504Z</time></trkpt><trkpt lat="43.3156833" lon="13.2344017"><ele>623.0</ele><time>2026-04-26T14:31:06.504Z</time></trkpt><trkpt lat="43.31561" lon="13.234575"><ele>614.6666666666666</ele><time>2026-04-26T14:31:07.505Z</time></trkpt><trkpt lat="43.31556" lon="13.2347667"><ele>606.3333333333334</ele><time>2026-04-26T14:31:08.504Z</time></trkpt><trkpt lat="43.3155483" lon="13.2349917"><ele>598.0</ele><time>2026-04-26T14:31:09.504Z</time></trkpt><trkpt lat="43.3155667" lon="13.235235"><ele>602.0</ele><time>2026-04-26T14:31:10.505Z</time></trkpt><trkpt lat="43.3156017" lon="13.2354933"><ele>606.0</ele><time>2026-04-26T14:31:11.504Z</time></trkpt><trkpt lat="43.3156383" lon="13.2357633"><ele>610.0</ele><time>2026-04-26T14:31:12.505Z</time></trkpt><trkpt lat="43.31568" lon="13.2360433"><ele>610.0</ele><time>2026-04-26T14:31:13.504Z</time></trkpt><trkpt lat="43.3157133" lon="13.2363233"><ele>610.0</ele><time>2026-04-26T14:31:14.504Z</time></trkpt><trkpt lat="43.3157533" lon="13.2365717"><ele>610.0</ele><time>2026-04-26T14:31:15.504Z</time></trkpt><trkpt lat="43.315795" lon="13.2367783"><ele>607.5</ele><time>2026-04-26T14:31:16.505Z</time></trkpt><trkpt lat="43.31584" lon="13.2369517"><ele>605.0</ele><time>2026-04-26T14:31:17.504Z</time></trkpt><trkpt lat="43.3159167" lon="13.2370867"><ele>602.5</ele><time>2026-04-26T14:31:18.504Z</time></trkpt><trkpt lat="43.31601" lon="13.237195"><ele>600.0</ele><time>2026-04-26T14:31:19.504Z</time></trkpt><trkpt lat="43.31608" lon="13.2372983"><ele>596.5</ele><time>2026-04-26T14:31:20.504Z</time></trkpt><trkpt lat="43.316125" lon="13.2374233"><ele>593.0</ele><time>2026-04-26T14:31:21.504Z</time></trkpt><trkpt lat="43.3161283" lon="13.23758"><ele>589.5</ele><time>2026-04-26T14:31:22.504Z</time></trkpt><trkpt lat="43.316125" lon="13.2377533"><ele>586.0</ele><time>2026-04-26T14:31:23.505Z</time></trkpt><trkpt lat="43.316135" lon="13.2379283"><ele>586.0</ele><time>2026-04-26T14:31:24.505Z</time></trkpt><trkpt lat="43.3162" lon="13.2381167"><ele>586.0</ele><time>2026-04-26T14:31:25.504Z</time></trkpt><trkpt lat="43.3162817" lon="13.2382933"><ele>586.0</ele><time>2026-04-26T14:31:26.504Z</time></trkpt><trkpt lat="43.3163583" lon="13.238435"><ele>586.0</ele><time>2026-04-26T14:31:27.505Z</time></trkpt><trkpt lat="43.31641" lon="13.2385517"><ele>583.8</ele><time>2026-04-26T14:31:28.504Z</time></trkpt><trkpt lat="43.3164433" lon="13.2386417"><ele>581.6</ele><time>2026-04-26T14:31:29.504Z</time></trkpt><trkpt lat="43.3164467" lon="13.23878"><ele>579.4</ele><time>2026-04-26T14:31:31.504Z</time></trkpt><trkpt lat="43.3163317" lon="13.2387633"><ele>577.2</ele><time>2026-04-26T14:31:33.504Z</time></trkpt><trkpt lat="43.31622" lon="13.2386817"><ele>575.0</ele><time>2026-04-26T14:31:34.505Z</time></trkpt><trkpt lat="43.316085" lon="13.2385367"><ele>575.0</ele><time>2026-04-26T14:31:35.505Z</time></trkpt><trkpt lat="43.31595" lon="13.2383567"><ele>575.0</ele><time>2026-04-26T14:31:36.504Z</time></trkpt><trkpt lat="43.3158633" lon="13.23817"><ele>575.0</ele><time>2026-04-26T14:31:37.504Z</time></trkpt><trkpt lat="43.3158033" lon="13.23802"><ele>577.2</ele><time>2026-04-26T14:31:38.504Z</time></trkpt><trkpt lat="43.315755" lon="13.23792"><ele>579.4</ele><time>2026-04-26T14:31:39.504Z</time></trkpt><trkpt lat="43.315705" lon="13.2378517"><ele>581.6</ele><time>2026-04-26T14:31:40.505Z</time></trkpt><trkpt lat="43.3155983" lon="13.23784"><ele>583.8</ele><time>2026-04-26T14:31:42.504Z</time></trkpt><trkpt lat="43.3155433" lon="13.237945"><ele>586.0</ele><time>2026-04-26T14:31:43.503Z</time></trkpt><trkpt lat="43.3155" lon="13.2381083"><ele>582.3333333333334</ele><time>2026-04-26T14:31:44.503Z</time></trkpt><trkpt lat="43.3154917" lon="13.2383017"><ele>578.6666666666666</ele><time>2026-04-26T14:31:45.503Z</time></trkpt><trkpt lat="43.3155083" lon="13.2385067"><ele>575.0</ele><time>2026-04-26T14:31:46.503Z</time></trkpt><trkpt lat="43.3155733" lon="13.238715"><ele>575.0</ele><time>2026-04-26T14:31:47.504Z</time></trkpt><trkpt lat="43.3156667" lon="13.238905"><ele>575.0</ele><time>2026-04-26T14:31:48.503Z</time></trkpt><trkpt lat="43.3157467" lon="13.2390983"><ele>575.0</ele><time>2026-04-26T14:31:49.503Z</time></trkpt><trkpt lat="43.3158083" lon="13.2392917"><ele>572.0</ele><time>2026-04-26T14:31:50.504Z</time></trkpt><trkpt lat="43.3158533" lon="13.2394817"><ele>569.0</ele><time>2026-04-26T14:31:51.503Z</time></trkpt><trkpt lat="43.315895" lon="13.2396533"><ele>566.0</ele><time>2026-04-26T14:31:52.503Z</time></trkpt><trkpt lat="43.31597" lon="13.2398017"><ele>563.0</ele><time>2026-04-26T14:31:53.503Z</time></trkpt><trkpt lat="43.316065" lon="13.239925"><ele>562.5</ele><time>2026-04-26T14:31:54.503Z</time></trkpt><trkpt lat="43.3161933" lon="13.2400317"><ele>562.0</ele><time>2026-04-26T14:31:55.503Z</time></trkpt><trkpt lat="43.31632" lon="13.2401267"><ele>561.5</ele><time>2026-04-26T14:31:56.503Z</time></trkpt><trkpt lat="43.3164567" lon="13.2402167"><ele>561.0</ele><time>2026-04-26T14:31:57.503Z</time></trkpt><trkpt lat="43.31658" lon="13.240305"><ele>561.0</ele><time>2026-04-26T14:31:58.504Z</time></trkpt><trkpt lat="43.3167117" lon="13.2404"><ele>561.0</ele><time>2026-04-26T14:31:59.503Z</time></trkpt><trkpt lat="43.3168367" lon="13.24049"><ele>561.0</ele><time>2026-04-26T14:32:00.503Z</time></trkpt><trkpt lat="43.3169533" lon="13.24056"><ele>561.0</ele><time>2026-04-26T14:32:01.504Z</time></trkpt><trkpt lat="43.3170667" lon="13.2406333"><ele>557.75</ele><time>2026-04-26T14:32:02.504Z</time></trkpt><trkpt lat="43.3171783" lon="13.2406917"><ele>554.5</ele><time>2026-04-26T14:32:03.503Z</time></trkpt><trkpt lat="43.3172867" lon="13.2407683"><ele>551.25</ele><time>2026-04-26T14:32:04.503Z</time></trkpt><trkpt lat="43.31739" lon="13.240835"><ele>548.0</ele><time>2026-04-26T14:32:05.503Z</time></trkpt><trkpt lat="43.317485" lon="13.240875"><ele>548.0</ele><time>2026-04-26T14:32:06.503Z</time></trkpt><trkpt lat="43.3175633" lon="13.2409"><ele>548.0</ele><time>2026-04-26T14:32:07.503Z</time></trkpt><trkpt lat="43.317625" lon="13.2409267"><ele>548.0</ele><time>2026-04-26T14:32:08.503Z</time></trkpt><trkpt lat="43.3176817" lon="13.2410233"><ele>548.0</ele><time>2026-04-26T14:32:10.503Z</time></trkpt><trkpt lat="43.317615" lon="13.2411633"><ele>548.0</ele><time>2026-04-26T14:32:12.503Z</time></trkpt><trkpt lat="43.3175533" lon="13.2412567"><ele>548.0</ele><time>2026-04-26T14:32:13.503Z</time></trkpt><trkpt lat="43.3174683" lon="13.2413617"><ele>543.75</ele><time>2026-04-26T14:32:14.504Z</time></trkpt><trkpt lat="43.3173733" lon="13.2414867"><ele>539.5</ele><time>2026-04-26T14:32:15.503Z</time></trkpt><trkpt lat="43.3172783" lon="13.2416083"><ele>535.25</ele><time>2026-04-26T14:32:16.503Z</time></trkpt><trkpt lat="43.317175" lon="13.241715"><ele>531.0</ele><time>2026-04-26T14:32:17.503Z</time></trkpt><trkpt lat="43.3170817" lon="13.2418167"><ele>531.0</ele><time>2026-04-26T14:32:18.503Z</time></trkpt><trkpt lat="43.3169933" lon="13.2419217"><ele>531.0</ele><time>2026-04-26T14:32:19.503Z</time></trkpt><trkpt lat="43.3169017" lon="13.2420317"><ele>531.0</ele><time>2026-04-26T14:32:20.503Z</time></trkpt><trkpt lat="43.3168083" lon="13.24213"><ele>531.0</ele><time>2026-04-26T14:32:21.503Z</time></trkpt><trkpt lat="43.316715" lon="13.2422267"><ele>528.8</ele><time>2026-04-26T14:32:22.504Z</time></trkpt><trkpt lat="43.3166333" lon="13.2423267"><ele>526.6</ele><time>2026-04-26T14:32:23.503Z</time></trkpt><trkpt lat="43.3165567" lon="13.242425"><ele>524.4</ele><time>2026-04-26T14:32:24.503Z</time></trkpt><trkpt lat="43.3164933" lon="13.242535"><ele>522.2</ele><time>2026-04-26T14:32:25.503Z</time></trkpt><trkpt lat="43.3164233" lon="13.242645"><ele>520.0</ele><time>2026-04-26T14:32:26.503Z</time></trkpt><trkpt lat="43.3163767" lon="13.242745"><ele>518.6666666666667</ele><time>2026-04-26T14:32:27.503Z</time></trkpt><trkpt lat="43.316345" lon="13.24286"><ele>517.3333333333334</ele><time>2026-04-26T14:32:28.503Z</time></trkpt><trkpt lat="43.3163167" lon="13.242965"><ele>516.0</ele><time>2026-04-26T14:32:29.504Z</time></trkpt><trkpt lat="43.3162883" lon="13.243075"><ele>514.6666666666666</ele><time>2026-04-26T14:32:30.504Z</time></trkpt><trkpt lat="43.316265" lon="13.2431933"><ele>513.3333333333333</ele><time>2026-04-26T14:32:31.503Z</time></trkpt><trkpt lat="43.316245" lon="13.24331"><ele>512.0</ele><time>2026-04-26T14:32:32.504Z</time></trkpt><trkpt lat="43.3162183" lon="13.24344"><ele>510.8</ele><time>2026-04-26T14:32:33.504Z</time></trkpt><trkpt lat="43.316195" lon="13.2435733"><ele>509.6</ele><time>2026-04-26T14:32:34.503Z</time></trkpt><trkpt lat="43.3161783" lon="13.2437133"><ele>508.40000000000003</ele><time>2026-04-26T14:32:35.503Z</time></trkpt><trkpt lat="43.3161633" lon="13.2438517"><ele>507.20000000000005</ele><time>2026-04-26T14:32:36.503Z</time></trkpt><trkpt lat="43.3161483" lon="13.243995"><ele>506.0</ele><time>2026-04-26T14:32:37.503Z</time></trkpt><trkpt lat="43.316135" lon="13.2441233"><ele>505.99999999999994</ele><time>2026-04-26T14:32:38.503Z</time></trkpt><trkpt lat="43.3161233" lon="13.24424"><ele>506.0</ele><time>2026-04-26T14:32:39.504Z</time></trkpt><trkpt lat="43.3161117" lon="13.244345"><ele>506.0</ele><time>2026-04-26T14:32:40.503Z</time></trkpt><trkpt lat="43.316105" lon="13.244435"><ele>506.0</ele><time>2026-04-26T14:32:41.503Z</time></trkpt><trkpt lat="43.3161367" lon="13.244535"><ele>505.99999999999994</ele><time>2026-04-26T14:32:43.503Z</time></trkpt><trkpt lat="43.31624" lon="13.2445017"><ele>506.0</ele><time>2026-04-26T14:32:45.503Z</time></trkpt><trkpt lat="43.3163333" lon="13.244415"><ele>507.0</ele><time>2026-04-26T14:32:46.503Z</time></trkpt><trkpt lat="43.3164617" lon="13.244305"><ele>508.0</ele><time>2026-04-26T14:32:47.503Z</time></trkpt><trkpt lat="43.316615" lon="13.2441833"><ele>509.0</ele><time>2026-04-26T14:32:48.503Z</time></trkpt><trkpt lat="43.3167467" lon="13.244085"><ele>509.0</ele><time>2026-04-26T14:32:49.504Z</time></trkpt><trkpt lat="43.3168717" lon="13.24403"><ele>509.0</ele><time>2026-04-26T14:32:50.503Z</time></trkpt><trkpt lat="43.317005" lon="13.2440183"><ele>509.0</ele><time>2026-04-26T14:32:51.503Z</time></trkpt><trkpt lat="43.3171567" lon="13.2440283"><ele>509.0</ele><time>2026-04-26T14:32:52.503Z</time></trkpt><trkpt lat="43.3173367" lon="13.2440817"><ele>504.66666666666663</ele><time>2026-04-26T14:32:53.503Z</time></trkpt><trkpt lat="43.3175317" lon="13.2441633"><ele>500.33333333333337</ele><time>2026-04-26T14:32:54.504Z</time></trkpt><trkpt lat="43.317735" lon="13.24423"><ele>496.0</ele><time>2026-04-26T14:32:55.503Z</time></trkpt><trkpt lat="43.317925" lon="13.2443"><ele>491.33333333333337</ele><time>2026-04-26T14:32:56.503Z</time></trkpt><trkpt lat="43.3181067" lon="13.244375"><ele>486.66666666666663</ele><time>2026-04-26T14:32:57.504Z</time></trkpt><trkpt lat="43.31827" lon="13.2444333"><ele>482.0</ele><time>2026-04-26T14:32:58.503Z</time></trkpt><trkpt lat="43.318415" lon="13.2444883"><ele>482.0</ele><time>2026-04-26T14:32:59.504Z</time></trkpt><trkpt lat="43.31854" lon="13.2445283"><ele>482.0</ele><time>2026-04-26T14:33:00.503Z</time></trkpt><trkpt lat="43.3186567" lon="13.24454"><ele>482.0</ele><time>2026-04-26T14:33:01.503Z</time></trkpt><trkpt lat="43.3187783" lon="13.244495"><ele>482.0</ele><time>2026-04-26T14:33:02.503Z</time></trkpt><trkpt lat="43.3189167" lon="13.24438"><ele>476.66666666666663</ele><time>2026-04-26T14:33:03.503Z</time></trkpt><trkpt lat="43.3190567" lon="13.2442283"><ele>471.33333333333337</ele><time>2026-04-26T14:33:04.503Z</time></trkpt><trkpt lat="43.3191783" lon="13.2440867"><ele>466.0</ele><time>2026-04-26T14:33:05.503Z</time></trkpt><trkpt lat="43.3192917" lon="13.24397"><ele>466.25</ele><time>2026-04-26T14:33:06.504Z</time></trkpt><trkpt lat="43.3193967" lon="13.24389"><ele>466.5</ele><time>2026-04-26T14:33:07.503Z</time></trkpt><trkpt lat="43.31951" lon="13.2438483"><ele>466.75</ele><time>2026-04-26T14:33:08.504Z</time></trkpt><trkpt lat="43.3196383" lon="13.2438317"><ele>467.0</ele><time>2026-04-26T14:33:09.504Z</time></trkpt><trkpt lat="43.3197867" lon="13.2438633"><ele>467.0</ele><time>2026-04-26T14:33:10.503Z</time></trkpt><trkpt lat="43.3199667" lon="13.2439133"><ele>467.0</ele><time>2026-04-26T14:33:11.503Z</time></trkpt><trkpt lat="43.3201683" lon="13.243975"><ele>467.0</ele><time>2026-04-26T14:33:12.503Z</time></trkpt><trkpt lat="43.320385" lon="13.2440467"><ele>458.5</ele><time>2026-04-26T14:33:13.503Z</time></trkpt><trkpt lat="43.3206083" lon="13.2441267"><ele>450.0</ele><time>2026-04-26T14:33:14.503Z</time></trkpt><trkpt lat="43.320825" lon="13.24419"><ele>450.0</ele><time>2026-04-26T14:33:15.503Z</time></trkpt><trkpt lat="43.3210267" lon="13.24426"><ele>450.0</ele><time>2026-04-26T14:33:16.503Z</time></trkpt><trkpt lat="43.3212083" lon="13.2443183"><ele>450.0</ele><time>2026-04-26T14:33:17.504Z</time></trkpt><trkpt lat="43.3213667" lon="13.244375"><ele>450.75</ele><time>2026-04-26T14:33:18.503Z</time></trkpt><trkpt lat="43.321505" lon="13.2444417"><ele>451.5</ele><time>2026-04-26T14:33:19.503Z</time></trkpt><trkpt lat="43.3216267" lon="13.2445433"><ele>452.25</ele><time>2026-04-26T14:33:20.503Z</time></trkpt><trkpt lat="43.3217383" lon="13.2446583"><ele>453.0</ele><time>2026-04-26T14:33:21.503Z</time></trkpt><trkpt lat="43.3218583" lon="13.24479"><ele>454.25</ele><time>2026-04-26T14:33:22.503Z</time></trkpt><trkpt lat="43.3219633" lon="13.2449217"><ele>455.5</ele><time>2026-04-26T14:33:23.504Z</time></trkpt><trkpt lat="43.3220733" lon="13.2450383"><ele>456.75</ele><time>2026-04-26T14:33:24.503Z</time></trkpt><trkpt lat="43.3221933" lon="13.245115"><ele>458.0</ele><time>2026-04-26T14:33:25.503Z</time></trkpt><trkpt lat="43.322325" lon="13.2451483"><ele>458.0</ele><time>2026-04-26T14:33:26.503Z</time></trkpt><trkpt lat="43.322455" lon="13.2451583"><ele>458.0</ele><time>2026-04-26T14:33:27.503Z</time></trkpt><trkpt lat="43.322595" lon="13.2451383"><ele>458.0</ele><time>2026-04-26T14:33:28.503Z</time></trkpt><trkpt lat="43.322745" lon="13.2450833"><ele>458.0</ele><time>2026-04-26T14:33:29.503Z</time></trkpt><trkpt lat="43.3229067" lon="13.245015"><ele>457.66666666666663</ele><time>2026-04-26T14:33:30.503Z</time></trkpt><trkpt lat="43.3230767" lon="13.2449583"><ele>457.33333333333337</ele><time>2026-04-26T14:33:31.503Z</time></trkpt><trkpt lat="43.3232483" lon="13.2448967"><ele>457.0</ele><time>2026-04-26T14:33:32.503Z</time></trkpt><trkpt lat="43.32342" lon="13.2448417"><ele>457.0</ele><time>2026-04-26T14:33:33.503Z</time></trkpt><trkpt lat="43.3236017" lon="13.2448"><ele>457.0</ele><time>2026-04-26T14:33:34.503Z</time></trkpt><trkpt lat="43.3237917" lon="13.2447417"><ele>457.0</ele><time>2026-04-26T14:33:35.504Z</time></trkpt><trkpt lat="43.32398" lon="13.244695"><ele>460.0</ele><time>2026-04-26T14:33:36.503Z</time></trkpt><trkpt lat="43.3241667" lon="13.24464"><ele>463.0</ele><time>2026-04-26T14:33:37.503Z</time></trkpt><trkpt lat="43.32434" lon="13.2445933"><ele>466.0</ele><time>2026-04-26T14:33:38.503Z</time></trkpt><trkpt lat="43.3245" lon="13.24456"><ele>466.0</ele><time>2026-04-26T14:33:39.503Z</time></trkpt><trkpt lat="43.3246483" lon="13.244525"><ele>466.0</ele><time>2026-04-26T14:33:40.503Z</time></trkpt><trkpt lat="43.324795" lon="13.2445033"><ele>466.0</ele><time>2026-04-26T14:33:41.503Z</time></trkpt><trkpt lat="43.32495" lon="13.2445083"><ele>461.6666666666667</ele><time>2026-04-26T14:33:42.503Z</time></trkpt><trkpt lat="43.3251167" lon="13.2445233"><ele>457.33333333333337</ele><time>2026-04-26T14:33:43.503Z</time></trkpt><trkpt lat="43.3252817" lon="13.244545"><ele>453.0</ele><time>2026-04-26T14:33:44.503Z</time></trkpt><trkpt lat="43.3254367" lon="13.2445683"><ele>451.25</ele><time>2026-04-26T14:33:45.504Z</time></trkpt><trkpt lat="43.325575" lon="13.2446167"><ele>449.5</ele><time>2026-04-26T14:33:46.503Z</time></trkpt><trkpt lat="43.3257067" lon="13.2447033"><ele>447.75</ele><time>2026-04-26T14:33:47.503Z</time></trkpt><trkpt lat="43.3258283" lon="13.2448417"><ele>446.0</ele><time>2026-04-26T14:33:48.503Z</time></trkpt><trkpt lat="43.3259367" lon="13.2450233"><ele>442.66666666666663</ele><time>2026-04-26T14:33:49.503Z</time></trkpt><trkpt lat="43.32606" lon="13.2452183"><ele>439.33333333333337</ele><time>2026-04-26T14:33:50.503Z</time></trkpt><trkpt lat="43.3261917" lon="13.24542"><ele>436.0</ele><time>2026-04-26T14:33:51.503Z</time></trkpt><trkpt lat="43.3263217" lon="13.2456167"><ele>435.0</ele><time>2026-04-26T14:33:52.503Z</time></trkpt><trkpt lat="43.32644" lon="13.2457933"><ele>434.0</ele><time>2026-04-26T14:33:53.503Z</time></trkpt><trkpt lat="43.3265433" lon="13.2459617"><ele>433.0</ele><time>2026-04-26T14:33:54.503Z</time></trkpt><trkpt lat="43.3266317" lon="13.246105"><ele>433.0</ele><time>2026-04-26T14:33:55.503Z</time></trkpt><trkpt lat="43.3267017" lon="13.2462217"><ele>432.99999999999994</ele><time>2026-04-26T14:33:56.503Z</time></trkpt><trkpt lat="43.3267583" lon="13.2463067"><ele>432.99999999999994</ele><time>2026-04-26T14:33:57.503Z</time></trkpt><trkpt lat="43.3268333" lon="13.2463383"><ele>433.0</ele><time>2026-04-26T14:33:59.504Z</time></trkpt><trkpt lat="43.3269083" lon="13.246255"><ele>433.0</ele><time>2026-04-26T14:34:01.503Z</time></trkpt><trkpt lat="43.327035" lon="13.2462383"><ele>433.0</ele><time>2026-04-26T14:34:03.503Z</time></trkpt><trkpt lat="43.32712" lon="13.2462283"><ele>432.99999999999994</ele><time>2026-04-26T14:34:04.503Z</time></trkpt><trkpt lat="43.3272183" lon="13.24622"><ele>432.99999999999994</ele><time>2026-04-26T14:34:05.503Z</time></trkpt><trkpt lat="43.3273117" lon="13.2462033"><ele>433.0</ele><time>2026-04-26T14:34:06.503Z</time></trkpt><trkpt lat="43.3274017" lon="13.246185"><ele>433.0</ele><time>2026-04-26T14:34:07.503Z</time></trkpt><trkpt lat="43.32749" lon="13.2461783"><ele>433.1666666666667</ele><time>2026-04-26T14:34:08.503Z</time></trkpt><trkpt lat="43.3275767" lon="13.2461817"><ele>433.33333333333337</ele><time>2026-04-26T14:34:09.503Z</time></trkpt><trkpt lat="43.3276683" lon="13.2461817"><ele>433.5</ele><time>2026-04-26T14:34:10.504Z</time></trkpt><trkpt lat="43.3277483" lon="13.2461733"><ele>433.66666666666663</ele><time>2026-04-26T14:34:11.503Z</time></trkpt><trkpt lat="43.32783" lon="13.2461567"><ele>433.8333333333333</ele><time>2026-04-26T14:34:12.503Z</time></trkpt><trkpt lat="43.32791" lon="13.2461483"><ele>434.0</ele><time>2026-04-26T14:34:13.503Z</time></trkpt><trkpt lat="43.3279733" lon="13.2461517"><ele>433.99999999999994</ele><time>2026-04-26T14:34:14.503Z</time></trkpt><trkpt lat="43.3280383" lon="13.2461883"><ele>434.0</ele><time>2026-04-26T14:34:15.503Z</time></trkpt><trkpt lat="43.328095" lon="13.2462483"><ele>434.0</ele><time>2026-04-26T14:34:16.503Z</time></trkpt><trkpt lat="43.3281483" lon="13.246345"><ele>434.0</ele><time>2026-04-26T14:34:17.504Z</time></trkpt><trkpt lat="43.3281983" lon="13.2464333"><ele>433.99999999999994</ele><time>2026-04-26T14:34:18.503Z</time></trkpt><trkpt lat="43.3282583" lon="13.246515"><ele>434.0</ele><time>2026-04-26T14:34:19.503Z</time></trkpt><trkpt lat="43.3283317" lon="13.24658"><ele>431.2</ele><time>2026-04-26T14:34:20.503Z</time></trkpt><trkpt lat="43.3284283" lon="13.2466267"><ele>428.4</ele><time>2026-04-26T14:34:21.504Z</time></trkpt><trkpt lat="43.3285267" lon="13.24667"><ele>425.6</ele><time>2026-04-26T14:34:22.503Z</time></trkpt><trkpt lat="43.32862" lon="13.2467233"><ele>422.8</ele><time>2026-04-26T14:34:23.503Z</time></trkpt><trkpt lat="43.3287083" lon="13.2467783"><ele>420.0</ele><time>2026-04-26T14:34:24.503Z</time></trkpt><trkpt lat="43.328795" lon="13.2468267"><ele>420.0</ele><time>2026-04-26T14:34:25.503Z</time></trkpt><trkpt lat="43.3288767" lon="13.2468717"><ele>420.0</ele><time>2026-04-26T14:34:26.503Z</time></trkpt><trkpt lat="43.328965" lon="13.24691"><ele>420.0</ele><time>2026-04-26T14:34:27.503Z</time></trkpt><trkpt lat="43.3290433" lon="13.2469633"><ele>420.0</ele><time>2026-04-26T14:34:28.504Z</time></trkpt><trkpt lat="43.3291317" lon="13.246995"><ele>420.0</ele><time>2026-04-26T14:34:29.503Z</time></trkpt><trkpt lat="43.329225" lon="13.2470217"><ele>418.2</ele><time>2026-04-26T14:34:30.503Z</time></trkpt><trkpt lat="43.3293167" lon="13.24706"><ele>416.4</ele><time>2026-04-26T14:34:31.504Z</time></trkpt><trkpt lat="43.3294117" lon="13.2470967"><ele>414.6</ele><time>2026-04-26T14:34:32.503Z</time></trkpt><trkpt lat="43.3295017" lon="13.2471367"><ele>412.8</ele><time>2026-04-26T14:34:33.503Z</time></trkpt><trkpt lat="43.3296017" lon="13.24717"><ele>411.0</ele><time>2026-04-26T14:34:34.503Z</time></trkpt><trkpt lat="43.3296967" lon="13.24719"><ele>409.4</ele><time>2026-04-26T14:34:35.503Z</time></trkpt><trkpt lat="43.3297933" lon="13.2472167"><ele>407.8</ele><time>2026-04-26T14:34:36.503Z</time></trkpt><trkpt lat="43.329895" lon="13.2472233"><ele>406.2</ele><time>2026-04-26T14:34:37.503Z</time></trkpt><trkpt lat="43.3300017" lon="13.24723"><ele>404.59999999999997</ele><time>2026-04-26T14:34:38.503Z</time></trkpt><trkpt lat="43.33012" lon="13.2472217"><ele>403.0</ele><time>2026-04-26T14:34:39.503Z</time></trkpt><trkpt lat="43.3302517" lon="13.2471983"><ele>403.0</ele><time>2026-04-26T14:34:40.503Z</time></trkpt><trkpt lat="43.3303717" lon="13.2471667"><ele>403.0</ele><time>2026-04-26T14:34:41.503Z</time></trkpt><trkpt lat="43.3304867" lon="13.2471383"><ele>403.0</ele><time>2026-04-26T14:34:42.504Z</time></trkpt><trkpt lat="43.3305883" lon="13.2471333"><ele>403.0</ele><time>2026-04-26T14:34:43.504Z</time></trkpt><trkpt lat="43.3306833" lon="13.2471267"><ele>403.0</ele><time>2026-04-26T14:34:44.503Z</time></trkpt><trkpt lat="43.3307733" lon="13.2471267"><ele>400.79999999999995</ele><time>2026-04-26T14:34:45.503Z</time></trkpt><trkpt lat="43.330865" lon="13.2471267"><ele>398.6</ele><time>2026-04-26T14:34:46.503Z</time></trkpt><trkpt lat="43.33096" lon="13.247145"><ele>396.4</ele><time>2026-04-26T14:34:47.503Z</time></trkpt><trkpt lat="43.3310517" lon="13.247165"><ele>394.20000000000005</ele><time>2026-04-26T14:34:48.503Z</time></trkpt><trkpt lat="43.3311483" lon="13.24719"><ele>392.0</ele><time>2026-04-26T14:34:49.503Z</time></trkpt><trkpt lat="43.3312467" lon="13.2472083"><ele>392.0</ele><time>2026-04-26T14:34:50.503Z</time></trkpt><trkpt lat="43.3313583" lon="13.2472117"><ele>392.0</ele><time>2026-04-26T14:34:51.504Z</time></trkpt><trkpt lat="43.3314783" lon="13.2472183"><ele>392.0</ele><time>2026-04-26T14:34:52.503Z</time></trkpt><trkpt lat="43.33159" lon="13.24722"><ele>392.0</ele><time>2026-04-26T14:34:53.503Z</time></trkpt><trkpt lat="43.3316883" lon="13.2472333"><ele>392.0</ele><time>2026-04-26T14:34:54.503Z</time></trkpt><trkpt lat="43.331785" lon="13.247255"><ele>390.66666666666663</ele><time>2026-04-26T14:34:55.503Z</time></trkpt><trkpt lat="43.3318683" lon="13.2472783"><ele>389.3333333333333</ele><time>2026-04-26T14:34:56.504Z</time></trkpt><trkpt lat="43.331955" lon="13.2473217"><ele>388.0</ele><time>2026-04-26T14:34:57.503Z</time></trkpt><trkpt lat="43.332035" lon="13.2473783"><ele>386.66666666666663</ele><time>2026-04-26T14:34:58.503Z</time></trkpt><trkpt lat="43.3321133" lon="13.2474383"><ele>385.3333333333333</ele><time>2026-04-26T14:34:59.504Z</time></trkpt><trkpt lat="43.3321883" lon="13.247505"><ele>384.0</ele><time>2026-04-26T14:35:00.504Z</time></trkpt><trkpt lat="43.332265" lon="13.24756"><ele>382.1666666666667</ele><time>2026-04-26T14:35:01.503Z</time></trkpt><trkpt lat="43.3323517" lon="13.2475933"><ele>380.3333333333333</ele><time>2026-04-26T14:35:02.504Z</time></trkpt><trkpt lat="43.332435" lon="13.247625"><ele>378.5</ele><time>2026-04-26T14:35:03.503Z</time></trkpt><trkpt lat="43.33252" lon="13.2476383"><ele>376.66666666666663</ele><time>2026-04-26T14:35:04.503Z</time></trkpt><trkpt lat="43.3325983" lon="13.2476367"><ele>374.8333333333333</ele><time>2026-04-26T14:35:05.504Z</time></trkpt><trkpt lat="43.3326667" lon="13.2476217"><ele>373.0</ele><time>2026-04-26T14:35:06.503Z</time></trkpt><trkpt lat="43.3327833" lon="13.247645"><ele>373.0</ele><time>2026-04-26T14:35:08.503Z</time></trkpt><trkpt lat="43.332855" lon="13.2476933"><ele>373.0</ele><time>2026-04-26T14:35:09.503Z</time></trkpt><trkpt lat="43.3329233" lon="13.247765"><ele>373.0</ele><time>2026-04-26T14:35:10.503Z</time></trkpt><trkpt lat="43.3329967" lon="13.2478167"><ele>373.0</ele><time>2026-04-26T14:35:11.503Z</time></trkpt><trkpt lat="43.333075" lon="13.2478567"><ele>373.0</ele><time>2026-04-26T14:35:12.503Z</time></trkpt><trkpt lat="43.33316" lon="13.2478817"><ele>373.0</ele><time>2026-04-26T14:35:13.503Z</time></trkpt><trkpt lat="43.3332383" lon="13.2478967"><ele>371.5</ele><time>2026-04-26T14:35:14.503Z</time></trkpt><trkpt lat="43.3333017" lon="13.2479167"><ele>370.0</ele><time>2026-04-26T14:35:15.503Z</time></trkpt><trkpt lat="43.3333817" lon="13.2479833"><ele>368.5</ele><time>2026-04-26T14:35:17.503Z</time></trkpt><trkpt lat="43.3333883" lon="13.248095"><ele>367.0</ele><time>2026-04-26T14:35:19.503Z</time></trkpt><trkpt lat="43.3333083" lon="13.2481967"><ele>365.5</ele><time>2026-04-26T14:35:21.503Z</time></trkpt><trkpt lat="43.3332217" lon="13.2482433"><ele>364.0</ele><time>2026-04-26T14:35:22.503Z</time></trkpt><trkpt lat="43.3331383" lon="13.2482867"><ele>364.0</ele><time>2026-04-26T14:35:23.504Z</time></trkpt><trkpt lat="43.3330767" lon="13.2483333"><ele>364.0</ele><time>2026-04-26T14:35:24.503Z</time></trkpt><trkpt lat="43.333" lon="13.2484467"><ele>364.0</ele><time>2026-04-26T14:35:26.503Z</time></trkpt><trkpt lat="43.3330167" lon="13.2485417"><ele>364.0</ele><time>2026-04-26T14:35:28.503Z</time></trkpt><trkpt lat="43.3331483" lon="13.2486383"><ele>364.0</ele><time>2026-04-26T14:35:30.504Z</time></trkpt><trkpt lat="43.333265" lon="13.2487033"><ele>364.0</ele><time>2026-04-26T14:35:31.503Z</time></trkpt><trkpt lat="43.3333983" lon="13.2487633"><ele>364.0</ele><time>2026-04-26T14:35:32.503Z</time></trkpt><trkpt lat="43.3335317" lon="13.2488183"><ele>364.0</ele><time>2026-04-26T14:35:33.503Z</time></trkpt><trkpt lat="43.3336433" lon="13.248885"><ele>364.0</ele><time>2026-04-26T14:35:34.503Z</time></trkpt><trkpt lat="43.3337417" lon="13.24898"><ele>363.5</ele><time>2026-04-26T14:35:35.503Z</time></trkpt><trkpt lat="43.33382" lon="13.24911"><ele>363.0</ele><time>2026-04-26T14:35:36.503Z</time></trkpt><trkpt lat="43.3338967" lon="13.2492483"><ele>362.5</ele><time>2026-04-26T14:35:37.503Z</time></trkpt><trkpt lat="43.3339833" lon="13.2493833"><ele>362.0</ele><time>2026-04-26T14:35:38.504Z</time></trkpt><trkpt lat="43.33408" lon="13.249505"><ele>362.0</ele><time>2026-04-26T14:35:39.503Z</time></trkpt><trkpt lat="43.3341817" lon="13.2496117"><ele>362.0</ele><time>2026-04-26T14:35:40.503Z</time></trkpt><trkpt lat="43.3342933" lon="13.2497017"><ele>362.0</ele><time>2026-04-26T14:35:41.504Z</time></trkpt><trkpt lat="43.3344133" lon="13.2497767"><ele>362.0</ele><time>2026-04-26T14:35:42.504Z</time></trkpt><trkpt lat="43.3345483" lon="13.249835"><ele>363.0</ele><time>2026-04-26T14:35:43.503Z</time></trkpt><trkpt lat="43.3346683" lon="13.2498867"><ele>364.0</ele><time>2026-04-26T14:35:44.503Z</time></trkpt><trkpt lat="43.3347833" lon="13.249945"><ele>365.0</ele><time>2026-04-26T14:35:45.503Z</time></trkpt><trkpt lat="43.3348867" lon="13.2500167"><ele>366.0</ele><time>2026-04-26T14:35:46.504Z</time></trkpt><trkpt lat="43.3349667" lon="13.2501033"><ele>366.0</ele><time>2026-04-26T14:35:47.504Z</time></trkpt><trkpt lat="43.33504" lon="13.2501967"><ele>366.0</ele><time>2026-04-26T14:35:48.503Z</time></trkpt><trkpt lat="43.335105" lon="13.250295"><ele>366.0</ele><time>2026-04-26T14:35:49.503Z</time></trkpt><trkpt lat="43.33517" lon="13.25039"><ele>366.0</ele><time>2026-04-26T14:35:50.503Z</time></trkpt><trkpt lat="43.3352133" lon="13.25049"><ele>366.0</ele><time>2026-04-26T14:35:51.503Z</time></trkpt><trkpt lat="43.3352417" lon="13.2505883"><ele>365.8</ele><time>2026-04-26T14:35:52.504Z</time></trkpt><trkpt lat="43.3352583" lon="13.2507117"><ele>365.6</ele><time>2026-04-26T14:35:53.504Z</time></trkpt><trkpt lat="43.3352633" lon="13.2508533"><ele>365.4</ele><time>2026-04-26T14:35:54.503Z</time></trkpt><trkpt lat="43.3352533" lon="13.2509883"><ele>365.2</ele><time>2026-04-26T14:35:55.503Z</time></trkpt><trkpt lat="43.3352483" lon="13.2511117"><ele>365.0</ele><time>2026-04-26T14:35:56.503Z</time></trkpt><trkpt lat="43.3352567" lon="13.2512317"><ele>365.0</ele><time>2026-04-26T14:35:57.503Z</time></trkpt><trkpt lat="43.3352967" lon="13.251365"><ele>365.0</ele><time>2026-04-26T14:35:58.503Z</time></trkpt><trkpt lat="43.3353567" lon="13.2514917"><ele>365.0</ele><time>2026-04-26T14:35:59.503Z</time></trkpt><trkpt lat="43.3354383" lon="13.2516217"><ele>365.0</ele><time>2026-04-26T14:36:00.503Z</time></trkpt><trkpt lat="43.3355333" lon="13.2517483"><ele>362.0</ele><time>2026-04-26T14:36:01.503Z</time></trkpt><trkpt lat="43.335625" lon="13.2518833"><ele>359.0</ele><time>2026-04-26T14:36:02.503Z</time></trkpt><trkpt lat="43.3357133" lon="13.2520333"><ele>356.0</ele><time>2026-04-26T14:36:03.503Z</time></trkpt><trkpt lat="43.3357967" lon="13.252195"><ele>353.0</ele><time>2026-04-26T14:36:04.503Z</time></trkpt><trkpt lat="43.3358733" lon="13.2523667"><ele>352.75</ele><time>2026-04-26T14:36:05.503Z</time></trkpt><trkpt lat="43.3359467" lon="13.2525417"><ele>352.5</ele><time>2026-04-26T14:36:06.503Z</time></trkpt><trkpt lat="43.3360083" lon="13.25271"><ele>352.25</ele><time>2026-04-26T14:36:07.503Z</time></trkpt><trkpt lat="43.336065" lon="13.25287"><ele>352.0</ele><time>2026-04-26T14:36:08.503Z</time></trkpt><trkpt lat="43.33611" lon="13.2530233"><ele>351.5</ele><time>2026-04-26T14:36:09.503Z</time></trkpt><trkpt lat="43.336145" lon="13.25318"><ele>351.0</ele><time>2026-04-26T14:36:10.503Z</time></trkpt><trkpt lat="43.3361833" lon="13.2533383"><ele>350.5</ele><time>2026-04-26T14:36:11.503Z</time></trkpt><trkpt lat="43.3362383" lon="13.253515"><ele>350.0</ele><time>2026-04-26T14:36:12.503Z</time></trkpt><trkpt lat="43.3363033" lon="13.2537133"><ele>350.0</ele><time>2026-04-26T14:36:13.503Z</time></trkpt><trkpt lat="43.3363783" lon="13.253905"><ele>350.0</ele><time>2026-04-26T14:36:14.503Z</time></trkpt><trkpt lat="43.3364433" lon="13.2540783"><ele>350.0</ele><time>2026-04-26T14:36:15.503Z</time></trkpt><trkpt lat="43.3364917" lon="13.2542217"><ele>350.0</ele><time>2026-04-26T14:36:16.503Z</time></trkpt><trkpt lat="43.33654" lon="13.2543683"><ele>347.75</ele><time>2026-04-26T14:36:17.503Z</time></trkpt><trkpt lat="43.3365767" lon="13.25454"><ele>345.5</ele><time>2026-04-26T14:36:18.503Z</time></trkpt><trkpt lat="43.336605" lon="13.254725"><ele>343.25</ele><time>2026-04-26T14:36:19.504Z</time></trkpt><trkpt lat="43.3366433" lon="13.254925"><ele>341.0</ele><time>2026-04-26T14:36:20.504Z</time></trkpt><trkpt lat="43.3366817" lon="13.2551233"><ele>340.75</ele><time>2026-04-26T14:36:21.504Z</time></trkpt><trkpt lat="43.3367183" lon="13.2553133"><ele>340.5</ele><time>2026-04-26T14:36:22.503Z</time></trkpt><trkpt lat="43.3367533" lon="13.2554733"><ele>340.25</ele><time>2026-04-26T14:36:23.503Z</time></trkpt><trkpt lat="43.3367817" lon="13.25562"><ele>340.0</ele><time>2026-04-26T14:36:24.504Z</time></trkpt><trkpt lat="43.3368067" lon="13.2557467"><ele>339.66666666666663</ele><time>2026-04-26T14:36:25.504Z</time></trkpt><trkpt lat="43.3368133" lon="13.2558567"><ele>339.3333333333333</ele><time>2026-04-26T14:36:26.503Z</time></trkpt><trkpt lat="43.336805" lon="13.25595"><ele>339.0</ele><time>2026-04-26T14:36:27.503Z</time></trkpt><trkpt lat="43.3368317" lon="13.2561117"><ele>338.6666666666667</ele><time>2026-04-26T14:36:29.503Z</time></trkpt><trkpt lat="43.33688" lon="13.2561983"><ele>338.33333333333337</ele><time>2026-04-26T14:36:30.503Z</time></trkpt><trkpt lat="43.3369333" lon="13.2563017"><ele>338.0</ele><time>2026-04-26T14:36:31.504Z</time></trkpt><trkpt lat="43.3370033" lon="13.256425"><ele>338.0</ele><time>2026-04-26T14:36:32.504Z</time></trkpt><trkpt lat="43.3370717" lon="13.2565833"><ele>338.0</ele><time>2026-04-26T14:36:33.503Z</time></trkpt><trkpt lat="43.3371433" lon="13.2567517"><ele>338.0</ele><time>2026-04-26T14:36:34.503Z</time></trkpt><trkpt lat="43.337225" lon="13.2569083"><ele>338.0</ele><time>2026-04-26T14:36:35.503Z</time></trkpt><trkpt lat="43.337305" lon="13.2570567"><ele>337.0</ele><time>2026-04-26T14:36:36.503Z</time></trkpt><trkpt lat="43.33738" lon="13.2572133"><ele>336.0</ele><time>2026-04-26T14:36:37.504Z</time></trkpt><trkpt lat="43.3374533" lon="13.2573883"><ele>335.0</ele><time>2026-04-26T14:36:38.503Z</time></trkpt><trkpt lat="43.3375217" lon="13.2575717"><ele>334.0</ele><time>2026-04-26T14:36:39.503Z</time></trkpt><trkpt lat="43.33758" lon="13.2577667"><ele>334.0</ele><time>2026-04-26T14:36:40.503Z</time></trkpt><trkpt lat="43.3376467" lon="13.257945"><ele>334.0</ele><time>2026-04-26T14:36:41.503Z</time></trkpt><trkpt lat="43.3377067" lon="13.2581283"><ele>334.0</ele><time>2026-04-26T14:36:42.503Z</time></trkpt><trkpt lat="43.3377683" lon="13.2583083"><ele>334.0</ele><time>2026-04-26T14:36:43.504Z</time></trkpt><trkpt lat="43.3378317" lon="13.2585033"><ele>334.3333333333333</ele><time>2026-04-26T14:36:44.503Z</time></trkpt><trkpt lat="43.337905" lon="13.2587"><ele>334.6666666666667</ele><time>2026-04-26T14:36:45.503Z</time></trkpt><trkpt lat="43.3379783" lon="13.2589017"><ele>335.0</ele><time>2026-04-26T14:36:46.503Z</time></trkpt><trkpt lat="43.3380417" lon="13.259095"><ele>332.75</ele><time>2026-04-26T14:36:47.503Z</time></trkpt><trkpt lat="43.338105" lon="13.25928"><ele>330.5</ele><time>2026-04-26T14:36:48.504Z</time></trkpt><trkpt lat="43.3381633" lon="13.25945"><ele>328.25</ele><time>2026-04-26T14:36:49.504Z</time></trkpt><trkpt lat="43.3382167" lon="13.2596017"><ele>326.0</ele><time>2026-04-26T14:36:50.503Z</time></trkpt><trkpt lat="43.3382633" lon="13.259735"><ele>326.25</ele><time>2026-04-26T14:36:51.503Z</time></trkpt><trkpt lat="43.33832" lon="13.2598617"><ele>326.5</ele><time>2026-04-26T14:36:52.504Z</time></trkpt><trkpt lat="43.3384033" lon="13.2599783"><ele>326.75</ele><time>2026-04-26T14:36:53.503Z</time></trkpt><trkpt lat="43.3384883" lon="13.2600817"><ele>327.0</ele><time>2026-04-26T14:36:54.503Z</time></trkpt><trkpt lat="43.338575" lon="13.2601917"><ele>327.0</ele><time>2026-04-26T14:36:55.503Z</time></trkpt><trkpt lat="43.3386467" lon="13.2602983"><ele>327.0</ele><time>2026-04-26T14:36:56.503Z</time></trkpt><trkpt lat="43.338715" lon="13.2604117"><ele>327.0</ele><time>2026-04-26T14:36:57.504Z</time></trkpt><trkpt lat="43.3387783" lon="13.26049"><ele>327.0</ele><time>2026-04-26T14:36:58.503Z</time></trkpt><trkpt lat="43.338835" lon="13.2605767"><ele>327.0</ele><time>2026-04-26T14:36:59.503Z</time></trkpt><trkpt lat="43.3388783" lon="13.2606733"><ele>322.5</ele><time>2026-04-26T14:37:00.503Z</time></trkpt><trkpt lat="43.3389117" lon="13.26079"><ele>318.0</ele><time>2026-04-26T14:37:01.503Z</time></trkpt><trkpt lat="43.3389283" lon="13.2609283"><ele>313.5</ele><time>2026-04-26T14:37:02.503Z</time></trkpt><trkpt lat="43.3389333" lon="13.2610933"><ele>309.0</ele><time>2026-04-26T14:37:03.504Z</time></trkpt><trkpt lat="43.3389317" lon="13.2612833"><ele>309.0</ele><time>2026-04-26T14:37:04.504Z</time></trkpt><trkpt lat="43.3389333" lon="13.2614633"><ele>309.0</ele><time>2026-04-26T14:37:05.503Z</time></trkpt><trkpt lat="43.3389483" lon="13.2616167"><ele>309.0</ele><time>2026-04-26T14:37:06.503Z</time></trkpt><trkpt lat="43.3389717" lon="13.2617567"><ele>309.0</ele><time>2026-04-26T14:37:07.503Z</time></trkpt><trkpt lat="43.33901" lon="13.26187"><ele>309.0</ele><time>2026-04-26T14:37:08.504Z</time></trkpt><trkpt lat="43.3390567" lon="13.26195"><ele>309.0</ele><time>2026-04-26T14:37:09.503Z</time></trkpt><trkpt lat="43.3391017" lon="13.2620167"><ele>309.0</ele><time>2026-04-26T14:37:10.503Z</time></trkpt><trkpt lat="43.3391483" lon="13.2620833"><ele>309.0</ele><time>2026-04-26T14:37:11.503Z</time></trkpt><trkpt lat="43.3392183" lon="13.26218"><ele>309.0</ele><time>2026-04-26T14:37:12.503Z</time></trkpt><trkpt lat="43.339295" lon="13.2622967"><ele>309.0</ele><time>2026-04-26T14:37:13.503Z</time></trkpt><trkpt lat="43.3393633" lon="13.2624433"><ele>308.75</ele><time>2026-04-26T14:37:14.504Z</time></trkpt><trkpt lat="43.3394217" lon="13.2625967"><ele>308.5</ele><time>2026-04-26T14:37:15.503Z</time></trkpt><trkpt lat="43.3394833" lon="13.2627283"><ele>308.25</ele><time>2026-04-26T14:37:16.503Z</time></trkpt><trkpt lat="43.33956" lon="13.2628633"><ele>308.0</ele><time>2026-04-26T14:37:17.503Z</time></trkpt><trkpt lat="43.3396467" lon="13.26298"><ele>306.0</ele><time>2026-04-26T14:37:18.503Z</time></trkpt><trkpt lat="43.3397333" lon="13.2630833"><ele>304.0</ele><time>2026-04-26T14:37:19.503Z</time></trkpt><trkpt lat="43.3398133" lon="13.2631617"><ele>302.0</ele><time>2026-04-26T14:37:20.503Z</time></trkpt><trkpt lat="43.3398833" lon="13.263225"><ele>300.0</ele><time>2026-04-26T14:37:21.503Z</time></trkpt><trkpt lat="43.33994" lon="13.2632683"><ele>298.0</ele><time>2026-04-26T14:37:22.503Z</time></trkpt><trkpt lat="43.3400417" lon="13.2632767"><ele>298.0</ele><time>2026-04-26T14:37:24.503Z</time></trkpt><trkpt lat="43.34009" lon="13.2632067"><ele>298.0</ele><time>2026-04-26T14:37:25.504Z</time></trkpt><trkpt lat="43.34014" lon="13.2630933"><ele>298.0</ele><time>2026-04-26T14:37:26.504Z</time></trkpt><trkpt lat="43.3401767" lon="13.262955"><ele>298.0</ele><time>2026-04-26T14:37:27.503Z</time></trkpt><trkpt lat="43.3402033" lon="13.2628383"><ele>298.0</ele><time>2026-04-26T14:37:28.503Z</time></trkpt><trkpt lat="43.3402367" lon="13.2627583"><ele>298.0</ele><time>2026-04-26T14:37:29.504Z</time></trkpt><trkpt lat="43.340315" lon="13.2626983"><ele>298.0</ele><time>2026-04-26T14:37:31.503Z</time></trkpt><trkpt lat="43.3403667" lon="13.26277"><ele>298.0</ele><time>2026-04-26T14:37:33.503Z</time></trkpt><trkpt lat="43.34037" lon="13.2629"><ele>298.0</ele><time>2026-04-26T14:37:35.503Z</time></trkpt><trkpt lat="43.3403433" lon="13.2630483"><ele>298.0</ele><time>2026-04-26T14:37:37.504Z</time></trkpt><trkpt lat="43.34034" lon="13.2631383"><ele>298.0</ele><time>2026-04-26T14:37:38.503Z</time></trkpt><trkpt lat="43.3403833" lon="13.2632583"><ele>298.0</ele><time>2026-04-26T14:37:40.503Z</time></trkpt><trkpt lat="43.3404867" lon="13.2632367"><ele>295.8</ele><time>2026-04-26T14:37:42.503Z</time></trkpt><trkpt lat="43.3405633" lon="13.263165"><ele>293.6</ele><time>2026-04-26T14:37:43.503Z</time></trkpt><trkpt lat="43.340625" lon="13.26308"><ele>291.4</ele><time>2026-04-26T14:37:44.503Z</time></trkpt><trkpt lat="43.3407083" lon="13.2630083"><ele>289.2</ele><time>2026-04-26T14:37:46.503Z</time></trkpt><trkpt lat="43.3407033" lon="13.2631583"><ele>287.0</ele><time>2026-04-26T14:37:49.503Z</time></trkpt><trkpt lat="43.3406383" lon="13.2632717"><ele>289.75</ele><time>2026-04-26T14:37:50.503Z</time></trkpt><trkpt lat="43.3405467" lon="13.2634133"><ele>292.5</ele><time>2026-04-26T14:37:51.504Z</time></trkpt><trkpt lat="43.340465" lon="13.2635417"><ele>295.25</ele><time>2026-04-26T14:37:52.503Z</time></trkpt><trkpt lat="43.3403983" lon="13.2636683"><ele>298.0</ele><time>2026-04-26T14:37:53.503Z</time></trkpt><trkpt lat="43.3403567" lon="13.263775"><ele>298.0</ele><time>2026-04-26T14:37:54.503Z</time></trkpt><trkpt lat="43.3403433" lon="13.2638833"><ele>298.0</ele><time>2026-04-26T14:37:55.503Z</time></trkpt><trkpt lat="43.34035" lon="13.2639817"><ele>298.0</ele><time>2026-04-26T14:37:56.503Z</time></trkpt><trkpt lat="43.3403883" lon="13.26407"><ele>298.0</ele><time>2026-04-26T14:37:57.503Z</time></trkpt><trkpt lat="43.34046" lon="13.2641283"><ele>298.0</ele><time>2026-04-26T14:37:58.503Z</time></trkpt><trkpt lat="43.340555" lon="13.2641733"><ele>298.0</ele><time>2026-04-26T14:37:59.504Z</time></trkpt><trkpt lat="43.3406617" lon="13.2642083"><ele>295.8</ele><time>2026-04-26T14:38:00.503Z</time></trkpt><trkpt lat="43.34076" lon="13.264265"><ele>293.6</ele><time>2026-04-26T14:38:01.503Z</time></trkpt><trkpt lat="43.3408267" lon="13.2643567"><ele>291.4</ele><time>2026-04-26T14:38:02.503Z</time></trkpt><trkpt lat="43.3408567" lon="13.26447"><ele>289.2</ele><time>2026-04-26T14:38:03.503Z</time></trkpt><trkpt lat="43.3408683" lon="13.2646483"><ele>287.0</ele><time>2026-04-26T14:38:04.503Z</time></trkpt><trkpt lat="43.3408867" lon="13.26489"><ele>287.0</ele><time>2026-04-26T14:38:05.503Z</time></trkpt><trkpt lat="43.3408933" lon="13.26517"><ele>287.0</ele><time>2026-04-26T14:38:06.504Z</time></trkpt><trkpt lat="43.3408967" lon="13.26541"><ele>287.0</ele><time>2026-04-26T14:38:07.503Z</time></trkpt><trkpt lat="43.34091" lon="13.2656"><ele>287.5</ele><time>2026-04-26T14:38:08.503Z</time></trkpt><trkpt lat="43.3409283" lon="13.26577"><ele>288.0</ele><time>2026-04-26T14:38:09.503Z</time></trkpt><trkpt lat="43.3409633" lon="13.2659133"><ele>288.5</ele><time>2026-04-26T14:38:10.503Z</time></trkpt><trkpt lat="43.34103" lon="13.26605"><ele>289.0</ele><time>2026-04-26T14:38:11.503Z</time></trkpt><trkpt lat="43.34112" lon="13.2661733"><ele>289.0</ele><time>2026-04-26T14:38:12.503Z</time></trkpt><trkpt lat="43.34121" lon="13.2662983"><ele>289.0</ele><time>2026-04-26T14:38:13.503Z</time></trkpt><trkpt lat="43.3412717" lon="13.2664267"><ele>289.0</ele><time>2026-04-26T14:38:14.503Z</time></trkpt><trkpt lat="43.3413233" lon="13.2665883"><ele>289.0</ele><time>2026-04-26T14:38:15.503Z</time></trkpt><trkpt lat="43.3413633" lon="13.2668167"><ele>289.66666666666663</ele><time>2026-04-26T14:38:16.504Z</time></trkpt><trkpt lat="43.3413933" lon="13.2670883"><ele>290.3333333333333</ele><time>2026-04-26T14:38:17.504Z</time></trkpt><trkpt lat="43.3414317" lon="13.26739"><ele>291.0</ele><time>2026-04-26T14:38:18.503Z</time></trkpt><trkpt lat="43.34146" lon="13.2677033"><ele>291.0</ele><time>2026-04-26T14:38:19.504Z</time></trkpt><trkpt lat="43.341465" lon="13.26802"><ele>291.0</ele><time>2026-04-26T14:38:20.504Z</time></trkpt><trkpt lat="43.3414667" lon="13.26833"><ele>291.0</ele><time>2026-04-26T14:38:21.503Z</time></trkpt><trkpt lat="43.3414733" lon="13.2686367"><ele>291.0</ele><time>2026-04-26T14:38:22.503Z</time></trkpt><trkpt lat="43.3414917" lon="13.26895"><ele>291.5</ele><time>2026-04-26T14:38:23.503Z</time></trkpt><trkpt lat="43.3415067" lon="13.26927"><ele>292.0</ele><time>2026-04-26T14:38:24.503Z</time></trkpt><trkpt lat="43.3415267" lon="13.269585"><ele>290.66666666666663</ele><time>2026-04-26T14:38:25.503Z</time></trkpt><trkpt lat="43.3415417" lon="13.269885"><ele>289.3333333333333</ele><time>2026-04-26T14:38:26.503Z</time></trkpt><trkpt lat="43.3415533" lon="13.270155"><ele>288.0</ele><time>2026-04-26T14:38:27.504Z</time></trkpt><trkpt lat="43.3415683" lon="13.27041"><ele>287.6666666666667</ele><time>2026-04-26T14:38:28.503Z</time></trkpt><trkpt lat="43.34159" lon="13.2706483"><ele>287.33333333333337</ele><time>2026-04-26T14:38:29.503Z</time></trkpt><trkpt lat="43.3416367" lon="13.2708667"><ele>287.0</ele><time>2026-04-26T14:38:30.503Z</time></trkpt><trkpt lat="43.3417083" lon="13.271095"><ele>287.0</ele><time>2026-04-26T14:38:31.503Z</time></trkpt><trkpt lat="43.341815" lon="13.2713183"><ele>287.0</ele><time>2026-04-26T14:38:32.503Z</time></trkpt><trkpt lat="43.3419483" lon="13.2715367"><ele>287.0</ele><time>2026-04-26T14:38:33.503Z</time></trkpt><trkpt lat="43.3420933" lon="13.2717583"><ele>289.5</ele><time>2026-04-26T14:38:34.503Z</time></trkpt><trkpt lat="43.3422467" lon="13.2719883"><ele>292.0</ele><time>2026-04-26T14:38:35.503Z</time></trkpt><trkpt lat="43.3423967" lon="13.27222"><ele>291.3333333333333</ele><time>2026-04-26T14:38:36.503Z</time></trkpt><trkpt lat="43.3425383" lon="13.2724433"><ele>290.6666666666667</ele><time>2026-04-26T14:38:37.504Z</time></trkpt><trkpt lat="43.342675" lon="13.272655"><ele>290.0</ele><time>2026-04-26T14:38:38.504Z</time></trkpt><trkpt lat="43.342805" lon="13.272855"><ele>290.0</ele><time>2026-04-26T14:38:39.503Z</time></trkpt><trkpt lat="43.342915" lon="13.273035"><ele>290.0</ele><time>2026-04-26T14:38:40.503Z</time></trkpt><trkpt lat="43.3430117" lon="13.2732117"><ele>290.0</ele><time>2026-04-26T14:38:41.503Z</time></trkpt><trkpt lat="43.3430767" lon="13.273395"><ele>293.5</ele><time>2026-04-26T14:38:42.503Z</time></trkpt><trkpt lat="43.34312" lon="13.2736"><ele>297.0</ele><time>2026-04-26T14:38:43.504Z</time></trkpt><trkpt lat="43.343155" lon="13.273795"><ele>300.5</ele><time>2026-04-26T14:38:44.503Z</time></trkpt><trkpt lat="43.3431883" lon="13.2739883"><ele>304.0</ele><time>2026-04-26T14:38:45.503Z</time></trkpt><trkpt lat="43.343225" lon="13.27418"><ele>304.0</ele><time>2026-04-26T14:38:46.504Z</time></trkpt><trkpt lat="43.343275" lon="13.274345"><ele>304.0</ele><time>2026-04-26T14:38:47.504Z</time></trkpt><trkpt lat="43.3433417" lon="13.2745117"><ele>304.0</ele><time>2026-04-26T14:38:48.503Z</time></trkpt><trkpt lat="43.343415" lon="13.2746567"><ele>304.0</ele><time>2026-04-26T14:38:49.503Z</time></trkpt><trkpt lat="43.3434817" lon="13.2747817"><ele>303.8333333333333</ele><time>2026-04-26T14:38:50.503Z</time></trkpt><trkpt lat="43.34354" lon="13.27488"><ele>303.66666666666663</ele><time>2026-04-26T14:38:51.503Z</time></trkpt><trkpt lat="43.3435917" lon="13.274945"><ele>303.5</ele><time>2026-04-26T14:38:52.503Z</time></trkpt><trkpt lat="43.3436967" lon="13.2749967"><ele>303.3333333333333</ele><time>2026-04-26T14:38:54.503Z</time></trkpt><trkpt lat="43.3437583" lon="13.275075"><ele>303.1666666666667</ele><time>2026-04-26T14:38:57.504Z</time></trkpt><trkpt lat="43.3437633" lon="13.2751817"><ele>303.0</ele><time>2026-04-26T14:38:59.504Z</time></trkpt><trkpt lat="43.3437967" lon="13.2752567"><ele>303.0</ele><time>2026-04-26T14:39:21.502Z</time></trkpt><trkpt lat="43.34387" lon="13.2753683"><ele>303.0</ele><time>2026-04-26T14:39:22.502Z</time></trkpt><trkpt lat="43.3439533" lon="13.27545"><ele>303.0</ele><time>2026-04-26T14:39:23.502Z</time></trkpt><trkpt lat="43.3440383" lon="13.275485"><ele>303.0</ele><time>2026-04-26T14:39:24.502Z</time></trkpt><trkpt lat="43.3441117" lon="13.2755083"><ele>303.0</ele><time>2026-04-26T14:39:25.502Z</time></trkpt><trkpt lat="43.3441967" lon="13.2755367"><ele>304.0</ele><time>2026-04-26T14:39:27.502Z</time></trkpt><trkpt lat="43.3442517" lon="13.275585"><ele>305.0</ele><time>2026-04-26T14:39:29.502Z</time></trkpt><trkpt lat="43.3443117" lon="13.2757183"><ele>306.0</ele><time>2026-04-26T14:39:31.502Z</time></trkpt><trkpt lat="43.344335" lon="13.2758583"><ele>307.0</ele><time>2026-04-26T14:39:32.502Z</time></trkpt><trkpt lat="43.3443567" lon="13.2760417"><ele>308.0</ele><time>2026-04-26T14:39:33.502Z</time></trkpt><trkpt lat="43.3443783" lon="13.2762733"><ele>308.0</ele><time>2026-04-26T14:39:34.502Z</time></trkpt><trkpt lat="43.3444083" lon="13.2765117"><ele>308.0</ele><time>2026-04-26T14:39:35.502Z</time></trkpt><trkpt lat="43.3444417" lon="13.27671"><ele>308.0</ele><time>2026-04-26T14:39:36.502Z</time></trkpt><trkpt lat="43.3444733" lon="13.276865"><ele>308.0</ele><time>2026-04-26T14:39:37.502Z</time></trkpt><trkpt lat="43.3445017" lon="13.2769933"><ele>308.0</ele><time>2026-04-26T14:39:38.502Z</time></trkpt><trkpt lat="43.3445217" lon="13.2770883"><ele>308.0</ele><time>2026-04-26T14:39:39.503Z</time></trkpt><trkpt lat="43.3445633" lon="13.2771767"><ele>308.0</ele><time>2026-04-26T14:39:41.502Z</time></trkpt><trkpt lat="43.3446633" lon="13.2771933"><ele>308.0</ele><time>2026-04-26T14:39:43.502Z</time></trkpt><trkpt lat="43.3447483" lon="13.2771583"><ele>308.0</ele><time>2026-04-26T14:39:44.502Z</time></trkpt><trkpt lat="43.3448617" lon="13.277105"><ele>307.33333333333337</ele><time>2026-04-26T14:39:45.503Z</time></trkpt><trkpt lat="43.3449983" lon="13.2770417"><ele>306.6666666666667</ele><time>2026-04-26T14:39:46.502Z</time></trkpt><trkpt lat="43.345145" lon="13.27698"><ele>306.0</ele><time>2026-04-26T14:39:47.502Z</time></trkpt><trkpt lat="43.345295" lon="13.2769217"><ele>306.0</ele><time>2026-04-26T14:39:48.502Z</time></trkpt><trkpt lat="43.3454417" lon="13.2768617"><ele>306.0</ele><time>2026-04-26T14:39:49.502Z</time></trkpt><trkpt lat="43.3455833" lon="13.2768067"><ele>306.0</ele><time>2026-04-26T14:39:50.503Z</time></trkpt><trkpt lat="43.345705" lon="13.2767383"><ele>306.0</ele><time>2026-04-26T14:39:51.503Z</time></trkpt><trkpt lat="43.3458117" lon="13.27666"><ele>306.0</ele><time>2026-04-26T14:39:52.502Z</time></trkpt><trkpt lat="43.3459183" lon="13.2765767"><ele>306.0</ele><time>2026-04-26T14:39:53.503Z</time></trkpt><trkpt lat="43.3460167" lon="13.27648"><ele>306.0</ele><time>2026-04-26T14:39:54.503Z</time></trkpt><trkpt lat="43.3461117" lon="13.276385"><ele>306.0</ele><time>2026-04-26T14:39:55.503Z</time></trkpt><trkpt lat="43.3462117" lon="13.2762817"><ele>306.2</ele><time>2026-04-26T14:39:56.502Z</time></trkpt><trkpt lat="43.3463033" lon="13.2761883"><ele>306.40000000000003</ele><time>2026-04-26T14:39:57.502Z</time></trkpt><trkpt lat="43.3463867" lon="13.276095"><ele>306.6</ele><time>2026-04-26T14:39:58.502Z</time></trkpt><trkpt lat="43.34647" lon="13.2759983"><ele>306.8</ele><time>2026-04-26T14:39:59.502Z</time></trkpt><trkpt lat="43.3465517" lon="13.2759117"><ele>307.0</ele><time>2026-04-26T14:40:00.502Z</time></trkpt><trkpt lat="43.3466317" lon="13.2758233"><ele>306.8333333333333</ele><time>2026-04-26T14:40:01.502Z</time></trkpt><trkpt lat="43.3467067" lon="13.2757383"><ele>306.66666666666663</ele><time>2026-04-26T14:40:02.502Z</time></trkpt><trkpt lat="43.346755" lon="13.2756483"><ele>306.5</ele><time>2026-04-26T14:40:03.502Z</time></trkpt><trkpt lat="43.3467817" lon="13.2755483"><ele>306.3333333333333</ele><time>2026-04-26T14:40:04.502Z</time></trkpt><trkpt lat="43.34679" lon="13.2754517"><ele>306.1666666666667</ele><time>2026-04-26T14:40:05.502Z</time></trkpt><trkpt lat="43.34677" lon="13.2753517"><ele>306.0</ele><time>2026-04-26T14:40:06.502Z</time></trkpt><trkpt lat="43.346735" lon="13.2752383"><ele>306.0</ele><time>2026-04-26T14:40:07.502Z</time></trkpt><trkpt lat="43.3466917" lon="13.2751117"><ele>306.0</ele><time>2026-04-26T14:40:08.502Z</time></trkpt><trkpt lat="43.346645" lon="13.274975"><ele>306.0</ele><time>2026-04-26T14:40:09.502Z</time></trkpt><trkpt lat="43.3465983" lon="13.274835"><ele>306.0</ele><time>2026-04-26T14:40:10.502Z</time></trkpt><trkpt lat="43.3465533" lon="13.27471"><ele>306.0</ele><time>2026-04-26T14:40:11.502Z</time></trkpt><trkpt lat="43.34651" lon="13.2745917"><ele>306.3333333333333</ele><time>2026-04-26T14:40:12.502Z</time></trkpt><trkpt lat="43.3464783" lon="13.27449"><ele>306.6666666666667</ele><time>2026-04-26T14:40:13.502Z</time></trkpt><trkpt lat="43.3464733" lon="13.2744033"><ele>307.0</ele><time>2026-04-26T14:40:14.502Z</time></trkpt><trkpt lat="43.3465" lon="13.2743167"><ele>307.33333333333337</ele><time>2026-04-26T14:40:15.502Z</time></trkpt><trkpt lat="43.3465567" lon="13.2742283"><ele>307.6666666666667</ele><time>2026-04-26T14:40:16.502Z</time></trkpt><trkpt lat="43.34664" lon="13.27414"><ele>308.0</ele><time>2026-04-26T14:40:17.502Z</time></trkpt><trkpt lat="43.3467517" lon="13.2740333"><ele>307.6666666666667</ele><time>2026-04-26T14:40:18.502Z</time></trkpt><trkpt lat="43.34688" lon="13.2739017"><ele>307.3333333333333</ele><time>2026-04-26T14:40:19.502Z</time></trkpt><trkpt lat="43.347015" lon="13.2737483"><ele>307.0</ele><time>2026-04-26T14:40:20.502Z</time></trkpt><trkpt lat="43.3471633" lon="13.273585"><ele>307.0</ele><time>2026-04-26T14:40:21.502Z</time></trkpt><trkpt lat="43.3473183" lon="13.2734083"><ele>307.0</ele><time>2026-04-26T14:40:22.502Z</time></trkpt><trkpt lat="43.3474733" lon="13.2732183"><ele>307.0</ele><time>2026-04-26T14:40:23.502Z</time></trkpt><trkpt lat="43.3476217" lon="13.2730517"><ele>307.66666666666663</ele><time>2026-04-26T14:40:24.502Z</time></trkpt><trkpt lat="43.347755" lon="13.2728867"><ele>308.3333333333333</ele><time>2026-04-26T14:40:25.502Z</time></trkpt><trkpt lat="43.347895" lon="13.2727183"><ele>309.0</ele><time>2026-04-26T14:40:26.503Z</time></trkpt><trkpt lat="43.348035" lon="13.2725467"><ele>309.0</ele><time>2026-04-26T14:40:27.503Z</time></trkpt><trkpt lat="43.3481833" lon="13.272385"><ele>309.0</ele><time>2026-04-26T14:40:28.502Z</time></trkpt><trkpt lat="43.3483133" lon="13.2722433"><ele>309.0</ele><time>2026-04-26T14:40:29.503Z</time></trkpt><trkpt lat="43.34843" lon="13.27211"><ele>309.4</ele><time>2026-04-26T14:40:30.502Z</time></trkpt><trkpt lat="43.348525" lon="13.272"><ele>309.79999999999995</ele><time>2026-04-26T14:40:31.503Z</time></trkpt><trkpt lat="43.348595" lon="13.2719117"><ele>310.20000000000005</ele><time>2026-04-26T14:40:32.502Z</time></trkpt><trkpt lat="43.3486417" lon="13.2718517"><ele>310.6</ele><time>2026-04-26T14:40:33.502Z</time></trkpt><trkpt lat="43.3487083" lon="13.2718183"><ele>311.0</ele><time>2026-04-26T14:40:35.503Z</time></trkpt><trkpt lat="43.34877" lon="13.27193"><ele>311.0</ele><time>2026-04-26T14:40:37.502Z</time></trkpt><trkpt lat="43.3487933" lon="13.2720667"><ele>311.0</ele><time>2026-04-26T14:40:38.502Z</time></trkpt><trkpt lat="43.3488383" lon="13.2722433"><ele>311.0</ele><time>2026-04-26T14:40:39.502Z</time></trkpt><trkpt lat="43.3488967" lon="13.2724583"><ele>311.0</ele><time>2026-04-26T14:40:40.502Z</time></trkpt><trkpt lat="43.3489733" lon="13.27271"><ele>309.33333333333337</ele><time>2026-04-26T14:40:41.502Z</time></trkpt><trkpt lat="43.3490583" lon="13.2729833"><ele>307.6666666666667</ele><time>2026-04-26T14:40:42.502Z</time></trkpt><trkpt lat="43.3491483" lon="13.2732717"><ele>306.0</ele><time>2026-04-26T14:40:43.502Z</time></trkpt><trkpt lat="43.3492367" lon="13.2735833"><ele>305.5</ele><time>2026-04-26T14:40:44.502Z</time></trkpt><trkpt lat="43.3493183" lon="13.2739117"><ele>305.0</ele><time>2026-04-26T14:40:45.503Z</time></trkpt><trkpt lat="43.349405" lon="13.2742483"><ele>302.5</ele><time>2026-04-26T14:40:46.502Z</time></trkpt><trkpt lat="43.3494967" lon="13.2745767"><ele>300.0</ele><time>2026-04-26T14:40:47.502Z</time></trkpt><trkpt lat="43.3495767" lon="13.274905"><ele>299.5</ele><time>2026-04-26T14:40:48.502Z</time></trkpt><trkpt lat="43.3496683" lon="13.27524"><ele>299.0</ele><time>2026-04-26T14:40:49.502Z</time></trkpt><trkpt lat="43.3497533" lon="13.27558"><ele>297.5</ele><time>2026-04-26T14:40:50.503Z</time></trkpt><trkpt lat="43.3498383" lon="13.2759133"><ele>296.0</ele><time>2026-04-26T14:40:51.502Z</time></trkpt><trkpt lat="43.34993" lon="13.2762483"><ele>296.5</ele><time>2026-04-26T14:40:52.503Z</time></trkpt><trkpt lat="43.350025" lon="13.2765817"><ele>297.0</ele><time>2026-04-26T14:40:53.503Z</time></trkpt><trkpt lat="43.35011" lon="13.2769"><ele>297.0</ele><time>2026-04-26T14:40:54.502Z</time></trkpt><trkpt lat="43.3501917" lon="13.277195"><ele>297.0</ele><time>2026-04-26T14:40:55.502Z</time></trkpt><trkpt lat="43.350275" lon="13.27749"><ele>296.5</ele><time>2026-04-26T14:40:56.502Z</time></trkpt><trkpt lat="43.3503517" lon="13.27778"><ele>296.0</ele><time>2026-04-26T14:40:57.503Z</time></trkpt><trkpt lat="43.3504417" lon="13.2780717"><ele>295.5</ele><time>2026-04-26T14:40:58.502Z</time></trkpt><trkpt lat="43.3505383" lon="13.2783583"><ele>295.0</ele><time>2026-04-26T14:40:59.502Z</time></trkpt><trkpt lat="43.3506483" lon="13.27864"><ele>294.5</ele><time>2026-04-26T14:41:00.502Z</time></trkpt><trkpt lat="43.3507583" lon="13.2789267"><ele>294.0</ele><time>2026-04-26T14:41:01.502Z</time></trkpt><trkpt lat="43.35088" lon="13.27921"><ele>293.0</ele><time>2026-04-26T14:41:02.503Z</time></trkpt><trkpt lat="43.3510083" lon="13.279485"><ele>292.0</ele><time>2026-04-26T14:41:03.502Z</time></trkpt><trkpt lat="43.3511417" lon="13.2797633"><ele>291.5</ele><time>2026-04-26T14:41:04.502Z</time></trkpt><trkpt lat="43.351275" lon="13.2800383"><ele>291.0</ele><time>2026-04-26T14:41:05.502Z</time></trkpt><trkpt lat="43.351395" lon="13.2802967"><ele>291.0</ele><time>2026-04-26T14:41:06.502Z</time></trkpt><trkpt lat="43.35151" lon="13.2805317"><ele>291.0</ele><time>2026-04-26T14:41:07.502Z</time></trkpt><trkpt lat="43.3516117" lon="13.28076"><ele>291.0</ele><time>2026-04-26T14:41:08.502Z</time></trkpt><trkpt lat="43.351705" lon="13.28097"><ele>290.0</ele><time>2026-04-26T14:41:09.502Z</time></trkpt><trkpt lat="43.3517917" lon="13.2811533"><ele>289.0</ele><time>2026-04-26T14:41:10.502Z</time></trkpt><trkpt lat="43.351875" lon="13.2813183"><ele>288.0</ele><time>2026-04-26T14:41:11.502Z</time></trkpt><trkpt lat="43.351945" lon="13.2814567"><ele>287.0</ele><time>2026-04-26T14:41:12.502Z</time></trkpt><trkpt lat="43.3519983" lon="13.2815533"><ele>286.8</ele><time>2026-04-26T14:41:13.502Z</time></trkpt><trkpt lat="43.352045" lon="13.2816933"><ele>286.6</ele><time>2026-04-26T14:41:15.502Z</time></trkpt><trkpt lat="43.3520067" lon="13.2818017"><ele>286.40000000000003</ele><time>2026-04-26T14:41:17.503Z</time></trkpt><trkpt lat="43.3519467" lon="13.2818467"><ele>286.2</ele><time>2026-04-26T14:41:18.502Z</time></trkpt><trkpt lat="43.3518517" lon="13.2818933"><ele>286.0</ele><time>2026-04-26T14:41:19.503Z</time></trkpt><trkpt lat="43.3517183" lon="13.2819617"><ele>286.0</ele><time>2026-04-26T14:41:20.502Z</time></trkpt><trkpt lat="43.351565" lon="13.28205"><ele>286.0</ele><time>2026-04-26T14:41:21.502Z</time></trkpt><trkpt lat="43.3514117" lon="13.2821417"><ele>286.0</ele><time>2026-04-26T14:41:22.502Z</time></trkpt><trkpt lat="43.3512683" lon="13.2822333"><ele>286.75</ele><time>2026-04-26T14:41:23.502Z</time></trkpt><trkpt lat="43.3511417" lon="13.2823333"><ele>287.5</ele><time>2026-04-26T14:41:24.502Z</time></trkpt><trkpt lat="43.3510217" lon="13.2824167"><ele>288.25</ele><time>2026-04-26T14:41:25.502Z</time></trkpt><trkpt lat="43.3509117" lon="13.2824867"><ele>289.0</ele><time>2026-04-26T14:41:26.502Z</time></trkpt><trkpt lat="43.3508083" lon="13.28257"><ele>289.0</ele><time>2026-04-26T14:41:27.502Z</time></trkpt><trkpt lat="43.3507317" lon="13.2826367"><ele>289.0</ele><time>2026-04-26T14:41:28.502Z</time></trkpt><trkpt lat="43.35067" lon="13.2826917"><ele>289.0</ele><time>2026-04-26T14:41:29.503Z</time></trkpt><trkpt lat="43.350615" lon="13.2827567"><ele>289.0</ele><time>2026-04-26T14:41:30.503Z</time></trkpt><trkpt lat="43.350575" lon="13.2828417"><ele>289.0</ele><time>2026-04-26T14:41:31.502Z</time></trkpt><trkpt lat="43.35055" lon="13.2829517"><ele>289.0</ele><time>2026-04-26T14:41:32.503Z</time></trkpt><trkpt lat="43.3505383" lon="13.28309"><ele>288.5</ele><time>2026-04-26T14:41:33.502Z</time></trkpt><trkpt lat="43.350545" lon="13.2832483"><ele>288.0</ele><time>2026-04-26T14:41:34.502Z</time></trkpt><trkpt lat="43.3505667" lon="13.2834217"><ele>287.5</ele><time>2026-04-26T14:41:35.503Z</time></trkpt><trkpt lat="43.3506117" lon="13.28359"><ele>287.0</ele><time>2026-04-26T14:41:36.503Z</time></trkpt><trkpt lat="43.3506467" lon="13.28376"><ele>287.0</ele><time>2026-04-26T14:41:37.502Z</time></trkpt><trkpt lat="43.350665" lon="13.2839217"><ele>287.0</ele><time>2026-04-26T14:41:38.502Z</time></trkpt><trkpt lat="43.3506717" lon="13.2840783"><ele>287.0</ele><time>2026-04-26T14:41:39.502Z</time></trkpt><trkpt lat="43.350655" lon="13.2842383"><ele>287.0</ele><time>2026-04-26T14:41:40.502Z</time></trkpt><trkpt lat="43.3506483" lon="13.2843917"><ele>286.4</ele><time>2026-04-26T14:41:41.502Z</time></trkpt><trkpt lat="43.3506633" lon="13.284545"><ele>285.79999999999995</ele><time>2026-04-26T14:41:42.502Z</time></trkpt><trkpt lat="43.3506667" lon="13.2846833"><ele>285.2</ele><time>2026-04-26T14:41:43.502Z</time></trkpt><trkpt lat="43.3506617" lon="13.2848083"><ele>284.59999999999997</ele><time>2026-04-26T14:41:44.503Z</time></trkpt><trkpt lat="43.35064" lon="13.2849133"><ele>284.0</ele><time>2026-04-26T14:41:45.502Z</time></trkpt><trkpt lat="43.3505983" lon="13.2849917"><ele>284.2</ele><time>2026-04-26T14:41:46.502Z</time></trkpt><trkpt lat="43.3505367" lon="13.2850733"><ele>284.4</ele><time>2026-04-26T14:41:47.502Z</time></trkpt><trkpt lat="43.35047" lon="13.2851633"><ele>284.6</ele><time>2026-04-26T14:41:48.502Z</time></trkpt><trkpt lat="43.3504033" lon="13.2852583"><ele>284.8</ele><time>2026-04-26T14:41:49.502Z</time></trkpt><trkpt lat="43.3503233" lon="13.28535"><ele>285.0</ele><time>2026-04-26T14:41:50.502Z</time></trkpt><trkpt lat="43.35023" lon="13.28544"><ele>285.0</ele><time>2026-04-26T14:41:51.502Z</time></trkpt><trkpt lat="43.350135" lon="13.28553"><ele>285.0</ele><time>2026-04-26T14:41:52.502Z</time></trkpt><trkpt lat="43.35005" lon="13.28562"><ele>285.0</ele><time>2026-04-26T14:41:53.502Z</time></trkpt><trkpt lat="43.34997" lon="13.28569"><ele>285.0</ele><time>2026-04-26T14:41:54.502Z</time></trkpt><trkpt lat="43.3499033" lon="13.2857433"><ele>285.0</ele><time>2026-04-26T14:41:55.502Z</time></trkpt><trkpt lat="43.3498483" lon="13.2857983"><ele>284.75</ele><time>2026-04-26T14:41:56.502Z</time></trkpt><trkpt lat="43.3497917" lon="13.2859317"><ele>284.5</ele><time>2026-04-26T14:41:58.502Z</time></trkpt><trkpt lat="43.3498067" lon="13.2860383"><ele>284.25</ele><time>2026-04-26T14:41:59.502Z</time></trkpt><trkpt lat="43.3498483" lon="13.28618"><ele>284.0</ele><time>2026-04-26T14:42:00.502Z</time></trkpt><trkpt lat="43.3499033" lon="13.2863817"><ele>283.0</ele><time>2026-04-26T14:42:01.502Z</time></trkpt><trkpt lat="43.3499683" lon="13.2866133"><ele>282.0</ele><time>2026-04-26T14:42:02.502Z</time></trkpt><trkpt lat="43.3500317" lon="13.286875"><ele>281.0</ele><time>2026-04-26T14:42:03.502Z</time></trkpt><trkpt lat="43.3501" lon="13.287145"><ele>280.33333333333337</ele><time>2026-04-26T14:42:04.502Z</time></trkpt><trkpt lat="43.350175" lon="13.2874267"><ele>279.6666666666667</ele><time>2026-04-26T14:42:05.502Z</time></trkpt><trkpt lat="43.3502417" lon="13.2876983"><ele>279.0</ele><time>2026-04-26T14:42:06.502Z</time></trkpt><trkpt lat="43.3503017" lon="13.287955"><ele>279.3333333333333</ele><time>2026-04-26T14:42:07.502Z</time></trkpt><trkpt lat="43.3503717" lon="13.2882167"><ele>279.66666666666663</ele><time>2026-04-26T14:42:08.502Z</time></trkpt><trkpt lat="43.3504333" lon="13.28847"><ele>280.0</ele><time>2026-04-26T14:42:09.502Z</time></trkpt><trkpt lat="43.350495" lon="13.288715"><ele>278.66666666666663</ele><time>2026-04-26T14:42:10.502Z</time></trkpt><trkpt lat="43.350555" lon="13.288945"><ele>277.3333333333333</ele><time>2026-04-26T14:42:11.502Z</time></trkpt><trkpt lat="43.3506067" lon="13.289145"><ele>276.0</ele><time>2026-04-26T14:42:12.502Z</time></trkpt><trkpt lat="43.3506467" lon="13.2893267"><ele>276.0</ele><time>2026-04-26T14:42:13.503Z</time></trkpt><trkpt lat="43.3506717" lon="13.2894883"><ele>276.0</ele><time>2026-04-26T14:42:14.502Z</time></trkpt><trkpt lat="43.3506767" lon="13.28964"><ele>276.0</ele><time>2026-04-26T14:42:15.502Z</time></trkpt><trkpt lat="43.35066" lon="13.28981"><ele>276.0</ele><time>2026-04-26T14:42:16.502Z</time></trkpt><trkpt lat="43.3506383" lon="13.28999"><ele>276.0</ele><time>2026-04-26T14:42:17.502Z</time></trkpt><trkpt lat="43.3506183" lon="13.2902017"><ele>276.0</ele><time>2026-04-26T14:42:18.502Z</time></trkpt><trkpt lat="43.3505933" lon="13.2904283"><ele>276.0</ele><time>2026-04-26T14:42:19.503Z</time></trkpt><trkpt lat="43.3505767" lon="13.29066"><ele>275.6666666666667</ele><time>2026-04-26T14:42:20.502Z</time></trkpt><trkpt lat="43.3505583" lon="13.290895"><ele>275.33333333333337</ele><time>2026-04-26T14:42:21.502Z</time></trkpt><trkpt lat="43.3505417" lon="13.2911417"><ele>275.0</ele><time>2026-04-26T14:42:22.502Z</time></trkpt><trkpt lat="43.3505267" lon="13.2913967"><ele>275.0</ele><time>2026-04-26T14:42:23.503Z</time></trkpt><trkpt lat="43.350505" lon="13.2916517"><ele>275.0</ele><time>2026-04-26T14:42:24.503Z</time></trkpt><trkpt lat="43.3504783" lon="13.2919167"><ele>275.0</ele><time>2026-04-26T14:42:25.502Z</time></trkpt><trkpt lat="43.350455" lon="13.2921833"><ele>275.0</ele><time>2026-04-26T14:42:26.502Z</time></trkpt><trkpt lat="43.3504333" lon="13.2924367"><ele>275.0</ele><time>2026-04-26T14:42:27.502Z</time></trkpt><trkpt lat="43.35041" lon="13.2926817"><ele>275.0</ele><time>2026-04-26T14:42:28.502Z</time></trkpt><trkpt lat="43.350385" lon="13.292925"><ele>274.0</ele><time>2026-04-26T14:42:29.502Z</time></trkpt><trkpt lat="43.3503583" lon="13.2931633"><ele>273.0</ele><time>2026-04-26T14:42:30.502Z</time></trkpt><trkpt lat="43.3503317" lon="13.2934"><ele>272.0</ele><time>2026-04-26T14:42:31.502Z</time></trkpt><trkpt lat="43.350305" lon="13.293635"><ele>272.0</ele><time>2026-04-26T14:42:32.502Z</time></trkpt><trkpt lat="43.3502883" lon="13.2938567"><ele>272.0</ele><time>2026-04-26T14:42:33.502Z</time></trkpt><trkpt lat="43.3502667" lon="13.2940633"><ele>272.0</ele><time>2026-04-26T14:42:34.502Z</time></trkpt><trkpt lat="43.3502483" lon="13.2942633"><ele>271.75</ele><time>2026-04-26T14:42:35.502Z</time></trkpt><trkpt lat="43.350235" lon="13.2944467"><ele>271.5</ele><time>2026-04-26T14:42:36.503Z</time></trkpt><trkpt lat="43.3502217" lon="13.2946183"><ele>271.25</ele><time>2026-04-26T14:42:37.502Z</time></trkpt><trkpt lat="43.3502033" lon="13.29478"><ele>271.0</ele><time>2026-04-26T14:42:38.502Z</time></trkpt><trkpt lat="43.3501867" lon="13.2949467"><ele>271.0</ele><time>2026-04-26T14:42:39.503Z</time></trkpt><trkpt lat="43.3501667" lon="13.2951167"><ele>271.0</ele><time>2026-04-26T14:42:40.502Z</time></trkpt><trkpt lat="43.3501567" lon="13.2952817"><ele>271.0</ele><time>2026-04-26T14:42:41.502Z</time></trkpt><trkpt lat="43.3501683" lon="13.2954417"><ele>271.0</ele><time>2026-04-26T14:42:42.502Z</time></trkpt><trkpt lat="43.3502033" lon="13.2956033"><ele>271.0</ele><time>2026-04-26T14:42:43.502Z</time></trkpt><trkpt lat="43.35026" lon="13.295775"><ele>271.0</ele><time>2026-04-26T14:42:44.502Z</time></trkpt><trkpt lat="43.350325" lon="13.2959633"><ele>271.0</ele><time>2026-04-26T14:42:45.502Z</time></trkpt><trkpt lat="43.3503933" lon="13.2961533"><ele>271.0</ele><time>2026-04-26T14:42:46.502Z</time></trkpt><trkpt lat="43.3504583" lon="13.2963567"><ele>270.0</ele><time>2026-04-26T14:42:47.502Z</time></trkpt><trkpt lat="43.3505233" lon="13.2965633"><ele>269.0</ele><time>2026-04-26T14:42:48.502Z</time></trkpt><trkpt lat="43.35058" lon="13.2967783"><ele>268.0</ele><time>2026-04-26T14:42:49.502Z</time></trkpt><trkpt lat="43.350635" lon="13.2969933"><ele>267.75</ele><time>2026-04-26T14:42:50.502Z</time></trkpt><trkpt lat="43.3506833" lon="13.2971967"><ele>267.5</ele><time>2026-04-26T14:42:51.502Z</time></trkpt><trkpt lat="43.350725" lon="13.29739"><ele>267.25</ele><time>2026-04-26T14:42:52.502Z</time></trkpt><trkpt lat="43.350765" lon="13.297565"><ele>267.0</ele><time>2026-04-26T14:42:53.503Z</time></trkpt><trkpt lat="43.3507967" lon="13.297735"><ele>267.0</ele><time>2026-04-26T14:42:54.503Z</time></trkpt><trkpt lat="43.3508133" lon="13.29792"><ele>267.0</ele><time>2026-04-26T14:42:55.502Z</time></trkpt><trkpt lat="43.350825" lon="13.298115"><ele>267.0</ele><time>2026-04-26T14:42:56.502Z</time></trkpt><trkpt lat="43.35083" lon="13.2983233"><ele>267.0</ele><time>2026-04-26T14:42:57.502Z</time></trkpt><trkpt lat="43.3508433" lon="13.2985467"><ele>267.0</ele><time>2026-04-26T14:42:58.502Z</time></trkpt><trkpt lat="43.3508467" lon="13.2987733"><ele>267.0</ele><time>2026-04-26T14:42:59.502Z</time></trkpt><trkpt lat="43.3508417" lon="13.299005"><ele>267.0</ele><time>2026-04-26T14:43:00.502Z</time></trkpt><trkpt lat="43.3508233" lon="13.2992317"><ele>266.6666666666667</ele><time>2026-04-26T14:43:01.502Z</time></trkpt><trkpt lat="43.3508067" lon="13.299465"><ele>266.33333333333337</ele><time>2026-04-26T14:43:02.502Z</time></trkpt><trkpt lat="43.350785" lon="13.2997017"><ele>266.0</ele><time>2026-04-26T14:43:03.502Z</time></trkpt><trkpt lat="43.3507583" lon="13.29994"><ele>265.33333333333337</ele><time>2026-04-26T14:43:04.502Z</time></trkpt><trkpt lat="43.3507383" lon="13.300185"><ele>264.6666666666667</ele><time>2026-04-26T14:43:05.502Z</time></trkpt><trkpt lat="43.3507083" lon="13.300425"><ele>264.0</ele><time>2026-04-26T14:43:06.502Z</time></trkpt><trkpt lat="43.35069" lon="13.3006883"><ele>263.6666666666667</ele><time>2026-04-26T14:43:07.502Z</time></trkpt><trkpt lat="43.35066" lon="13.3009467"><ele>263.33333333333337</ele><time>2026-04-26T14:43:08.502Z</time></trkpt><trkpt lat="43.3506367" lon="13.3012033"><ele>263.0</ele><time>2026-04-26T14:43:09.502Z</time></trkpt><trkpt lat="43.350605" lon="13.3014617"><ele>263.0</ele><time>2026-04-26T14:43:10.502Z</time></trkpt><trkpt lat="43.3505783" lon="13.3017117"><ele>263.0</ele><time>2026-04-26T14:43:11.502Z</time></trkpt><trkpt lat="43.350545" lon="13.3019817"><ele>263.0</ele><time>2026-04-26T14:43:12.502Z</time></trkpt><trkpt lat="43.35052" lon="13.30226"><ele>261.33333333333337</ele><time>2026-04-26T14:43:13.502Z</time></trkpt><trkpt lat="43.3504917" lon="13.3025217"><ele>259.6666666666667</ele><time>2026-04-26T14:43:14.502Z</time></trkpt><trkpt lat="43.3504633" lon="13.302775"><ele>258.0</ele><time>2026-04-26T14:43:15.502Z</time></trkpt><trkpt lat="43.3504367" lon="13.3030217"><ele>257.6666666666667</ele><time>2026-04-26T14:43:16.502Z</time></trkpt><trkpt lat="43.350405" lon="13.3032633"><ele>257.33333333333337</ele><time>2026-04-26T14:43:17.502Z</time></trkpt><trkpt lat="43.3503767" lon="13.3034933"><ele>257.0</ele><time>2026-04-26T14:43:18.502Z</time></trkpt><trkpt lat="43.3503433" lon="13.3037367"><ele>256.0</ele><time>2026-04-26T14:43:19.502Z</time></trkpt><trkpt lat="43.3503" lon="13.303985"><ele>255.0</ele><time>2026-04-26T14:43:20.502Z</time></trkpt><trkpt lat="43.3502533" lon="13.3042217"><ele>254.0</ele><time>2026-04-26T14:43:21.502Z</time></trkpt><trkpt lat="43.350195" lon="13.304475"><ele>254.0</ele><time>2026-04-26T14:43:22.503Z</time></trkpt><trkpt lat="43.3501417" lon="13.30473"><ele>254.0</ele><time>2026-04-26T14:43:23.502Z</time></trkpt><trkpt lat="43.3500883" lon="13.30498"><ele>254.0</ele><time>2026-04-26T14:43:24.502Z</time></trkpt><trkpt lat="43.3500333" lon="13.3052233"><ele>254.33333333333334</ele><time>2026-04-26T14:43:25.502Z</time></trkpt><trkpt lat="43.3499833" lon="13.3054533"><ele>254.66666666666669</ele><time>2026-04-26T14:43:26.502Z</time></trkpt><trkpt lat="43.349935" lon="13.3056683"><ele>255.0</ele><time>2026-04-26T14:43:27.503Z</time></trkpt><trkpt lat="43.34989" lon="13.3058717"><ele>255.25</ele><time>2026-04-26T14:43:28.502Z</time></trkpt><trkpt lat="43.34985" lon="13.30607"><ele>255.5</ele><time>2026-04-26T14:43:29.502Z</time></trkpt><trkpt lat="43.34981" lon="13.3062483"><ele>255.75</ele><time>2026-04-26T14:43:30.502Z</time></trkpt><trkpt lat="43.34977" lon="13.3064283"><ele>256.0</ele><time>2026-04-26T14:43:31.502Z</time></trkpt><trkpt lat="43.3497433" lon="13.3065967"><ele>256.0</ele><time>2026-04-26T14:43:32.502Z</time></trkpt><trkpt lat="43.349735" lon="13.30677"><ele>256.0</ele><time>2026-04-26T14:43:33.502Z</time></trkpt><trkpt lat="43.349745" lon="13.3069433"><ele>256.0</ele><time>2026-04-26T14:43:34.502Z</time></trkpt><trkpt lat="43.3497567" lon="13.3071083"><ele>256.0</ele><time>2026-04-26T14:43:35.502Z</time></trkpt><trkpt lat="43.3497733" lon="13.3072667"><ele>255.60000000000002</ele><time>2026-04-26T14:43:36.502Z</time></trkpt><trkpt lat="43.3497933" lon="13.3074217"><ele>255.20000000000002</ele><time>2026-04-26T14:43:37.502Z</time></trkpt><trkpt lat="43.3498167" lon="13.30756"><ele>254.79999999999998</ele><time>2026-04-26T14:43:38.502Z</time></trkpt><trkpt lat="43.349835" lon="13.3076933"><ele>254.39999999999998</ele><time>2026-04-26T14:43:39.503Z</time></trkpt><trkpt lat="43.349855" lon="13.30782"><ele>254.0</ele><time>2026-04-26T14:43:40.502Z</time></trkpt><trkpt lat="43.3498733" lon="13.3079433"><ele>254.00000000000003</ele><time>2026-04-26T14:43:41.503Z</time></trkpt><trkpt lat="43.349885" lon="13.3080617"><ele>254.0</ele><time>2026-04-26T14:43:42.502Z</time></trkpt><trkpt lat="43.3499" lon="13.3081883"><ele>254.0</ele><time>2026-04-26T14:43:43.502Z</time></trkpt><trkpt lat="43.349915" lon="13.30831"><ele>254.0</ele><time>2026-04-26T14:43:44.502Z</time></trkpt><trkpt lat="43.3499317" lon="13.30843"><ele>254.00000000000003</ele><time>2026-04-26T14:43:45.502Z</time></trkpt><trkpt lat="43.3499433" lon="13.308545"><ele>254.0</ele><time>2026-04-26T14:43:46.502Z</time></trkpt><trkpt lat="43.34995" lon="13.3086567"><ele>254.00000000000003</ele><time>2026-04-26T14:43:47.502Z</time></trkpt><trkpt lat="43.3499667" lon="13.30876"><ele>254.0</ele><time>2026-04-26T14:43:48.502Z</time></trkpt><trkpt lat="43.3499817" lon="13.3088667"><ele>254.0</ele><time>2026-04-26T14:43:49.502Z</time></trkpt><trkpt lat="43.35" lon="13.3089683"><ele>254.0</ele><time>2026-04-26T14:43:50.502Z</time></trkpt><trkpt lat="43.3500133" lon="13.3090833"><ele>254.00000000000003</ele><time>2026-04-26T14:43:51.502Z</time></trkpt><trkpt lat="43.35002" lon="13.3092"><ele>254.0</ele><time>2026-04-26T14:43:52.502Z</time></trkpt><trkpt lat="43.350035" lon="13.3093183"><ele>253.79999999999998</ele><time>2026-04-26T14:43:53.502Z</time></trkpt><trkpt lat="43.35005" lon="13.3094467"><ele>253.59999999999997</ele><time>2026-04-26T14:43:54.502Z</time></trkpt><trkpt lat="43.3500667" lon="13.30959"><ele>253.4</ele><time>2026-04-26T14:43:55.503Z</time></trkpt><trkpt lat="43.3500833" lon="13.3097317"><ele>253.2</ele><time>2026-04-26T14:43:56.502Z</time></trkpt><trkpt lat="43.3501117" lon="13.3098817"><ele>253.0</ele><time>2026-04-26T14:43:57.502Z</time></trkpt><trkpt lat="43.3501317" lon="13.310045"><ele>252.25</ele><time>2026-04-26T14:43:58.502Z</time></trkpt><trkpt lat="43.3501517" lon="13.310215"><ele>251.5</ele><time>2026-04-26T14:43:59.502Z</time></trkpt><trkpt lat="43.35018" lon="13.3103917"><ele>250.75</ele><time>2026-04-26T14:44:00.503Z</time></trkpt><trkpt lat="43.3501983" lon="13.3105817"><ele>250.0</ele><time>2026-04-26T14:44:01.502Z</time></trkpt><trkpt lat="43.3502267" lon="13.310775"><ele>249.33333333333331</ele><time>2026-04-26T14:44:02.502Z</time></trkpt><trkpt lat="43.3502583" lon="13.310975"><ele>248.66666666666669</ele><time>2026-04-26T14:44:03.503Z</time></trkpt><trkpt lat="43.3502967" lon="13.3111783"><ele>248.0</ele><time>2026-04-26T14:44:04.503Z</time></trkpt><trkpt lat="43.350335" lon="13.3113933"><ele>246.66666666666669</ele><time>2026-04-26T14:44:05.502Z</time></trkpt><trkpt lat="43.350375" lon="13.311615"><ele>245.33333333333331</ele><time>2026-04-26T14:44:06.503Z</time></trkpt><trkpt lat="43.3504067" lon="13.3118183"><ele>244.0</ele><time>2026-04-26T14:44:07.503Z</time></trkpt><trkpt lat="43.350435" lon="13.3119983"><ele>244.0</ele><time>2026-04-26T14:44:08.503Z</time></trkpt><trkpt lat="43.3504567" lon="13.3121533"><ele>243.99999999999997</ele><time>2026-04-26T14:44:09.502Z</time></trkpt><trkpt lat="43.3504667" lon="13.3122867"><ele>243.99999999999997</ele><time>2026-04-26T14:44:10.502Z</time></trkpt><trkpt lat="43.3504583" lon="13.3124"><ele>244.0</ele><time>2026-04-26T14:44:11.502Z</time></trkpt><trkpt lat="43.3504083" lon="13.312485"><ele>244.0</ele><time>2026-04-26T14:44:12.503Z</time></trkpt><trkpt lat="43.3503317" lon="13.3125467"><ele>243.6</ele><time>2026-04-26T14:44:13.502Z</time></trkpt><trkpt lat="43.35023" lon="13.3125933"><ele>243.2</ele><time>2026-04-26T14:44:14.503Z</time></trkpt><trkpt lat="43.3500983" lon="13.3126283"><ele>242.79999999999998</ele><time>2026-04-26T14:44:15.503Z</time></trkpt><trkpt lat="43.3499883" lon="13.3126583"><ele>242.39999999999998</ele><time>2026-04-26T14:44:16.502Z</time></trkpt><trkpt lat="43.3499067" lon="13.3126883"><ele>242.0</ele><time>2026-04-26T14:44:17.502Z</time></trkpt><trkpt lat="43.34982" lon="13.312785"><ele>242.0</ele><time>2026-04-26T14:44:19.503Z</time></trkpt><trkpt lat="43.3498317" lon="13.31295"><ele>242.0</ele><time>2026-04-26T14:44:21.502Z</time></trkpt><trkpt lat="43.3498767" lon="13.3130767"><ele>242.0</ele><time>2026-04-26T14:44:22.502Z</time></trkpt><trkpt lat="43.349955" lon="13.313235"><ele>242.0</ele><time>2026-04-26T14:44:23.502Z</time></trkpt><trkpt lat="43.3500317" lon="13.3134067"><ele>241.25</ele><time>2026-04-26T14:44:24.502Z</time></trkpt><trkpt lat="43.3500983" lon="13.3135733"><ele>240.5</ele><time>2026-04-26T14:44:25.502Z</time></trkpt><trkpt lat="43.35016" lon="13.31375"><ele>239.75</ele><time>2026-04-26T14:44:26.502Z</time></trkpt><trkpt lat="43.3502083" lon="13.3139517"><ele>239.0</ele><time>2026-04-26T14:44:27.502Z</time></trkpt><trkpt lat="43.350245" lon="13.314175"><ele>238.0</ele><time>2026-04-26T14:44:28.502Z</time></trkpt><trkpt lat="43.3502917" lon="13.3144217"><ele>237.0</ele><time>2026-04-26T14:44:29.502Z</time></trkpt><trkpt lat="43.3503283" lon="13.31469"><ele>236.0</ele><time>2026-04-26T14:44:30.503Z</time></trkpt><trkpt lat="43.3503817" lon="13.3149683"><ele>234.0</ele><time>2026-04-26T14:44:31.502Z</time></trkpt><trkpt lat="43.3504267" lon="13.3152533"><ele>232.0</ele><time>2026-04-26T14:44:32.503Z</time></trkpt><trkpt lat="43.35048" lon="13.3155283"><ele>230.0</ele><time>2026-04-26T14:44:33.502Z</time></trkpt><trkpt lat="43.3505217" lon="13.315795"><ele>232.66666666666669</ele><time>2026-04-26T14:44:34.502Z</time></trkpt><trkpt lat="43.3505667" lon="13.3160617"><ele>235.33333333333331</ele><time>2026-04-26T14:44:35.502Z</time></trkpt><trkpt lat="43.3506133" lon="13.3163333"><ele>238.0</ele><time>2026-04-26T14:44:36.502Z</time></trkpt><trkpt lat="43.3506517" lon="13.31659"><ele>238.66666666666666</ele><time>2026-04-26T14:44:37.502Z</time></trkpt><trkpt lat="43.3506933" lon="13.3168333"><ele>239.33333333333331</ele><time>2026-04-26T14:44:38.502Z</time></trkpt><trkpt lat="43.3507417" lon="13.3170833"><ele>240.0</ele><time>2026-04-26T14:44:39.502Z</time></trkpt><trkpt lat="43.35079" lon="13.31731"><ele>240.0</ele><time>2026-04-26T14:44:40.502Z</time></trkpt><trkpt lat="43.35082" lon="13.3175233"><ele>240.0</ele><time>2026-04-26T14:44:41.502Z</time></trkpt><trkpt lat="43.3508517" lon="13.3177183"><ele>240.0</ele><time>2026-04-26T14:44:42.502Z</time></trkpt><trkpt lat="43.3508833" lon="13.3178983"><ele>240.0</ele><time>2026-04-26T14:44:43.502Z</time></trkpt><trkpt lat="43.3509183" lon="13.31808"><ele>239.25</ele><time>2026-04-26T14:44:44.502Z</time></trkpt><trkpt lat="43.350945" lon="13.3182633"><ele>238.5</ele><time>2026-04-26T14:44:45.502Z</time></trkpt><trkpt lat="43.350985" lon="13.3184467"><ele>237.75</ele><time>2026-04-26T14:44:46.503Z</time></trkpt><trkpt lat="43.35103" lon="13.31863"><ele>237.0</ele><time>2026-04-26T14:44:47.502Z</time></trkpt><trkpt lat="43.3510733" lon="13.3188283"><ele>235.0</ele><time>2026-04-26T14:44:48.503Z</time></trkpt><trkpt lat="43.351105" lon="13.31905"><ele>233.0</ele><time>2026-04-26T14:44:49.502Z</time></trkpt><trkpt lat="43.3511433" lon="13.3192567"><ele>231.0</ele><time>2026-04-26T14:44:50.503Z</time></trkpt><trkpt lat="43.35118" lon="13.3194833"><ele>231.0</ele><time>2026-04-26T14:44:51.503Z</time></trkpt><trkpt lat="43.3512283" lon="13.3197"><ele>231.0</ele><time>2026-04-26T14:44:52.503Z</time></trkpt><trkpt lat="43.3512667" lon="13.3199317"><ele>231.0</ele><time>2026-04-26T14:44:53.502Z</time></trkpt><trkpt lat="43.3513183" lon="13.3201583"><ele>230.33333333333331</ele><time>2026-04-26T14:44:54.503Z</time></trkpt><trkpt lat="43.3513467" lon="13.3203833"><ele>229.66666666666666</ele><time>2026-04-26T14:44:55.502Z</time></trkpt><trkpt lat="43.3513817" lon="13.3205983"><ele>229.0</ele><time>2026-04-26T14:44:56.502Z</time></trkpt><trkpt lat="43.3514167" lon="13.3208083"><ele>231.0</ele><time>2026-04-26T14:44:57.502Z</time></trkpt><trkpt lat="43.351435" lon="13.3210133"><ele>233.0</ele><time>2026-04-26T14:44:58.502Z</time></trkpt><trkpt lat="43.3514533" lon="13.3212317"><ele>235.0</ele><time>2026-04-26T14:44:59.502Z</time></trkpt><trkpt lat="43.3514417" lon="13.3214683"><ele>235.33333333333331</ele><time>2026-04-26T14:45:00.503Z</time></trkpt><trkpt lat="43.3514433" lon="13.321715"><ele>235.66666666666669</ele><time>2026-04-26T14:45:01.502Z</time></trkpt><trkpt lat="43.35144" lon="13.321975"><ele>236.0</ele><time>2026-04-26T14:45:02.502Z</time></trkpt><trkpt lat="43.3514333" lon="13.3222367"><ele>236.33333333333334</ele><time>2026-04-26T14:45:03.502Z</time></trkpt><trkpt lat="43.3514217" lon="13.3225133"><ele>236.66666666666669</ele><time>2026-04-26T14:45:04.503Z</time></trkpt><trkpt lat="43.3514233" lon="13.3227767"><ele>237.0</ele><time>2026-04-26T14:45:05.502Z</time></trkpt><trkpt lat="43.351425" lon="13.3230367"><ele>237.0</ele><time>2026-04-26T14:45:06.502Z</time></trkpt><trkpt lat="43.3514217" lon="13.323295"><ele>237.0</ele><time>2026-04-26T14:45:07.502Z</time></trkpt><trkpt lat="43.35142" lon="13.3235533"><ele>237.0</ele><time>2026-04-26T14:45:08.502Z</time></trkpt><trkpt lat="43.351425" lon="13.3238133"><ele>237.33333333333331</ele><time>2026-04-26T14:45:09.503Z</time></trkpt><trkpt lat="43.35142" lon="13.3240617"><ele>237.66666666666666</ele><time>2026-04-26T14:45:10.502Z</time></trkpt><trkpt lat="43.351415" lon="13.3243083"><ele>238.0</ele><time>2026-04-26T14:45:11.503Z</time></trkpt><trkpt lat="43.35143" lon="13.324545"><ele>238.0</ele><time>2026-04-26T14:45:12.502Z</time></trkpt><trkpt lat="43.351465" lon="13.32477"><ele>238.0</ele><time>2026-04-26T14:45:13.502Z</time></trkpt><trkpt lat="43.3515017" lon="13.3249767"><ele>238.0</ele><time>2026-04-26T14:45:14.503Z</time></trkpt><trkpt lat="43.351535" lon="13.3251833"><ele>238.0</ele><time>2026-04-26T14:45:15.503Z</time></trkpt><trkpt lat="43.3515667" lon="13.3253783"><ele>238.0</ele><time>2026-04-26T14:45:16.502Z</time></trkpt><trkpt lat="43.3516083" lon="13.3255533"><ele>238.0</ele><time>2026-04-26T14:45:17.503Z</time></trkpt><trkpt lat="43.3516383" lon="13.3257217"><ele>238.0</ele><time>2026-04-26T14:45:18.502Z</time></trkpt><trkpt lat="43.3516767" lon="13.3258783"><ele>238.0</ele><time>2026-04-26T14:45:19.502Z</time></trkpt><trkpt lat="43.3517067" lon="13.3260367"><ele>238.0</ele><time>2026-04-26T14:45:20.502Z</time></trkpt><trkpt lat="43.35174" lon="13.3262017"><ele>238.0</ele><time>2026-04-26T14:45:21.502Z</time></trkpt><trkpt lat="43.35177" lon="13.32637"><ele>238.0</ele><time>2026-04-26T14:45:22.502Z</time></trkpt><trkpt lat="43.3518" lon="13.3265467"><ele>238.0</ele><time>2026-04-26T14:45:23.502Z</time></trkpt><trkpt lat="43.3518283" lon="13.3267317"><ele>238.0</ele><time>2026-04-26T14:45:24.503Z</time></trkpt><trkpt lat="43.3518483" lon="13.32692"><ele>238.0</ele><time>2026-04-26T14:45:25.502Z</time></trkpt><trkpt lat="43.3518783" lon="13.3271117"><ele>238.0</ele><time>2026-04-26T14:45:26.502Z</time></trkpt><trkpt lat="43.3519117" lon="13.32731"><ele>237.33333333333331</ele><time>2026-04-26T14:45:27.502Z</time></trkpt><trkpt lat="43.3519467" lon="13.3275183"><ele>236.66666666666669</ele><time>2026-04-26T14:45:28.503Z</time></trkpt><trkpt lat="43.351975" lon="13.32772"><ele>236.0</ele><time>2026-04-26T14:45:29.502Z</time></trkpt><trkpt lat="43.352005" lon="13.3279183"><ele>236.25</ele><time>2026-04-26T14:45:30.502Z</time></trkpt><trkpt lat="43.35204" lon="13.3281067"><ele>236.5</ele><time>2026-04-26T14:45:31.502Z</time></trkpt><trkpt lat="43.3520667" lon="13.3282583"><ele>236.75</ele><time>2026-04-26T14:45:32.502Z</time></trkpt><trkpt lat="43.3520833" lon="13.3284"><ele>237.0</ele><time>2026-04-26T14:45:33.502Z</time></trkpt><trkpt lat="43.3520817" lon="13.3285317"><ele>237.0</ele><time>2026-04-26T14:45:34.503Z</time></trkpt><trkpt lat="43.352055" lon="13.3286567"><ele>237.0</ele><time>2026-04-26T14:45:35.502Z</time></trkpt><trkpt lat="43.352005" lon="13.32878"><ele>237.0</ele><time>2026-04-26T14:45:36.502Z</time></trkpt><trkpt lat="43.3519383" lon="13.3289033"><ele>237.0</ele><time>2026-04-26T14:45:37.502Z</time></trkpt><trkpt lat="43.3518517" lon="13.329025"><ele>237.0</ele><time>2026-04-26T14:45:38.502Z</time></trkpt><trkpt lat="43.3517383" lon="13.3291367"><ele>236.0</ele><time>2026-04-26T14:45:39.502Z</time></trkpt><trkpt lat="43.3516083" lon="13.3292333"><ele>235.0</ele><time>2026-04-26T14:45:40.502Z</time></trkpt><trkpt lat="43.3514633" lon="13.3293317"><ele>234.0</ele><time>2026-04-26T14:45:41.502Z</time></trkpt><trkpt lat="43.3513083" lon="13.3294117"><ele>230.66666666666669</ele><time>2026-04-26T14:45:42.502Z</time></trkpt><trkpt lat="43.3511533" lon="13.3294983"><ele>227.33333333333334</ele><time>2026-04-26T14:45:43.502Z</time></trkpt><trkpt lat="43.3510033" lon="13.329585"><ele>224.0</ele><time>2026-04-26T14:45:44.503Z</time></trkpt><trkpt lat="43.3508583" lon="13.329665"><ele>222.66666666666669</ele><time>2026-04-26T14:45:45.502Z</time></trkpt><trkpt lat="43.350725" lon="13.3297617"><ele>221.33333333333331</ele><time>2026-04-26T14:45:46.502Z</time></trkpt><trkpt lat="43.3505917" lon="13.3298717"><ele>220.0</ele><time>2026-04-26T14:45:47.502Z</time></trkpt><trkpt lat="43.3504583" lon="13.3300167"><ele>218.0</ele><time>2026-04-26T14:45:48.502Z</time></trkpt><trkpt lat="43.350335" lon="13.3301717"><ele>216.0</ele><time>2026-04-26T14:45:49.502Z</time></trkpt><trkpt lat="43.35022" lon="13.3303317"><ele>214.0</ele><time>2026-04-26T14:45:50.502Z</time></trkpt><trkpt lat="43.3500933" lon="13.330485"><ele>212.75</ele><time>2026-04-26T14:45:51.503Z</time></trkpt><trkpt lat="43.3499717" lon="13.3306183"><ele>211.5</ele><time>2026-04-26T14:45:52.502Z</time></trkpt><trkpt lat="43.34985" lon="13.3307383"><ele>210.25</ele><time>2026-04-26T14:45:53.502Z</time></trkpt><trkpt lat="43.3497333" lon="13.33084"><ele>209.0</ele><time>2026-04-26T14:45:54.503Z</time></trkpt><trkpt lat="43.3496333" lon="13.3309033"><ele>208.33333333333334</ele><time>2026-04-26T14:45:55.503Z</time></trkpt><trkpt lat="43.3495467" lon="13.33095"><ele>207.66666666666669</ele><time>2026-04-26T14:45:56.502Z</time></trkpt><trkpt lat="43.3494883" lon="13.33099"><ele>207.0</ele><time>2026-04-26T14:45:57.503Z</time></trkpt><trkpt lat="43.34942" lon="13.3310533"><ele>206.33333333333331</ele><time>2026-04-26T14:45:59.502Z</time></trkpt><trkpt lat="43.3494367" lon="13.3311583"><ele>205.66666666666666</ele><time>2026-04-26T14:46:04.503Z</time></trkpt><trkpt lat="43.3494933" lon="13.331205"><ele>205.0</ele><time>2026-04-26T14:46:05.502Z</time></trkpt><trkpt lat="43.3495783" lon="13.3312517"><ele>205.0</ele><time>2026-04-26T14:46:06.503Z</time></trkpt><trkpt lat="43.3497033" lon="13.3313133"><ele>205.0</ele><time>2026-04-26T14:46:07.502Z</time></trkpt><trkpt lat="43.349845" lon="13.331395"><ele>205.0</ele><time>2026-04-26T14:46:08.502Z</time></trkpt><trkpt lat="43.350005" lon="13.3314883"><ele>205.33333333333331</ele><time>2026-04-26T14:46:09.502Z</time></trkpt><trkpt lat="43.35017" lon="13.3315817"><ele>205.66666666666669</ele><time>2026-04-26T14:46:10.503Z</time></trkpt><trkpt lat="43.3503317" lon="13.3316917"><ele>206.0</ele><time>2026-04-26T14:46:11.502Z</time></trkpt><trkpt lat="43.3505117" lon="13.331785"><ele>207.0</ele><time>2026-04-26T14:46:12.502Z</time></trkpt><trkpt lat="43.350715" lon="13.3318933"><ele>208.0</ele><time>2026-04-26T14:46:13.501Z</time></trkpt><trkpt lat="43.3509067" lon="13.33201"><ele>209.0</ele><time>2026-04-26T14:46:14.501Z</time></trkpt><trkpt lat="43.3510967" lon="13.3321183"><ele>208.0</ele><time>2026-04-26T14:46:15.501Z</time></trkpt><trkpt lat="43.3512667" lon="13.3322317"><ele>207.0</ele><time>2026-04-26T14:46:16.501Z</time></trkpt><trkpt lat="43.3514167" lon="13.33235"><ele>206.0</ele><time>2026-04-26T14:46:17.501Z</time></trkpt><trkpt lat="43.3515567" lon="13.3324683"><ele>208.66666666666669</ele><time>2026-04-26T14:46:18.502Z</time></trkpt><trkpt lat="43.351685" lon="13.3325867"><ele>211.33333333333331</ele><time>2026-04-26T14:46:19.5Z</time></trkpt><trkpt lat="43.35182" lon="13.332715"><ele>214.0</ele><time>2026-04-26T14:46:20.501Z</time></trkpt><trkpt lat="43.3519533" lon="13.3328433"><ele>214.0</ele><time>2026-04-26T14:46:21.501Z</time></trkpt><trkpt lat="43.35209" lon="13.33297"><ele>214.0</ele><time>2026-04-26T14:46:22.502Z</time></trkpt><trkpt lat="43.3522233" lon="13.3330967"><ele>214.0</ele><time>2026-04-26T14:46:23.501Z</time></trkpt><trkpt lat="43.3523617" lon="13.3332183"><ele>215.0</ele><time>2026-04-26T14:46:24.501Z</time></trkpt><trkpt lat="43.3524883" lon="13.3333367"><ele>216.0</ele><time>2026-04-26T14:46:25.502Z</time></trkpt><trkpt lat="43.3526117" lon="13.3334383"><ele>217.0</ele><time>2026-04-26T14:46:26.501Z</time></trkpt><trkpt lat="43.35274" lon="13.3335033"><ele>218.0</ele><time>2026-04-26T14:46:27.501Z</time></trkpt><trkpt lat="43.3528667" lon="13.3335483"><ele>218.0</ele><time>2026-04-26T14:46:28.501Z</time></trkpt><trkpt lat="43.3529967" lon="13.3335783"><ele>218.0</ele><time>2026-04-26T14:46:29.502Z</time></trkpt><trkpt lat="43.3531317" lon="13.33359"><ele>218.0</ele><time>2026-04-26T14:46:30.501Z</time></trkpt><trkpt lat="43.35328" lon="13.33361"><ele>218.0</ele><time>2026-04-26T14:46:31.502Z</time></trkpt><trkpt lat="43.3534167" lon="13.33363"><ele>219.0</ele><time>2026-04-26T14:46:32.501Z</time></trkpt><trkpt lat="43.3535533" lon="13.3336467"><ele>220.0</ele><time>2026-04-26T14:46:33.501Z</time></trkpt><trkpt lat="43.35369" lon="13.3336617"><ele>221.0</ele><time>2026-04-26T14:46:34.501Z</time></trkpt><trkpt lat="43.3538267" lon="13.3336867"><ele>222.0</ele><time>2026-04-26T14:46:35.501Z</time></trkpt><trkpt lat="43.353955" lon="13.333715"><ele>221.5</ele><time>2026-04-26T14:46:36.502Z</time></trkpt><trkpt lat="43.3540717" lon="13.3337517"><ele>221.0</ele><time>2026-04-26T14:46:37.502Z</time></trkpt><trkpt lat="43.3541867" lon="13.33381"><ele>220.5</ele><time>2026-04-26T14:46:38.501Z</time></trkpt><trkpt lat="43.3543" lon="13.33388"><ele>220.0</ele><time>2026-04-26T14:46:39.501Z</time></trkpt><trkpt lat="43.35441" lon="13.3339733"><ele>220.0</ele><time>2026-04-26T14:46:40.501Z</time></trkpt><trkpt lat="43.35452" lon="13.3340917"><ele>220.0</ele><time>2026-04-26T14:46:41.501Z</time></trkpt><trkpt lat="43.354635" lon="13.3342217"><ele>220.0</ele><time>2026-04-26T14:46:42.501Z</time></trkpt><trkpt lat="43.354735" lon="13.33437"><ele>220.0</ele><time>2026-04-26T14:46:43.501Z</time></trkpt><trkpt lat="43.3548233" lon="13.3345367"><ele>222.66666666666666</ele><time>2026-04-26T14:46:44.501Z</time></trkpt><trkpt lat="43.3548817" lon="13.334725"><ele>225.33333333333331</ele><time>2026-04-26T14:46:45.501Z</time></trkpt><trkpt lat="43.3549333" lon="13.334935"><ele>228.0</ele><time>2026-04-26T14:46:46.501Z</time></trkpt><trkpt lat="43.354965" lon="13.3351567"><ele>228.0</ele><time>2026-04-26T14:46:47.502Z</time></trkpt><trkpt lat="43.35501" lon="13.3353833"><ele>228.0</ele><time>2026-04-26T14:46:48.501Z</time></trkpt><trkpt lat="43.3550567" lon="13.3356067"><ele>228.0</ele><time>2026-04-26T14:46:49.502Z</time></trkpt><trkpt lat="43.3551183" lon="13.33583"><ele>227.0</ele><time>2026-04-26T14:46:50.501Z</time></trkpt><trkpt lat="43.355195" lon="13.336055"><ele>226.0</ele><time>2026-04-26T14:46:51.501Z</time></trkpt><trkpt lat="43.35528" lon="13.3362833"><ele>225.0</ele><time>2026-04-26T14:46:52.501Z</time></trkpt><trkpt lat="43.355375" lon="13.3365167"><ele>224.33333333333331</ele><time>2026-04-26T14:46:53.501Z</time></trkpt><trkpt lat="43.3554717" lon="13.33676"><ele>223.66666666666666</ele><time>2026-04-26T14:46:54.501Z</time></trkpt><trkpt lat="43.35557" lon="13.3370033"><ele>223.0</ele><time>2026-04-26T14:46:55.501Z</time></trkpt><trkpt lat="43.3556767" lon="13.3372517"><ele>226.33333333333331</ele><time>2026-04-26T14:46:56.501Z</time></trkpt><trkpt lat="43.3557767" lon="13.3374967"><ele>229.66666666666669</ele><time>2026-04-26T14:46:57.501Z</time></trkpt><trkpt lat="43.355875" lon="13.33774"><ele>233.0</ele><time>2026-04-26T14:46:58.501Z</time></trkpt><trkpt lat="43.3559733" lon="13.3379833"><ele>232.66666666666669</ele><time>2026-04-26T14:46:59.502Z</time></trkpt><trkpt lat="43.35607" lon="13.3382117"><ele>232.33333333333331</ele><time>2026-04-26T14:47:00.501Z</time></trkpt><trkpt lat="43.356155" lon="13.3384283"><ele>232.0</ele><time>2026-04-26T14:47:01.502Z</time></trkpt><trkpt lat="43.356235" lon="13.3386317"><ele>232.0</ele><time>2026-04-26T14:47:02.501Z</time></trkpt><trkpt lat="43.35632" lon="13.3388267"><ele>232.0</ele><time>2026-04-26T14:47:03.501Z</time></trkpt><trkpt lat="43.3564117" lon="13.3390217"><ele>232.0</ele><time>2026-04-26T14:47:04.502Z</time></trkpt><trkpt lat="43.3565" lon="13.3392233"><ele>231.66666666666666</ele><time>2026-04-26T14:47:05.501Z</time></trkpt><trkpt lat="43.3565917" lon="13.3394317"><ele>231.33333333333331</ele><time>2026-04-26T14:47:06.501Z</time></trkpt><trkpt lat="43.3566783" lon="13.339635"><ele>231.0</ele><time>2026-04-26T14:47:07.501Z</time></trkpt><trkpt lat="43.35677" lon="13.3398317"><ele>231.0</ele><time>2026-04-26T14:47:08.501Z</time></trkpt><trkpt lat="43.3568533" lon="13.3400317"><ele>231.0</ele><time>2026-04-26T14:47:09.501Z</time></trkpt><trkpt lat="43.3569283" lon="13.3402233"><ele>231.0</ele><time>2026-04-26T14:47:10.501Z</time></trkpt><trkpt lat="43.3569983" lon="13.3404233"><ele>230.25</ele><time>2026-04-26T14:47:11.501Z</time></trkpt><trkpt lat="43.3570633" lon="13.3406083"><ele>229.5</ele><time>2026-04-26T14:47:12.501Z</time></trkpt><trkpt lat="43.3571133" lon="13.34078"><ele>228.75</ele><time>2026-04-26T14:47:13.501Z</time></trkpt><trkpt lat="43.3571517" lon="13.3409267"><ele>228.0</ele><time>2026-04-26T14:47:14.501Z</time></trkpt><trkpt lat="43.3571867" lon="13.3410783"><ele>228.4</ele><time>2026-04-26T14:47:15.501Z</time></trkpt><trkpt lat="43.3572117" lon="13.3412317"><ele>228.8</ele><time>2026-04-26T14:47:16.501Z</time></trkpt><trkpt lat="43.35723" lon="13.3413767"><ele>229.2</ele><time>2026-04-26T14:47:17.501Z</time></trkpt><trkpt lat="43.3572333" lon="13.3415233"><ele>229.6</ele><time>2026-04-26T14:47:18.501Z</time></trkpt><trkpt lat="43.3572333" lon="13.3416767"><ele>230.0</ele><time>2026-04-26T14:47:19.502Z</time></trkpt><trkpt lat="43.357235" lon="13.3418467"><ele>230.0</ele><time>2026-04-26T14:47:20.501Z</time></trkpt><trkpt lat="43.35724" lon="13.34203"><ele>230.0</ele><time>2026-04-26T14:47:21.501Z</time></trkpt><trkpt lat="43.3572417" lon="13.34222"><ele>230.0</ele><time>2026-04-26T14:47:22.501Z</time></trkpt><trkpt lat="43.3572483" lon="13.3423883"><ele>230.0</ele><time>2026-04-26T14:47:23.502Z</time></trkpt><trkpt lat="43.3572517" lon="13.3425383"><ele>230.2</ele><time>2026-04-26T14:47:24.501Z</time></trkpt><trkpt lat="43.3572467" lon="13.3426783"><ele>230.4</ele><time>2026-04-26T14:47:25.502Z</time></trkpt><trkpt lat="43.3572433" lon="13.3428083"><ele>230.60000000000002</ele><time>2026-04-26T14:47:26.501Z</time></trkpt><trkpt lat="43.3572367" lon="13.3429467"><ele>230.8</ele><time>2026-04-26T14:47:27.501Z</time></trkpt><trkpt lat="43.3572233" lon="13.3430883"><ele>231.0</ele><time>2026-04-26T14:47:28.501Z</time></trkpt><trkpt lat="43.3572083" lon="13.34323"><ele>229.5</ele><time>2026-04-26T14:47:29.501Z</time></trkpt><trkpt lat="43.35719" lon="13.343365"><ele>228.0</ele><time>2026-04-26T14:47:30.501Z</time></trkpt><trkpt lat="43.3571817" lon="13.3434833"><ele>226.5</ele><time>2026-04-26T14:47:31.501Z</time></trkpt><trkpt lat="43.3571733" lon="13.34359"><ele>225.0</ele><time>2026-04-26T14:47:32.502Z</time></trkpt><trkpt lat="43.35716" lon="13.3436917"><ele>223.5</ele><time>2026-04-26T14:47:33.502Z</time></trkpt><trkpt lat="43.3571417" lon="13.3437883"><ele>222.0</ele><time>2026-04-26T14:47:34.501Z</time></trkpt><trkpt lat="43.357135" lon="13.3438883"><ele>221.83333333333334</ele><time>2026-04-26T14:47:35.501Z</time></trkpt><trkpt lat="43.3571167" lon="13.3439933"><ele>221.66666666666669</ele><time>2026-04-26T14:47:36.501Z</time></trkpt><trkpt lat="43.357105" lon="13.34409"><ele>221.5</ele><time>2026-04-26T14:47:37.501Z</time></trkpt><trkpt lat="43.3570983" lon="13.3441767"><ele>221.33333333333334</ele><time>2026-04-26T14:47:38.502Z</time></trkpt><trkpt lat="43.3571" lon="13.34433"><ele>221.16666666666669</ele><time>2026-04-26T14:47:40.501Z</time></trkpt><trkpt lat="43.3571083" lon="13.34444"><ele>221.0</ele><time>2026-04-26T14:47:42.501Z</time></trkpt><trkpt lat="43.35705" lon="13.34451"><ele>221.00000000000003</ele><time>2026-04-26T14:47:51.502Z</time></trkpt><trkpt lat="43.3569967" lon="13.3444083"><ele>221.0</ele><time>2026-04-26T14:47:54.501Z</time></trkpt><trkpt lat="43.356975" lon="13.3443217"><ele>221.0</ele><time>2026-04-26T14:47:55.501Z</time></trkpt><trkpt lat="43.3569383" lon="13.3442417"><ele>221.0</ele><time>2026-04-26T14:47:56.501Z</time></trkpt><trkpt lat="43.3568817" lon="13.3441883"><ele>221.00000000000003</ele><time>2026-04-26T14:47:57.501Z</time></trkpt><trkpt lat="43.3568083" lon="13.3441533"><ele>221.0</ele><time>2026-04-26T14:47:58.501Z</time></trkpt><trkpt lat="43.3567083" lon="13.3441283"><ele>221.0</ele><time>2026-04-26T14:47:59.501Z</time></trkpt><trkpt lat="43.3566017" lon="13.34412"><ele>221.00000000000003</ele><time>2026-04-26T14:48:00.501Z</time></trkpt><trkpt lat="43.3564867" lon="13.3441183"><ele>221.00000000000003</ele><time>2026-04-26T14:48:01.501Z</time></trkpt><trkpt lat="43.3563783" lon="13.3441217"><ele>221.0</ele><time>2026-04-26T14:48:02.501Z</time></trkpt><trkpt lat="43.35628" lon="13.3441217"><ele>221.0</ele><time>2026-04-26T14:48:03.501Z</time></trkpt><trkpt lat="43.3561867" lon="13.3441183"><ele>219.20000000000002</ele><time>2026-04-26T14:48:04.501Z</time></trkpt><trkpt lat="43.3561" lon="13.3441067"><ele>217.40000000000003</ele><time>2026-04-26T14:48:05.501Z</time></trkpt><trkpt lat="43.3560067" lon="13.3440917"><ele>215.6</ele><time>2026-04-26T14:48:06.501Z</time></trkpt><trkpt lat="43.3559" lon="13.3440817"><ele>213.8</ele><time>2026-04-26T14:48:07.501Z</time></trkpt><trkpt lat="43.3557867" lon="13.3440767"><ele>212.0</ele><time>2026-04-26T14:48:08.501Z</time></trkpt><trkpt lat="43.3556683" lon="13.3440617"><ele>212.0</ele><time>2026-04-26T14:48:09.502Z</time></trkpt><trkpt lat="43.3555483" lon="13.34406"><ele>212.0</ele><time>2026-04-26T14:48:10.501Z</time></trkpt><trkpt lat="43.3554233" lon="13.3440683"><ele>212.0</ele><time>2026-04-26T14:48:11.501Z</time></trkpt><trkpt lat="43.35528" lon="13.3440867"><ele>212.0</ele><time>2026-04-26T14:48:12.501Z</time></trkpt><trkpt lat="43.35513" lon="13.3441067"><ele>210.25</ele><time>2026-04-26T14:48:13.501Z</time></trkpt><trkpt lat="43.3549833" lon="13.3441233"><ele>208.5</ele><time>2026-04-26T14:48:14.501Z</time></trkpt><trkpt lat="43.3548433" lon="13.3441317"><ele>206.75</ele><time>2026-04-26T14:48:15.501Z</time></trkpt><trkpt lat="43.3547033" lon="13.3441583"><ele>205.0</ele><time>2026-04-26T14:48:16.501Z</time></trkpt><trkpt lat="43.3545633" lon="13.3441733"><ele>204.33333333333331</ele><time>2026-04-26T14:48:17.501Z</time></trkpt><trkpt lat="43.3544167" lon="13.3441917"><ele>203.66666666666669</ele><time>2026-04-26T14:48:18.501Z</time></trkpt><trkpt lat="43.3542617" lon="13.344215"><ele>203.0</ele><time>2026-04-26T14:48:19.502Z</time></trkpt><trkpt lat="43.3541083" lon="13.3442333"><ele>203.0</ele><time>2026-04-26T14:48:20.502Z</time></trkpt><trkpt lat="43.3539633" lon="13.3442617"><ele>203.0</ele><time>2026-04-26T14:48:21.501Z</time></trkpt><trkpt lat="43.353825" lon="13.3442917"><ele>203.0</ele><time>2026-04-26T14:48:22.502Z</time></trkpt><trkpt lat="43.3537017" lon="13.344315"><ele>203.0</ele><time>2026-04-26T14:48:23.501Z</time></trkpt><trkpt lat="43.3535817" lon="13.3443383"><ele>203.2</ele><time>2026-04-26T14:48:24.501Z</time></trkpt><trkpt lat="43.35347" lon="13.3443767"><ele>203.4</ele><time>2026-04-26T14:48:25.501Z</time></trkpt><trkpt lat="43.3533667" lon="13.3444183"><ele>203.6</ele><time>2026-04-26T14:48:26.501Z</time></trkpt><trkpt lat="43.35328" lon="13.3444633"><ele>203.79999999999998</ele><time>2026-04-26T14:48:27.502Z</time></trkpt><trkpt lat="43.3532083" lon="13.344535"><ele>204.0</ele><time>2026-04-26T14:48:28.502Z</time></trkpt><trkpt lat="43.353155" lon="13.3446083"><ele>204.0</ele><time>2026-04-26T14:48:29.502Z</time></trkpt><trkpt lat="43.353125" lon="13.3446983"><ele>204.0</ele><time>2026-04-26T14:48:30.501Z</time></trkpt><trkpt lat="43.35313" lon="13.34481"><ele>204.0</ele><time>2026-04-26T14:48:31.501Z</time></trkpt><trkpt lat="43.3531633" lon="13.3449117"><ele>204.0</ele><time>2026-04-26T14:48:32.501Z</time></trkpt><trkpt lat="43.3532083" lon="13.3450083"><ele>204.0</ele><time>2026-04-26T14:48:33.501Z</time></trkpt><trkpt lat="43.35327" lon="13.3451"><ele>204.0</ele><time>2026-04-26T14:48:34.501Z</time></trkpt><trkpt lat="43.3533383" lon="13.34519"><ele>204.16666666666666</ele><time>2026-04-26T14:48:35.501Z</time></trkpt><trkpt lat="43.353405" lon="13.345275"><ele>204.33333333333331</ele><time>2026-04-26T14:48:36.501Z</time></trkpt><trkpt lat="43.3534583" lon="13.3453533"><ele>204.5</ele><time>2026-04-26T14:48:37.501Z</time></trkpt><trkpt lat="43.3534933" lon="13.3454367"><ele>204.66666666666666</ele><time>2026-04-26T14:48:38.502Z</time></trkpt><trkpt lat="43.3535" lon="13.3455633"><ele>204.83333333333331</ele><time>2026-04-26T14:48:40.501Z</time></trkpt><trkpt lat="43.353415" lon="13.345635"><ele>205.0</ele><time>2026-04-26T14:48:42.501Z</time></trkpt><trkpt lat="43.3533517" lon="13.345665"><ele>204.99999999999997</ele><time>2026-04-26T14:48:43.501Z</time></trkpt><trkpt lat="43.3532733" lon="13.3456867"><ele>205.0</ele><time>2026-04-26T14:48:44.501Z</time></trkpt><trkpt lat="43.3531917" lon="13.345705"><ele>205.0</ele><time>2026-04-26T14:48:45.501Z</time></trkpt><trkpt lat="43.3531083" lon="13.3457283"><ele>205.0</ele><time>2026-04-26T14:48:46.501Z</time></trkpt><trkpt lat="43.3530183" lon="13.345745"><ele>204.99999999999997</ele><time>2026-04-26T14:48:47.502Z</time></trkpt><trkpt lat="43.3529167" lon="13.345775"><ele>205.0</ele><time>2026-04-26T14:48:48.501Z</time></trkpt><trkpt lat="43.3528167" lon="13.3458133"><ele>204.0</ele><time>2026-04-26T14:48:49.501Z</time></trkpt><trkpt lat="43.35272" lon="13.34584"><ele>203.0</ele><time>2026-04-26T14:48:50.501Z</time></trkpt><trkpt lat="43.3526317" lon="13.3458667"><ele>202.0</ele><time>2026-04-26T14:48:51.502Z</time></trkpt><trkpt lat="43.3525433" lon="13.34589"><ele>201.0</ele><time>2026-04-26T14:48:52.502Z</time></trkpt><trkpt lat="43.352445" lon="13.3459117"><ele>200.0</ele><time>2026-04-26T14:48:53.501Z</time></trkpt><trkpt lat="43.3523483" lon="13.345935"><ele>200.0</ele><time>2026-04-26T14:48:54.501Z</time></trkpt><trkpt lat="43.3522417" lon="13.3459617"><ele>200.0</ele><time>2026-04-26T14:48:55.501Z</time></trkpt><trkpt lat="43.35213" lon="13.3459817"><ele>200.0</ele><time>2026-04-26T14:48:56.501Z</time></trkpt><trkpt lat="43.3520283" lon="13.346005"><ele>200.0</ele><time>2026-04-26T14:48:57.501Z</time></trkpt><trkpt lat="43.3519283" lon="13.3460333"><ele>200.0</ele><time>2026-04-26T14:48:58.501Z</time></trkpt><trkpt lat="43.3518333" lon="13.346065"><ele>199.50000000000003</ele><time>2026-04-26T14:48:59.501Z</time></trkpt><trkpt lat="43.3517467" lon="13.3460967"><ele>199.0</ele><time>2026-04-26T14:49:00.501Z</time></trkpt><trkpt lat="43.351675" lon="13.3461217"><ele>198.5</ele><time>2026-04-26T14:49:01.501Z</time></trkpt><trkpt lat="43.3516067" lon="13.3461417"><ele>198.0</ele><time>2026-04-26T14:49:02.501Z</time></trkpt><trkpt lat="43.35149" lon="13.3461967"><ele>197.50000000000003</ele><time>2026-04-26T14:49:04.502Z</time></trkpt><trkpt lat="43.3514183" lon="13.34624"><ele>197.0</ele><time>2026-04-26T14:49:05.501Z</time></trkpt><trkpt lat="43.3513317" lon="13.3462867"><ele>197.0</ele><time>2026-04-26T14:49:06.501Z</time></trkpt><trkpt lat="43.3512217" lon="13.3463467"><ele>197.0</ele><time>2026-04-26T14:49:07.501Z</time></trkpt><trkpt lat="43.3511083" lon="13.346405"><ele>197.0</ele><time>2026-04-26T14:49:08.501Z</time></trkpt><trkpt lat="43.351" lon="13.3464567"><ele>197.0</ele><time>2026-04-26T14:49:09.501Z</time></trkpt><trkpt lat="43.35089" lon="13.34651"><ele>197.0</ele><time>2026-04-26T14:49:10.501Z</time></trkpt><trkpt lat="43.3508" lon="13.346565"><ele>197.0</ele><time>2026-04-26T14:49:11.501Z</time></trkpt><trkpt lat="43.3507217" lon="13.3466167"><ele>197.0</ele><time>2026-04-26T14:49:12.501Z</time></trkpt><trkpt lat="43.3506467" lon="13.3466717"><ele>197.0</ele><time>2026-04-26T14:49:13.501Z</time></trkpt><trkpt lat="43.35056" lon="13.3467317"><ele>197.0</ele><time>2026-04-26T14:49:14.501Z</time></trkpt><trkpt lat="43.350465" lon="13.34679"><ele>197.0</ele><time>2026-04-26T14:49:15.501Z</time></trkpt><trkpt lat="43.350365" lon="13.346855"><ele>197.0</ele><time>2026-04-26T14:49:16.501Z</time></trkpt><trkpt lat="43.3502683" lon="13.3469083"><ele>197.0</ele><time>2026-04-26T14:49:17.501Z</time></trkpt><trkpt lat="43.3501817" lon="13.34696"><ele>197.0</ele><time>2026-04-26T14:49:18.501Z</time></trkpt><trkpt lat="43.3501067" lon="13.347005"><ele>197.0</ele><time>2026-04-26T14:49:19.501Z</time></trkpt><trkpt lat="43.35004" lon="13.3470467"><ele>197.00000000000003</ele><time>2026-04-26T14:49:20.501Z</time></trkpt><trkpt lat="43.349965" lon="13.3470883"><ele>197.0</ele><time>2026-04-26T14:49:21.501Z</time></trkpt><trkpt lat="43.3498933" lon="13.3471267"><ele>197.0</ele><time>2026-04-26T14:49:22.501Z</time></trkpt><trkpt lat="43.3498333" lon="13.3471567"><ele>197.0</ele><time>2026-04-26T14:49:23.501Z</time></trkpt><trkpt lat="43.3497133" lon="13.3472167"><ele>197.00000000000003</ele><time>2026-04-26T14:49:25.501Z</time></trkpt><trkpt lat="43.3496817" lon="13.3473117"><ele>197.0</ele><time>2026-04-26T14:49:28.501Z</time></trkpt><trkpt lat="43.34979" lon="13.3473583"><ele>197.25</ele><time>2026-04-26T14:49:30.501Z</time></trkpt><trkpt lat="43.3498917" lon="13.3473633"><ele>197.5</ele><time>2026-04-26T14:49:31.501Z</time></trkpt><trkpt lat="43.350035" lon="13.34738"><ele>197.75</ele><time>2026-04-26T14:49:32.502Z</time></trkpt><trkpt lat="43.35022" lon="13.3474133"><ele>198.0</ele><time>2026-04-26T14:49:33.501Z</time></trkpt><trkpt lat="43.35043" lon="13.3474767"><ele>198.33333333333331</ele><time>2026-04-26T14:49:34.501Z</time></trkpt><trkpt lat="43.3506233" lon="13.347585"><ele>198.66666666666666</ele><time>2026-04-26T14:49:35.502Z</time></trkpt><trkpt lat="43.350825" lon="13.3477217"><ele>199.0</ele><time>2026-04-26T14:49:36.502Z</time></trkpt><trkpt lat="43.3510283" lon="13.3478917"><ele>200.0</ele><time>2026-04-26T14:49:37.501Z</time></trkpt><trkpt lat="43.351235" lon="13.34808"><ele>201.0</ele><time>2026-04-26T14:49:38.501Z</time></trkpt><trkpt lat="43.3514517" lon="13.3482717"><ele>201.0</ele><time>2026-04-26T14:49:39.502Z</time></trkpt><trkpt lat="43.35167" lon="13.3484683"><ele>201.0</ele><time>2026-04-26T14:49:40.501Z</time></trkpt><trkpt lat="43.3518967" lon="13.348655"><ele>201.0</ele><time>2026-04-26T14:49:41.502Z</time></trkpt><trkpt lat="43.3521183" lon="13.3488417"><ele>201.0</ele><time>2026-04-26T14:49:42.501Z</time></trkpt><trkpt lat="43.35234" lon="13.3490383"><ele>202.0</ele><time>2026-04-26T14:49:43.501Z</time></trkpt><trkpt lat="43.3525567" lon="13.349225"><ele>203.0</ele><time>2026-04-26T14:49:44.501Z</time></trkpt><trkpt lat="43.3527617" lon="13.3494067"><ele>203.0</ele><time>2026-04-26T14:49:45.501Z</time></trkpt><trkpt lat="43.3529633" lon="13.3495783"><ele>203.0</ele><time>2026-04-26T14:49:46.502Z</time></trkpt><trkpt lat="43.3531667" lon="13.34975"><ele>203.5</ele><time>2026-04-26T14:49:47.501Z</time></trkpt><trkpt lat="43.353365" lon="13.3499317"><ele>204.0</ele><time>2026-04-26T14:49:48.501Z</time></trkpt><trkpt lat="43.3535667" lon="13.3500917"><ele>204.0</ele><time>2026-04-26T14:49:49.501Z</time></trkpt><trkpt lat="43.3537617" lon="13.3502567"><ele>204.0</ele><time>2026-04-26T14:49:50.501Z</time></trkpt><trkpt lat="43.3539533" lon="13.3504333"><ele>203.5</ele><time>2026-04-26T14:49:51.501Z</time></trkpt><trkpt lat="43.354155" lon="13.3506083"><ele>203.0</ele><time>2026-04-26T14:49:52.501Z</time></trkpt><trkpt lat="43.3543567" lon="13.3507867"><ele>203.0</ele><time>2026-04-26T14:49:53.501Z</time></trkpt><trkpt lat="43.354565" lon="13.35096"><ele>203.0</ele><time>2026-04-26T14:49:54.501Z</time></trkpt><trkpt lat="43.3547683" lon="13.351125"><ele>202.5</ele><time>2026-04-26T14:49:55.501Z</time></trkpt><trkpt lat="43.3549783" lon="13.3513067"><ele>202.0</ele><time>2026-04-26T14:49:56.501Z</time></trkpt><trkpt lat="43.3551833" lon="13.35148"><ele>202.0</ele><time>2026-04-26T14:49:57.501Z</time></trkpt><trkpt lat="43.355385" lon="13.3516717"><ele>202.0</ele><time>2026-04-26T14:49:58.501Z</time></trkpt><trkpt lat="43.3555817" lon="13.35186"><ele>202.0</ele><time>2026-04-26T14:49:59.501Z</time></trkpt><trkpt lat="43.3557733" lon="13.3520583"><ele>202.0</ele><time>2026-04-26T14:50:00.501Z</time></trkpt><trkpt lat="43.35597" lon="13.3522617"><ele>202.0</ele><time>2026-04-26T14:50:01.501Z</time></trkpt><trkpt lat="43.35616" lon="13.3524567"><ele>202.0</ele><time>2026-04-26T14:50:02.501Z</time></trkpt><trkpt lat="43.3563383" lon="13.352635"><ele>203.33333333333331</ele><time>2026-04-26T14:50:03.501Z</time></trkpt><trkpt lat="43.35651" lon="13.3528133"><ele>204.66666666666669</ele><time>2026-04-26T14:50:04.501Z</time></trkpt><trkpt lat="43.3566683" lon="13.353005"><ele>206.0</ele><time>2026-04-26T14:50:05.502Z</time></trkpt><trkpt lat="43.3568183" lon="13.3531967"><ele>206.0</ele><time>2026-04-26T14:50:06.501Z</time></trkpt><trkpt lat="43.3569583" lon="13.3534167"><ele>206.0</ele><time>2026-04-26T14:50:07.502Z</time></trkpt><trkpt lat="43.3570867" lon="13.35363"><ele>206.0</ele><time>2026-04-26T14:50:08.501Z</time></trkpt><trkpt lat="43.35721" lon="13.3538167"><ele>207.0</ele><time>2026-04-26T14:50:09.501Z</time></trkpt><trkpt lat="43.357335" lon="13.3540017"><ele>208.0</ele><time>2026-04-26T14:50:10.501Z</time></trkpt><trkpt lat="43.3574783" lon="13.3541667"><ele>209.0</ele><time>2026-04-26T14:50:11.501Z</time></trkpt><trkpt lat="43.3576417" lon="13.3543033"><ele>209.0</ele><time>2026-04-26T14:50:12.501Z</time></trkpt><trkpt lat="43.3578183" lon="13.3544267"><ele>209.0</ele><time>2026-04-26T14:50:13.501Z</time></trkpt><trkpt lat="43.3580167" lon="13.354525"><ele>209.0</ele><time>2026-04-26T14:50:14.501Z</time></trkpt><trkpt lat="43.3582167" lon="13.354635"><ele>208.66666666666669</ele><time>2026-04-26T14:50:15.501Z</time></trkpt><trkpt lat="43.3584167" lon="13.3547317"><ele>208.33333333333331</ele><time>2026-04-26T14:50:16.501Z</time></trkpt><trkpt lat="43.3585983" lon="13.3548233"><ele>208.0</ele><time>2026-04-26T14:50:17.501Z</time></trkpt><trkpt lat="43.3587667" lon="13.3548967"><ele>209.33333333333331</ele><time>2026-04-26T14:50:18.501Z</time></trkpt><trkpt lat="43.3589167" lon="13.3549383"><ele>210.66666666666669</ele><time>2026-04-26T14:50:19.502Z</time></trkpt><trkpt lat="43.3590733" lon="13.3549333"><ele>212.0</ele><time>2026-04-26T14:50:20.502Z</time></trkpt><trkpt lat="43.359235" lon="13.354895"><ele>212.0</ele><time>2026-04-26T14:50:21.501Z</time></trkpt><trkpt lat="43.359405" lon="13.3548283"><ele>212.0</ele><time>2026-04-26T14:50:22.501Z</time></trkpt><trkpt lat="43.3595833" lon="13.3547433"><ele>212.0</ele><time>2026-04-26T14:50:23.501Z</time></trkpt><trkpt lat="43.3597483" lon="13.35465"><ele>213.0</ele><time>2026-04-26T14:50:24.501Z</time></trkpt><trkpt lat="43.35991" lon="13.35457"><ele>214.0</ele><time>2026-04-26T14:50:25.501Z</time></trkpt><trkpt lat="43.3600617" lon="13.354485"><ele>215.0</ele><time>2026-04-26T14:50:26.502Z</time></trkpt><trkpt lat="43.360205" lon="13.3544083"><ele>215.0</ele><time>2026-04-26T14:50:27.501Z</time></trkpt><trkpt lat="43.36034" lon="13.3543433"><ele>215.0</ele><time>2026-04-26T14:50:28.501Z</time></trkpt><trkpt lat="43.3604617" lon="13.3542783"><ele>215.0</ele><time>2026-04-26T14:50:29.501Z</time></trkpt><trkpt lat="43.3605483" lon="13.3542017"><ele>215.0</ele><time>2026-04-26T14:50:30.501Z</time></trkpt><trkpt lat="43.3606283" lon="13.354145"><ele>214.50000000000003</ele><time>2026-04-26T14:50:31.501Z</time></trkpt><trkpt lat="43.3606883" lon="13.354095"><ele>214.0</ele><time>2026-04-26T14:50:32.501Z</time></trkpt><trkpt lat="43.3607483" lon="13.35406"><ele>213.5</ele><time>2026-04-26T14:50:33.501Z</time></trkpt><trkpt lat="43.3608833" lon="13.3540783"><ele>213.0</ele><time>2026-04-26T14:50:35.501Z</time></trkpt><trkpt lat="43.3609517" lon="13.3541317"><ele>212.50000000000003</ele><time>2026-04-26T14:50:36.501Z</time></trkpt><trkpt lat="43.3610017" lon="13.3542183"><ele>212.0</ele><time>2026-04-26T14:50:37.501Z</time></trkpt><trkpt lat="43.3610333" lon="13.354345"><ele>212.0</ele><time>2026-04-26T14:50:38.501Z</time></trkpt><trkpt lat="43.3610733" lon="13.3545083"><ele>212.0</ele><time>2026-04-26T14:50:39.502Z</time></trkpt><trkpt lat="43.3611067" lon="13.3547333"><ele>212.0</ele><time>2026-04-26T14:50:40.501Z</time></trkpt><trkpt lat="43.361145" lon="13.3549883"><ele>211.66666666666669</ele><time>2026-04-26T14:50:41.501Z</time></trkpt><trkpt lat="43.361195" lon="13.3552533"><ele>211.33333333333331</ele><time>2026-04-26T14:50:42.501Z</time></trkpt><trkpt lat="43.3612483" lon="13.35553"><ele>211.0</ele><time>2026-04-26T14:50:43.501Z</time></trkpt><trkpt lat="43.3613083" lon="13.35579"><ele>210.66666666666666</ele><time>2026-04-26T14:50:44.501Z</time></trkpt><trkpt lat="43.361355" lon="13.3560433"><ele>210.33333333333331</ele><time>2026-04-26T14:50:45.502Z</time></trkpt><trkpt lat="43.3613983" lon="13.3562817"><ele>210.0</ele><time>2026-04-26T14:50:46.501Z</time></trkpt><trkpt lat="43.3614367" lon="13.3565283"><ele>209.66666666666669</ele><time>2026-04-26T14:50:47.501Z</time></trkpt><trkpt lat="43.3614567" lon="13.356805"><ele>209.33333333333334</ele><time>2026-04-26T14:50:48.501Z</time></trkpt><trkpt lat="43.361445" lon="13.35709"><ele>209.0</ele><time>2026-04-26T14:50:49.502Z</time></trkpt><trkpt lat="43.361425" lon="13.357375"><ele>208.33333333333334</ele><time>2026-04-26T14:50:50.501Z</time></trkpt><trkpt lat="43.36139" lon="13.3576617"><ele>207.66666666666669</ele><time>2026-04-26T14:50:51.501Z</time></trkpt><trkpt lat="43.3613517" lon="13.3579467"><ele>207.0</ele><time>2026-04-26T14:50:52.501Z</time></trkpt><trkpt lat="43.3613067" lon="13.3582317"><ele>206.33333333333331</ele><time>2026-04-26T14:50:53.501Z</time></trkpt><trkpt lat="43.361265" lon="13.35851"><ele>205.66666666666666</ele><time>2026-04-26T14:50:54.501Z</time></trkpt><trkpt lat="43.3612267" lon="13.35878"><ele>205.0</ele><time>2026-04-26T14:50:55.501Z</time></trkpt><trkpt lat="43.3611883" lon="13.3590483"><ele>205.0</ele><time>2026-04-26T14:50:56.501Z</time></trkpt><trkpt lat="43.3611533" lon="13.359295"><ele>205.0</ele><time>2026-04-26T14:50:57.501Z</time></trkpt><trkpt lat="43.3611183" lon="13.3595567"><ele>205.0</ele><time>2026-04-26T14:50:58.501Z</time></trkpt><trkpt lat="43.3610767" lon="13.3598067"><ele>206.33333333333331</ele><time>2026-04-26T14:50:59.502Z</time></trkpt><trkpt lat="43.361065" lon="13.3600567"><ele>207.66666666666669</ele><time>2026-04-26T14:51:00.501Z</time></trkpt><trkpt lat="43.361045" lon="13.3603067"><ele>209.0</ele><time>2026-04-26T14:51:01.501Z</time></trkpt><trkpt lat="43.3610317" lon="13.36057"><ele>209.0</ele><time>2026-04-26T14:51:02.501Z</time></trkpt><trkpt lat="43.3610167" lon="13.360835"><ele>209.0</ele><time>2026-04-26T14:51:03.502Z</time></trkpt><trkpt lat="43.3610033" lon="13.3610917"><ele>209.0</ele><time>2026-04-26T14:51:04.501Z</time></trkpt><trkpt lat="43.3609967" lon="13.3613283"><ele>208.33333333333334</ele><time>2026-04-26T14:51:05.502Z</time></trkpt><trkpt lat="43.36099" lon="13.36155"><ele>207.66666666666669</ele><time>2026-04-26T14:51:06.501Z</time></trkpt><trkpt lat="43.360975" lon="13.3617667"><ele>207.0</ele><time>2026-04-26T14:51:07.502Z</time></trkpt><trkpt lat="43.360955" lon="13.3619917"><ele>207.33333333333331</ele><time>2026-04-26T14:51:08.502Z</time></trkpt><trkpt lat="43.36092" lon="13.3622317"><ele>207.66666666666666</ele><time>2026-04-26T14:51:09.501Z</time></trkpt><trkpt lat="43.3608817" lon="13.3624833"><ele>208.0</ele><time>2026-04-26T14:51:10.501Z</time></trkpt><trkpt lat="43.360845" lon="13.36274"><ele>208.0</ele><time>2026-04-26T14:51:11.501Z</time></trkpt><trkpt lat="43.3608083" lon="13.3630017"><ele>208.0</ele><time>2026-04-26T14:51:12.501Z</time></trkpt><trkpt lat="43.36079" lon="13.3632633"><ele>208.0</ele><time>2026-04-26T14:51:13.501Z</time></trkpt><trkpt lat="43.3607817" lon="13.3635133"><ele>208.66666666666666</ele><time>2026-04-26T14:51:14.502Z</time></trkpt><trkpt lat="43.360785" lon="13.3637733"><ele>209.33333333333331</ele><time>2026-04-26T14:51:15.501Z</time></trkpt><trkpt lat="43.3608067" lon="13.3640367"><ele>210.0</ele><time>2026-04-26T14:51:16.501Z</time></trkpt><trkpt lat="43.36085" lon="13.364305"><ele>210.0</ele><time>2026-04-26T14:51:17.501Z</time></trkpt><trkpt lat="43.3609033" lon="13.3645733"><ele>210.0</ele><time>2026-04-26T14:51:18.501Z</time></trkpt><trkpt lat="43.3609683" lon="13.3648467"><ele>210.0</ele><time>2026-04-26T14:51:19.501Z</time></trkpt><trkpt lat="43.36104" lon="13.3651183"><ele>209.66666666666669</ele><time>2026-04-26T14:51:20.501Z</time></trkpt><trkpt lat="43.36111" lon="13.3653983"><ele>209.33333333333334</ele><time>2026-04-26T14:51:21.501Z</time></trkpt><trkpt lat="43.3611667" lon="13.3656917"><ele>209.0</ele><time>2026-04-26T14:51:22.501Z</time></trkpt><trkpt lat="43.361195" lon="13.3659917"><ele>208.66666666666669</ele><time>2026-04-26T14:51:23.501Z</time></trkpt><trkpt lat="43.361215" lon="13.3662917"><ele>208.33333333333331</ele><time>2026-04-26T14:51:24.501Z</time></trkpt><trkpt lat="43.36123" lon="13.3665983"><ele>208.0</ele><time>2026-04-26T14:51:25.501Z</time></trkpt><trkpt lat="43.36125" lon="13.3669067"><ele>209.0</ele><time>2026-04-26T14:51:26.501Z</time></trkpt><trkpt lat="43.36128" lon="13.3672133"><ele>210.0</ele><time>2026-04-26T14:51:27.501Z</time></trkpt><trkpt lat="43.3613217" lon="13.3675217"><ele>210.5</ele><time>2026-04-26T14:51:28.502Z</time></trkpt><trkpt lat="43.36137" lon="13.36783"><ele>211.0</ele><time>2026-04-26T14:51:29.502Z</time></trkpt><trkpt lat="43.3614217" lon="13.3681333"><ele>214.0</ele><time>2026-04-26T14:51:30.501Z</time></trkpt><trkpt lat="43.3614733" lon="13.368435"><ele>217.0</ele><time>2026-04-26T14:51:31.502Z</time></trkpt><trkpt lat="43.361525" lon="13.3687417"><ele>218.0</ele><time>2026-04-26T14:51:32.502Z</time></trkpt><trkpt lat="43.3615733" lon="13.3690417"><ele>219.0</ele><time>2026-04-26T14:51:33.501Z</time></trkpt><trkpt lat="43.361625" lon="13.36934"><ele>220.0</ele><time>2026-04-26T14:51:34.501Z</time></trkpt><trkpt lat="43.3616683" lon="13.3696367"><ele>220.66666666666666</ele><time>2026-04-26T14:51:35.501Z</time></trkpt><trkpt lat="43.3617167" lon="13.36992"><ele>221.33333333333331</ele><time>2026-04-26T14:51:36.501Z</time></trkpt><trkpt lat="43.3617683" lon="13.3702017"><ele>222.0</ele><time>2026-04-26T14:51:37.501Z</time></trkpt><trkpt lat="43.3618283" lon="13.3704833"><ele>222.33333333333331</ele><time>2026-04-26T14:51:38.501Z</time></trkpt><trkpt lat="43.361895" lon="13.37077"><ele>222.66666666666666</ele><time>2026-04-26T14:51:39.502Z</time></trkpt><trkpt lat="43.3619717" lon="13.3710567"><ele>223.0</ele><time>2026-04-26T14:51:40.501Z</time></trkpt><trkpt lat="43.3620483" lon="13.371335"><ele>223.66666666666666</ele><time>2026-04-26T14:51:41.502Z</time></trkpt><trkpt lat="43.36212" lon="13.3716217"><ele>224.33333333333331</ele><time>2026-04-26T14:51:42.501Z</time></trkpt><trkpt lat="43.36218" lon="13.37191"><ele>225.0</ele><time>2026-04-26T14:51:43.501Z</time></trkpt><trkpt lat="43.36221" lon="13.3721983"><ele>227.66666666666669</ele><time>2026-04-26T14:51:44.502Z</time></trkpt><trkpt lat="43.3622133" lon="13.37249"><ele>230.33333333333334</ele><time>2026-04-26T14:51:45.502Z</time></trkpt><trkpt lat="43.3621983" lon="13.3727933"><ele>233.0</ele><time>2026-04-26T14:51:46.501Z</time></trkpt><trkpt lat="43.362185" lon="13.3730983"><ele>233.33333333333334</ele><time>2026-04-26T14:51:47.502Z</time></trkpt><trkpt lat="43.3621767" lon="13.3733917"><ele>233.66666666666669</ele><time>2026-04-26T14:51:48.501Z</time></trkpt><trkpt lat="43.36218" lon="13.37368"><ele>234.0</ele><time>2026-04-26T14:51:49.501Z</time></trkpt><trkpt lat="43.3621917" lon="13.3739533"><ele>235.33333333333331</ele><time>2026-04-26T14:51:50.502Z</time></trkpt><trkpt lat="43.3622083" lon="13.374225"><ele>236.66666666666666</ele><time>2026-04-26T14:51:51.501Z</time></trkpt><trkpt lat="43.3622367" lon="13.3745133"><ele>238.0</ele><time>2026-04-26T14:51:52.501Z</time></trkpt><trkpt lat="43.3622567" lon="13.3747833"><ele>238.0</ele><time>2026-04-26T14:51:53.501Z</time></trkpt><trkpt lat="43.3622733" lon="13.37505"><ele>238.0</ele><time>2026-04-26T14:51:54.501Z</time></trkpt><trkpt lat="43.362255" lon="13.3753217"><ele>238.0</ele><time>2026-04-26T14:51:55.501Z</time></trkpt><trkpt lat="43.3622217" lon="13.3755983"><ele>239.0</ele><time>2026-04-26T14:51:56.501Z</time></trkpt><trkpt lat="43.3621933" lon="13.3758733"><ele>240.0</ele><time>2026-04-26T14:51:57.501Z</time></trkpt><trkpt lat="43.3621717" lon="13.3761517"><ele>241.0</ele><time>2026-04-26T14:51:58.501Z</time></trkpt><trkpt lat="43.3621683" lon="13.3764383"><ele>241.0</ele><time>2026-04-26T14:51:59.502Z</time></trkpt><trkpt lat="43.3621783" lon="13.3767333"><ele>241.0</ele><time>2026-04-26T14:52:00.501Z</time></trkpt><trkpt lat="43.3621983" lon="13.37703"><ele>241.0</ele><time>2026-04-26T14:52:01.501Z</time></trkpt><trkpt lat="43.3622183" lon="13.3773233"><ele>241.33333333333331</ele><time>2026-04-26T14:52:02.502Z</time></trkpt><trkpt lat="43.36223" lon="13.3776133"><ele>241.66666666666669</ele><time>2026-04-26T14:52:03.501Z</time></trkpt><trkpt lat="43.3622483" lon="13.3779133"><ele>242.0</ele><time>2026-04-26T14:52:04.501Z</time></trkpt><trkpt lat="43.3622717" lon="13.3782067"><ele>242.33333333333334</ele><time>2026-04-26T14:52:05.501Z</time></trkpt><trkpt lat="43.3622867" lon="13.37848"><ele>242.66666666666669</ele><time>2026-04-26T14:52:06.501Z</time></trkpt><trkpt lat="43.3623183" lon="13.3787467"><ele>243.0</ele><time>2026-04-26T14:52:07.501Z</time></trkpt><trkpt lat="43.362345" lon="13.37901"><ele>243.33333333333331</ele><time>2026-04-26T14:52:08.501Z</time></trkpt><trkpt lat="43.3623617" lon="13.3792733"><ele>243.66666666666666</ele><time>2026-04-26T14:52:09.501Z</time></trkpt><trkpt lat="43.362355" lon="13.3795517"><ele>244.0</ele><time>2026-04-26T14:52:10.501Z</time></trkpt><trkpt lat="43.3623367" lon="13.3798333"><ele>244.0</ele><time>2026-04-26T14:52:11.501Z</time></trkpt><trkpt lat="43.3623117" lon="13.38012"><ele>244.0</ele><time>2026-04-26T14:52:12.501Z</time></trkpt><trkpt lat="43.3622933" lon="13.3804183"><ele>244.0</ele><time>2026-04-26T14:52:13.501Z</time></trkpt><trkpt lat="43.3622733" lon="13.3806933"><ele>244.33333333333331</ele><time>2026-04-26T14:52:14.501Z</time></trkpt><trkpt lat="43.36225" lon="13.380955"><ele>244.66666666666669</ele><time>2026-04-26T14:52:15.501Z</time></trkpt><trkpt lat="43.362235" lon="13.381195"><ele>245.0</ele><time>2026-04-26T14:52:16.502Z</time></trkpt><trkpt lat="43.36223" lon="13.381425"><ele>245.75</ele><time>2026-04-26T14:52:17.501Z</time></trkpt><trkpt lat="43.362225" lon="13.3816433"><ele>246.5</ele><time>2026-04-26T14:52:18.501Z</time></trkpt><trkpt lat="43.3622267" lon="13.381835"><ele>247.25</ele><time>2026-04-26T14:52:19.501Z</time></trkpt><trkpt lat="43.3622033" lon="13.3820317"><ele>248.0</ele><time>2026-04-26T14:52:20.501Z</time></trkpt><trkpt lat="43.3621633" lon="13.38223"><ele>250.0</ele><time>2026-04-26T14:52:21.501Z</time></trkpt><trkpt lat="43.362105" lon="13.3824083"><ele>252.0</ele><time>2026-04-26T14:52:22.501Z</time></trkpt><trkpt lat="43.3620133" lon="13.382605"><ele>254.0</ele><time>2026-04-26T14:52:23.501Z</time></trkpt><trkpt lat="43.3619333" lon="13.38279"><ele>254.0</ele><time>2026-04-26T14:52:24.501Z</time></trkpt><trkpt lat="43.3618467" lon="13.3829867"><ele>254.0</ele><time>2026-04-26T14:52:25.501Z</time></trkpt><trkpt lat="43.36176" lon="13.3832083"><ele>254.0</ele><time>2026-04-26T14:52:26.501Z</time></trkpt><trkpt lat="43.361695" lon="13.3834183"><ele>254.0</ele><time>2026-04-26T14:52:27.502Z</time></trkpt><trkpt lat="43.3616433" lon="13.383635"><ele>254.0</ele><time>2026-04-26T14:52:28.501Z</time></trkpt><trkpt lat="43.36161" lon="13.3838567"><ele>254.0</ele><time>2026-04-26T14:52:29.502Z</time></trkpt><trkpt lat="43.3615817" lon="13.3840567"><ele>254.5</ele><time>2026-04-26T14:52:30.501Z</time></trkpt><trkpt lat="43.361545" lon="13.38424"><ele>255.0</ele><time>2026-04-26T14:52:31.502Z</time></trkpt><trkpt lat="43.3615033" lon="13.3843933"><ele>255.5</ele><time>2026-04-26T14:52:32.501Z</time></trkpt><trkpt lat="43.3614533" lon="13.38452"><ele>256.0</ele><time>2026-04-26T14:52:33.501Z</time></trkpt><trkpt lat="43.3613817" lon="13.3846183"><ele>255.0</ele><time>2026-04-26T14:52:34.501Z</time></trkpt><trkpt lat="43.3612867" lon="13.3846833"><ele>254.0</ele><time>2026-04-26T14:52:35.501Z</time></trkpt><trkpt lat="43.3611717" lon="13.3847167"><ele>253.0</ele><time>2026-04-26T14:52:36.501Z</time></trkpt><trkpt lat="43.3610267" lon="13.38473"><ele>252.0</ele><time>2026-04-26T14:52:37.501Z</time></trkpt><trkpt lat="43.36088" lon="13.3847583"><ele>252.0</ele><time>2026-04-26T14:52:38.502Z</time></trkpt><trkpt lat="43.3607183" lon="13.3847917"><ele>252.0</ele><time>2026-04-26T14:52:39.501Z</time></trkpt><trkpt lat="43.360575" lon="13.38484"><ele>252.0</ele><time>2026-04-26T14:52:40.501Z</time></trkpt><trkpt lat="43.3604433" lon="13.38492"><ele>251.75</ele><time>2026-04-26T14:52:41.501Z</time></trkpt><trkpt lat="43.3603217" lon="13.385015"><ele>251.5</ele><time>2026-04-26T14:52:42.501Z</time></trkpt><trkpt lat="43.3602" lon="13.38511"><ele>251.25</ele><time>2026-04-26T14:52:43.501Z</time></trkpt><trkpt lat="43.3600817" lon="13.3852483"><ele>251.0</ele><time>2026-04-26T14:52:44.501Z</time></trkpt><trkpt lat="43.35996" lon="13.38538"><ele>251.0</ele><time>2026-04-26T14:52:45.502Z</time></trkpt><trkpt lat="43.3598533" lon="13.3855117"><ele>251.0</ele><time>2026-04-26T14:52:46.502Z</time></trkpt><trkpt lat="43.35974" lon="13.3856567"><ele>251.0</ele><time>2026-04-26T14:52:47.502Z</time></trkpt><trkpt lat="43.35964" lon="13.385835"><ele>249.33333333333334</ele><time>2026-04-26T14:52:48.502Z</time></trkpt><trkpt lat="43.3595417" lon="13.3860183"><ele>247.66666666666669</ele><time>2026-04-26T14:52:49.502Z</time></trkpt><trkpt lat="43.359465" lon="13.38621"><ele>246.0</ele><time>2026-04-26T14:52:50.501Z</time></trkpt><trkpt lat="43.359385" lon="13.3863733"><ele>246.0</ele><time>2026-04-26T14:52:51.502Z</time></trkpt><trkpt lat="43.359285" lon="13.3865167"><ele>246.0</ele><time>2026-04-26T14:52:52.501Z</time></trkpt><trkpt lat="43.3591617" lon="13.3866367"><ele>246.0</ele><time>2026-04-26T14:52:53.502Z</time></trkpt><trkpt lat="43.3590067" lon="13.3867283"><ele>246.33333333333331</ele><time>2026-04-26T14:52:54.502Z</time></trkpt><trkpt lat="43.3588267" lon="13.386815"><ele>246.66666666666666</ele><time>2026-04-26T14:52:55.501Z</time></trkpt><trkpt lat="43.3586517" lon="13.3869117"><ele>247.0</ele><time>2026-04-26T14:52:56.501Z</time></trkpt><trkpt lat="43.35847" lon="13.3870233"><ele>247.0</ele><time>2026-04-26T14:52:57.501Z</time></trkpt><trkpt lat="43.35828" lon="13.3871433"><ele>247.0</ele><time>2026-04-26T14:52:58.501Z</time></trkpt><trkpt lat="43.3580983" lon="13.3872667"><ele>247.0</ele><time>2026-04-26T14:52:59.501Z</time></trkpt><trkpt lat="43.3579167" lon="13.387385"><ele>248.33333333333331</ele><time>2026-04-26T14:53:00.502Z</time></trkpt><trkpt lat="43.3577367" lon="13.3875033"><ele>249.66666666666669</ele><time>2026-04-26T14:53:01.502Z</time></trkpt><trkpt lat="43.3575617" lon="13.3876283"><ele>251.0</ele><time>2026-04-26T14:53:02.502Z</time></trkpt><trkpt lat="43.3573917" lon="13.3877667"><ele>251.0</ele><time>2026-04-26T14:53:03.502Z</time></trkpt><trkpt lat="43.3572317" lon="13.3878933"><ele>251.0</ele><time>2026-04-26T14:53:04.502Z</time></trkpt><trkpt lat="43.3570817" lon="13.3880167"><ele>251.0</ele><time>2026-04-26T14:53:05.501Z</time></trkpt><trkpt lat="43.3569367" lon="13.3881167"><ele>251.5</ele><time>2026-04-26T14:53:06.501Z</time></trkpt><trkpt lat="43.35681" lon="13.3882133"><ele>252.0</ele><time>2026-04-26T14:53:07.501Z</time></trkpt><trkpt lat="43.3567033" lon="13.3883033"><ele>252.5</ele><time>2026-04-26T14:53:08.501Z</time></trkpt><trkpt lat="43.356615" lon="13.38837"><ele>253.0</ele><time>2026-04-26T14:53:09.502Z</time></trkpt><trkpt lat="43.35654" lon="13.3884317"><ele>253.0</ele><time>2026-04-26T14:53:10.501Z</time></trkpt><trkpt lat="43.3564833" lon="13.388485"><ele>253.0</ele><time>2026-04-26T14:53:11.502Z</time></trkpt><trkpt lat="43.3564483" lon="13.3885617"><ele>253.0</ele><time>2026-04-26T14:53:13.501Z</time></trkpt><trkpt lat="43.3565167" lon="13.388655"><ele>253.0</ele><time>2026-04-26T14:53:15.501Z</time></trkpt><trkpt lat="43.3566067" lon="13.3886867"><ele>253.0</ele><time>2026-04-26T14:53:16.501Z</time></trkpt><trkpt lat="43.3567333" lon="13.3887067"><ele>253.0</ele><time>2026-04-26T14:53:17.502Z</time></trkpt><trkpt lat="43.35688" lon="13.3887367"><ele>253.0</ele><time>2026-04-26T14:53:18.501Z</time></trkpt><trkpt lat="43.357055" lon="13.3887717"><ele>253.0</ele><time>2026-04-26T14:53:19.501Z</time></trkpt><trkpt lat="43.35726" lon="13.3888167"><ele>254.0</ele><time>2026-04-26T14:53:20.5Z</time></trkpt><trkpt lat="43.3575067" lon="13.3888683"><ele>255.0</ele><time>2026-04-26T14:53:21.5Z</time></trkpt><trkpt lat="43.3577767" lon="13.3889267"><ele>255.0</ele><time>2026-04-26T14:53:22.5Z</time></trkpt><trkpt lat="43.3580567" lon="13.38898"><ele>255.0</ele><time>2026-04-26T14:53:23.5Z</time></trkpt><trkpt lat="43.3583267" lon="13.3890383"><ele>255.0</ele><time>2026-04-26T14:53:24.5Z</time></trkpt><trkpt lat="43.358605" lon="13.3890983"><ele>255.0</ele><time>2026-04-26T14:53:25.5Z</time></trkpt><trkpt lat="43.35889" lon="13.3891617"><ele>255.5</ele><time>2026-04-26T14:53:26.501Z</time></trkpt><trkpt lat="43.35915" lon="13.389225"><ele>256.0</ele><time>2026-04-26T14:53:27.5Z</time></trkpt><trkpt lat="43.3593917" lon="13.38929"><ele>256.0</ele><time>2026-04-26T14:53:28.501Z</time></trkpt><trkpt lat="43.35961" lon="13.3893483"><ele>256.0</ele><time>2026-04-26T14:53:29.501Z</time></trkpt><trkpt lat="43.3598017" lon="13.3894133"><ele>256.0</ele><time>2026-04-26T14:53:30.5Z</time></trkpt><trkpt lat="43.3599767" lon="13.3895067"><ele>257.66666666666663</ele><time>2026-04-26T14:53:31.5Z</time></trkpt><trkpt lat="43.3601533" lon="13.389615"><ele>259.3333333333333</ele><time>2026-04-26T14:53:32.5Z</time></trkpt><trkpt lat="43.36031" lon="13.389705"><ele>261.0</ele><time>2026-04-26T14:53:33.5Z</time></trkpt><trkpt lat="43.3604783" lon="13.3897533"><ele>261.3333333333333</ele><time>2026-04-26T14:53:34.5Z</time></trkpt><trkpt lat="43.360655" lon="13.3897583"><ele>261.66666666666663</ele><time>2026-04-26T14:53:35.5Z</time></trkpt><trkpt lat="43.3608517" lon="13.3897233"><ele>262.0</ele><time>2026-04-26T14:53:36.501Z</time></trkpt><trkpt lat="43.3610533" lon="13.3896717"><ele>263.3333333333333</ele><time>2026-04-26T14:53:37.5Z</time></trkpt><trkpt lat="43.361245" lon="13.3896267"><ele>264.6666666666667</ele><time>2026-04-26T14:53:38.501Z</time></trkpt><trkpt lat="43.3614367" lon="13.3895767"><ele>266.0</ele><time>2026-04-26T14:53:39.5Z</time></trkpt><trkpt lat="43.3616233" lon="13.38954"><ele>267.0</ele><time>2026-04-26T14:53:40.5Z</time></trkpt><trkpt lat="43.3617983" lon="13.3895017"><ele>268.0</ele><time>2026-04-26T14:53:41.5Z</time></trkpt><trkpt lat="43.3619483" lon="13.389465"><ele>269.0</ele><time>2026-04-26T14:53:42.501Z</time></trkpt><trkpt lat="43.3620783" lon="13.3894333"><ele>269.0</ele><time>2026-04-26T14:53:43.5Z</time></trkpt><trkpt lat="43.362185" lon="13.3894167"><ele>269.0</ele><time>2026-04-26T14:53:44.5Z</time></trkpt><trkpt lat="43.362275" lon="13.3894333"><ele>269.0</ele><time>2026-04-26T14:53:45.501Z</time></trkpt><trkpt lat="43.3623533" lon="13.3894967"><ele>269.0</ele><time>2026-04-26T14:53:46.5Z</time></trkpt><trkpt lat="43.362425" lon="13.3896"><ele>269.0</ele><time>2026-04-26T14:53:47.5Z</time></trkpt><trkpt lat="43.36247" lon="13.389755"><ele>266.6666666666667</ele><time>2026-04-26T14:53:48.5Z</time></trkpt><trkpt lat="43.36252" lon="13.3899333"><ele>264.3333333333333</ele><time>2026-04-26T14:53:49.5Z</time></trkpt><trkpt lat="43.3625967" lon="13.390105"><ele>262.0</ele><time>2026-04-26T14:53:50.5Z</time></trkpt><trkpt lat="43.3627133" lon="13.39027"><ele>262.0</ele><time>2026-04-26T14:53:51.5Z</time></trkpt><trkpt lat="43.3628517" lon="13.3904233"><ele>262.0</ele><time>2026-04-26T14:53:52.5Z</time></trkpt><trkpt lat="43.3630083" lon="13.3906"><ele>262.0</ele><time>2026-04-26T14:53:53.501Z</time></trkpt><trkpt lat="43.363165" lon="13.3907967"><ele>260.66666666666663</ele><time>2026-04-26T14:53:54.5Z</time></trkpt><trkpt lat="43.363315" lon="13.390995"><ele>259.3333333333333</ele><time>2026-04-26T14:53:55.5Z</time></trkpt><trkpt lat="43.3634583" lon="13.3912233"><ele>258.0</ele><time>2026-04-26T14:53:56.501Z</time></trkpt><trkpt lat="43.3635983" lon="13.391465"><ele>256.3333333333333</ele><time>2026-04-26T14:53:57.501Z</time></trkpt><trkpt lat="43.36373" lon="13.3917117"><ele>254.66666666666666</ele><time>2026-04-26T14:53:58.5Z</time></trkpt><trkpt lat="43.36386" lon="13.39196"><ele>253.0</ele><time>2026-04-26T14:53:59.5Z</time></trkpt><trkpt lat="43.36398" lon="13.3922017"><ele>253.0</ele><time>2026-04-26T14:54:00.5Z</time></trkpt><trkpt lat="43.3640983" lon="13.3924317"><ele>253.0</ele><time>2026-04-26T14:54:01.5Z</time></trkpt><trkpt lat="43.36421" lon="13.3926433"><ele>253.0</ele><time>2026-04-26T14:54:02.501Z</time></trkpt><trkpt lat="43.3643183" lon="13.39283"><ele>252.25</ele><time>2026-04-26T14:54:03.5Z</time></trkpt><trkpt lat="43.3644117" lon="13.3930133"><ele>251.5</ele><time>2026-04-26T14:54:04.5Z</time></trkpt><trkpt lat="43.36449" lon="13.3931733"><ele>250.75</ele><time>2026-04-26T14:54:05.501Z</time></trkpt><trkpt lat="43.3645567" lon="13.3933283"><ele>250.0</ele><time>2026-04-26T14:54:06.501Z</time></trkpt><trkpt lat="43.36463" lon="13.3934817"><ele>250.0</ele><time>2026-04-26T14:54:07.5Z</time></trkpt><trkpt lat="43.3646933" lon="13.39362"><ele>250.0</ele><time>2026-04-26T14:54:08.5Z</time></trkpt><trkpt lat="43.36475" lon="13.3937533"><ele>250.0</ele><time>2026-04-26T14:54:09.5Z</time></trkpt><trkpt lat="43.364785" lon="13.3938983"><ele>250.0</ele><time>2026-04-26T14:54:10.5Z</time></trkpt><trkpt lat="43.3647933" lon="13.3940317"><ele>250.0</ele><time>2026-04-26T14:54:11.5Z</time></trkpt><trkpt lat="43.3647783" lon="13.3941767"><ele>250.0</ele><time>2026-04-26T14:54:12.5Z</time></trkpt><trkpt lat="43.3647767" lon="13.3943067"><ele>250.0</ele><time>2026-04-26T14:54:13.501Z</time></trkpt><trkpt lat="43.3648" lon="13.3944233"><ele>250.0</ele><time>2026-04-26T14:54:14.5Z</time></trkpt><trkpt lat="43.3648633" lon="13.3945317"><ele>250.0</ele><time>2026-04-26T14:54:15.5Z</time></trkpt><trkpt lat="43.3649583" lon="13.39463"><ele>250.0</ele><time>2026-04-26T14:54:16.5Z</time></trkpt><trkpt lat="43.36506" lon="13.3947467"><ele>249.0</ele><time>2026-04-26T14:54:17.5Z</time></trkpt><trkpt lat="43.3651617" lon="13.3948833"><ele>248.0</ele><time>2026-04-26T14:54:18.501Z</time></trkpt><trkpt lat="43.3652533" lon="13.39505"><ele>247.0</ele><time>2026-04-26T14:54:19.5Z</time></trkpt><trkpt lat="43.3653417" lon="13.3952417"><ele>247.0</ele><time>2026-04-26T14:54:20.5Z</time></trkpt><trkpt lat="43.36543" lon="13.3954533"><ele>247.0</ele><time>2026-04-26T14:54:21.5Z</time></trkpt><trkpt lat="43.365515" lon="13.3956867"><ele>247.0</ele><time>2026-04-26T14:54:22.5Z</time></trkpt><trkpt lat="43.365585" lon="13.3959417"><ele>246.0</ele><time>2026-04-26T14:54:23.501Z</time></trkpt><trkpt lat="43.3656417" lon="13.3962233"><ele>245.0</ele><time>2026-04-26T14:54:24.5Z</time></trkpt><trkpt lat="43.3656933" lon="13.3965183"><ele>244.0</ele><time>2026-04-26T14:54:25.5Z</time></trkpt><trkpt lat="43.365715" lon="13.3968167"><ele>244.0</ele><time>2026-04-26T14:54:26.501Z</time></trkpt><trkpt lat="43.3657317" lon="13.3971167"><ele>244.0</ele><time>2026-04-26T14:54:27.501Z</time></trkpt><trkpt lat="43.3657467" lon="13.397425"><ele>244.0</ele><time>2026-04-26T14:54:28.5Z</time></trkpt><trkpt lat="43.3657483" lon="13.3977267"><ele>246.0</ele><time>2026-04-26T14:54:29.5Z</time></trkpt><trkpt lat="43.3657433" lon="13.398015"><ele>248.0</ele><time>2026-04-26T14:54:30.5Z</time></trkpt><trkpt lat="43.3657233" lon="13.3983017"><ele>250.0</ele><time>2026-04-26T14:54:31.501Z</time></trkpt><trkpt lat="43.3656983" lon="13.398595"><ele>251.33333333333331</ele><time>2026-04-26T14:54:32.5Z</time></trkpt><trkpt lat="43.3656683" lon="13.3988817"><ele>252.66666666666669</ele><time>2026-04-26T14:54:33.5Z</time></trkpt><trkpt lat="43.3656383" lon="13.3991483"><ele>254.0</ele><time>2026-04-26T14:54:34.5Z</time></trkpt><trkpt lat="43.3656167" lon="13.3993917"><ele>254.0</ele><time>2026-04-26T14:54:35.5Z</time></trkpt><trkpt lat="43.3655983" lon="13.3996217"><ele>254.0</ele><time>2026-04-26T14:54:36.5Z</time></trkpt><trkpt lat="43.3655883" lon="13.39983"><ele>254.0</ele><time>2026-04-26T14:54:37.5Z</time></trkpt><trkpt lat="43.3655783" lon="13.4000217"><ele>255.0</ele><time>2026-04-26T14:54:38.5Z</time></trkpt><trkpt lat="43.36557" lon="13.4002067"><ele>255.99999999999997</ele><time>2026-04-26T14:54:39.5Z</time></trkpt><trkpt lat="43.3655667" lon="13.400365"><ele>257.0</ele><time>2026-04-26T14:54:40.5Z</time></trkpt><trkpt lat="43.365575" lon="13.4005"><ele>258.0</ele><time>2026-04-26T14:54:41.5Z</time></trkpt><trkpt lat="43.3655767" lon="13.400615"><ele>259.0</ele><time>2026-04-26T14:54:42.5Z</time></trkpt><trkpt lat="43.3655483" lon="13.400735"><ele>260.0</ele><time>2026-04-26T14:54:44.5Z</time></trkpt><trkpt lat="43.3654483" lon="13.4007717"><ele>261.0</ele><time>2026-04-26T14:54:46.5Z</time></trkpt><trkpt lat="43.3653617" lon="13.4007767"><ele>262.0</ele><time>2026-04-26T14:54:47.501Z</time></trkpt><trkpt lat="43.36526" lon="13.4007867"><ele>263.0</ele><time>2026-04-26T14:54:48.5Z</time></trkpt><trkpt lat="43.36514" lon="13.4008"><ele>264.0</ele><time>2026-04-26T14:54:49.5Z</time></trkpt><trkpt lat="43.3649933" lon="13.4008217"><ele>264.0</ele><time>2026-04-26T14:54:50.5Z</time></trkpt><trkpt lat="43.3648367" lon="13.400845"><ele>264.0</ele><time>2026-04-26T14:54:51.501Z</time></trkpt><trkpt lat="43.364665" lon="13.4008817"><ele>264.0</ele><time>2026-04-26T14:54:52.501Z</time></trkpt><trkpt lat="43.364485" lon="13.4009233"><ele>260.0</ele><time>2026-04-26T14:54:53.5Z</time></trkpt><trkpt lat="43.3643067" lon="13.4009667"><ele>256.0</ele><time>2026-04-26T14:54:54.5Z</time></trkpt><trkpt lat="43.3641333" lon="13.4010033"><ele>252.0</ele><time>2026-04-26T14:54:55.5Z</time></trkpt><trkpt lat="43.3639617" lon="13.4010267"><ele>250.0</ele><time>2026-04-26T14:54:56.5Z</time></trkpt><trkpt lat="43.3637983" lon="13.4010567"><ele>248.0</ele><time>2026-04-26T14:54:57.5Z</time></trkpt><trkpt lat="43.3636433" lon="13.4010867"><ele>246.0</ele><time>2026-04-26T14:54:58.501Z</time></trkpt><trkpt lat="43.36351" lon="13.40111"><ele>246.0</ele><time>2026-04-26T14:54:59.5Z</time></trkpt><trkpt lat="43.3633917" lon="13.4011283"><ele>246.00000000000003</ele><time>2026-04-26T14:55:00.5Z</time></trkpt><trkpt lat="43.3632917" lon="13.4011433"><ele>246.00000000000003</ele><time>2026-04-26T14:55:01.5Z</time></trkpt><trkpt lat="43.36321" lon="13.4011583"><ele>246.0</ele><time>2026-04-26T14:55:02.5Z</time></trkpt><trkpt lat="43.3631433" lon="13.401185"><ele>246.0</ele><time>2026-04-26T14:55:03.501Z</time></trkpt><trkpt lat="43.3630783" lon="13.4013033"><ele>245.5</ele><time>2026-04-26T14:55:05.5Z</time></trkpt><trkpt lat="43.3630883" lon="13.4014"><ele>245.0</ele><time>2026-04-26T14:55:06.5Z</time></trkpt><trkpt lat="43.3631133" lon="13.4015167"><ele>244.5</ele><time>2026-04-26T14:55:07.5Z</time></trkpt><trkpt lat="43.3631483" lon="13.4016283"><ele>244.0</ele><time>2026-04-26T14:55:08.5Z</time></trkpt><trkpt lat="43.3631633" lon="13.401725"><ele>243.5</ele><time>2026-04-26T14:55:09.5Z</time></trkpt><trkpt lat="43.363155" lon="13.4018167"><ele>243.0</ele><time>2026-04-26T14:55:10.501Z</time></trkpt><trkpt lat="43.3630467" lon="13.4019383"><ele>241.66666666666669</ele><time>2026-04-26T14:55:12.5Z</time></trkpt><trkpt lat="43.3629317" lon="13.4019817"><ele>240.33333333333334</ele><time>2026-04-26T14:55:13.5Z</time></trkpt><trkpt lat="43.3627783" lon="13.40203"><ele>239.0</ele><time>2026-04-26T14:55:14.5Z</time></trkpt><trkpt lat="43.3625867" lon="13.4021067"><ele>238.0</ele><time>2026-04-26T14:55:15.5Z</time></trkpt><trkpt lat="43.3623883" lon="13.4022"><ele>237.0</ele><time>2026-04-26T14:55:16.5Z</time></trkpt><trkpt lat="43.3622017" lon="13.402285"><ele>236.0</ele><time>2026-04-26T14:55:17.5Z</time></trkpt><trkpt lat="43.3620283" lon="13.4023633"><ele>234.0</ele><time>2026-04-26T14:55:18.5Z</time></trkpt><trkpt lat="43.36187" lon="13.4024417"><ele>232.0</ele><time>2026-04-26T14:55:19.5Z</time></trkpt><trkpt lat="43.3617217" lon="13.4025083"><ele>230.0</ele><time>2026-04-26T14:55:20.5Z</time></trkpt><trkpt lat="43.3615967" lon="13.402545"><ele>230.0</ele><time>2026-04-26T14:55:21.501Z</time></trkpt><trkpt lat="43.3614867" lon="13.4025517"><ele>230.0</ele><time>2026-04-26T14:55:22.5Z</time></trkpt><trkpt lat="43.3613617" lon="13.4025333"><ele>230.0</ele><time>2026-04-26T14:55:23.5Z</time></trkpt><trkpt lat="43.3612333" lon="13.40251"><ele>230.0</ele><time>2026-04-26T14:55:24.5Z</time></trkpt><trkpt lat="43.361115" lon="13.40247"><ele>229.2</ele><time>2026-04-26T14:55:25.5Z</time></trkpt><trkpt lat="43.3610067" lon="13.4024167"><ele>228.4</ele><time>2026-04-26T14:55:26.5Z</time></trkpt><trkpt lat="43.36091" lon="13.40234"><ele>227.60000000000002</ele><time>2026-04-26T14:55:27.5Z</time></trkpt><trkpt lat="43.3608117" lon="13.4022617"><ele>226.8</ele><time>2026-04-26T14:55:28.501Z</time></trkpt><trkpt lat="43.3607183" lon="13.4021883"><ele>226.0</ele><time>2026-04-26T14:55:29.501Z</time></trkpt><trkpt lat="43.3606167" lon="13.4021483"><ele>224.60000000000002</ele><time>2026-04-26T14:55:30.501Z</time></trkpt><trkpt lat="43.36052" lon="13.40215"><ele>223.20000000000002</ele><time>2026-04-26T14:55:31.5Z</time></trkpt><trkpt lat="43.3604267" lon="13.4021867"><ele>221.79999999999998</ele><time>2026-04-26T14:55:32.5Z</time></trkpt><trkpt lat="43.3603217" lon="13.4022567"><ele>220.39999999999998</ele><time>2026-04-26T14:55:33.501Z</time></trkpt><trkpt lat="43.3602067" lon="13.40234"><ele>219.0</ele><time>2026-04-26T14:55:34.5Z</time></trkpt><trkpt lat="43.360085" lon="13.4024217"><ele>219.0</ele><time>2026-04-26T14:55:35.501Z</time></trkpt><trkpt lat="43.3599533" lon="13.402515"><ele>219.0</ele><time>2026-04-26T14:55:36.5Z</time></trkpt><trkpt lat="43.3598167" lon="13.4026167"><ele>219.0</ele><time>2026-04-26T14:55:37.5Z</time></trkpt><trkpt lat="43.359685" lon="13.402715"><ele>217.75</ele><time>2026-04-26T14:55:38.5Z</time></trkpt><trkpt lat="43.3595567" lon="13.402815"><ele>216.5</ele><time>2026-04-26T14:55:39.5Z</time></trkpt><trkpt lat="43.359435" lon="13.4028917"><ele>215.25</ele><time>2026-04-26T14:55:40.5Z</time></trkpt><trkpt lat="43.359315" lon="13.40295"><ele>214.0</ele><time>2026-04-26T14:55:41.5Z</time></trkpt><trkpt lat="43.3591917" lon="13.403"><ele>214.0</ele><time>2026-04-26T14:55:42.5Z</time></trkpt><trkpt lat="43.35906" lon="13.4030383"><ele>214.0</ele><time>2026-04-26T14:55:43.501Z</time></trkpt><trkpt lat="43.358925" lon="13.4030567"><ele>214.0</ele><time>2026-04-26T14:55:44.5Z</time></trkpt><trkpt lat="43.358785" lon="13.4030667"><ele>214.0</ele><time>2026-04-26T14:55:45.5Z</time></trkpt><trkpt lat="43.3586383" lon="13.4030633"><ele>212.66666666666666</ele><time>2026-04-26T14:55:46.5Z</time></trkpt><trkpt lat="43.3584817" lon="13.40304"><ele>211.33333333333331</ele><time>2026-04-26T14:55:47.5Z</time></trkpt><trkpt lat="43.3583267" lon="13.4030217"><ele>210.0</ele><time>2026-04-26T14:55:48.5Z</time></trkpt><trkpt lat="43.35818" lon="13.40302"><ele>210.0</ele><time>2026-04-26T14:55:49.501Z</time></trkpt><trkpt lat="43.35804" lon="13.40304"><ele>210.0</ele><time>2026-04-26T14:55:50.5Z</time></trkpt><trkpt lat="43.3579033" lon="13.4030717"><ele>210.0</ele><time>2026-04-26T14:55:51.5Z</time></trkpt><trkpt lat="43.3577633" lon="13.4031067"><ele>210.0</ele><time>2026-04-26T14:55:52.5Z</time></trkpt><trkpt lat="43.3576367" lon="13.40315"><ele>209.75</ele><time>2026-04-26T14:55:53.5Z</time></trkpt><trkpt lat="43.3575283" lon="13.403185"><ele>209.5</ele><time>2026-04-26T14:55:54.5Z</time></trkpt><trkpt lat="43.3574233" lon="13.4032133"><ele>209.25</ele><time>2026-04-26T14:55:55.5Z</time></trkpt><trkpt lat="43.3573033" lon="13.40323"><ele>209.0</ele><time>2026-04-26T14:55:56.5Z</time></trkpt><trkpt lat="43.3571717" lon="13.40323"><ele>207.5</ele><time>2026-04-26T14:55:57.5Z</time></trkpt><trkpt lat="43.3570433" lon="13.40321"><ele>206.0</ele><time>2026-04-26T14:55:58.5Z</time></trkpt><trkpt lat="43.3569117" lon="13.4032067"><ele>204.5</ele><time>2026-04-26T14:55:59.5Z</time></trkpt><trkpt lat="43.3567833" lon="13.4032083"><ele>203.0</ele><time>2026-04-26T14:56:00.501Z</time></trkpt><trkpt lat="43.3566567" lon="13.403225"><ele>203.0</ele><time>2026-04-26T14:56:01.5Z</time></trkpt><trkpt lat="43.3565333" lon="13.4032817"><ele>203.0</ele><time>2026-04-26T14:56:02.501Z</time></trkpt><trkpt lat="43.3564117" lon="13.4033633"><ele>203.0</ele><time>2026-04-26T14:56:03.501Z</time></trkpt><trkpt lat="43.35627" lon="13.403445"><ele>203.0</ele><time>2026-04-26T14:56:04.5Z</time></trkpt><trkpt lat="43.356125" lon="13.40352"><ele>201.0</ele><time>2026-04-26T14:56:05.5Z</time></trkpt><trkpt lat="43.3559867" lon="13.4035783"><ele>199.0</ele><time>2026-04-26T14:56:06.501Z</time></trkpt><trkpt lat="43.3558533" lon="13.40363"><ele>197.0</ele><time>2026-04-26T14:56:07.501Z</time></trkpt><trkpt lat="43.3557283" lon="13.4036717"><ele>195.0</ele><time>2026-04-26T14:56:08.501Z</time></trkpt><trkpt lat="43.355595" lon="13.4037017"><ele>193.0</ele><time>2026-04-26T14:56:09.5Z</time></trkpt><trkpt lat="43.3554533" lon="13.4037333"><ele>191.0</ele><time>2026-04-26T14:56:10.5Z</time></trkpt><trkpt lat="43.35531" lon="13.4037617"><ele>189.0</ele><time>2026-04-26T14:56:11.5Z</time></trkpt><trkpt lat="43.3551567" lon="13.4037833"><ele>187.0</ele><time>2026-04-26T14:56:12.5Z</time></trkpt><trkpt lat="43.355005" lon="13.403815"><ele>186.75</ele><time>2026-04-26T14:56:13.5Z</time></trkpt><trkpt lat="43.354865" lon="13.4038667"><ele>186.5</ele><time>2026-04-26T14:56:14.5Z</time></trkpt><trkpt lat="43.3547317" lon="13.4039433"><ele>186.25</ele><time>2026-04-26T14:56:15.5Z</time></trkpt><trkpt lat="43.354595" lon="13.40403"><ele>186.0</ele><time>2026-04-26T14:56:16.5Z</time></trkpt><trkpt lat="43.3544533" lon="13.4041117"><ele>184.33333333333334</ele><time>2026-04-26T14:56:17.5Z</time></trkpt><trkpt lat="43.35431" lon="13.4042133"><ele>182.66666666666669</ele><time>2026-04-26T14:56:18.5Z</time></trkpt><trkpt lat="43.3541717" lon="13.404305"><ele>181.0</ele><time>2026-04-26T14:56:19.5Z</time></trkpt><trkpt lat="43.3540483" lon="13.4043867"><ele>181.0</ele><time>2026-04-26T14:56:20.5Z</time></trkpt><trkpt lat="43.3539333" lon="13.4044633"><ele>181.0</ele><time>2026-04-26T14:56:21.5Z</time></trkpt><trkpt lat="43.353825" lon="13.40454"><ele>181.0</ele><time>2026-04-26T14:56:22.5Z</time></trkpt><trkpt lat="43.3537117" lon="13.404615"><ele>181.0</ele><time>2026-04-26T14:56:23.501Z</time></trkpt><trkpt lat="43.3536" lon="13.4046967"><ele>178.5</ele><time>2026-04-26T14:56:24.5Z</time></trkpt><trkpt lat="43.3534833" lon="13.4047633"><ele>176.0</ele><time>2026-04-26T14:56:25.5Z</time></trkpt><trkpt lat="43.3533667" lon="13.4048267"><ele>173.5</ele><time>2026-04-26T14:56:26.501Z</time></trkpt><trkpt lat="43.353265" lon="13.4048933"><ele>171.0</ele><time>2026-04-26T14:56:27.501Z</time></trkpt><trkpt lat="43.353175" lon="13.4049517"><ele>171.0</ele><time>2026-04-26T14:56:28.501Z</time></trkpt><trkpt lat="43.35309" lon="13.4050367"><ele>171.0</ele><time>2026-04-26T14:56:29.5Z</time></trkpt><trkpt lat="43.35301" lon="13.4051617"><ele>171.0</ele><time>2026-04-26T14:56:30.501Z</time></trkpt><trkpt lat="43.352935" lon="13.4053167"><ele>171.0</ele><time>2026-04-26T14:56:31.5Z</time></trkpt><trkpt lat="43.35286" lon="13.4054883"><ele>167.0</ele><time>2026-04-26T14:56:32.5Z</time></trkpt><trkpt lat="43.3527767" lon="13.40567"><ele>163.0</ele><time>2026-04-26T14:56:33.5Z</time></trkpt><trkpt lat="43.3526933" lon="13.4058533"><ele>159.0</ele><time>2026-04-26T14:56:34.5Z</time></trkpt><trkpt lat="43.3526033" lon="13.40603"><ele>159.0</ele><time>2026-04-26T14:56:35.5Z</time></trkpt><trkpt lat="43.3525167" lon="13.4061967"><ele>159.0</ele><time>2026-04-26T14:56:36.501Z</time></trkpt><trkpt lat="43.352425" lon="13.4063433"><ele>159.0</ele><time>2026-04-26T14:56:37.5Z</time></trkpt><trkpt lat="43.3523233" lon="13.40648"><ele>159.0</ele><time>2026-04-26T14:56:38.5Z</time></trkpt><trkpt lat="43.35222" lon="13.4066133"><ele>154.66666666666666</ele><time>2026-04-26T14:56:39.5Z</time></trkpt><trkpt lat="43.3521117" lon="13.4067517"><ele>150.33333333333331</ele><time>2026-04-26T14:56:40.5Z</time></trkpt><trkpt lat="43.35199" lon="13.4069133"><ele>146.0</ele><time>2026-04-26T14:56:41.5Z</time></trkpt><trkpt lat="43.3518617" lon="13.407065"><ele>147.33333333333331</ele><time>2026-04-26T14:56:42.501Z</time></trkpt><trkpt lat="43.3517383" lon="13.4072167"><ele>148.66666666666666</ele><time>2026-04-26T14:56:43.5Z</time></trkpt><trkpt lat="43.35161" lon="13.4073683"><ele>150.0</ele><time>2026-04-26T14:56:44.5Z</time></trkpt><trkpt lat="43.351485" lon="13.4075333"><ele>148.33333333333334</ele><time>2026-04-26T14:56:45.5Z</time></trkpt><trkpt lat="43.351365" lon="13.407695"><ele>146.66666666666669</ele><time>2026-04-26T14:56:46.5Z</time></trkpt><trkpt lat="43.3512633" lon="13.407865"><ele>145.0</ele><time>2026-04-26T14:56:47.5Z</time></trkpt><trkpt lat="43.3511633" lon="13.4080317"><ele>145.0</ele><time>2026-04-26T14:56:48.5Z</time></trkpt><trkpt lat="43.35105" lon="13.4081817"><ele>145.0</ele><time>2026-04-26T14:56:49.5Z</time></trkpt><trkpt lat="43.3509367" lon="13.4083117"><ele>145.0</ele><time>2026-04-26T14:56:50.5Z</time></trkpt><trkpt lat="43.3508183" lon="13.4084433"><ele>145.0</ele><time>2026-04-26T14:56:51.5Z</time></trkpt><trkpt lat="43.3506933" lon="13.4085817"><ele>145.0</ele><time>2026-04-26T14:56:52.5Z</time></trkpt><trkpt lat="43.350565" lon="13.4087217"><ele>145.0</ele><time>2026-04-26T14:56:53.5Z</time></trkpt><trkpt lat="43.3504233" lon="13.4088633"><ele>143.0</ele><time>2026-04-26T14:56:54.5Z</time></trkpt><trkpt lat="43.35028" lon="13.40901"><ele>141.0</ele><time>2026-04-26T14:56:55.5Z</time></trkpt><trkpt lat="43.3501367" lon="13.4091583"><ele>139.0</ele><time>2026-04-26T14:56:56.5Z</time></trkpt><trkpt lat="43.3499917" lon="13.4093133"><ele>139.0</ele><time>2026-04-26T14:56:57.501Z</time></trkpt><trkpt lat="43.349855" lon="13.4094683"><ele>139.0</ele><time>2026-04-26T14:56:58.5Z</time></trkpt><trkpt lat="43.3497167" lon="13.4096267"><ele>139.0</ele><time>2026-04-26T14:56:59.5Z</time></trkpt><trkpt lat="43.3495833" lon="13.4097817"><ele>139.0</ele><time>2026-04-26T14:57:00.501Z</time></trkpt><trkpt lat="43.3494517" lon="13.409935"><ele>139.0</ele><time>2026-04-26T14:57:01.5Z</time></trkpt><trkpt lat="43.3493167" lon="13.4100883"><ele>139.0</ele><time>2026-04-26T14:57:02.5Z</time></trkpt><trkpt lat="43.3491783" lon="13.4102283"><ele>139.0</ele><time>2026-04-26T14:57:03.5Z</time></trkpt><trkpt lat="43.3490483" lon="13.4103683"><ele>139.0</ele><time>2026-04-26T14:57:04.5Z</time></trkpt><trkpt lat="43.3489217" lon="13.410515"><ele>139.0</ele><time>2026-04-26T14:57:05.5Z</time></trkpt><trkpt lat="43.3487983" lon="13.4106517"><ele>139.75</ele><time>2026-04-26T14:57:06.5Z</time></trkpt><trkpt lat="43.3486717" lon="13.410785"><ele>140.5</ele><time>2026-04-26T14:57:07.5Z</time></trkpt><trkpt lat="43.34856" lon="13.4109067"><ele>141.25</ele><time>2026-04-26T14:57:08.5Z</time></trkpt><trkpt lat="43.34845" lon="13.4110383"><ele>142.0</ele><time>2026-04-26T14:57:09.501Z</time></trkpt><trkpt lat="43.3483517" lon="13.4111567"><ele>142.0</ele><time>2026-04-26T14:57:10.5Z</time></trkpt><trkpt lat="43.3482383" lon="13.4112683"><ele>142.0</ele><time>2026-04-26T14:57:11.5Z</time></trkpt><trkpt lat="43.3481233" lon="13.41138"><ele>142.0</ele><time>2026-04-26T14:57:12.5Z</time></trkpt><trkpt lat="43.3480267" lon="13.411495"><ele>142.0</ele><time>2026-04-26T14:57:13.501Z</time></trkpt><trkpt lat="43.347925" lon="13.4116183"><ele>141.0</ele><time>2026-04-26T14:57:14.5Z</time></trkpt><trkpt lat="43.347815" lon="13.4117533"><ele>140.0</ele><time>2026-04-26T14:57:15.5Z</time></trkpt><trkpt lat="43.347705" lon="13.4118967"><ele>139.0</ele><time>2026-04-26T14:57:16.5Z</time></trkpt><trkpt lat="43.3476067" lon="13.4120267"><ele>138.0</ele><time>2026-04-26T14:57:17.5Z</time></trkpt><trkpt lat="43.347525" lon="13.412145"><ele>139.75</ele><time>2026-04-26T14:57:18.5Z</time></trkpt><trkpt lat="43.34744" lon="13.4122883"><ele>141.5</ele><time>2026-04-26T14:57:19.5Z</time></trkpt><trkpt lat="43.34735" lon="13.412435"><ele>143.25</ele><time>2026-04-26T14:57:20.5Z</time></trkpt><trkpt lat="43.3472483" lon="13.4126017"><ele>145.0</ele><time>2026-04-26T14:57:21.5Z</time></trkpt><trkpt lat="43.3471533" lon="13.41278"><ele>142.33333333333334</ele><time>2026-04-26T14:57:22.5Z</time></trkpt><trkpt lat="43.3470533" lon="13.412955"><ele>139.66666666666666</ele><time>2026-04-26T14:57:23.5Z</time></trkpt><trkpt lat="43.3469583" lon="13.41313"><ele>137.0</ele><time>2026-04-26T14:57:24.5Z</time></trkpt><trkpt lat="43.3468583" lon="13.4133033"><ele>137.0</ele><time>2026-04-26T14:57:25.5Z</time></trkpt><trkpt lat="43.3467733" lon="13.4134783"><ele>137.0</ele><time>2026-04-26T14:57:26.5Z</time></trkpt><trkpt lat="43.3466933" lon="13.4136383"><ele>137.0</ele><time>2026-04-26T14:57:27.501Z</time></trkpt><trkpt lat="43.346615" lon="13.41381"><ele>137.0</ele><time>2026-04-26T14:57:28.5Z</time></trkpt><trkpt lat="43.3465417" lon="13.4139667"><ele>137.0</ele><time>2026-04-26T14:57:29.501Z</time></trkpt><trkpt lat="43.3464833" lon="13.4141183"><ele>137.0</ele><time>2026-04-26T14:57:30.5Z</time></trkpt><trkpt lat="43.3464267" lon="13.41426"><ele>137.0</ele><time>2026-04-26T14:57:31.501Z</time></trkpt><trkpt lat="43.346395" lon="13.414405"><ele>137.0</ele><time>2026-04-26T14:57:32.501Z</time></trkpt><trkpt lat="43.3463783" lon="13.4145717"><ele>135.25</ele><time>2026-04-26T14:57:33.5Z</time></trkpt><trkpt lat="43.3463767" lon="13.414765"><ele>133.5</ele><time>2026-04-26T14:57:34.5Z</time></trkpt><trkpt lat="43.3463867" lon="13.4149617"><ele>131.75</ele><time>2026-04-26T14:57:35.5Z</time></trkpt><trkpt lat="43.3464083" lon="13.4151733"><ele>130.0</ele><time>2026-04-26T14:57:36.501Z</time></trkpt><trkpt lat="43.34643" lon="13.415385"><ele>126.66666666666667</ele><time>2026-04-26T14:57:37.5Z</time></trkpt><trkpt lat="43.3464483" lon="13.4156017"><ele>123.33333333333334</ele><time>2026-04-26T14:57:38.5Z</time></trkpt><trkpt lat="43.34647" lon="13.415815"><ele>120.0</ele><time>2026-04-26T14:57:39.5Z</time></trkpt><trkpt lat="43.34649" lon="13.4160367"><ele>120.0</ele><time>2026-04-26T14:57:40.5Z</time></trkpt><trkpt lat="43.346505" lon="13.416265"><ele>120.0</ele><time>2026-04-26T14:57:41.5Z</time></trkpt><trkpt lat="43.3465217" lon="13.41649"><ele>120.0</ele><time>2026-04-26T14:57:42.5Z</time></trkpt><trkpt lat="43.34653" lon="13.41671"><ele>118.25</ele><time>2026-04-26T14:57:43.501Z</time></trkpt><trkpt lat="43.3465483" lon="13.416925"><ele>116.5</ele><time>2026-04-26T14:57:44.5Z</time></trkpt><trkpt lat="43.34656" lon="13.4171333"><ele>114.75</ele><time>2026-04-26T14:57:45.5Z</time></trkpt><trkpt lat="43.3465633" lon="13.4173233"><ele>113.0</ele><time>2026-04-26T14:57:46.5Z</time></trkpt><trkpt lat="43.3465733" lon="13.4175033"><ele>112.4</ele><time>2026-04-26T14:57:47.5Z</time></trkpt><trkpt lat="43.3465883" lon="13.4176567"><ele>111.80000000000001</ele><time>2026-04-26T14:57:48.5Z</time></trkpt><trkpt lat="43.3466" lon="13.4177717"><ele>111.2</ele><time>2026-04-26T14:57:49.5Z</time></trkpt><trkpt lat="43.3466117" lon="13.4178617"><ele>110.6</ele><time>2026-04-26T14:57:50.5Z</time></trkpt><trkpt lat="43.3465733" lon="13.41794"><ele>110.0</ele><time>2026-04-26T14:57:52.501Z</time></trkpt><trkpt lat="43.3464467" lon="13.4179717"><ele>112.0</ele><time>2026-04-26T14:57:54.501Z</time></trkpt><trkpt lat="43.3463467" lon="13.4179717"><ele>114.0</ele><time>2026-04-26T14:57:55.5Z</time></trkpt><trkpt lat="43.346205" lon="13.4179567"><ele>116.0</ele><time>2026-04-26T14:57:56.501Z</time></trkpt><trkpt lat="43.3460467" lon="13.4179367"><ele>118.0</ele><time>2026-04-26T14:57:57.5Z</time></trkpt><trkpt lat="43.34588" lon="13.4179133"><ele>118.0</ele><time>2026-04-26T14:57:58.501Z</time></trkpt><trkpt lat="43.3457283" lon="13.4179033"><ele>118.0</ele><time>2026-04-26T14:57:59.5Z</time></trkpt><trkpt lat="43.3455967" lon="13.4178833"><ele>118.0</ele><time>2026-04-26T14:58:00.5Z</time></trkpt><trkpt lat="43.3455" lon="13.4178717"><ele>118.0</ele><time>2026-04-26T14:58:01.501Z</time></trkpt><trkpt lat="43.3454317" lon="13.4178667"><ele>119.00000000000001</ele><time>2026-04-26T14:58:02.5Z</time></trkpt><trkpt lat="43.3453517" lon="13.4178517"><ele>120.0</ele><time>2026-04-26T14:58:04.501Z</time></trkpt><trkpt lat="43.3453167" lon="13.4179317"><ele>121.0</ele><time>2026-04-26T14:58:06.5Z</time></trkpt><trkpt lat="43.3453067" lon="13.4180267"><ele>122.0</ele><time>2026-04-26T14:58:07.5Z</time></trkpt><trkpt lat="43.34531" lon="13.4181683"><ele>123.00000000000001</ele><time>2026-04-26T14:58:08.5Z</time></trkpt><trkpt lat="43.3453233" lon="13.4183417"><ele>124.0</ele><time>2026-04-26T14:58:09.5Z</time></trkpt><trkpt lat="43.3453283" lon="13.4185583"><ele>124.0</ele><time>2026-04-26T14:58:10.5Z</time></trkpt><trkpt lat="43.3453283" lon="13.4188183"><ele>124.0</ele><time>2026-04-26T14:58:11.5Z</time></trkpt><trkpt lat="43.3453233" lon="13.4190883"><ele>124.0</ele><time>2026-04-26T14:58:12.5Z</time></trkpt><trkpt lat="43.3453183" lon="13.4193267"><ele>124.0</ele><time>2026-04-26T14:58:13.5Z</time></trkpt><trkpt lat="43.34531" lon="13.4195383"><ele>124.0</ele><time>2026-04-26T14:58:14.501Z</time></trkpt><trkpt lat="43.3452967" lon="13.4197183"><ele>124.0</ele><time>2026-04-26T14:58:15.5Z</time></trkpt><trkpt lat="43.3452617" lon="13.4198683"><ele>124.0</ele><time>2026-04-26T14:58:16.501Z</time></trkpt><trkpt lat="43.3452" lon="13.42002"><ele>124.75</ele><time>2026-04-26T14:58:17.5Z</time></trkpt><trkpt lat="43.3451167" lon="13.4201633"><ele>125.5</ele><time>2026-04-26T14:58:18.5Z</time></trkpt><trkpt lat="43.3450417" lon="13.4203267"><ele>126.25</ele><time>2026-04-26T14:58:19.5Z</time></trkpt><trkpt lat="43.3449883" lon="13.4205117"><ele>127.0</ele><time>2026-04-26T14:58:20.5Z</time></trkpt><trkpt lat="43.344945" lon="13.4206833"><ele>127.0</ele><time>2026-04-26T14:58:21.5Z</time></trkpt><trkpt lat="43.3448967" lon="13.4208433"><ele>127.0</ele><time>2026-04-26T14:58:22.5Z</time></trkpt><trkpt lat="43.34482" lon="13.42101"><ele>127.0</ele><time>2026-04-26T14:58:23.5Z</time></trkpt><trkpt lat="43.3447117" lon="13.4211767"><ele>127.0</ele><time>2026-04-26T14:58:24.5Z</time></trkpt><trkpt lat="43.344575" lon="13.4213567"><ele>124.33333333333334</ele><time>2026-04-26T14:58:25.5Z</time></trkpt><trkpt lat="43.34443" lon="13.4215383"><ele>121.66666666666666</ele><time>2026-04-26T14:58:26.5Z</time></trkpt><trkpt lat="43.344265" lon="13.42174"><ele>119.0</ele><time>2026-04-26T14:58:27.5Z</time></trkpt><trkpt lat="43.3441" lon="13.4219583"><ele>118.5</ele><time>2026-04-26T14:58:28.5Z</time></trkpt><trkpt lat="43.3439317" lon="13.4221833"><ele>118.0</ele><time>2026-04-26T14:58:29.5Z</time></trkpt><trkpt lat="43.34376" lon="13.422415"><ele>116.5</ele><time>2026-04-26T14:58:30.5Z</time></trkpt><trkpt lat="43.3435817" lon="13.4226467"><ele>115.0</ele><time>2026-04-26T14:58:31.5Z</time></trkpt><trkpt lat="43.3433983" lon="13.4228833"><ele>115.0</ele><time>2026-04-26T14:58:32.501Z</time></trkpt><trkpt lat="43.3432167" lon="13.4231267"><ele>115.0</ele><time>2026-04-26T14:58:33.5Z</time></trkpt><trkpt lat="43.34304" lon="13.4233683"><ele>114.5</ele><time>2026-04-26T14:58:34.501Z</time></trkpt><trkpt lat="43.3428617" lon="13.42361"><ele>114.0</ele><time>2026-04-26T14:58:35.5Z</time></trkpt><trkpt lat="43.3426817" lon="13.42385"><ele>113.5</ele><time>2026-04-26T14:58:36.5Z</time></trkpt><trkpt lat="43.3425083" lon="13.424075"><ele>113.0</ele><time>2026-04-26T14:58:37.501Z</time></trkpt><trkpt lat="43.3423517" lon="13.42429"><ele>113.0</ele><time>2026-04-26T14:58:38.5Z</time></trkpt><trkpt lat="43.3422033" lon="13.424485"><ele>113.0</ele><time>2026-04-26T14:58:39.501Z</time></trkpt><trkpt lat="43.342065" lon="13.424665"><ele>113.0</ele><time>2026-04-26T14:58:40.5Z</time></trkpt><trkpt lat="43.34194" lon="13.4248417"><ele>113.0</ele><time>2026-04-26T14:58:41.5Z</time></trkpt><trkpt lat="43.3418183" lon="13.4249933"><ele>113.0</ele><time>2026-04-26T14:58:42.5Z</time></trkpt><trkpt lat="43.3417133" lon="13.4251317"><ele>113.0</ele><time>2026-04-26T14:58:43.501Z</time></trkpt><trkpt lat="43.34163" lon="13.4252517"><ele>113.0</ele><time>2026-04-26T14:58:44.5Z</time></trkpt><trkpt lat="43.341555" lon="13.42534"><ele>113.0</ele><time>2026-04-26T14:58:45.5Z</time></trkpt><trkpt lat="43.3415083" lon="13.425415"><ele>113.00000000000001</ele><time>2026-04-26T14:58:46.5Z</time></trkpt><trkpt lat="43.3414767" lon="13.425495"><ele>113.00000000000001</ele><time>2026-04-26T14:58:47.5Z</time></trkpt><trkpt lat="43.341495" lon="13.4256617"><ele>113.0</ele><time>2026-04-26T14:58:49.501Z</time></trkpt><trkpt lat="43.3415483" lon="13.42576"><ele>113.0</ele><time>2026-04-26T14:58:50.5Z</time></trkpt><trkpt lat="43.341625" lon="13.4258667"><ele>112.66666666666666</ele><time>2026-04-26T14:58:51.5Z</time></trkpt><trkpt lat="43.341715" lon="13.4260083"><ele>112.33333333333334</ele><time>2026-04-26T14:58:52.5Z</time></trkpt><trkpt lat="43.341815" lon="13.4261633"><ele>112.0</ele><time>2026-04-26T14:58:53.5Z</time></trkpt><trkpt lat="43.341925" lon="13.4263367"><ele>112.0</ele><time>2026-04-26T14:58:54.5Z</time></trkpt><trkpt lat="43.34205" lon="13.4265083"><ele>112.0</ele><time>2026-04-26T14:58:55.5Z</time></trkpt><trkpt lat="43.342195" lon="13.4266717"><ele>112.0</ele><time>2026-04-26T14:58:56.5Z</time></trkpt><trkpt lat="43.342345" lon="13.4268333"><ele>113.0</ele><time>2026-04-26T14:58:57.5Z</time></trkpt><trkpt lat="43.34249" lon="13.4269783"><ele>114.0</ele><time>2026-04-26T14:58:58.5Z</time></trkpt><trkpt lat="43.342625" lon="13.4271017"><ele>115.0</ele><time>2026-04-26T14:58:59.5Z</time></trkpt><trkpt lat="43.3427483" lon="13.4272067"><ele>115.00000000000001</ele><time>2026-04-26T14:59:00.501Z</time></trkpt><trkpt lat="43.34285" lon="13.4273067"><ele>115.0</ele><time>2026-04-26T14:59:01.501Z</time></trkpt><trkpt lat="43.342925" lon="13.427385"><ele>115.0</ele><time>2026-04-26T14:59:02.5Z</time></trkpt><trkpt lat="43.34298" lon="13.4274683"><ele>115.0</ele><time>2026-04-26T14:59:03.501Z</time></trkpt><trkpt lat="43.3430067" lon="13.4275633"><ele>115.00000000000001</ele><time>2026-04-26T14:59:04.5Z</time></trkpt><trkpt lat="43.343005" lon="13.42766"><ele>115.0</ele><time>2026-04-26T14:59:05.5Z</time></trkpt><trkpt lat="43.3429717" lon="13.427775"><ele>115.0</ele><time>2026-04-26T14:59:06.501Z</time></trkpt><trkpt lat="43.34292" lon="13.42791"><ele>115.0</ele><time>2026-04-26T14:59:07.501Z</time></trkpt><trkpt lat="43.34285" lon="13.4280433"><ele>115.0</ele><time>2026-04-26T14:59:08.5Z</time></trkpt><trkpt lat="43.342765" lon="13.42816"><ele>115.0</ele><time>2026-04-26T14:59:09.501Z</time></trkpt><trkpt lat="43.3426867" lon="13.4282667"><ele>113.5</ele><time>2026-04-26T14:59:10.5Z</time></trkpt><trkpt lat="43.3426033" lon="13.4283483"><ele>112.0</ele><time>2026-04-26T14:59:11.5Z</time></trkpt><trkpt lat="43.3424983" lon="13.4283967"><ele>110.5</ele><time>2026-04-26T14:59:12.5Z</time></trkpt><trkpt lat="43.3423683" lon="13.4284133"><ele>109.0</ele><time>2026-04-26T14:59:13.5Z</time></trkpt><trkpt lat="43.3422333" lon="13.4284233"><ele>107.0</ele><time>2026-04-26T14:59:14.5Z</time></trkpt><trkpt lat="43.34211" lon="13.4284367"><ele>105.0</ele><time>2026-04-26T14:59:15.5Z</time></trkpt><trkpt lat="43.3420017" lon="13.4284583"><ele>103.0</ele><time>2026-04-26T14:59:16.5Z</time></trkpt><trkpt lat="43.341905" lon="13.4285017"><ele>101.0</ele><time>2026-04-26T14:59:17.5Z</time></trkpt><trkpt lat="43.3418017" lon="13.42859"><ele>101.0</ele><time>2026-04-26T14:59:18.5Z</time></trkpt><trkpt lat="43.3417017" lon="13.4287167"><ele>101.0</ele><time>2026-04-26T14:59:19.5Z</time></trkpt><trkpt lat="43.341585" lon="13.4288867"><ele>101.0</ele><time>2026-04-26T14:59:20.5Z</time></trkpt><trkpt lat="43.3414567" lon="13.4290767"><ele>97.66666666666666</ele><time>2026-04-26T14:59:21.5Z</time></trkpt><trkpt lat="43.3413133" lon="13.4292783"><ele>94.33333333333333</ele><time>2026-04-26T14:59:22.501Z</time></trkpt><trkpt lat="43.3411617" lon="13.4294833"><ele>91.0</ele><time>2026-04-26T14:59:23.5Z</time></trkpt><trkpt lat="43.3410267" lon="13.4296717"><ele>91.0</ele><time>2026-04-26T14:59:24.5Z</time></trkpt><trkpt lat="43.340905" lon="13.4298467"><ele>91.0</ele><time>2026-04-26T14:59:25.501Z</time></trkpt><trkpt lat="43.340795" lon="13.43"><ele>91.0</ele><time>2026-04-26T14:59:26.5Z</time></trkpt><trkpt lat="43.3406983" lon="13.4301317"><ele>91.0</ele><time>2026-04-26T14:59:27.5Z</time></trkpt><trkpt lat="43.3406183" lon="13.430245"><ele>91.0</ele><time>2026-04-26T14:59:28.5Z</time></trkpt><trkpt lat="43.3405583" lon="13.4303333"><ele>91.0</ele><time>2026-04-26T14:59:29.501Z</time></trkpt><trkpt lat="43.3405133" lon="13.4303967"><ele>91.0</ele><time>2026-04-26T14:59:30.5Z</time></trkpt><trkpt lat="43.340405" lon="13.4304683"><ele>91.0</ele><time>2026-04-26T14:59:32.5Z</time></trkpt><trkpt lat="43.3403367" lon="13.43046"><ele>90.75</ele><time>2026-04-26T14:59:33.5Z</time></trkpt><trkpt lat="43.3402517" lon="13.4304167"><ele>90.5</ele><time>2026-04-26T14:59:34.5Z</time></trkpt><trkpt lat="43.340145" lon="13.43035"><ele>90.25</ele><time>2026-04-26T14:59:35.5Z</time></trkpt><trkpt lat="43.340005" lon="13.430255"><ele>90.0</ele><time>2026-04-26T14:59:36.5Z</time></trkpt><trkpt lat="43.3398383" lon="13.430155"><ele>90.0</ele><time>2026-04-26T14:59:37.5Z</time></trkpt><trkpt lat="43.3396583" lon="13.430055"><ele>90.0</ele><time>2026-04-26T14:59:38.5Z</time></trkpt><trkpt lat="43.3394783" lon="13.4299517"><ele>90.0</ele><time>2026-04-26T14:59:39.501Z</time></trkpt><trkpt lat="43.3392967" lon="13.4298517"><ele>90.0</ele><time>2026-04-26T14:59:40.5Z</time></trkpt><trkpt lat="43.3391383" lon="13.4297583"><ele>90.0</ele><time>2026-04-26T14:59:41.5Z</time></trkpt><trkpt lat="43.338985" lon="13.42967"><ele>90.0</ele><time>2026-04-26T14:59:42.5Z</time></trkpt><trkpt lat="43.3388533" lon="13.429595"><ele>90.0</ele><time>2026-04-26T14:59:43.5Z</time></trkpt><trkpt lat="43.3387483" lon="13.42953"><ele>90.0</ele><time>2026-04-26T14:59:44.5Z</time></trkpt><trkpt lat="43.3386633" lon="13.4294867"><ele>90.0</ele><time>2026-04-26T14:59:45.5Z</time></trkpt><trkpt lat="43.3386017" lon="13.4294533"><ele>90.0</ele><time>2026-04-26T14:59:46.501Z</time></trkpt><trkpt lat="43.3385133" lon="13.429475"><ele>90.0</ele><time>2026-04-26T14:59:48.5Z</time></trkpt><trkpt lat="43.3384783" lon="13.4295633"><ele>90.0</ele><time>2026-04-26T14:59:50.501Z</time></trkpt><trkpt lat="43.3384" lon="13.4297033"><ele>90.0</ele><time>2026-04-26T15:00:18.5Z</time></trkpt></trkseg><trkseg><trkpt lat="43.3381987" lon="13.4296102"><ele>90.0</ele><time>2026-04-26T15:15:05.526Z</time></trkpt><trkpt lat="43.33816" lon="13.4295233"><ele>90.0</ele><time>2026-04-26T15:15:06.526Z</time></trkpt><trkpt lat="43.338125" lon="13.429435"><ele>90.0</ele><time>2026-04-26T15:15:07.526Z</time></trkpt><trkpt lat="43.3381" lon="13.429355"><ele>90.0</ele><time>2026-04-26T15:15:08.526Z</time></trkpt><trkpt lat="43.338095" lon="13.4292567"><ele>90.0</ele><time>2026-04-26T15:15:10.526Z</time></trkpt><trkpt lat="43.3380317" lon="13.4291333"><ele>90.0</ele><time>2026-04-26T15:15:15.526Z</time></trkpt><trkpt lat="43.3379617" lon="13.4290833"><ele>90.0</ele><time>2026-04-26T15:15:16.526Z</time></trkpt><trkpt lat="43.3378767" lon="13.42903"><ele>90.0</ele><time>2026-04-26T15:15:17.526Z</time></trkpt><trkpt lat="43.337785" lon="13.42898"><ele>90.0</ele><time>2026-04-26T15:15:18.526Z</time></trkpt><trkpt lat="43.337685" lon="13.4289267"><ele>90.0</ele><time>2026-04-26T15:15:19.527Z</time></trkpt><trkpt lat="43.33758" lon="13.4288717"><ele>90.0</ele><time>2026-04-26T15:15:20.526Z</time></trkpt><trkpt lat="43.3374633" lon="13.4288017"><ele>90.25</ele><time>2026-04-26T15:15:21.526Z</time></trkpt><trkpt lat="43.3373333" lon="13.42873"><ele>90.5</ele><time>2026-04-26T15:15:22.526Z</time></trkpt><trkpt lat="43.337205" lon="13.4286617"><ele>90.75</ele><time>2026-04-26T15:15:23.527Z</time></trkpt><trkpt lat="43.33707" lon="13.4285867"><ele>91.0</ele><time>2026-04-26T15:15:24.526Z</time></trkpt><trkpt lat="43.3369367" lon="13.4285183"><ele>91.19999999999999</ele><time>2026-04-26T15:15:25.527Z</time></trkpt><trkpt lat="43.33682" lon="13.4284517"><ele>91.39999999999999</ele><time>2026-04-26T15:15:26.526Z</time></trkpt><trkpt lat="43.33671" lon="13.4283917"><ele>91.6</ele><time>2026-04-26T15:15:27.526Z</time></trkpt><trkpt lat="43.336615" lon="13.4283417"><ele>91.8</ele><time>2026-04-26T15:15:28.526Z</time></trkpt><trkpt lat="43.336535" lon="13.4282733"><ele>92.0</ele><time>2026-04-26T15:15:29.526Z</time></trkpt><trkpt lat="43.33647" lon="13.4282017"><ele>92.0</ele><time>2026-04-26T15:15:30.527Z</time></trkpt><trkpt lat="43.3364183" lon="13.4281233"><ele>92.0</ele><time>2026-04-26T15:15:31.526Z</time></trkpt><trkpt lat="43.3363733" lon="13.42804"><ele>92.0</ele><time>2026-04-26T15:15:32.527Z</time></trkpt><trkpt lat="43.3363233" lon="13.4279667"><ele>92.0</ele><time>2026-04-26T15:15:33.526Z</time></trkpt><trkpt lat="43.33627" lon="13.4279067"><ele>92.0</ele><time>2026-04-26T15:15:34.526Z</time></trkpt><trkpt lat="43.3361483" lon="13.4279"><ele>92.0</ele><time>2026-04-26T15:15:36.526Z</time></trkpt><trkpt lat="43.3360967" lon="13.42795"><ele>92.0</ele><time>2026-04-26T15:15:37.527Z</time></trkpt><trkpt lat="43.3360483" lon="13.42802"><ele>92.0</ele><time>2026-04-26T15:15:38.526Z</time></trkpt><trkpt lat="43.3360067" lon="13.4281133"><ele>92.0</ele><time>2026-04-26T15:15:39.526Z</time></trkpt><trkpt lat="43.33598" lon="13.4282233"><ele>92.0</ele><time>2026-04-26T15:15:40.526Z</time></trkpt><trkpt lat="43.3359433" lon="13.4283433"><ele>92.0</ele><time>2026-04-26T15:15:41.526Z</time></trkpt><trkpt lat="43.335885" lon="13.42847"><ele>92.0</ele><time>2026-04-26T15:15:42.526Z</time></trkpt><trkpt lat="43.3358067" lon="13.4285883"><ele>92.0</ele><time>2026-04-26T15:15:43.526Z</time></trkpt><trkpt lat="43.3357" lon="13.4287217"><ele>92.0</ele><time>2026-04-26T15:15:44.526Z</time></trkpt><trkpt lat="43.3355833" lon="13.4288717"><ele>92.0</ele><time>2026-04-26T15:15:45.526Z</time></trkpt><trkpt lat="43.3354617" lon="13.4290333"><ele>91.0</ele><time>2026-04-26T15:15:46.526Z</time></trkpt><trkpt lat="43.33533" lon="13.4291983"><ele>90.0</ele><time>2026-04-26T15:15:47.526Z</time></trkpt><trkpt lat="43.3352" lon="13.429365"><ele>89.0</ele><time>2026-04-26T15:15:48.526Z</time></trkpt><trkpt lat="43.3350783" lon="13.42952"><ele>89.0</ele><time>2026-04-26T15:15:49.526Z</time></trkpt><trkpt lat="43.3349667" lon="13.42966"><ele>89.0</ele><time>2026-04-26T15:15:50.526Z</time></trkpt><trkpt lat="43.3348667" lon="13.42979"><ele>89.0</ele><time>2026-04-26T15:15:51.526Z</time></trkpt><trkpt lat="43.334775" lon="13.4299067"><ele>89.0</ele><time>2026-04-26T15:15:52.526Z</time></trkpt><trkpt lat="43.33469" lon="13.4299917"><ele>88.99999999999999</ele><time>2026-04-26T15:15:53.526Z</time></trkpt><trkpt lat="43.3346133" lon="13.4300567"><ele>89.0</ele><time>2026-04-26T15:15:54.526Z</time></trkpt><trkpt lat="43.3345367" lon="13.4300917"><ele>89.0</ele><time>2026-04-26T15:15:55.526Z</time></trkpt><trkpt lat="43.334465" lon="13.4301233"><ele>89.0</ele><time>2026-04-26T15:15:56.526Z</time></trkpt><trkpt lat="43.3343967" lon="13.430155"><ele>89.0</ele><time>2026-04-26T15:15:57.526Z</time></trkpt><trkpt lat="43.334345" lon="13.43021"><ele>88.99999999999999</ele><time>2026-04-26T15:15:58.526Z</time></trkpt><trkpt lat="43.3343133" lon="13.4302883"><ele>89.0</ele><time>2026-04-26T15:15:59.526Z</time></trkpt><trkpt lat="43.3343" lon="13.43045"><ele>89.0</ele><time>2026-04-26T15:16:01.527Z</time></trkpt><trkpt lat="43.3343367" lon="13.4305283"><ele>89.0</ele><time>2026-04-26T15:16:02.526Z</time></trkpt><trkpt lat="43.3343933" lon="13.4306"><ele>89.0</ele><time>2026-04-26T15:16:03.526Z</time></trkpt><trkpt lat="43.3344733" lon="13.4306383"><ele>89.0</ele><time>2026-04-26T15:16:04.526Z</time></trkpt><trkpt lat="43.3345717" lon="13.4306767"><ele>89.0</ele><time>2026-04-26T15:16:05.526Z</time></trkpt><trkpt lat="43.3346717" lon="13.430735"><ele>89.0</ele><time>2026-04-26T15:16:06.526Z</time></trkpt><trkpt lat="43.3347667" lon="13.430825"><ele>89.0</ele><time>2026-04-26T15:16:07.526Z</time></trkpt><trkpt lat="43.3348633" lon="13.430945"><ele>89.0</ele><time>2026-04-26T15:16:08.526Z</time></trkpt><trkpt lat="43.3349817" lon="13.4310867"><ele>89.0</ele><time>2026-04-26T15:16:09.526Z</time></trkpt><trkpt lat="43.3351117" lon="13.4312417"><ele>88.33333333333334</ele><time>2026-04-26T15:16:10.526Z</time></trkpt><trkpt lat="43.3352383" lon="13.4314117"><ele>87.66666666666667</ele><time>2026-04-26T15:16:11.526Z</time></trkpt><trkpt lat="43.3353817" lon="13.43159"><ele>87.0</ele><time>2026-04-26T15:16:12.526Z</time></trkpt><trkpt lat="43.3355267" lon="13.4317833"><ele>87.33333333333333</ele><time>2026-04-26T15:16:13.526Z</time></trkpt><trkpt lat="43.3356683" lon="13.43195"><ele>87.66666666666666</ele><time>2026-04-26T15:16:14.526Z</time></trkpt><trkpt lat="43.335795" lon="13.4321083"><ele>88.0</ele><time>2026-04-26T15:16:15.526Z</time></trkpt><trkpt lat="43.3359067" lon="13.43226"><ele>88.5</ele><time>2026-04-26T15:16:16.526Z</time></trkpt><trkpt lat="43.3360117" lon="13.4324017"><ele>89.0</ele><time>2026-04-26T15:16:17.526Z</time></trkpt><trkpt lat="43.33611" lon="13.43253"><ele>89.5</ele><time>2026-04-26T15:16:18.526Z</time></trkpt><trkpt lat="43.3362017" lon="13.4326617"><ele>90.0</ele><time>2026-04-26T15:16:19.527Z</time></trkpt><trkpt lat="43.3362917" lon="13.4327783"><ele>90.0</ele><time>2026-04-26T15:16:20.526Z</time></trkpt><trkpt lat="43.3363867" lon="13.4328917"><ele>90.0</ele><time>2026-04-26T15:16:21.527Z</time></trkpt><trkpt lat="43.33648" lon="13.4330133"><ele>90.0</ele><time>2026-04-26T15:16:22.526Z</time></trkpt><trkpt lat="43.33658" lon="13.4331383"><ele>90.0</ele><time>2026-04-26T15:16:23.526Z</time></trkpt><trkpt lat="43.33668" lon="13.4332733"><ele>90.0</ele><time>2026-04-26T15:16:24.526Z</time></trkpt><trkpt lat="43.3367883" lon="13.4334133"><ele>90.0</ele><time>2026-04-26T15:16:25.526Z</time></trkpt><trkpt lat="43.3368933" lon="13.4335533"><ele>90.0</ele><time>2026-04-26T15:16:26.526Z</time></trkpt><trkpt lat="43.3370017" lon="13.4337"><ele>90.0</ele><time>2026-04-26T15:16:27.527Z</time></trkpt><trkpt lat="43.3371133" lon="13.4338467"><ele>89.66666666666667</ele><time>2026-04-26T15:16:28.527Z</time></trkpt><trkpt lat="43.3372317" lon="13.4339867"><ele>89.33333333333334</ele><time>2026-04-26T15:16:29.526Z</time></trkpt><trkpt lat="43.3373517" lon="13.4341333"><ele>89.0</ele><time>2026-04-26T15:16:30.526Z</time></trkpt><trkpt lat="43.33747" lon="13.4342833"><ele>89.0</ele><time>2026-04-26T15:16:31.526Z</time></trkpt><trkpt lat="43.3375783" lon="13.43442"><ele>89.0</ele><time>2026-04-26T15:16:32.526Z</time></trkpt><trkpt lat="43.33768" lon="13.434555"><ele>89.0</ele><time>2026-04-26T15:16:33.526Z</time></trkpt><trkpt lat="43.3377733" lon="13.4346783"><ele>89.0</ele><time>2026-04-26T15:16:34.527Z</time></trkpt><trkpt lat="43.3378617" lon="13.434795"><ele>89.0</ele><time>2026-04-26T15:16:35.527Z</time></trkpt><trkpt lat="43.3379433" lon="13.4349017"><ele>89.0</ele><time>2026-04-26T15:16:36.526Z</time></trkpt><trkpt lat="43.3380267" lon="13.4350033"><ele>89.0</ele><time>2026-04-26T15:16:37.526Z</time></trkpt><trkpt lat="43.3380967" lon="13.4350983"><ele>89.0</ele><time>2026-04-26T15:16:38.526Z</time></trkpt><trkpt lat="43.3381717" lon="13.4351967"><ele>89.0</ele><time>2026-04-26T15:16:39.526Z</time></trkpt><trkpt lat="43.3382467" lon="13.4353017"><ele>89.25</ele><time>2026-04-26T15:16:40.526Z</time></trkpt><trkpt lat="43.3383317" lon="13.4354083"><ele>89.5</ele><time>2026-04-26T15:16:41.526Z</time></trkpt><trkpt lat="43.3384217" lon="13.4355233"><ele>89.75</ele><time>2026-04-26T15:16:42.527Z</time></trkpt><trkpt lat="43.3385117" lon="13.435635"><ele>90.0</ele><time>2026-04-26T15:16:43.526Z</time></trkpt><trkpt lat="43.3386017" lon="13.4357567"><ele>90.0</ele><time>2026-04-26T15:16:44.526Z</time></trkpt><trkpt lat="43.3386833" lon="13.43588"><ele>90.0</ele><time>2026-04-26T15:16:45.526Z</time></trkpt><trkpt lat="43.3387683" lon="13.4359983"><ele>90.0</ele><time>2026-04-26T15:16:46.526Z</time></trkpt><trkpt lat="43.3388467" lon="13.4361117"><ele>90.0</ele><time>2026-04-26T15:16:47.526Z</time></trkpt><trkpt lat="43.338905" lon="13.4362217"><ele>90.0</ele><time>2026-04-26T15:16:48.527Z</time></trkpt><trkpt lat="43.33896" lon="13.4363317"><ele>90.0</ele><time>2026-04-26T15:16:49.526Z</time></trkpt><trkpt lat="43.3389917" lon="13.4364383"><ele>90.0</ele><time>2026-04-26T15:16:50.526Z</time></trkpt><trkpt lat="43.3390083" lon="13.4365467"><ele>90.0</ele><time>2026-04-26T15:16:51.527Z</time></trkpt><trkpt lat="43.33902" lon="13.4366417"><ele>90.0</ele><time>2026-04-26T15:16:52.527Z</time></trkpt><trkpt lat="43.3390433" lon="13.4367333"><ele>90.0</ele><time>2026-04-26T15:16:53.527Z</time></trkpt><trkpt lat="43.3390783" lon="13.43681"><ele>90.0</ele><time>2026-04-26T15:16:54.526Z</time></trkpt><trkpt lat="43.339135" lon="13.4368667"><ele>90.0</ele><time>2026-04-26T15:16:55.527Z</time></trkpt><trkpt lat="43.3392017" lon="13.4369033"><ele>90.0</ele><time>2026-04-26T15:16:56.527Z</time></trkpt><trkpt lat="43.33929" lon="13.4369117"><ele>90.0</ele><time>2026-04-26T15:16:57.526Z</time></trkpt><trkpt lat="43.3393883" lon="13.4369067"><ele>90.0</ele><time>2026-04-26T15:16:58.526Z</time></trkpt><trkpt lat="43.339485" lon="13.43694"><ele>90.0</ele><time>2026-04-26T15:16:59.526Z</time></trkpt><trkpt lat="43.3395683" lon="13.4370083"><ele>90.0</ele><time>2026-04-26T15:17:00.527Z</time></trkpt><trkpt lat="43.339645" lon="13.437095"><ele>90.0</ele><time>2026-04-26T15:17:01.526Z</time></trkpt><trkpt lat="43.339735" lon="13.437195"><ele>90.0</ele><time>2026-04-26T15:17:02.527Z</time></trkpt><trkpt lat="43.33983" lon="13.4373017"><ele>90.0</ele><time>2026-04-26T15:17:03.526Z</time></trkpt><trkpt lat="43.3399283" lon="13.4374067"><ele>90.5</ele><time>2026-04-26T15:17:04.526Z</time></trkpt><trkpt lat="43.3400333" lon="13.4375117"><ele>91.0</ele><time>2026-04-26T15:17:05.526Z</time></trkpt><trkpt lat="43.34014" lon="13.4376167"><ele>91.5</ele><time>2026-04-26T15:17:06.526Z</time></trkpt><trkpt lat="43.340235" lon="13.4377217"><ele>92.0</ele><time>2026-04-26T15:17:07.526Z</time></trkpt><trkpt lat="43.3403083" lon="13.4378333"><ele>92.0</ele><time>2026-04-26T15:17:08.526Z</time></trkpt><trkpt lat="43.34038" lon="13.4379617"><ele>92.0</ele><time>2026-04-26T15:17:09.526Z</time></trkpt><trkpt lat="43.3404383" lon="13.4381167"><ele>92.0</ele><time>2026-04-26T15:17:10.526Z</time></trkpt><trkpt lat="43.3404983" lon="13.43828"><ele>92.0</ele><time>2026-04-26T15:17:11.526Z</time></trkpt><trkpt lat="43.340545" lon="13.4384583"><ele>91.75</ele><time>2026-04-26T15:17:12.526Z</time></trkpt><trkpt lat="43.3405783" lon="13.4386417"><ele>91.5</ele><time>2026-04-26T15:17:13.527Z</time></trkpt><trkpt lat="43.3406017" lon="13.4388433"><ele>91.25</ele><time>2026-04-26T15:17:14.526Z</time></trkpt><trkpt lat="43.3406267" lon="13.4390533"><ele>91.0</ele><time>2026-04-26T15:17:15.526Z</time></trkpt><trkpt lat="43.3406533" lon="13.4392583"><ele>91.0</ele><time>2026-04-26T15:17:16.526Z</time></trkpt><trkpt lat="43.340685" lon="13.439465"><ele>91.0</ele><time>2026-04-26T15:17:17.527Z</time></trkpt><trkpt lat="43.340715" lon="13.4396733"><ele>91.0</ele><time>2026-04-26T15:17:18.526Z</time></trkpt><trkpt lat="43.34075" lon="13.4398733"><ele>91.0</ele><time>2026-04-26T15:17:19.527Z</time></trkpt><trkpt lat="43.3407833" lon="13.4400717"><ele>91.0</ele><time>2026-04-26T15:17:20.526Z</time></trkpt><trkpt lat="43.340825" lon="13.4402833"><ele>91.0</ele><time>2026-04-26T15:17:21.526Z</time></trkpt><trkpt lat="43.3408717" lon="13.4404883"><ele>91.0</ele><time>2026-04-26T15:17:22.526Z</time></trkpt><trkpt lat="43.3409083" lon="13.4407033"><ele>91.0</ele><time>2026-04-26T15:17:23.526Z</time></trkpt><trkpt lat="43.340945" lon="13.4409067"><ele>91.0</ele><time>2026-04-26T15:17:24.526Z</time></trkpt><trkpt lat="43.3409767" lon="13.441105"><ele>91.0</ele><time>2026-04-26T15:17:25.526Z</time></trkpt><trkpt lat="43.3410117" lon="13.441285"><ele>91.0</ele><time>2026-04-26T15:17:26.526Z</time></trkpt><trkpt lat="43.3410483" lon="13.4414467"><ele>91.0</ele><time>2026-04-26T15:17:27.527Z</time></trkpt><trkpt lat="43.3410833" lon="13.4416133"><ele>91.0</ele><time>2026-04-26T15:17:28.526Z</time></trkpt><trkpt lat="43.3411183" lon="13.4417833"><ele>91.0</ele><time>2026-04-26T15:17:29.527Z</time></trkpt><trkpt lat="43.341155" lon="13.4419617"><ele>91.0</ele><time>2026-04-26T15:17:30.526Z</time></trkpt><trkpt lat="43.3411883" lon="13.4421533"><ele>91.0</ele><time>2026-04-26T15:17:31.526Z</time></trkpt><trkpt lat="43.34123" lon="13.4423517"><ele>91.0</ele><time>2026-04-26T15:17:32.526Z</time></trkpt><trkpt lat="43.3412717" lon="13.4425533"><ele>90.33333333333333</ele><time>2026-04-26T15:17:33.526Z</time></trkpt><trkpt lat="43.341315" lon="13.4427667"><ele>89.66666666666667</ele><time>2026-04-26T15:17:34.526Z</time></trkpt><trkpt lat="43.3413567" lon="13.4429867"><ele>89.0</ele><time>2026-04-26T15:17:35.526Z</time></trkpt><trkpt lat="43.3414017" lon="13.443215"><ele>89.0</ele><time>2026-04-26T15:17:36.526Z</time></trkpt><trkpt lat="43.3414467" lon="13.4434417"><ele>89.0</ele><time>2026-04-26T15:17:37.526Z</time></trkpt><trkpt lat="43.3414867" lon="13.4436667"><ele>89.0</ele><time>2026-04-26T15:17:38.526Z</time></trkpt><trkpt lat="43.3415317" lon="13.4438933"><ele>87.66666666666667</ele><time>2026-04-26T15:17:39.526Z</time></trkpt><trkpt lat="43.3415783" lon="13.44412"><ele>86.33333333333333</ele><time>2026-04-26T15:17:40.526Z</time></trkpt><trkpt lat="43.34162" lon="13.444345"><ele>85.0</ele><time>2026-04-26T15:17:41.526Z</time></trkpt><trkpt lat="43.341665" lon="13.4445717"><ele>85.0</ele><time>2026-04-26T15:17:42.527Z</time></trkpt><trkpt lat="43.341715" lon="13.4447967"><ele>85.0</ele><time>2026-04-26T15:17:43.526Z</time></trkpt><trkpt lat="43.3417567" lon="13.445025"><ele>85.0</ele><time>2026-04-26T15:17:44.526Z</time></trkpt><trkpt lat="43.3418017" lon="13.4452533"><ele>85.0</ele><time>2026-04-26T15:17:45.526Z</time></trkpt><trkpt lat="43.3418433" lon="13.4454733"><ele>85.0</ele><time>2026-04-26T15:17:46.527Z</time></trkpt><trkpt lat="43.341885" lon="13.4456967"><ele>85.0</ele><time>2026-04-26T15:17:47.526Z</time></trkpt><trkpt lat="43.3419283" lon="13.4459267"><ele>85.0</ele><time>2026-04-26T15:17:48.526Z</time></trkpt><trkpt lat="43.341975" lon="13.4461583"><ele>85.0</ele><time>2026-04-26T15:17:49.526Z</time></trkpt><trkpt lat="43.3420367" lon="13.4463917"><ele>85.0</ele><time>2026-04-26T15:17:50.526Z</time></trkpt><trkpt lat="43.3421083" lon="13.4466167"><ele>85.33333333333333</ele><time>2026-04-26T15:17:51.527Z</time></trkpt><trkpt lat="43.342185" lon="13.44684"><ele>85.66666666666667</ele><time>2026-04-26T15:17:52.526Z</time></trkpt><trkpt lat="43.342275" lon="13.4470567"><ele>86.0</ele><time>2026-04-26T15:17:53.526Z</time></trkpt><trkpt lat="43.34236" lon="13.4472667"><ele>86.0</ele><time>2026-04-26T15:17:54.527Z</time></trkpt><trkpt lat="43.3424433" lon="13.4474717"><ele>86.0</ele><time>2026-04-26T15:17:55.526Z</time></trkpt><trkpt lat="43.342525" lon="13.4476717"><ele>86.0</ele><time>2026-04-26T15:17:56.527Z</time></trkpt><trkpt lat="43.34261" lon="13.4478667"><ele>85.33333333333334</ele><time>2026-04-26T15:17:57.526Z</time></trkpt><trkpt lat="43.34269" lon="13.4480683"><ele>84.66666666666667</ele><time>2026-04-26T15:17:58.526Z</time></trkpt><trkpt lat="43.34277" lon="13.4482667"><ele>84.0</ele><time>2026-04-26T15:17:59.526Z</time></trkpt><trkpt lat="43.3428567" lon="13.4484617"><ele>84.0</ele><time>2026-04-26T15:18:00.526Z</time></trkpt><trkpt lat="43.3429333" lon="13.4486567"><ele>84.0</ele><time>2026-04-26T15:18:01.526Z</time></trkpt><trkpt lat="43.3430117" lon="13.4488433"><ele>84.0</ele><time>2026-04-26T15:18:02.527Z</time></trkpt><trkpt lat="43.3430883" lon="13.4490333"><ele>83.33333333333333</ele><time>2026-04-26T15:18:03.526Z</time></trkpt><trkpt lat="43.3431667" lon="13.4492217"><ele>82.66666666666666</ele><time>2026-04-26T15:18:04.526Z</time></trkpt><trkpt lat="43.3432417" lon="13.4494117"><ele>82.0</ele><time>2026-04-26T15:18:05.526Z</time></trkpt><trkpt lat="43.3433183" lon="13.4495983"><ele>82.0</ele><time>2026-04-26T15:18:06.526Z</time></trkpt><trkpt lat="43.343395" lon="13.4497867"><ele>82.0</ele><time>2026-04-26T15:18:07.526Z</time></trkpt><trkpt lat="43.3434767" lon="13.44998"><ele>82.0</ele><time>2026-04-26T15:18:08.527Z</time></trkpt><trkpt lat="43.3435583" lon="13.45017"><ele>82.0</ele><time>2026-04-26T15:18:09.526Z</time></trkpt><trkpt lat="43.3436333" lon="13.4503467"><ele>82.0</ele><time>2026-04-26T15:18:10.526Z</time></trkpt><trkpt lat="43.343705" lon="13.450515"><ele>82.0</ele><time>2026-04-26T15:18:11.526Z</time></trkpt><trkpt lat="43.3437767" lon="13.450685"><ele>82.0</ele><time>2026-04-26T15:18:12.526Z</time></trkpt><trkpt lat="43.34385" lon="13.450855"><ele>82.25</ele><time>2026-04-26T15:18:13.526Z</time></trkpt><trkpt lat="43.3439183" lon="13.4510167"><ele>82.5</ele><time>2026-04-26T15:18:14.527Z</time></trkpt><trkpt lat="43.3439867" lon="13.4511733"><ele>82.75</ele><time>2026-04-26T15:18:15.526Z</time></trkpt><trkpt lat="43.3440433" lon="13.4513183"><ele>83.0</ele><time>2026-04-26T15:18:16.526Z</time></trkpt><trkpt lat="43.3441033" lon="13.451445"><ele>83.0</ele><time>2026-04-26T15:18:17.527Z</time></trkpt><trkpt lat="43.34416" lon="13.4515633"><ele>83.0</ele><time>2026-04-26T15:18:18.526Z</time></trkpt><trkpt lat="43.34421" lon="13.4516917"><ele>83.0</ele><time>2026-04-26T15:18:19.526Z</time></trkpt><trkpt lat="43.3442583" lon="13.4518167"><ele>83.0</ele><time>2026-04-26T15:18:20.527Z</time></trkpt><trkpt lat="43.344315" lon="13.4519383"><ele>83.0</ele><time>2026-04-26T15:18:21.526Z</time></trkpt><trkpt lat="43.3443783" lon="13.4520817"><ele>82.75</ele><time>2026-04-26T15:18:22.527Z</time></trkpt><trkpt lat="43.3444517" lon="13.4522383"><ele>82.5</ele><time>2026-04-26T15:18:23.526Z</time></trkpt><trkpt lat="43.3445217" lon="13.4524067"><ele>82.25</ele><time>2026-04-26T15:18:24.526Z</time></trkpt><trkpt lat="43.3445917" lon="13.4525883"><ele>82.0</ele><time>2026-04-26T15:18:25.526Z</time></trkpt><trkpt lat="43.3446683" lon="13.4527783"><ele>81.25</ele><time>2026-04-26T15:18:26.526Z</time></trkpt><trkpt lat="43.34474" lon="13.4529633"><ele>80.5</ele><time>2026-04-26T15:18:27.526Z</time></trkpt><trkpt lat="43.3448167" lon="13.4531417"><ele>79.75</ele><time>2026-04-26T15:18:28.527Z</time></trkpt><trkpt lat="43.3448883" lon="13.4533033"><ele>79.0</ele><time>2026-04-26T15:18:29.526Z</time></trkpt><trkpt lat="43.3449517" lon="13.45346"><ele>79.0</ele><time>2026-04-26T15:18:30.526Z</time></trkpt><trkpt lat="43.3450183" lon="13.4536167"><ele>79.0</ele><time>2026-04-26T15:18:31.526Z</time></trkpt><trkpt lat="43.3450917" lon="13.4537733"><ele>79.0</ele><time>2026-04-26T15:18:32.527Z</time></trkpt><trkpt lat="43.3451567" lon="13.4539333"><ele>79.0</ele><time>2026-04-26T15:18:33.526Z</time></trkpt><trkpt lat="43.345225" lon="13.4541017"><ele>79.0</ele><time>2026-04-26T15:18:34.527Z</time></trkpt><trkpt lat="43.3452983" lon="13.4542767"><ele>79.0</ele><time>2026-04-26T15:18:35.526Z</time></trkpt><trkpt lat="43.34537" lon="13.454435"><ele>79.0</ele><time>2026-04-26T15:18:36.526Z</time></trkpt><trkpt lat="43.3454317" lon="13.4545833"><ele>79.0</ele><time>2026-04-26T15:18:37.526Z</time></trkpt><trkpt lat="43.3454983" lon="13.4547367"><ele>79.5</ele><time>2026-04-26T15:18:38.526Z</time></trkpt><trkpt lat="43.345565" lon="13.4548833"><ele>80.0</ele><time>2026-04-26T15:18:39.526Z</time></trkpt><trkpt lat="43.3456317" lon="13.4550367"><ele>80.5</ele><time>2026-04-26T15:18:40.526Z</time></trkpt><trkpt lat="43.3457" lon="13.455205"><ele>81.0</ele><time>2026-04-26T15:18:41.527Z</time></trkpt><trkpt lat="43.3457633" lon="13.4553733"><ele>80.75</ele><time>2026-04-26T15:18:42.527Z</time></trkpt><trkpt lat="43.34584" lon="13.4555333"><ele>80.5</ele><time>2026-04-26T15:18:43.526Z</time></trkpt><trkpt lat="43.34591" lon="13.45571"><ele>80.25</ele><time>2026-04-26T15:18:44.526Z</time></trkpt><trkpt lat="43.3459833" lon="13.4558817"><ele>80.0</ele><time>2026-04-26T15:18:45.527Z</time></trkpt><trkpt lat="43.3460533" lon="13.4560417"><ele>80.0</ele><time>2026-04-26T15:18:46.527Z</time></trkpt><trkpt lat="43.3461267" lon="13.4562217"><ele>80.0</ele><time>2026-04-26T15:18:47.526Z</time></trkpt><trkpt lat="43.3461983" lon="13.4563983"><ele>80.0</ele><time>2026-04-26T15:18:48.526Z</time></trkpt><trkpt lat="43.3462717" lon="13.4565783"><ele>80.0</ele><time>2026-04-26T15:18:49.526Z</time></trkpt><trkpt lat="43.34634" lon="13.456745"><ele>80.0</ele><time>2026-04-26T15:18:50.526Z</time></trkpt><trkpt lat="43.3464067" lon="13.456915"><ele>80.0</ele><time>2026-04-26T15:18:51.526Z</time></trkpt><trkpt lat="43.34648" lon="13.4570717"><ele>80.0</ele><time>2026-04-26T15:18:52.526Z</time></trkpt><trkpt lat="43.3465467" lon="13.4572133"><ele>80.0</ele><time>2026-04-26T15:18:53.527Z</time></trkpt><trkpt lat="43.3466067" lon="13.4573683"><ele>80.0</ele><time>2026-04-26T15:18:54.526Z</time></trkpt><trkpt lat="43.3466717" lon="13.4575167"><ele>80.0</ele><time>2026-04-26T15:18:55.527Z</time></trkpt><trkpt lat="43.3467283" lon="13.4576567"><ele>80.0</ele><time>2026-04-26T15:18:56.527Z</time></trkpt><trkpt lat="43.3467917" lon="13.4577883"><ele>80.0</ele><time>2026-04-26T15:18:57.526Z</time></trkpt><trkpt lat="43.346845" lon="13.45793"><ele>80.0</ele><time>2026-04-26T15:18:58.526Z</time></trkpt><trkpt lat="43.3468983" lon="13.45809"><ele>80.0</ele><time>2026-04-26T15:18:59.527Z</time></trkpt><trkpt lat="43.3469633" lon="13.45825"><ele>80.0</ele><time>2026-04-26T15:19:00.526Z</time></trkpt><trkpt lat="43.34703" lon="13.4584117"><ele>80.0</ele><time>2026-04-26T15:19:01.526Z</time></trkpt><trkpt lat="43.3470967" lon="13.4585667"><ele>80.0</ele><time>2026-04-26T15:19:02.526Z</time></trkpt><trkpt lat="43.34716" lon="13.45873"><ele>80.0</ele><time>2026-04-26T15:19:03.526Z</time></trkpt><trkpt lat="43.347215" lon="13.4589"><ele>80.0</ele><time>2026-04-26T15:19:04.526Z</time></trkpt><trkpt lat="43.3472767" lon="13.4590617"><ele>80.0</ele><time>2026-04-26T15:19:05.526Z</time></trkpt><trkpt lat="43.3473483" lon="13.459215"><ele>79.75</ele><time>2026-04-26T15:19:06.526Z</time></trkpt><trkpt lat="43.3474167" lon="13.4593717"><ele>79.5</ele><time>2026-04-26T15:19:07.527Z</time></trkpt><trkpt lat="43.3474883" lon="13.459535"><ele>79.25</ele><time>2026-04-26T15:19:08.526Z</time></trkpt><trkpt lat="43.3475633" lon="13.459705"><ele>79.0</ele><time>2026-04-26T15:19:09.526Z</time></trkpt><trkpt lat="43.34763" lon="13.4598517"><ele>79.0</ele><time>2026-04-26T15:19:10.526Z</time></trkpt><trkpt lat="43.3476967" lon="13.460005"><ele>79.0</ele><time>2026-04-26T15:19:11.526Z</time></trkpt><trkpt lat="43.3477633" lon="13.46018"><ele>79.0</ele><time>2026-04-26T15:19:12.527Z</time></trkpt><trkpt lat="43.3478367" lon="13.460345"><ele>79.0</ele><time>2026-04-26T15:19:13.526Z</time></trkpt><trkpt lat="43.3479083" lon="13.4605033"><ele>78.5</ele><time>2026-04-26T15:19:14.527Z</time></trkpt><trkpt lat="43.3479817" lon="13.4606733"><ele>78.0</ele><time>2026-04-26T15:19:15.526Z</time></trkpt><trkpt lat="43.3480583" lon="13.4608517"><ele>77.5</ele><time>2026-04-26T15:19:16.526Z</time></trkpt><trkpt lat="43.3481267" lon="13.46104"><ele>77.0</ele><time>2026-04-26T15:19:17.526Z</time></trkpt><trkpt lat="43.3482067" lon="13.4612333"><ele>77.0</ele><time>2026-04-26T15:19:18.526Z</time></trkpt><trkpt lat="43.3482867" lon="13.4614317"><ele>77.0</ele><time>2026-04-26T15:19:19.526Z</time></trkpt><trkpt lat="43.348375" lon="13.4616433"><ele>77.0</ele><time>2026-04-26T15:19:20.526Z</time></trkpt><trkpt lat="43.3484667" lon="13.4618583"><ele>77.0</ele><time>2026-04-26T15:19:21.526Z</time></trkpt><trkpt lat="43.3485617" lon="13.4620883"><ele>77.0</ele><time>2026-04-26T15:19:22.526Z</time></trkpt><trkpt lat="43.3486667" lon="13.4623267"><ele>77.0</ele><time>2026-04-26T15:19:23.526Z</time></trkpt><trkpt lat="43.3487683" lon="13.4625633"><ele>77.0</ele><time>2026-04-26T15:19:24.526Z</time></trkpt><trkpt lat="43.348865" lon="13.4628"><ele>77.0</ele><time>2026-04-26T15:19:25.526Z</time></trkpt><trkpt lat="43.34896" lon="13.4630267"><ele>77.0</ele><time>2026-04-26T15:19:26.526Z</time></trkpt><trkpt lat="43.349055" lon="13.463255"><ele>77.0</ele><time>2026-04-26T15:19:27.526Z</time></trkpt><trkpt lat="43.3491483" lon="13.4634817"><ele>77.0</ele><time>2026-04-26T15:19:28.527Z</time></trkpt><trkpt lat="43.3492317" lon="13.4637167"><ele>77.0</ele><time>2026-04-26T15:19:29.526Z</time></trkpt><trkpt lat="43.3493167" lon="13.4639467"><ele>77.0</ele><time>2026-04-26T15:19:30.526Z</time></trkpt><trkpt lat="43.34941" lon="13.4641817"><ele>77.0</ele><time>2026-04-26T15:19:31.526Z</time></trkpt><trkpt lat="43.3495067" lon="13.4644033"><ele>77.0</ele><time>2026-04-26T15:19:32.526Z</time></trkpt><trkpt lat="43.3496" lon="13.464625"><ele>76.66666666666667</ele><time>2026-04-26T15:19:33.527Z</time></trkpt><trkpt lat="43.349695" lon="13.46485"><ele>76.33333333333333</ele><time>2026-04-26T15:19:34.527Z</time></trkpt><trkpt lat="43.3497867" lon="13.4650717"><ele>76.0</ele><time>2026-04-26T15:19:35.526Z</time></trkpt><trkpt lat="43.3498833" lon="13.4653"><ele>75.66666666666666</ele><time>2026-04-26T15:19:36.527Z</time></trkpt><trkpt lat="43.34998" lon="13.4655233"><ele>75.33333333333333</ele><time>2026-04-26T15:19:37.526Z</time></trkpt><trkpt lat="43.3500733" lon="13.4657467"><ele>75.0</ele><time>2026-04-26T15:19:38.527Z</time></trkpt><trkpt lat="43.3501667" lon="13.465975"><ele>75.0</ele><time>2026-04-26T15:19:39.526Z</time></trkpt><trkpt lat="43.3502583" lon="13.466205"><ele>75.0</ele><time>2026-04-26T15:19:40.526Z</time></trkpt><trkpt lat="43.35034" lon="13.46643"><ele>75.0</ele><time>2026-04-26T15:19:41.525Z</time></trkpt><trkpt lat="43.35043" lon="13.466645"><ele>74.66666666666667</ele><time>2026-04-26T15:19:42.526Z</time></trkpt><trkpt lat="43.3505217" lon="13.4668583"><ele>74.33333333333334</ele><time>2026-04-26T15:19:43.525Z</time></trkpt><trkpt lat="43.3506133" lon="13.4670767"><ele>74.0</ele><time>2026-04-26T15:19:44.525Z</time></trkpt><trkpt lat="43.3507033" lon="13.4672867"><ele>74.0</ele><time>2026-04-26T15:19:45.526Z</time></trkpt><trkpt lat="43.350795" lon="13.4674983"><ele>74.0</ele><time>2026-04-26T15:19:46.526Z</time></trkpt><trkpt lat="43.350885" lon="13.4677233"><ele>74.0</ele><time>2026-04-26T15:19:47.525Z</time></trkpt><trkpt lat="43.3509733" lon="13.4679333"><ele>74.0</ele><time>2026-04-26T15:19:48.525Z</time></trkpt><trkpt lat="43.3510733" lon="13.468145"><ele>74.0</ele><time>2026-04-26T15:19:49.525Z</time></trkpt><trkpt lat="43.35116" lon="13.4683567"><ele>74.0</ele><time>2026-04-26T15:19:50.525Z</time></trkpt><trkpt lat="43.3512483" lon="13.4685767"><ele>74.0</ele><time>2026-04-26T15:19:51.525Z</time></trkpt><trkpt lat="43.3513367" lon="13.4687967"><ele>74.0</ele><time>2026-04-26T15:19:52.525Z</time></trkpt><trkpt lat="43.3514267" lon="13.4690133"><ele>74.0</ele><time>2026-04-26T15:19:53.525Z</time></trkpt><trkpt lat="43.3515183" lon="13.46923"><ele>73.66666666666667</ele><time>2026-04-26T15:19:54.525Z</time></trkpt><trkpt lat="43.3516083" lon="13.4694483"><ele>73.33333333333333</ele><time>2026-04-26T15:19:55.525Z</time></trkpt><trkpt lat="43.3517017" lon="13.46966"><ele>73.0</ele><time>2026-04-26T15:19:56.525Z</time></trkpt><trkpt lat="43.3517917" lon="13.4698683"><ele>72.66666666666666</ele><time>2026-04-26T15:19:57.525Z</time></trkpt><trkpt lat="43.3518767" lon="13.4700733"><ele>72.33333333333333</ele><time>2026-04-26T15:19:58.525Z</time></trkpt><trkpt lat="43.3519533" lon="13.4702733"><ele>72.0</ele><time>2026-04-26T15:19:59.526Z</time></trkpt><trkpt lat="43.3520433" lon="13.4704417"><ele>72.0</ele><time>2026-04-26T15:20:00.525Z</time></trkpt><trkpt lat="43.352115" lon="13.4706433"><ele>72.0</ele><time>2026-04-26T15:20:01.525Z</time></trkpt><trkpt lat="43.3521917" lon="13.4708367"><ele>72.0</ele><time>2026-04-26T15:20:02.525Z</time></trkpt><trkpt lat="43.35227" lon="13.4710217"><ele>72.0</ele><time>2026-04-26T15:20:03.525Z</time></trkpt><trkpt lat="43.3523467" lon="13.4712117"><ele>72.0</ele><time>2026-04-26T15:20:04.525Z</time></trkpt><trkpt lat="43.3524217" lon="13.4714017"><ele>72.0</ele><time>2026-04-26T15:20:05.525Z</time></trkpt><trkpt lat="43.3525" lon="13.4715867"><ele>71.66666666666667</ele><time>2026-04-26T15:20:06.525Z</time></trkpt><trkpt lat="43.3525833" lon="13.4717633"><ele>71.33333333333334</ele><time>2026-04-26T15:20:07.525Z</time></trkpt><trkpt lat="43.3526717" lon="13.4719533"><ele>71.0</ele><time>2026-04-26T15:20:08.525Z</time></trkpt><trkpt lat="43.35275" lon="13.4721417"><ele>70.66666666666667</ele><time>2026-04-26T15:20:09.525Z</time></trkpt><trkpt lat="43.3528267" lon="13.4723317"><ele>70.33333333333333</ele><time>2026-04-26T15:20:10.525Z</time></trkpt><trkpt lat="43.3529067" lon="13.4725167"><ele>70.0</ele><time>2026-04-26T15:20:11.525Z</time></trkpt><trkpt lat="43.35299" lon="13.47271"><ele>69.66666666666666</ele><time>2026-04-26T15:20:12.525Z</time></trkpt><trkpt lat="43.3530783" lon="13.4729017"><ele>69.33333333333333</ele><time>2026-04-26T15:20:13.525Z</time></trkpt><trkpt lat="43.3531667" lon="13.4731033"><ele>69.0</ele><time>2026-04-26T15:20:14.525Z</time></trkpt><trkpt lat="43.3532483" lon="13.4732967"><ele>69.0</ele><time>2026-04-26T15:20:15.526Z</time></trkpt><trkpt lat="43.3533333" lon="13.4734883"><ele>69.0</ele><time>2026-04-26T15:20:16.525Z</time></trkpt><trkpt lat="43.3534217" lon="13.4736817"><ele>69.0</ele><time>2026-04-26T15:20:17.525Z</time></trkpt><trkpt lat="43.3535183" lon="13.4738767"><ele>68.66666666666667</ele><time>2026-04-26T15:20:18.525Z</time></trkpt><trkpt lat="43.3536133" lon="13.4740933"><ele>68.33333333333334</ele><time>2026-04-26T15:20:19.525Z</time></trkpt><trkpt lat="43.3537133" lon="13.4743267"><ele>68.0</ele><time>2026-04-26T15:20:20.525Z</time></trkpt><trkpt lat="43.353815" lon="13.4745567"><ele>67.66666666666667</ele><time>2026-04-26T15:20:21.526Z</time></trkpt><trkpt lat="43.3539183" lon="13.47479"><ele>67.33333333333333</ele><time>2026-04-26T15:20:22.526Z</time></trkpt><trkpt lat="43.35401" lon="13.475025"><ele>67.0</ele><time>2026-04-26T15:20:23.525Z</time></trkpt><trkpt lat="43.3541033" lon="13.4752583"><ele>67.33333333333333</ele><time>2026-04-26T15:20:24.525Z</time></trkpt><trkpt lat="43.354205" lon="13.475485"><ele>67.66666666666667</ele><time>2026-04-26T15:20:25.526Z</time></trkpt><trkpt lat="43.3542917" lon="13.4757017"><ele>68.0</ele><time>2026-04-26T15:20:26.525Z</time></trkpt><trkpt lat="43.3543783" lon="13.4759133"><ele>68.0</ele><time>2026-04-26T15:20:27.525Z</time></trkpt><trkpt lat="43.3544633" lon="13.476125"><ele>68.0</ele><time>2026-04-26T15:20:28.525Z</time></trkpt><trkpt lat="43.3545533" lon="13.4763367"><ele>68.0</ele><time>2026-04-26T15:20:29.525Z</time></trkpt><trkpt lat="43.354635" lon="13.4765317"><ele>68.0</ele><time>2026-04-26T15:20:30.525Z</time></trkpt><trkpt lat="43.3547183" lon="13.4767117"><ele>68.0</ele><time>2026-04-26T15:20:31.525Z</time></trkpt><trkpt lat="43.354785" lon="13.4768883"><ele>68.0</ele><time>2026-04-26T15:20:32.525Z</time></trkpt><trkpt lat="43.3548583" lon="13.4770467"><ele>68.0</ele><time>2026-04-26T15:20:33.525Z</time></trkpt><trkpt lat="43.35492" lon="13.477225"><ele>68.0</ele><time>2026-04-26T15:20:34.525Z</time></trkpt><trkpt lat="43.3549967" lon="13.47738"><ele>68.0</ele><time>2026-04-26T15:20:35.526Z</time></trkpt><trkpt lat="43.3550567" lon="13.4775283"><ele>68.0</ele><time>2026-04-26T15:20:36.526Z</time></trkpt><trkpt lat="43.3551183" lon="13.4776683"><ele>68.0</ele><time>2026-04-26T15:20:37.525Z</time></trkpt><trkpt lat="43.3551667" lon="13.47779"><ele>68.0</ele><time>2026-04-26T15:20:38.526Z</time></trkpt><trkpt lat="43.3552083" lon="13.4778883"><ele>68.0</ele><time>2026-04-26T15:20:39.525Z</time></trkpt><trkpt lat="43.355235" lon="13.4779917"><ele>68.0</ele><time>2026-04-26T15:20:40.525Z</time></trkpt><trkpt lat="43.3552333" lon="13.4781417"><ele>68.0</ele><time>2026-04-26T15:20:42.525Z</time></trkpt><trkpt lat="43.3552733" lon="13.4782533"><ele>68.0</ele><time>2026-04-26T15:20:44.525Z</time></trkpt><trkpt lat="43.35537" lon="13.478265"><ele>68.0</ele><time>2026-04-26T15:20:46.525Z</time></trkpt><trkpt lat="43.35543" lon="13.4782067"><ele>68.0</ele><time>2026-04-26T15:20:47.525Z</time></trkpt><trkpt lat="43.3555067" lon="13.478135"><ele>68.0</ele><time>2026-04-26T15:20:48.525Z</time></trkpt><trkpt lat="43.3556033" lon="13.47805"><ele>68.0</ele><time>2026-04-26T15:20:49.525Z</time></trkpt><trkpt lat="43.3557283" lon="13.4779767"><ele>68.0</ele><time>2026-04-26T15:20:50.525Z</time></trkpt><trkpt lat="43.3558517" lon="13.4778933"><ele>68.4</ele><time>2026-04-26T15:20:51.525Z</time></trkpt><trkpt lat="43.3559717" lon="13.477815"><ele>68.8</ele><time>2026-04-26T15:20:52.525Z</time></trkpt><trkpt lat="43.3560733" lon="13.47775"><ele>69.2</ele><time>2026-04-26T15:20:53.526Z</time></trkpt><trkpt lat="43.3561633" lon="13.477705"><ele>69.6</ele><time>2026-04-26T15:20:54.525Z</time></trkpt><trkpt lat="43.3562433" lon="13.4776617"><ele>70.0</ele><time>2026-04-26T15:20:55.526Z</time></trkpt><trkpt lat="43.35631" lon="13.4776267"><ele>70.0</ele><time>2026-04-26T15:20:56.525Z</time></trkpt><trkpt lat="43.3563917" lon="13.4776183"><ele>70.0</ele><time>2026-04-26T15:20:58.525Z</time></trkpt><trkpt lat="43.3564467" lon="13.4777367"><ele>70.0</ele><time>2026-04-26T15:21:00.525Z</time></trkpt><trkpt lat="43.3564867" lon="13.4778433"><ele>70.0</ele><time>2026-04-26T15:21:01.525Z</time></trkpt><trkpt lat="43.356525" lon="13.4779717"><ele>70.0</ele><time>2026-04-26T15:21:02.525Z</time></trkpt><trkpt lat="43.356565" lon="13.47809"><ele>70.0</ele><time>2026-04-26T15:21:03.525Z</time></trkpt><trkpt lat="43.3566017" lon="13.478215"><ele>70.0</ele><time>2026-04-26T15:21:04.525Z</time></trkpt><trkpt lat="43.3566833" lon="13.47851"><ele>70.0</ele><time>2026-04-26T15:21:06.526Z</time></trkpt><trkpt lat="43.356725" lon="13.4786533"><ele>70.0</ele><time>2026-04-26T15:21:07.526Z</time></trkpt><trkpt lat="43.3567733" lon="13.4787833"><ele>70.0</ele><time>2026-04-26T15:21:08.526Z</time></trkpt><trkpt lat="43.3568083" lon="13.4788983"><ele>70.0</ele><time>2026-04-26T15:21:09.525Z</time></trkpt><trkpt lat="43.356845" lon="13.47901"><ele>70.0</ele><time>2026-04-26T15:21:10.525Z</time></trkpt><trkpt lat="43.3568883" lon="13.4791133"><ele>70.0</ele><time>2026-04-26T15:21:11.526Z</time></trkpt><trkpt lat="43.3569317" lon="13.47922"><ele>70.0</ele><time>2026-04-26T15:21:12.526Z</time></trkpt><trkpt lat="43.356965" lon="13.4793283"><ele>70.0</ele><time>2026-04-26T15:21:13.525Z</time></trkpt><trkpt lat="43.3570033" lon="13.47945"><ele>70.0</ele><time>2026-04-26T15:21:14.525Z</time></trkpt><trkpt lat="43.3570417" lon="13.47959"><ele>70.0</ele><time>2026-04-26T15:21:15.525Z</time></trkpt><trkpt lat="43.35708" lon="13.4797233"><ele>70.0</ele><time>2026-04-26T15:21:16.526Z</time></trkpt><trkpt lat="43.3571183" lon="13.4798517"><ele>70.0</ele><time>2026-04-26T15:21:17.525Z</time></trkpt><trkpt lat="43.35715" lon="13.4799533"><ele>70.0</ele><time>2026-04-26T15:21:18.525Z</time></trkpt><trkpt lat="43.3571917" lon="13.4800317"><ele>70.0</ele><time>2026-04-26T15:21:19.525Z</time></trkpt><trkpt lat="43.3572967" lon="13.4801017"><ele>70.0</ele><time>2026-04-26T15:21:21.525Z</time></trkpt><trkpt lat="43.35738" lon="13.4800967"><ele>70.0</ele><time>2026-04-26T15:21:22.525Z</time></trkpt><trkpt lat="43.35748" lon="13.4800517"><ele>70.0</ele><time>2026-04-26T15:21:23.525Z</time></trkpt><trkpt lat="43.3575867" lon="13.479995"><ele>70.0</ele><time>2026-04-26T15:21:24.525Z</time></trkpt><trkpt lat="43.3577017" lon="13.4799333"><ele>70.0</ele><time>2026-04-26T15:21:25.525Z</time></trkpt><trkpt lat="43.3578333" lon="13.4798833"><ele>70.0</ele><time>2026-04-26T15:21:26.525Z</time></trkpt><trkpt lat="43.3579717" lon="13.4798333"><ele>70.0</ele><time>2026-04-26T15:21:27.525Z</time></trkpt><trkpt lat="43.358105" lon="13.4797783"><ele>70.0</ele><time>2026-04-26T15:21:28.525Z</time></trkpt><trkpt lat="43.3582283" lon="13.4797417"><ele>70.0</ele><time>2026-04-26T15:21:29.525Z</time></trkpt><trkpt lat="43.3583417" lon="13.4797033"><ele>70.0</ele><time>2026-04-26T15:21:30.525Z</time></trkpt><trkpt lat="43.3584233" lon="13.47966"><ele>70.0</ele><time>2026-04-26T15:21:31.525Z</time></trkpt><trkpt lat="43.3584917" lon="13.4796033"><ele>70.0</ele><time>2026-04-26T15:21:32.525Z</time></trkpt><trkpt lat="43.358545" lon="13.4795083"><ele>70.0</ele><time>2026-04-26T15:21:33.525Z</time></trkpt><trkpt lat="43.3585967" lon="13.479385"><ele>69.75</ele><time>2026-04-26T15:21:34.525Z</time></trkpt><trkpt lat="43.3586433" lon="13.4792467"><ele>69.5</ele><time>2026-04-26T15:21:35.525Z</time></trkpt><trkpt lat="43.35868" lon="13.4790533"><ele>69.25</ele><time>2026-04-26T15:21:36.525Z</time></trkpt><trkpt lat="43.358725" lon="13.4788517"><ele>69.0</ele><time>2026-04-26T15:21:37.526Z</time></trkpt><trkpt lat="43.3587717" lon="13.478645"><ele>69.0</ele><time>2026-04-26T15:21:38.525Z</time></trkpt><trkpt lat="43.3588167" lon="13.4784483"><ele>69.0</ele><time>2026-04-26T15:21:39.525Z</time></trkpt><trkpt lat="43.359705" lon="13.4756383"><ele>69.0</ele><time>2026-04-26T15:22:04.525Z</time></trkpt><trkpt lat="43.3599517" lon="13.475495"><ele>69.0</ele><time>2026-04-26T15:22:05.525Z</time></trkpt><trkpt lat="43.360205" lon="13.4753467"><ele>68.5</ele><time>2026-04-26T15:22:06.525Z</time></trkpt><trkpt lat="43.36046" lon="13.4751917"><ele>68.0</ele><time>2026-04-26T15:22:07.525Z</time></trkpt><trkpt lat="43.360715" lon="13.4750467"><ele>69.0</ele><time>2026-04-26T15:22:08.525Z</time></trkpt><trkpt lat="43.36095" lon="13.47491"><ele>70.0</ele><time>2026-04-26T15:22:09.525Z</time></trkpt><trkpt lat="43.3611717" lon="13.4747767"><ele>74.0</ele><time>2026-04-26T15:22:10.526Z</time></trkpt><trkpt lat="43.36158" lon="13.4745583"><ele>78.0</ele><time>2026-04-26T15:22:12.525Z</time></trkpt><trkpt lat="43.361765" lon="13.4744533"><ele>78.0</ele><time>2026-04-26T15:22:13.526Z</time></trkpt><trkpt lat="43.3619533" lon="13.47435"><ele>78.0</ele><time>2026-04-26T15:22:14.525Z</time></trkpt><trkpt lat="43.3621533" lon="13.4742333"><ele>78.0</ele><time>2026-04-26T15:22:15.526Z</time></trkpt><trkpt lat="43.3623633" lon="13.47411"><ele>80.0</ele><time>2026-04-26T15:22:16.526Z</time></trkpt><trkpt lat="43.3625683" lon="13.473975"><ele>82.0</ele><time>2026-04-26T15:22:17.525Z</time></trkpt><trkpt lat="43.3627733" lon="13.4738433"><ele>81.0</ele><time>2026-04-26T15:22:18.525Z</time></trkpt><trkpt lat="43.36299" lon="13.4737133"><ele>80.0</ele><time>2026-04-26T15:22:19.525Z</time></trkpt><trkpt lat="43.3632117" lon="13.473585"><ele>79.5</ele><time>2026-04-26T15:22:20.525Z</time></trkpt><trkpt lat="43.3634467" lon="13.473435"><ele>79.0</ele><time>2026-04-26T15:22:21.525Z</time></trkpt><trkpt lat="43.363675" lon="13.473295"><ele>79.0</ele><time>2026-04-26T15:22:22.525Z</time></trkpt><trkpt lat="43.3639083" lon="13.4731533"><ele>79.0</ele><time>2026-04-26T15:22:23.525Z</time></trkpt><trkpt lat="43.3641333" lon="13.4730183"><ele>79.33333333333333</ele><time>2026-04-26T15:22:24.526Z</time></trkpt><trkpt lat="43.3643417" lon="13.4728967"><ele>79.66666666666667</ele><time>2026-04-26T15:22:25.525Z</time></trkpt><trkpt lat="43.3645317" lon="13.4727867"><ele>80.0</ele><time>2026-04-26T15:22:26.525Z</time></trkpt><trkpt lat="43.3646967" lon="13.472685"><ele>81.5</ele><time>2026-04-26T15:22:27.525Z</time></trkpt><trkpt lat="43.3648467" lon="13.472595"><ele>83.0</ele><time>2026-04-26T15:22:28.525Z</time></trkpt><trkpt lat="43.3649583" lon="13.4725233"><ele>84.5</ele><time>2026-04-26T15:22:29.525Z</time></trkpt><trkpt lat="43.36504" lon="13.4724233"><ele>86.0</ele><time>2026-04-26T15:22:30.525Z</time></trkpt><trkpt lat="43.3651267" lon="13.4721133"><ele>86.66666666666667</ele><time>2026-04-26T15:22:32.525Z</time></trkpt><trkpt lat="43.3651533" lon="13.4718983"><ele>87.33333333333333</ele><time>2026-04-26T15:22:33.526Z</time></trkpt><trkpt lat="43.36519" lon="13.4716767"><ele>88.0</ele><time>2026-04-26T15:22:34.525Z</time></trkpt><trkpt lat="43.3652333" lon="13.4714633"><ele>88.5</ele><time>2026-04-26T15:22:35.526Z</time></trkpt><trkpt lat="43.365285" lon="13.4712667"><ele>89.0</ele><time>2026-04-26T15:22:36.525Z</time></trkpt><trkpt lat="43.3653517" lon="13.4711117"><ele>89.5</ele><time>2026-04-26T15:22:37.526Z</time></trkpt><trkpt lat="43.3654367" lon="13.470975"><ele>90.0</ele><time>2026-04-26T15:22:38.525Z</time></trkpt><trkpt lat="43.36556" lon="13.4708533"><ele>91.66666666666667</ele><time>2026-04-26T15:22:39.525Z</time></trkpt><trkpt lat="43.3657117" lon="13.4707433"><ele>93.33333333333334</ele><time>2026-04-26T15:22:40.525Z</time></trkpt><trkpt lat="43.36589" lon="13.470635"><ele>95.0</ele><time>2026-04-26T15:22:41.525Z</time></trkpt><trkpt lat="43.3660733" lon="13.4705067"><ele>95.5</ele><time>2026-04-26T15:22:42.525Z</time></trkpt><trkpt lat="43.366275" lon="13.470365"><ele>96.0</ele><time>2026-04-26T15:22:43.526Z</time></trkpt><trkpt lat="43.3664867" lon="13.470215"><ele>96.0</ele><time>2026-04-26T15:22:44.525Z</time></trkpt><trkpt lat="43.366705" lon="13.4700617"><ele>96.0</ele><time>2026-04-26T15:22:45.526Z</time></trkpt><trkpt lat="43.3669333" lon="13.4699033"><ele>96.0</ele><time>2026-04-26T15:22:46.525Z</time></trkpt><trkpt lat="43.3671667" lon="13.4697433"><ele>96.0</ele><time>2026-04-26T15:22:47.525Z</time></trkpt><trkpt lat="43.3673967" lon="13.4695767"><ele>97.5</ele><time>2026-04-26T15:22:48.525Z</time></trkpt><trkpt lat="43.36762" lon="13.4694183"><ele>99.0</ele><time>2026-04-26T15:22:49.526Z</time></trkpt><trkpt lat="43.3678333" lon="13.4692683"><ele>100.5</ele><time>2026-04-26T15:22:50.525Z</time></trkpt><trkpt lat="43.368035" lon="13.469135"><ele>102.0</ele><time>2026-04-26T15:22:51.525Z</time></trkpt><trkpt lat="43.368365" lon="13.4689117"><ele>102.0</ele><time>2026-04-26T15:22:53.526Z</time></trkpt><trkpt lat="43.3684983" lon="13.4688067"><ele>102.0</ele><time>2026-04-26T15:22:54.525Z</time></trkpt><trkpt lat="43.36861" lon="13.4687033"><ele>102.0</ele><time>2026-04-26T15:22:55.525Z</time></trkpt><trkpt lat="43.3686917" lon="13.4685867"><ele>102.0</ele><time>2026-04-26T15:22:56.525Z</time></trkpt><trkpt lat="43.36874" lon="13.4684333"><ele>103.0</ele><time>2026-04-26T15:22:57.525Z</time></trkpt><trkpt lat="43.36876" lon="13.468265"><ele>104.0</ele><time>2026-04-26T15:22:58.526Z</time></trkpt><trkpt lat="43.3687767" lon="13.4681"><ele>104.99999999999999</ele><time>2026-04-26T15:22:59.525Z</time></trkpt><trkpt lat="43.368785" lon="13.4679583"><ele>106.0</ele><time>2026-04-26T15:23:00.525Z</time></trkpt><trkpt lat="43.36879" lon="13.4678333"><ele>107.0</ele><time>2026-04-26T15:23:01.525Z</time></trkpt><trkpt lat="43.3687983" lon="13.4677283"><ele>107.16666666666666</ele><time>2026-04-26T15:23:02.526Z</time></trkpt><trkpt lat="43.36879" lon="13.4676417"><ele>107.33333333333333</ele><time>2026-04-26T15:23:03.525Z</time></trkpt><trkpt lat="43.36874" lon="13.467555"><ele>107.5</ele><time>2026-04-26T15:23:05.526Z</time></trkpt><trkpt lat="43.3686517" lon="13.46751"><ele>107.66666666666666</ele><time>2026-04-26T15:23:07.525Z</time></trkpt><trkpt lat="43.3685967" lon="13.467465"><ele>107.83333333333333</ele><time>2026-04-26T15:23:09.525Z</time></trkpt><trkpt lat="43.368595" lon="13.467375"><ele>108.0</ele><time>2026-04-26T15:23:12.525Z</time></trkpt><trkpt lat="43.368495" lon="13.4672933"><ele>108.0</ele><time>2026-04-26T15:24:07.136Z</time></trkpt><trkpt lat="43.368595" lon="13.4672717"><ele>108.0</ele><time>2026-04-26T15:24:11.136Z</time></trkpt></trkseg></trk></gpx>